<?xml version='1.0' encoding='UTF-8'?><gpx version="1.1" creator="JPX - https://github.com/jenetics/jpx" xmlns="http://www.topografix.com/GPX/1/1"><trk><trkseg><trkpt lat="44.77358547457169" lon="10.262734737122473"><ele>86.0</ele><time>2026-03-28T07:50:32Z</time></trkpt><trkpt lat="44.773630879265305" lon="10.26286409771047"><ele>86.0</ele><time>2026-03-28T07:50:34Z</time></trkpt><trkpt lat="44.77370105682291" lon="10.262989552259992"><ele>86.0</ele><time>2026-03-28T07:50:36Z</time></trkpt><trkpt lat="44.77380187324712" lon="10.26303894020831"><ele>86.0</ele><time>2026-03-28T07:50:38Z</time></trkpt><trkpt lat="44.77388673628059" lon="10.263018793559977"><ele>86.0</ele><time>2026-03-28T07:50:40Z</time></trkpt><trkpt lat="44.77395907924408" lon="10.263054282740713"><ele>85.85714285714286</ele><time>2026-03-28T07:50:43Z</time></trkpt><trkpt lat="44.774004069468425" lon="10.263117756816438"><ele>85.71428571428572</ele><time>2026-03-28T07:50:45.999Z</time></trkpt><trkpt lat="44.77400479084275" lon="10.263226563695449"><ele>85.57142857142858</ele><time>2026-03-28T07:50:58.999Z</time></trkpt><trkpt lat="44.77395291369458" lon="10.263324209190566"><ele>85.42857142857143</ele><time>2026-03-28T07:51:19.999Z</time></trkpt><trkpt lat="44.77388882942845" lon="10.263373480028974"><ele>85.28571428571428</ele><time>2026-03-28T07:51:22.999Z</time></trkpt><trkpt lat="44.77382336469712" lon="10.263383448299138"><ele>85.14285714285715</ele><time>2026-03-28T07:51:25.999Z</time></trkpt><trkpt lat="44.77376115139459" lon="10.263359957212266"><ele>85.0</ele><time>2026-03-28T07:51:28.999Z</time></trkpt><trkpt lat="44.773705131560284" lon="10.26330607911335"><ele>85.0</ele><time>2026-03-28T07:51:31.999Z</time></trkpt><trkpt lat="44.773773811788224" lon="10.263281274129094"><ele>85.0</ele><time>2026-03-28T07:51:34.999Z</time></trkpt><trkpt lat="44.773844925250984" lon="10.263370928148536"><ele>85.0</ele><time>2026-03-28T07:51:37.999Z</time></trkpt><trkpt lat="44.773895373891136" lon="10.263444951626871"><ele>85.0</ele><time>2026-03-28T07:51:40.999Z</time></trkpt><trkpt lat="44.77394100253008" lon="10.263535039054878"><ele>85.0</ele><time>2026-03-28T07:51:43.999Z</time></trkpt><trkpt lat="44.773973675714984" lon="10.263618784071921"><ele>85.0</ele><time>2026-03-28T07:51:45.999Z</time></trkpt><trkpt lat="44.77391678031558" lon="10.263681707914886"><ele>85.0</ele><time>2026-03-28T07:51:49Z</time></trkpt><trkpt lat="44.77385748629059" lon="10.263597382068507"><ele>85.0</ele><time>2026-03-28T07:51:52Z</time></trkpt><trkpt lat="44.773855687683934" lon="10.26348535107758"><ele>85.0</ele><time>2026-03-28T07:51:55Z</time></trkpt><trkpt lat="44.77381093866959" lon="10.263382866870419"><ele>85.0</ele><time>2026-03-28T07:51:58Z</time></trkpt><trkpt lat="44.77373572938862" lon="10.263312713132663"><ele>85.0</ele><time>2026-03-28T07:52:01Z</time></trkpt><trkpt lat="44.773677514933055" lon="10.2632212670283"><ele>85.0</ele><time>2026-03-28T07:52:03Z</time></trkpt><trkpt lat="44.77362322782616" lon="10.263128023031932"><ele>85.25</ele><time>2026-03-28T07:52:04Z</time></trkpt><trkpt lat="44.77356716804685" lon="10.263023219281665"><ele>85.5</ele><time>2026-03-28T07:52:05Z</time></trkpt><trkpt lat="44.773507259789504" lon="10.262885809740448"><ele>85.75</ele><time>2026-03-28T07:52:06Z</time></trkpt><trkpt lat="44.77343150373697" lon="10.262739750181094"><ele>86.0</ele><time>2026-03-28T07:52:07Z</time></trkpt><trkpt lat="44.77336161129331" lon="10.262584933345902"><ele>86.5</ele><time>2026-03-28T07:52:08Z</time></trkpt><trkpt lat="44.773293885043394" lon="10.262445136667289"><ele>87.0</ele><time>2026-03-28T07:52:09Z</time></trkpt><trkpt lat="44.77322723230621" lon="10.262303906313802"><ele>87.5</ele><time>2026-03-28T07:52:10Z</time></trkpt><trkpt lat="44.77315900136129" lon="10.26215625368865"><ele>88.0</ele><time>2026-03-28T07:52:11Z</time></trkpt><trkpt lat="44.77309508728056" lon="10.26202440062288"><ele>88.0</ele><time>2026-03-28T07:52:12Z</time></trkpt><trkpt lat="44.773036960828634" lon="10.26189965119859"><ele>88.0</ele><time>2026-03-28T07:52:13Z</time></trkpt><trkpt lat="44.77298930036564" lon="10.261801868028424"><ele>88.0</ele><time>2026-03-28T07:52:14Z</time></trkpt><trkpt lat="44.772940407910305" lon="10.261716830507336"><ele>88.0</ele><time>2026-03-28T07:52:15Z</time></trkpt><trkpt lat="44.77291016548479" lon="10.261630519300862"><ele>88.0</ele><time>2026-03-28T07:52:16Z</time></trkpt><trkpt lat="44.772721518772364" lon="10.261717523181517"><ele>88.5</ele><time>2026-03-28T07:52:18Z</time></trkpt><trkpt lat="44.77263481761745" lon="10.261807372423227"><ele>89.0</ele><time>2026-03-28T07:52:19Z</time></trkpt><trkpt lat="44.77253510114505" lon="10.261916136698119"><ele>89.5</ele><time>2026-03-28T07:52:20Z</time></trkpt><trkpt lat="44.77243101905954" lon="10.262013511843668"><ele>90.0</ele><time>2026-03-28T07:52:21Z</time></trkpt><trkpt lat="44.77232872894623" lon="10.26211086395803"><ele>90.0</ele><time>2026-03-28T07:52:22Z</time></trkpt><trkpt lat="44.772223498029454" lon="10.262208393646267"><ele>90.0</ele><time>2026-03-28T07:52:23Z</time></trkpt><trkpt lat="44.77212047651986" lon="10.262301983389182"><ele>90.0</ele><time>2026-03-28T07:52:24Z</time></trkpt><trkpt lat="44.77202798702483" lon="10.262388613095284"><ele>90.0</ele><time>2026-03-28T07:52:25Z</time></trkpt><trkpt lat="44.77193352833077" lon="10.262478565765946"><ele>90.0</ele><time>2026-03-28T07:52:26Z</time></trkpt><trkpt lat="44.771841707535145" lon="10.262567193817526"><ele>90.0</ele><time>2026-03-28T07:52:27Z</time></trkpt><trkpt lat="44.77174941047669" lon="10.262651062186789"><ele>90.0</ele><time>2026-03-28T07:52:28Z</time></trkpt><trkpt lat="44.77165373103012" lon="10.262730985760937"><ele>90.0</ele><time>2026-03-28T07:52:29Z</time></trkpt><trkpt lat="44.771556371717594" lon="10.262813659186444"><ele>90.0</ele><time>2026-03-28T07:52:30Z</time></trkpt><trkpt lat="44.77146271165319" lon="10.262898532255766"><ele>90.0</ele><time>2026-03-28T07:52:31Z</time></trkpt><trkpt lat="44.771364693909405" lon="10.262997384737826"><ele>90.0</ele><time>2026-03-28T07:52:32Z</time></trkpt><trkpt lat="44.77126821926373" lon="10.263091295054286"><ele>90.0</ele><time>2026-03-28T07:52:33Z</time></trkpt><trkpt lat="44.77117287531585" lon="10.263170836355213"><ele>90.0</ele><time>2026-03-28T07:52:34Z</time></trkpt><trkpt lat="44.77107480221859" lon="10.263213606529465"><ele>90.0</ele><time>2026-03-28T07:52:35Z</time></trkpt><trkpt lat="44.77099651794184" lon="10.263283613028026"><ele>90.0</ele><time>2026-03-28T07:52:36Z</time></trkpt><trkpt lat="44.7708559143236" lon="10.263167120092094"><ele>90.0</ele><time>2026-03-28T07:52:37Z</time></trkpt><trkpt lat="44.770746395774864" lon="10.263094853898211"><ele>90.0</ele><time>2026-03-28T07:52:38Z</time></trkpt><trkpt lat="44.770653248388314" lon="10.26301592085849"><ele>90.0</ele><time>2026-03-28T07:52:39Z</time></trkpt><trkpt lat="44.77057049475759" lon="10.262960498059956"><ele>90.0</ele><time>2026-03-28T07:52:40Z</time></trkpt><trkpt lat="44.770500480202784" lon="10.262919746824556"><ele>90.0</ele><time>2026-03-28T07:52:41Z</time></trkpt><trkpt lat="44.77044745206068" lon="10.26285976846357"><ele>90.0</ele><time>2026-03-28T07:52:42Z</time></trkpt><trkpt lat="44.77033780079944" lon="10.262717525473056"><ele>90.0</ele><time>2026-03-28T07:52:44Z</time></trkpt><trkpt lat="44.7702842208078" lon="10.262598683985475"><ele>90.0</ele><time>2026-03-28T07:52:45Z</time></trkpt><trkpt lat="44.77022649700465" lon="10.262460658303622"><ele>90.0</ele><time>2026-03-28T07:52:46Z</time></trkpt><trkpt lat="44.77015425538136" lon="10.262306633546137"><ele>90.0</ele><time>2026-03-28T07:52:47Z</time></trkpt><trkpt lat="44.77007065246626" lon="10.26213671485923"><ele>90.0</ele><time>2026-03-28T07:52:48Z</time></trkpt><trkpt lat="44.76998545492119" lon="10.261958448365363"><ele>90.33333333333333</ele><time>2026-03-28T07:52:49Z</time></trkpt><trkpt lat="44.76989676043404" lon="10.261773651382292"><ele>90.66666666666666</ele><time>2026-03-28T07:52:50Z</time></trkpt><trkpt lat="44.76980569728825" lon="10.261588727657264"><ele>91.0</ele><time>2026-03-28T07:52:51Z</time></trkpt><trkpt lat="44.76971000404385" lon="10.261388132164731"><ele>91.33333333333333</ele><time>2026-03-28T07:52:52Z</time></trkpt><trkpt lat="44.76961158955089" lon="10.261189025927349"><ele>91.66666666666667</ele><time>2026-03-28T07:52:53Z</time></trkpt><trkpt lat="44.76951210931195" lon="10.260982018099382"><ele>92.0</ele><time>2026-03-28T07:52:54Z</time></trkpt><trkpt lat="44.76940912198502" lon="10.26077257554858"><ele>92.33333333333334</ele><time>2026-03-28T07:52:55Z</time></trkpt><trkpt lat="44.769313083008186" lon="10.260565626515149"><ele>92.66666666666667</ele><time>2026-03-28T07:52:56Z</time></trkpt><trkpt lat="44.76921905648556" lon="10.26037063257414"><ele>93.0</ele><time>2026-03-28T07:52:57Z</time></trkpt><trkpt lat="44.76912753608978" lon="10.260176311313067"><ele>93.0</ele><time>2026-03-28T07:52:57.999Z</time></trkpt><trkpt lat="44.76903507483555" lon="10.25998157743617"><ele>93.0</ele><time>2026-03-28T07:52:58.999Z</time></trkpt><trkpt lat="44.76894484883517" lon="10.259787426635384"><ele>93.0</ele><time>2026-03-28T07:52:59.999Z</time></trkpt><trkpt lat="44.76885206584048" lon="10.25958802124114"><ele>93.0</ele><time>2026-03-28T07:53:00.999Z</time></trkpt><trkpt lat="44.76875999927673" lon="10.259391252653488"><ele>93.0</ele><time>2026-03-28T07:53:01.999Z</time></trkpt><trkpt lat="44.76866872332598" lon="10.259195391389934"><ele>93.0</ele><time>2026-03-28T07:53:02.999Z</time></trkpt><trkpt lat="44.76857655370375" lon="10.258999118440757"><ele>93.33333333333333</ele><time>2026-03-28T07:53:03.999Z</time></trkpt><trkpt lat="44.76848668152588" lon="10.258802213613965"><ele>93.66666666666666</ele><time>2026-03-28T07:53:04.999Z</time></trkpt><trkpt lat="44.768396429884895" lon="10.25860393723201"><ele>94.0</ele><time>2026-03-28T07:53:05.999Z</time></trkpt><trkpt lat="44.768304323407335" lon="10.25840596525508"><ele>94.0</ele><time>2026-03-28T07:53:06.999Z</time></trkpt><trkpt lat="44.76821324566972" lon="10.258205416937779"><ele>94.0</ele><time>2026-03-28T07:53:07.999Z</time></trkpt><trkpt lat="44.76812207279935" lon="10.258008831225661"><ele>94.0</ele><time>2026-03-28T07:53:08.999Z</time></trkpt><trkpt lat="44.76803137823078" lon="10.257808260197057"><ele>93.66666666666666</ele><time>2026-03-28T07:53:09.999Z</time></trkpt><trkpt lat="44.7679396648901" lon="10.257608741397718"><ele>93.33333333333333</ele><time>2026-03-28T07:53:10.999Z</time></trkpt><trkpt lat="44.76784965823405" lon="10.257413323855594"><ele>93.0</ele><time>2026-03-28T07:53:11.999Z</time></trkpt><trkpt lat="44.76775712522095" lon="10.25721371952946"><ele>93.66666666666667</ele><time>2026-03-28T07:53:12.999Z</time></trkpt><trkpt lat="44.767665489545266" lon="10.257014603209303"><ele>94.33333333333334</ele><time>2026-03-28T07:53:13.999Z</time></trkpt><trkpt lat="44.767575189422864" lon="10.256813726515665"><ele>95.0</ele><time>2026-03-28T07:53:14.999Z</time></trkpt><trkpt lat="44.76748245180505" lon="10.256614463874842"><ele>95.0</ele><time>2026-03-28T07:53:15.999Z</time></trkpt><trkpt lat="44.76739163278317" lon="10.25641637993119"><ele>95.0</ele><time>2026-03-28T07:53:16.999Z</time></trkpt><trkpt lat="44.76730161302389" lon="10.256220037628463"><ele>95.0</ele><time>2026-03-28T07:53:17.999Z</time></trkpt><trkpt lat="44.767208931076894" lon="10.256017766200774"><ele>95.0</ele><time>2026-03-28T07:53:18.999Z</time></trkpt><trkpt lat="44.76711964854926" lon="10.25581907829325"><ele>95.0</ele><time>2026-03-28T07:53:19.999Z</time></trkpt><trkpt lat="44.76702703817368" lon="10.25562631267406"><ele>95.0</ele><time>2026-03-28T07:53:20.999Z</time></trkpt><trkpt lat="44.76693899743863" lon="10.255432629128519"><ele>95.0</ele><time>2026-03-28T07:53:21.999Z</time></trkpt><trkpt lat="44.76685773424535" lon="10.255265463917155"><ele>95.0</ele><time>2026-03-28T07:53:22.999Z</time></trkpt><trkpt lat="44.76678200539341" lon="10.255105938593253"><ele>95.0</ele><time>2026-03-28T07:53:23.999Z</time></trkpt><trkpt lat="44.76671286302622" lon="10.25496249762838"><ele>95.0</ele><time>2026-03-28T07:53:24.999Z</time></trkpt><trkpt lat="44.76664364537136" lon="10.254820583011304"><ele>95.25</ele><time>2026-03-28T07:53:25.999Z</time></trkpt><trkpt lat="44.76657083261304" lon="10.254659473342029"><ele>95.5</ele><time>2026-03-28T07:53:26.999Z</time></trkpt><trkpt lat="44.76649772269448" lon="10.25448887424939"><ele>95.75</ele><time>2026-03-28T07:53:27.999Z</time></trkpt><trkpt lat="44.76642081445847" lon="10.25431125849055"><ele>96.0</ele><time>2026-03-28T07:53:28.999Z</time></trkpt><trkpt lat="44.76633024429507" lon="10.254110393745885"><ele>96.66666666666666</ele><time>2026-03-28T07:53:29.999Z</time></trkpt><trkpt lat="44.76622768610439" lon="10.253889348206966"><ele>97.33333333333333</ele><time>2026-03-28T07:53:30.999Z</time></trkpt><trkpt lat="44.76612730084882" lon="10.253673261755935"><ele>98.0</ele><time>2026-03-28T07:53:31.999Z</time></trkpt><trkpt lat="44.76602350278445" lon="10.253449118229142"><ele>98.0</ele><time>2026-03-28T07:53:32.999Z</time></trkpt><trkpt lat="44.76591650592686" lon="10.253217523560767"><ele>98.0</ele><time>2026-03-28T07:53:33.999Z</time></trkpt><trkpt lat="44.76581734824796" lon="10.252993334868833"><ele>98.0</ele><time>2026-03-28T07:53:34.999Z</time></trkpt><trkpt lat="44.76571590171681" lon="10.252759991479058"><ele>98.0</ele><time>2026-03-28T07:53:35.999Z</time></trkpt><trkpt lat="44.765618484261516" lon="10.252550941933087"><ele>98.0</ele><time>2026-03-28T07:53:36.999Z</time></trkpt><trkpt lat="44.76552420558609" lon="10.252345829488586"><ele>98.0</ele><time>2026-03-28T07:53:37.999Z</time></trkpt><trkpt lat="44.76542758332355" lon="10.252140265087968"><ele>97.66666666666666</ele><time>2026-03-28T07:53:38.999Z</time></trkpt><trkpt lat="44.765333890807796" lon="10.251931454054114"><ele>97.33333333333334</ele><time>2026-03-28T07:53:39.999Z</time></trkpt><trkpt lat="44.7652412524255" lon="10.251725645208527"><ele>97.0</ele><time>2026-03-28T07:53:40.999Z</time></trkpt><trkpt lat="44.76514611769633" lon="10.2515165897552"><ele>97.33333333333334</ele><time>2026-03-28T07:53:41.999Z</time></trkpt><trkpt lat="44.76505539816229" lon="10.251305457004737"><ele>97.66666666666666</ele><time>2026-03-28T07:53:42.999Z</time></trkpt><trkpt lat="44.76495965123363" lon="10.251087785658981"><ele>98.0</ele><time>2026-03-28T07:53:43.999Z</time></trkpt><trkpt lat="44.764863755107854" lon="10.250886482409923"><ele>98.0</ele><time>2026-03-28T07:53:44.999Z</time></trkpt><trkpt lat="44.76477171208382" lon="10.250691953460311"><ele>98.0</ele><time>2026-03-28T07:53:45.999Z</time></trkpt><trkpt lat="44.76468584294465" lon="10.250495808814508"><ele>98.0</ele><time>2026-03-28T07:53:46.999Z</time></trkpt><trkpt lat="44.76460058366678" lon="10.25030686757497"><ele>98.0</ele><time>2026-03-28T07:53:47.999Z</time></trkpt><trkpt lat="44.764513701132636" lon="10.250112147433965"><ele>98.0</ele><time>2026-03-28T07:53:48.999Z</time></trkpt><trkpt lat="44.76442789522011" lon="10.24992716591227"><ele>98.0</ele><time>2026-03-28T07:53:49.999Z</time></trkpt><trkpt lat="44.764346955805216" lon="10.249749932020347"><ele>99.0</ele><time>2026-03-28T07:53:50.999Z</time></trkpt><trkpt lat="44.76426616416667" lon="10.249571681229074"><ele>100.0</ele><time>2026-03-28T07:53:51.999Z</time></trkpt><trkpt lat="44.76418390895113" lon="10.249395751342304"><ele>101.0</ele><time>2026-03-28T07:53:53Z</time></trkpt><trkpt lat="44.76410472467294" lon="10.249224462849849"><ele>102.0</ele><time>2026-03-28T07:53:54Z</time></trkpt><trkpt lat="44.76402235056085" lon="10.249054708353398"><ele>101.75</ele><time>2026-03-28T07:53:55Z</time></trkpt><trkpt lat="44.76394298943552" lon="10.24888941679423"><ele>101.5</ele><time>2026-03-28T07:53:56Z</time></trkpt><trkpt lat="44.763863571773875" lon="10.248726878758841"><ele>101.25</ele><time>2026-03-28T07:53:57Z</time></trkpt><trkpt lat="44.76378589545775" lon="10.24855822280392"><ele>101.0</ele><time>2026-03-28T07:53:58Z</time></trkpt><trkpt lat="44.76370565795888" lon="10.248379505925499"><ele>101.0</ele><time>2026-03-28T07:53:59Z</time></trkpt><trkpt lat="44.763619253139325" lon="10.248203605276586"><ele>101.0</ele><time>2026-03-28T07:54:00Z</time></trkpt><trkpt lat="44.76353330295737" lon="10.248025401168203"><ele>101.0</ele><time>2026-03-28T07:54:01Z</time></trkpt><trkpt lat="44.76345014540741" lon="10.247855414360606"><ele>101.5</ele><time>2026-03-28T07:54:02Z</time></trkpt><trkpt lat="44.76337302722716" lon="10.247689988559765"><ele>102.0</ele><time>2026-03-28T07:54:03Z</time></trkpt><trkpt lat="44.7632936819426" lon="10.24752171159875"><ele>102.5</ele><time>2026-03-28T07:54:04Z</time></trkpt><trkpt lat="44.76321357355873" lon="10.24735344093109"><ele>103.0</ele><time>2026-03-28T07:54:05Z</time></trkpt><trkpt lat="44.76313055703771" lon="10.247180223941303"><ele>103.0</ele><time>2026-03-28T07:54:06Z</time></trkpt><trkpt lat="44.76304543035671" lon="10.247007075957251"><ele>103.0</ele><time>2026-03-28T07:54:07Z</time></trkpt><trkpt lat="44.7629642070208" lon="10.24683883375418"><ele>103.0</ele><time>2026-03-28T07:54:08Z</time></trkpt><trkpt lat="44.76287966893092" lon="10.24666333440391"><ele>103.0</ele><time>2026-03-28T07:54:09Z</time></trkpt><trkpt lat="44.762800529761165" lon="10.2464857361395"><ele>102.66666666666667</ele><time>2026-03-28T07:54:10Z</time></trkpt><trkpt lat="44.76271820788529" lon="10.246307268223356"><ele>102.33333333333334</ele><time>2026-03-28T07:54:11Z</time></trkpt><trkpt lat="44.762634370906454" lon="10.24613044689361"><ele>102.0</ele><time>2026-03-28T07:54:12Z</time></trkpt><trkpt lat="44.7625526693933" lon="10.245949687830423"><ele>102.0</ele><time>2026-03-28T07:54:13Z</time></trkpt><trkpt lat="44.76247434160373" lon="10.245772220256141"><ele>102.0</ele><time>2026-03-28T07:54:14Z</time></trkpt><trkpt lat="44.76240000168026" lon="10.245595409949658"><ele>102.0</ele><time>2026-03-28T07:54:15Z</time></trkpt><trkpt lat="44.7623292942696" lon="10.245418542400023"><ele>102.0</ele><time>2026-03-28T07:54:16Z</time></trkpt><trkpt lat="44.76225616508055" lon="10.245236398237799"><ele>102.0</ele><time>2026-03-28T07:54:17Z</time></trkpt><trkpt lat="44.76217455924653" lon="10.245049789570604"><ele>102.0</ele><time>2026-03-28T07:54:18Z</time></trkpt><trkpt lat="44.762087993014966" lon="10.244861469513264"><ele>102.0</ele><time>2026-03-28T07:54:19Z</time></trkpt><trkpt lat="44.76199830872353" lon="10.244673138636252"><ele>102.0</ele><time>2026-03-28T07:54:20Z</time></trkpt><trkpt lat="44.76190581499322" lon="10.244483005971643"><ele>102.0</ele><time>2026-03-28T07:54:21Z</time></trkpt><trkpt lat="44.761811892880445" lon="10.244291518353062"><ele>102.0</ele><time>2026-03-28T07:54:22Z</time></trkpt><trkpt lat="44.761715671363255" lon="10.244099267128014"><ele>102.33333333333334</ele><time>2026-03-28T07:54:23Z</time></trkpt><trkpt lat="44.76161870172944" lon="10.243908922427034"><ele>102.66666666666667</ele><time>2026-03-28T07:54:24Z</time></trkpt><trkpt lat="44.76152042523713" lon="10.24371630755405"><ele>103.0</ele><time>2026-03-28T07:54:25Z</time></trkpt><trkpt lat="44.76142162798809" lon="10.243518045530601"><ele>103.0</ele><time>2026-03-28T07:54:26Z</time></trkpt><trkpt lat="44.76132384045432" lon="10.24331749065997"><ele>103.0</ele><time>2026-03-28T07:54:27Z</time></trkpt><trkpt lat="44.76122825965726" lon="10.243120447916727"><ele>103.0</ele><time>2026-03-28T07:54:28Z</time></trkpt><trkpt lat="44.76113536216712" lon="10.24292550831875"><ele>104.0</ele><time>2026-03-28T07:54:29Z</time></trkpt><trkpt lat="44.761041040047935" lon="10.242728202887147"><ele>105.0</ele><time>2026-03-28T07:54:30Z</time></trkpt><trkpt lat="44.76094745786368" lon="10.242531953038785"><ele>106.0</ele><time>2026-03-28T07:54:31Z</time></trkpt><trkpt lat="44.76085570848795" lon="10.24233665695733"><ele>107.0</ele><time>2026-03-28T07:54:32Z</time></trkpt><trkpt lat="44.760759294428574" lon="10.242134615508641"><ele>108.0</ele><time>2026-03-28T07:54:32.999Z</time></trkpt><trkpt lat="44.76066426981285" lon="10.241932229560529"><ele>109.0</ele><time>2026-03-28T07:54:33.999Z</time></trkpt><trkpt lat="44.76056698819264" lon="10.241725021316135"><ele>109.0</ele><time>2026-03-28T07:54:34.999Z</time></trkpt><trkpt lat="44.76047038439711" lon="10.241524128976577"><ele>109.0</ele><time>2026-03-28T07:54:35.999Z</time></trkpt><trkpt lat="44.76037591983934" lon="10.241323411214912"><ele>109.0</ele><time>2026-03-28T07:54:36.999Z</time></trkpt><trkpt lat="44.760288661071236" lon="10.241131799100295"><ele>109.33333333333334</ele><time>2026-03-28T07:54:37.999Z</time></trkpt><trkpt lat="44.76020028426583" lon="10.240938940714251"><ele>109.66666666666666</ele><time>2026-03-28T07:54:38.999Z</time></trkpt><trkpt lat="44.76011087359222" lon="10.240739700299034"><ele>110.0</ele><time>2026-03-28T07:54:39.999Z</time></trkpt><trkpt lat="44.76001747436398" lon="10.240538045401255"><ele>110.66666666666666</ele><time>2026-03-28T07:54:40.999Z</time></trkpt><trkpt lat="44.75991835556837" lon="10.240329760296744"><ele>111.33333333333334</ele><time>2026-03-28T07:54:41.999Z</time></trkpt><trkpt lat="44.75982113858453" lon="10.240121972148836"><ele>112.0</ele><time>2026-03-28T07:54:42.999Z</time></trkpt><trkpt lat="44.75972262817279" lon="10.239907551374692"><ele>110.33333333333334</ele><time>2026-03-28T07:54:43.999Z</time></trkpt><trkpt lat="44.759623521954744" lon="10.239692088975358"><ele>108.66666666666666</ele><time>2026-03-28T07:54:44.999Z</time></trkpt><trkpt lat="44.75952405857141" lon="10.239478663750308"><ele>107.0</ele><time>2026-03-28T07:54:45.999Z</time></trkpt><trkpt lat="44.75942534466082" lon="10.23926283228216"><ele>107.33333333333333</ele><time>2026-03-28T07:54:46.999Z</time></trkpt><trkpt lat="44.75932764017631" lon="10.239056717338128"><ele>107.66666666666666</ele><time>2026-03-28T07:54:47.999Z</time></trkpt><trkpt lat="44.75923147487066" lon="10.238854807033546"><ele>108.0</ele><time>2026-03-28T07:54:48.999Z</time></trkpt><trkpt lat="44.759139319378825" lon="10.23865328846931"><ele>108.0</ele><time>2026-03-28T07:54:49.999Z</time></trkpt><trkpt lat="44.759050451726964" lon="10.238450428929124"><ele>108.0</ele><time>2026-03-28T07:54:50.999Z</time></trkpt><trkpt lat="44.758958998802136" lon="10.238252575316329"><ele>108.0</ele><time>2026-03-28T07:54:51.999Z</time></trkpt><trkpt lat="44.75886415116082" lon="10.23804778938792"><ele>108.0</ele><time>2026-03-28T07:54:52.999Z</time></trkpt><trkpt lat="44.758774403593144" lon="10.237854492961763"><ele>108.0</ele><time>2026-03-28T07:54:53.999Z</time></trkpt><trkpt lat="44.75868877691511" lon="10.237669745105713"><ele>108.0</ele><time>2026-03-28T07:54:54.999Z</time></trkpt><trkpt lat="44.75861219022018" lon="10.237499313644937"><ele>108.0</ele><time>2026-03-28T07:54:55.999Z</time></trkpt><trkpt lat="44.7585398503808" lon="10.237347300787897"><ele>108.0</ele><time>2026-03-28T07:54:56.999Z</time></trkpt><trkpt lat="44.7584752265001" lon="10.237203219608707"><ele>108.0</ele><time>2026-03-28T07:54:57.999Z</time></trkpt><trkpt lat="44.75841043360526" lon="10.237064268670093"><ele>108.0</ele><time>2026-03-28T07:54:58.999Z</time></trkpt><trkpt lat="44.75834362757016" lon="10.23692361598401"><ele>108.0</ele><time>2026-03-28T07:54:59.999Z</time></trkpt><trkpt lat="44.75828788806647" lon="10.23681467688039"><ele>108.00000000000001</ele><time>2026-03-28T07:55:00.999Z</time></trkpt><trkpt lat="44.758249886191244" lon="10.236688413546323"><ele>108.00000000000001</ele><time>2026-03-28T07:55:02.999Z</time></trkpt><trkpt lat="44.75816304488994" lon="10.236740434595308"><ele>108.0</ele><time>2026-03-28T07:55:03.999Z</time></trkpt><trkpt lat="44.75809788849237" lon="10.236874765930978"><ele>108.0</ele><time>2026-03-28T07:55:05.999Z</time></trkpt><trkpt lat="44.7580969491051" lon="10.236978683117718"><ele>108.0</ele><time>2026-03-28T07:55:06.999Z</time></trkpt><trkpt lat="44.758172466802954" lon="10.237011845700453"><ele>108.00000000000001</ele><time>2026-03-28T07:55:07.999Z</time></trkpt><trkpt lat="44.758209550563585" lon="10.237099901689342"><ele>108.00000000000001</ele><time>2026-03-28T07:55:10.999Z</time></trkpt><trkpt lat="44.758257775726605" lon="10.237292138692661"><ele>108.0</ele><time>2026-03-28T07:57:36.999Z</time></trkpt><trkpt lat="44.75833919199417" lon="10.23722598371364"><ele>108.0</ele><time>2026-03-28T07:57:38.999Z</time></trkpt><trkpt lat="44.7584156523321" lon="10.237163856333323"><ele>108.0</ele><time>2026-03-28T07:58:11Z</time></trkpt><trkpt lat="44.75835794795478" lon="10.236948474355179"><ele>108.0</ele><time>2026-03-28T07:58:12Z</time></trkpt><trkpt lat="44.75828928021061" lon="10.236817103342185"><ele>108.0</ele><time>2026-03-28T07:58:13Z</time></trkpt><trkpt lat="44.75823590581918" lon="10.236657866071988"><ele>108.0</ele><time>2026-03-28T07:58:14Z</time></trkpt><trkpt lat="44.758153729349516" lon="10.23647828904675"><ele>108.0</ele><time>2026-03-28T07:58:15Z</time></trkpt><trkpt lat="44.758045169140225" lon="10.236276669613344"><ele>108.0</ele><time>2026-03-28T07:58:16Z</time></trkpt><trkpt lat="44.75794576592188" lon="10.236056689067436"><ele>108.0</ele><time>2026-03-28T07:58:17Z</time></trkpt><trkpt lat="44.75782385645087" lon="10.235795405876152"><ele>108.33333333333334</ele><time>2026-03-28T07:58:18Z</time></trkpt><trkpt lat="44.75771184195576" lon="10.235554820043737"><ele>108.66666666666667</ele><time>2026-03-28T07:58:19Z</time></trkpt><trkpt lat="44.75760652557353" lon="10.235324722944677"><ele>109.0</ele><time>2026-03-28T07:58:20Z</time></trkpt><trkpt lat="44.757503179661285" lon="10.2350985018912"><ele>109.66666666666667</ele><time>2026-03-28T07:58:21Z</time></trkpt><trkpt lat="44.75740628412106" lon="10.234877028208325"><ele>110.33333333333334</ele><time>2026-03-28T07:58:22Z</time></trkpt><trkpt lat="44.75730759674384" lon="10.234662561484395"><ele>111.0</ele><time>2026-03-28T07:58:23Z</time></trkpt><trkpt lat="44.75720919725245" lon="10.234456472199714"><ele>111.0</ele><time>2026-03-28T07:58:24Z</time></trkpt><trkpt lat="44.757113152175" lon="10.234255793403523"><ele>111.0</ele><time>2026-03-28T07:58:25Z</time></trkpt><trkpt lat="44.75702136488973" lon="10.234059176563306"><ele>111.0</ele><time>2026-03-28T07:58:26Z</time></trkpt><trkpt lat="44.756935553431646" lon="10.23387268868371"><ele>111.0</ele><time>2026-03-28T07:58:27Z</time></trkpt><trkpt lat="44.756850673137414" lon="10.233690573048104"><ele>111.0</ele><time>2026-03-28T07:58:28Z</time></trkpt><trkpt lat="44.75677747388634" lon="10.233493146815198"><ele>111.0</ele><time>2026-03-28T07:58:29Z</time></trkpt><trkpt lat="44.756690580185726" lon="10.233305587280032"><ele>110.25</ele><time>2026-03-28T07:58:30Z</time></trkpt><trkpt lat="44.756605552898165" lon="10.233119911595209"><ele>109.5</ele><time>2026-03-28T07:58:31Z</time></trkpt><trkpt lat="44.75652963104565" lon="10.232954119636167"><ele>108.75</ele><time>2026-03-28T07:58:32Z</time></trkpt><trkpt lat="44.75645776739571" lon="10.232797188607618"><ele>108.0</ele><time>2026-03-28T07:58:33Z</time></trkpt><trkpt lat="44.75639177848068" lon="10.23263961617413"><ele>108.0</ele><time>2026-03-28T07:58:34Z</time></trkpt><trkpt lat="44.7563270856331" lon="10.232472641017097"><ele>108.0</ele><time>2026-03-28T07:58:35Z</time></trkpt><trkpt lat="44.75627734164594" lon="10.232299140807983"><ele>108.0</ele><time>2026-03-28T07:58:36Z</time></trkpt><trkpt lat="44.7562357059163" lon="10.232132140099093"><ele>108.0</ele><time>2026-03-28T07:58:37Z</time></trkpt><trkpt lat="44.756198207173256" lon="10.23196984473023"><ele>107.80000000000001</ele><time>2026-03-28T07:58:38Z</time></trkpt><trkpt lat="44.75615328658682" lon="10.231825430186127"><ele>107.60000000000001</ele><time>2026-03-28T07:58:39Z</time></trkpt><trkpt lat="44.75612767799099" lon="10.231675382412957"><ele>107.39999999999999</ele><time>2026-03-28T07:58:40Z</time></trkpt><trkpt lat="44.7561168248886" lon="10.231537790681946"><ele>107.19999999999999</ele><time>2026-03-28T07:58:41Z</time></trkpt><trkpt lat="44.75611641045802" lon="10.23141004412391"><ele>107.0</ele><time>2026-03-28T07:58:42Z</time></trkpt><trkpt lat="44.7561293596534" lon="10.231284106638697"><ele>107.6</ele><time>2026-03-28T07:58:43Z</time></trkpt><trkpt lat="44.7561386275977" lon="10.231152763456489"><ele>108.19999999999999</ele><time>2026-03-28T07:58:44Z</time></trkpt><trkpt lat="44.75613224950982" lon="10.23102679070559"><ele>108.8</ele><time>2026-03-28T07:58:45Z</time></trkpt><trkpt lat="44.75609693500862" lon="10.230906712268549"><ele>109.4</ele><time>2026-03-28T07:58:46Z</time></trkpt><trkpt lat="44.75602087726634" lon="10.230793417065195"><ele>110.0</ele><time>2026-03-28T07:58:47Z</time></trkpt><trkpt lat="44.755921954930685" lon="10.230719455334995"><ele>110.4</ele><time>2026-03-28T07:58:48Z</time></trkpt><trkpt lat="44.755813823981434" lon="10.230693430696746"><ele>110.8</ele><time>2026-03-28T07:58:49Z</time></trkpt><trkpt lat="44.755700899411764" lon="10.23069378041022"><ele>111.19999999999999</ele><time>2026-03-28T07:58:50Z</time></trkpt><trkpt lat="44.75559561569793" lon="10.230675706607272"><ele>111.6</ele><time>2026-03-28T07:58:51Z</time></trkpt><trkpt lat="44.75550147661358" lon="10.230605704171605"><ele>112.0</ele><time>2026-03-28T07:58:52Z</time></trkpt><trkpt lat="44.75541779457853" lon="10.230493539058724"><ele>112.0</ele><time>2026-03-28T07:58:53Z</time></trkpt><trkpt lat="44.75533494622469" lon="10.230370326038187"><ele>112.0</ele><time>2026-03-28T07:58:54Z</time></trkpt><trkpt lat="44.75525418597744" lon="10.230229613755872"><ele>112.0</ele><time>2026-03-28T07:58:55Z</time></trkpt><trkpt lat="44.75518268130248" lon="10.23006509359584"><ele>112.0</ele><time>2026-03-28T07:58:56Z</time></trkpt><trkpt lat="44.75510879764028" lon="10.229906006484153"><ele>112.0</ele><time>2026-03-28T07:58:57Z</time></trkpt><trkpt lat="44.75504422388046" lon="10.229751648361368"><ele>112.0</ele><time>2026-03-28T07:58:58Z</time></trkpt><trkpt lat="44.75497362479645" lon="10.229592720017083"><ele>112.0</ele><time>2026-03-28T07:58:59Z</time></trkpt><trkpt lat="44.75490129464097" lon="10.229432641738232"><ele>112.0</ele><time>2026-03-28T07:59:00Z</time></trkpt><trkpt lat="44.75483455114132" lon="10.229293728039657"><ele>112.0</ele><time>2026-03-28T07:59:01Z</time></trkpt><trkpt lat="44.754777128884975" lon="10.229167279066566"><ele>112.0</ele><time>2026-03-28T07:59:02Z</time></trkpt><trkpt lat="44.754715145704395" lon="10.229019465987797"><ele>112.0</ele><time>2026-03-28T07:59:03Z</time></trkpt><trkpt lat="44.754646054184136" lon="10.228867485407422"><ele>112.0</ele><time>2026-03-28T07:59:04Z</time></trkpt><trkpt lat="44.754573676232276" lon="10.228704338056618"><ele>112.0</ele><time>2026-03-28T07:59:05Z</time></trkpt><trkpt lat="44.75449203119219" lon="10.228539574285469"><ele>112.0</ele><time>2026-03-28T07:59:05.999Z</time></trkpt><trkpt lat="44.754411918830364" lon="10.228375288549927"><ele>112.0</ele><time>2026-03-28T07:59:06.999Z</time></trkpt><trkpt lat="44.75434035162739" lon="10.228219834538233"><ele>112.0</ele><time>2026-03-28T07:59:07.999Z</time></trkpt><trkpt lat="44.754275869422614" lon="10.228079998874993"><ele>112.39999999999999</ele><time>2026-03-28T07:59:08.999Z</time></trkpt><trkpt lat="44.75421855099912" lon="10.227954071888874"><ele>112.79999999999998</ele><time>2026-03-28T07:59:09.999Z</time></trkpt><trkpt lat="44.75416801998966" lon="10.227840234277876"><ele>113.2</ele><time>2026-03-28T07:59:10.999Z</time></trkpt><trkpt lat="44.75412856081235" lon="10.227728347959964"><ele>113.6</ele><time>2026-03-28T07:59:11.999Z</time></trkpt><trkpt lat="44.754098127890394" lon="10.227612184479607"><ele>114.0</ele><time>2026-03-28T07:59:12.999Z</time></trkpt><trkpt lat="44.754083859564325" lon="10.227478403885828"><ele>114.0</ele><time>2026-03-28T07:59:13.999Z</time></trkpt><trkpt lat="44.754093302260955" lon="10.227339299441535"><ele>114.0</ele><time>2026-03-28T07:59:14.999Z</time></trkpt><trkpt lat="44.75411791851938" lon="10.227219518351028"><ele>114.0</ele><time>2026-03-28T07:59:15.999Z</time></trkpt><trkpt lat="44.754129335660004" lon="10.227117540538982"><ele>114.0</ele><time>2026-03-28T07:59:16.999Z</time></trkpt><trkpt lat="44.75409669894168" lon="10.22703685236985"><ele>114.0</ele><time>2026-03-28T07:59:17.999Z</time></trkpt><trkpt lat="44.75403113484428" lon="10.226986805435857"><ele>114.0</ele><time>2026-03-28T07:59:18.999Z</time></trkpt><trkpt lat="44.75395831935085" lon="10.22696050630504"><ele>114.2</ele><time>2026-03-28T07:59:19.999Z</time></trkpt><trkpt lat="44.753883227158425" lon="10.226949928636577"><ele>114.4</ele><time>2026-03-28T07:59:20.999Z</time></trkpt><trkpt lat="44.75381028474765" lon="10.226937943036345"><ele>114.6</ele><time>2026-03-28T07:59:21.999Z</time></trkpt><trkpt lat="44.75374123219415" lon="10.226884361979378"><ele>114.8</ele><time>2026-03-28T07:59:22.999Z</time></trkpt><trkpt lat="44.75366840734545" lon="10.226778306049106"><ele>115.0</ele><time>2026-03-28T07:59:23.999Z</time></trkpt><trkpt lat="44.75359509283379" lon="10.22663334472811"><ele>115.2</ele><time>2026-03-28T07:59:24.999Z</time></trkpt><trkpt lat="44.75353264455146" lon="10.226486153531566"><ele>115.4</ele><time>2026-03-28T07:59:25.999Z</time></trkpt><trkpt lat="44.75347502284568" lon="10.226367400013093"><ele>115.6</ele><time>2026-03-28T07:59:26.999Z</time></trkpt><trkpt lat="44.75341108754117" lon="10.226236530465213"><ele>115.8</ele><time>2026-03-28T07:59:27.999Z</time></trkpt><trkpt lat="44.7533527997923" lon="10.226103705178225"><ele>116.0</ele><time>2026-03-28T07:59:28.999Z</time></trkpt><trkpt lat="44.753293891348484" lon="10.225978187787595"><ele>116.0</ele><time>2026-03-28T07:59:29.999Z</time></trkpt><trkpt lat="44.753239970599274" lon="10.225855495687732"><ele>116.0</ele><time>2026-03-28T07:59:30.999Z</time></trkpt><trkpt lat="44.75318521715089" lon="10.22573264636251"><ele>116.0</ele><time>2026-03-28T07:59:31.999Z</time></trkpt><trkpt lat="44.75313375289725" lon="10.22561041207383"><ele>116.0</ele><time>2026-03-28T07:59:32.999Z</time></trkpt><trkpt lat="44.753081318534946" lon="10.225517928707273"><ele>116.0</ele><time>2026-03-28T07:59:33.999Z</time></trkpt><trkpt lat="44.75304390367283" lon="10.225423910450056"><ele>115.99999999999999</ele><time>2026-03-28T07:59:34.999Z</time></trkpt><trkpt lat="44.75300726913917" lon="10.22533812453238"><ele>116.0</ele><time>2026-03-28T07:59:35.999Z</time></trkpt><trkpt lat="44.75296940129735" lon="10.22526274443662"><ele>116.0</ele><time>2026-03-28T07:59:36.999Z</time></trkpt><trkpt lat="44.75294161609437" lon="10.225171349500911"><ele>116.0</ele><time>2026-03-28T07:59:37.999Z</time></trkpt><trkpt lat="44.752907711830844" lon="10.225075084427937"><ele>115.99999999999999</ele><time>2026-03-28T07:59:38.999Z</time></trkpt><trkpt lat="44.752847406133874" lon="10.224990392510266"><ele>116.0</ele><time>2026-03-28T07:59:39.999Z</time></trkpt><trkpt lat="44.75277275534662" lon="10.224896794843477"><ele>115.99999999999999</ele><time>2026-03-28T07:59:41.999Z</time></trkpt><trkpt lat="44.75272601583993" lon="10.224805022980002"><ele>116.0</ele><time>2026-03-28T07:59:44.999Z</time></trkpt><trkpt lat="44.75266684852736" lon="10.224698903931714"><ele>116.0</ele><time>2026-03-28T07:59:46.999Z</time></trkpt><trkpt lat="44.75261708102958" lon="10.224562388513355"><ele>116.0</ele><time>2026-03-28T07:59:48.999Z</time></trkpt><trkpt lat="44.752596815526786" lon="10.224463195794751"><ele>115.99999999999999</ele><time>2026-03-28T07:59:49.999Z</time></trkpt><trkpt lat="44.75255379594478" lon="10.224374697284404"><ele>116.0</ele><time>2026-03-28T07:59:50.999Z</time></trkpt><trkpt lat="44.75249174404617" lon="10.224306252418781"><ele>116.0</ele><time>2026-03-28T07:59:51.999Z</time></trkpt><trkpt lat="44.75239362081938" lon="10.22434970546583"><ele>116.0</ele><time>2026-03-28T07:59:52.999Z</time></trkpt><trkpt lat="44.75232054509723" lon="10.224375759964774"><ele>116.0</ele><time>2026-03-28T07:59:53.999Z</time></trkpt><trkpt lat="44.752187537945765" lon="10.224366521180766"><ele>116.0</ele><time>2026-03-28T07:59:55.999Z</time></trkpt><trkpt lat="44.75211395465595" lon="10.2243503090714"><ele>116.0</ele><time>2026-03-28T07:59:56.999Z</time></trkpt><trkpt lat="44.75204272440068" lon="10.224334390859278"><ele>115.99999999999999</ele><time>2026-03-28T07:59:57.999Z</time></trkpt><trkpt lat="44.75196463190983" lon="10.224316479483596"><ele>116.0</ele><time>2026-03-28T07:59:58.999Z</time></trkpt><trkpt lat="44.75188552663337" lon="10.224304745286963"><ele>116.0</ele><time>2026-03-28T07:59:59.999Z</time></trkpt><trkpt lat="44.751804824216634" lon="10.224302364435891"><ele>116.0</ele><time>2026-03-28T08:00:00.999Z</time></trkpt><trkpt lat="44.751714646017284" lon="10.224282968395066"><ele>115.99999999999999</ele><time>2026-03-28T08:00:01.999Z</time></trkpt><trkpt lat="44.751605478527985" lon="10.224273495942077"><ele>116.0</ele><time>2026-03-28T08:00:02.999Z</time></trkpt><trkpt lat="44.751488250053846" lon="10.224255316847556"><ele>116.25</ele><time>2026-03-28T08:00:03.999Z</time></trkpt><trkpt lat="44.75135863081113" lon="10.224239509003496"><ele>116.5</ele><time>2026-03-28T08:00:04.999Z</time></trkpt><trkpt lat="44.751240214565804" lon="10.224222970646874"><ele>116.75</ele><time>2026-03-28T08:00:05.999Z</time></trkpt><trkpt lat="44.7511186731251" lon="10.224209464809437"><ele>117.0</ele><time>2026-03-28T08:00:06.999Z</time></trkpt><trkpt lat="44.750994384496046" lon="10.224193298857122"><ele>117.0</ele><time>2026-03-28T08:00:07.999Z</time></trkpt><trkpt lat="44.750870487413465" lon="10.224178079825712"><ele>117.0</ele><time>2026-03-28T08:00:08.999Z</time></trkpt><trkpt lat="44.750751035358206" lon="10.22416308617082"><ele>117.0</ele><time>2026-03-28T08:00:09.999Z</time></trkpt><trkpt lat="44.75063638328796" lon="10.224148536167803"><ele>117.0</ele><time>2026-03-28T08:00:11Z</time></trkpt><trkpt lat="44.7505279533155" lon="10.224132450376876"><ele>117.0</ele><time>2026-03-28T08:00:12Z</time></trkpt><trkpt lat="44.750433802848455" lon="10.224122232989611"><ele>117.0</ele><time>2026-03-28T08:00:13Z</time></trkpt><trkpt lat="44.7503446950629" lon="10.224112226389387"><ele>117.0</ele><time>2026-03-28T08:00:14Z</time></trkpt><trkpt lat="44.75025665288562" lon="10.224103057270447"><ele>117.0</ele><time>2026-03-28T08:00:15Z</time></trkpt><trkpt lat="44.7501732420253" lon="10.224092995143875"><ele>117.0</ele><time>2026-03-28T08:00:16Z</time></trkpt><trkpt lat="44.750086299576054" lon="10.224082125131515"><ele>117.0</ele><time>2026-03-28T08:00:17Z</time></trkpt><trkpt lat="44.74999092230557" lon="10.224069372928527"><ele>117.0</ele><time>2026-03-28T08:00:18Z</time></trkpt><trkpt lat="44.749890517163834" lon="10.224055128008583"><ele>116.99999999999999</ele><time>2026-03-28T08:00:19Z</time></trkpt><trkpt lat="44.74978455007707" lon="10.224045657842412"><ele>116.99999999999999</ele><time>2026-03-28T08:00:20Z</time></trkpt><trkpt lat="44.74967393655061" lon="10.224035251841975"><ele>117.0</ele><time>2026-03-28T08:00:21Z</time></trkpt><trkpt lat="44.749561287166976" lon="10.224023158328647"><ele>117.0</ele><time>2026-03-28T08:00:22Z</time></trkpt><trkpt lat="44.74944142842693" lon="10.224008672567946"><ele>117.25</ele><time>2026-03-28T08:00:23Z</time></trkpt><trkpt lat="44.74931688959077" lon="10.22398897222434"><ele>117.5</ele><time>2026-03-28T08:00:24Z</time></trkpt><trkpt lat="44.74917580980701" lon="10.223967904862082"><ele>117.75</ele><time>2026-03-28T08:00:25Z</time></trkpt><trkpt lat="44.7490436976844" lon="10.223959117534253"><ele>118.0</ele><time>2026-03-28T08:00:26Z</time></trkpt><trkpt lat="44.74891092388259" lon="10.223944291930131"><ele>118.0</ele><time>2026-03-28T08:00:27Z</time></trkpt><trkpt lat="44.74878029314398" lon="10.22392742654005"><ele>118.0</ele><time>2026-03-28T08:00:28Z</time></trkpt><trkpt lat="44.74864664495478" lon="10.223904637874805"><ele>118.0</ele><time>2026-03-28T08:00:29Z</time></trkpt><trkpt lat="44.74850892689157" lon="10.223883912218922"><ele>118.0</ele><time>2026-03-28T08:00:30Z</time></trkpt><trkpt lat="44.748374333294215" lon="10.2238671866073"><ele>118.25</ele><time>2026-03-28T08:00:31Z</time></trkpt><trkpt lat="44.74824304148452" lon="10.22385102761473"><ele>118.5</ele><time>2026-03-28T08:00:32Z</time></trkpt><trkpt lat="44.74810956992604" lon="10.223832530000443"><ele>118.75</ele><time>2026-03-28T08:00:33Z</time></trkpt><trkpt lat="44.74798033482643" lon="10.223815537310825"><ele>119.0</ele><time>2026-03-28T08:00:34Z</time></trkpt><trkpt lat="44.7478528766896" lon="10.223801178092229"><ele>119.0</ele><time>2026-03-28T08:00:35Z</time></trkpt><trkpt lat="44.747720385026305" lon="10.223781460187574"><ele>119.0</ele><time>2026-03-28T08:00:36Z</time></trkpt><trkpt lat="44.74758948432718" lon="10.223765233761162"><ele>119.0</ele><time>2026-03-28T08:00:37Z</time></trkpt><trkpt lat="44.74745923280911" lon="10.223751540865372"><ele>119.0</ele><time>2026-03-28T08:00:38Z</time></trkpt><trkpt lat="44.74733005439875" lon="10.223736718247265"><ele>119.5</ele><time>2026-03-28T08:00:39Z</time></trkpt><trkpt lat="44.74720104195617" lon="10.223718137622816"><ele>120.0</ele><time>2026-03-28T08:00:40Z</time></trkpt><trkpt lat="44.747070139868555" lon="10.223699121596846"><ele>120.5</ele><time>2026-03-28T08:00:41Z</time></trkpt><trkpt lat="44.74693615773072" lon="10.223686405164727"><ele>121.0</ele><time>2026-03-28T08:00:42Z</time></trkpt><trkpt lat="44.74679774288705" lon="10.223673866257712"><ele>121.0</ele><time>2026-03-28T08:00:43Z</time></trkpt><trkpt lat="44.74665528737094" lon="10.223654968673868"><ele>121.0</ele><time>2026-03-28T08:00:44Z</time></trkpt><trkpt lat="44.74651169426906" lon="10.22363576026526"><ele>121.0</ele><time>2026-03-28T08:00:45Z</time></trkpt><trkpt lat="44.74637070984554" lon="10.223626708515917"><ele>121.0</ele><time>2026-03-28T08:00:46Z</time></trkpt><trkpt lat="44.746224274273224" lon="10.223625785481241"><ele>121.0</ele><time>2026-03-28T08:00:47Z</time></trkpt><trkpt lat="44.74607496293824" lon="10.223646867419783"><ele>121.0</ele><time>2026-03-28T08:00:48Z</time></trkpt><trkpt lat="44.745928665607515" lon="10.22367586731659"><ele>121.0</ele><time>2026-03-28T08:00:49Z</time></trkpt><trkpt lat="44.74579197315532" lon="10.223719241748501"><ele>121.0</ele><time>2026-03-28T08:00:50Z</time></trkpt><trkpt lat="44.74565772030413" lon="10.223779566708625"><ele>121.25</ele><time>2026-03-28T08:00:51Z</time></trkpt><trkpt lat="44.745525546975884" lon="10.223852164376282"><ele>121.5</ele><time>2026-03-28T08:00:52Z</time></trkpt><trkpt lat="44.74539969652575" lon="10.223934139682804"><ele>121.75</ele><time>2026-03-28T08:00:53Z</time></trkpt><trkpt lat="44.74527637148868" lon="10.224020132444947"><ele>122.0</ele><time>2026-03-28T08:00:54Z</time></trkpt><trkpt lat="44.74515630455718" lon="10.224105201585253"><ele>122.19999999999999</ele><time>2026-03-28T08:00:55Z</time></trkpt><trkpt lat="44.745046581611724" lon="10.224187903385403"><ele>122.39999999999999</ele><time>2026-03-28T08:00:56Z</time></trkpt><trkpt lat="44.7449479623436" lon="10.224265904713157"><ele>122.60000000000001</ele><time>2026-03-28T08:00:57Z</time></trkpt><trkpt lat="44.74485745978018" lon="10.224337194698348"><ele>122.80000000000001</ele><time>2026-03-28T08:00:58Z</time></trkpt><trkpt lat="44.744772681681695" lon="10.224399620166823"><ele>123.0</ele><time>2026-03-28T08:00:59Z</time></trkpt><trkpt lat="44.744694947267234" lon="10.224456830727707"><ele>123.0</ele><time>2026-03-28T08:01:00Z</time></trkpt><trkpt lat="44.74461660771408" lon="10.224517548409258"><ele>123.00000000000001</ele><time>2026-03-28T08:01:01Z</time></trkpt><trkpt lat="44.744538663539046" lon="10.224574487899188"><ele>123.00000000000001</ele><time>2026-03-28T08:01:02Z</time></trkpt><trkpt lat="44.74446857976503" lon="10.224623464303319"><ele>123.0</ele><time>2026-03-28T08:01:03Z</time></trkpt><trkpt lat="44.74436419674041" lon="10.224704975184343"><ele>123.0</ele><time>2026-03-28T08:01:05Z</time></trkpt><trkpt lat="44.7442489084062" lon="10.22472871566256"><ele>123.16666666666667</ele><time>2026-03-28T08:01:07Z</time></trkpt><trkpt lat="44.74416407059667" lon="10.224730550208493"><ele>123.33333333333334</ele><time>2026-03-28T08:01:08Z</time></trkpt><trkpt lat="44.744074616966664" lon="10.22477557012467"><ele>123.5</ele><time>2026-03-28T08:01:09Z</time></trkpt><trkpt lat="44.74398804944224" lon="10.22484226618892"><ele>123.66666666666667</ele><time>2026-03-28T08:01:10Z</time></trkpt><trkpt lat="44.743911372309725" lon="10.224872570781217"><ele>123.83333333333334</ele><time>2026-03-28T08:01:11Z</time></trkpt><trkpt lat="44.74382307113088" lon="10.224864993960558"><ele>124.0</ele><time>2026-03-28T08:01:12Z</time></trkpt><trkpt lat="44.74371371132886" lon="10.224858488683386"><ele>124.0</ele><time>2026-03-28T08:01:13Z</time></trkpt><trkpt lat="44.743599164873245" lon="10.22485967777265"><ele>124.0</ele><time>2026-03-28T08:01:14Z</time></trkpt><trkpt lat="44.74345866850332" lon="10.22488850055588"><ele>124.0</ele><time>2026-03-28T08:01:15Z</time></trkpt><trkpt lat="44.74326094435031" lon="10.224884943026966"><ele>124.0</ele><time>2026-03-28T08:01:16Z</time></trkpt><trkpt lat="44.74302448379448" lon="10.224898696715936"><ele>124.0</ele><time>2026-03-28T08:01:17Z</time></trkpt><trkpt lat="44.74277357393487" lon="10.22491431095125"><ele>125.0</ele><time>2026-03-28T08:01:18Z</time></trkpt><trkpt lat="44.74250503672965" lon="10.224929724730508"><ele>126.0</ele><time>2026-03-28T08:01:19Z</time></trkpt><trkpt lat="44.74223164029206" lon="10.224946712328451"><ele>126.0</ele><time>2026-03-28T08:01:20Z</time></trkpt><trkpt lat="44.74196738830092" lon="10.224961457358804"><ele>126.0</ele><time>2026-03-28T08:01:21Z</time></trkpt><trkpt lat="44.74172917500308" lon="10.224981922990642"><ele>126.33333333333334</ele><time>2026-03-28T08:01:22Z</time></trkpt><trkpt lat="44.74150754042189" lon="10.224989007467157"><ele>126.66666666666667</ele><time>2026-03-28T08:01:23Z</time></trkpt><trkpt lat="44.74134001207744" lon="10.225007652789568"><ele>127.0</ele><time>2026-03-28T08:01:24Z</time></trkpt><trkpt lat="44.741177842029245" lon="10.225020471346404"><ele>127.33333333333334</ele><time>2026-03-28T08:01:25Z</time></trkpt><trkpt lat="44.74102714997432" lon="10.22503350388336"><ele>127.66666666666666</ele><time>2026-03-28T08:01:25.999Z</time></trkpt><trkpt lat="44.740875998399495" lon="10.22504355563183"><ele>128.0</ele><time>2026-03-28T08:01:26.999Z</time></trkpt><trkpt lat="44.740722306821255" lon="10.225055159734813"><ele>128.0</ele><time>2026-03-28T08:01:27.999Z</time></trkpt><trkpt lat="44.74053568076889" lon="10.225044447614483"><ele>128.0</ele><time>2026-03-28T08:01:28.999Z</time></trkpt><trkpt lat="44.74031438906904" lon="10.22505731452788"><ele>128.0</ele><time>2026-03-28T08:01:29.999Z</time></trkpt><trkpt lat="44.740076892854496" lon="10.225071123645401"><ele>128.0</ele><time>2026-03-28T08:01:30.999Z</time></trkpt><trkpt lat="44.73981022660947" lon="10.225102405096106"><ele>128.0</ele><time>2026-03-28T08:01:31.999Z</time></trkpt><trkpt lat="44.7395487304644" lon="10.225103257564973"><ele>127.5</ele><time>2026-03-28T08:01:32.999Z</time></trkpt><trkpt lat="44.73927853765881" lon="10.225128380900982"><ele>127.0</ele><time>2026-03-28T08:01:33.999Z</time></trkpt><trkpt lat="44.73903364697099" lon="10.225152487457773"><ele>127.0</ele><time>2026-03-28T08:01:34.999Z</time></trkpt><trkpt lat="44.7388088371014" lon="10.225168388140613"><ele>127.0</ele><time>2026-03-28T08:01:35.999Z</time></trkpt><trkpt lat="44.73862192356139" lon="10.225176935516117"><ele>127.0</ele><time>2026-03-28T08:01:36.999Z</time></trkpt><trkpt lat="44.73843422321018" lon="10.225187112888841"><ele>127.33333333333334</ele><time>2026-03-28T08:01:37.999Z</time></trkpt><trkpt lat="44.738263160596006" lon="10.225198311415262"><ele>127.66666666666666</ele><time>2026-03-28T08:01:38.999Z</time></trkpt><trkpt lat="44.73810478837317" lon="10.225203833648548"><ele>128.0</ele><time>2026-03-28T08:01:39.999Z</time></trkpt><trkpt lat="44.73795981648279" lon="10.225210804587373"><ele>128.0</ele><time>2026-03-28T08:01:40.999Z</time></trkpt><trkpt lat="44.73782004063809" lon="10.225216882693264"><ele>128.0</ele><time>2026-03-28T08:01:41.999Z</time></trkpt><trkpt lat="44.73766683595557" lon="10.225226632886088"><ele>128.0</ele><time>2026-03-28T08:01:42.999Z</time></trkpt><trkpt lat="44.73749955241361" lon="10.225233751454871"><ele>129.0</ele><time>2026-03-28T08:01:43.999Z</time></trkpt><trkpt lat="44.7373298406024" lon="10.225244027421596"><ele>130.0</ele><time>2026-03-28T08:01:44.999Z</time></trkpt><trkpt lat="44.737169990072736" lon="10.225258865534775"><ele>131.0</ele><time>2026-03-28T08:01:45.999Z</time></trkpt><trkpt lat="44.73702775875362" lon="10.225261930013486"><ele>131.0</ele><time>2026-03-28T08:01:46.999Z</time></trkpt><trkpt lat="44.7368913807338" lon="10.22526820675988"><ele>131.0</ele><time>2026-03-28T08:01:47.999Z</time></trkpt><trkpt lat="44.736757362882194" lon="10.22527720195292"><ele>131.0</ele><time>2026-03-28T08:01:48.999Z</time></trkpt><trkpt lat="44.736613831324796" lon="10.225288384014867"><ele>131.0</ele><time>2026-03-28T08:01:49.999Z</time></trkpt><trkpt lat="44.73646312938839" lon="10.225298142035038"><ele>131.33333333333331</ele><time>2026-03-28T08:01:50.999Z</time></trkpt><trkpt lat="44.736314117636795" lon="10.225307184603182"><ele>131.66666666666666</ele><time>2026-03-28T08:01:51.999Z</time></trkpt><trkpt lat="44.73615740689852" lon="10.225318654690636"><ele>132.0</ele><time>2026-03-28T08:01:52.999Z</time></trkpt><trkpt lat="44.73599818799498" lon="10.225328852486276"><ele>132.33333333333334</ele><time>2026-03-28T08:01:53.999Z</time></trkpt><trkpt lat="44.735839743253464" lon="10.225337207654617"><ele>132.66666666666669</ele><time>2026-03-28T08:01:54.999Z</time></trkpt><trkpt lat="44.73568523992675" lon="10.225348050368364"><ele>133.0</ele><time>2026-03-28T08:01:55.999Z</time></trkpt><trkpt lat="44.73552704905" lon="10.225356824738748"><ele>133.0</ele><time>2026-03-28T08:01:56.999Z</time></trkpt><trkpt lat="44.73537086264376" lon="10.225372694076441"><ele>133.0</ele><time>2026-03-28T08:01:57.999Z</time></trkpt><trkpt lat="44.735227372939356" lon="10.22538213147833"><ele>133.0</ele><time>2026-03-28T08:01:58.999Z</time></trkpt><trkpt lat="44.73507976471151" lon="10.225387546774403"><ele>133.0</ele><time>2026-03-28T08:01:59.999Z</time></trkpt><trkpt lat="44.734929687487245" lon="10.225394154304436"><ele>133.33333333333334</ele><time>2026-03-28T08:02:00.999Z</time></trkpt><trkpt lat="44.734775436634685" lon="10.225403624274866"><ele>133.66666666666666</ele><time>2026-03-28T08:02:01.999Z</time></trkpt><trkpt lat="44.734624994477905" lon="10.2254165612987"><ele>134.0</ele><time>2026-03-28T08:02:02.999Z</time></trkpt><trkpt lat="44.73446896024143" lon="10.22543246963806"><ele>134.0</ele><time>2026-03-28T08:02:03.999Z</time></trkpt><trkpt lat="44.73431626239335" lon="10.225444174143176"><ele>134.0</ele><time>2026-03-28T08:02:04.999Z</time></trkpt><trkpt lat="44.73416909053748" lon="10.225454698379579"><ele>134.0</ele><time>2026-03-28T08:02:05.999Z</time></trkpt><trkpt lat="44.73402010275459" lon="10.225467607190113"><ele>134.0</ele><time>2026-03-28T08:02:06.999Z</time></trkpt><trkpt lat="44.73387310887859" lon="10.225478850611616"><ele>134.0</ele><time>2026-03-28T08:02:07.999Z</time></trkpt><trkpt lat="44.733726142455964" lon="10.225487129137889"><ele>134.0</ele><time>2026-03-28T08:02:08.999Z</time></trkpt><trkpt lat="44.73357505805479" lon="10.225497955067533"><ele>134.0</ele><time>2026-03-28T08:02:09.999Z</time></trkpt><trkpt lat="44.73342172927385" lon="10.225505886463116"><ele>135.0</ele><time>2026-03-28T08:02:10.999Z</time></trkpt><trkpt lat="44.733264978725806" lon="10.225520285961782"><ele>136.0</ele><time>2026-03-28T08:02:11.999Z</time></trkpt><trkpt lat="44.73310982881315" lon="10.225534095322665"><ele>137.0</ele><time>2026-03-28T08:02:12.999Z</time></trkpt><trkpt lat="44.73295739363287" lon="10.225548360433875"><ele>137.0</ele><time>2026-03-28T08:02:13.999Z</time></trkpt><trkpt lat="44.73280137067435" lon="10.225564737055675"><ele>137.0</ele><time>2026-03-28T08:02:14.999Z</time></trkpt><trkpt lat="44.73264644347966" lon="10.225578433932913"><ele>137.0</ele><time>2026-03-28T08:02:15.999Z</time></trkpt><trkpt lat="44.73248398648598" lon="10.225594729862692"><ele>137.66666666666666</ele><time>2026-03-28T08:02:17Z</time></trkpt><trkpt lat="44.73231955110796" lon="10.22561333448245"><ele>138.33333333333334</ele><time>2026-03-28T08:02:18Z</time></trkpt><trkpt lat="44.73215519113674" lon="10.2256279931769"><ele>139.0</ele><time>2026-03-28T08:02:19Z</time></trkpt><trkpt lat="44.73199069161904" lon="10.225651364104666"><ele>141.0</ele><time>2026-03-28T08:02:20Z</time></trkpt><trkpt lat="44.73182800204504" lon="10.22568086452992"><ele>143.0</ele><time>2026-03-28T08:02:21Z</time></trkpt><trkpt lat="44.73166594711473" lon="10.225722912318549"><ele>145.0</ele><time>2026-03-28T08:02:22Z</time></trkpt><trkpt lat="44.731500879059446" lon="10.225792114389188"><ele>145.0</ele><time>2026-03-28T08:02:23Z</time></trkpt><trkpt lat="44.73133544669506" lon="10.225875960122744"><ele>145.0</ele><time>2026-03-28T08:02:24Z</time></trkpt><trkpt lat="44.73117084980266" lon="10.22597484738849"><ele>145.0</ele><time>2026-03-28T08:02:25Z</time></trkpt><trkpt lat="44.73100274040057" lon="10.226070794864738"><ele>144.66666666666669</ele><time>2026-03-28T08:02:26Z</time></trkpt><trkpt lat="44.73083078040271" lon="10.226166072732012"><ele>144.33333333333334</ele><time>2026-03-28T08:02:27Z</time></trkpt><trkpt lat="44.73065698675502" lon="10.226251230269668"><ele>144.0</ele><time>2026-03-28T08:02:28Z</time></trkpt><trkpt lat="44.73048170639643" lon="10.226312596293967"><ele>144.0</ele><time>2026-03-28T08:02:29Z</time></trkpt><trkpt lat="44.73030634882969" lon="10.226354243445828"><ele>144.0</ele><time>2026-03-28T08:02:30Z</time></trkpt><trkpt lat="44.73013393309777" lon="10.226383232072996"><ele>144.0</ele><time>2026-03-28T08:02:31Z</time></trkpt><trkpt lat="44.729965633766696" lon="10.22641291318999"><ele>143.0</ele><time>2026-03-28T08:02:32Z</time></trkpt><trkpt lat="44.729800137815666" lon="10.226444620895041"><ele>142.0</ele><time>2026-03-28T08:02:33Z</time></trkpt><trkpt lat="44.729626656219935" lon="10.226471904280066"><ele>141.0</ele><time>2026-03-28T08:02:34Z</time></trkpt><trkpt lat="44.72945601920526" lon="10.226497894688107"><ele>142.0</ele><time>2026-03-28T08:02:35Z</time></trkpt><trkpt lat="44.72928465933915" lon="10.226529437332061"><ele>143.0</ele><time>2026-03-28T08:02:36Z</time></trkpt><trkpt lat="44.72911726718659" lon="10.226561290218033"><ele>144.0</ele><time>2026-03-28T08:02:37Z</time></trkpt><trkpt lat="44.72895609517026" lon="10.226589792542551"><ele>144.0</ele><time>2026-03-28T08:02:38Z</time></trkpt><trkpt lat="44.728796861268066" lon="10.226619652141165"><ele>144.0</ele><time>2026-03-28T08:02:39Z</time></trkpt><trkpt lat="44.72863666492555" lon="10.226650248084116"><ele>144.0</ele><time>2026-03-28T08:02:40Z</time></trkpt><trkpt lat="44.728477569711075" lon="10.22668696940938"><ele>146.0</ele><time>2026-03-28T08:02:41Z</time></trkpt><trkpt lat="44.7283233040797" lon="10.226724979109155"><ele>148.0</ele><time>2026-03-28T08:02:42Z</time></trkpt><trkpt lat="44.72816626097232" lon="10.226766741845847"><ele>150.0</ele><time>2026-03-28T08:02:43Z</time></trkpt><trkpt lat="44.72800733658509" lon="10.226811522554575"><ele>150.0</ele><time>2026-03-28T08:02:44Z</time></trkpt><trkpt lat="44.72785184445132" lon="10.22684535699173"><ele>150.0</ele><time>2026-03-28T08:02:45Z</time></trkpt><trkpt lat="44.72770290664363" lon="10.22688033394168"><ele>150.0</ele><time>2026-03-28T08:02:46Z</time></trkpt><trkpt lat="44.7275489562469" lon="10.226921141263263"><ele>149.66666666666666</ele><time>2026-03-28T08:02:47Z</time></trkpt><trkpt lat="44.727398747469664" lon="10.22693700270236"><ele>149.33333333333331</ele><time>2026-03-28T08:02:48Z</time></trkpt><trkpt lat="44.72724493949854" lon="10.226974354610594"><ele>149.0</ele><time>2026-03-28T08:02:49Z</time></trkpt><trkpt lat="44.727104098268825" lon="10.227008557564485"><ele>149.0</ele><time>2026-03-28T08:02:50Z</time></trkpt><trkpt lat="44.726961112799614" lon="10.227052899463564"><ele>149.0</ele><time>2026-03-28T08:02:51Z</time></trkpt><trkpt lat="44.726813093946504" lon="10.2270960519613"><ele>149.0</ele><time>2026-03-28T08:02:52Z</time></trkpt><trkpt lat="44.72666554105688" lon="10.227133423932708"><ele>149.0</ele><time>2026-03-28T08:02:53Z</time></trkpt><trkpt lat="44.726516691545186" lon="10.22717023170938"><ele>148.75</ele><time>2026-03-28T08:02:54Z</time></trkpt><trkpt lat="44.72636875061878" lon="10.227206725101023"><ele>148.5</ele><time>2026-03-28T08:02:55Z</time></trkpt><trkpt lat="44.72621890954556" lon="10.227243211693448"><ele>148.25</ele><time>2026-03-28T08:02:56Z</time></trkpt><trkpt lat="44.72607944256381" lon="10.2272752821437"><ele>148.0</ele><time>2026-03-28T08:02:57Z</time></trkpt><trkpt lat="44.72595021191231" lon="10.227301460735546"><ele>149.0</ele><time>2026-03-28T08:02:58Z</time></trkpt><trkpt lat="44.7258272486242" lon="10.227332221940069"><ele>150.0</ele><time>2026-03-28T08:02:59Z</time></trkpt><trkpt lat="44.72569765590195" lon="10.227368439031546"><ele>151.0</ele><time>2026-03-28T08:03:00Z</time></trkpt><trkpt lat="44.72556384429868" lon="10.227398157237051"><ele>152.0</ele><time>2026-03-28T08:03:01Z</time></trkpt><trkpt lat="44.725435130076235" lon="10.22742894881998"><ele>152.0</ele><time>2026-03-28T08:03:02Z</time></trkpt><trkpt lat="44.725307199986624" lon="10.227461881045166"><ele>152.0</ele><time>2026-03-28T08:03:03Z</time></trkpt><trkpt lat="44.72517921969216" lon="10.227493508639816"><ele>152.0</ele><time>2026-03-28T08:03:04Z</time></trkpt><trkpt lat="44.725047986267" lon="10.227522140485007"><ele>152.0</ele><time>2026-03-28T08:03:05Z</time></trkpt><trkpt lat="44.72492183143315" lon="10.227554547041821"><ele>152.0</ele><time>2026-03-28T08:03:06Z</time></trkpt><trkpt lat="44.7248057682199" lon="10.227579946215013"><ele>152.0</ele><time>2026-03-28T08:03:07Z</time></trkpt><trkpt lat="44.724688269835255" lon="10.227606771392749"><ele>152.0</ele><time>2026-03-28T08:03:08Z</time></trkpt><trkpt lat="44.724569814673046" lon="10.227636612313809"><ele>152.0</ele><time>2026-03-28T08:03:09Z</time></trkpt><trkpt lat="44.7244477312254" lon="10.227664975663801"><ele>152.5</ele><time>2026-03-28T08:03:10Z</time></trkpt><trkpt lat="44.72432465224843" lon="10.227698284357924"><ele>153.0</ele><time>2026-03-28T08:03:11Z</time></trkpt><trkpt lat="44.72420363907515" lon="10.22772885332757"><ele>153.5</ele><time>2026-03-28T08:03:12Z</time></trkpt><trkpt lat="44.72407988006118" lon="10.227754661277453"><ele>154.0</ele><time>2026-03-28T08:03:13Z</time></trkpt><trkpt lat="44.72395664283801" lon="10.227787586722341"><ele>154.0</ele><time>2026-03-28T08:03:14Z</time></trkpt><trkpt lat="44.72383348680828" lon="10.22782183226544"><ele>154.0</ele><time>2026-03-28T08:03:15Z</time></trkpt><trkpt lat="44.72370710455473" lon="10.227856203669862"><ele>154.0</ele><time>2026-03-28T08:03:16Z</time></trkpt><trkpt lat="44.72358192924765" lon="10.227889514637617"><ele>154.0</ele><time>2026-03-28T08:03:17Z</time></trkpt><trkpt lat="44.72345410198469" lon="10.227920693303348"><ele>154.0</ele><time>2026-03-28T08:03:18Z</time></trkpt><trkpt lat="44.72333208889426" lon="10.227951293522397"><ele>154.0</ele><time>2026-03-28T08:03:19Z</time></trkpt><trkpt lat="44.723222877960765" lon="10.227977815817122"><ele>154.0</ele><time>2026-03-28T08:03:20Z</time></trkpt><trkpt lat="44.72311038207923" lon="10.22800442822282"><ele>154.0</ele><time>2026-03-28T08:03:21Z</time></trkpt><trkpt lat="44.72299145176281" lon="10.228034291289585"><ele>154.0</ele><time>2026-03-28T08:03:22Z</time></trkpt><trkpt lat="44.722877792606674" lon="10.228063980879071"><ele>154.0</ele><time>2026-03-28T08:03:23Z</time></trkpt><trkpt lat="44.722774474813114" lon="10.228093516054948"><ele>154.0</ele><time>2026-03-28T08:03:24Z</time></trkpt><trkpt lat="44.72267201481006" lon="10.228124031889456"><ele>154.0</ele><time>2026-03-28T08:03:25Z</time></trkpt><trkpt lat="44.72255934065258" lon="10.228132873149125"><ele>154.0</ele><time>2026-03-28T08:03:26Z</time></trkpt><trkpt lat="44.72244742352823" lon="10.228083126514594"><ele>153.8</ele><time>2026-03-28T08:03:27Z</time></trkpt><trkpt lat="44.72233826786495" lon="10.22809210351063"><ele>153.60000000000002</ele><time>2026-03-28T08:03:28Z</time></trkpt><trkpt lat="44.72222896583506" lon="10.228087553110385"><ele>153.4</ele><time>2026-03-28T08:03:29Z</time></trkpt><trkpt lat="44.72211812529142" lon="10.228082337801558"><ele>153.20000000000002</ele><time>2026-03-28T08:03:29.999Z</time></trkpt><trkpt lat="44.722008690567925" lon="10.228058365058754"><ele>153.0</ele><time>2026-03-28T08:03:30.999Z</time></trkpt><trkpt lat="44.72188782369081" lon="10.228022929185984"><ele>154.25</ele><time>2026-03-28T08:03:31.999Z</time></trkpt><trkpt lat="44.72176400329313" lon="10.228005732405821"><ele>155.5</ele><time>2026-03-28T08:03:32.999Z</time></trkpt><trkpt lat="44.72165327029194" lon="10.228012507706431"><ele>156.75</ele><time>2026-03-28T08:03:33.999Z</time></trkpt><trkpt lat="44.72154582959934" lon="10.227989677084008"><ele>158.0</ele><time>2026-03-28T08:03:34.999Z</time></trkpt><trkpt lat="44.72143914560484" lon="10.2280099915959"><ele>158.0</ele><time>2026-03-28T08:03:35.999Z</time></trkpt><trkpt lat="44.72134162127923" lon="10.22798393780508"><ele>158.0</ele><time>2026-03-28T08:03:36.999Z</time></trkpt><trkpt lat="44.721219600230775" lon="10.227980469747079"><ele>158.0</ele><time>2026-03-28T08:03:37.999Z</time></trkpt><trkpt lat="44.72107501144422" lon="10.227976358169858"><ele>158.0</ele><time>2026-03-28T08:03:38.999Z</time></trkpt><trkpt lat="44.7209102881492" lon="10.227971674039566"><ele>159.0</ele><time>2026-03-28T08:03:39.999Z</time></trkpt><trkpt lat="44.72073638037671" lon="10.227966728739416"><ele>160.0</ele><time>2026-03-28T08:03:40.999Z</time></trkpt><trkpt lat="44.720554244148474" lon="10.227961549450075"><ele>161.0</ele><time>2026-03-28T08:03:41.999Z</time></trkpt><trkpt lat="44.720372292239986" lon="10.227978281963292"><ele>162.0</ele><time>2026-03-28T08:03:42.999Z</time></trkpt><trkpt lat="44.720184381744986" lon="10.227951031913433"><ele>163.0</ele><time>2026-03-28T08:03:43.999Z</time></trkpt><trkpt lat="44.719994419289044" lon="10.227945630074302"><ele>164.0</ele><time>2026-03-28T08:03:44.999Z</time></trkpt><trkpt lat="44.71980080051575" lon="10.227959934366517"><ele>164.0</ele><time>2026-03-28T08:03:45.999Z</time></trkpt><trkpt lat="44.71962420833461" lon="10.227947745534578"><ele>164.0</ele><time>2026-03-28T08:03:46.999Z</time></trkpt><trkpt lat="44.71946098297402" lon="10.227932679733511"><ele>164.0</ele><time>2026-03-28T08:03:47.999Z</time></trkpt><trkpt lat="44.71929257849337" lon="10.22791181570209"><ele>165.33333333333331</ele><time>2026-03-28T08:03:48.999Z</time></trkpt><trkpt lat="44.71912372076417" lon="10.227877176902714"><ele>166.66666666666666</ele><time>2026-03-28T08:03:49.999Z</time></trkpt><trkpt lat="44.71895509967597" lon="10.227841203176256"><ele>168.0</ele><time>2026-03-28T08:03:50.999Z</time></trkpt><trkpt lat="44.7187890243371" lon="10.22779889322565"><ele>168.0</ele><time>2026-03-28T08:03:51.999Z</time></trkpt><trkpt lat="44.71861456302115" lon="10.227758471973535"><ele>168.0</ele><time>2026-03-28T08:03:52.999Z</time></trkpt><trkpt lat="44.718454517801725" lon="10.227717071692137"><ele>168.0</ele><time>2026-03-28T08:03:53.999Z</time></trkpt><trkpt lat="44.71830524144239" lon="10.227673485151243"><ele>168.33333333333334</ele><time>2026-03-28T08:03:54.999Z</time></trkpt><trkpt lat="44.71815326635598" lon="10.227629722382384"><ele>168.66666666666669</ele><time>2026-03-28T08:03:55.999Z</time></trkpt><trkpt lat="44.71801187601285" lon="10.22754485621361"><ele>169.0</ele><time>2026-03-28T08:03:56.999Z</time></trkpt><trkpt lat="44.717882669424164" lon="10.22745250499291"><ele>169.0</ele><time>2026-03-28T08:03:57.999Z</time></trkpt><trkpt lat="44.71777221745856" lon="10.227345659438441"><ele>169.0</ele><time>2026-03-28T08:03:58.999Z</time></trkpt><trkpt lat="44.71767875445326" lon="10.227231275643728"><ele>169.0</ele><time>2026-03-28T08:03:59.999Z</time></trkpt><trkpt lat="44.71757043842817" lon="10.227096117390078"><ele>169.0</ele><time>2026-03-28T08:04:00.999Z</time></trkpt><trkpt lat="44.71745306347931" lon="10.226950166762327"><ele>168.33333333333334</ele><time>2026-03-28T08:04:01.999Z</time></trkpt><trkpt lat="44.71731653056535" lon="10.226780470568142"><ele>167.66666666666666</ele><time>2026-03-28T08:04:02.999Z</time></trkpt><trkpt lat="44.717166280888215" lon="10.226593889513005"><ele>167.0</ele><time>2026-03-28T08:04:03.999Z</time></trkpt><trkpt lat="44.71702439358737" lon="10.226418657176946"><ele>167.0</ele><time>2026-03-28T08:04:04.999Z</time></trkpt><trkpt lat="44.716913327251014" lon="10.226303208726813"><ele>167.0</ele><time>2026-03-28T08:04:05.999Z</time></trkpt><trkpt lat="44.716863156301336" lon="10.226217572202115"><ele>167.0</ele><time>2026-03-28T08:04:06.999Z</time></trkpt><trkpt lat="44.716849369198144" lon="10.226129097095521"><ele>167.0</ele><time>2026-03-28T08:04:07.999Z</time></trkpt><trkpt lat="44.716847922604444" lon="10.226011101189785"><ele>167.0</ele><time>2026-03-28T08:04:08.999Z</time></trkpt><trkpt lat="44.716824498264636" lon="10.225879493381134"><ele>167.0</ele><time>2026-03-28T08:04:09.999Z</time></trkpt><trkpt lat="44.716757716808694" lon="10.225776851393318"><ele>167.0</ele><time>2026-03-28T08:04:10.999Z</time></trkpt><trkpt lat="44.71666369029025" lon="10.225691320462827"><ele>167.0</ele><time>2026-03-28T08:04:11.999Z</time></trkpt><trkpt lat="44.71655046109165" lon="10.225661686338889"><ele>167.0</ele><time>2026-03-28T08:04:12.999Z</time></trkpt><trkpt lat="44.716414839590975" lon="10.22576998996728"><ele>167.0</ele><time>2026-03-28T08:04:13.999Z</time></trkpt><trkpt lat="44.71627490868992" lon="10.225768996652322"><ele>167.0</ele><time>2026-03-28T08:04:14.999Z</time></trkpt><trkpt lat="44.71612468169025" lon="10.225687885311679"><ele>167.0</ele><time>2026-03-28T08:04:15.999Z</time></trkpt><trkpt lat="44.7159594966494" lon="10.225624114315902"><ele>167.0</ele><time>2026-03-28T08:04:16.999Z</time></trkpt><trkpt lat="44.715818894688944" lon="10.225585096764831"><ele>167.0</ele><time>2026-03-28T08:04:17.999Z</time></trkpt><trkpt lat="44.715707094065216" lon="10.225550683298932"><ele>167.0</ele><time>2026-03-28T08:04:18.999Z</time></trkpt><trkpt lat="44.71562982827203" lon="10.22552757120225"><ele>167.0</ele><time>2026-03-28T08:04:19.999Z</time></trkpt><trkpt lat="44.71553539844876" lon="10.225494916739716"><ele>167.0</ele><time>2026-03-28T08:04:21.999Z</time></trkpt><trkpt lat="44.71541896217331" lon="10.2254597404841"><ele>167.0</ele><time>2026-03-28T08:04:24Z</time></trkpt><trkpt lat="44.71531010945067" lon="10.225422023044002"><ele>167.0</ele><time>2026-03-28T08:04:25Z</time></trkpt><trkpt lat="44.71519089856471" lon="10.225390938271447"><ele>167.0</ele><time>2026-03-28T08:04:26Z</time></trkpt><trkpt lat="44.71506874717939" lon="10.225355651685362"><ele>167.0</ele><time>2026-03-28T08:04:27Z</time></trkpt><trkpt lat="44.71495469716523" lon="10.225325999589634"><ele>167.5</ele><time>2026-03-28T08:04:28Z</time></trkpt><trkpt lat="44.714856147104065" lon="10.225297450338742"><ele>168.0</ele><time>2026-03-28T08:04:29Z</time></trkpt><trkpt lat="44.714771597168195" lon="10.225270825456057"><ele>168.5</ele><time>2026-03-28T08:04:30Z</time></trkpt><trkpt lat="44.71469365855896" lon="10.225241934359207"><ele>169.0</ele><time>2026-03-28T08:04:31Z</time></trkpt><trkpt lat="44.714619948177436" lon="10.225221474951297"><ele>169.5</ele><time>2026-03-28T08:04:32Z</time></trkpt><trkpt lat="44.714529490795506" lon="10.225193706260406"><ele>170.0</ele><time>2026-03-28T08:04:34Z</time></trkpt><trkpt lat="44.714459754065516" lon="10.225174000948778"><ele>170.66666666666666</ele><time>2026-03-28T08:04:36Z</time></trkpt><trkpt lat="44.71439343618245" lon="10.225164409282263"><ele>171.33333333333331</ele><time>2026-03-28T08:04:38Z</time></trkpt><trkpt lat="44.71432813653382" lon="10.225122405221462"><ele>172.0</ele><time>2026-03-28T08:04:41Z</time></trkpt><trkpt lat="44.71426769727366" lon="10.225088610436211"><ele>172.66666666666666</ele><time>2026-03-28T08:04:43Z</time></trkpt><trkpt lat="44.71417273609714" lon="10.22508674039759"><ele>173.33333333333334</ele><time>2026-03-28T08:04:45Z</time></trkpt><trkpt lat="44.71409331880079" lon="10.225072476378454"><ele>174.0</ele><time>2026-03-28T08:04:46Z</time></trkpt><trkpt lat="44.713985340444005" lon="10.225056333915246"><ele>174.0</ele><time>2026-03-28T08:04:47Z</time></trkpt><trkpt lat="44.71385480606831" lon="10.225036819408338"><ele>174.0</ele><time>2026-03-28T08:04:48Z</time></trkpt><trkpt lat="44.71372935951892" lon="10.22501806553697"><ele>174.0</ele><time>2026-03-28T08:04:49Z</time></trkpt><trkpt lat="44.71357156173231" lon="10.224994674156852"><ele>174.0</ele><time>2026-03-28T08:04:50Z</time></trkpt><trkpt lat="44.713388025713634" lon="10.224991284069285"><ele>174.33333333333334</ele><time>2026-03-28T08:04:51Z</time></trkpt><trkpt lat="44.71318500859787" lon="10.2249428166552"><ele>174.66666666666669</ele><time>2026-03-28T08:04:52Z</time></trkpt><trkpt lat="44.71296946794236" lon="10.224915016863172"><ele>175.0</ele><time>2026-03-28T08:04:53Z</time></trkpt><trkpt lat="44.71276139751803" lon="10.22490779290442"><ele>174.5</ele><time>2026-03-28T08:04:54Z</time></trkpt><trkpt lat="44.71253774964809" lon="10.22488086003017"><ele>174.0</ele><time>2026-03-28T08:04:55Z</time></trkpt><trkpt lat="44.71230703245675" lon="10.224848292786124"><ele>174.0</ele><time>2026-03-28T08:04:56Z</time></trkpt><trkpt lat="44.712076938717885" lon="10.22481408697832"><ele>174.0</ele><time>2026-03-28T08:04:57Z</time></trkpt><trkpt lat="44.71184454712023" lon="10.224777423560063"><ele>175.0</ele><time>2026-03-28T08:04:58Z</time></trkpt><trkpt lat="44.711620621754456" lon="10.224748533627656"><ele>176.0</ele><time>2026-03-28T08:04:59Z</time></trkpt><trkpt lat="44.71141894585973" lon="10.224721697442533"><ele>177.0</ele><time>2026-03-28T08:05:00Z</time></trkpt><trkpt lat="44.71123922002974" lon="10.22470241435313"><ele>177.33333333333334</ele><time>2026-03-28T08:05:01Z</time></trkpt><trkpt lat="44.71104816919478" lon="10.224679145228755"><ele>177.66666666666669</ele><time>2026-03-28T08:05:02Z</time></trkpt><trkpt lat="44.71085151960975" lon="10.224652231149292"><ele>178.0</ele><time>2026-03-28T08:05:03Z</time></trkpt><trkpt lat="44.71065823674599" lon="10.224624537363459"><ele>178.0</ele><time>2026-03-28T08:05:04Z</time></trkpt><trkpt lat="44.710465749902596" lon="10.22460152928891"><ele>178.0</ele><time>2026-03-28T08:05:05Z</time></trkpt><trkpt lat="44.71027218190378" lon="10.224551548941093"><ele>178.0</ele><time>2026-03-28T08:05:06Z</time></trkpt><trkpt lat="44.710069245213866" lon="10.224523409954015"><ele>178.0</ele><time>2026-03-28T08:05:07Z</time></trkpt><trkpt lat="44.70985839586554" lon="10.224493264198681"><ele>178.0</ele><time>2026-03-28T08:05:08Z</time></trkpt><trkpt lat="44.70964284052048" lon="10.224462702398997"><ele>178.0</ele><time>2026-03-28T08:05:09Z</time></trkpt><trkpt lat="44.70942616558091" lon="10.224432655365202"><ele>178.5</ele><time>2026-03-28T08:05:10Z</time></trkpt><trkpt lat="44.709199687949905" lon="10.22440124697324"><ele>179.0</ele><time>2026-03-28T08:05:11Z</time></trkpt><trkpt lat="44.70896109730501" lon="10.224368158723209"><ele>179.0</ele><time>2026-03-28T08:05:12Z</time></trkpt><trkpt lat="44.70872747913482" lon="10.22433576007743"><ele>179.0</ele><time>2026-03-28T08:05:13Z</time></trkpt><trkpt lat="44.70850680950146" lon="10.224305157122584"><ele>179.5</ele><time>2026-03-28T08:05:14Z</time></trkpt><trkpt lat="44.708235598280446" lon="10.224267701615986"><ele>180.0</ele><time>2026-03-28T08:05:15Z</time></trkpt><trkpt lat="44.70799487689628" lon="10.224235119627867"><ele>180.0</ele><time>2026-03-28T08:05:16Z</time></trkpt><trkpt lat="44.707750363816686" lon="10.224225434394057"><ele>180.0</ele><time>2026-03-28T08:05:17Z</time></trkpt><trkpt lat="44.70751415698285" lon="10.224185729820249"><ele>181.33333333333334</ele><time>2026-03-28T08:05:18Z</time></trkpt><trkpt lat="44.70729005215594" lon="10.224151865545654"><ele>182.66666666666669</ele><time>2026-03-28T08:05:19Z</time></trkpt><trkpt lat="44.70709871036823" lon="10.224132376500252"><ele>184.0</ele><time>2026-03-28T08:05:20Z</time></trkpt><trkpt lat="44.70691106776857" lon="10.22408958705466"><ele>186.0</ele><time>2026-03-28T08:05:21Z</time></trkpt><trkpt lat="44.706706642015355" lon="10.224062704138472"><ele>188.0</ele><time>2026-03-28T08:05:22Z</time></trkpt><trkpt lat="44.706487258354706" lon="10.224033583341553"><ele>190.0</ele><time>2026-03-28T08:05:23Z</time></trkpt><trkpt lat="44.706241824812274" lon="10.223998523168433"><ele>190.66666666666669</ele><time>2026-03-28T08:05:24Z</time></trkpt><trkpt lat="44.70601174604339" lon="10.223980264219042"><ele>191.33333333333334</ele><time>2026-03-28T08:05:25Z</time></trkpt><trkpt lat="44.705807435256936" lon="10.223944254990084"><ele>192.0</ele><time>2026-03-28T08:05:26Z</time></trkpt><trkpt lat="44.70558942341864" lon="10.22392426108507"><ele>192.0</ele><time>2026-03-28T08:05:27Z</time></trkpt><trkpt lat="44.70536231339167" lon="10.22391138186661"><ele>192.0</ele><time>2026-03-28T08:05:28Z</time></trkpt><trkpt lat="44.70513416047717" lon="10.223906150183183"><ele>193.33333333333331</ele><time>2026-03-28T08:05:29Z</time></trkpt><trkpt lat="44.70492776030715" lon="10.223894901598465"><ele>194.66666666666666</ele><time>2026-03-28T08:05:30Z</time></trkpt><trkpt lat="44.70472716941424" lon="10.223902765383402"><ele>196.0</ele><time>2026-03-28T08:05:31Z</time></trkpt><trkpt lat="44.70454182023146" lon="10.223888597189722"><ele>197.0</ele><time>2026-03-28T08:05:32Z</time></trkpt><trkpt lat="44.704379722282304" lon="10.223868845740784"><ele>198.0</ele><time>2026-03-28T08:05:33Z</time></trkpt><trkpt lat="44.704232780124634" lon="10.223817759644675"><ele>199.0</ele><time>2026-03-28T08:05:34Z</time></trkpt><trkpt lat="44.70407717315723" lon="10.223730443482511"><ele>199.0</ele><time>2026-03-28T08:05:35Z</time></trkpt><trkpt lat="44.70390860815265" lon="10.223610632806787"><ele>199.0</ele><time>2026-03-28T08:05:36Z</time></trkpt><trkpt lat="44.70372897881196" lon="10.223480076038694"><ele>199.0</ele><time>2026-03-28T08:05:36.999Z</time></trkpt><trkpt lat="44.70353484376236" lon="10.22334276373162"><ele>197.66666666666666</ele><time>2026-03-28T08:05:37.999Z</time></trkpt><trkpt lat="44.7033313435295" lon="10.223217575241113"><ele>196.33333333333331</ele><time>2026-03-28T08:05:38.999Z</time></trkpt><trkpt lat="44.70313217084704" lon="10.223082132805947"><ele>195.0</ele><time>2026-03-28T08:05:39.999Z</time></trkpt><trkpt lat="44.70293550767975" lon="10.222918851279722"><ele>193.0</ele><time>2026-03-28T08:05:40.999Z</time></trkpt><trkpt lat="44.70271554554723" lon="10.222788410631328"><ele>191.0</ele><time>2026-03-28T08:05:41.999Z</time></trkpt><trkpt lat="44.70250590573048" lon="10.222636775636156"><ele>191.0</ele><time>2026-03-28T08:05:42.999Z</time></trkpt><trkpt lat="44.70228076227231" lon="10.22249829593532"><ele>191.0</ele><time>2026-03-28T08:05:43.999Z</time></trkpt><trkpt lat="44.702042324852655" lon="10.222404003407627"><ele>192.0</ele><time>2026-03-28T08:05:44.999Z</time></trkpt><trkpt lat="44.701781987339125" lon="10.222354582195113"><ele>193.0</ele><time>2026-03-28T08:05:45.999Z</time></trkpt><trkpt lat="44.70154138414119" lon="10.222290624324723"><ele>193.0</ele><time>2026-03-28T08:05:46.999Z</time></trkpt><trkpt lat="44.701330648267756" lon="10.222226908573605"><ele>193.0</ele><time>2026-03-28T08:05:47.999Z</time></trkpt><trkpt lat="44.701124074795075" lon="10.222165136791942"><ele>193.0</ele><time>2026-03-28T08:05:48.999Z</time></trkpt><trkpt lat="44.70095071119484" lon="10.22211236368952"><ele>192.5</ele><time>2026-03-28T08:05:49.999Z</time></trkpt><trkpt lat="44.70081065110964" lon="10.222085505232387"><ele>192.0</ele><time>2026-03-28T08:05:50.999Z</time></trkpt><trkpt lat="44.70067435504804" lon="10.222050428789593"><ele>191.5</ele><time>2026-03-28T08:05:51.999Z</time></trkpt><trkpt lat="44.70052005621079" lon="10.222014734336998"><ele>191.0</ele><time>2026-03-28T08:05:52.999Z</time></trkpt><trkpt lat="44.70033258950191" lon="10.22224421869411"><ele>191.0</ele><time>2026-03-28T08:05:53.999Z</time></trkpt><trkpt lat="44.70015228902857" lon="10.222306320661236"><ele>191.0</ele><time>2026-03-28T08:05:54.999Z</time></trkpt><trkpt lat="44.700010728577915" lon="10.222340450218425"><ele>191.0</ele><time>2026-03-28T08:05:55.999Z</time></trkpt><trkpt lat="44.69987896837393" lon="10.222353920998723"><ele>191.0</ele><time>2026-03-28T08:05:56.999Z</time></trkpt><trkpt lat="44.69975097123706" lon="10.22234163189046"><ele>191.0</ele><time>2026-03-28T08:05:57.999Z</time></trkpt><trkpt lat="44.699639209474796" lon="10.222301126849032"><ele>191.0</ele><time>2026-03-28T08:05:58.999Z</time></trkpt><trkpt lat="44.699522398467415" lon="10.22225661924301"><ele>191.0</ele><time>2026-03-28T08:05:59.999Z</time></trkpt><trkpt lat="44.69939799092986" lon="10.222208631667161"><ele>191.33333333333331</ele><time>2026-03-28T08:06:00.999Z</time></trkpt><trkpt lat="44.69926943930538" lon="10.222157697717273"><ele>191.66666666666666</ele><time>2026-03-28T08:06:01.999Z</time></trkpt><trkpt lat="44.69911853829856" lon="10.222086043442994"><ele>192.0</ele><time>2026-03-28T08:06:02.999Z</time></trkpt><trkpt lat="44.69896537957723" lon="10.222022374120892"><ele>192.0</ele><time>2026-03-28T08:06:03.999Z</time></trkpt><trkpt lat="44.69882368317947" lon="10.221979696300684"><ele>192.0</ele><time>2026-03-28T08:06:04.999Z</time></trkpt><trkpt lat="44.698702419777455" lon="10.221920807169061"><ele>192.0</ele><time>2026-03-28T08:06:05.999Z</time></trkpt><trkpt lat="44.69859577597093" lon="10.221870983330337"><ele>192.0</ele><time>2026-03-28T08:06:06.999Z</time></trkpt><trkpt lat="44.698508832685036" lon="10.221879053881405"><ele>190.75</ele><time>2026-03-28T08:06:07.999Z</time></trkpt><trkpt lat="44.698429797728934" lon="10.221957418550211"><ele>189.5</ele><time>2026-03-28T08:06:08.999Z</time></trkpt><trkpt lat="44.698359812763414" lon="10.222118713984234"><ele>188.25</ele><time>2026-03-28T08:06:09.999Z</time></trkpt><trkpt lat="44.69832131760331" lon="10.222330658496542"><ele>187.0</ele><time>2026-03-28T08:06:10.999Z</time></trkpt><trkpt lat="44.69827179520747" lon="10.222548506316189"><ele>186.39999999999998</ele><time>2026-03-28T08:06:11.999Z</time></trkpt><trkpt lat="44.698212474642204" lon="10.222713046787547"><ele>185.79999999999998</ele><time>2026-03-28T08:06:12.999Z</time></trkpt><trkpt lat="44.6981592601576" lon="10.222831876990405"><ele>185.2</ele><time>2026-03-28T08:06:13.999Z</time></trkpt><trkpt lat="44.69811807008635" lon="10.22290788511357"><ele>184.6</ele><time>2026-03-28T08:06:14.999Z</time></trkpt><trkpt lat="44.69804523990858" lon="10.222946920345374"><ele>184.0</ele><time>2026-03-28T08:06:16.999Z</time></trkpt><trkpt lat="44.697943915699774" lon="10.22293583808335"><ele>184.0</ele><time>2026-03-28T08:08:16.999Z</time></trkpt><trkpt lat="44.69783804345881" lon="10.222849492043187"><ele>184.0</ele><time>2026-03-28T08:08:17.999Z</time></trkpt><trkpt lat="44.69773052158471" lon="10.222764713089564"><ele>184.0</ele><time>2026-03-28T08:08:18.999Z</time></trkpt><trkpt lat="44.697570740095664" lon="10.222649091020447"><ele>184.0</ele><time>2026-03-28T08:08:19.999Z</time></trkpt><trkpt lat="44.69739054525836" lon="10.222497452471568"><ele>185.5</ele><time>2026-03-28T08:08:20.999Z</time></trkpt><trkpt lat="44.69720076015074" lon="10.222365066566304"><ele>187.0</ele><time>2026-03-28T08:08:21.999Z</time></trkpt><trkpt lat="44.69696278788739" lon="10.222192768718797"><ele>188.0</ele><time>2026-03-28T08:08:22.999Z</time></trkpt><trkpt lat="44.69668291764918" lon="10.221988685398303"><ele>189.0</ele><time>2026-03-28T08:08:23.999Z</time></trkpt><trkpt lat="44.69641339875821" lon="10.221786616275672"><ele>189.0</ele><time>2026-03-28T08:08:24.999Z</time></trkpt><trkpt lat="44.69611604143942" lon="10.221563046317277"><ele>189.0</ele><time>2026-03-28T08:08:25.999Z</time></trkpt><trkpt lat="44.69580416263056" lon="10.221331073486546"><ele>189.5</ele><time>2026-03-28T08:08:26.999Z</time></trkpt><trkpt lat="44.69550748455922" lon="10.221113050307105"><ele>190.0</ele><time>2026-03-28T08:08:27.999Z</time></trkpt><trkpt lat="44.69519028146185" lon="10.220859237655077"><ele>190.0</ele><time>2026-03-28T08:08:28.999Z</time></trkpt><trkpt lat="44.69487558119982" lon="10.220625421920413"><ele>190.0</ele><time>2026-03-28T08:08:29.999Z</time></trkpt><trkpt lat="44.69459473676994" lon="10.22045446377073"><ele>192.0</ele><time>2026-03-28T08:08:30.999Z</time></trkpt><trkpt lat="44.69435096868751" lon="10.220269603795556"><ele>194.0</ele><time>2026-03-28T08:08:31.999Z</time></trkpt><trkpt lat="44.69412838280131" lon="10.220104975274431"><ele>194.0</ele><time>2026-03-28T08:08:32.999Z</time></trkpt><trkpt lat="44.69392012687047" lon="10.21994774543583"><ele>194.0</ele><time>2026-03-28T08:08:33.999Z</time></trkpt><trkpt lat="44.69373112871102" lon="10.219802309396131"><ele>194.33333333333334</ele><time>2026-03-28T08:08:35Z</time></trkpt><trkpt lat="44.69355606851489" lon="10.219667751447764"><ele>194.66666666666669</ele><time>2026-03-28T08:08:36Z</time></trkpt><trkpt lat="44.69339195234393" lon="10.219547030002214"><ele>195.0</ele><time>2026-03-28T08:08:37Z</time></trkpt><trkpt lat="44.69324296752633" lon="10.21943440065271"><ele>195.0</ele><time>2026-03-28T08:08:38Z</time></trkpt><trkpt lat="44.69310037302406" lon="10.219329329057526"><ele>195.0</ele><time>2026-03-28T08:08:39Z</time></trkpt><trkpt lat="44.69296956244119" lon="10.219233062448197"><ele>195.0</ele><time>2026-03-28T08:08:40Z</time></trkpt><trkpt lat="44.692822365130525" lon="10.219121046437625"><ele>195.33333333333331</ele><time>2026-03-28T08:08:41Z</time></trkpt><trkpt lat="44.69265260523908" lon="10.218997917305874"><ele>195.66666666666666</ele><time>2026-03-28T08:08:42Z</time></trkpt><trkpt lat="44.692463289803015" lon="10.218856511078585"><ele>196.0</ele><time>2026-03-28T08:08:43Z</time></trkpt><trkpt lat="44.69226228064764" lon="10.21870525058016"><ele>196.0</ele><time>2026-03-28T08:08:44Z</time></trkpt><trkpt lat="44.69206151837682" lon="10.21855405392209"><ele>196.0</ele><time>2026-03-28T08:08:45Z</time></trkpt><trkpt lat="44.691855158093645" lon="10.218400905509323"><ele>196.0</ele><time>2026-03-28T08:08:46Z</time></trkpt><trkpt lat="44.69164588685967" lon="10.218247500441459"><ele>196.0</ele><time>2026-03-28T08:08:47Z</time></trkpt><trkpt lat="44.69143268641118" lon="10.218092698372592"><ele>196.0</ele><time>2026-03-28T08:08:48Z</time></trkpt><trkpt lat="44.69122076592402" lon="10.217933968117258"><ele>196.0</ele><time>2026-03-28T08:08:49Z</time></trkpt><trkpt lat="44.69100942505827" lon="10.217777687136417"><ele>197.0</ele><time>2026-03-28T08:08:50Z</time></trkpt><trkpt lat="44.69079705386911" lon="10.217622267444678"><ele>198.0</ele><time>2026-03-28T08:08:51Z</time></trkpt><trkpt lat="44.6905823470817" lon="10.217462393006997"><ele>198.0</ele><time>2026-03-28T08:08:52Z</time></trkpt><trkpt lat="44.69036791096705" lon="10.217312513546965"><ele>198.0</ele><time>2026-03-28T08:08:53Z</time></trkpt><trkpt lat="44.69015930775789" lon="10.217132961980763"><ele>200.0</ele><time>2026-03-28T08:08:54Z</time></trkpt><trkpt lat="44.68992996527816" lon="10.216983509098053"><ele>202.0</ele><time>2026-03-28T08:08:55Z</time></trkpt><trkpt lat="44.68970959338504" lon="10.21681460118785"><ele>202.0</ele><time>2026-03-28T08:08:56Z</time></trkpt><trkpt lat="44.68947973269616" lon="10.21665111366641"><ele>202.0</ele><time>2026-03-28T08:08:57Z</time></trkpt><trkpt lat="44.68925689945019" lon="10.216486270087659"><ele>202.5</ele><time>2026-03-28T08:08:58Z</time></trkpt><trkpt lat="44.689060381959024" lon="10.216314337932817"><ele>203.0</ele><time>2026-03-28T08:08:59Z</time></trkpt><trkpt lat="44.68885923454262" lon="10.216164714610098"><ele>203.0</ele><time>2026-03-28T08:09:00Z</time></trkpt><trkpt lat="44.688642524593746" lon="10.216022682919402"><ele>203.0</ele><time>2026-03-28T08:09:01Z</time></trkpt><trkpt lat="44.68843685886668" lon="10.215833088079936"><ele>201.5</ele><time>2026-03-28T08:09:02Z</time></trkpt><trkpt lat="44.68823545499678" lon="10.215649019593332"><ele>200.0</ele><time>2026-03-28T08:09:03Z</time></trkpt><trkpt lat="44.68804667313543" lon="10.215451528544756"><ele>200.0</ele><time>2026-03-28T08:09:04Z</time></trkpt><trkpt lat="44.68786715250858" lon="10.21528407780315"><ele>200.0</ele><time>2026-03-28T08:09:05Z</time></trkpt><trkpt lat="44.68769544071295" lon="10.215103748736363"><ele>200.0</ele><time>2026-03-28T08:09:06Z</time></trkpt><trkpt lat="44.68751810016298" lon="10.214924222734327"><ele>201.0</ele><time>2026-03-28T08:09:07Z</time></trkpt><trkpt lat="44.68734676415708" lon="10.214743575313008"><ele>202.0</ele><time>2026-03-28T08:09:08Z</time></trkpt><trkpt lat="44.68717756775595" lon="10.214563328836682"><ele>203.0</ele><time>2026-03-28T08:09:09Z</time></trkpt><trkpt lat="44.68700522306904" lon="10.214388278657944"><ele>203.66666666666669</ele><time>2026-03-28T08:09:10Z</time></trkpt><trkpt lat="44.68682944054812" lon="10.214215756022318"><ele>204.33333333333331</ele><time>2026-03-28T08:09:11Z</time></trkpt><trkpt lat="44.68665837723033" lon="10.214013383231626"><ele>205.0</ele><time>2026-03-28T08:09:12Z</time></trkpt><trkpt lat="44.686460062976025" lon="10.213807320244323"><ele>205.0</ele><time>2026-03-28T08:09:13Z</time></trkpt><trkpt lat="44.686245680305696" lon="10.213584560951668"><ele>205.0</ele><time>2026-03-28T08:09:14Z</time></trkpt><trkpt lat="44.68600958103901" lon="10.213363159716817"><ele>206.5</ele><time>2026-03-28T08:09:15Z</time></trkpt><trkpt lat="44.68578008640125" lon="10.213113422945096"><ele>208.0</ele><time>2026-03-28T08:09:16Z</time></trkpt><trkpt lat="44.68552454081668" lon="10.212856875121187"><ele>208.0</ele><time>2026-03-28T08:09:17Z</time></trkpt><trkpt lat="44.68527406144357" lon="10.2125971317956"><ele>208.0</ele><time>2026-03-28T08:09:18Z</time></trkpt><trkpt lat="44.68503199362137" lon="10.21235580674849"><ele>209.5</ele><time>2026-03-28T08:09:19Z</time></trkpt><trkpt lat="44.68478751107519" lon="10.212101526946915"><ele>211.0</ele><time>2026-03-28T08:09:20Z</time></trkpt><trkpt lat="44.68453167635932" lon="10.21183571096704"><ele>211.0</ele><time>2026-03-28T08:09:21Z</time></trkpt><trkpt lat="44.68427318404332" lon="10.211573122303765"><ele>211.0</ele><time>2026-03-28T08:09:22Z</time></trkpt><trkpt lat="44.68401664596539" lon="10.211253151168902"><ele>211.0</ele><time>2026-03-28T08:09:23Z</time></trkpt><trkpt lat="44.68374897226259" lon="10.210930719932476"><ele>211.0</ele><time>2026-03-28T08:09:24Z</time></trkpt><trkpt lat="44.683491639620314" lon="10.210769792234295"><ele>211.0</ele><time>2026-03-28T08:09:25Z</time></trkpt><trkpt lat="44.68323209199701" lon="10.2105053448607"><ele>211.0</ele><time>2026-03-28T08:09:26Z</time></trkpt><trkpt lat="44.68297685258318" lon="10.210240518730329"><ele>211.0</ele><time>2026-03-28T08:09:27Z</time></trkpt><trkpt lat="44.6827242950667" lon="10.209977785941916"><ele>211.0</ele><time>2026-03-28T08:09:28Z</time></trkpt><trkpt lat="44.68247180734544" lon="10.209718003656976"><ele>213.5</ele><time>2026-03-28T08:09:29Z</time></trkpt><trkpt lat="44.68222290904187" lon="10.209462987002045"><ele>216.0</ele><time>2026-03-28T08:09:30Z</time></trkpt><trkpt lat="44.681973472836354" lon="10.209214649049459"><ele>215.0</ele><time>2026-03-28T08:09:31Z</time></trkpt><trkpt lat="44.68172675105161" lon="10.208966502614272"><ele>214.0</ele><time>2026-03-28T08:09:32Z</time></trkpt><trkpt lat="44.68148764730576" lon="10.208722800596236"><ele>214.0</ele><time>2026-03-28T08:09:33Z</time></trkpt><trkpt lat="44.68125504187295" lon="10.208475364363803"><ele>214.0</ele><time>2026-03-28T08:09:34Z</time></trkpt><trkpt lat="44.681021903910384" lon="10.208233650680588"><ele>215.5</ele><time>2026-03-28T08:09:35Z</time></trkpt><trkpt lat="44.68078541609537" lon="10.207995360065407"><ele>217.0</ele><time>2026-03-28T08:09:36Z</time></trkpt><trkpt lat="44.68054982606147" lon="10.207754560832097"><ele>217.0</ele><time>2026-03-28T08:09:37Z</time></trkpt><trkpt lat="44.68031681663661" lon="10.20751672564784"><ele>217.0</ele><time>2026-03-28T08:09:38Z</time></trkpt><trkpt lat="44.68008213803709" lon="10.207278842056647"><ele>218.0</ele><time>2026-03-28T08:09:39Z</time></trkpt><trkpt lat="44.67984977397068" lon="10.207042794443007"><ele>219.0</ele><time>2026-03-28T08:09:40Z</time></trkpt><trkpt lat="44.67961710348231" lon="10.20680545972385"><ele>218.0</ele><time>2026-03-28T08:09:41Z</time></trkpt><trkpt lat="44.67938455341091" lon="10.206568348811691"><ele>217.0</ele><time>2026-03-28T08:09:42Z</time></trkpt><trkpt lat="44.679152157887884" lon="10.20633392743227"><ele>219.0</ele><time>2026-03-28T08:09:43Z</time></trkpt><trkpt lat="44.67892448561671" lon="10.206095230940894"><ele>221.0</ele><time>2026-03-28T08:09:44Z</time></trkpt><trkpt lat="44.67869283984089" lon="10.205857066642947"><ele>223.5</ele><time>2026-03-28T08:09:45Z</time></trkpt><trkpt lat="44.678460148514255" lon="10.205617166819145"><ele>226.0</ele><time>2026-03-28T08:09:46Z</time></trkpt><trkpt lat="44.678233006435555" lon="10.205378860882261"><ele>226.0</ele><time>2026-03-28T08:09:47Z</time></trkpt><trkpt lat="44.67800446000303" lon="10.205154298284173"><ele>226.0</ele><time>2026-03-28T08:09:48Z</time></trkpt><trkpt lat="44.67777452567545" lon="10.20491973730168"><ele>226.0</ele><time>2026-03-28T08:09:49Z</time></trkpt><trkpt lat="44.67754474963436" lon="10.204687859169207"><ele>226.0</ele><time>2026-03-28T08:09:50Z</time></trkpt><trkpt lat="44.67731721079904" lon="10.204458127090525"><ele>226.0</ele><time>2026-03-28T08:09:51Z</time></trkpt><trkpt lat="44.67709080343473" lon="10.204232408446028"><ele>226.0</ele><time>2026-03-28T08:09:52Z</time></trkpt><trkpt lat="44.67686923170121" lon="10.203993614367256"><ele>227.5</ele><time>2026-03-28T08:09:53Z</time></trkpt><trkpt lat="44.67664730814693" lon="10.203764251503575"><ele>229.0</ele><time>2026-03-28T08:09:54Z</time></trkpt><trkpt lat="44.676425890901456" lon="10.203530639344248"><ele>229.0</ele><time>2026-03-28T08:09:55Z</time></trkpt><trkpt lat="44.67620248427422" lon="10.203305463505085"><ele>229.0</ele><time>2026-03-28T08:09:56Z</time></trkpt><trkpt lat="44.67598601233952" lon="10.203082717873876"><ele>227.5</ele><time>2026-03-28T08:09:57Z</time></trkpt><trkpt lat="44.675762210378764" lon="10.202878017634545"><ele>226.0</ele><time>2026-03-28T08:09:58Z</time></trkpt><trkpt lat="44.67552161917002" lon="10.202689361676173"><ele>226.0</ele><time>2026-03-28T08:09:59Z</time></trkpt><trkpt lat="44.67527345469536" lon="10.202516659253122"><ele>226.0</ele><time>2026-03-28T08:10:00Z</time></trkpt><trkpt lat="44.675031156174626" lon="10.202332114923708"><ele>226.0</ele><time>2026-03-28T08:10:01Z</time></trkpt><trkpt lat="44.67479559120904" lon="10.202148803411633"><ele>226.0</ele><time>2026-03-28T08:10:02Z</time></trkpt><trkpt lat="44.67455931098372" lon="10.201957643944942"><ele>227.0</ele><time>2026-03-28T08:10:02.999Z</time></trkpt><trkpt lat="44.674322281941365" lon="10.201766755863813"><ele>228.0</ele><time>2026-03-28T08:10:03.999Z</time></trkpt><trkpt lat="44.67408477995686" lon="10.201592574105753"><ele>228.5</ele><time>2026-03-28T08:10:04.999Z</time></trkpt><trkpt lat="44.67385584566198" lon="10.201411529819621"><ele>229.0</ele><time>2026-03-28T08:10:05.999Z</time></trkpt><trkpt lat="44.673630220032194" lon="10.201229944294614"><ele>230.0</ele><time>2026-03-28T08:10:06.999Z</time></trkpt><trkpt lat="44.67341361923235" lon="10.201047382117844"><ele>231.0</ele><time>2026-03-28T08:10:07.999Z</time></trkpt><trkpt lat="44.67321582900225" lon="10.200824644332272"><ele>231.0</ele><time>2026-03-28T08:10:08.999Z</time></trkpt><trkpt lat="44.67305401556086" lon="10.2005506789926"><ele>231.0</ele><time>2026-03-28T08:10:09.999Z</time></trkpt><trkpt lat="44.672910746300474" lon="10.20023896091099"><ele>230.5</ele><time>2026-03-28T08:10:10.999Z</time></trkpt><trkpt lat="44.6727554680479" lon="10.199915447860606"><ele>230.0</ele><time>2026-03-28T08:10:11.999Z</time></trkpt><trkpt lat="44.67258321539543" lon="10.199598766995528"><ele>230.0</ele><time>2026-03-28T08:10:12.999Z</time></trkpt><trkpt lat="44.67240308849138" lon="10.199283338281472"><ele>230.0</ele><time>2026-03-28T08:10:13.999Z</time></trkpt><trkpt lat="44.67222815595083" lon="10.198974372653408"><ele>231.0</ele><time>2026-03-28T08:10:14.999Z</time></trkpt><trkpt lat="44.67206363624454" lon="10.198669524197776"><ele>232.0</ele><time>2026-03-28T08:10:15.999Z</time></trkpt><trkpt lat="44.671904696417414" lon="10.198365627472102"><ele>234.5</ele><time>2026-03-28T08:10:16.999Z</time></trkpt><trkpt lat="44.6717484926592" lon="10.198074124161625"><ele>237.0</ele><time>2026-03-28T08:10:17.999Z</time></trkpt><trkpt lat="44.67159434761767" lon="10.19778293827697"><ele>237.0</ele><time>2026-03-28T08:10:18.999Z</time></trkpt><trkpt lat="44.67144337083146" lon="10.197506349306831"><ele>237.0</ele><time>2026-03-28T08:10:19.999Z</time></trkpt><trkpt lat="44.67129727302068" lon="10.197237443048314"><ele>237.5</ele><time>2026-03-28T08:10:20.999Z</time></trkpt><trkpt lat="44.67115043910796" lon="10.196992492811795"><ele>238.0</ele><time>2026-03-28T08:10:21.999Z</time></trkpt><trkpt lat="44.67097645715327" lon="10.19677699652135"><ele>238.0</ele><time>2026-03-28T08:10:22.999Z</time></trkpt><trkpt lat="44.67076885446232" lon="10.196564585121083"><ele>238.0</ele><time>2026-03-28T08:10:23.999Z</time></trkpt><trkpt lat="44.67054954685246" lon="10.196346585287003"><ele>239.0</ele><time>2026-03-28T08:10:24.999Z</time></trkpt><trkpt lat="44.67034554410951" lon="10.19610472025143"><ele>240.0</ele><time>2026-03-28T08:10:25.999Z</time></trkpt><trkpt lat="44.670130162582325" lon="10.195879967366524"><ele>240.5</ele><time>2026-03-28T08:10:26.999Z</time></trkpt><trkpt lat="44.66990769135028" lon="10.195675529791353"><ele>241.0</ele><time>2026-03-28T08:10:27.999Z</time></trkpt><trkpt lat="44.66969685755561" lon="10.195449263312222"><ele>241.5</ele><time>2026-03-28T08:10:28.999Z</time></trkpt><trkpt lat="44.6694858861452" lon="10.195229678136531"><ele>242.0</ele><time>2026-03-28T08:10:29.999Z</time></trkpt><trkpt lat="44.6692741472108" lon="10.19501245837499"><ele>242.5</ele><time>2026-03-28T08:10:30.999Z</time></trkpt><trkpt lat="44.66906460096406" lon="10.194793960223391"><ele>243.0</ele><time>2026-03-28T08:10:31.999Z</time></trkpt><trkpt lat="44.66885739018336" lon="10.194577353976953"><ele>243.0</ele><time>2026-03-28T08:10:32.999Z</time></trkpt><trkpt lat="44.66865238375839" lon="10.19436263263672"><ele>243.0</ele><time>2026-03-28T08:10:33.999Z</time></trkpt><trkpt lat="44.66844639885128" lon="10.194151142032482"><ele>243.0</ele><time>2026-03-28T08:10:34.999Z</time></trkpt><trkpt lat="44.668256189973405" lon="10.19392695923098"><ele>243.0</ele><time>2026-03-28T08:10:35.999Z</time></trkpt><trkpt lat="44.66805771426426" lon="10.193720825595546"><ele>243.0</ele><time>2026-03-28T08:10:36.999Z</time></trkpt><trkpt lat="44.66786789948073" lon="10.193523386019645"><ele>243.0</ele><time>2026-03-28T08:10:37.999Z</time></trkpt><trkpt lat="44.6676760694403" lon="10.193323701524372"><ele>244.33333333333331</ele><time>2026-03-28T08:10:38.999Z</time></trkpt><trkpt lat="44.667497796976015" lon="10.193138129697536"><ele>245.66666666666666</ele><time>2026-03-28T08:10:39.999Z</time></trkpt><trkpt lat="44.66732352223324" lon="10.192955211964346"><ele>247.0</ele><time>2026-03-28T08:10:41Z</time></trkpt><trkpt lat="44.667161819615195" lon="10.192779354965174"><ele>247.0</ele><time>2026-03-28T08:10:42Z</time></trkpt><trkpt lat="44.66701151259748" lon="10.19260806098666"><ele>247.0</ele><time>2026-03-28T08:10:43Z</time></trkpt><trkpt lat="44.666869148971045" lon="10.192445095651319"><ele>247.0</ele><time>2026-03-28T08:10:44Z</time></trkpt><trkpt lat="44.66672593516747" lon="10.19230684420879"><ele>247.66666666666666</ele><time>2026-03-28T08:10:45Z</time></trkpt><trkpt lat="44.66658450450632" lon="10.192144926071661"><ele>248.33333333333331</ele><time>2026-03-28T08:10:46Z</time></trkpt><trkpt lat="44.666449689658045" lon="10.191968182491882"><ele>249.0</ele><time>2026-03-28T08:10:47Z</time></trkpt><trkpt lat="44.666296569025754" lon="10.191817487802146"><ele>249.0</ele><time>2026-03-28T08:10:48Z</time></trkpt><trkpt lat="44.666157203826046" lon="10.191658766028677"><ele>249.0</ele><time>2026-03-28T08:10:49Z</time></trkpt><trkpt lat="44.66602251832109" lon="10.191502001831601"><ele>249.0</ele><time>2026-03-28T08:10:50Z</time></trkpt><trkpt lat="44.66589289852253" lon="10.191359959184647"><ele>248.66666666666669</ele><time>2026-03-28T08:10:51Z</time></trkpt><trkpt lat="44.665776989091086" lon="10.1912003105448"><ele>248.33333333333334</ele><time>2026-03-28T08:10:52Z</time></trkpt><trkpt lat="44.665660721701926" lon="10.191045736171091"><ele>248.0</ele><time>2026-03-28T08:10:53Z</time></trkpt><trkpt lat="44.665518345599395" lon="10.19088314604084"><ele>248.0</ele><time>2026-03-28T08:10:54Z</time></trkpt><trkpt lat="44.66538597801915" lon="10.190688140097809"><ele>248.0</ele><time>2026-03-28T08:10:55Z</time></trkpt><trkpt lat="44.665258577945934" lon="10.190509131209522"><ele>248.0</ele><time>2026-03-28T08:10:56Z</time></trkpt><trkpt lat="44.66512738508173" lon="10.190341083700929"><ele>248.0</ele><time>2026-03-28T08:10:57Z</time></trkpt><trkpt lat="44.66500214625554" lon="10.190164702136613"><ele>248.0</ele><time>2026-03-28T08:10:58Z</time></trkpt><trkpt lat="44.664873172363194" lon="10.189989429993304"><ele>248.0</ele><time>2026-03-28T08:10:59Z</time></trkpt><trkpt lat="44.66475042208516" lon="10.189788540520489"><ele>248.33333333333334</ele><time>2026-03-28T08:11:00Z</time></trkpt><trkpt lat="44.664601370368075" lon="10.18961746584176"><ele>248.66666666666669</ele><time>2026-03-28T08:11:01Z</time></trkpt><trkpt lat="44.66445172680792" lon="10.189415235802137"><ele>249.0</ele><time>2026-03-28T08:11:02Z</time></trkpt><trkpt lat="44.664315890996804" lon="10.189201394421016"><ele>250.66666666666669</ele><time>2026-03-28T08:11:03Z</time></trkpt><trkpt lat="44.66417236163959" lon="10.18900759669561"><ele>252.33333333333334</ele><time>2026-03-28T08:11:04Z</time></trkpt><trkpt lat="44.664043493765035" lon="10.18882886844197"><ele>254.0</ele><time>2026-03-28T08:11:05Z</time></trkpt><trkpt lat="44.663929461225706" lon="10.188663742330238"><ele>254.0</ele><time>2026-03-28T08:11:06Z</time></trkpt><trkpt lat="44.66383282634553" lon="10.188503822293649"><ele>254.0</ele><time>2026-03-28T08:11:07Z</time></trkpt><trkpt lat="44.6637486594453" lon="10.188341662260164"><ele>254.0</ele><time>2026-03-28T08:11:08Z</time></trkpt><trkpt lat="44.663675057112904" lon="10.188181903473406"><ele>254.0</ele><time>2026-03-28T08:11:09Z</time></trkpt><trkpt lat="44.66360345522316" lon="10.188010205130679"><ele>254.0</ele><time>2026-03-28T08:11:10Z</time></trkpt><trkpt lat="44.663527634250464" lon="10.18782030965973"><ele>254.0</ele><time>2026-03-28T08:11:11Z</time></trkpt><trkpt lat="44.663452974782466" lon="10.187629246769815"><ele>254.0</ele><time>2026-03-28T08:11:12Z</time></trkpt><trkpt lat="44.6633594975803" lon="10.187432659033682"><ele>255.0</ele><time>2026-03-28T08:11:13Z</time></trkpt><trkpt lat="44.66327956562158" lon="10.187224949815766"><ele>256.0</ele><time>2026-03-28T08:11:14Z</time></trkpt><trkpt lat="44.66319204405181" lon="10.187018183838479"><ele>257.0</ele><time>2026-03-28T08:11:15Z</time></trkpt><trkpt lat="44.663100589749156" lon="10.186824524628001"><ele>257.0</ele><time>2026-03-28T08:11:16Z</time></trkpt><trkpt lat="44.662996487027996" lon="10.18664662905972"><ele>257.0</ele><time>2026-03-28T08:11:17Z</time></trkpt><trkpt lat="44.66286819855879" lon="10.186487284283393"><ele>257.0</ele><time>2026-03-28T08:11:18Z</time></trkpt><trkpt lat="44.66271354208523" lon="10.186310374194507"><ele>258.5</ele><time>2026-03-28T08:11:19Z</time></trkpt><trkpt lat="44.66252311528464" lon="10.186131206616327"><ele>260.0</ele><time>2026-03-28T08:11:20Z</time></trkpt><trkpt lat="44.6623186018892" lon="10.185940606356414"><ele>260.0</ele><time>2026-03-28T08:11:21Z</time></trkpt><trkpt lat="44.66212010448478" lon="10.185756513543678"><ele>260.0</ele><time>2026-03-28T08:11:22Z</time></trkpt><trkpt lat="44.66190665746118" lon="10.18555855599362"><ele>261.5</ele><time>2026-03-28T08:11:23Z</time></trkpt><trkpt lat="44.6617020434748" lon="10.185367417905553"><ele>263.0</ele><time>2026-03-28T08:11:24Z</time></trkpt><trkpt lat="44.661500063169555" lon="10.185178442594543"><ele>263.0</ele><time>2026-03-28T08:11:25Z</time></trkpt><trkpt lat="44.66128641203667" lon="10.184978667841207"><ele>263.0</ele><time>2026-03-28T08:11:26Z</time></trkpt><trkpt lat="44.6610360819719" lon="10.184801540538476"><ele>264.0</ele><time>2026-03-28T08:11:27Z</time></trkpt><trkpt lat="44.66076625847648" lon="10.184609631126337"><ele>265.0</ele><time>2026-03-28T08:11:28Z</time></trkpt><trkpt lat="44.6604708110401" lon="10.1843898928153"><ele>263.0</ele><time>2026-03-28T08:11:29Z</time></trkpt><trkpt lat="44.66021139101297" lon="10.184209586879554"><ele>261.0</ele><time>2026-03-28T08:11:30Z</time></trkpt><trkpt lat="44.659930130547686" lon="10.184013822022607"><ele>262.5</ele><time>2026-03-28T08:11:31Z</time></trkpt><trkpt lat="44.65965176858825" lon="10.183819313356496"><ele>264.0</ele><time>2026-03-28T08:11:32Z</time></trkpt><trkpt lat="44.65936801645803" lon="10.183621715677877"><ele>264.0</ele><time>2026-03-28T08:11:33Z</time></trkpt><trkpt lat="44.65909376703254" lon="10.183430899879113"><ele>264.0</ele><time>2026-03-28T08:11:34Z</time></trkpt><trkpt lat="44.658812514450986" lon="10.18325999773873"><ele>266.0</ele><time>2026-03-28T08:11:35Z</time></trkpt><trkpt lat="44.65853902739049" lon="10.183068239227048"><ele>268.0</ele><time>2026-03-28T08:11:36Z</time></trkpt><trkpt lat="44.65826308920226" lon="10.182877956709085"><ele>268.0</ele><time>2026-03-28T08:11:37Z</time></trkpt><trkpt lat="44.65800068518632" lon="10.182676336175867"><ele>268.0</ele><time>2026-03-28T08:11:38Z</time></trkpt><trkpt lat="44.6577432519222" lon="10.182499293359392"><ele>271.0</ele><time>2026-03-28T08:11:39Z</time></trkpt><trkpt lat="44.6574933445736" lon="10.182327089099614"><ele>274.0</ele><time>2026-03-28T08:11:40Z</time></trkpt><trkpt lat="44.65725148276969" lon="10.182158358487252"><ele>274.0</ele><time>2026-03-28T08:11:41Z</time></trkpt><trkpt lat="44.65701200650501" lon="10.181991585127651"><ele>274.0</ele><time>2026-03-28T08:11:42Z</time></trkpt><trkpt lat="44.656770821120055" lon="10.181823446054082"><ele>271.0</ele><time>2026-03-28T08:11:43Z</time></trkpt><trkpt lat="44.65652059057117" lon="10.181671508989224"><ele>268.0</ele><time>2026-03-28T08:11:44Z</time></trkpt><trkpt lat="44.6562752591187" lon="10.18149852489019"><ele>270.0</ele><time>2026-03-28T08:11:45Z</time></trkpt><trkpt lat="44.65603118701264" lon="10.181330735705771"><ele>272.0</ele><time>2026-03-28T08:11:46Z</time></trkpt><trkpt lat="44.65578258600457" lon="10.181155420403405"><ele>272.0</ele><time>2026-03-28T08:11:47Z</time></trkpt><trkpt lat="44.655540938409324" lon="10.18097892344494"><ele>272.0</ele><time>2026-03-28T08:11:48Z</time></trkpt><trkpt lat="44.655290331866105" lon="10.180798751539704"><ele>275.0</ele><time>2026-03-28T08:11:49Z</time></trkpt><trkpt lat="44.65503541779374" lon="10.180621526699136"><ele>278.0</ele><time>2026-03-28T08:11:50Z</time></trkpt><trkpt lat="44.65477876640964" lon="10.180450114545607"><ele>278.0</ele><time>2026-03-28T08:11:51Z</time></trkpt><trkpt lat="44.654511349481936" lon="10.180271210054444"><ele>278.0</ele><time>2026-03-28T08:11:52Z</time></trkpt><trkpt lat="44.65425140298354" lon="10.180092527528961"><ele>275.0</ele><time>2026-03-28T08:11:53Z</time></trkpt><trkpt lat="44.65399513128748" lon="10.179913546536303"><ele>272.0</ele><time>2026-03-28T08:11:54Z</time></trkpt><trkpt lat="44.653736196308415" lon="10.179734282041965"><ele>275.0</ele><time>2026-03-28T08:11:55Z</time></trkpt><trkpt lat="44.6534770037856" lon="10.179553438630206"><ele>278.0</ele><time>2026-03-28T08:11:56Z</time></trkpt><trkpt lat="44.6532135245715" lon="10.179367294285749"><ele>278.0</ele><time>2026-03-28T08:11:57Z</time></trkpt><trkpt lat="44.65296243829189" lon="10.179165091936857"><ele>278.0</ele><time>2026-03-28T08:11:58Z</time></trkpt><trkpt lat="44.65270063526718" lon="10.17898068565672"><ele>278.5</ele><time>2026-03-28T08:11:59Z</time></trkpt><trkpt lat="44.65243647539697" lon="10.178819194516192"><ele>279.0</ele><time>2026-03-28T08:12:00Z</time></trkpt><trkpt lat="44.652176546069434" lon="10.178632351817784"><ele>277.5</ele><time>2026-03-28T08:12:01Z</time></trkpt><trkpt lat="44.65191877339367" lon="10.178450798846507"><ele>276.0</ele><time>2026-03-28T08:12:02Z</time></trkpt><trkpt lat="44.651664672465174" lon="10.178281299878435"><ele>280.0</ele><time>2026-03-28T08:12:03Z</time></trkpt><trkpt lat="44.65143172600307" lon="10.178135211818102"><ele>284.0</ele><time>2026-03-28T08:12:04Z</time></trkpt><trkpt lat="44.651223507764435" lon="10.177996208086856"><ele>284.0</ele><time>2026-03-28T08:12:05Z</time></trkpt><trkpt lat="44.651017136742325" lon="10.177846282943483"><ele>284.0</ele><time>2026-03-28T08:12:06Z</time></trkpt><trkpt lat="44.65081636539392" lon="10.177705683227126"><ele>284.0</ele><time>2026-03-28T08:12:07Z</time></trkpt><trkpt lat="44.65063449489348" lon="10.177578348061479"><ele>284.0</ele><time>2026-03-28T08:12:08Z</time></trkpt><trkpt lat="44.650462497405975" lon="10.177459401299053"><ele>284.0</ele><time>2026-03-28T08:12:09Z</time></trkpt><trkpt lat="44.650298744406264" lon="10.177358582599048"><ele>284.6666666666667</ele><time>2026-03-28T08:12:10Z</time></trkpt><trkpt lat="44.65011986205967" lon="10.177278546100185"><ele>285.3333333333333</ele><time>2026-03-28T08:12:11Z</time></trkpt><trkpt lat="44.64991880708639" lon="10.17720842854543"><ele>286.0</ele><time>2026-03-28T08:12:12Z</time></trkpt><trkpt lat="44.649712126849806" lon="10.177129532725084"><ele>286.0</ele><time>2026-03-28T08:12:13Z</time></trkpt><trkpt lat="44.64949871235172" lon="10.177048726352517"><ele>286.0</ele><time>2026-03-28T08:12:13.999Z</time></trkpt><trkpt lat="44.64927660467794" lon="10.176962304770726"><ele>285.5</ele><time>2026-03-28T08:12:14.999Z</time></trkpt><trkpt lat="44.64905148203737" lon="10.176869336174875"><ele>285.0</ele><time>2026-03-28T08:12:15.999Z</time></trkpt><trkpt lat="44.6488299246524" lon="10.176776040787388"><ele>284.0</ele><time>2026-03-28T08:12:16.999Z</time></trkpt><trkpt lat="44.64861040543279" lon="10.1766906642419"><ele>283.0</ele><time>2026-03-28T08:12:17.999Z</time></trkpt><trkpt lat="44.64838767629091" lon="10.176604723853448"><ele>285.5</ele><time>2026-03-28T08:12:18.999Z</time></trkpt><trkpt lat="44.64816298365528" lon="10.176512205872385"><ele>288.0</ele><time>2026-03-28T08:12:19.999Z</time></trkpt><trkpt lat="44.64794463426797" lon="10.176421302581835"><ele>288.0</ele><time>2026-03-28T08:12:20.999Z</time></trkpt><trkpt lat="44.64772606335763" lon="10.176327373048363"><ele>288.0</ele><time>2026-03-28T08:12:21.999Z</time></trkpt><trkpt lat="44.64751729981338" lon="10.17624010946479"><ele>288.0</ele><time>2026-03-28T08:12:22.999Z</time></trkpt><trkpt lat="44.64730078065603" lon="10.176168580696409"><ele>288.0</ele><time>2026-03-28T08:12:23.999Z</time></trkpt><trkpt lat="44.647075036531156" lon="10.17612058960914"><ele>288.0</ele><time>2026-03-28T08:12:24.999Z</time></trkpt><trkpt lat="44.64683751116756" lon="10.176108865597895"><ele>288.5</ele><time>2026-03-28T08:12:25.999Z</time></trkpt><trkpt lat="44.646590885784796" lon="10.176119525659228"><ele>289.0</ele><time>2026-03-28T08:12:26.999Z</time></trkpt><trkpt lat="44.64637339855095" lon="10.176132843224703"><ele>289.0</ele><time>2026-03-28T08:12:27.999Z</time></trkpt><trkpt lat="44.64618090491162" lon="10.176137910547059"><ele>289.0</ele><time>2026-03-28T08:12:28.999Z</time></trkpt><trkpt lat="44.64599965623488" lon="10.17613651448822"><ele>289.0</ele><time>2026-03-28T08:12:29.999Z</time></trkpt><trkpt lat="44.645831130892205" lon="10.176135985354435"><ele>288.66666666666663</ele><time>2026-03-28T08:12:30.999Z</time></trkpt><trkpt lat="44.645673715524026" lon="10.176130840184385"><ele>288.3333333333333</ele><time>2026-03-28T08:12:31.999Z</time></trkpt><trkpt lat="44.645523867248784" lon="10.17610655435285"><ele>288.0</ele><time>2026-03-28T08:12:32.999Z</time></trkpt><trkpt lat="44.64536952687352" lon="10.176059402277113"><ele>288.6666666666667</ele><time>2026-03-28T08:12:33.999Z</time></trkpt><trkpt lat="44.64520390410824" lon="10.176002056993404"><ele>289.33333333333337</ele><time>2026-03-28T08:12:34.999Z</time></trkpt><trkpt lat="44.645038228273975" lon="10.175919674178852"><ele>290.0</ele><time>2026-03-28T08:12:35.999Z</time></trkpt><trkpt lat="44.64486475975937" lon="10.175826001072663"><ele>290.0</ele><time>2026-03-28T08:12:36.999Z</time></trkpt><trkpt lat="44.644690576051865" lon="10.175720040261671"><ele>290.0</ele><time>2026-03-28T08:12:37.999Z</time></trkpt><trkpt lat="44.64451521235263" lon="10.175591764057478"><ele>290.0</ele><time>2026-03-28T08:12:38.999Z</time></trkpt><trkpt lat="44.644328638892176" lon="10.175472401045806"><ele>290.33333333333337</ele><time>2026-03-28T08:12:39.999Z</time></trkpt><trkpt lat="44.64413642821121" lon="10.175355379871585"><ele>290.6666666666667</ele><time>2026-03-28T08:12:40.999Z</time></trkpt><trkpt lat="44.64394151174671" lon="10.175226837648756"><ele>291.0</ele><time>2026-03-28T08:12:41.999Z</time></trkpt><trkpt lat="44.64373981167308" lon="10.175090631866441"><ele>290.3333333333333</ele><time>2026-03-28T08:12:42.999Z</time></trkpt><trkpt lat="44.64354228663042" lon="10.174969528386768"><ele>289.66666666666663</ele><time>2026-03-28T08:12:43.999Z</time></trkpt><trkpt lat="44.64334873560409" lon="10.174856549372686"><ele>289.0</ele><time>2026-03-28T08:12:44.999Z</time></trkpt><trkpt lat="44.6431739177621" lon="10.174757974970454"><ele>290.0</ele><time>2026-03-28T08:12:45.999Z</time></trkpt><trkpt lat="44.64299855620964" lon="10.174643926119192"><ele>291.0</ele><time>2026-03-28T08:12:47Z</time></trkpt><trkpt lat="44.642816446770226" lon="10.174508352199634"><ele>292.0</ele><time>2026-03-28T08:12:48Z</time></trkpt><trkpt lat="44.64263606311046" lon="10.17433199989218"><ele>292.0</ele><time>2026-03-28T08:12:49Z</time></trkpt><trkpt lat="44.6424537383208" lon="10.174107645215017"><ele>292.0</ele><time>2026-03-28T08:12:50Z</time></trkpt><trkpt lat="44.64225936581255" lon="10.173867881277372"><ele>292.5</ele><time>2026-03-28T08:12:51Z</time></trkpt><trkpt lat="44.64206390236911" lon="10.173642361050437"><ele>293.0</ele><time>2026-03-28T08:12:52Z</time></trkpt><trkpt lat="44.64186024485695" lon="10.17341934186469"><ele>293.0</ele><time>2026-03-28T08:12:53Z</time></trkpt><trkpt lat="44.6416702347688" lon="10.173200924765936"><ele>293.0</ele><time>2026-03-28T08:12:54Z</time></trkpt><trkpt lat="44.64148560937032" lon="10.172986072466914"><ele>295.5</ele><time>2026-03-28T08:12:55Z</time></trkpt><trkpt lat="44.64130544549404" lon="10.17277830432824"><ele>298.0</ele><time>2026-03-28T08:12:56Z</time></trkpt><trkpt lat="44.641123836286816" lon="10.172577657606054"><ele>298.0</ele><time>2026-03-28T08:12:57Z</time></trkpt><trkpt lat="44.64094579780411" lon="10.17237599270715"><ele>298.0</ele><time>2026-03-28T08:12:58Z</time></trkpt><trkpt lat="44.64077513150871" lon="10.172183782644582"><ele>298.0</ele><time>2026-03-28T08:12:59Z</time></trkpt><trkpt lat="44.64059352205803" lon="10.172018358975555"><ele>301.0</ele><time>2026-03-28T08:13:00Z</time></trkpt><trkpt lat="44.64038079379521" lon="10.171906102082675"><ele>304.0</ele><time>2026-03-28T08:13:01Z</time></trkpt><trkpt lat="44.640149698872065" lon="10.171835676097203"><ele>304.0</ele><time>2026-03-28T08:13:02Z</time></trkpt><trkpt lat="44.63991156527565" lon="10.171765399143666"><ele>304.0</ele><time>2026-03-28T08:13:03Z</time></trkpt><trkpt lat="44.639683679376986" lon="10.171671997911004"><ele>301.5</ele><time>2026-03-28T08:13:04Z</time></trkpt><trkpt lat="44.63945462697408" lon="10.171557879143966"><ele>299.0</ele><time>2026-03-28T08:13:05Z</time></trkpt><trkpt lat="44.639232006514376" lon="10.171407296273987"><ele>305.0</ele><time>2026-03-28T08:13:06Z</time></trkpt><trkpt lat="44.63901297105894" lon="10.171283259443083"><ele>311.0</ele><time>2026-03-28T08:13:07Z</time></trkpt><trkpt lat="44.63878661983532" lon="10.171171669541206"><ele>309.0</ele><time>2026-03-28T08:13:08Z</time></trkpt><trkpt lat="44.6385763782282" lon="10.171050417172449"><ele>307.0</ele><time>2026-03-28T08:13:09Z</time></trkpt><trkpt lat="44.638377386218" lon="10.170946378462103"><ele>305.0</ele><time>2026-03-28T08:13:10Z</time></trkpt><trkpt lat="44.63816759816008" lon="10.170871816364768"><ele>305.0</ele><time>2026-03-28T08:13:11Z</time></trkpt><trkpt lat="44.63793438972337" lon="10.170855594743045"><ele>305.0</ele><time>2026-03-28T08:13:12Z</time></trkpt><trkpt lat="44.63768898752439" lon="10.170857228817912"><ele>303.0</ele><time>2026-03-28T08:13:13Z</time></trkpt><trkpt lat="44.63744682988131" lon="10.17083369999338"><ele>301.0</ele><time>2026-03-28T08:13:14Z</time></trkpt><trkpt lat="44.637203712455204" lon="10.170763463088361"><ele>305.5</ele><time>2026-03-28T08:13:15Z</time></trkpt><trkpt lat="44.636962743064935" lon="10.170673465592674"><ele>310.0</ele><time>2026-03-28T08:13:16Z</time></trkpt><trkpt lat="44.63672746615127" lon="10.170580257728128"><ele>310.0</ele><time>2026-03-28T08:13:17Z</time></trkpt><trkpt lat="44.63649522439586" lon="10.170488252239723"><ele>310.0</ele><time>2026-03-28T08:13:18Z</time></trkpt><trkpt lat="44.63628843407241" lon="10.170406329653373"><ele>309.5</ele><time>2026-03-28T08:13:19Z</time></trkpt><trkpt lat="44.636134945860725" lon="10.170345523378023"><ele>309.0</ele><time>2026-03-28T08:13:20Z</time></trkpt><trkpt lat="44.636020947553035" lon="10.170300361563323"><ele>308.5</ele><time>2026-03-28T08:13:21Z</time></trkpt><trkpt lat="44.63591169116035" lon="10.170254675309788"><ele>308.0</ele><time>2026-03-28T08:13:22Z</time></trkpt><trkpt lat="44.63579925682223" lon="10.170203087307275"><ele>308.0</ele><time>2026-03-28T08:13:23Z</time></trkpt><trkpt lat="44.63569502638794" lon="10.17013602021492"><ele>308.0</ele><time>2026-03-28T08:13:24Z</time></trkpt><trkpt lat="44.635597870838794" lon="10.170051092516214"><ele>308.0</ele><time>2026-03-28T08:13:25Z</time></trkpt><trkpt lat="44.6355061401834" lon="10.169974999777306"><ele>308.0</ele><time>2026-03-28T08:13:26Z</time></trkpt><trkpt lat="44.63541774186767" lon="10.169928849987638"><ele>308.0</ele><time>2026-03-28T08:13:27Z</time></trkpt><trkpt lat="44.63534698522076" lon="10.169874773275676"><ele>307.8</ele><time>2026-03-28T08:13:28Z</time></trkpt><trkpt lat="44.63525016915521" lon="10.16989660215468"><ele>307.6</ele><time>2026-03-28T08:13:29Z</time></trkpt><trkpt lat="44.63516549491667" lon="10.16991045788059"><ele>307.4</ele><time>2026-03-28T08:13:30Z</time></trkpt><trkpt lat="44.635066848890645" lon="10.169949404741855"><ele>307.2</ele><time>2026-03-28T08:13:31Z</time></trkpt><trkpt lat="44.634983346955764" lon="10.170034626704501"><ele>307.0</ele><time>2026-03-28T08:13:32Z</time></trkpt><trkpt lat="44.63493386398107" lon="10.170136770107236"><ele>307.0</ele><time>2026-03-28T08:13:33Z</time></trkpt><trkpt lat="44.63490479285797" lon="10.170291932293097"><ele>307.0</ele><time>2026-03-28T08:13:34Z</time></trkpt><trkpt lat="44.63489316082865" lon="10.170468997375337"><ele>307.0</ele><time>2026-03-28T08:13:35Z</time></trkpt><trkpt lat="44.63487401315521" lon="10.170662973529659"><ele>307.0</ele><time>2026-03-28T08:13:36Z</time></trkpt><trkpt lat="44.63485968018346" lon="10.170833295327823"><ele>306.6</ele><time>2026-03-28T08:13:37Z</time></trkpt><trkpt lat="44.63484225176525" lon="10.170987352903449"><ele>306.2</ele><time>2026-03-28T08:13:38Z</time></trkpt><trkpt lat="44.63483213183595" lon="10.171124374227247"><ele>305.8</ele><time>2026-03-28T08:13:39Z</time></trkpt><trkpt lat="44.63481651337459" lon="10.17126333483183"><ele>305.4</ele><time>2026-03-28T08:13:40Z</time></trkpt><trkpt lat="44.634802541278766" lon="10.171402769835687"><ele>305.0</ele><time>2026-03-28T08:13:41Z</time></trkpt><trkpt lat="44.634789592480836" lon="10.171549058391907"><ele>304.83333333333337</ele><time>2026-03-28T08:13:42Z</time></trkpt><trkpt lat="44.63477745140247" lon="10.171683590369774"><ele>304.6666666666667</ele><time>2026-03-28T08:13:43Z</time></trkpt><trkpt lat="44.63476485353317" lon="10.171818008345078"><ele>304.5</ele><time>2026-03-28T08:13:44Z</time></trkpt><trkpt lat="44.634751217901105" lon="10.171929488632522"><ele>304.3333333333333</ele><time>2026-03-28T08:13:45Z</time></trkpt><trkpt lat="44.63473883305497" lon="10.172029921201878"><ele>304.16666666666663</ele><time>2026-03-28T08:13:46Z</time></trkpt><trkpt lat="44.63470749516417" lon="10.17214642577686"><ele>304.0</ele><time>2026-03-28T08:13:48Z</time></trkpt><trkpt lat="44.63458817522783" lon="10.172145181951038"><ele>304.0</ele><time>2026-03-28T08:13:51Z</time></trkpt><trkpt lat="44.63447152560361" lon="10.172091513204343"><ele>304.0</ele><time>2026-03-28T08:13:52Z</time></trkpt><trkpt lat="44.63430476661834" lon="10.172047145252515"><ele>304.0</ele><time>2026-03-28T08:13:53Z</time></trkpt><trkpt lat="44.63412555780956" lon="10.171992180947006"><ele>304.66666666666663</ele><time>2026-03-28T08:13:54Z</time></trkpt><trkpt lat="44.63391522380522" lon="10.171908682397994"><ele>305.3333333333333</ele><time>2026-03-28T08:13:55Z</time></trkpt><trkpt lat="44.633698728157476" lon="10.171832086345336"><ele>306.0</ele><time>2026-03-28T08:13:56Z</time></trkpt><trkpt lat="44.633488080563176" lon="10.171715890048086"><ele>308.3333333333333</ele><time>2026-03-28T08:13:57Z</time></trkpt><trkpt lat="44.63329949075052" lon="10.171617652065422"><ele>310.66666666666663</ele><time>2026-03-28T08:13:58Z</time></trkpt><trkpt lat="44.633131148526225" lon="10.171544479001692"><ele>313.0</ele><time>2026-03-28T08:13:59Z</time></trkpt><trkpt lat="44.632956144807416" lon="10.171528009334498"><ele>312.66666666666663</ele><time>2026-03-28T08:14:00Z</time></trkpt><trkpt lat="44.63276272698282" lon="10.171572364362126"><ele>312.3333333333333</ele><time>2026-03-28T08:14:01Z</time></trkpt><trkpt lat="44.6325771543007" lon="10.171689629565419"><ele>312.0</ele><time>2026-03-28T08:14:02Z</time></trkpt><trkpt lat="44.63239599220157" lon="10.171864728464977"><ele>312.0</ele><time>2026-03-28T08:14:03Z</time></trkpt><trkpt lat="44.632224288236806" lon="10.172045562133352"><ele>312.0</ele><time>2026-03-28T08:14:04Z</time></trkpt><trkpt lat="44.63203535635858" lon="10.172131538949442"><ele>312.0</ele><time>2026-03-28T08:14:05Z</time></trkpt><trkpt lat="44.63183245567895" lon="10.17215610247529"><ele>312.0</ele><time>2026-03-28T08:14:06Z</time></trkpt><trkpt lat="44.63161581209728" lon="10.172180585219776"><ele>312.0</ele><time>2026-03-28T08:14:07Z</time></trkpt><trkpt lat="44.63142881778852" lon="10.172213336877501"><ele>312.0</ele><time>2026-03-28T08:14:08Z</time></trkpt><trkpt lat="44.631260713056584" lon="10.172240926524164"><ele>314.0</ele><time>2026-03-28T08:14:09Z</time></trkpt><trkpt lat="44.63111401370232" lon="10.172223385581459"><ele>316.0</ele><time>2026-03-28T08:14:10Z</time></trkpt><trkpt lat="44.63096032463079" lon="10.172205510915003"><ele>318.0</ele><time>2026-03-28T08:14:11Z</time></trkpt><trkpt lat="44.63084757666641" lon="10.17203039704657"><ele>318.0</ele><time>2026-03-28T08:14:12Z</time></trkpt><trkpt lat="44.63072885690526" lon="10.171845145228609"><ele>318.0</ele><time>2026-03-28T08:14:13Z</time></trkpt><trkpt lat="44.63060089140132" lon="10.171665520867533"><ele>318.0</ele><time>2026-03-28T08:14:14Z</time></trkpt><trkpt lat="44.63049407948392" lon="10.171496685448151"><ele>318.0</ele><time>2026-03-28T08:14:15Z</time></trkpt><trkpt lat="44.63035423186717" lon="10.171388178664184"><ele>318.0</ele><time>2026-03-28T08:14:16Z</time></trkpt><trkpt lat="44.63016991362648" lon="10.171328450661075"><ele>318.0</ele><time>2026-03-28T08:14:17Z</time></trkpt><trkpt lat="44.62995874732443" lon="10.17129867969181"><ele>318.0</ele><time>2026-03-28T08:14:18Z</time></trkpt><trkpt lat="44.629757615175215" lon="10.171267081932577"><ele>318.0</ele><time>2026-03-28T08:14:19Z</time></trkpt><trkpt lat="44.62957747765377" lon="10.171221845972738"><ele>318.0</ele><time>2026-03-28T08:14:20Z</time></trkpt><trkpt lat="44.629404011476424" lon="10.171182857436358"><ele>319.3333333333333</ele><time>2026-03-28T08:14:21Z</time></trkpt><trkpt lat="44.629242860364855" lon="10.171147862632388"><ele>320.66666666666663</ele><time>2026-03-28T08:14:22Z</time></trkpt><trkpt lat="44.62907632315558" lon="10.171107232862596"><ele>322.0</ele><time>2026-03-28T08:14:23Z</time></trkpt><trkpt lat="44.628906696682" lon="10.171046325273355"><ele>322.0</ele><time>2026-03-28T08:14:24Z</time></trkpt><trkpt lat="44.62874315837654" lon="10.170923856523686"><ele>322.0</ele><time>2026-03-28T08:14:25Z</time></trkpt><trkpt lat="44.6286035238604" lon="10.170760131020192"><ele>322.0</ele><time>2026-03-28T08:14:26Z</time></trkpt><trkpt lat="44.62848162940361" lon="10.170557028748986"><ele>323.0</ele><time>2026-03-28T08:14:27Z</time></trkpt><trkpt lat="44.62835287780835" lon="10.170327856530093"><ele>324.0</ele><time>2026-03-28T08:14:28Z</time></trkpt><trkpt lat="44.62824703368158" lon="10.170102501146575"><ele>325.0</ele><time>2026-03-28T08:14:29Z</time></trkpt><trkpt lat="44.62813307625333" lon="10.169893047776553"><ele>327.0</ele><time>2026-03-28T08:14:29.999Z</time></trkpt><trkpt lat="44.628025341508454" lon="10.169703616850784"><ele>329.0</ele><time>2026-03-28T08:14:30.999Z</time></trkpt><trkpt lat="44.62791861737068" lon="10.16953045953214"><ele>331.0</ele><time>2026-03-28T08:14:31.999Z</time></trkpt><trkpt lat="44.627790001108245" lon="10.169369134361595"><ele>331.0</ele><time>2026-03-28T08:14:32.999Z</time></trkpt><trkpt lat="44.62764621671287" lon="10.169212431459"><ele>331.0</ele><time>2026-03-28T08:14:33.999Z</time></trkpt><trkpt lat="44.62750102929324" lon="10.169046330751804"><ele>331.0</ele><time>2026-03-28T08:14:34.999Z</time></trkpt><trkpt lat="44.627355848531245" lon="10.168882516942674"><ele>331.66666666666663</ele><time>2026-03-28T08:14:35.999Z</time></trkpt><trkpt lat="44.62720694939596" lon="10.168731606457769"><ele>332.3333333333333</ele><time>2026-03-28T08:14:36.999Z</time></trkpt><trkpt lat="44.62705084980192" lon="10.168583508842637"><ele>333.0</ele><time>2026-03-28T08:14:37.999Z</time></trkpt><trkpt lat="44.626873603532644" lon="10.16844862106428"><ele>333.0</ele><time>2026-03-28T08:14:38.999Z</time></trkpt><trkpt lat="44.62668205108081" lon="10.168344745806566"><ele>333.0</ele><time>2026-03-28T08:14:39.999Z</time></trkpt><trkpt lat="44.62648781566629" lon="10.168242343932974"><ele>333.0</ele><time>2026-03-28T08:14:40.999Z</time></trkpt><trkpt lat="44.626303855457074" lon="10.168143510485027"><ele>334.0</ele><time>2026-03-28T08:14:41.999Z</time></trkpt><trkpt lat="44.62611616319764" lon="10.168037891451538"><ele>335.0</ele><time>2026-03-28T08:14:42.999Z</time></trkpt><trkpt lat="44.62592469273041" lon="10.167935158421898"><ele>336.0</ele><time>2026-03-28T08:14:43.999Z</time></trkpt><trkpt lat="44.62573859253476" lon="10.167811240830515"><ele>336.0</ele><time>2026-03-28T08:14:44.999Z</time></trkpt><trkpt lat="44.62554217072335" lon="10.167726954374269"><ele>336.0</ele><time>2026-03-28T08:14:45.999Z</time></trkpt><trkpt lat="44.62535270384062" lon="10.167617552116434"><ele>336.0</ele><time>2026-03-28T08:14:46.999Z</time></trkpt><trkpt lat="44.62516420925825" lon="10.167515042341433"><ele>335.3333333333333</ele><time>2026-03-28T08:14:47.999Z</time></trkpt><trkpt lat="44.62498652297086" lon="10.167393115970011"><ele>334.66666666666663</ele><time>2026-03-28T08:14:48.999Z</time></trkpt><trkpt lat="44.62481476451862" lon="10.167298183257344"><ele>334.0</ele><time>2026-03-28T08:14:49.999Z</time></trkpt><trkpt lat="44.62463821514072" lon="10.167201055650498"><ele>335.0</ele><time>2026-03-28T08:14:50.999Z</time></trkpt><trkpt lat="44.62446026756101" lon="10.167105163716395"><ele>336.0</ele><time>2026-03-28T08:14:51.999Z</time></trkpt><trkpt lat="44.624298445736805" lon="10.167032701866166"><ele>337.0</ele><time>2026-03-28T08:14:53Z</time></trkpt><trkpt lat="44.62414569572701" lon="10.166975528216067"><ele>337.0</ele><time>2026-03-28T08:14:54Z</time></trkpt><trkpt lat="44.62399138847415" lon="10.166983213270553"><ele>337.0</ele><time>2026-03-28T08:14:55Z</time></trkpt><trkpt lat="44.62382309030109" lon="10.167080441429066"><ele>337.0</ele><time>2026-03-28T08:14:56Z</time></trkpt><trkpt lat="44.62365067151408" lon="10.16721900377381"><ele>337.0</ele><time>2026-03-28T08:14:57Z</time></trkpt><trkpt lat="44.62346742167347" lon="10.167269415117133"><ele>337.0</ele><time>2026-03-28T08:14:58Z</time></trkpt><trkpt lat="44.623277065646604" lon="10.16726797528189"><ele>337.0</ele><time>2026-03-28T08:14:59Z</time></trkpt><trkpt lat="44.623048925894416" lon="10.167208665760901"><ele>341.0</ele><time>2026-03-28T08:15:00Z</time></trkpt><trkpt lat="44.62280546985286" lon="10.167153884321452"><ele>345.0</ele><time>2026-03-28T08:15:01Z</time></trkpt><trkpt lat="44.62257618312178" lon="10.16709009938117"><ele>345.0</ele><time>2026-03-28T08:15:02Z</time></trkpt><trkpt lat="44.62235666011304" lon="10.16704880430367"><ele>345.0</ele><time>2026-03-28T08:15:03Z</time></trkpt><trkpt lat="44.622146512436736" lon="10.167044668080893"><ele>345.0</ele><time>2026-03-28T08:15:04Z</time></trkpt><trkpt lat="44.62192520614524" lon="10.167043839835271"><ele>347.0</ele><time>2026-03-28T08:15:05Z</time></trkpt><trkpt lat="44.6217068831215" lon="10.167019503290733"><ele>349.0</ele><time>2026-03-28T08:15:06Z</time></trkpt><trkpt lat="44.62148309236401" lon="10.166966541078066"><ele>351.0</ele><time>2026-03-28T08:15:07Z</time></trkpt><trkpt lat="44.62127145791355" lon="10.166849778773178"><ele>353.5</ele><time>2026-03-28T08:15:08Z</time></trkpt><trkpt lat="44.62106949312652" lon="10.166695853644178"><ele>356.0</ele><time>2026-03-28T08:15:09Z</time></trkpt><trkpt lat="44.62084333498257" lon="10.16653748802592"><ele>355.6666666666667</ele><time>2026-03-28T08:15:10Z</time></trkpt><trkpt lat="44.6206515502026" lon="10.166379175123915"><ele>355.3333333333333</ele><time>2026-03-28T08:15:11Z</time></trkpt><trkpt lat="44.620482510592865" lon="10.166231753376778"><ele>355.0</ele><time>2026-03-28T08:15:12Z</time></trkpt><trkpt lat="44.62029807773522" lon="10.166112882931381"><ele>355.0</ele><time>2026-03-28T08:15:13Z</time></trkpt><trkpt lat="44.62011586662894" lon="10.165965117152687"><ele>355.0</ele><time>2026-03-28T08:15:14Z</time></trkpt><trkpt lat="44.61992990309953" lon="10.165823305520568"><ele>355.0</ele><time>2026-03-28T08:15:15Z</time></trkpt><trkpt lat="44.61973997167085" lon="10.165652873821953"><ele>356.0</ele><time>2026-03-28T08:15:16Z</time></trkpt><trkpt lat="44.61954408749812" lon="10.165502144017529"><ele>357.0</ele><time>2026-03-28T08:15:17Z</time></trkpt><trkpt lat="44.619356460281104" lon="10.165384159823459"><ele>358.0</ele><time>2026-03-28T08:15:18Z</time></trkpt><trkpt lat="44.61919364204241" lon="10.165234092773552"><ele>358.0</ele><time>2026-03-28T08:15:19Z</time></trkpt><trkpt lat="44.61903991289376" lon="10.165108201253508"><ele>358.0</ele><time>2026-03-28T08:15:20Z</time></trkpt><trkpt lat="44.61893666391151" lon="10.164959767770222"><ele>358.0</ele><time>2026-03-28T08:15:21Z</time></trkpt><trkpt lat="44.61886241270499" lon="10.164776775479318"><ele>356.0</ele><time>2026-03-28T08:15:22Z</time></trkpt><trkpt lat="44.618832180636765" lon="10.164547799335562"><ele>354.0</ele><time>2026-03-28T08:15:23Z</time></trkpt><trkpt lat="44.61883714986372" lon="10.164274855984784"><ele>352.0</ele><time>2026-03-28T08:15:24Z</time></trkpt><trkpt lat="44.61884575024233" lon="10.163959714007117"><ele>351.5</ele><time>2026-03-28T08:15:25Z</time></trkpt><trkpt lat="44.618863798937895" lon="10.163633077617305"><ele>351.0</ele><time>2026-03-28T08:15:26Z</time></trkpt><trkpt lat="44.61890537244397" lon="10.163299326791975"><ele>351.0</ele><time>2026-03-28T08:15:27Z</time></trkpt><trkpt lat="44.61896279597252" lon="10.162999972447233"><ele>351.0</ele><time>2026-03-28T08:15:28Z</time></trkpt><trkpt lat="44.61901285340246" lon="10.16272777433925"><ele>351.0</ele><time>2026-03-28T08:15:29Z</time></trkpt><trkpt lat="44.619043426874754" lon="10.162488325648583"><ele>349.3333333333333</ele><time>2026-03-28T08:15:30Z</time></trkpt><trkpt lat="44.61900906968489" lon="10.162226749520833"><ele>347.66666666666663</ele><time>2026-03-28T08:15:31Z</time></trkpt><trkpt lat="44.618919888787964" lon="10.16194552634795"><ele>346.0</ele><time>2026-03-28T08:15:32Z</time></trkpt><trkpt lat="44.618820812946666" lon="10.161636421961175"><ele>343.66666666666663</ele><time>2026-03-28T08:15:33Z</time></trkpt><trkpt lat="44.61876544129156" lon="10.161315277615468"><ele>341.3333333333333</ele><time>2026-03-28T08:15:34Z</time></trkpt><trkpt lat="44.618747785043844" lon="10.161081941006746"><ele>339.0</ele><time>2026-03-28T08:15:35Z</time></trkpt><trkpt lat="44.61869585650883" lon="10.160857776751199"><ele>338.0</ele><time>2026-03-28T08:15:36Z</time></trkpt><trkpt lat="44.61866919012152" lon="10.160509109337399"><ele>337.0</ele><time>2026-03-28T08:15:37Z</time></trkpt><trkpt lat="44.61847223324775" lon="10.160387731755039"><ele>342.0</ele><time>2026-03-28T08:15:38Z</time></trkpt><trkpt lat="44.61831047118332" lon="10.160295409610436"><ele>347.0</ele><time>2026-03-28T08:15:39Z</time></trkpt><trkpt lat="44.61812634562247" lon="10.160255161715313"><ele>352.0</ele><time>2026-03-28T08:15:40Z</time></trkpt><trkpt lat="44.61798001764135" lon="10.160189577675528"><ele>352.0</ele><time>2026-03-28T08:15:41Z</time></trkpt><trkpt lat="44.617918083158166" lon="10.159983137339475"><ele>352.0</ele><time>2026-03-28T08:15:42Z</time></trkpt><trkpt lat="44.61787247347546" lon="10.15977043490158"><ele>352.0</ele><time>2026-03-28T08:15:43Z</time></trkpt><trkpt lat="44.61789792838116" lon="10.159531740685395"><ele>352.0</ele><time>2026-03-28T08:15:44Z</time></trkpt><trkpt lat="44.61795264392331" lon="10.159254900594878"><ele>352.0</ele><time>2026-03-28T08:15:45Z</time></trkpt><trkpt lat="44.61801313411592" lon="10.158936453812547"><ele>352.0</ele><time>2026-03-28T08:15:46Z</time></trkpt><trkpt lat="44.61807436955998" lon="10.15864897568367"><ele>352.0</ele><time>2026-03-28T08:15:47Z</time></trkpt><trkpt lat="44.61810081658877" lon="10.158399542344304"><ele>352.0</ele><time>2026-03-28T08:15:48Z</time></trkpt><trkpt lat="44.61808101461971" lon="10.158125849120342"><ele>352.0</ele><time>2026-03-28T08:15:49Z</time></trkpt><trkpt lat="44.61801040793492" lon="10.157824807363497"><ele>352.0</ele><time>2026-03-28T08:15:50Z</time></trkpt><trkpt lat="44.61790243254005" lon="10.157543002772034"><ele>352.0</ele><time>2026-03-28T08:15:51Z</time></trkpt><trkpt lat="44.61775731919551" lon="10.157326097387527"><ele>352.0</ele><time>2026-03-28T08:15:52Z</time></trkpt><trkpt lat="44.61756636661462" lon="10.157124386091542"><ele>352.0</ele><time>2026-03-28T08:15:53Z</time></trkpt><trkpt lat="44.61741354923983" lon="10.156883118351836"><ele>352.0</ele><time>2026-03-28T08:15:54Z</time></trkpt><trkpt lat="44.617269230151166" lon="10.1566868981101"><ele>352.0</ele><time>2026-03-28T08:15:55Z</time></trkpt><trkpt lat="44.617128041628895" lon="10.15653753946903"><ele>354.0</ele><time>2026-03-28T08:15:56Z</time></trkpt><trkpt lat="44.6170078986753" lon="10.15639941794779"><ele>356.0</ele><time>2026-03-28T08:15:57Z</time></trkpt><trkpt lat="44.61687994178396" lon="10.156297990161088"><ele>358.0</ele><time>2026-03-28T08:15:58Z</time></trkpt><trkpt lat="44.61672629412242" lon="10.156199937743173"><ele>358.0</ele><time>2026-03-28T08:15:59Z</time></trkpt><trkpt lat="44.616584753477134" lon="10.156099954814708"><ele>358.0</ele><time>2026-03-28T08:16:00Z</time></trkpt><trkpt lat="44.616477972656135" lon="10.156007257262411"><ele>358.0</ele><time>2026-03-28T08:16:01Z</time></trkpt><trkpt lat="44.6163770956745" lon="10.155905207729472"><ele>358.0</ele><time>2026-03-28T08:16:02Z</time></trkpt><trkpt lat="44.616273925923636" lon="10.155793500117918"><ele>358.25</ele><time>2026-03-28T08:16:03Z</time></trkpt><trkpt lat="44.616164243360636" lon="10.15568137578877"><ele>358.5</ele><time>2026-03-28T08:16:04Z</time></trkpt><trkpt lat="44.616061394073874" lon="10.155570971097342"><ele>358.75</ele><time>2026-03-28T08:16:05Z</time></trkpt><trkpt lat="44.615985224660584" lon="10.155433165410475"><ele>359.0</ele><time>2026-03-28T08:16:06Z</time></trkpt><trkpt lat="44.61591519004991" lon="10.155284169498564"><ele>359.0</ele><time>2026-03-28T08:16:07Z</time></trkpt><trkpt lat="44.615848877207895" lon="10.15513478792369"><ele>359.0</ele><time>2026-03-28T08:16:08Z</time></trkpt><trkpt lat="44.615782585086016" lon="10.15499603543285"><ele>359.0</ele><time>2026-03-28T08:16:09Z</time></trkpt><trkpt lat="44.61573494492626" lon="10.154837685523049"><ele>359.0</ele><time>2026-03-28T08:16:10Z</time></trkpt><trkpt lat="44.61572868570663" lon="10.154622928412397"><ele>360.6666666666667</ele><time>2026-03-28T08:16:11Z</time></trkpt><trkpt lat="44.61571911927873" lon="10.154383370390716"><ele>362.3333333333333</ele><time>2026-03-28T08:16:12Z</time></trkpt><trkpt lat="44.61570409105911" lon="10.154154304575142"><ele>364.0</ele><time>2026-03-28T08:16:13Z</time></trkpt><trkpt lat="44.61570703581883" lon="10.153924707023497"><ele>364.0</ele><time>2026-03-28T08:16:14Z</time></trkpt><trkpt lat="44.61569094835203" lon="10.153719632194457"><ele>364.0</ele><time>2026-03-28T08:16:15Z</time></trkpt><trkpt lat="44.61567442993945" lon="10.153541272978126"><ele>364.0</ele><time>2026-03-28T08:16:16Z</time></trkpt><trkpt lat="44.615666628634536" lon="10.1533888104238"><ele>364.0</ele><time>2026-03-28T08:16:17Z</time></trkpt><trkpt lat="44.61566345137459" lon="10.153225504526574"><ele>363.75</ele><time>2026-03-28T08:16:18Z</time></trkpt><trkpt lat="44.61565962118503" lon="10.153051746562452"><ele>363.5</ele><time>2026-03-28T08:16:19Z</time></trkpt><trkpt lat="44.615652899551215" lon="10.152887622051269"><ele>363.25</ele><time>2026-03-28T08:16:20Z</time></trkpt><trkpt lat="44.615647562695266" lon="10.152706775224667"><ele>363.0</ele><time>2026-03-28T08:16:21Z</time></trkpt><trkpt lat="44.615656167285664" lon="10.15249634264962"><ele>363.3333333333333</ele><time>2026-03-28T08:16:22Z</time></trkpt><trkpt lat="44.61569431579725" lon="10.152271019253645"><ele>363.66666666666663</ele><time>2026-03-28T08:16:23Z</time></trkpt><trkpt lat="44.615745773701306" lon="10.152048714035827"><ele>364.0</ele><time>2026-03-28T08:16:24Z</time></trkpt><trkpt lat="44.61576844502681" lon="10.151824602577154"><ele>364.0</ele><time>2026-03-28T08:16:25Z</time></trkpt><trkpt lat="44.61575296566518" lon="10.151599821033853"><ele>364.0</ele><time>2026-03-28T08:16:26Z</time></trkpt><trkpt lat="44.615717903777735" lon="10.151359040187305"><ele>364.0</ele><time>2026-03-28T08:16:27Z</time></trkpt><trkpt lat="44.615654926250365" lon="10.15110489190051"><ele>364.25</ele><time>2026-03-28T08:16:28Z</time></trkpt><trkpt lat="44.61559124719257" lon="10.15092040801858"><ele>364.5</ele><time>2026-03-28T08:16:29Z</time></trkpt><trkpt lat="44.615540741833854" lon="10.150769476227351"><ele>364.75</ele><time>2026-03-28T08:16:30Z</time></trkpt><trkpt lat="44.615501859698085" lon="10.150620567458533"><ele>365.0</ele><time>2026-03-28T08:16:31Z</time></trkpt><trkpt lat="44.615489912670185" lon="10.150458575547933"><ele>365.0</ele><time>2026-03-28T08:16:32Z</time></trkpt><trkpt lat="44.61549634495209" lon="10.150233665423748"><ele>365.0</ele><time>2026-03-28T08:16:33Z</time></trkpt><trkpt lat="44.6155166481663" lon="10.149952567015598"><ele>365.0</ele><time>2026-03-28T08:16:34Z</time></trkpt><trkpt lat="44.61554020808576" lon="10.1496206721885"><ele>367.33333333333337</ele><time>2026-03-28T08:16:35Z</time></trkpt><trkpt lat="44.61554934632688" lon="10.149303794802178"><ele>369.6666666666667</ele><time>2026-03-28T08:16:36Z</time></trkpt><trkpt lat="44.61562392702563" lon="10.14905139390229"><ele>372.0</ele><time>2026-03-28T08:16:37Z</time></trkpt><trkpt lat="44.61573759600204" lon="10.148786603752743"><ele>378.0</ele><time>2026-03-28T08:16:38Z</time></trkpt><trkpt lat="44.61588588585754" lon="10.148500654547828"><ele>384.0</ele><time>2026-03-28T08:16:39Z</time></trkpt><trkpt lat="44.61599702315913" lon="10.14825515451691"><ele>386.33333333333337</ele><time>2026-03-28T08:16:40Z</time></trkpt><trkpt lat="44.61607922234014" lon="10.148022106523163"><ele>388.6666666666667</ele><time>2026-03-28T08:16:40.999Z</time></trkpt><trkpt lat="44.61610042398998" lon="10.147753638511057"><ele>391.0</ele><time>2026-03-28T08:16:41.999Z</time></trkpt><trkpt lat="44.616067714992006" lon="10.147447645159893"><ele>392.5</ele><time>2026-03-28T08:16:42.999Z</time></trkpt><trkpt lat="44.61600781133786" lon="10.147118153444069"><ele>394.0</ele><time>2026-03-28T08:16:43.999Z</time></trkpt><trkpt lat="44.61602673502437" lon="10.146764352671815"><ele>397.0</ele><time>2026-03-28T08:16:44.999Z</time></trkpt><trkpt lat="44.616043965672844" lon="10.146370740893891"><ele>400.0</ele><time>2026-03-28T08:16:45.999Z</time></trkpt><trkpt lat="44.61606688050098" lon="10.145950120898494"><ele>400.5</ele><time>2026-03-28T08:16:46.999Z</time></trkpt><trkpt lat="44.61611074482316" lon="10.145551541754898"><ele>401.0</ele><time>2026-03-28T08:16:47.999Z</time></trkpt><trkpt lat="44.61615672510758" lon="10.145212324532014"><ele>388.3333333333333</ele><time>2026-03-28T08:16:48.999Z</time></trkpt><trkpt lat="44.616192863237934" lon="10.144883347492497"><ele>375.66666666666663</ele><time>2026-03-28T08:16:49.999Z</time></trkpt><trkpt lat="44.61621754600559" lon="10.1446070748385"><ele>363.0</ele><time>2026-03-28T08:16:50.999Z</time></trkpt><trkpt lat="44.61623733116329" lon="10.144367430640221"><ele>363.0</ele><time>2026-03-28T08:16:51.999Z</time></trkpt><trkpt lat="44.61625278354698" lon="10.144133135758892"><ele>363.0</ele><time>2026-03-28T08:16:52.999Z</time></trkpt><trkpt lat="44.61625221676742" lon="10.143929993532657"><ele>363.0</ele><time>2026-03-28T08:16:53.999Z</time></trkpt><trkpt lat="44.616211483689916" lon="10.143743752385184"><ele>367.5</ele><time>2026-03-28T08:16:54.999Z</time></trkpt><trkpt lat="44.61613787296525" lon="10.143587256326777"><ele>372.0</ele><time>2026-03-28T08:16:55.999Z</time></trkpt><trkpt lat="44.61607014826827" lon="10.143457187263946"><ele>376.5</ele><time>2026-03-28T08:16:56.999Z</time></trkpt><trkpt lat="44.61598096846232" lon="10.143308946726725"><ele>381.0</ele><time>2026-03-28T08:16:57.999Z</time></trkpt><trkpt lat="44.615892741059184" lon="10.143162289337715"><ele>381.0</ele><time>2026-03-28T08:16:59Z</time></trkpt><trkpt lat="44.615816454784536" lon="10.143033473065891"><ele>381.0</ele><time>2026-03-28T08:17:00Z</time></trkpt><trkpt lat="44.61574080131252" lon="10.142866073609712"><ele>381.0</ele><time>2026-03-28T08:17:01Z</time></trkpt><trkpt lat="44.61570191946009" lon="10.142695705484575"><ele>381.0</ele><time>2026-03-28T08:17:02Z</time></trkpt><trkpt lat="44.61569517904532" lon="10.142554763987496"><ele>381.0</ele><time>2026-03-28T08:17:03Z</time></trkpt><trkpt lat="44.61568442217172" lon="10.142413496459342"><ele>381.0</ele><time>2026-03-28T08:17:04Z</time></trkpt><trkpt lat="44.61569363461965" lon="10.14225159911995"><ele>381.0</ele><time>2026-03-28T08:17:05Z</time></trkpt><trkpt lat="44.615702868696665" lon="10.142094680759502"><ele>381.0</ele><time>2026-03-28T08:17:06Z</time></trkpt><trkpt lat="44.615707454780605" lon="10.141939127770948"><ele>381.0</ele><time>2026-03-28T08:17:07Z</time></trkpt><trkpt lat="44.61571835760461" lon="10.141772198528988"><ele>381.5</ele><time>2026-03-28T08:17:08Z</time></trkpt><trkpt lat="44.615724974536896" lon="10.1415973961716"><ele>382.0</ele><time>2026-03-28T08:17:09Z</time></trkpt><trkpt lat="44.615706175041616" lon="10.141422785160346"><ele>382.5</ele><time>2026-03-28T08:17:10Z</time></trkpt><trkpt lat="44.615653832009194" lon="10.141251054189627"><ele>383.0</ele><time>2026-03-28T08:17:11Z</time></trkpt><trkpt lat="44.61559847117989" lon="10.141106652982616"><ele>380.25</ele><time>2026-03-28T08:17:12Z</time></trkpt><trkpt lat="44.61554985430056" lon="10.140952962751678"><ele>377.5</ele><time>2026-03-28T08:17:13Z</time></trkpt><trkpt lat="44.61550169405475" lon="10.140803061907981"><ele>374.75</ele><time>2026-03-28T08:17:14Z</time></trkpt><trkpt lat="44.61546313333237" lon="10.14068022203894"><ele>372.0</ele><time>2026-03-28T08:17:15Z</time></trkpt><trkpt lat="44.615405073281934" lon="10.140463254613998"><ele>369.6666666666667</ele><time>2026-03-28T08:17:16Z</time></trkpt><trkpt lat="44.615327002887355" lon="10.140253514861216"><ele>367.33333333333337</ele><time>2026-03-28T08:17:17Z</time></trkpt><trkpt lat="44.615252623166896" lon="10.139989338704206"><ele>365.0</ele><time>2026-03-28T08:17:18Z</time></trkpt><trkpt lat="44.6151700080581" lon="10.139720723108848"><ele>375.0</ele><time>2026-03-28T08:17:19Z</time></trkpt><trkpt lat="44.61502732401155" lon="10.139431918650311"><ele>385.0</ele><time>2026-03-28T08:17:20Z</time></trkpt><trkpt lat="44.614869069247106" lon="10.139109298201799"><ele>377.5</ele><time>2026-03-28T08:17:21Z</time></trkpt><trkpt lat="44.614722734193585" lon="10.138764416598805"><ele>370.0</ele><time>2026-03-28T08:17:22Z</time></trkpt><trkpt lat="44.61457257437401" lon="10.138405591948295"><ele>381.0</ele><time>2026-03-28T08:17:23Z</time></trkpt><trkpt lat="44.61442859423533" lon="10.138053556089062"><ele>392.0</ele><time>2026-03-28T08:17:24Z</time></trkpt><trkpt lat="44.61430022663698" lon="10.137721018053293"><ele>392.0</ele><time>2026-03-28T08:17:25Z</time></trkpt><trkpt lat="44.61419152747619" lon="10.137424550641992"><ele>392.0</ele><time>2026-03-28T08:17:26Z</time></trkpt><trkpt lat="44.614070958487154" lon="10.137140375176957"><ele>382.0</ele><time>2026-03-28T08:17:27Z</time></trkpt><trkpt lat="44.61390200032455" lon="10.136849481687388"><ele>372.0</ele><time>2026-03-28T08:17:28Z</time></trkpt><trkpt lat="44.613718135543806" lon="10.136563181177191"><ele>379.0</ele><time>2026-03-28T08:17:29Z</time></trkpt><trkpt lat="44.61356459879145" lon="10.13628408926329"><ele>386.0</ele><time>2026-03-28T08:17:30Z</time></trkpt><trkpt lat="44.613445747604466" lon="10.13607106914199"><ele>393.0</ele><time>2026-03-28T08:17:31Z</time></trkpt><trkpt lat="44.61336248532566" lon="10.135908109857317"><ele>393.0</ele><time>2026-03-28T08:17:32Z</time></trkpt><trkpt lat="44.61330024055817" lon="10.13575279929256"><ele>393.0</ele><time>2026-03-28T08:17:33Z</time></trkpt><trkpt lat="44.61323767718081" lon="10.135618891998536"><ele>393.0</ele><time>2026-03-28T08:17:34Z</time></trkpt><trkpt lat="44.61319748985965" lon="10.13548683245218"><ele>393.0</ele><time>2026-03-28T08:17:35Z</time></trkpt><trkpt lat="44.61314891273235" lon="10.135358677144884"><ele>393.0</ele><time>2026-03-28T08:17:36Z</time></trkpt><trkpt lat="44.61307592875865" lon="10.135225735688675"><ele>394.0</ele><time>2026-03-28T08:17:37Z</time></trkpt><trkpt lat="44.612949621227585" lon="10.135140002820888"><ele>395.0</ele><time>2026-03-28T08:17:38Z</time></trkpt><trkpt lat="44.61278276341069" lon="10.134985264144367"><ele>396.0</ele><time>2026-03-28T08:17:39Z</time></trkpt><trkpt lat="44.612553427648905" lon="10.13482010167537"><ele>386.5</ele><time>2026-03-28T08:17:40Z</time></trkpt><trkpt lat="44.612327581021304" lon="10.13465726340764"><ele>377.0</ele><time>2026-03-28T08:17:41Z</time></trkpt><trkpt lat="44.61209817115376" lon="10.134492136257037"><ele>379.0</ele><time>2026-03-28T08:17:42Z</time></trkpt><trkpt lat="44.6118966913121" lon="10.134342558978185"><ele>381.0</ele><time>2026-03-28T08:17:43Z</time></trkpt><trkpt lat="44.611736913959795" lon="10.134178858919269"><ele>383.0</ele><time>2026-03-28T08:17:44Z</time></trkpt><trkpt lat="44.61159396020645" lon="10.133924678279614"><ele>383.0</ele><time>2026-03-28T08:17:45Z</time></trkpt><trkpt lat="44.611434287672985" lon="10.133631642410592"><ele>383.0</ele><time>2026-03-28T08:17:46Z</time></trkpt><trkpt lat="44.61126401558395" lon="10.133307375992558"><ele>389.5</ele><time>2026-03-28T08:17:47Z</time></trkpt><trkpt lat="44.61111653244314" lon="10.132985723685538"><ele>396.0</ele><time>2026-03-28T08:17:48Z</time></trkpt><trkpt lat="44.6109876195586" lon="10.132701940580741"><ele>396.0</ele><time>2026-03-28T08:17:49Z</time></trkpt><trkpt lat="44.61086711293547" lon="10.13244942711421"><ele>396.0</ele><time>2026-03-28T08:17:50Z</time></trkpt><trkpt lat="44.61078534636587" lon="10.132256752193166"><ele>396.0</ele><time>2026-03-28T08:17:51Z</time></trkpt><trkpt lat="44.61073959981257" lon="10.132043342857235"><ele>396.0</ele><time>2026-03-28T08:17:52Z</time></trkpt><trkpt lat="44.61075951662936" lon="10.131787666771544"><ele>396.0</ele><time>2026-03-28T08:17:53Z</time></trkpt><trkpt lat="44.61076376950503" lon="10.13153199801158"><ele>396.0</ele><time>2026-03-28T08:17:54Z</time></trkpt><trkpt lat="44.61076045431866" lon="10.131338723042678"><ele>392.5</ele><time>2026-03-28T08:17:55Z</time></trkpt><trkpt lat="44.61070456942495" lon="10.13119791853363"><ele>389.0</ele><time>2026-03-28T08:17:56Z</time></trkpt><trkpt lat="44.61061883629474" lon="10.131070909651669"><ele>385.5</ele><time>2026-03-28T08:17:57Z</time></trkpt><trkpt lat="44.610536734742915" lon="10.13089382112347"><ele>382.0</ele><time>2026-03-28T08:17:58Z</time></trkpt><trkpt lat="44.61040480926782" lon="10.130672443075383"><ele>392.0</ele><time>2026-03-28T08:17:59Z</time></trkpt><trkpt lat="44.61023973795175" lon="10.130410003770967"><ele>402.0</ele><time>2026-03-28T08:18:00Z</time></trkpt><trkpt lat="44.61008366032928" lon="10.130141370401832"><ele>390.0</ele><time>2026-03-28T08:18:01Z</time></trkpt><trkpt lat="44.609913918090896" lon="10.129864509121441"><ele>378.0</ele><time>2026-03-28T08:18:02Z</time></trkpt><trkpt lat="44.60972193465903" lon="10.129554477576436"><ele>378.0</ele><time>2026-03-28T08:18:03Z</time></trkpt><trkpt lat="44.60945908405606" lon="10.129347426015187"><ele>378.0</ele><time>2026-03-28T08:18:04Z</time></trkpt><trkpt lat="44.609510798025575" lon="10.12923559471015"><ele>378.0</ele><time>2026-03-28T08:18:05Z</time></trkpt><trkpt lat="44.609380571256665" lon="10.129119506938208"><ele>383.33333333333337</ele><time>2026-03-28T08:18:06Z</time></trkpt><trkpt lat="44.60921429718431" lon="10.129074612171994"><ele>388.6666666666667</ele><time>2026-03-28T08:18:07Z</time></trkpt><trkpt lat="44.60900201152436" lon="10.129104216855943"><ele>394.0</ele><time>2026-03-28T08:18:08Z</time></trkpt><trkpt lat="44.60878508484946" lon="10.12922503852974"><ele>393.33333333333337</ele><time>2026-03-28T08:18:09Z</time></trkpt><trkpt lat="44.6085790585011" lon="10.129309252676357"><ele>392.66666666666663</ele><time>2026-03-28T08:18:10Z</time></trkpt><trkpt lat="44.608346170822806" lon="10.129290691935777"><ele>392.0</ele><time>2026-03-28T08:18:11Z</time></trkpt><trkpt lat="44.60812629133012" lon="10.129253024401244"><ele>392.0</ele><time>2026-03-28T08:18:12Z</time></trkpt><trkpt lat="44.60794517094692" lon="10.129198261646835"><ele>392.0</ele><time>2026-03-28T08:18:13Z</time></trkpt><trkpt lat="44.60779928050591" lon="10.129053949017358"><ele>392.0</ele><time>2026-03-28T08:18:14Z</time></trkpt><trkpt lat="44.60767941491986" lon="10.128809847277326"><ele>390.3333333333333</ele><time>2026-03-28T08:18:15Z</time></trkpt><trkpt lat="44.60758176694748" lon="10.128567710172002"><ele>388.66666666666663</ele><time>2026-03-28T08:18:16Z</time></trkpt><trkpt lat="44.60747692991658" lon="10.128382983171528"><ele>387.0</ele><time>2026-03-28T08:18:17Z</time></trkpt><trkpt lat="44.607293668943925" lon="10.128253638603018"><ele>388.66666666666663</ele><time>2026-03-28T08:18:18Z</time></trkpt><trkpt lat="44.60706249684188" lon="10.128170728556608"><ele>390.3333333333333</ele><time>2026-03-28T08:18:19Z</time></trkpt><trkpt lat="44.60687925062989" lon="10.128088505765547"><ele>392.0</ele><time>2026-03-28T08:18:20Z</time></trkpt><trkpt lat="44.60674232676868" lon="10.127942438466805"><ele>392.0</ele><time>2026-03-28T08:18:21Z</time></trkpt><trkpt lat="44.606649984573814" lon="10.127708353110108"><ele>392.0</ele><time>2026-03-28T08:18:22Z</time></trkpt><trkpt lat="44.60658657468809" lon="10.12738406627386"><ele>392.0</ele><time>2026-03-28T08:18:23Z</time></trkpt><trkpt lat="44.60650986395841" lon="10.127068141921878"><ele>390.3333333333333</ele><time>2026-03-28T08:18:24Z</time></trkpt><trkpt lat="44.60642305110377" lon="10.126811630333364"><ele>388.66666666666663</ele><time>2026-03-28T08:18:25Z</time></trkpt><trkpt lat="44.606301467815506" lon="10.126597783106755"><ele>387.0</ele><time>2026-03-28T08:18:26Z</time></trkpt><trkpt lat="44.60613049396593" lon="10.126408135433868"><ele>386.5</ele><time>2026-03-28T08:18:27Z</time></trkpt><trkpt lat="44.60593806216522" lon="10.126237713337257"><ele>386.0</ele><time>2026-03-28T08:18:28Z</time></trkpt><trkpt lat="44.60573631370975" lon="10.126079916676431"><ele>386.0</ele><time>2026-03-28T08:18:29Z</time></trkpt><trkpt lat="44.605539998645575" lon="10.125929007688644"><ele>386.0</ele><time>2026-03-28T08:18:30Z</time></trkpt><trkpt lat="44.60535190264737" lon="10.12576401768358"><ele>386.0</ele><time>2026-03-28T08:18:31Z</time></trkpt><trkpt lat="44.60516856401458" lon="10.125606604863213"><ele>386.66666666666663</ele><time>2026-03-28T08:18:32Z</time></trkpt><trkpt lat="44.604996693332886" lon="10.125456479012849"><ele>387.33333333333337</ele><time>2026-03-28T08:18:33Z</time></trkpt><trkpt lat="44.604834208686796" lon="10.125307098735519"><ele>388.0</ele><time>2026-03-28T08:18:34Z</time></trkpt><trkpt lat="44.60467326645314" lon="10.125178762594409"><ele>388.0</ele><time>2026-03-28T08:18:35Z</time></trkpt><trkpt lat="44.60453587221991" lon="10.125054351814986"><ele>388.0</ele><time>2026-03-28T08:18:36Z</time></trkpt><trkpt lat="44.60440933816754" lon="10.124942577284827"><ele>388.0</ele><time>2026-03-28T08:18:37Z</time></trkpt><trkpt lat="44.60429016971367" lon="10.124837185488243"><ele>389.0</ele><time>2026-03-28T08:18:38Z</time></trkpt><trkpt lat="44.60419203458972" lon="10.124751218883544"><ele>390.0</ele><time>2026-03-28T08:18:39Z</time></trkpt><trkpt lat="44.6041169242884" lon="10.12468984758214"><ele>391.0</ele><time>2026-03-28T08:18:40Z</time></trkpt><trkpt lat="44.60405109246249" lon="10.124672648476787"><ele>392.0</ele><time>2026-03-28T08:18:41Z</time></trkpt><trkpt lat="44.603970029037306" lon="10.12480353234617"><ele>393.0</ele><time>2026-03-28T08:18:43Z</time></trkpt><trkpt lat="44.60394218404006" lon="10.124910026825503"><ele>394.33333333333337</ele><time>2026-03-28T08:18:44Z</time></trkpt><trkpt lat="44.603869738776844" lon="10.125043559088647"><ele>395.6666666666667</ele><time>2026-03-28T08:18:45Z</time></trkpt><trkpt lat="44.60375286997273" lon="10.125187157128174"><ele>397.0</ele><time>2026-03-28T08:18:46Z</time></trkpt><trkpt lat="44.60359770942914" lon="10.12534437744187"><ele>398.0</ele><time>2026-03-28T08:18:47Z</time></trkpt><trkpt lat="44.60342032073834" lon="10.125492555813569"><ele>399.0</ele><time>2026-03-28T08:18:47.999Z</time></trkpt><trkpt lat="44.603238285040696" lon="10.125595059020052"><ele>400.0</ele><time>2026-03-28T08:18:48.999Z</time></trkpt><trkpt lat="44.60309634497173" lon="10.125642397631875"><ele>402.0</ele><time>2026-03-28T08:18:49.999Z</time></trkpt><trkpt lat="44.6029753772459" lon="10.12573328862885"><ele>404.0</ele><time>2026-03-28T08:18:50.999Z</time></trkpt><trkpt lat="44.60285651541701" lon="10.125919944278115"><ele>406.0</ele><time>2026-03-28T08:18:51.999Z</time></trkpt><trkpt lat="44.60274891681973" lon="10.126180122723879"><ele>406.0</ele><time>2026-03-28T08:18:52.999Z</time></trkpt><trkpt lat="44.60262861293403" lon="10.1264811802403"><ele>406.0</ele><time>2026-03-28T08:18:53.999Z</time></trkpt><trkpt lat="44.60249449973501" lon="10.126762760361837"><ele>411.5</ele><time>2026-03-28T08:18:54.999Z</time></trkpt><trkpt lat="44.602344085720596" lon="10.127025109714937"><ele>417.0</ele><time>2026-03-28T08:18:55.999Z</time></trkpt><trkpt lat="44.60216157472213" lon="10.127307542257869"><ele>420.0</ele><time>2026-03-28T08:18:56.999Z</time></trkpt><trkpt lat="44.60196543668426" lon="10.127561951242168"><ele>423.0</ele><time>2026-03-28T08:18:57.999Z</time></trkpt><trkpt lat="44.60178597079064" lon="10.127767357228517"><ele>423.0</ele><time>2026-03-28T08:18:58.999Z</time></trkpt><trkpt lat="44.601634142538444" lon="10.127950215202766"><ele>423.0</ele><time>2026-03-28T08:18:59.999Z</time></trkpt><trkpt lat="44.601482353237245" lon="10.12817506637628"><ele>423.0</ele><time>2026-03-28T08:19:00.999Z</time></trkpt><trkpt lat="44.601350174661185" lon="10.128436792769538"><ele>424.0</ele><time>2026-03-28T08:19:01.999Z</time></trkpt><trkpt lat="44.60122702785706" lon="10.128712682691951"><ele>425.0</ele><time>2026-03-28T08:19:02.999Z</time></trkpt><trkpt lat="44.60111072702423" lon="10.128938770450572"><ele>426.0</ele><time>2026-03-28T08:19:03.999Z</time></trkpt><trkpt lat="44.6009979597262" lon="10.129151244343086"><ele>430.66666666666663</ele><time>2026-03-28T08:19:05Z</time></trkpt><trkpt lat="44.60092339107574" lon="10.1293768017371"><ele>435.3333333333333</ele><time>2026-03-28T08:19:06Z</time></trkpt><trkpt lat="44.600863670026506" lon="10.129686018995727"><ele>440.0</ele><time>2026-03-28T08:19:07Z</time></trkpt><trkpt lat="44.60082367906622" lon="10.130004521317467"><ele>444.0</ele><time>2026-03-28T08:19:08Z</time></trkpt><trkpt lat="44.6007734281421" lon="10.13031978623854"><ele>448.0</ele><time>2026-03-28T08:19:09Z</time></trkpt><trkpt lat="44.60071462601294" lon="10.130613378225215"><ele>452.0</ele><time>2026-03-28T08:19:10Z</time></trkpt><trkpt lat="44.60063950842313" lon="10.13081698378763"><ele>454.25</ele><time>2026-03-28T08:19:11Z</time></trkpt><trkpt lat="44.60057775176122" lon="10.130963265766153"><ele>456.5</ele><time>2026-03-28T08:19:12Z</time></trkpt><trkpt lat="44.6005003283389" lon="10.131068297235194"><ele>458.75</ele><time>2026-03-28T08:19:13Z</time></trkpt><trkpt lat="44.6004041718608" lon="10.131168018930625"><ele>461.0</ele><time>2026-03-28T08:19:14Z</time></trkpt><trkpt lat="44.600268823549534" lon="10.131294951066614"><ele>461.0</ele><time>2026-03-28T08:19:15Z</time></trkpt><trkpt lat="44.60009361388728" lon="10.13145243286755"><ele>461.0</ele><time>2026-03-28T08:19:16Z</time></trkpt><trkpt lat="44.599913537681246" lon="10.131621102327092"><ele>461.0</ele><time>2026-03-28T08:19:17Z</time></trkpt><trkpt lat="44.59973098558393" lon="10.13179398459152"><ele>465.5</ele><time>2026-03-28T08:19:18Z</time></trkpt><trkpt lat="44.59953349726658" lon="10.131976023087535"><ele>470.0</ele><time>2026-03-28T08:19:19Z</time></trkpt><trkpt lat="44.59930701907238" lon="10.132113178810853"><ele>470.0</ele><time>2026-03-28T08:19:20Z</time></trkpt><trkpt lat="44.59906974036045" lon="10.132235385143735"><ele>470.0</ele><time>2026-03-28T08:19:21Z</time></trkpt><trkpt lat="44.59883019119705" lon="10.132375447147954"><ele>477.0</ele><time>2026-03-28T08:19:22Z</time></trkpt><trkpt lat="44.5985773499067" lon="10.132492544873944"><ele>484.0</ele><time>2026-03-28T08:19:23Z</time></trkpt><trkpt lat="44.598342802794335" lon="10.132612589226868"><ele>484.0</ele><time>2026-03-28T08:19:24Z</time></trkpt><trkpt lat="44.59811730471393" lon="10.132729633473367"><ele>484.0</ele><time>2026-03-28T08:19:25Z</time></trkpt><trkpt lat="44.59789907733845" lon="10.132847922433013"><ele>484.0</ele><time>2026-03-28T08:19:26Z</time></trkpt><trkpt lat="44.59770763647034" lon="10.132943112012416"><ele>484.0</ele><time>2026-03-28T08:19:27Z</time></trkpt><trkpt lat="44.59752441076776" lon="10.133028085546771"><ele>484.0</ele><time>2026-03-28T08:19:28Z</time></trkpt><trkpt lat="44.59734494104725" lon="10.133111297405675"><ele>484.0</ele><time>2026-03-28T08:19:29Z</time></trkpt><trkpt lat="44.59717950028196" lon="10.133198757085758"><ele>484.0</ele><time>2026-03-28T08:19:30Z</time></trkpt><trkpt lat="44.5970347550227" lon="10.133315254204925"><ele>484.0</ele><time>2026-03-28T08:19:31Z</time></trkpt><trkpt lat="44.596903277977454" lon="10.133499779222053"><ele>487.0</ele><time>2026-03-28T08:19:32Z</time></trkpt><trkpt lat="44.59678354257366" lon="10.133744771113829"><ele>490.0</ele><time>2026-03-28T08:19:33Z</time></trkpt><trkpt lat="44.596680949526444" lon="10.134003055922898"><ele>493.0</ele><time>2026-03-28T08:19:34Z</time></trkpt><trkpt lat="44.59655965846867" lon="10.13420218622005"><ele>496.6666666666667</ele><time>2026-03-28T08:19:35Z</time></trkpt><trkpt lat="44.5964217984783" lon="10.134315143605582"><ele>500.33333333333337</ele><time>2026-03-28T08:19:36Z</time></trkpt><trkpt lat="44.59626024404359" lon="10.134401574083483"><ele>504.0</ele><time>2026-03-28T08:19:37Z</time></trkpt><trkpt lat="44.596082147701544" lon="10.134506751109631"><ele>504.0</ele><time>2026-03-28T08:19:38Z</time></trkpt><trkpt lat="44.59590685819737" lon="10.134621289783295"><ele>504.0</ele><time>2026-03-28T08:19:39Z</time></trkpt><trkpt lat="44.595736800346444" lon="10.134791115554417"><ele>504.0</ele><time>2026-03-28T08:19:40Z</time></trkpt><trkpt lat="44.5955627798987" lon="10.135008586575093"><ele>505.5</ele><time>2026-03-28T08:19:41Z</time></trkpt><trkpt lat="44.595389464004995" lon="10.135236266310077"><ele>507.0</ele><time>2026-03-28T08:19:42Z</time></trkpt><trkpt lat="44.59518491017622" lon="10.135460745718715"><ele>513.6666666666666</ele><time>2026-03-28T08:19:43Z</time></trkpt><trkpt lat="44.594932556134886" lon="10.135760295692474"><ele>520.3333333333333</ele><time>2026-03-28T08:19:44Z</time></trkpt><trkpt lat="44.59486881144768" lon="10.13584267213467"><ele>527.0</ele><time>2026-03-28T08:19:45Z</time></trkpt><trkpt lat="44.59472886383088" lon="10.136015849414472"><ele>527.0</ele><time>2026-03-28T08:19:46Z</time></trkpt><trkpt lat="44.59462026609732" lon="10.13616168428193"><ele>527.0</ele><time>2026-03-28T08:19:47Z</time></trkpt><trkpt lat="44.59454001989296" lon="10.136325558650066"><ele>527.0</ele><time>2026-03-28T08:19:48Z</time></trkpt><trkpt lat="44.59449474000119" lon="10.13655506561026"><ele>530.6666666666666</ele><time>2026-03-28T08:19:49Z</time></trkpt><trkpt lat="44.594518746302256" lon="10.136806096030009"><ele>534.3333333333334</ele><time>2026-03-28T08:19:50Z</time></trkpt><trkpt lat="44.59458089123528" lon="10.137046949556774"><ele>538.0</ele><time>2026-03-28T08:19:51Z</time></trkpt><trkpt lat="44.594676154082585" lon="10.137289871110669"><ele>539.3333333333334</ele><time>2026-03-28T08:19:52Z</time></trkpt><trkpt lat="44.594782781223955" lon="10.137559568139658"><ele>540.6666666666666</ele><time>2026-03-28T08:19:53Z</time></trkpt><trkpt lat="44.59489996309674" lon="10.137832873948904"><ele>542.0</ele><time>2026-03-28T08:19:54Z</time></trkpt><trkpt lat="44.59499462866575" lon="10.138118341276105"><ele>541.0</ele><time>2026-03-28T08:19:55Z</time></trkpt><trkpt lat="44.59508024838627" lon="10.138403097454473"><ele>540.0</ele><time>2026-03-28T08:19:56Z</time></trkpt><trkpt lat="44.59516108682762" lon="10.138684863120751"><ele>539.0</ele><time>2026-03-28T08:19:57Z</time></trkpt><trkpt lat="44.59523648106131" lon="10.13894244189813"><ele>538.0</ele><time>2026-03-28T08:19:58Z</time></trkpt><trkpt lat="44.5953099366899" lon="10.139193547325778"><ele>537.0</ele><time>2026-03-28T08:19:59Z</time></trkpt><trkpt lat="44.59532799330657" lon="10.139424351064806"><ele>536.0</ele><time>2026-03-28T08:20:00Z</time></trkpt><trkpt lat="44.59529797330185" lon="10.139654681707976"><ele>539.0</ele><time>2026-03-28T08:20:01Z</time></trkpt><trkpt lat="44.59522576935473" lon="10.13988880074449"><ele>542.0</ele><time>2026-03-28T08:20:02Z</time></trkpt><trkpt lat="44.595140121640036" lon="10.14017922627212"><ele>545.0</ele><time>2026-03-28T08:20:03Z</time></trkpt><trkpt lat="44.59505444716762" lon="10.140474647049166"><ele>552.0</ele><time>2026-03-28T08:20:04Z</time></trkpt><trkpt lat="44.59496776522134" lon="10.140773543979396"><ele>559.0</ele><time>2026-03-28T08:20:05Z</time></trkpt><trkpt lat="44.59489032987306" lon="10.141089927853868"><ele>559.0</ele><time>2026-03-28T08:20:06Z</time></trkpt><trkpt lat="44.59479863377861" lon="10.14138631684994"><ele>559.0</ele><time>2026-03-28T08:20:07Z</time></trkpt><trkpt lat="44.594709788384165" lon="10.141627504004262"><ele>559.0</ele><time>2026-03-28T08:20:08Z</time></trkpt><trkpt lat="44.59457450873902" lon="10.141827409674033"><ele>556.3333333333334</ele><time>2026-03-28T08:20:09Z</time></trkpt><trkpt lat="44.5944114491497" lon="10.142002249667575"><ele>553.6666666666666</ele><time>2026-03-28T08:20:10Z</time></trkpt><trkpt lat="44.59429634661667" lon="10.14216269604462"><ele>551.0</ele><time>2026-03-28T08:20:11Z</time></trkpt><trkpt lat="44.594247493303925" lon="10.142354519724728"><ele>555.6666666666666</ele><time>2026-03-28T08:20:12Z</time></trkpt><trkpt lat="44.594250532253795" lon="10.142595064758044"><ele>560.3333333333334</ele><time>2026-03-28T08:20:13Z</time></trkpt><trkpt lat="44.59427627679227" lon="10.142885190999738"><ele>565.0</ele><time>2026-03-28T08:20:14Z</time></trkpt><trkpt lat="44.59427544857931" lon="10.143124064180075"><ele>569.0</ele><time>2026-03-28T08:20:15Z</time></trkpt><trkpt lat="44.59425685055226" lon="10.143259872524593"><ele>573.0</ele><time>2026-03-28T08:20:16Z</time></trkpt><trkpt lat="44.59413189567025" lon="10.143404587408545"><ele>577.0</ele><time>2026-03-28T08:20:18Z</time></trkpt><trkpt lat="44.593981417040446" lon="10.143498037674531"><ele>581.0</ele><time>2026-03-28T08:20:19Z</time></trkpt><trkpt lat="44.593801087926614" lon="10.143614398097675"><ele>578.5</ele><time>2026-03-28T08:20:20Z</time></trkpt><trkpt lat="44.59358855442849" lon="10.143766948171294"><ele>576.0</ele><time>2026-03-28T08:20:21Z</time></trkpt><trkpt lat="44.59336503271108" lon="10.143931725114848"><ele>581.3333333333334</ele><time>2026-03-28T08:20:22Z</time></trkpt><trkpt lat="44.593152584254625" lon="10.144092095280746"><ele>586.6666666666667</ele><time>2026-03-28T08:20:23Z</time></trkpt><trkpt lat="44.59297445267228" lon="10.14421894078772"><ele>592.0</ele><time>2026-03-28T08:20:24Z</time></trkpt><trkpt lat="44.5928256388988" lon="10.144308282181614"><ele>592.0</ele><time>2026-03-28T08:20:25Z</time></trkpt><trkpt lat="44.592658174234614" lon="10.144332489015996"><ele>592.0</ele><time>2026-03-28T08:20:26Z</time></trkpt><trkpt lat="44.592475561740955" lon="10.144256905189954"><ele>592.0</ele><time>2026-03-28T08:20:27Z</time></trkpt><trkpt lat="44.59229114095991" lon="10.144083779440816"><ele>594.0</ele><time>2026-03-28T08:20:28Z</time></trkpt><trkpt lat="44.59212235721917" lon="10.143910257348402"><ele>596.0</ele><time>2026-03-28T08:20:29Z</time></trkpt><trkpt lat="44.59197456545666" lon="10.143767020748353"><ele>598.0</ele><time>2026-03-28T08:20:30Z</time></trkpt><trkpt lat="44.59184377760887" lon="10.143657831197945"><ele>598.0</ele><time>2026-03-28T08:20:31Z</time></trkpt><trkpt lat="44.59172347345864" lon="10.143574653284457"><ele>598.0</ele><time>2026-03-28T08:20:32Z</time></trkpt><trkpt lat="44.591609337334965" lon="10.143536602966984"><ele>598.0</ele><time>2026-03-28T08:20:33Z</time></trkpt><trkpt lat="44.59149254912474" lon="10.143582141399088"><ele>598.0</ele><time>2026-03-28T08:20:34Z</time></trkpt><trkpt lat="44.59138680853836" lon="10.143711501776139"><ele>598.0</ele><time>2026-03-28T08:20:35Z</time></trkpt><trkpt lat="44.59132722874387" lon="10.143919000950062"><ele>598.0</ele><time>2026-03-28T08:20:36Z</time></trkpt><trkpt lat="44.59130963377382" lon="10.144156665445495"><ele>598.0</ele><time>2026-03-28T08:20:37Z</time></trkpt><trkpt lat="44.59135425702874" lon="10.144413622272785"><ele>598.5</ele><time>2026-03-28T08:20:38Z</time></trkpt><trkpt lat="44.591419911443765" lon="10.144717124577411"><ele>599.0</ele><time>2026-03-28T08:20:39Z</time></trkpt><trkpt lat="44.59146316573134" lon="10.145045069090529"><ele>602.6666666666666</ele><time>2026-03-28T08:20:40Z</time></trkpt><trkpt lat="44.59149611258682" lon="10.145342065713896"><ele>606.3333333333334</ele><time>2026-03-28T08:20:41Z</time></trkpt><trkpt lat="44.59153214026148" lon="10.14563376754797"><ele>610.0</ele><time>2026-03-28T08:20:42Z</time></trkpt><trkpt lat="44.59153516906929" lon="10.145879376436248"><ele>613.0</ele><time>2026-03-28T08:20:43Z</time></trkpt><trkpt lat="44.591469931948296" lon="10.146154438347565"><ele>616.0</ele><time>2026-03-28T08:20:44Z</time></trkpt><trkpt lat="44.59137412623574" lon="10.146444932073413"><ele>619.0</ele><time>2026-03-28T08:20:45Z</time></trkpt><trkpt lat="44.59128492628068" lon="10.146740879291693"><ele>617.3333333333334</ele><time>2026-03-28T08:20:46Z</time></trkpt><trkpt lat="44.59118803504125" lon="10.147016970072528"><ele>615.6666666666666</ele><time>2026-03-28T08:20:47Z</time></trkpt><trkpt lat="44.591086382707665" lon="10.14723764068157"><ele>614.0</ele><time>2026-03-28T08:20:48Z</time></trkpt><trkpt lat="44.591021217527356" lon="10.147430107678744"><ele>614.0</ele><time>2026-03-28T08:20:49Z</time></trkpt><trkpt lat="44.591025017564334" lon="10.147649744731247"><ele>614.0</ele><time>2026-03-28T08:20:50Z</time></trkpt><trkpt lat="44.59107610168137" lon="10.147920710345007"><ele>614.0</ele><time>2026-03-28T08:20:51Z</time></trkpt><trkpt lat="44.59109836572189" lon="10.148149717779487"><ele>618.3333333333333</ele><time>2026-03-28T08:20:52Z</time></trkpt><trkpt lat="44.591059553023285" lon="10.148344274354983"><ele>622.6666666666666</ele><time>2026-03-28T08:20:53Z</time></trkpt><trkpt lat="44.59095339654557" lon="10.148507699062131"><ele>627.0</ele><time>2026-03-28T08:20:54Z</time></trkpt><trkpt lat="44.59078649309199" lon="10.148637788366486"><ele>627.0</ele><time>2026-03-28T08:20:55Z</time></trkpt><trkpt lat="44.59058573506026" lon="10.148759834640845"><ele>627.0</ele><time>2026-03-28T08:20:56Z</time></trkpt><trkpt lat="44.590372793478" lon="10.148895901125512"><ele>630.3333333333334</ele><time>2026-03-28T08:20:56.999Z</time></trkpt><trkpt lat="44.59017708516501" lon="10.149061244538728"><ele>633.6666666666667</ele><time>2026-03-28T08:20:57.999Z</time></trkpt><trkpt lat="44.59000054693687" lon="10.149195864604849"><ele>637.0</ele><time>2026-03-28T08:20:58.999Z</time></trkpt><trkpt lat="44.58981907350483" lon="10.149267028561937"><ele>637.0</ele><time>2026-03-28T08:20:59.999Z</time></trkpt><trkpt lat="44.58960213931929" lon="10.14932644087178"><ele>637.0</ele><time>2026-03-28T08:21:00.999Z</time></trkpt><trkpt lat="44.589373824026154" lon="10.149400488414445"><ele>637.5</ele><time>2026-03-28T08:21:01.999Z</time></trkpt><trkpt lat="44.58915687788751" lon="10.149501516097619"><ele>638.0</ele><time>2026-03-28T08:21:02.999Z</time></trkpt><trkpt lat="44.58893589876347" lon="10.149618939124984"><ele>638.0</ele><time>2026-03-28T08:21:03.999Z</time></trkpt><trkpt lat="44.588751885802935" lon="10.149729803996365"><ele>638.0</ele><time>2026-03-28T08:21:04.999Z</time></trkpt><trkpt lat="44.58861257393036" lon="10.149814289122963"><ele>638.0</ele><time>2026-03-28T08:21:05.999Z</time></trkpt><trkpt lat="44.58850756669752" lon="10.149900030427066"><ele>640.3333333333333</ele><time>2026-03-28T08:21:06.999Z</time></trkpt><trkpt lat="44.588411448145294" lon="10.15005500309834"><ele>642.6666666666666</ele><time>2026-03-28T08:21:07.999Z</time></trkpt><trkpt lat="44.5883335432842" lon="10.15030243705439"><ele>645.0</ele><time>2026-03-28T08:21:08.999Z</time></trkpt><trkpt lat="44.588276311042925" lon="10.150606803976784"><ele>650.0</ele><time>2026-03-28T08:21:09.999Z</time></trkpt><trkpt lat="44.58820446487936" lon="10.150895286238583"><ele>655.0</ele><time>2026-03-28T08:21:11Z</time></trkpt><trkpt lat="44.5880747954173" lon="10.151097512018241"><ele>660.0</ele><time>2026-03-28T08:21:12Z</time></trkpt><trkpt lat="44.587909512336516" lon="10.151294720066792"><ele>660.0</ele><time>2026-03-28T08:21:13Z</time></trkpt><trkpt lat="44.587751432874825" lon="10.151467487045277"><ele>660.0</ele><time>2026-03-28T08:21:14Z</time></trkpt><trkpt lat="44.58762411807992" lon="10.151632498495783"><ele>660.0</ele><time>2026-03-28T08:21:15Z</time></trkpt><trkpt lat="44.587500749274135" lon="10.151773698320948"><ele>660.0</ele><time>2026-03-28T08:21:16Z</time></trkpt><trkpt lat="44.58741689609151" lon="10.151937385075744"><ele>660.0</ele><time>2026-03-28T08:21:17Z</time></trkpt><trkpt lat="44.58737411693443" lon="10.152142097962022"><ele>660.0</ele><time>2026-03-28T08:21:18Z</time></trkpt><trkpt lat="44.58738023443806" lon="10.152387619760445"><ele>663.3333333333334</ele><time>2026-03-28T08:21:19Z</time></trkpt><trkpt lat="44.58740350502649" lon="10.1526795634764"><ele>666.6666666666667</ele><time>2026-03-28T08:21:20Z</time></trkpt><trkpt lat="44.587418229957535" lon="10.152975516217797"><ele>670.0</ele><time>2026-03-28T08:21:21Z</time></trkpt><trkpt lat="44.587418997737466" lon="10.153240353909077"><ele>671.0</ele><time>2026-03-28T08:21:22Z</time></trkpt><trkpt lat="44.58741588683508" lon="10.153443683971581"><ele>672.0</ele><time>2026-03-28T08:21:23Z</time></trkpt><trkpt lat="44.58744296983875" lon="10.15361606281994"><ele>673.0</ele><time>2026-03-28T08:21:24Z</time></trkpt><trkpt lat="44.587534327762945" lon="10.153805174504324"><ele>674.0</ele><time>2026-03-28T08:21:25Z</time></trkpt><trkpt lat="44.58766833248332" lon="10.154016308395134"><ele>672.3333333333333</ele><time>2026-03-28T08:21:26Z</time></trkpt><trkpt lat="44.587738139617095" lon="10.154261205850544"><ele>670.6666666666666</ele><time>2026-03-28T08:21:27Z</time></trkpt><trkpt lat="44.58774752360008" lon="10.15454713072536"><ele>669.0</ele><time>2026-03-28T08:21:28Z</time></trkpt><trkpt lat="44.58777907017663" lon="10.154839719159096"><ele>670.0</ele><time>2026-03-28T08:21:29Z</time></trkpt><trkpt lat="44.58781743883048" lon="10.15512545001623"><ele>671.0</ele><time>2026-03-28T08:21:30Z</time></trkpt><trkpt lat="44.58789487839441" lon="10.155380148371005"><ele>672.0</ele><time>2026-03-28T08:21:31Z</time></trkpt><trkpt lat="44.587893580224105" lon="10.155614062543671"><ele>675.0</ele><time>2026-03-28T08:21:32Z</time></trkpt><trkpt lat="44.58786864991926" lon="10.155892932584228"><ele>678.0</ele><time>2026-03-28T08:21:33Z</time></trkpt><trkpt lat="44.5878580279314" lon="10.156209727088111"><ele>681.0</ele><time>2026-03-28T08:21:34Z</time></trkpt><trkpt lat="44.58783201075104" lon="10.156498697651482"><ele>682.6666666666666</ele><time>2026-03-28T08:21:35Z</time></trkpt><trkpt lat="44.58779370667955" lon="10.156748065609323"><ele>684.3333333333333</ele><time>2026-03-28T08:21:36Z</time></trkpt><trkpt lat="44.58774003023171" lon="10.156954157581499"><ele>686.0</ele><time>2026-03-28T08:21:37Z</time></trkpt><trkpt lat="44.587641332593094" lon="10.157113286960971"><ele>686.0</ele><time>2026-03-28T08:21:38Z</time></trkpt><trkpt lat="44.58752952486798" lon="10.157286318857476"><ele>686.0</ele><time>2026-03-28T08:21:39Z</time></trkpt><trkpt lat="44.58740544698798" lon="10.157372121304588"><ele>686.0</ele><time>2026-03-28T08:21:40Z</time></trkpt><trkpt lat="44.587236209451724" lon="10.157489293088162"><ele>688.25</ele><time>2026-03-28T08:21:41Z</time></trkpt><trkpt lat="44.58709495753258" lon="10.157630192231457"><ele>690.5</ele><time>2026-03-28T08:21:42Z</time></trkpt><trkpt lat="44.58699422685808" lon="10.157757389202668"><ele>692.75</ele><time>2026-03-28T08:21:43Z</time></trkpt><trkpt lat="44.586939645752004" lon="10.157915625005192"><ele>695.0</ele><time>2026-03-28T08:21:44Z</time></trkpt><trkpt lat="44.5869232339059" lon="10.15812795835145"><ele>696.5</ele><time>2026-03-28T08:21:45Z</time></trkpt><trkpt lat="44.58692915317636" lon="10.158351427303502"><ele>698.0</ele><time>2026-03-28T08:21:46Z</time></trkpt><trkpt lat="44.58692169592421" lon="10.158567972704049"><ele>699.5</ele><time>2026-03-28T08:21:47Z</time></trkpt><trkpt lat="44.58686005839637" lon="10.158727306360936"><ele>701.0</ele><time>2026-03-28T08:21:48Z</time></trkpt><trkpt lat="44.58678090891809" lon="10.158855073716612"><ele>701.0</ele><time>2026-03-28T08:21:49Z</time></trkpt><trkpt lat="44.58664542001377" lon="10.15895308509127"><ele>701.0</ele><time>2026-03-28T08:21:50Z</time></trkpt><trkpt lat="44.58647684368742" lon="10.159044985433129"><ele>701.0</ele><time>2026-03-28T08:21:51Z</time></trkpt><trkpt lat="44.586309991547935" lon="10.159150901148216"><ele>700.0</ele><time>2026-03-28T08:21:52Z</time></trkpt><trkpt lat="44.586160904125094" lon="10.15926438890708"><ele>699.0</ele><time>2026-03-28T08:21:53Z</time></trkpt><trkpt lat="44.58601407085068" lon="10.159380911107817"><ele>698.0</ele><time>2026-03-28T08:21:54Z</time></trkpt><trkpt lat="44.58584830674601" lon="10.159504491623101"><ele>698.0</ele><time>2026-03-28T08:21:55Z</time></trkpt><trkpt lat="44.585685979084296" lon="10.15962329056391"><ele>698.0</ele><time>2026-03-28T08:21:56Z</time></trkpt><trkpt lat="44.58552379463694" lon="10.159745816964126"><ele>698.0</ele><time>2026-03-28T08:21:57Z</time></trkpt><trkpt lat="44.585380305947815" lon="10.159804867197023"><ele>698.5999999999999</ele><time>2026-03-28T08:21:58Z</time></trkpt><trkpt lat="44.58527453356184" lon="10.159791887713974"><ele>699.1999999999999</ele><time>2026-03-28T08:21:59Z</time></trkpt><trkpt lat="44.58518308498482" lon="10.15973514871616"><ele>699.8</ele><time>2026-03-28T08:22:00Z</time></trkpt><trkpt lat="44.58514352577227" lon="10.159594178332355"><ele>700.4</ele><time>2026-03-28T08:22:01Z</time></trkpt><trkpt lat="44.585128391856934" lon="10.159430530581597"><ele>701.0</ele><time>2026-03-28T08:22:02Z</time></trkpt><trkpt lat="44.58508508460799" lon="10.159277839533082"><ele>701.0</ele><time>2026-03-28T08:22:03Z</time></trkpt><trkpt lat="44.58504314916087" lon="10.159146585041062"><ele>701.0</ele><time>2026-03-28T08:22:04Z</time></trkpt><trkpt lat="44.584959934134496" lon="10.159076810495089"><ele>701.0</ele><time>2026-03-28T08:22:05Z</time></trkpt><trkpt lat="44.58485281472233" lon="10.15905522853822"><ele>701.0</ele><time>2026-03-28T08:22:06Z</time></trkpt><trkpt lat="44.58473600243406" lon="10.159099260529995"><ele>701.0</ele><time>2026-03-28T08:22:07Z</time></trkpt><trkpt lat="44.58464408043067" lon="10.159217995525763"><ele>701.0</ele><time>2026-03-28T08:22:08Z</time></trkpt><trkpt lat="44.58458331282406" lon="10.1594039105974"><ele>701.0</ele><time>2026-03-28T08:22:09Z</time></trkpt><trkpt lat="44.58455249823215" lon="10.159663531607793"><ele>701.0</ele><time>2026-03-28T08:22:10Z</time></trkpt><trkpt lat="44.58450805488157" lon="10.159953290823013"><ele>701.3333333333333</ele><time>2026-03-28T08:22:11Z</time></trkpt><trkpt lat="44.58444727155024" lon="10.160230470029727"><ele>701.6666666666666</ele><time>2026-03-28T08:22:12Z</time></trkpt><trkpt lat="44.58434501782355" lon="10.160488990288602"><ele>702.0</ele><time>2026-03-28T08:22:13Z</time></trkpt><trkpt lat="44.584236714644135" lon="10.160752033808775"><ele>706.6666666666666</ele><time>2026-03-28T08:22:14Z</time></trkpt><trkpt lat="44.5841353478242" lon="10.161036984918905"><ele>711.3333333333333</ele><time>2026-03-28T08:22:15Z</time></trkpt><trkpt lat="44.584022844553466" lon="10.16129987402352"><ele>716.0</ele><time>2026-03-28T08:22:16Z</time></trkpt><trkpt lat="44.58392801608882" lon="10.161539458087551"><ele>717.6666666666666</ele><time>2026-03-28T08:22:17Z</time></trkpt><trkpt lat="44.583843492721016" lon="10.161756413413874"><ele>719.3333333333334</ele><time>2026-03-28T08:22:18Z</time></trkpt><trkpt lat="44.58374428547085" lon="10.161926625037431"><ele>721.0</ele><time>2026-03-28T08:22:19Z</time></trkpt><trkpt lat="44.58364094890214" lon="10.162065893450468"><ele>721.0</ele><time>2026-03-28T08:22:20Z</time></trkpt><trkpt lat="44.58351766548458" lon="10.162206648671027"><ele>721.0</ele><time>2026-03-28T08:22:21Z</time></trkpt><trkpt lat="44.58335031405866" lon="10.162280045936106"><ele>721.0</ele><time>2026-03-28T08:22:22Z</time></trkpt><trkpt lat="44.583207912873874" lon="10.162304520092654"><ele>721.0</ele><time>2026-03-28T08:22:23Z</time></trkpt><trkpt lat="44.5830622619259" lon="10.162253789955027"><ele>721.0</ele><time>2026-03-28T08:22:24Z</time></trkpt><trkpt lat="44.582947819161994" lon="10.162066017566206"><ele>721.0</ele><time>2026-03-28T08:22:25Z</time></trkpt><trkpt lat="44.58280610718165" lon="10.161871433212811"><ele>723.0</ele><time>2026-03-28T08:22:26Z</time></trkpt><trkpt lat="44.582641157556" lon="10.161662968836719"><ele>725.0</ele><time>2026-03-28T08:22:27Z</time></trkpt><trkpt lat="44.582499395010636" lon="10.161454352826233"><ele>727.0</ele><time>2026-03-28T08:22:28Z</time></trkpt><trkpt lat="44.582350191223064" lon="10.161250123812646"><ele>727.0</ele><time>2026-03-28T08:22:29Z</time></trkpt><trkpt lat="44.582236805119635" lon="10.161006460491306"><ele>727.0</ele><time>2026-03-28T08:22:30Z</time></trkpt><trkpt lat="44.58213883444351" lon="10.160754403157497"><ele>727.0</ele><time>2026-03-28T08:22:31Z</time></trkpt><trkpt lat="44.58203855118384" lon="10.160545576081466"><ele>731.3333333333334</ele><time>2026-03-28T08:22:32Z</time></trkpt><trkpt lat="44.58193269753651" lon="10.160329823198412"><ele>735.6666666666666</ele><time>2026-03-28T08:22:33Z</time></trkpt><trkpt lat="44.58182590047202" lon="10.160146553155245"><ele>740.0</ele><time>2026-03-28T08:22:34Z</time></trkpt><trkpt lat="44.581741727430654" lon="10.160004628483694"><ele>740.0</ele><time>2026-03-28T08:22:35Z</time></trkpt><trkpt lat="44.58165484417544" lon="10.15993842714808"><ele>740.0</ele><time>2026-03-28T08:22:36Z</time></trkpt><trkpt lat="44.58156625024112" lon="10.1599364343478"><ele>740.0</ele><time>2026-03-28T08:22:37Z</time></trkpt><trkpt lat="44.58148831145151" lon="10.159958010013339"><ele>740.0</ele><time>2026-03-28T08:22:38Z</time></trkpt><trkpt lat="44.58141299050055" lon="10.159999990454814"><ele>740.0</ele><time>2026-03-28T08:22:39Z</time></trkpt><trkpt lat="44.581345859862274" lon="10.160026887711467"><ele>740.0</ele><time>2026-03-28T08:22:40Z</time></trkpt><trkpt lat="44.58127957506355" lon="10.160084084585707"><ele>740.0</ele><time>2026-03-28T08:22:41Z</time></trkpt><trkpt lat="44.58119540637656" lon="10.160112747051123"><ele>740.0</ele><time>2026-03-28T08:22:42Z</time></trkpt><trkpt lat="44.58110198121777" lon="10.160147534853893"><ele>740.0</ele><time>2026-03-28T08:22:43Z</time></trkpt><trkpt lat="44.5810101894836" lon="10.160191958170486"><ele>740.0</ele><time>2026-03-28T08:22:44Z</time></trkpt><trkpt lat="44.58091408553458" lon="10.160240865130806"><ele>740.0</ele><time>2026-03-28T08:22:45Z</time></trkpt><trkpt lat="44.58083832031256" lon="10.160277804021751"><ele>740.0</ele><time>2026-03-28T08:22:46Z</time></trkpt><trkpt lat="44.58078146207489" lon="10.160321144445154"><ele>740.0</ele><time>2026-03-28T08:22:51Z</time></trkpt><trkpt lat="44.5809147877035" lon="10.160239648707847"><ele>740.0</ele><time>2026-03-28T08:22:53.999Z</time></trkpt><trkpt lat="44.581059304409486" lon="10.160199603970323"><ele>740.0</ele><time>2026-03-28T08:22:54.999Z</time></trkpt><trkpt lat="44.58124056141176" lon="10.160098524242452"><ele>740.0</ele><time>2026-03-28T08:22:55.999Z</time></trkpt><trkpt lat="44.581385838544186" lon="10.160038398337747"><ele>740.0</ele><time>2026-03-28T08:22:56.999Z</time></trkpt><trkpt lat="44.58149215444899" lon="10.15999769112128"><ele>740.0</ele><time>2026-03-28T08:22:57.999Z</time></trkpt><trkpt lat="44.58159019747201" lon="10.159987386802106"><ele>740.0</ele><time>2026-03-28T08:22:58.999Z</time></trkpt><trkpt lat="44.58168796083173" lon="10.160021258590639"><ele>740.0</ele><time>2026-03-28T08:23:00.999Z</time></trkpt><trkpt lat="44.58163042146779" lon="10.159983824381817"><ele>740.0</ele><time>2026-03-28T08:23:41Z</time></trkpt><trkpt lat="44.58159824867112" lon="10.159810738249282"><ele>740.0</ele><time>2026-03-28T08:23:43Z</time></trkpt><trkpt lat="44.58151717825452" lon="10.159777951579416"><ele>740.0</ele><time>2026-03-28T08:23:46Z</time></trkpt><trkpt lat="44.5814483395911" lon="10.15979733685298"><ele>740.0</ele><time>2026-03-28T08:23:48Z</time></trkpt><trkpt lat="44.58137114254998" lon="10.159828722857936"><ele>740.0</ele><time>2026-03-28T08:23:50Z</time></trkpt><trkpt lat="44.58128871314824" lon="10.15987258279114"><ele>739.9999999999999</ele><time>2026-03-28T08:23:52Z</time></trkpt><trkpt lat="44.58121145998729" lon="10.159915933098226"><ele>740.0</ele><time>2026-03-28T08:23:55Z</time></trkpt><trkpt lat="44.58114836538074" lon="10.159937095366287"><ele>740.0</ele><time>2026-03-28T08:23:57Z</time></trkpt><trkpt lat="44.58108445144647" lon="10.159940215165062"><ele>740.0</ele><time>2026-03-28T08:24:01Z</time></trkpt><trkpt lat="44.58102328930254" lon="10.159912493889477"><ele>740.0</ele><time>2026-03-28T08:28:07Z</time></trkpt><trkpt lat="44.580955132162" lon="10.159928473633672"><ele>739.9999999999999</ele><time>2026-03-28T08:28:10Z</time></trkpt><trkpt lat="44.58088195112263" lon="10.1599461652082"><ele>740.0</ele><time>2026-03-28T08:28:15Z</time></trkpt><trkpt lat="44.58081817587291" lon="10.159961090759438"><ele>740.1666666666666</ele><time>2026-03-28T08:28:18Z</time></trkpt><trkpt lat="44.58074719229015" lon="10.159963111867212"><ele>740.3333333333333</ele><time>2026-03-28T08:28:22Z</time></trkpt><trkpt lat="44.58067279914097" lon="10.159908614111929"><ele>740.5</ele><time>2026-03-28T08:28:26Z</time></trkpt><trkpt lat="44.58067333763786" lon="10.159809950973314"><ele>740.6666666666666</ele><time>2026-03-28T08:28:30Z</time></trkpt><trkpt lat="44.58073056697802" lon="10.159747743772"><ele>740.8333333333334</ele><time>2026-03-28T08:28:49Z</time></trkpt><trkpt lat="44.58080107222974" lon="10.159749074123624"><ele>741.0</ele><time>2026-03-28T08:28:52Z</time></trkpt><trkpt lat="44.58090289640967" lon="10.159721477238092"><ele>737.6666666666666</ele><time>2026-03-28T08:28:55Z</time></trkpt><trkpt lat="44.580968495431286" lon="10.159700934202624"><ele>734.3333333333334</ele><time>2026-03-28T08:28:58Z</time></trkpt><trkpt lat="44.58103705825211" lon="10.159676639669238"><ele>731.0</ele><time>2026-03-28T08:29:00Z</time></trkpt><trkpt lat="44.58110724085679" lon="10.159650380478556"><ele>727.6666666666667</ele><time>2026-03-28T08:29:02Z</time></trkpt><trkpt lat="44.58118908729002" lon="10.159603213177574"><ele>724.3333333333334</ele><time>2026-03-28T08:29:05Z</time></trkpt><trkpt lat="44.58124925762283" lon="10.15955657412024"><ele>721.0</ele><time>2026-03-28T08:29:07Z</time></trkpt><trkpt lat="44.58133503023136" lon="10.159478278114626"><ele>721.0</ele><time>2026-03-28T08:29:10Z</time></trkpt><trkpt lat="44.58138165124454" lon="10.159411603733824"><ele>721.0</ele><time>2026-03-28T08:29:12Z</time></trkpt><trkpt lat="44.58144049294169" lon="10.15935235547702"><ele>721.0</ele><time>2026-03-28T08:29:14Z</time></trkpt><trkpt lat="44.581492784577094" lon="10.159288607056114"><ele>721.0</ele><time>2026-03-28T08:29:16Z</time></trkpt><trkpt lat="44.581583511257094" lon="10.159197856258523"><ele>721.0</ele><time>2026-03-28T08:29:18.999Z</time></trkpt><trkpt lat="44.58163031990862" lon="10.159118094312895"><ele>721.0</ele><time>2026-03-28T08:29:20.999Z</time></trkpt><trkpt lat="44.581676249492396" lon="10.159044114484027"><ele>716.8333333333334</ele><time>2026-03-28T08:29:22.999Z</time></trkpt><trkpt lat="44.58175027456414" lon="10.158970225470943"><ele>712.6666666666667</ele><time>2026-03-28T08:29:25.999Z</time></trkpt><trkpt lat="44.58182644538211" lon="10.158936551296748"><ele>708.5</ele><time>2026-03-28T08:29:28.999Z</time></trkpt><trkpt lat="44.581908088496604" lon="10.158917330455312"><ele>704.3333333333334</ele><time>2026-03-28T08:29:32.999Z</time></trkpt><trkpt lat="44.58196955971916" lon="10.158938565147814"><ele>700.1666666666666</ele><time>2026-03-28T08:29:45Z</time></trkpt><trkpt lat="44.58188983103702" lon="10.15894683170018"><ele>696.0</ele><time>2026-03-28T08:29:56Z</time></trkpt><trkpt lat="44.58181443564059" lon="10.158956196566931"><ele>696.0</ele><time>2026-03-28T08:29:58Z</time></trkpt><trkpt lat="44.58175245011946" lon="10.158976481182693"><ele>696.0</ele><time>2026-03-28T08:30:00Z</time></trkpt><trkpt lat="44.581678773830134" lon="10.159035715719915"><ele>696.0</ele><time>2026-03-28T08:30:02Z</time></trkpt><trkpt lat="44.58162618963925" lon="10.1591097388222"><ele>696.0</ele><time>2026-03-28T08:30:04Z</time></trkpt><trkpt lat="44.581569684744004" lon="10.159189558745025"><ele>696.0</ele><time>2026-03-28T08:30:06Z</time></trkpt><trkpt lat="44.58151196764861" lon="10.159257973965323"><ele>696.0</ele><time>2026-03-28T08:30:08Z</time></trkpt><trkpt lat="44.581446845957466" lon="10.159336946235568"><ele>698.8333333333334</ele><time>2026-03-28T08:30:10Z</time></trkpt><trkpt lat="44.58139537740075" lon="10.1594075561903"><ele>701.6666666666666</ele><time>2026-03-28T08:30:12Z</time></trkpt><trkpt lat="44.5813370288186" lon="10.159475573927004"><ele>704.5</ele><time>2026-03-28T08:30:14Z</time></trkpt><trkpt lat="44.581280461855286" lon="10.159537310313594"><ele>707.3333333333333</ele><time>2026-03-28T08:30:16Z</time></trkpt><trkpt lat="44.58119365033786" lon="10.159614312849024"><ele>710.1666666666666</ele><time>2026-03-28T08:30:19Z</time></trkpt><trkpt lat="44.58113272319097" lon="10.15964030947995"><ele>713.0</ele><time>2026-03-28T08:30:21Z</time></trkpt><trkpt lat="44.581059096465225" lon="10.159665365349502"><ele>713.0</ele><time>2026-03-28T08:30:23Z</time></trkpt><trkpt lat="44.580968255797615" lon="10.159701373903573"><ele>713.0</ele><time>2026-03-28T08:30:25Z</time></trkpt><trkpt lat="44.58089163904541" lon="10.15972845142621"><ele>713.0</ele><time>2026-03-28T08:30:27Z</time></trkpt><trkpt lat="44.58081295758204" lon="10.159756220243624"><ele>713.0</ele><time>2026-03-28T08:30:29Z</time></trkpt><trkpt lat="44.5807293984544" lon="10.159734888088748"><ele>713.0</ele><time>2026-03-28T08:30:31Z</time></trkpt><trkpt lat="44.58066663853709" lon="10.15976128722369"><ele>713.0</ele><time>2026-03-28T08:30:34Z</time></trkpt><trkpt lat="44.58066865924833" lon="10.159877077739061"><ele>717.5</ele><time>2026-03-28T08:30:37Z</time></trkpt><trkpt lat="44.58075610180284" lon="10.159941441530167"><ele>722.0</ele><time>2026-03-28T08:30:40Z</time></trkpt><trkpt lat="44.58086041666366" lon="10.159938789910463"><ele>726.5</ele><time>2026-03-28T08:30:43Z</time></trkpt><trkpt lat="44.580928882036126" lon="10.15991832249779"><ele>731.0</ele><time>2026-03-28T08:30:45Z</time></trkpt><trkpt lat="44.58099182666763" lon="10.159910854998914"><ele>735.5</ele><time>2026-03-28T08:30:47Z</time></trkpt><trkpt lat="44.58109946403412" lon="10.159913043005947"><ele>740.0</ele><time>2026-03-28T08:30:49Z</time></trkpt><trkpt lat="44.5812151157329" lon="10.15988882804465"><ele>740.0</ele><time>2026-03-28T08:30:51Z</time></trkpt><trkpt lat="44.5812843919891" lon="10.159847306996626"><ele>740.0</ele><time>2026-03-28T08:30:52Z</time></trkpt><trkpt lat="44.581444620074954" lon="10.160031482875866"><ele>740.0</ele><time>2026-03-28T08:30:54Z</time></trkpt><trkpt lat="44.581587452751535" lon="10.159956920593206"><ele>740.0</ele><time>2026-03-28T08:31:00Z</time></trkpt><trkpt lat="44.581649059286306" lon="10.15999038669325"><ele>740.0</ele><time>2026-03-28T08:31:02Z</time></trkpt><trkpt lat="44.5815495605867" lon="10.159901519461478"><ele>740.0</ele><time>2026-03-28T08:31:17Z</time></trkpt><trkpt lat="44.58135820184727" lon="10.160014277882956"><ele>740.0</ele><time>2026-03-28T08:31:19Z</time></trkpt><trkpt lat="44.581269438318074" lon="10.160059662525015"><ele>740.0</ele><time>2026-03-28T08:31:29Z</time></trkpt><trkpt lat="44.58119135985203" lon="10.160109310245053"><ele>740.3333333333333</ele><time>2026-03-28T08:31:30Z</time></trkpt><trkpt lat="44.58107812627719" lon="10.160169506624634"><ele>740.6666666666666</ele><time>2026-03-28T08:31:31Z</time></trkpt><trkpt lat="44.58093533938608" lon="10.160241994920224"><ele>741.0</ele><time>2026-03-28T08:31:32Z</time></trkpt><trkpt lat="44.58076470401502" lon="10.160330747250585"><ele>741.0</ele><time>2026-03-28T08:31:33Z</time></trkpt><trkpt lat="44.58062265622025" lon="10.160400813741711"><ele>741.0</ele><time>2026-03-28T08:31:34Z</time></trkpt><trkpt lat="44.580459717198856" lon="10.160492493643563"><ele>741.0</ele><time>2026-03-28T08:31:35Z</time></trkpt><trkpt lat="44.58031091580927" lon="10.160563704202007"><ele>739.5</ele><time>2026-03-28T08:31:36Z</time></trkpt><trkpt lat="44.58017669636846" lon="10.16062514582506"><ele>738.0</ele><time>2026-03-28T08:31:37Z</time></trkpt><trkpt lat="44.580059154097775" lon="10.160687469084529"><ele>736.5</ele><time>2026-03-28T08:31:38Z</time></trkpt><trkpt lat="44.57996057926641" lon="10.160769088964235"><ele>735.0</ele><time>2026-03-28T08:31:39Z</time></trkpt><trkpt lat="44.57985800743708" lon="10.160890710894945"><ele>740.5</ele><time>2026-03-28T08:31:40Z</time></trkpt><trkpt lat="44.579767945675805" lon="10.161036995651036"><ele>746.0</ele><time>2026-03-28T08:31:41Z</time></trkpt><trkpt lat="44.5796667029101" lon="10.161099050263118"><ele>751.5</ele><time>2026-03-28T08:31:42Z</time></trkpt><trkpt lat="44.5795650293072" lon="10.16114260675944"><ele>757.0</ele><time>2026-03-28T08:31:43Z</time></trkpt><trkpt lat="44.57945808658751" lon="10.161091911156475"><ele>756.0</ele><time>2026-03-28T08:31:44Z</time></trkpt><trkpt lat="44.579381325481464" lon="10.160970388202411"><ele>755.0</ele><time>2026-03-28T08:31:45Z</time></trkpt><trkpt lat="44.579297113261525" lon="10.160824079475937"><ele>754.0</ele><time>2026-03-28T08:31:46Z</time></trkpt><trkpt lat="44.579219664510205" lon="10.160661406880687"><ele>753.0</ele><time>2026-03-28T08:31:47Z</time></trkpt><trkpt lat="44.57914210362684" lon="10.160504083836368"><ele>753.0</ele><time>2026-03-28T08:31:48Z</time></trkpt><trkpt lat="44.57905802190374" lon="10.160351515848047"><ele>753.0</ele><time>2026-03-28T08:31:49Z</time></trkpt><trkpt lat="44.578968970254465" lon="10.160207017304737"><ele>753.0</ele><time>2026-03-28T08:31:50Z</time></trkpt><trkpt lat="44.578892913929174" lon="10.160097561196016"><ele>753.0</ele><time>2026-03-28T08:31:51Z</time></trkpt><trkpt lat="44.57880758988115" lon="10.160034340306396"><ele>753.0</ele><time>2026-03-28T08:31:52Z</time></trkpt><trkpt lat="44.57869234787717" lon="10.160036537871353"><ele>753.0</ele><time>2026-03-28T08:31:53Z</time></trkpt><trkpt lat="44.57855983442255" lon="10.160100628680656"><ele>753.0</ele><time>2026-03-28T08:31:54Z</time></trkpt><trkpt lat="44.578427005120396" lon="10.160204967065498"><ele>753.0</ele><time>2026-03-28T08:31:55Z</time></trkpt><trkpt lat="44.578294720723505" lon="10.160303031005974"><ele>756.0</ele><time>2026-03-28T08:31:56Z</time></trkpt><trkpt lat="44.57816703693344" lon="10.160367534117448"><ele>759.0</ele><time>2026-03-28T08:31:57Z</time></trkpt><trkpt lat="44.57803532365421" lon="10.160350508809573"><ele>762.0</ele><time>2026-03-28T08:31:58Z</time></trkpt><trkpt lat="44.57792059082284" lon="10.160283728337326"><ele>765.0</ele><time>2026-03-28T08:31:59Z</time></trkpt><trkpt lat="44.577805260725604" lon="10.160206500065765"><ele>765.6</ele><time>2026-03-28T08:32:00Z</time></trkpt><trkpt lat="44.57769899883512" lon="10.16015384957053"><ele>766.2</ele><time>2026-03-28T08:32:01Z</time></trkpt><trkpt lat="44.577608527839395" lon="10.160100961955246"><ele>766.8</ele><time>2026-03-28T08:32:02Z</time></trkpt><trkpt lat="44.57752362218758" lon="10.160106081397267"><ele>767.4</ele><time>2026-03-28T08:32:03Z</time></trkpt><trkpt lat="44.57743694274642" lon="10.160167411769127"><ele>768.0</ele><time>2026-03-28T08:32:04Z</time></trkpt><trkpt lat="44.57736507418277" lon="10.160297407955516"><ele>768.0</ele><time>2026-03-28T08:32:05Z</time></trkpt><trkpt lat="44.57729529999155" lon="10.160476418759718"><ele>768.0</ele><time>2026-03-28T08:32:06Z</time></trkpt><trkpt lat="44.57722012688255" lon="10.16066756144164"><ele>768.0</ele><time>2026-03-28T08:32:07Z</time></trkpt><trkpt lat="44.577122796501605" lon="10.160852821624266"><ele>769.75</ele><time>2026-03-28T08:32:08Z</time></trkpt><trkpt lat="44.57701800608736" lon="10.16101181360045"><ele>771.5</ele><time>2026-03-28T08:32:09Z</time></trkpt><trkpt lat="44.57688137762052" lon="10.161116778621807"><ele>773.25</ele><time>2026-03-28T08:32:10Z</time></trkpt><trkpt lat="44.57678898891819" lon="10.161256969969044"><ele>775.0</ele><time>2026-03-28T08:32:11Z</time></trkpt><trkpt lat="44.57671078426166" lon="10.161434030398464"><ele>780.6666666666666</ele><time>2026-03-28T08:32:12Z</time></trkpt><trkpt lat="44.57665191505522" lon="10.161676296602684"><ele>786.3333333333333</ele><time>2026-03-28T08:32:13Z</time></trkpt><trkpt lat="44.576591143737616" lon="10.16192231366556"><ele>792.0</ele><time>2026-03-28T08:32:14Z</time></trkpt><trkpt lat="44.576522070665874" lon="10.162136511384993"><ele>792.0</ele><time>2026-03-28T08:32:15Z</time></trkpt><trkpt lat="44.57646083675476" lon="10.162318937601466"><ele>792.0</ele><time>2026-03-28T08:32:16Z</time></trkpt><trkpt lat="44.57640449742092" lon="10.162486696014941"><ele>792.0</ele><time>2026-03-28T08:32:17Z</time></trkpt><trkpt lat="44.5763430246026" lon="10.162610308247547"><ele>792.0</ele><time>2026-03-28T08:32:18Z</time></trkpt><trkpt lat="44.57627505623156" lon="10.162699653120253"><ele>791.6</ele><time>2026-03-28T08:32:19Z</time></trkpt><trkpt lat="44.576184131795074" lon="10.162729901636792"><ele>791.2</ele><time>2026-03-28T08:32:20Z</time></trkpt><trkpt lat="44.576093356462735" lon="10.16277657697121"><ele>790.8</ele><time>2026-03-28T08:32:21Z</time></trkpt><trkpt lat="44.57599764057388" lon="10.162857927886362"><ele>790.4</ele><time>2026-03-28T08:32:22Z</time></trkpt><trkpt lat="44.575885848467" lon="10.16293702698109"><ele>790.0</ele><time>2026-03-28T08:32:23Z</time></trkpt><trkpt lat="44.57579238000667" lon="10.163049335404729"><ele>796.3333333333333</ele><time>2026-03-28T08:32:24Z</time></trkpt><trkpt lat="44.57572356275097" lon="10.163205226011822"><ele>802.6666666666667</ele><time>2026-03-28T08:32:25Z</time></trkpt><trkpt lat="44.57565426743187" lon="10.16339449274782"><ele>809.0</ele><time>2026-03-28T08:32:26Z</time></trkpt><trkpt lat="44.57557236878659" lon="10.163602357907733"><ele>809.0</ele><time>2026-03-28T08:32:27Z</time></trkpt><trkpt lat="44.57549978421144" lon="10.16381356000268"><ele>809.0</ele><time>2026-03-28T08:32:28Z</time></trkpt><trkpt lat="44.575460855122415" lon="10.164045905870092"><ele>809.0</ele><time>2026-03-28T08:32:29Z</time></trkpt><trkpt lat="44.575441901218674" lon="10.164303763506837"><ele>809.3333333333334</ele><time>2026-03-28T08:32:30Z</time></trkpt><trkpt lat="44.575383112948295" lon="10.164543616189446"><ele>809.6666666666667</ele><time>2026-03-28T08:32:31Z</time></trkpt><trkpt lat="44.57529538165583" lon="10.164758314170461"><ele>810.0</ele><time>2026-03-28T08:32:32Z</time></trkpt><trkpt lat="44.575229762905856" lon="10.16495358788887"><ele>810.0</ele><time>2026-03-28T08:32:33Z</time></trkpt><trkpt lat="44.575194367855325" lon="10.165119594865866"><ele>810.0</ele><time>2026-03-28T08:32:34Z</time></trkpt><trkpt lat="44.57523293328246" lon="10.165273076439366"><ele>810.0</ele><time>2026-03-28T08:32:35Z</time></trkpt><trkpt lat="44.57531640376282" lon="10.165424782228309"><ele>810.0</ele><time>2026-03-28T08:32:36Z</time></trkpt><trkpt lat="44.57542033017329" lon="10.165573640686326"><ele>816.75</ele><time>2026-03-28T08:32:37Z</time></trkpt><trkpt lat="44.57549293673193" lon="10.165720941136348"><ele>823.5</ele><time>2026-03-28T08:32:38Z</time></trkpt><trkpt lat="44.57551468254374" lon="10.165885458656623"><ele>830.25</ele><time>2026-03-28T08:32:39Z</time></trkpt><trkpt lat="44.57547058778164" lon="10.166073238961973"><ele>837.0</ele><time>2026-03-28T08:32:40Z</time></trkpt><trkpt lat="44.57538054243096" lon="10.166220543506935"><ele>835.75</ele><time>2026-03-28T08:32:41Z</time></trkpt><trkpt lat="44.57527282190699" lon="10.16630201770128"><ele>834.5</ele><time>2026-03-28T08:32:42Z</time></trkpt><trkpt lat="44.57516099740848" lon="10.166330529721497"><ele>833.25</ele><time>2026-03-28T08:32:43Z</time></trkpt><trkpt lat="44.575058894777804" lon="10.16641345865345"><ele>832.0</ele><time>2026-03-28T08:32:44Z</time></trkpt><trkpt lat="44.5749761847282" lon="10.166556474490754"><ele>832.0</ele><time>2026-03-28T08:32:45Z</time></trkpt><trkpt lat="44.57491902043346" lon="10.1667830256251"><ele>832.0</ele><time>2026-03-28T08:32:46Z</time></trkpt><trkpt lat="44.57486510418329" lon="10.167048124268167"><ele>832.0</ele><time>2026-03-28T08:32:47Z</time></trkpt><trkpt lat="44.574802881626496" lon="10.167296563096508"><ele>831.0</ele><time>2026-03-28T08:32:48Z</time></trkpt><trkpt lat="44.574729194440515" lon="10.167515746757704"><ele>830.0</ele><time>2026-03-28T08:32:49Z</time></trkpt><trkpt lat="44.574628946730385" lon="10.167666228800698"><ele>829.0</ele><time>2026-03-28T08:32:50Z</time></trkpt><trkpt lat="44.57452099508694" lon="10.167769702104142"><ele>829.0</ele><time>2026-03-28T08:32:51Z</time></trkpt><trkpt lat="44.574395516163506" lon="10.167847402779037"><ele>829.0</ele><time>2026-03-28T08:32:52Z</time></trkpt><trkpt lat="44.5742638421404" lon="10.167955753740937"><ele>829.0</ele><time>2026-03-28T08:32:53Z</time></trkpt><trkpt lat="44.57412443772619" lon="10.168034116887663"><ele>829.0</ele><time>2026-03-28T08:32:54Z</time></trkpt><trkpt lat="44.573991130995886" lon="10.168124932261437"><ele>831.75</ele><time>2026-03-28T08:32:55Z</time></trkpt><trkpt lat="44.57386161921758" lon="10.168223509093853"><ele>834.5</ele><time>2026-03-28T08:32:56Z</time></trkpt><trkpt lat="44.57374371095445" lon="10.168316710461346"><ele>837.25</ele><time>2026-03-28T08:32:57Z</time></trkpt><trkpt lat="44.57365822142801" lon="10.168388021779814"><ele>840.0</ele><time>2026-03-28T08:32:58Z</time></trkpt><trkpt lat="44.5736127593879" lon="10.168468259284001"><ele>840.0</ele><time>2026-03-28T08:32:59Z</time></trkpt><trkpt lat="44.5735928468238" lon="10.168570228353353"><ele>840.0</ele><time>2026-03-28T08:33:00Z</time></trkpt><trkpt lat="44.573590791691984" lon="10.168680506500236"><ele>840.0</ele><time>2026-03-28T08:33:01Z</time></trkpt><trkpt lat="44.57360180400628" lon="10.168805189065994"><ele>840.0</ele><time>2026-03-28T08:33:02Z</time></trkpt><trkpt lat="44.573636961930525" lon="10.168936977968078"><ele>840.0</ele><time>2026-03-28T08:33:03Z</time></trkpt><trkpt lat="44.57370651849807" lon="10.16907055461098"><ele>845.0</ele><time>2026-03-28T08:33:04Z</time></trkpt><trkpt lat="44.573795689346355" lon="10.169221204619308"><ele>850.0</ele><time>2026-03-28T08:33:05Z</time></trkpt><trkpt lat="44.57388592112688" lon="10.16939055077484"><ele>855.0</ele><time>2026-03-28T08:33:06Z</time></trkpt><trkpt lat="44.573979600727604" lon="10.169576623405783"><ele>855.0</ele><time>2026-03-28T08:33:07Z</time></trkpt><trkpt lat="44.57407207570267" lon="10.169759605561065"><ele>855.0</ele><time>2026-03-28T08:33:08Z</time></trkpt><trkpt lat="44.574159885803496" lon="10.169925932557724"><ele>855.0</ele><time>2026-03-28T08:33:09Z</time></trkpt><trkpt lat="44.57424270731327" lon="10.170084520994951"><ele>855.0</ele><time>2026-03-28T08:33:10Z</time></trkpt><trkpt lat="44.57432050899943" lon="10.170240512649338"><ele>856.6666666666667</ele><time>2026-03-28T08:33:11Z</time></trkpt><trkpt lat="44.5744046297571" lon="10.170410079637804"><ele>858.3333333333334</ele><time>2026-03-28T08:33:12Z</time></trkpt><trkpt lat="44.57449694890845" lon="10.170593258333808"><ele>860.0</ele><time>2026-03-28T08:33:13Z</time></trkpt><trkpt lat="44.57458602098343" lon="10.170763126495155"><ele>860.0</ele><time>2026-03-28T08:33:14Z</time></trkpt><trkpt lat="44.57465851167594" lon="10.170922963265905"><ele>860.0</ele><time>2026-03-28T08:33:15Z</time></trkpt><trkpt lat="44.57466353411652" lon="10.171085946219124"><ele>860.0</ele><time>2026-03-28T08:33:16Z</time></trkpt><trkpt lat="44.5746156419125" lon="10.17125497081362"><ele>860.0</ele><time>2026-03-28T08:33:17Z</time></trkpt><trkpt lat="44.574535637344944" lon="10.171437493523111"><ele>849.0</ele><time>2026-03-28T08:33:18Z</time></trkpt><trkpt lat="44.57448137968813" lon="10.171654129179954"><ele>838.0</ele><time>2026-03-28T08:33:19Z</time></trkpt><trkpt lat="44.57444590660644" lon="10.171889916107714"><ele>827.0</ele><time>2026-03-28T08:33:20Z</time></trkpt><trkpt lat="44.57443080617961" lon="10.172120492970057"><ele>827.0</ele><time>2026-03-28T08:33:21Z</time></trkpt><trkpt lat="44.57441936804953" lon="10.172318326177807"><ele>827.0</ele><time>2026-03-28T08:33:22Z</time></trkpt><trkpt lat="44.57444274392599" lon="10.172482273517343"><ele>827.0</ele><time>2026-03-28T08:33:23Z</time></trkpt><trkpt lat="44.57451965255313" lon="10.17263950499577"><ele>827.0</ele><time>2026-03-28T08:33:24Z</time></trkpt><trkpt lat="44.57464971367133" lon="10.172798710790266"><ele>827.0</ele><time>2026-03-28T08:33:25Z</time></trkpt><trkpt lat="44.57478308812596" lon="10.172947937455964"><ele>827.0</ele><time>2026-03-28T08:33:26Z</time></trkpt><trkpt lat="44.574847635195326" lon="10.173128911028885"><ele>827.0</ele><time>2026-03-28T08:33:27Z</time></trkpt><trkpt lat="44.574862716660974" lon="10.173326110018728"><ele>827.0</ele><time>2026-03-28T08:33:28Z</time></trkpt><trkpt lat="44.57488006921419" lon="10.173569268379275"><ele>827.0</ele><time>2026-03-28T08:33:29Z</time></trkpt><trkpt lat="44.574902069857536" lon="10.173821097180834"><ele>827.0</ele><time>2026-03-28T08:33:30Z</time></trkpt><trkpt lat="44.574914035439974" lon="10.174120108735385"><ele>826.0</ele><time>2026-03-28T08:33:31Z</time></trkpt><trkpt lat="44.57493421100689" lon="10.174424786160248"><ele>825.0</ele><time>2026-03-28T08:33:32Z</time></trkpt><trkpt lat="44.574956762152105" lon="10.174732395886647"><ele>824.0</ele><time>2026-03-28T08:33:33Z</time></trkpt><trkpt lat="44.57497956322705" lon="10.17500972940649"><ele>821.3333333333334</ele><time>2026-03-28T08:33:34Z</time></trkpt><trkpt lat="44.57499426809334" lon="10.175270038998814"><ele>818.6666666666667</ele><time>2026-03-28T08:33:35Z</time></trkpt><trkpt lat="44.57500820286287" lon="10.17550865665274"><ele>816.0</ele><time>2026-03-28T08:33:36Z</time></trkpt><trkpt lat="44.575044202680886" lon="10.175703127433778"><ele>813.0</ele><time>2026-03-28T08:33:37Z</time></trkpt><trkpt lat="44.575124298962024" lon="10.175833333165942"><ele>810.0</ele><time>2026-03-28T08:33:38Z</time></trkpt><trkpt lat="44.57525722131978" lon="10.175942776174587"><ele>807.0</ele><time>2026-03-28T08:33:39Z</time></trkpt><trkpt lat="44.575401998420276" lon="10.176063859239612"><ele>804.0</ele><time>2026-03-28T08:33:40Z</time></trkpt><trkpt lat="44.575512541452774" lon="10.176207374000796"><ele>809.3333333333333</ele><time>2026-03-28T08:33:41Z</time></trkpt><trkpt lat="44.57557239208198" lon="10.176400597179898"><ele>814.6666666666666</ele><time>2026-03-28T08:33:42Z</time></trkpt><trkpt lat="44.57560255122709" lon="10.176625054430813"><ele>820.0</ele><time>2026-03-28T08:33:43Z</time></trkpt><trkpt lat="44.57557288698469" lon="10.176865697241915"><ele>820.0</ele><time>2026-03-28T08:33:44Z</time></trkpt><trkpt lat="44.575501804001796" lon="10.177105226732174"><ele>820.0</ele><time>2026-03-28T08:33:45Z</time></trkpt><trkpt lat="44.57541142984416" lon="10.177364218240317"><ele>820.0</ele><time>2026-03-28T08:33:46Z</time></trkpt><trkpt lat="44.57533473162539" lon="10.177622336088621"><ele>809.6666666666666</ele><time>2026-03-28T08:33:47Z</time></trkpt><trkpt lat="44.575253721215994" lon="10.177849213376607"><ele>799.3333333333333</ele><time>2026-03-28T08:33:48Z</time></trkpt><trkpt lat="44.57520265655611" lon="10.178068790103525"><ele>789.0</ele><time>2026-03-28T08:33:49Z</time></trkpt><trkpt lat="44.575180666613875" lon="10.178329863078234"><ele>787.0</ele><time>2026-03-28T08:33:50Z</time></trkpt><trkpt lat="44.57519691590564" lon="10.178652965305552"><ele>785.0</ele><time>2026-03-28T08:33:51Z</time></trkpt><trkpt lat="44.57521039457212" lon="10.178974969626642"><ele>782.3333333333334</ele><time>2026-03-28T08:33:52Z</time></trkpt><trkpt lat="44.57521889143576" lon="10.179277484872593"><ele>779.6666666666667</ele><time>2026-03-28T08:33:53Z</time></trkpt><trkpt lat="44.575221843009295" lon="10.179584235974197"><ele>777.0</ele><time>2026-03-28T08:33:54Z</time></trkpt><trkpt lat="44.57522370696396" lon="10.179880208859707"><ele>776.0</ele><time>2026-03-28T08:33:55Z</time></trkpt><trkpt lat="44.57522679110216" lon="10.180147698914027"><ele>775.0</ele><time>2026-03-28T08:33:56Z</time></trkpt><trkpt lat="44.57520064330394" lon="10.180381217708552"><ele>774.0</ele><time>2026-03-28T08:33:57Z</time></trkpt><trkpt lat="44.5751464111019" lon="10.180576186199382"><ele>775.3333333333333</ele><time>2026-03-28T08:33:58Z</time></trkpt><trkpt lat="44.57503018333201" lon="10.180751485027013"><ele>776.6666666666666</ele><time>2026-03-28T08:33:59Z</time></trkpt><trkpt lat="44.57490113907803" lon="10.18098419845869"><ele>778.0</ele><time>2026-03-28T08:34:00Z</time></trkpt><trkpt lat="44.574789957115605" lon="10.181216973828361"><ele>778.0</ele><time>2026-03-28T08:34:01Z</time></trkpt><trkpt lat="44.574694047195344" lon="10.181457929601017"><ele>778.0</ele><time>2026-03-28T08:34:02Z</time></trkpt><trkpt lat="44.57461557629244" lon="10.181683659531446"><ele>778.0</ele><time>2026-03-28T08:34:03Z</time></trkpt><trkpt lat="44.57450783493497" lon="10.181831319694982"><ele>771.75</ele><time>2026-03-28T08:34:04Z</time></trkpt><trkpt lat="44.574429747948116" lon="10.181993460362222"><ele>765.5</ele><time>2026-03-28T08:34:05Z</time></trkpt><trkpt lat="44.57436973748735" lon="10.182162780335398"><ele>759.25</ele><time>2026-03-28T08:34:06Z</time></trkpt><trkpt lat="44.574342076503356" lon="10.182375354104853"><ele>753.0</ele><time>2026-03-28T08:34:07Z</time></trkpt><trkpt lat="44.57432689224034" lon="10.182613042138222"><ele>753.0</ele><time>2026-03-28T08:34:08Z</time></trkpt><trkpt lat="44.57432627636386" lon="10.18284620049979"><ele>753.0</ele><time>2026-03-28T08:34:09Z</time></trkpt><trkpt lat="44.574360503984366" lon="10.183094353967972"><ele>753.0</ele><time>2026-03-28T08:34:10Z</time></trkpt><trkpt lat="44.57442474690707" lon="10.18337007051433"><ele>753.0</ele><time>2026-03-28T08:34:11Z</time></trkpt><trkpt lat="44.57449919770023" lon="10.183671092200427"><ele>753.0</ele><time>2026-03-28T08:34:12Z</time></trkpt><trkpt lat="44.5745653926855" lon="10.183979947876708"><ele>754.0</ele><time>2026-03-28T08:34:13Z</time></trkpt><trkpt lat="44.574628283178114" lon="10.184286148064272"><ele>755.0</ele><time>2026-03-28T08:34:14Z</time></trkpt><trkpt lat="44.574683403654866" lon="10.18457891598805"><ele>756.0</ele><time>2026-03-28T08:34:15Z</time></trkpt><trkpt lat="44.57474061322201" lon="10.184865485676548"><ele>756.0</ele><time>2026-03-28T08:34:16Z</time></trkpt><trkpt lat="44.574801976428176" lon="10.185159478688824"><ele>756.0</ele><time>2026-03-28T08:34:17Z</time></trkpt><trkpt lat="44.57486256647675" lon="10.185433827413469"><ele>756.0</ele><time>2026-03-28T08:34:18Z</time></trkpt><trkpt lat="44.57490882007695" lon="10.185678023997918"><ele>754.5</ele><time>2026-03-28T08:34:19Z</time></trkpt><trkpt lat="44.5749096244728" lon="10.185881737227822"><ele>753.0</ele><time>2026-03-28T08:34:20Z</time></trkpt><trkpt lat="44.57486008250545" lon="10.186061711441106"><ele>751.5</ele><time>2026-03-28T08:34:21Z</time></trkpt><trkpt lat="44.57478379407454" lon="10.186201279371216"><ele>750.0</ele><time>2026-03-28T08:34:22Z</time></trkpt><trkpt lat="44.57474660807677" lon="10.18628147568078"><ele>750.0</ele><time>2026-03-28T08:34:23Z</time></trkpt><trkpt lat="44.574719602390026" lon="10.186388410792906"><ele>750.0</ele><time>2026-03-28T08:34:26Z</time></trkpt><trkpt lat="44.574688855709184" lon="10.186509284147863"><ele>750.0</ele><time>2026-03-28T08:34:28Z</time></trkpt><trkpt lat="44.57467873973902" lon="10.186610833620893"><ele>750.0</ele><time>2026-03-28T08:34:30Z</time></trkpt><trkpt lat="44.57468439068757" lon="10.186716524817916"><ele>750.0</ele><time>2026-03-28T08:34:34Z</time></trkpt><trkpt lat="44.574696676304825" lon="10.186809736387078"><ele>750.0</ele><time>2026-03-28T08:34:37Z</time></trkpt><trkpt lat="44.57471914082393" lon="10.18691449399665"><ele>749.6</ele><time>2026-03-28T08:34:54Z</time></trkpt><trkpt lat="44.57474001455573" lon="10.187035473933234"><ele>749.2</ele><time>2026-03-28T08:34:59Z</time></trkpt><trkpt lat="44.574758211535205" lon="10.187165507075806"><ele>748.8</ele><time>2026-03-28T08:35:02Z</time></trkpt><trkpt lat="44.574765658322896" lon="10.18727532156791"><ele>748.4</ele><time>2026-03-28T08:35:04Z</time></trkpt><trkpt lat="44.57477918380399" lon="10.187409814283749"><ele>748.0</ele><time>2026-03-28T08:35:06Z</time></trkpt><trkpt lat="44.57478190048475" lon="10.187580391282667"><ele>746.4</ele><time>2026-03-28T08:35:08Z</time></trkpt><trkpt lat="44.57476828785277" lon="10.187752747306066"><ele>744.8</ele><time>2026-03-28T08:35:10Z</time></trkpt><trkpt lat="44.574733679307656" lon="10.187852145211863"><ele>743.2</ele><time>2026-03-28T08:35:11Z</time></trkpt><trkpt lat="44.5746967272573" lon="10.187984015124016"><ele>741.6</ele><time>2026-03-28T08:35:12Z</time></trkpt><trkpt lat="44.574657699550166" lon="10.188134057499257"><ele>740.0</ele><time>2026-03-28T08:35:13Z</time></trkpt><trkpt lat="44.57461826416592" lon="10.188293741779221"><ele>739.1666666666666</ele><time>2026-03-28T08:35:14Z</time></trkpt><trkpt lat="44.57458687151656" lon="10.188418885575073"><ele>738.3333333333333</ele><time>2026-03-28T08:35:15Z</time></trkpt><trkpt lat="44.574561079355455" lon="10.18851347542014"><ele>737.5</ele><time>2026-03-28T08:35:16Z</time></trkpt><trkpt lat="44.574547121826264" lon="10.188629260441587"><ele>736.6666666666666</ele><time>2026-03-28T08:35:18Z</time></trkpt><trkpt lat="44.574530909309935" lon="10.188763085911898"><ele>735.8333333333334</ele><time>2026-03-28T08:36:46Z</time></trkpt><trkpt lat="44.57452811217858" lon="10.18886451163013"><ele>735.0</ele><time>2026-03-28T08:36:47Z</time></trkpt><trkpt lat="44.574525134005896" lon="10.18900485948169"><ele>729.0</ele><time>2026-03-28T08:36:48Z</time></trkpt><trkpt lat="44.574521151219706" lon="10.189147341863976"><ele>723.0</ele><time>2026-03-28T08:36:49Z</time></trkpt><trkpt lat="44.57451408363802" lon="10.189304366840298"><ele>717.0</ele><time>2026-03-28T08:36:50Z</time></trkpt><trkpt lat="44.57450427370696" lon="10.189472339751982"><ele>711.0</ele><time>2026-03-28T08:36:51Z</time></trkpt><trkpt lat="44.57449037509898" lon="10.189639258224538"><ele>711.0</ele><time>2026-03-28T08:36:52Z</time></trkpt><trkpt lat="44.57444391974337" lon="10.189809530788533"><ele>711.0</ele><time>2026-03-28T08:36:53Z</time></trkpt><trkpt lat="44.57433810354841" lon="10.189972113327661"><ele>711.0</ele><time>2026-03-28T08:36:54Z</time></trkpt><trkpt lat="44.57424849097047" lon="10.190149200621848"><ele>711.0</ele><time>2026-03-28T08:36:55Z</time></trkpt><trkpt lat="44.574163520944374" lon="10.190311453382042"><ele>711.3333333333334</ele><time>2026-03-28T08:36:56Z</time></trkpt><trkpt lat="44.57409753775737" lon="10.190509287238044"><ele>711.6666666666667</ele><time>2026-03-28T08:36:57Z</time></trkpt><trkpt lat="44.57405708978977" lon="10.190741194669364"><ele>712.0</ele><time>2026-03-28T08:36:58Z</time></trkpt><trkpt lat="44.574015717877444" lon="10.190969318528849"><ele>713.0</ele><time>2026-03-28T08:36:59Z</time></trkpt><trkpt lat="44.57396960988546" lon="10.191178709918724"><ele>714.0</ele><time>2026-03-28T08:37:00Z</time></trkpt><trkpt lat="44.57392040005334" lon="10.191379684696416"><ele>715.0</ele><time>2026-03-28T08:37:01Z</time></trkpt><trkpt lat="44.57387592838012" lon="10.191568992136162"><ele>716.0</ele><time>2026-03-28T08:37:02Z</time></trkpt><trkpt lat="44.57383004042565" lon="10.191773187309503"><ele>716.6666666666666</ele><time>2026-03-28T08:37:03Z</time></trkpt><trkpt lat="44.57378763023702" lon="10.192000825423227"><ele>717.3333333333334</ele><time>2026-03-28T08:37:04Z</time></trkpt><trkpt lat="44.573745584140724" lon="10.192234472819184"><ele>718.0</ele><time>2026-03-28T08:37:05Z</time></trkpt><trkpt lat="44.57370076228307" lon="10.19246693102933"><ele>712.3333333333334</ele><time>2026-03-28T08:37:06Z</time></trkpt><trkpt lat="44.57364850007241" lon="10.192697780341538"><ele>706.6666666666666</ele><time>2026-03-28T08:37:07Z</time></trkpt><trkpt lat="44.573608205007645" lon="10.192929939275745"><ele>701.0</ele><time>2026-03-28T08:37:08Z</time></trkpt><trkpt lat="44.573561446009826" lon="10.193154503782873"><ele>701.6666666666666</ele><time>2026-03-28T08:37:09Z</time></trkpt><trkpt lat="44.573511019125576" lon="10.193386111393313"><ele>702.3333333333334</ele><time>2026-03-28T08:37:10Z</time></trkpt><trkpt lat="44.57345990130383" lon="10.193603095453254"><ele>703.0</ele><time>2026-03-28T08:37:11Z</time></trkpt><trkpt lat="44.57340430006653" lon="10.193823843202948"><ele>704.0</ele><time>2026-03-28T08:37:12Z</time></trkpt><trkpt lat="44.573343517445004" lon="10.194050942480771"><ele>705.0</ele><time>2026-03-28T08:37:13Z</time></trkpt><trkpt lat="44.57326670115911" lon="10.194279380596306"><ele>706.0</ele><time>2026-03-28T08:37:14Z</time></trkpt><trkpt lat="44.57316658709" lon="10.194500951511976"><ele>706.0</ele><time>2026-03-28T08:37:15Z</time></trkpt><trkpt lat="44.573060105784656" lon="10.194713435807861"><ele>706.0</ele><time>2026-03-28T08:37:16Z</time></trkpt><trkpt lat="44.572974779199875" lon="10.194913805012087"><ele>706.0</ele><time>2026-03-28T08:37:17Z</time></trkpt><trkpt lat="44.57291430599496" lon="10.195112232295454"><ele>702.5</ele><time>2026-03-28T08:37:18Z</time></trkpt><trkpt lat="44.572847968076054" lon="10.195282980518801"><ele>699.0</ele><time>2026-03-28T08:37:19Z</time></trkpt><trkpt lat="44.57273581850922" lon="10.19539191037775"><ele>695.5</ele><time>2026-03-28T08:37:20Z</time></trkpt><trkpt lat="44.57259947231331" lon="10.195474779126153"><ele>692.0</ele><time>2026-03-28T08:37:21Z</time></trkpt><trkpt lat="44.57244566494703" lon="10.195555219824037"><ele>692.0</ele><time>2026-03-28T08:37:22Z</time></trkpt><trkpt lat="44.57228695181843" lon="10.195652751670766"><ele>692.0</ele><time>2026-03-28T08:37:23Z</time></trkpt><trkpt lat="44.57213597114546" lon="10.195740152715064"><ele>692.0</ele><time>2026-03-28T08:37:24Z</time></trkpt><trkpt lat="44.57202026287693" lon="10.195862457720844"><ele>690.6666666666666</ele><time>2026-03-28T08:37:25Z</time></trkpt><trkpt lat="44.571910792764136" lon="10.196040826796812"><ele>689.3333333333334</ele><time>2026-03-28T08:37:26Z</time></trkpt><trkpt lat="44.571812100423244" lon="10.196247437641006"><ele>688.0</ele><time>2026-03-28T08:37:27Z</time></trkpt><trkpt lat="44.57170924996018" lon="10.196444377717539"><ele>690.6666666666667</ele><time>2026-03-28T08:37:28Z</time></trkpt><trkpt lat="44.57161071041077" lon="10.196639346056598"><ele>693.3333333333334</ele><time>2026-03-28T08:37:29Z</time></trkpt><trkpt lat="44.57151235329616" lon="10.196828744860067"><ele>696.0</ele><time>2026-03-28T08:37:30Z</time></trkpt><trkpt lat="44.57141823315014" lon="10.196999363341883"><ele>696.0</ele><time>2026-03-28T08:37:31Z</time></trkpt><trkpt lat="44.57133522019751" lon="10.197143996622998"><ele>696.0</ele><time>2026-03-28T08:37:32Z</time></trkpt><trkpt lat="44.571283160420506" lon="10.19726248415258"><ele>696.0</ele><time>2026-03-28T08:37:33Z</time></trkpt><trkpt lat="44.57126063990077" lon="10.197365310311335"><ele>696.0</ele><time>2026-03-28T08:37:34Z</time></trkpt><trkpt lat="44.571229794635734" lon="10.197471008574443"><ele>696.0</ele><time>2026-03-28T08:37:36Z</time></trkpt><trkpt lat="44.57113929686638" lon="10.197558770777418"><ele>693.25</ele><time>2026-03-28T08:37:37.999Z</time></trkpt><trkpt lat="44.571066885596785" lon="10.197656409446695"><ele>690.5</ele><time>2026-03-28T08:37:38.999Z</time></trkpt><trkpt lat="44.570977991840735" lon="10.197774976855616"><ele>687.75</ele><time>2026-03-28T08:37:39.999Z</time></trkpt><trkpt lat="44.5708666308374" lon="10.197864397530683"><ele>685.0</ele><time>2026-03-28T08:37:40.999Z</time></trkpt><trkpt lat="44.570763208949295" lon="10.197946308684887"><ele>685.0</ele><time>2026-03-28T08:37:41.999Z</time></trkpt><trkpt lat="44.5706612126102" lon="10.198003166001435"><ele>685.0</ele><time>2026-03-28T08:37:42.999Z</time></trkpt><trkpt lat="44.570558604429586" lon="10.198010041645631"><ele>685.0</ele><time>2026-03-28T08:37:43.999Z</time></trkpt><trkpt lat="44.57045821139814" lon="10.197968245205825"><ele>685.0</ele><time>2026-03-28T08:37:44.999Z</time></trkpt><trkpt lat="44.57036884450849" lon="10.197868717552971"><ele>685.0</ele><time>2026-03-28T08:37:45.999Z</time></trkpt><trkpt lat="44.570289688782964" lon="10.197720870526732"><ele>683.8333333333334</ele><time>2026-03-28T08:37:46.999Z</time></trkpt><trkpt lat="44.570202140515256" lon="10.19761973354049"><ele>682.6666666666667</ele><time>2026-03-28T08:37:47.999Z</time></trkpt><trkpt lat="44.570138914991375" lon="10.197569077565827"><ele>681.5</ele><time>2026-03-28T08:37:48.999Z</time></trkpt><trkpt lat="44.57006297130811" lon="10.197574943742312"><ele>680.3333333333334</ele><time>2026-03-28T08:37:49.999Z</time></trkpt><trkpt lat="44.5699981641428" lon="10.197617051167038"><ele>679.1666666666666</ele><time>2026-03-28T08:37:50.999Z</time></trkpt><trkpt lat="44.56991242829427" lon="10.197643163139038"><ele>678.0</ele><time>2026-03-28T08:37:51.999Z</time></trkpt><trkpt lat="44.56980379525931" lon="10.197688188831606"><ele>678.0</ele><time>2026-03-28T08:37:52.999Z</time></trkpt><trkpt lat="44.56965504094885" lon="10.197741995286425"><ele>678.0</ele><time>2026-03-28T08:37:53.999Z</time></trkpt><trkpt lat="44.569500572583635" lon="10.197794917711091"><ele>678.0</ele><time>2026-03-28T08:37:54.999Z</time></trkpt><trkpt lat="44.56934879601237" lon="10.19784903434245"><ele>673.6666666666666</ele><time>2026-03-28T08:37:55.999Z</time></trkpt><trkpt lat="44.569210778634016" lon="10.197936480826774"><ele>669.3333333333333</ele><time>2026-03-28T08:37:56.999Z</time></trkpt><trkpt lat="44.56907927209861" lon="10.198029649270518"><ele>665.0</ele><time>2026-03-28T08:37:57.999Z</time></trkpt><trkpt lat="44.56892977999879" lon="10.198090941636961"><ele>665.0</ele><time>2026-03-28T08:37:59Z</time></trkpt><trkpt lat="44.56878544322124" lon="10.198131085819751"><ele>665.0</ele><time>2026-03-28T08:38:00Z</time></trkpt><trkpt lat="44.568659169182965" lon="10.198198886632154"><ele>665.0</ele><time>2026-03-28T08:38:01Z</time></trkpt><trkpt lat="44.56855841622987" lon="10.19826624385215"><ele>665.0</ele><time>2026-03-28T08:38:02Z</time></trkpt><trkpt lat="44.568495618152255" lon="10.198401755753947"><ele>662.6666666666666</ele><time>2026-03-28T08:38:03Z</time></trkpt><trkpt lat="44.56843059162663" lon="10.198586919539993"><ele>660.3333333333334</ele><time>2026-03-28T08:38:04Z</time></trkpt><trkpt lat="44.56835205768305" lon="10.19878532938132"><ele>658.0</ele><time>2026-03-28T08:38:05Z</time></trkpt><trkpt lat="44.56828055962236" lon="10.198959687181386"><ele>659.75</ele><time>2026-03-28T08:38:06Z</time></trkpt><trkpt lat="44.56822295397978" lon="10.19912505642742"><ele>661.5</ele><time>2026-03-28T08:38:07Z</time></trkpt><trkpt lat="44.568184440185746" lon="10.199315312010333"><ele>663.25</ele><time>2026-03-28T08:38:08Z</time></trkpt><trkpt lat="44.56813375545663" lon="10.199507465766292"><ele>665.0</ele><time>2026-03-28T08:38:09Z</time></trkpt><trkpt lat="44.568091313281585" lon="10.199677619092467"><ele>665.0</ele><time>2026-03-28T08:38:10Z</time></trkpt><trkpt lat="44.56805347548721" lon="10.199774823954751"><ele>665.0</ele><time>2026-03-28T08:38:11Z</time></trkpt><trkpt lat="44.56797880057215" lon="10.199787649743712"><ele>665.0</ele><time>2026-03-28T08:38:13Z</time></trkpt><trkpt lat="44.56791027160397" lon="10.199649310752811"><ele>665.0</ele><time>2026-03-28T08:38:15Z</time></trkpt><trkpt lat="44.5678403462068" lon="10.199508227746962"><ele>665.0</ele><time>2026-03-28T08:38:16Z</time></trkpt><trkpt lat="44.56777584311436" lon="10.199319425093085"><ele>660.0</ele><time>2026-03-28T08:38:17Z</time></trkpt><trkpt lat="44.56770184903672" lon="10.199139619909708"><ele>655.0</ele><time>2026-03-28T08:38:18Z</time></trkpt><trkpt lat="44.567632015146856" lon="10.198983095644795"><ele>650.0</ele><time>2026-03-28T08:38:19Z</time></trkpt><trkpt lat="44.567582180432375" lon="10.198855692360507"><ele>645.0</ele><time>2026-03-28T08:38:20Z</time></trkpt><trkpt lat="44.56754000465043" lon="10.198776849547365"><ele>645.0</ele><time>2026-03-28T08:38:21Z</time></trkpt><trkpt lat="44.56746470178138" lon="10.198770975642173"><ele>645.0</ele><time>2026-03-28T08:38:24Z</time></trkpt><trkpt lat="44.567367236610124" lon="10.198870992499742"><ele>645.0</ele><time>2026-03-28T08:38:26Z</time></trkpt><trkpt lat="44.56731990298291" lon="10.19900192309244"><ele>645.0</ele><time>2026-03-28T08:38:27Z</time></trkpt><trkpt lat="44.56727936662131" lon="10.199153887784725"><ele>645.0</ele><time>2026-03-28T08:38:28Z</time></trkpt><trkpt lat="44.56725716262478" lon="10.199286110220958"><ele>645.0</ele><time>2026-03-28T08:38:29Z</time></trkpt><trkpt lat="44.56727293173198" lon="10.199439362031345"><ele>645.0</ele><time>2026-03-28T08:38:30Z</time></trkpt><trkpt lat="44.567310551055684" lon="10.199567079567581"><ele>645.0</ele><time>2026-03-28T08:38:31Z</time></trkpt><trkpt lat="44.56734637294011" lon="10.199647065937814"><ele>645.0</ele><time>2026-03-28T08:38:32Z</time></trkpt><trkpt lat="44.5673664618463" lon="10.199754449490307"><ele>645.0</ele><time>2026-03-28T08:38:35Z</time></trkpt><trkpt lat="44.56735385538883" lon="10.199842649520034"><ele>645.0</ele><time>2026-03-28T08:38:47Z</time></trkpt><trkpt lat="44.56724257351841" lon="10.199672211573699"><ele>645.0</ele><time>2026-03-28T08:39:01Z</time></trkpt><trkpt lat="44.56718152748724" lon="10.199560709032335"><ele>645.0</ele><time>2026-03-28T08:39:02Z</time></trkpt><trkpt lat="44.56710468610468" lon="10.199413282581366"><ele>645.0</ele><time>2026-03-28T08:39:03Z</time></trkpt><trkpt lat="44.56699425606274" lon="10.199253567832637"><ele>645.0</ele><time>2026-03-28T08:39:04Z</time></trkpt><trkpt lat="44.566906947970374" lon="10.199154051134913"><ele>641.4</ele><time>2026-03-28T08:39:05Z</time></trkpt><trkpt lat="44.566802369641756" lon="10.19909538170862"><ele>637.8</ele><time>2026-03-28T08:39:06Z</time></trkpt><trkpt lat="44.56673461372329" lon="10.19903337538768"><ele>634.2</ele><time>2026-03-28T08:39:07Z</time></trkpt><trkpt lat="44.56664132735536" lon="10.198992165382311"><ele>630.6</ele><time>2026-03-28T08:39:08Z</time></trkpt><trkpt lat="44.56656844823995" lon="10.198866437753072"><ele>627.0</ele><time>2026-03-28T08:39:09Z</time></trkpt><trkpt lat="44.566479900488666" lon="10.198696831252477"><ele>627.0</ele><time>2026-03-28T08:39:10Z</time></trkpt><trkpt lat="44.56639453780313" lon="10.19853158267675"><ele>627.0</ele><time>2026-03-28T08:39:11Z</time></trkpt><trkpt lat="44.566315550027674" lon="10.198402391998588"><ele>627.0</ele><time>2026-03-28T08:39:12Z</time></trkpt><trkpt lat="44.566258731741925" lon="10.19826666492469"><ele>627.0</ele><time>2026-03-28T08:39:13Z</time></trkpt><trkpt lat="44.56622036725784" lon="10.198126767497364"><ele>625.0</ele><time>2026-03-28T08:39:14Z</time></trkpt><trkpt lat="44.56621315000011" lon="10.198002388429817"><ele>623.0</ele><time>2026-03-28T08:39:15Z</time></trkpt><trkpt lat="44.56625536508704" lon="10.197819600806802"><ele>621.0</ele><time>2026-03-28T08:39:17Z</time></trkpt><trkpt lat="44.566305782563425" lon="10.197653441353706"><ele>619.0</ele><time>2026-03-28T08:39:18Z</time></trkpt><trkpt lat="44.56637037159854" lon="10.197510947602403"><ele>619.0</ele><time>2026-03-28T08:39:19Z</time></trkpt><trkpt lat="44.56641639647371" lon="10.197415793959339"><ele>619.0</ele><time>2026-03-28T08:39:20Z</time></trkpt><trkpt lat="44.56644084040098" lon="10.197276343367513"><ele>619.0</ele><time>2026-03-28T08:39:22Z</time></trkpt><trkpt lat="44.56634579706463" lon="10.197200291311018"><ele>619.0</ele><time>2026-03-28T08:39:23Z</time></trkpt><trkpt lat="44.56623738364558" lon="10.197161630881386"><ele>619.0</ele><time>2026-03-28T08:39:24Z</time></trkpt><trkpt lat="44.56610052396733" lon="10.197127380219262"><ele>614.5</ele><time>2026-03-28T08:39:25Z</time></trkpt><trkpt lat="44.565985062153445" lon="10.197079588647139"><ele>610.0</ele><time>2026-03-28T08:39:26Z</time></trkpt><trkpt lat="44.56587896141187" lon="10.197121461655277"><ele>605.5</ele><time>2026-03-28T08:39:27Z</time></trkpt><trkpt lat="44.565766617838534" lon="10.197192184032748"><ele>601.0</ele><time>2026-03-28T08:39:28Z</time></trkpt><trkpt lat="44.5656457592858" lon="10.197328279512003"><ele>599.3333333333334</ele><time>2026-03-28T08:39:29Z</time></trkpt><trkpt lat="44.565485590225464" lon="10.197419238145779"><ele>597.6666666666666</ele><time>2026-03-28T08:39:30Z</time></trkpt><trkpt lat="44.565311723687856" lon="10.197522270885573"><ele>596.0</ele><time>2026-03-28T08:39:31Z</time></trkpt><trkpt lat="44.565157594559246" lon="10.19762379371623"><ele>596.0</ele><time>2026-03-28T08:39:32Z</time></trkpt><trkpt lat="44.565023587909295" lon="10.19772859229411"><ele>596.0</ele><time>2026-03-28T08:39:33Z</time></trkpt><trkpt lat="44.56492836879465" lon="10.197848658814081"><ele>596.0</ele><time>2026-03-28T08:39:34Z</time></trkpt><trkpt lat="44.564868955871724" lon="10.19796117951115"><ele>596.0</ele><time>2026-03-28T08:39:35Z</time></trkpt><trkpt lat="44.564840449911316" lon="10.198103250154544"><ele>595.5</ele><time>2026-03-28T08:39:36Z</time></trkpt><trkpt lat="44.56484545145558" lon="10.198266041758593"><ele>595.0</ele><time>2026-03-28T08:39:37Z</time></trkpt><trkpt lat="44.564883759356334" lon="10.198434172309188"><ele>594.5</ele><time>2026-03-28T08:39:38Z</time></trkpt><trkpt lat="44.56496591082049" lon="10.198572747047473"><ele>594.0</ele><time>2026-03-28T08:39:39Z</time></trkpt><trkpt lat="44.56508456449572" lon="10.19870485276758"><ele>594.0</ele><time>2026-03-28T08:39:40Z</time></trkpt><trkpt lat="44.56516186422742" lon="10.198841775283999"><ele>594.0</ele><time>2026-03-28T08:39:41Z</time></trkpt><trkpt lat="44.565176239841115" lon="10.198960733984585"><ele>594.0</ele><time>2026-03-28T08:39:42Z</time></trkpt><trkpt lat="44.56516246302475" lon="10.199082174156468"><ele>594.0</ele><time>2026-03-28T08:39:43Z</time></trkpt><trkpt lat="44.56503432848332" lon="10.199160304753244"><ele>594.0</ele><time>2026-03-28T08:39:43.999Z</time></trkpt><trkpt lat="44.564928318099" lon="10.19930937479377"><ele>592.8</ele><time>2026-03-28T08:39:44.999Z</time></trkpt><trkpt lat="44.56486107815072" lon="10.199447245920778"><ele>591.5999999999999</ele><time>2026-03-28T08:39:45.999Z</time></trkpt><trkpt lat="44.56483697357119" lon="10.1995715845021"><ele>590.4</ele><time>2026-03-28T08:39:46.999Z</time></trkpt><trkpt lat="44.56486822973124" lon="10.199694901224637"><ele>589.1999999999999</ele><time>2026-03-28T08:39:47.999Z</time></trkpt><trkpt lat="44.56493855758443" lon="10.199837590567636"><ele>588.0</ele><time>2026-03-28T08:39:48.999Z</time></trkpt><trkpt lat="44.56492713731487" lon="10.199999584235156"><ele>588.0</ele><time>2026-03-28T08:39:49.999Z</time></trkpt><trkpt lat="44.56485106328549" lon="10.20016967420871"><ele>588.0</ele><time>2026-03-28T08:39:50.999Z</time></trkpt><trkpt lat="44.5647711005277" lon="10.200408923261556"><ele>588.0</ele><time>2026-03-28T08:39:51.999Z</time></trkpt><trkpt lat="44.564718177921364" lon="10.200608346995262"><ele>588.0</ele><time>2026-03-28T08:39:52.999Z</time></trkpt><trkpt lat="44.56466322758998" lon="10.200761296073491"><ele>588.0</ele><time>2026-03-28T08:39:53.999Z</time></trkpt><trkpt lat="44.564626654542984" lon="10.200930871189644"><ele>588.0</ele><time>2026-03-28T08:39:54.999Z</time></trkpt><trkpt lat="44.56459874028346" lon="10.201136959612805"><ele>588.0</ele><time>2026-03-28T08:39:55.999Z</time></trkpt><trkpt lat="44.56458376762588" lon="10.201342825980591"><ele>586.0</ele><time>2026-03-28T08:39:56.999Z</time></trkpt><trkpt lat="44.56458759026621" lon="10.20154299281937"><ele>584.0</ele><time>2026-03-28T08:39:57.999Z</time></trkpt><trkpt lat="44.564588690115436" lon="10.201731188330143"><ele>582.0</ele><time>2026-03-28T08:39:58.999Z</time></trkpt><trkpt lat="44.564545733579706" lon="10.201910281391296"><ele>580.0</ele><time>2026-03-28T08:39:59.999Z</time></trkpt><trkpt lat="44.56449281444804" lon="10.202103400589282"><ele>576.75</ele><time>2026-03-28T08:40:00.999Z</time></trkpt><trkpt lat="44.56446356181333" lon="10.20229461138662"><ele>573.5</ele><time>2026-03-28T08:40:01.999Z</time></trkpt><trkpt lat="44.56445243602089" lon="10.202477288139825"><ele>570.25</ele><time>2026-03-28T08:40:02.999Z</time></trkpt><trkpt lat="44.564486597277345" lon="10.202662045443317"><ele>567.0</ele><time>2026-03-28T08:40:03.999Z</time></trkpt><trkpt lat="44.564563171910955" lon="10.202858167899667"><ele>567.0</ele><time>2026-03-28T08:40:05Z</time></trkpt><trkpt lat="44.56463046984588" lon="10.203066684379174"><ele>567.0</ele><time>2026-03-28T08:40:06Z</time></trkpt><trkpt lat="44.56463706995654" lon="10.203277175415794"><ele>567.0</ele><time>2026-03-28T08:40:07Z</time></trkpt><trkpt lat="44.56461588715995" lon="10.20348278806041"><ele>564.5</ele><time>2026-03-28T08:40:08Z</time></trkpt><trkpt lat="44.564578669499234" lon="10.203700201728592"><ele>562.0</ele><time>2026-03-28T08:40:09Z</time></trkpt><trkpt lat="44.564554081548906" lon="10.20390886469685"><ele>559.5</ele><time>2026-03-28T08:40:10Z</time></trkpt><trkpt lat="44.56454658683056" lon="10.204079732386472"><ele>557.0</ele><time>2026-03-28T08:40:11Z</time></trkpt><trkpt lat="44.56458464081836" lon="10.204259370438614"><ele>555.5</ele><time>2026-03-28T08:40:12Z</time></trkpt><trkpt lat="44.56465234034581" lon="10.204433459111517"><ele>554.0</ele><time>2026-03-28T08:40:13Z</time></trkpt><trkpt lat="44.564656157518186" lon="10.204575904298297"><ele>552.5</ele><time>2026-03-28T08:40:14Z</time></trkpt><trkpt lat="44.564627036574805" lon="10.204696192434708"><ele>551.0</ele><time>2026-03-28T08:40:15Z</time></trkpt><trkpt lat="44.56459595655382" lon="10.204867300361833"><ele>550.1666666666666</ele><time>2026-03-28T08:40:16Z</time></trkpt><trkpt lat="44.5645844983835" lon="10.20503837569461"><ele>549.3333333333333</ele><time>2026-03-28T08:40:17Z</time></trkpt><trkpt lat="44.56455751827824" lon="10.20515937579489"><ele>548.5</ele><time>2026-03-28T08:40:18Z</time></trkpt><trkpt lat="44.56449288531713" lon="10.205202850230174"><ele>547.6666666666666</ele><time>2026-03-28T08:40:21Z</time></trkpt><trkpt lat="44.564464478027574" lon="10.205123139221271"><ele>546.8333333333334</ele><time>2026-03-28T08:40:22Z</time></trkpt><trkpt lat="44.56445448403938" lon="10.204982935581727"><ele>546.0</ele><time>2026-03-28T08:40:23Z</time></trkpt><trkpt lat="44.56442593126627" lon="10.204840797620522"><ele>544.0</ele><time>2026-03-28T08:40:24Z</time></trkpt><trkpt lat="44.56435551759661" lon="10.204750372378333"><ele>542.0</ele><time>2026-03-28T08:40:25Z</time></trkpt><trkpt lat="44.56423212845569" lon="10.204712760889013"><ele>540.0</ele><time>2026-03-28T08:40:26Z</time></trkpt><trkpt lat="44.56407458978542" lon="10.20473103470619"><ele>538.0</ele><time>2026-03-28T08:40:27Z</time></trkpt><trkpt lat="44.56391340142177" lon="10.204754475476452"><ele>538.0</ele><time>2026-03-28T08:40:28Z</time></trkpt><trkpt lat="44.563789932676976" lon="10.204750409997535"><ele>538.0</ele><time>2026-03-28T08:40:29Z</time></trkpt><trkpt lat="44.56370459476507" lon="10.204747953725494"><ele>538.0</ele><time>2026-03-28T08:40:30Z</time></trkpt><trkpt lat="44.563625095288884" lon="10.204722878576094"><ele>538.0</ele><time>2026-03-28T08:40:31Z</time></trkpt><trkpt lat="44.563563876838394" lon="10.204553536709934"><ele>538.0</ele><time>2026-03-28T08:40:32Z</time></trkpt><trkpt lat="44.56353525803249" lon="10.204356474692652"><ele>535.25</ele><time>2026-03-28T08:40:33Z</time></trkpt><trkpt lat="44.56352677947377" lon="10.204159003653876"><ele>532.5</ele><time>2026-03-28T08:40:34Z</time></trkpt><trkpt lat="44.56349313913558" lon="10.203985754240357"><ele>529.75</ele><time>2026-03-28T08:40:35Z</time></trkpt><trkpt lat="44.56341494756292" lon="10.203864179989932"><ele>527.0</ele><time>2026-03-28T08:40:36Z</time></trkpt><trkpt lat="44.5632684695749" lon="10.203764992547933"><ele>527.0</ele><time>2026-03-28T08:40:37Z</time></trkpt><trkpt lat="44.56309803400117" lon="10.203655734943423"><ele>527.0</ele><time>2026-03-28T08:40:38Z</time></trkpt><trkpt lat="44.56296663137867" lon="10.203523461142819"><ele>527.0</ele><time>2026-03-28T08:40:39Z</time></trkpt><trkpt lat="44.56283203507594" lon="10.203437672570058"><ele>523.5</ele><time>2026-03-28T08:40:40Z</time></trkpt><trkpt lat="44.56271630859219" lon="10.203318884400126"><ele>520.0</ele><time>2026-03-28T08:40:41Z</time></trkpt><trkpt lat="44.562593950232234" lon="10.203222553447743"><ele>516.5</ele><time>2026-03-28T08:40:42Z</time></trkpt><trkpt lat="44.562490141322705" lon="10.203121524257845"><ele>513.0</ele><time>2026-03-28T08:40:43Z</time></trkpt><trkpt lat="44.562418328960746" lon="10.2029959040793"><ele>513.0</ele><time>2026-03-28T08:40:44Z</time></trkpt><trkpt lat="44.56236906338577" lon="10.20285849977807"><ele>513.0</ele><time>2026-03-28T08:40:45Z</time></trkpt><trkpt lat="44.562316930301776" lon="10.20277244306903"><ele>513.0</ele><time>2026-03-28T08:40:46Z</time></trkpt><trkpt lat="44.562189519707786" lon="10.202750873874225"><ele>513.0</ele><time>2026-03-28T08:40:48Z</time></trkpt><trkpt lat="44.5621100671534" lon="10.202892440170796"><ele>513.0</ele><time>2026-03-28T08:40:49Z</time></trkpt><trkpt lat="44.562049166202804" lon="10.203043624195363"><ele>508.59999999999997</ele><time>2026-03-28T08:40:50Z</time></trkpt><trkpt lat="44.56200172221898" lon="10.203117295234364"><ele>504.19999999999993</ele><time>2026-03-28T08:40:51Z</time></trkpt><trkpt lat="44.561930594172104" lon="10.203088087876298"><ele>499.8</ele><time>2026-03-28T08:40:52Z</time></trkpt><trkpt lat="44.56188471371247" lon="10.20295339563424"><ele>495.4</ele><time>2026-03-28T08:40:53Z</time></trkpt><trkpt lat="44.56185112278986" lon="10.202769065511756"><ele>491.0</ele><time>2026-03-28T08:40:54Z</time></trkpt><trkpt lat="44.561756301476606" lon="10.202570965538735"><ele>491.0</ele><time>2026-03-28T08:40:55Z</time></trkpt><trkpt lat="44.56164501703782" lon="10.20238266572434"><ele>491.0</ele><time>2026-03-28T08:40:56Z</time></trkpt><trkpt lat="44.56154737957475" lon="10.202222497038965"><ele>491.0</ele><time>2026-03-28T08:40:57Z</time></trkpt><trkpt lat="44.56148049989578" lon="10.202059744087668"><ele>491.20000000000005</ele><time>2026-03-28T08:40:58Z</time></trkpt><trkpt lat="44.56144217184784" lon="10.201942565628"><ele>491.40000000000003</ele><time>2026-03-28T08:40:59Z</time></trkpt><trkpt lat="44.56132323054166" lon="10.201910890121985"><ele>491.6</ele><time>2026-03-28T08:41:01Z</time></trkpt><trkpt lat="44.56125191489377" lon="10.201995937808258"><ele>491.8</ele><time>2026-03-28T08:41:02Z</time></trkpt><trkpt lat="44.56118882760937" lon="10.20214277040172"><ele>492.0</ele><time>2026-03-28T08:41:03Z</time></trkpt><trkpt lat="44.56115189568815" lon="10.202318006075057"><ele>491.75</ele><time>2026-03-28T08:41:04Z</time></trkpt><trkpt lat="44.56117290844699" lon="10.20249081694995"><ele>491.5</ele><time>2026-03-28T08:41:05Z</time></trkpt><trkpt lat="44.56123982892279" lon="10.202656838888563"><ele>491.25</ele><time>2026-03-28T08:41:06Z</time></trkpt><trkpt lat="44.561297949765745" lon="10.202772482596108"><ele>491.0</ele><time>2026-03-28T08:41:07Z</time></trkpt><trkpt lat="44.56122800849625" lon="10.202934276254753"><ele>486.4</ele><time>2026-03-28T08:41:09Z</time></trkpt><trkpt lat="44.56110422195707" lon="10.202956667318132"><ele>481.8</ele><time>2026-03-28T08:41:10Z</time></trkpt><trkpt lat="44.561016514797515" lon="10.202956917007931"><ele>477.19999999999993</ele><time>2026-03-28T08:41:11Z</time></trkpt><trkpt lat="44.56096940641396" lon="10.202824720941258"><ele>472.59999999999997</ele><time>2026-03-28T08:41:12Z</time></trkpt><trkpt lat="44.560933260227834" lon="10.202688759828618"><ele>468.0</ele><time>2026-03-28T08:41:13Z</time></trkpt><trkpt lat="44.56089966050884" lon="10.202555479434688"><ele>468.0</ele><time>2026-03-28T08:41:14Z</time></trkpt><trkpt lat="44.56084400013231" lon="10.202486624656023"><ele>467.99999999999994</ele><time>2026-03-28T08:41:15Z</time></trkpt><trkpt lat="44.560773561583765" lon="10.20250846919034"><ele>467.99999999999994</ele><time>2026-03-28T08:41:16Z</time></trkpt><trkpt lat="44.56072201902661" lon="10.202609217962829"><ele>468.0</ele><time>2026-03-28T08:41:17Z</time></trkpt><trkpt lat="44.56070633782901" lon="10.202773158040685"><ele>468.0</ele><time>2026-03-28T08:41:18Z</time></trkpt><trkpt lat="44.560710627302605" lon="10.202972839595875"><ele>468.0</ele><time>2026-03-28T08:41:19Z</time></trkpt><trkpt lat="44.56071585963409" lon="10.203148439728997"><ele>468.0</ele><time>2026-03-28T08:41:20Z</time></trkpt><trkpt lat="44.56075100538178" lon="10.203264408974665"><ele>468.0</ele><time>2026-03-28T08:41:21Z</time></trkpt><trkpt lat="44.5607204131267" lon="10.20336480253833"><ele>468.0</ele><time>2026-03-28T08:41:23Z</time></trkpt><trkpt lat="44.56065535762103" lon="10.203349459493088"><ele>468.0</ele><time>2026-03-28T08:41:24Z</time></trkpt><trkpt lat="44.56061052157393" lon="10.203242325940423"><ele>468.0</ele><time>2026-03-28T08:41:25Z</time></trkpt><trkpt lat="44.56057384683305" lon="10.203128306941007"><ele>468.0</ele><time>2026-03-28T08:41:26Z</time></trkpt><trkpt lat="44.56054520475205" lon="10.20303947143208"><ele>467.99999999999994</ele><time>2026-03-28T08:41:27Z</time></trkpt><trkpt lat="44.56042509090121" lon="10.203124464387317"><ele>467.99999999999994</ele><time>2026-03-28T08:41:29Z</time></trkpt><trkpt lat="44.56042599803376" lon="10.203282853977257"><ele>468.0</ele><time>2026-03-28T08:41:30Z</time></trkpt><trkpt lat="44.560464416829035" lon="10.203450186792296"><ele>468.0</ele><time>2026-03-28T08:41:31Z</time></trkpt><trkpt lat="44.56054523393416" lon="10.203636851448872"><ele>465.75</ele><time>2026-03-28T08:41:32Z</time></trkpt><trkpt lat="44.5606422740294" lon="10.203818740355024"><ele>463.5</ele><time>2026-03-28T08:41:33Z</time></trkpt><trkpt lat="44.56073151488237" lon="10.203970865826218"><ele>461.25</ele><time>2026-03-28T08:41:34Z</time></trkpt><trkpt lat="44.56077698940375" lon="10.204120036580955"><ele>459.0</ele><time>2026-03-28T08:41:35Z</time></trkpt><trkpt lat="44.56078103547843" lon="10.204231558228441"><ele>454.0</ele><time>2026-03-28T08:41:36Z</time></trkpt><trkpt lat="44.56076766971966" lon="10.20437946745267"><ele>449.0</ele><time>2026-03-28T08:41:37Z</time></trkpt><trkpt lat="44.560633512032545" lon="10.204505376955503"><ele>444.0</ele><time>2026-03-28T08:41:38Z</time></trkpt><trkpt lat="44.56050686365575" lon="10.204697455821321"><ele>442.5</ele><time>2026-03-28T08:41:39Z</time></trkpt><trkpt lat="44.56040335236956" lon="10.204877498947889"><ele>441.0</ele><time>2026-03-28T08:41:40Z</time></trkpt><trkpt lat="44.560296716435275" lon="10.204991259228724"><ele>439.5</ele><time>2026-03-28T08:41:41Z</time></trkpt><trkpt lat="44.56021208490806" lon="10.205081659387865"><ele>438.0</ele><time>2026-03-28T08:41:42Z</time></trkpt><trkpt lat="44.56012146159993" lon="10.205114297100643"><ele>434.75</ele><time>2026-03-28T08:41:43Z</time></trkpt><trkpt lat="44.56002052805528" lon="10.205085317594628"><ele>431.5</ele><time>2026-03-28T08:41:44Z</time></trkpt><trkpt lat="44.559928115594786" lon="10.204958599511096"><ele>428.25</ele><time>2026-03-28T08:41:45Z</time></trkpt><trkpt lat="44.55987867333346" lon="10.204791265420436"><ele>425.0</ele><time>2026-03-28T08:41:46Z</time></trkpt><trkpt lat="44.55982217037517" lon="10.204607345200797"><ele>425.0</ele><time>2026-03-28T08:41:47Z</time></trkpt><trkpt lat="44.55977604970685" lon="10.204453733679413"><ele>425.0</ele><time>2026-03-28T08:41:48Z</time></trkpt><trkpt lat="44.55975573063129" lon="10.204345437041175"><ele>425.0</ele><time>2026-03-28T08:41:49Z</time></trkpt><trkpt lat="44.55970833339503" lon="10.204262648189912"><ele>425.0</ele><time>2026-03-28T08:41:52Z</time></trkpt><trkpt lat="44.55959060486196" lon="10.204245616237207"><ele>425.0</ele><time>2026-03-28T08:42:06.999Z</time></trkpt><trkpt lat="44.559679018329156" lon="10.204640656121425"><ele>423.66666666666663</ele><time>2026-03-28T08:42:08.999Z</time></trkpt><trkpt lat="44.55971737067992" lon="10.204861859456773"><ele>422.33333333333337</ele><time>2026-03-28T08:42:09.999Z</time></trkpt><trkpt lat="44.55976523251158" lon="10.205217487812874"><ele>421.0</ele><time>2026-03-28T08:42:11Z</time></trkpt><trkpt lat="44.55978678659278" lon="10.205336228992527"><ele>421.0</ele><time>2026-03-28T08:42:12Z</time></trkpt><trkpt lat="44.559835374750854" lon="10.205652039045432"><ele>421.0</ele><time>2026-03-28T08:42:13Z</time></trkpt><trkpt lat="44.559879731304584" lon="10.205959060142447"><ele>419.6666666666667</ele><time>2026-03-28T08:42:14Z</time></trkpt><trkpt lat="44.559916763841336" lon="10.206232509215187"><ele>418.33333333333337</ele><time>2026-03-28T08:42:15Z</time></trkpt><trkpt lat="44.559955388670154" lon="10.206491560394703"><ele>417.0</ele><time>2026-03-28T08:42:16Z</time></trkpt><trkpt lat="44.56000333065789" lon="10.206765826815314"><ele>415.33333333333337</ele><time>2026-03-28T08:42:17Z</time></trkpt><trkpt lat="44.56006685737114" lon="10.207042078235562"><ele>413.6666666666667</ele><time>2026-03-28T08:42:18Z</time></trkpt><trkpt lat="44.560170258093535" lon="10.207300258272843"><ele>412.0</ele><time>2026-03-28T08:42:19Z</time></trkpt><trkpt lat="44.560317414765365" lon="10.207573351185818"><ele>413.5</ele><time>2026-03-28T08:42:20Z</time></trkpt><trkpt lat="44.56048720476494" lon="10.207834315576418"><ele>415.0</ele><time>2026-03-28T08:42:21Z</time></trkpt><trkpt lat="44.56064875575244" lon="10.20809475509544"><ele>408.5</ele><time>2026-03-28T08:42:22Z</time></trkpt><trkpt lat="44.560811082466934" lon="10.208371068949285"><ele>402.0</ele><time>2026-03-28T08:42:23Z</time></trkpt><trkpt lat="44.56095982124083" lon="10.20865641807894"><ele>402.0</ele><time>2026-03-28T08:42:24Z</time></trkpt><trkpt lat="44.56109763075965" lon="10.20890165783087"><ele>402.0</ele><time>2026-03-28T08:42:25Z</time></trkpt><trkpt lat="44.56122593208878" lon="10.209130876239785"><ele>402.0</ele><time>2026-03-28T08:42:26Z</time></trkpt><trkpt lat="44.561344961165865" lon="10.209338920598062"><ele>402.33333333333337</ele><time>2026-03-28T08:42:27Z</time></trkpt><trkpt lat="44.561458421874015" lon="10.20954205445968"><ele>402.6666666666667</ele><time>2026-03-28T08:42:28Z</time></trkpt><trkpt lat="44.561572817935804" lon="10.209773264383816"><ele>403.0</ele><time>2026-03-28T08:42:29Z</time></trkpt><trkpt lat="44.56164271163885" lon="10.210043043142"><ele>403.0</ele><time>2026-03-28T08:42:30Z</time></trkpt><trkpt lat="44.561715620635326" lon="10.210330044071323"><ele>403.0</ele><time>2026-03-28T08:42:31Z</time></trkpt><trkpt lat="44.561763251930245" lon="10.210626394491605"><ele>403.0</ele><time>2026-03-28T08:42:32Z</time></trkpt><trkpt lat="44.56178467244626" lon="10.210910092939098"><ele>399.6666666666667</ele><time>2026-03-28T08:42:33Z</time></trkpt><trkpt lat="44.56181214289343" lon="10.211169948099169"><ele>396.33333333333337</ele><time>2026-03-28T08:42:34Z</time></trkpt><trkpt lat="44.56185277607931" lon="10.211400872828364"><ele>393.0</ele><time>2026-03-28T08:42:35Z</time></trkpt><trkpt lat="44.56189764890629" lon="10.211633008452688"><ele>390.0</ele><time>2026-03-28T08:42:36Z</time></trkpt><trkpt lat="44.56200067206146" lon="10.211852580183887"><ele>387.0</ele><time>2026-03-28T08:42:37Z</time></trkpt><trkpt lat="44.56216695255326" lon="10.212056902262088"><ele>384.0</ele><time>2026-03-28T08:42:38Z</time></trkpt><trkpt lat="44.56235954082895" lon="10.212247831898644"><ele>387.0</ele><time>2026-03-28T08:42:39Z</time></trkpt><trkpt lat="44.562518166462446" lon="10.21246053276339"><ele>390.0</ele><time>2026-03-28T08:42:40Z</time></trkpt><trkpt lat="44.562639220064106" lon="10.212681251038696"><ele>393.0</ele><time>2026-03-28T08:42:41Z</time></trkpt><trkpt lat="44.56273340516818" lon="10.212944501504271"><ele>394.33333333333337</ele><time>2026-03-28T08:42:42Z</time></trkpt><trkpt lat="44.562815650186096" lon="10.213221756781873"><ele>395.6666666666667</ele><time>2026-03-28T08:42:43Z</time></trkpt><trkpt lat="44.56285679566749" lon="10.213506935948269"><ele>397.0</ele><time>2026-03-28T08:42:44Z</time></trkpt><trkpt lat="44.562868316138314" lon="10.213807401773256"><ele>391.6666666666667</ele><time>2026-03-28T08:42:45Z</time></trkpt><trkpt lat="44.56283610589152" lon="10.214110014197416"><ele>386.33333333333337</ele><time>2026-03-28T08:42:46Z</time></trkpt><trkpt lat="44.56282345851469" lon="10.214402809989316"><ele>381.0</ele><time>2026-03-28T08:42:47Z</time></trkpt><trkpt lat="44.56279374976814" lon="10.214677267767687"><ele>380.0</ele><time>2026-03-28T08:42:48Z</time></trkpt><trkpt lat="44.56276654804224" lon="10.214925556323161"><ele>379.0</ele><time>2026-03-28T08:42:49Z</time></trkpt><trkpt lat="44.562771221302434" lon="10.215150936702923"><ele>378.0</ele><time>2026-03-28T08:42:50Z</time></trkpt><trkpt lat="44.56281589232537" lon="10.215376449878294"><ele>383.33333333333337</ele><time>2026-03-28T08:42:51Z</time></trkpt><trkpt lat="44.56290597388611" lon="10.215619007841553"><ele>388.6666666666667</ele><time>2026-03-28T08:42:52Z</time></trkpt><trkpt lat="44.563026414141525" lon="10.215872989440916"><ele>394.0</ele><time>2026-03-28T08:42:53Z</time></trkpt><trkpt lat="44.56316247131156" lon="10.216132855432585"><ele>394.0</ele><time>2026-03-28T08:42:54Z</time></trkpt><trkpt lat="44.56328102340997" lon="10.21635986355122"><ele>394.0</ele><time>2026-03-28T08:42:55Z</time></trkpt><trkpt lat="44.56338171280741" lon="10.21659970921169"><ele>394.0</ele><time>2026-03-28T08:42:56Z</time></trkpt><trkpt lat="44.563470570481954" lon="10.216878668554594"><ele>392.5</ele><time>2026-03-28T08:42:57Z</time></trkpt><trkpt lat="44.563545272546044" lon="10.217177132878744"><ele>391.0</ele><time>2026-03-28T08:42:58Z</time></trkpt><trkpt lat="44.563602621189865" lon="10.217520748133119"><ele>389.0</ele><time>2026-03-28T08:42:59Z</time></trkpt><trkpt lat="44.5636533505252" lon="10.217872662930903"><ele>387.0</ele><time>2026-03-28T08:43:00Z</time></trkpt><trkpt lat="44.56369873806797" lon="10.218200351497115"><ele>398.5</ele><time>2026-03-28T08:43:01Z</time></trkpt><trkpt lat="44.56374346972968" lon="10.21852106148496"><ele>410.0</ele><time>2026-03-28T08:43:02Z</time></trkpt><trkpt lat="44.56377874848903" lon="10.21884763308739"><ele>409.0</ele><time>2026-03-28T08:43:03Z</time></trkpt><trkpt lat="44.56374757470967" lon="10.219158080791445"><ele>408.0</ele><time>2026-03-28T08:43:04Z</time></trkpt><trkpt lat="44.56370743499164" lon="10.21945407069225"><ele>407.0</ele><time>2026-03-28T08:43:05Z</time></trkpt><trkpt lat="44.563672583154734" lon="10.21973757594472"><ele>406.66666666666663</ele><time>2026-03-28T08:43:06Z</time></trkpt><trkpt lat="44.56364833848194" lon="10.219996644714444"><ele>406.33333333333337</ele><time>2026-03-28T08:43:07Z</time></trkpt><trkpt lat="44.56368388764536" lon="10.220273062083377"><ele>406.0</ele><time>2026-03-28T08:43:08Z</time></trkpt><trkpt lat="44.56376179837439" lon="10.220566258622279"><ele>401.0</ele><time>2026-03-28T08:43:09Z</time></trkpt><trkpt lat="44.563877314563264" lon="10.220859240453361"><ele>396.0</ele><time>2026-03-28T08:43:10Z</time></trkpt><trkpt lat="44.56399315294387" lon="10.221154711535894"><ele>396.0</ele><time>2026-03-28T08:43:11Z</time></trkpt><trkpt lat="44.5640951336858" lon="10.221436404719883"><ele>396.0</ele><time>2026-03-28T08:43:12Z</time></trkpt><trkpt lat="44.56418523539193" lon="10.221709345545197"><ele>396.0</ele><time>2026-03-28T08:43:13Z</time></trkpt><trkpt lat="44.56427718551547" lon="10.221958796513361"><ele>394.33333333333337</ele><time>2026-03-28T08:43:14Z</time></trkpt><trkpt lat="44.56439122453401" lon="10.222173833443238"><ele>392.6666666666667</ele><time>2026-03-28T08:43:15Z</time></trkpt><trkpt lat="44.56454716058242" lon="10.22233531971694"><ele>391.0</ele><time>2026-03-28T08:43:16Z</time></trkpt><trkpt lat="44.56471977631885" lon="10.222457051283385"><ele>391.0</ele><time>2026-03-28T08:43:17Z</time></trkpt><trkpt lat="44.56485488234351" lon="10.222642458272434"><ele>391.0</ele><time>2026-03-28T08:43:18Z</time></trkpt><trkpt lat="44.56494824302965" lon="10.222889312714202"><ele>391.0</ele><time>2026-03-28T08:43:19Z</time></trkpt><trkpt lat="44.565017819120584" lon="10.223194355870202"><ele>387.6666666666667</ele><time>2026-03-28T08:43:20Z</time></trkpt><trkpt lat="44.56507787924743" lon="10.223500580816856"><ele>384.33333333333337</ele><time>2026-03-28T08:43:21Z</time></trkpt><trkpt lat="44.56512614179743" lon="10.223779694162436"><ele>381.0</ele><time>2026-03-28T08:43:22Z</time></trkpt><trkpt lat="44.565160563195526" lon="10.224058475870274"><ele>379.3333333333333</ele><time>2026-03-28T08:43:23Z</time></trkpt><trkpt lat="44.56511688445414" lon="10.224365840678963"><ele>377.66666666666663</ele><time>2026-03-28T08:43:24Z</time></trkpt><trkpt lat="44.565031642435116" lon="10.224644687324398"><ele>376.0</ele><time>2026-03-28T08:43:25Z</time></trkpt><trkpt lat="44.56496926248791" lon="10.224916434410565"><ele>374.0</ele><time>2026-03-28T08:43:26Z</time></trkpt><trkpt lat="44.56495199746284" lon="10.22516272676255"><ele>372.0</ele><time>2026-03-28T08:43:27Z</time></trkpt><trkpt lat="44.56497510778282" lon="10.225378845421176"><ele>370.0</ele><time>2026-03-28T08:43:28Z</time></trkpt><trkpt lat="44.56506333495865" lon="10.225560118444745"><ele>370.0</ele><time>2026-03-28T08:43:29Z</time></trkpt><trkpt lat="44.56521570996582" lon="10.225741982246417"><ele>370.0</ele><time>2026-03-28T08:43:30Z</time></trkpt><trkpt lat="44.56539357548633" lon="10.22594274906757"><ele>370.0</ele><time>2026-03-28T08:43:31Z</time></trkpt><trkpt lat="44.56555980380666" lon="10.226147619576519"><ele>370.0</ele><time>2026-03-28T08:43:32Z</time></trkpt><trkpt lat="44.56571835239041" lon="10.22635849094848"><ele>370.0</ele><time>2026-03-28T08:43:33Z</time></trkpt><trkpt lat="44.56586643622568" lon="10.226559981189691"><ele>370.0</ele><time>2026-03-28T08:43:34Z</time></trkpt><trkpt lat="44.56600414818119" lon="10.22674930101731"><ele>371.3333333333333</ele><time>2026-03-28T08:43:35Z</time></trkpt><trkpt lat="44.566131179175336" lon="10.226917170255186"><ele>372.6666666666667</ele><time>2026-03-28T08:43:36Z</time></trkpt><trkpt lat="44.56622788181523" lon="10.227101635221373"><ele>374.0</ele><time>2026-03-28T08:43:37Z</time></trkpt><trkpt lat="44.5662693118865" lon="10.227290509532125"><ele>371.0</ele><time>2026-03-28T08:43:38Z</time></trkpt><trkpt lat="44.56626715275054" lon="10.227514580191134"><ele>368.0</ele><time>2026-03-28T08:43:39Z</time></trkpt><trkpt lat="44.56626881977722" lon="10.227762631719859"><ele>365.0</ele><time>2026-03-28T08:43:40Z</time></trkpt><trkpt lat="44.56625449827597" lon="10.22800474687005"><ele>362.33333333333337</ele><time>2026-03-28T08:43:41Z</time></trkpt><trkpt lat="44.56624787942789" lon="10.228234122460558"><ele>359.6666666666667</ele><time>2026-03-28T08:43:42Z</time></trkpt><trkpt lat="44.56627234508599" lon="10.228437005146871"><ele>357.0</ele><time>2026-03-28T08:43:43Z</time></trkpt><trkpt lat="44.5663395270549" lon="10.228617743092297"><ele>357.0</ele><time>2026-03-28T08:43:44Z</time></trkpt><trkpt lat="44.56644322143461" lon="10.228764256704151"><ele>357.0</ele><time>2026-03-28T08:43:45Z</time></trkpt><trkpt lat="44.56652361024868" lon="10.228876378794062"><ele>357.0</ele><time>2026-03-28T08:43:46Z</time></trkpt><trkpt lat="44.56657769794027" lon="10.228964984729966"><ele>357.0</ele><time>2026-03-28T08:43:47Z</time></trkpt><trkpt lat="44.566626445907985" lon="10.229025311624403"><ele>357.0</ele><time>2026-03-28T08:43:48Z</time></trkpt><trkpt lat="44.566690141822356" lon="10.229120269838658"><ele>357.0</ele><time>2026-03-28T08:43:50Z</time></trkpt><trkpt lat="44.566614907533335" lon="10.2291557075676"><ele>357.0</ele><time>2026-03-28T08:43:52Z</time></trkpt><trkpt lat="44.566534618714414" lon="10.228995979037272"><ele>357.0</ele><time>2026-03-28T08:43:54Z</time></trkpt><trkpt lat="44.56644908015187" lon="10.228847229523007"><ele>357.0</ele><time>2026-03-28T08:43:55Z</time></trkpt><trkpt lat="44.56636725597537" lon="10.2286986463671"><ele>357.0</ele><time>2026-03-28T08:43:56Z</time></trkpt><trkpt lat="44.566291911493366" lon="10.228561118794586"><ele>357.0</ele><time>2026-03-28T08:43:57Z</time></trkpt><trkpt lat="44.566206234065945" lon="10.228424051922774"><ele>357.0</ele><time>2026-03-28T08:43:58Z</time></trkpt><trkpt lat="44.5661109738737" lon="10.228286914684272"><ele>357.0</ele><time>2026-03-28T08:43:59Z</time></trkpt><trkpt lat="44.56601015038664" lon="10.22815626988336"><ele>355.5</ele><time>2026-03-28T08:44:00Z</time></trkpt><trkpt lat="44.56590537091722" lon="10.228025599797347"><ele>354.0</ele><time>2026-03-28T08:44:01Z</time></trkpt><trkpt lat="44.56580221993208" lon="10.227904807804315"><ele>352.5</ele><time>2026-03-28T08:44:02Z</time></trkpt><trkpt lat="44.5657070432414" lon="10.227784966400003"><ele>351.0</ele><time>2026-03-28T08:44:03Z</time></trkpt><trkpt lat="44.56560933507066" lon="10.227669174070842"><ele>351.0</ele><time>2026-03-28T08:44:04Z</time></trkpt><trkpt lat="44.565517360124026" lon="10.22755205549605"><ele>351.0</ele><time>2026-03-28T08:44:05Z</time></trkpt><trkpt lat="44.565430749569735" lon="10.227445052705793"><ele>351.0</ele><time>2026-03-28T08:44:06Z</time></trkpt><trkpt lat="44.56534508345159" lon="10.227340258642267"><ele>351.0</ele><time>2026-03-28T08:44:07Z</time></trkpt><trkpt lat="44.5652621559444" lon="10.227244001714135"><ele>350.75</ele><time>2026-03-28T08:44:08Z</time></trkpt><trkpt lat="44.56516523005851" lon="10.227145941242025"><ele>350.5</ele><time>2026-03-28T08:44:09Z</time></trkpt><trkpt lat="44.56504140668317" lon="10.227076977210253"><ele>350.25</ele><time>2026-03-28T08:44:10Z</time></trkpt><trkpt lat="44.564919099234196" lon="10.22698723241915"><ele>350.0</ele><time>2026-03-28T08:44:11Z</time></trkpt><trkpt lat="44.56482632228908" lon="10.226876095392218"><ele>350.0</ele><time>2026-03-28T08:44:12Z</time></trkpt><trkpt lat="44.564753851929794" lon="10.226755200218168"><ele>350.0</ele><time>2026-03-28T08:44:12.999Z</time></trkpt><trkpt lat="44.56471060891567" lon="10.226593372997954"><ele>350.0</ele><time>2026-03-28T08:44:13.999Z</time></trkpt><trkpt lat="44.56467167292642" lon="10.226462116561594"><ele>350.0</ele><time>2026-03-28T08:44:14.999Z</time></trkpt><trkpt lat="44.56460507633643" lon="10.226360716950785"><ele>350.0</ele><time>2026-03-28T08:44:15.999Z</time></trkpt><trkpt lat="44.5645053564033" lon="10.226299587036603"><ele>348.25</ele><time>2026-03-28T08:44:17Z</time></trkpt><trkpt lat="44.56437438845249" lon="10.226286672016942"><ele>346.5</ele><time>2026-03-28T08:44:18Z</time></trkpt><trkpt lat="44.564224600217315" lon="10.226338906720892"><ele>344.75</ele><time>2026-03-28T08:44:19Z</time></trkpt><trkpt lat="44.56407872792808" lon="10.226443568827415"><ele>343.0</ele><time>2026-03-28T08:44:20Z</time></trkpt><trkpt lat="44.563942359117874" lon="10.226544718841652"><ele>341.66666666666663</ele><time>2026-03-28T08:44:21Z</time></trkpt><trkpt lat="44.56380318408168" lon="10.226638553321232"><ele>340.3333333333333</ele><time>2026-03-28T08:44:22Z</time></trkpt><trkpt lat="44.56365723794868" lon="10.226728003174607"><ele>339.0</ele><time>2026-03-28T08:44:23Z</time></trkpt><trkpt lat="44.563512165053204" lon="10.226813395262896"><ele>338.0</ele><time>2026-03-28T08:44:24Z</time></trkpt><trkpt lat="44.56336104276081" lon="10.226902691288576"><ele>337.0</ele><time>2026-03-28T08:44:25Z</time></trkpt><trkpt lat="44.56320321537245" lon="10.227001570595364"><ele>336.0</ele><time>2026-03-28T08:44:26Z</time></trkpt><trkpt lat="44.56305293806297" lon="10.227096928616762"><ele>336.0</ele><time>2026-03-28T08:44:27Z</time></trkpt><trkpt lat="44.562903271678806" lon="10.227185898394065"><ele>336.0</ele><time>2026-03-28T08:44:28Z</time></trkpt><trkpt lat="44.5627603690622" lon="10.2272712317729"><ele>336.0</ele><time>2026-03-28T08:44:29Z</time></trkpt><trkpt lat="44.562621714687374" lon="10.227352405084282"><ele>336.25</ele><time>2026-03-28T08:44:30Z</time></trkpt><trkpt lat="44.56248908415906" lon="10.227428947036998"><ele>336.5</ele><time>2026-03-28T08:44:31Z</time></trkpt><trkpt lat="44.562360313032556" lon="10.227506687126665"><ele>336.75</ele><time>2026-03-28T08:44:32Z</time></trkpt><trkpt lat="44.56223760214406" lon="10.227582020727944"><ele>337.0</ele><time>2026-03-28T08:44:33Z</time></trkpt><trkpt lat="44.56211986662077" lon="10.227650823723945"><ele>338.0</ele><time>2026-03-28T08:44:34Z</time></trkpt><trkpt lat="44.56201108531402" lon="10.22771498790669"><ele>339.0</ele><time>2026-03-28T08:44:35Z</time></trkpt><trkpt lat="44.56190974976468" lon="10.227778692021216"><ele>340.0</ele><time>2026-03-28T08:44:36Z</time></trkpt><trkpt lat="44.56179470391414" lon="10.227842483257827"><ele>341.0</ele><time>2026-03-28T08:44:37Z</time></trkpt><trkpt lat="44.56168666489193" lon="10.227901056485631"><ele>341.0</ele><time>2026-03-28T08:44:38Z</time></trkpt><trkpt lat="44.56159560188238" lon="10.22797801677049"><ele>341.0</ele><time>2026-03-28T08:44:39Z</time></trkpt><trkpt lat="44.561519722004384" lon="10.228084106600985"><ele>341.0</ele><time>2026-03-28T08:44:40Z</time></trkpt><trkpt lat="44.561465943437895" lon="10.228237375813809"><ele>341.0</ele><time>2026-03-28T08:44:41Z</time></trkpt><trkpt lat="44.56141173050188" lon="10.228404087724682"><ele>341.25</ele><time>2026-03-28T08:44:42Z</time></trkpt><trkpt lat="44.56133549503816" lon="10.22854855135112"><ele>341.5</ele><time>2026-03-28T08:44:43Z</time></trkpt><trkpt lat="44.56125686508713" lon="10.228695926563242"><ele>341.75</ele><time>2026-03-28T08:44:44Z</time></trkpt><trkpt lat="44.561181930318554" lon="10.228857225386776"><ele>342.0</ele><time>2026-03-28T08:44:45Z</time></trkpt><trkpt lat="44.56108584032875" lon="10.228996803450459"><ele>344.0</ele><time>2026-03-28T08:44:46Z</time></trkpt><trkpt lat="44.560978075815896" lon="10.229117745420577"><ele>346.0</ele><time>2026-03-28T08:44:47Z</time></trkpt><trkpt lat="44.560858685731326" lon="10.229193408726942"><ele>348.0</ele><time>2026-03-28T08:44:48Z</time></trkpt><trkpt lat="44.560738254995655" lon="10.229283416205387"><ele>350.0</ele><time>2026-03-28T08:44:49Z</time></trkpt><trkpt lat="44.56061241101212" lon="10.229353428243774"><ele>350.0</ele><time>2026-03-28T08:44:50Z</time></trkpt><trkpt lat="44.5604984540723" lon="10.229424084606352"><ele>350.0</ele><time>2026-03-28T08:44:51Z</time></trkpt><trkpt lat="44.560377838509915" lon="10.229496560069345"><ele>350.0</ele><time>2026-03-28T08:44:52Z</time></trkpt><trkpt lat="44.560251511477134" lon="10.229550064264634"><ele>350.0</ele><time>2026-03-28T08:44:53Z</time></trkpt><trkpt lat="44.56011398522248" lon="10.22959221671667"><ele>352.5</ele><time>2026-03-28T08:44:54Z</time></trkpt><trkpt lat="44.55997895182203" lon="10.229630406029282"><ele>355.0</ele><time>2026-03-28T08:44:55Z</time></trkpt><trkpt lat="44.55983380567278" lon="10.229606975236454"><ele>357.5</ele><time>2026-03-28T08:44:56Z</time></trkpt><trkpt lat="44.55969310162626" lon="10.229564944797632"><ele>360.0</ele><time>2026-03-28T08:44:57Z</time></trkpt><trkpt lat="44.55956428026854" lon="10.229517598807023"><ele>360.4</ele><time>2026-03-28T08:44:58Z</time></trkpt><trkpt lat="44.55943950964995" lon="10.229464930247705"><ele>360.8</ele><time>2026-03-28T08:44:59Z</time></trkpt><trkpt lat="44.55932442791294" lon="10.229418518582266"><ele>361.20000000000005</ele><time>2026-03-28T08:45:00Z</time></trkpt><trkpt lat="44.55922791023182" lon="10.22940369992059"><ele>361.6</ele><time>2026-03-28T08:45:01Z</time></trkpt><trkpt lat="44.55917148379705" lon="10.229349495964435"><ele>362.0</ele><time>2026-03-28T08:45:03Z</time></trkpt><trkpt lat="44.559210828516434" lon="10.229245572315039"><ele>362.0</ele><time>2026-03-28T08:45:06Z</time></trkpt><trkpt lat="44.55925014336868" lon="10.229170041723297"><ele>362.0</ele><time>2026-03-28T08:45:10Z</time></trkpt><trkpt lat="44.559329488454175" lon="10.229159937869033"><ele>362.0</ele><time>2026-03-28T08:45:13Z</time></trkpt><trkpt lat="44.55940322700041" lon="10.229100582332746"><ele>362.0</ele><time>2026-03-28T08:45:17Z</time></trkpt><trkpt lat="44.55940717908994" lon="10.228994120129"><ele>362.0</ele><time>2026-03-28T08:45:18Z</time></trkpt><trkpt lat="44.559438189812106" lon="10.228890769920888"><ele>362.0</ele><time>2026-03-28T08:45:19Z</time></trkpt><trkpt lat="44.559457076048965" lon="10.228803477099204"><ele>363.0</ele><time>2026-03-28T08:45:20Z</time></trkpt><trkpt lat="44.559487084234576" lon="10.228658422584152"><ele>364.0</ele><time>2026-03-28T08:45:22Z</time></trkpt><trkpt lat="44.5595254691644" lon="10.22857501545337"><ele>365.0</ele><time>2026-03-28T08:45:24Z</time></trkpt><trkpt lat="44.55955482050275" lon="10.22848423062527"><ele>366.0</ele><time>2026-03-28T08:45:26Z</time></trkpt><trkpt lat="44.559599059116366" lon="10.228384047209738"><ele>367.0</ele><time>2026-03-28T08:45:28Z</time></trkpt><trkpt lat="44.55965475371875" lon="10.228286792986616"><ele>368.0</ele><time>2026-03-28T08:45:30Z</time></trkpt><trkpt lat="44.55972543006121" lon="10.228192026151994"><ele>368.0</ele><time>2026-03-28T08:45:32Z</time></trkpt><trkpt lat="44.55980550958128" lon="10.228171580838412"><ele>368.0</ele><time>2026-03-28T08:45:34Z</time></trkpt><trkpt lat="44.559871376281244" lon="10.228202464051522"><ele>368.0</ele><time>2026-03-28T08:45:37Z</time></trkpt><trkpt lat="44.559806383594555" lon="10.228170774599175"><ele>368.0</ele><time>2026-03-28T08:46:51Z</time></trkpt><trkpt lat="44.55973784080056" lon="10.228193305207153"><ele>368.0</ele><time>2026-03-28T08:46:53Z</time></trkpt><trkpt lat="44.55965819971294" lon="10.228167585912672"><ele>368.0</ele><time>2026-03-28T08:46:54Z</time></trkpt><trkpt lat="44.559692157712995" lon="10.227955303112347"><ele>368.0</ele><time>2026-03-28T08:46:55Z</time></trkpt><trkpt lat="44.5595390970906" lon="10.228438443310337"><ele>368.0</ele><time>2026-03-28T08:46:57Z</time></trkpt><trkpt lat="44.55948984864331" lon="10.228565663052787"><ele>368.83333333333337</ele><time>2026-03-28T08:46:59Z</time></trkpt><trkpt lat="44.5594471158557" lon="10.228675543010448"><ele>369.6666666666667</ele><time>2026-03-28T08:47:02Z</time></trkpt><trkpt lat="44.55942541592018" lon="10.228763512605411"><ele>370.5</ele><time>2026-03-28T08:47:04Z</time></trkpt><trkpt lat="44.559406174633466" lon="10.228855153346572"><ele>371.3333333333333</ele><time>2026-03-28T08:47:06Z</time></trkpt><trkpt lat="44.559378574233044" lon="10.228983999792176"><ele>372.16666666666663</ele><time>2026-03-28T08:47:09Z</time></trkpt><trkpt lat="44.55933579920962" lon="10.229090867632827"><ele>373.0</ele><time>2026-03-28T08:47:11Z</time></trkpt><trkpt lat="44.55923837893384" lon="10.229150819791691"><ele>371.16666666666663</ele><time>2026-03-28T08:47:13Z</time></trkpt><trkpt lat="44.559199608389164" lon="10.229227920758678"><ele>369.3333333333333</ele><time>2026-03-28T08:47:15Z</time></trkpt><trkpt lat="44.559206119942786" lon="10.229316937153433"><ele>367.5</ele><time>2026-03-28T08:47:17Z</time></trkpt><trkpt lat="44.55916869659555" lon="10.22938866066201"><ele>365.6666666666667</ele><time>2026-03-28T08:47:19Z</time></trkpt><trkpt lat="44.5590553899084" lon="10.22940949378545"><ele>363.83333333333337</ele><time>2026-03-28T08:47:21Z</time></trkpt><trkpt lat="44.55896492872287" lon="10.229449552619005"><ele>362.0</ele><time>2026-03-28T08:47:22Z</time></trkpt><trkpt lat="44.55884295380305" lon="10.229497948964415"><ele>364.33333333333337</ele><time>2026-03-28T08:47:23Z</time></trkpt><trkpt lat="44.55869603473993" lon="10.22956905891786"><ele>366.6666666666667</ele><time>2026-03-28T08:47:24Z</time></trkpt><trkpt lat="44.55856324663716" lon="10.229671184113922"><ele>369.0</ele><time>2026-03-28T08:47:25Z</time></trkpt><trkpt lat="44.558445150298766" lon="10.229808912988887"><ele>369.0</ele><time>2026-03-28T08:47:26Z</time></trkpt><trkpt lat="44.558341317472795" lon="10.229978043102227"><ele>369.0</ele><time>2026-03-28T08:47:27Z</time></trkpt><trkpt lat="44.55823028911556" lon="10.23016438422297"><ele>369.0</ele><time>2026-03-28T08:47:28Z</time></trkpt><trkpt lat="44.558114128805336" lon="10.230338835095775"><ele>369.0</ele><time>2026-03-28T08:47:29Z</time></trkpt><trkpt lat="44.557987813931334" lon="10.230495399089973"><ele>369.0</ele><time>2026-03-28T08:47:30Z</time></trkpt><trkpt lat="44.557834954122086" lon="10.230585631971199"><ele>369.0</ele><time>2026-03-28T08:47:31Z</time></trkpt><trkpt lat="44.55766192530182" lon="10.230672286110066"><ele>369.0</ele><time>2026-03-28T08:47:32Z</time></trkpt><trkpt lat="44.557482229243334" lon="10.230779902954408"><ele>369.0</ele><time>2026-03-28T08:47:33Z</time></trkpt><trkpt lat="44.55730359151315" lon="10.230863622049208"><ele>369.0</ele><time>2026-03-28T08:47:34Z</time></trkpt><trkpt lat="44.55713488799964" lon="10.230950771787995"><ele>370.6666666666667</ele><time>2026-03-28T08:47:35Z</time></trkpt><trkpt lat="44.55696893361992" lon="10.23103794127575"><ele>372.33333333333337</ele><time>2026-03-28T08:47:36Z</time></trkpt><trkpt lat="44.55681046414696" lon="10.231114873055638"><ele>374.0</ele><time>2026-03-28T08:47:37Z</time></trkpt><trkpt lat="44.55665166770499" lon="10.231186960402967"><ele>374.0</ele><time>2026-03-28T08:47:38Z</time></trkpt><trkpt lat="44.55648882786034" lon="10.231248332201881"><ele>374.0</ele><time>2026-03-28T08:47:39Z</time></trkpt><trkpt lat="44.55631710371475" lon="10.231263929149542"><ele>374.0</ele><time>2026-03-28T08:47:40Z</time></trkpt><trkpt lat="44.556148599163286" lon="10.2312559861101"><ele>375.0</ele><time>2026-03-28T08:47:41Z</time></trkpt><trkpt lat="44.5559776246337" lon="10.23119111758577"><ele>376.0</ele><time>2026-03-28T08:47:42Z</time></trkpt><trkpt lat="44.55580223316044" lon="10.231134215154375"><ele>377.0</ele><time>2026-03-28T08:47:43Z</time></trkpt><trkpt lat="44.55563717796714" lon="10.231079593684402"><ele>377.0</ele><time>2026-03-28T08:47:44Z</time></trkpt><trkpt lat="44.55545331261798" lon="10.231090601748331"><ele>377.0</ele><time>2026-03-28T08:47:45Z</time></trkpt><trkpt lat="44.55525743120871" lon="10.23116397001539"><ele>377.0</ele><time>2026-03-28T08:47:46Z</time></trkpt><trkpt lat="44.55506982175127" lon="10.231255127171096"><ele>379.33333333333337</ele><time>2026-03-28T08:47:47Z</time></trkpt><trkpt lat="44.55489024164675" lon="10.231306373698079"><ele>381.6666666666667</ele><time>2026-03-28T08:47:48Z</time></trkpt><trkpt lat="44.55472518503453" lon="10.23136820472132"><ele>384.0</ele><time>2026-03-28T08:47:49Z</time></trkpt><trkpt lat="44.554561910548905" lon="10.231428019750854"><ele>384.5</ele><time>2026-03-28T08:47:50Z</time></trkpt><trkpt lat="44.55440386506609" lon="10.231485429814738"><ele>385.0</ele><time>2026-03-28T08:47:51Z</time></trkpt><trkpt lat="44.55426863714872" lon="10.231534552515926"><ele>385.5</ele><time>2026-03-28T08:47:52Z</time></trkpt><trkpt lat="44.55414561396067" lon="10.231598240334641"><ele>386.0</ele><time>2026-03-28T08:47:53Z</time></trkpt><trkpt lat="44.554028564430396" lon="10.231634251965867"><ele>386.0</ele><time>2026-03-28T08:47:54Z</time></trkpt><trkpt lat="44.55389858851234" lon="10.231679261222673"><ele>386.0</ele><time>2026-03-28T08:47:55Z</time></trkpt><trkpt lat="44.55375861848007" lon="10.23173020801408"><ele>386.0</ele><time>2026-03-28T08:47:56Z</time></trkpt><trkpt lat="44.55360724077189" lon="10.231784199800135"><ele>386.0</ele><time>2026-03-28T08:47:57Z</time></trkpt><trkpt lat="44.55345745374147" lon="10.231842611490512"><ele>387.5</ele><time>2026-03-28T08:47:58Z</time></trkpt><trkpt lat="44.553317379307664" lon="10.23190115892332"><ele>389.0</ele><time>2026-03-28T08:47:59Z</time></trkpt><trkpt lat="44.55317373147606" lon="10.231958632109613"><ele>390.5</ele><time>2026-03-28T08:48:00Z</time></trkpt><trkpt lat="44.553033170266815" lon="10.23203452307338"><ele>392.0</ele><time>2026-03-28T08:48:01Z</time></trkpt><trkpt lat="44.552887306040205" lon="10.232159850686433"><ele>394.66666666666663</ele><time>2026-03-28T08:48:02Z</time></trkpt><trkpt lat="44.552764068681604" lon="10.232320073234094"><ele>397.33333333333337</ele><time>2026-03-28T08:48:03Z</time></trkpt><trkpt lat="44.55265465625097" lon="10.232505134754355"><ele>400.0</ele><time>2026-03-28T08:48:04Z</time></trkpt><trkpt lat="44.552565401386836" lon="10.232716134880784"><ele>400.0</ele><time>2026-03-28T08:48:05Z</time></trkpt><trkpt lat="44.5524990800604" lon="10.23294913538055"><ele>400.0</ele><time>2026-03-28T08:48:06Z</time></trkpt><trkpt lat="44.552465656837605" lon="10.233200924860908"><ele>400.0</ele><time>2026-03-28T08:48:07Z</time></trkpt><trkpt lat="44.55246228785229" lon="10.233456272304215"><ele>400.0</ele><time>2026-03-28T08:48:08Z</time></trkpt><trkpt lat="44.5524671909471" lon="10.233708107637755"><ele>400.0</ele><time>2026-03-28T08:48:09Z</time></trkpt><trkpt lat="44.55247041856382" lon="10.233944734690548"><ele>400.0</ele><time>2026-03-28T08:48:10Z</time></trkpt><trkpt lat="44.55246578286551" lon="10.234167677649795"><ele>400.33333333333337</ele><time>2026-03-28T08:48:11Z</time></trkpt><trkpt lat="44.552447551070316" lon="10.234396034808022"><ele>400.66666666666663</ele><time>2026-03-28T08:48:12Z</time></trkpt><trkpt lat="44.55238597381812" lon="10.23461868138118"><ele>401.0</ele><time>2026-03-28T08:48:12.999Z</time></trkpt><trkpt lat="44.5523121912171" lon="10.23484051442926"><ele>401.3333333333333</ele><time>2026-03-28T08:48:13.999Z</time></trkpt><trkpt lat="44.55221158115384" lon="10.235071823000991"><ele>401.66666666666663</ele><time>2026-03-28T08:48:14.999Z</time></trkpt><trkpt lat="44.55207368728205" lon="10.235262301333274"><ele>402.0</ele><time>2026-03-28T08:48:15.999Z</time></trkpt><trkpt lat="44.55190735957582" lon="10.235401675518812"><ele>405.66666666666663</ele><time>2026-03-28T08:48:16.999Z</time></trkpt><trkpt lat="44.55174575031411" lon="10.23555142201594"><ele>409.3333333333333</ele><time>2026-03-28T08:48:17.999Z</time></trkpt><trkpt lat="44.55159327116885" lon="10.23571034024007"><ele>413.0</ele><time>2026-03-28T08:48:18.999Z</time></trkpt><trkpt lat="44.55143518788912" lon="10.23585377573373"><ele>413.0</ele><time>2026-03-28T08:48:19.999Z</time></trkpt><trkpt lat="44.551268201191334" lon="10.235978602064"><ele>413.0</ele><time>2026-03-28T08:48:20.999Z</time></trkpt><trkpt lat="44.55107759095622" lon="10.236072775942247"><ele>413.0</ele><time>2026-03-28T08:48:21.999Z</time></trkpt><trkpt lat="44.55087970098217" lon="10.236122408230772"><ele>414.66666666666663</ele><time>2026-03-28T08:48:22.999Z</time></trkpt><trkpt lat="44.55066904112831" lon="10.236114165614442"><ele>416.33333333333337</ele><time>2026-03-28T08:48:23.999Z</time></trkpt><trkpt lat="44.55046215076584" lon="10.236089441654883"><ele>418.0</ele><time>2026-03-28T08:48:24.999Z</time></trkpt><trkpt lat="44.55025859794348" lon="10.236016980989351"><ele>420.33333333333337</ele><time>2026-03-28T08:48:25.999Z</time></trkpt><trkpt lat="44.55005490712105" lon="10.235924335452244"><ele>422.66666666666663</ele><time>2026-03-28T08:48:26.999Z</time></trkpt><trkpt lat="44.549868562234714" lon="10.235773677123984"><ele>425.0</ele><time>2026-03-28T08:48:27.999Z</time></trkpt><trkpt lat="44.549706426095675" lon="10.235571249496058"><ele>428.3333333333333</ele><time>2026-03-28T08:48:29Z</time></trkpt><trkpt lat="44.54953532077156" lon="10.235388752887445"><ele>431.66666666666663</ele><time>2026-03-28T08:48:30Z</time></trkpt><trkpt lat="44.549390684578874" lon="10.235190877358814"><ele>435.0</ele><time>2026-03-28T08:48:31Z</time></trkpt><trkpt lat="44.549248730947134" lon="10.235016887043216"><ele>435.0</ele><time>2026-03-28T08:48:32Z</time></trkpt><trkpt lat="44.54908104865805" lon="10.234874121696423"><ele>435.0</ele><time>2026-03-28T08:48:33Z</time></trkpt><trkpt lat="44.548881668369226" lon="10.234771788052113"><ele>435.0</ele><time>2026-03-28T08:48:34Z</time></trkpt><trkpt lat="44.54867223571279" lon="10.234704186421684"><ele>438.66666666666663</ele><time>2026-03-28T08:48:35Z</time></trkpt><trkpt lat="44.54848428254931" lon="10.234606349950603"><ele>442.3333333333333</ele><time>2026-03-28T08:48:36Z</time></trkpt><trkpt lat="44.54830944642396" lon="10.23448463181504"><ele>446.0</ele><time>2026-03-28T08:48:37Z</time></trkpt><trkpt lat="44.54814532159631" lon="10.23431944458233"><ele>446.0</ele><time>2026-03-28T08:48:38Z</time></trkpt><trkpt lat="44.547976882263356" lon="10.234138282466619"><ele>446.0</ele><time>2026-03-28T08:48:39Z</time></trkpt><trkpt lat="44.547826275985805" lon="10.233931260078457"><ele>446.0</ele><time>2026-03-28T08:48:40Z</time></trkpt><trkpt lat="44.54767760564752" lon="10.23373727735972"><ele>450.3333333333333</ele><time>2026-03-28T08:48:41Z</time></trkpt><trkpt lat="44.54752919357202" lon="10.233581725726136"><ele>454.66666666666663</ele><time>2026-03-28T08:48:42Z</time></trkpt><trkpt lat="44.5474001254078" lon="10.233452431332644"><ele>459.0</ele><time>2026-03-28T08:48:43Z</time></trkpt><trkpt lat="44.54728201767963" lon="10.233334388427735"><ele>459.0</ele><time>2026-03-28T08:48:44Z</time></trkpt><trkpt lat="44.547180432005305" lon="10.233235770856963"><ele>459.0</ele><time>2026-03-28T08:48:45Z</time></trkpt><trkpt lat="44.54709872936593" lon="10.23315873800558"><ele>459.0</ele><time>2026-03-28T08:48:46Z</time></trkpt><trkpt lat="44.54703544472475" lon="10.233095074931128"><ele>459.0</ele><time>2026-03-28T08:48:48Z</time></trkpt><trkpt lat="44.546993350834576" lon="10.233024836036204"><ele>459.0</ele><time>2026-03-28T08:49:04Z</time></trkpt><trkpt lat="44.54711977503219" lon="10.23294672619833"><ele>459.0</ele><time>2026-03-28T08:49:07Z</time></trkpt><trkpt lat="44.54719711489386" lon="10.233043674663211"><ele>459.0</ele><time>2026-03-28T08:49:08Z</time></trkpt><trkpt lat="44.54728240935362" lon="10.23310214838969"><ele>459.0</ele><time>2026-03-28T08:49:09Z</time></trkpt><trkpt lat="44.54736055643079" lon="10.233153579927487"><ele>459.0</ele><time>2026-03-28T08:49:10Z</time></trkpt><trkpt lat="44.54744195102136" lon="10.233144961562033"><ele>459.0</ele><time>2026-03-28T08:49:12Z</time></trkpt><trkpt lat="44.54743825944492" lon="10.232994205406195"><ele>461.0</ele><time>2026-03-28T08:49:14Z</time></trkpt><trkpt lat="44.54740603290587" lon="10.232912810084532"><ele>463.0</ele><time>2026-03-28T08:49:15Z</time></trkpt><trkpt lat="44.54733809171839" lon="10.232818240936421"><ele>465.0</ele><time>2026-03-28T08:49:16Z</time></trkpt><trkpt lat="44.54725934212845" lon="10.232718544413755"><ele>467.0</ele><time>2026-03-28T08:49:17Z</time></trkpt><trkpt lat="44.54718368181552" lon="10.232609702752624"><ele>469.0</ele><time>2026-03-28T08:49:18Z</time></trkpt><trkpt lat="44.54709521472182" lon="10.232503201052783"><ele>469.00000000000006</ele><time>2026-03-28T08:49:19Z</time></trkpt><trkpt lat="44.54704581675906" lon="10.232379192588088"><ele>469.0</ele><time>2026-03-28T08:49:20Z</time></trkpt><trkpt lat="44.54701248960977" lon="10.232290434842598"><ele>469.0</ele><time>2026-03-28T08:49:21Z</time></trkpt><trkpt lat="44.5469598924098" lon="10.232185164014243"><ele>469.0</ele><time>2026-03-28T08:49:22Z</time></trkpt><trkpt lat="44.5469372026124" lon="10.232065053611068"><ele>469.00000000000006</ele><time>2026-03-28T08:49:23Z</time></trkpt><trkpt lat="44.54689976393156" lon="10.231952111127521"><ele>469.0</ele><time>2026-03-28T08:49:24Z</time></trkpt><trkpt lat="44.54685590516186" lon="10.231859974825714"><ele>469.6</ele><time>2026-03-28T08:49:25Z</time></trkpt><trkpt lat="44.54683707901811" lon="10.231773409452881"><ele>470.2</ele><time>2026-03-28T08:49:26Z</time></trkpt><trkpt lat="44.54679324191202" lon="10.231690163586887"><ele>470.80000000000007</ele><time>2026-03-28T08:49:27Z</time></trkpt><trkpt lat="44.546708865063984" lon="10.231597030829446"><ele>471.40000000000003</ele><time>2026-03-28T08:49:28Z</time></trkpt><trkpt lat="44.54664835563278" lon="10.2314612697976"><ele>472.0</ele><time>2026-03-28T08:49:29Z</time></trkpt><trkpt lat="44.54657680172849" lon="10.231324735881618"><ele>473.0</ele><time>2026-03-28T08:49:30Z</time></trkpt><trkpt lat="44.54650247822459" lon="10.231191768758322"><ele>474.00000000000006</ele><time>2026-03-28T08:49:31Z</time></trkpt><trkpt lat="44.54641970968536" lon="10.231072687762026"><ele>475.00000000000006</ele><time>2026-03-28T08:49:32Z</time></trkpt><trkpt lat="44.54635653321124" lon="10.230945184891555"><ele>476.0</ele><time>2026-03-28T08:49:33Z</time></trkpt><trkpt lat="44.54631644882902" lon="10.230817339648771"><ele>477.0</ele><time>2026-03-28T08:49:34Z</time></trkpt><trkpt lat="44.54634143182225" lon="10.230690557932345"><ele>478.25</ele><time>2026-03-28T08:49:35Z</time></trkpt><trkpt lat="44.546370996520146" lon="10.23055632487876"><ele>479.5</ele><time>2026-03-28T08:49:36Z</time></trkpt><trkpt lat="44.54638572069902" lon="10.230384760164359"><ele>480.75</ele><time>2026-03-28T08:49:37Z</time></trkpt><trkpt lat="44.54639990946091" lon="10.23021220912587"><ele>482.0</ele><time>2026-03-28T08:49:38Z</time></trkpt><trkpt lat="44.546394036103685" lon="10.230041695139196"><ele>482.0</ele><time>2026-03-28T08:49:39Z</time></trkpt><trkpt lat="44.54642142433721" lon="10.229891359823519"><ele>482.00000000000006</ele><time>2026-03-28T08:49:40Z</time></trkpt><trkpt lat="44.54643537927801" lon="10.229742087335552"><ele>482.00000000000006</ele><time>2026-03-28T08:49:41Z</time></trkpt><trkpt lat="44.54647700892551" lon="10.229603194074219"><ele>482.0</ele><time>2026-03-28T08:49:42Z</time></trkpt><trkpt lat="44.54652199056099" lon="10.229479991699042"><ele>482.0</ele><time>2026-03-28T08:49:43Z</time></trkpt><trkpt lat="44.54656276412206" lon="10.229375155006045"><ele>483.0</ele><time>2026-03-28T08:49:44Z</time></trkpt><trkpt lat="44.54658183364465" lon="10.229269708709612"><ele>484.00000000000006</ele><time>2026-03-28T08:49:45Z</time></trkpt><trkpt lat="44.54657447549031" lon="10.229153251898147"><ele>485.00000000000006</ele><time>2026-03-28T08:49:46Z</time></trkpt><trkpt lat="44.546538398418136" lon="10.229035885182402"><ele>486.0</ele><time>2026-03-28T08:49:47Z</time></trkpt><trkpt lat="44.546482471572574" lon="10.228912770310075"><ele>487.0</ele><time>2026-03-28T08:49:48Z</time></trkpt><trkpt lat="44.54640540361456" lon="10.228789404515666"><ele>488.0</ele><time>2026-03-28T08:49:49Z</time></trkpt><trkpt lat="44.54633079952184" lon="10.22866519356106"><ele>489.00000000000006</ele><time>2026-03-28T08:49:50Z</time></trkpt><trkpt lat="44.54627550344853" lon="10.228531433570218"><ele>490.00000000000006</ele><time>2026-03-28T08:49:51Z</time></trkpt><trkpt lat="44.54622123793018" lon="10.228426731468986"><ele>491.0</ele><time>2026-03-28T08:49:52Z</time></trkpt><trkpt lat="44.54617183651181" lon="10.228322907530886"><ele>492.0</ele><time>2026-03-28T08:49:53Z</time></trkpt><trkpt lat="44.54613499510066" lon="10.228234014466544"><ele>493.0</ele><time>2026-03-28T08:49:54Z</time></trkpt><trkpt lat="44.546102704970906" lon="10.228154695864784"><ele>494.0</ele><time>2026-03-28T08:49:55Z</time></trkpt><trkpt lat="44.54604692573798" lon="10.228060488357727"><ele>495.0</ele><time>2026-03-28T08:49:57Z</time></trkpt><trkpt lat="44.5459768410101" lon="10.227961017970873"><ele>496.0</ele><time>2026-03-28T08:50:06Z</time></trkpt><trkpt lat="44.54592897736669" lon="10.227901211477104"><ele>497.0</ele><time>2026-03-28T08:50:07Z</time></trkpt><trkpt lat="44.54586429101854" lon="10.227846504382267"><ele>498.0</ele><time>2026-03-28T08:50:08Z</time></trkpt><trkpt lat="44.54579010946969" lon="10.227787509738354"><ele>498.0</ele><time>2026-03-28T08:50:10Z</time></trkpt><trkpt lat="44.54591438212092" lon="10.227888152561574"><ele>498.0</ele><time>2026-03-28T08:50:18.999Z</time></trkpt><trkpt lat="44.54599706618058" lon="10.227959081118003"><ele>498.0</ele><time>2026-03-28T08:50:19.999Z</time></trkpt><trkpt lat="44.54607345058952" lon="10.228040829706131"><ele>498.0</ele><time>2026-03-28T08:50:20.999Z</time></trkpt><trkpt lat="44.546130963908304" lon="10.228194235133493"><ele>498.0</ele><time>2026-03-28T08:50:21.999Z</time></trkpt><trkpt lat="44.54618360360939" lon="10.228327990289948"><ele>497.99999999999994</ele><time>2026-03-28T08:50:22.999Z</time></trkpt><trkpt lat="44.54622447548074" lon="10.228453826434997"><ele>497.99999999999994</ele><time>2026-03-28T08:50:23.999Z</time></trkpt><trkpt lat="44.54625741393532" lon="10.228566760946093"><ele>498.0</ele><time>2026-03-28T08:50:24.999Z</time></trkpt><trkpt lat="44.546334861955664" lon="10.228657535898353"><ele>498.0</ele><time>2026-03-28T08:50:25.999Z</time></trkpt><trkpt lat="44.546400849135466" lon="10.228768240409863"><ele>496.79999999999995</ele><time>2026-03-28T08:50:26.999Z</time></trkpt><trkpt lat="44.54647050313942" lon="10.22888446031731"><ele>495.59999999999997</ele><time>2026-03-28T08:50:27.999Z</time></trkpt><trkpt lat="44.546539596879974" lon="10.228972528916582"><ele>494.40000000000003</ele><time>2026-03-28T08:50:28.999Z</time></trkpt><trkpt lat="44.5466006892143" lon="10.229071574729742"><ele>493.20000000000005</ele><time>2026-03-28T08:50:29.999Z</time></trkpt><trkpt lat="44.54657653235611" lon="10.22923645067563"><ele>492.0</ele><time>2026-03-28T08:50:30.999Z</time></trkpt><trkpt lat="44.546562898025506" lon="10.229348402523406"><ele>491.0</ele><time>2026-03-28T08:50:31.999Z</time></trkpt><trkpt lat="44.54652587090062" lon="10.229457242384678"><ele>490.00000000000006</ele><time>2026-03-28T08:50:32.999Z</time></trkpt><trkpt lat="44.54648097058862" lon="10.229591007006405"><ele>489.00000000000006</ele><time>2026-03-28T08:50:33.999Z</time></trkpt><trkpt lat="44.546429614319095" lon="10.229737603620293"><ele>488.0</ele><time>2026-03-28T08:50:35Z</time></trkpt><trkpt lat="44.546393096698495" lon="10.229885216230677"><ele>487.0</ele><time>2026-03-28T08:50:36Z</time></trkpt><trkpt lat="44.54637951906275" lon="10.230049380181702"><ele>485.75</ele><time>2026-03-28T08:50:37Z</time></trkpt><trkpt lat="44.54637315233675" lon="10.230228993909916"><ele>484.5</ele><time>2026-03-28T08:50:38Z</time></trkpt><trkpt lat="44.54636552988051" lon="10.230415520372357"><ele>483.25</ele><time>2026-03-28T08:50:39Z</time></trkpt><trkpt lat="44.546332077354236" lon="10.230577449261851"><ele>482.0</ele><time>2026-03-28T08:50:40Z</time></trkpt><trkpt lat="44.546306953046596" lon="10.230724220384051"><ele>481.0</ele><time>2026-03-28T08:50:41Z</time></trkpt><trkpt lat="44.546306528607374" lon="10.230859038599176"><ele>480.00000000000006</ele><time>2026-03-28T08:50:42Z</time></trkpt><trkpt lat="44.546328913029356" lon="10.230972170521301"><ele>479.00000000000006</ele><time>2026-03-28T08:50:43Z</time></trkpt><trkpt lat="44.54639104687725" lon="10.23107990515834"><ele>478.0</ele><time>2026-03-28T08:50:44Z</time></trkpt><trkpt lat="44.54646969697292" lon="10.231200652765931"><ele>477.0</ele><time>2026-03-28T08:50:45Z</time></trkpt><trkpt lat="44.54655129865426" lon="10.231338960466928"><ele>477.0</ele><time>2026-03-28T08:50:46Z</time></trkpt><trkpt lat="44.546619305522704" lon="10.231470025322501"><ele>477.0</ele><time>2026-03-28T08:50:47Z</time></trkpt><trkpt lat="44.546682760395136" lon="10.231603031595093"><ele>477.0</ele><time>2026-03-28T08:50:48Z</time></trkpt><trkpt lat="44.54675892684805" lon="10.23172016718526"><ele>477.0</ele><time>2026-03-28T08:50:49Z</time></trkpt><trkpt lat="44.54683601196071" lon="10.231850916797988"><ele>476.0</ele><time>2026-03-28T08:50:50Z</time></trkpt><trkpt lat="44.54688143517918" lon="10.231997081351706"><ele>475.00000000000006</ele><time>2026-03-28T08:50:51Z</time></trkpt><trkpt lat="44.54692274597124" lon="10.232127391305296"><ele>474.00000000000006</ele><time>2026-03-28T08:50:52Z</time></trkpt><trkpt lat="44.54696398694197" lon="10.232243335346288"><ele>473.0</ele><time>2026-03-28T08:50:53Z</time></trkpt><trkpt lat="44.54699678777938" lon="10.232354413490024"><ele>472.0</ele><time>2026-03-28T08:50:54Z</time></trkpt><trkpt lat="44.547040738756515" lon="10.232453185638297"><ele>471.40000000000003</ele><time>2026-03-28T08:50:55Z</time></trkpt><trkpt lat="44.54709976576485" lon="10.232555210314052"><ele>470.80000000000007</ele><time>2026-03-28T08:50:56Z</time></trkpt><trkpt lat="44.54717128280767" lon="10.232655323679026"><ele>470.2</ele><time>2026-03-28T08:50:57Z</time></trkpt><trkpt lat="44.54724627384433" lon="10.23275469761004"><ele>469.6</ele><time>2026-03-28T08:50:58Z</time></trkpt><trkpt lat="44.54732061676604" lon="10.232857797426963"><ele>469.0</ele><time>2026-03-28T08:50:59Z</time></trkpt><trkpt lat="44.54738758913532" lon="10.232939474783961"><ele>469.00000000000006</ele><time>2026-03-28T08:51:00Z</time></trkpt><trkpt lat="44.547440731335826" lon="10.233059654618698"><ele>469.0</ele><time>2026-03-28T08:51:02Z</time></trkpt><trkpt lat="44.54739980595998" lon="10.233138622634653"><ele>469.0</ele><time>2026-03-28T08:51:04Z</time></trkpt><trkpt lat="44.54731555087104" lon="10.233070017860978"><ele>469.0</ele><time>2026-03-28T08:51:05Z</time></trkpt><trkpt lat="44.54724272913793" lon="10.233015949129188"><ele>469.00000000000006</ele><time>2026-03-28T08:51:06Z</time></trkpt><trkpt lat="44.54715057949598" lon="10.232975281295985"><ele>469.0</ele><time>2026-03-28T08:51:07Z</time></trkpt><trkpt lat="44.54708629646925" lon="10.23292629664967"><ele>468.0</ele><time>2026-03-28T08:51:08Z</time></trkpt><trkpt lat="44.547001394263525" lon="10.232911431304748"><ele>467.0</ele><time>2026-03-28T08:51:10Z</time></trkpt><trkpt lat="44.546978834718416" lon="10.233047927284717"><ele>466.0</ele><time>2026-03-28T08:51:12Z</time></trkpt><trkpt lat="44.546912855170625" lon="10.233044193332633"><ele>465.0</ele><time>2026-03-28T08:51:14Z</time></trkpt><trkpt lat="44.54677135920331" lon="10.233067619424483"><ele>464.0</ele><time>2026-03-28T08:51:16Z</time></trkpt><trkpt lat="44.54662046549027" lon="10.2330994466056"><ele>462.0</ele><time>2026-03-28T08:51:17Z</time></trkpt><trkpt lat="44.54647970568022" lon="10.233148351283738"><ele>460.0</ele><time>2026-03-28T08:51:18Z</time></trkpt><trkpt lat="44.54634992786399" lon="10.23324589095846"><ele>458.0</ele><time>2026-03-28T08:51:19Z</time></trkpt><trkpt lat="44.546224403954234" lon="10.233402626550864"><ele>466.3333333333333</ele><time>2026-03-28T08:51:20Z</time></trkpt><trkpt lat="44.546105801020964" lon="10.233596907628296"><ele>474.66666666666663</ele><time>2026-03-28T08:51:21Z</time></trkpt><trkpt lat="44.5459608595654" lon="10.233736902673305"><ele>483.0</ele><time>2026-03-28T08:51:22Z</time></trkpt><trkpt lat="44.545814769005375" lon="10.233836489132079"><ele>483.0</ele><time>2026-03-28T08:51:23Z</time></trkpt><trkpt lat="44.54564634660396" lon="10.233864979970228"><ele>483.0</ele><time>2026-03-28T08:51:24Z</time></trkpt><trkpt lat="44.54545143167667" lon="10.23386241386197"><ele>483.0</ele><time>2026-03-28T08:51:25Z</time></trkpt><trkpt lat="44.545269325684906" lon="10.233868968129457"><ele>481.0</ele><time>2026-03-28T08:51:26Z</time></trkpt><trkpt lat="44.54510260989786" lon="10.233933280079155"><ele>479.0</ele><time>2026-03-28T08:51:27Z</time></trkpt><trkpt lat="44.544924963158955" lon="10.234040050050474"><ele>477.0</ele><time>2026-03-28T08:51:28Z</time></trkpt><trkpt lat="44.54477093618445" lon="10.234266826852265"><ele>477.0</ele><time>2026-03-28T08:51:29Z</time></trkpt><trkpt lat="44.544632972238645" lon="10.234464315170923"><ele>477.0</ele><time>2026-03-28T08:51:30Z</time></trkpt><trkpt lat="44.544487260635094" lon="10.2345487200506"><ele>477.0</ele><time>2026-03-28T08:51:31Z</time></trkpt><trkpt lat="44.54432783406738" lon="10.234615654923754"><ele>481.0</ele><time>2026-03-28T08:51:32Z</time></trkpt><trkpt lat="44.54413948808381" lon="10.23472522241722"><ele>485.0</ele><time>2026-03-28T08:51:33Z</time></trkpt><trkpt lat="44.54394678460024" lon="10.23461179515625"><ele>489.0</ele><time>2026-03-28T08:51:34Z</time></trkpt><trkpt lat="44.54376422609929" lon="10.234489988440687"><ele>490.33333333333337</ele><time>2026-03-28T08:51:35Z</time></trkpt><trkpt lat="44.543589490694245" lon="10.234342927816371"><ele>491.6666666666667</ele><time>2026-03-28T08:51:36Z</time></trkpt><trkpt lat="44.54343028819389" lon="10.234170732622779"><ele>493.0</ele><time>2026-03-28T08:51:37Z</time></trkpt><trkpt lat="44.54330510177887" lon="10.233949854760493"><ele>493.0</ele><time>2026-03-28T08:51:38Z</time></trkpt><trkpt lat="44.54316780529425" lon="10.233751337386057"><ele>493.0</ele><time>2026-03-28T08:51:39Z</time></trkpt><trkpt lat="44.5430266410447" lon="10.233576610567688"><ele>493.0</ele><time>2026-03-28T08:51:40Z</time></trkpt><trkpt lat="44.54289534106936" lon="10.233430959850159"><ele>491.6666666666667</ele><time>2026-03-28T08:51:41Z</time></trkpt><trkpt lat="44.54272889402818" lon="10.233321961940739"><ele>490.33333333333337</ele><time>2026-03-28T08:51:42Z</time></trkpt><trkpt lat="44.542547114599024" lon="10.233251629126917"><ele>489.0</ele><time>2026-03-28T08:51:43Z</time></trkpt><trkpt lat="44.542374085409925" lon="10.23322741582442"><ele>489.0</ele><time>2026-03-28T08:51:44Z</time></trkpt><trkpt lat="44.54221211618144" lon="10.233237330911438"><ele>489.0</ele><time>2026-03-28T08:51:45Z</time></trkpt><trkpt lat="44.54204408199851" lon="10.233286039095926"><ele>489.0</ele><time>2026-03-28T08:51:46Z</time></trkpt><trkpt lat="44.54187373280174" lon="10.233361771070253"><ele>490.66666666666663</ele><time>2026-03-28T08:51:47Z</time></trkpt><trkpt lat="44.5417083003511" lon="10.233402662274143"><ele>492.3333333333333</ele><time>2026-03-28T08:51:48Z</time></trkpt><trkpt lat="44.54156604765681" lon="10.233454350708755"><ele>494.0</ele><time>2026-03-28T08:51:49Z</time></trkpt><trkpt lat="44.54140938819283" lon="10.233509140117409"><ele>494.0</ele><time>2026-03-28T08:51:50Z</time></trkpt><trkpt lat="44.54124625150753" lon="10.233556481682387"><ele>494.0</ele><time>2026-03-28T08:51:51Z</time></trkpt><trkpt lat="44.54107596852463" lon="10.233603111282537"><ele>494.0</ele><time>2026-03-28T08:51:52Z</time></trkpt><trkpt lat="44.54090226918676" lon="10.233642798112454"><ele>496.0</ele><time>2026-03-28T08:51:53Z</time></trkpt><trkpt lat="44.54074003777446" lon="10.233670835670141"><ele>498.0</ele><time>2026-03-28T08:51:54Z</time></trkpt><trkpt lat="44.54057841073613" lon="10.233678854700015"><ele>500.0</ele><time>2026-03-28T08:51:55Z</time></trkpt><trkpt lat="44.540420553112455" lon="10.233654034983578"><ele>500.0</ele><time>2026-03-28T08:51:56Z</time></trkpt><trkpt lat="44.54025312966803" lon="10.23360726206367"><ele>500.0</ele><time>2026-03-28T08:51:57Z</time></trkpt><trkpt lat="44.54008008665661" lon="10.233565109704669"><ele>500.0</ele><time>2026-03-28T08:51:58Z</time></trkpt><trkpt lat="44.5399163352293" lon="10.233503822544437"><ele>500.0</ele><time>2026-03-28T08:51:59Z</time></trkpt><trkpt lat="44.539775631422465" lon="10.233423196322331"><ele>500.0</ele><time>2026-03-28T08:52:00Z</time></trkpt><trkpt lat="44.53965378846448" lon="10.233358249861501"><ele>500.0</ele><time>2026-03-28T08:52:01Z</time></trkpt><trkpt lat="44.53951831886208" lon="10.233301603305318"><ele>500.0</ele><time>2026-03-28T08:52:02Z</time></trkpt><trkpt lat="44.539386093448535" lon="10.23323020648529"><ele>501.3333333333333</ele><time>2026-03-28T08:52:03Z</time></trkpt><trkpt lat="44.53924460584143" lon="10.233177151455758"><ele>502.66666666666663</ele><time>2026-03-28T08:52:04Z</time></trkpt><trkpt lat="44.53909053008497" lon="10.23314853600811"><ele>504.0</ele><time>2026-03-28T08:52:05Z</time></trkpt><trkpt lat="44.53892729678237" lon="10.233175077737666"><ele>504.0</ele><time>2026-03-28T08:52:06Z</time></trkpt><trkpt lat="44.53875548462526" lon="10.23326170689746"><ele>504.0</ele><time>2026-03-28T08:52:07Z</time></trkpt><trkpt lat="44.53860803024112" lon="10.233361878820775"><ele>504.0</ele><time>2026-03-28T08:52:08Z</time></trkpt><trkpt lat="44.53848844776102" lon="10.233410706855633"><ele>507.25</ele><time>2026-03-28T08:52:09Z</time></trkpt><trkpt lat="44.53835436431309" lon="10.233458564690096"><ele>510.5</ele><time>2026-03-28T08:52:10Z</time></trkpt><trkpt lat="44.53820474103137" lon="10.233475648363791"><ele>513.75</ele><time>2026-03-28T08:52:11Z</time></trkpt><trkpt lat="44.53805295129239" lon="10.233485657236098"><ele>517.0</ele><time>2026-03-28T08:52:12Z</time></trkpt><trkpt lat="44.53786881632889" lon="10.233486389526655"><ele>518.5</ele><time>2026-03-28T08:52:12.999Z</time></trkpt><trkpt lat="44.53764877913181" lon="10.233476414190784"><ele>520.0</ele><time>2026-03-28T08:52:13.999Z</time></trkpt><trkpt lat="44.53739644157017" lon="10.23348462445641"><ele>520.0</ele><time>2026-03-28T08:52:14.999Z</time></trkpt><trkpt lat="44.53712938423735" lon="10.233446556488047"><ele>520.0</ele><time>2026-03-28T08:52:15.999Z</time></trkpt><trkpt lat="44.53687536062949" lon="10.233341945807341"><ele>521.3333333333334</ele><time>2026-03-28T08:52:16.999Z</time></trkpt><trkpt lat="44.536651535028696" lon="10.233307435407994"><ele>522.6666666666666</ele><time>2026-03-28T08:52:17.999Z</time></trkpt><trkpt lat="44.53645679004247" lon="10.233273928812684"><ele>524.0</ele><time>2026-03-28T08:52:18.999Z</time></trkpt><trkpt lat="44.53626741073455" lon="10.2331951071474"><ele>528.0</ele><time>2026-03-28T08:52:19.999Z</time></trkpt><trkpt lat="44.53608953462951" lon="10.23305208182423"><ele>532.0</ele><time>2026-03-28T08:52:20.999Z</time></trkpt><trkpt lat="44.53589692753296" lon="10.232889256680728"><ele>536.0</ele><time>2026-03-28T08:52:21.999Z</time></trkpt><trkpt lat="44.535729765762824" lon="10.232736947694315"><ele>536.0</ele><time>2026-03-28T08:52:22.999Z</time></trkpt><trkpt lat="44.53559470434788" lon="10.232571125047208"><ele>536.0</ele><time>2026-03-28T08:52:23.999Z</time></trkpt><trkpt lat="44.53546764198684" lon="10.232365536533738"><ele>536.0</ele><time>2026-03-28T08:52:24.999Z</time></trkpt><trkpt lat="44.53532747061659" lon="10.232133181718273"><ele>535.6666666666666</ele><time>2026-03-28T08:52:25.999Z</time></trkpt><trkpt lat="44.535207976590236" lon="10.231923249876061"><ele>535.3333333333334</ele><time>2026-03-28T08:52:26.999Z</time></trkpt><trkpt lat="44.53508374230274" lon="10.231714986378387"><ele>535.0</ele><time>2026-03-28T08:52:27.999Z</time></trkpt><trkpt lat="44.53494683773538" lon="10.231518969042574"><ele>537.0</ele><time>2026-03-28T08:52:28.999Z</time></trkpt><trkpt lat="44.534808004822644" lon="10.231313494624738"><ele>539.0</ele><time>2026-03-28T08:52:29.999Z</time></trkpt><trkpt lat="44.53465639269375" lon="10.23112051675211"><ele>541.0</ele><time>2026-03-28T08:52:30.999Z</time></trkpt><trkpt lat="44.53450224188706" lon="10.230931539562649"><ele>541.0</ele><time>2026-03-28T08:52:31.999Z</time></trkpt><trkpt lat="44.53434442237404" lon="10.230746670375135"><ele>541.0</ele><time>2026-03-28T08:52:32.999Z</time></trkpt><trkpt lat="44.534191840419" lon="10.230585472963446"><ele>541.0</ele><time>2026-03-28T08:52:33.999Z</time></trkpt><trkpt lat="44.534039057864995" lon="10.230445312742905"><ele>544.0</ele><time>2026-03-28T08:52:34.999Z</time></trkpt><trkpt lat="44.53390084475887" lon="10.23033974519161"><ele>547.0</ele><time>2026-03-28T08:52:35.999Z</time></trkpt><trkpt lat="44.533758669521355" lon="10.230233688602983"><ele>550.0</ele><time>2026-03-28T08:52:36.999Z</time></trkpt><trkpt lat="44.53359437807873" lon="10.230108591384019"><ele>550.0</ele><time>2026-03-28T08:52:37.999Z</time></trkpt><trkpt lat="44.53343312930443" lon="10.229985344088846"><ele>550.0</ele><time>2026-03-28T08:52:38.999Z</time></trkpt><trkpt lat="44.53326855752308" lon="10.229866516044641"><ele>550.0</ele><time>2026-03-28T08:52:39.999Z</time></trkpt><trkpt lat="44.53310086986263" lon="10.229750946594768"><ele>553.6666666666667</ele><time>2026-03-28T08:52:41Z</time></trkpt><trkpt lat="44.532929536953205" lon="10.229630861959583"><ele>557.3333333333334</ele><time>2026-03-28T08:52:42Z</time></trkpt><trkpt lat="44.532758297577686" lon="10.22950321731638"><ele>561.0</ele><time>2026-03-28T08:52:43Z</time></trkpt><trkpt lat="44.53259939316183" lon="10.229341204897173"><ele>561.0</ele><time>2026-03-28T08:52:44Z</time></trkpt><trkpt lat="44.532431814179695" lon="10.229183078708633"><ele>561.0</ele><time>2026-03-28T08:52:45Z</time></trkpt><trkpt lat="44.53226830353726" lon="10.229026610228415"><ele>561.0</ele><time>2026-03-28T08:52:46Z</time></trkpt><trkpt lat="44.532114051673524" lon="10.228906904644704"><ele>564.6666666666666</ele><time>2026-03-28T08:52:47Z</time></trkpt><trkpt lat="44.53197594905786" lon="10.228792922611627"><ele>568.3333333333333</ele><time>2026-03-28T08:52:48Z</time></trkpt><trkpt lat="44.53182040843572" lon="10.228760363006565"><ele>572.0</ele><time>2026-03-28T08:52:49Z</time></trkpt><trkpt lat="44.531634948546014" lon="10.228725787724244"><ele>572.0</ele><time>2026-03-28T08:52:50Z</time></trkpt><trkpt lat="44.531423966898565" lon="10.228754747160385"><ele>572.0</ele><time>2026-03-28T08:52:51Z</time></trkpt><trkpt lat="44.531221764035955" lon="10.22883718227121"><ele>572.0</ele><time>2026-03-28T08:52:52Z</time></trkpt><trkpt lat="44.5309887136465" lon="10.228886492713618"><ele>570.0</ele><time>2026-03-28T08:52:53Z</time></trkpt><trkpt lat="44.53082180027595" lon="10.228713468761622"><ele>568.0</ele><time>2026-03-28T08:52:54Z</time></trkpt><trkpt lat="44.53065211310467" lon="10.22870137380691"><ele>566.0</ele><time>2026-03-28T08:52:55Z</time></trkpt><trkpt lat="44.53048356562788" lon="10.22873337787914"><ele>565.3333333333333</ele><time>2026-03-28T08:52:56Z</time></trkpt><trkpt lat="44.53033244667348" lon="10.22886750313618"><ele>564.6666666666666</ele><time>2026-03-28T08:52:57Z</time></trkpt><trkpt lat="44.53019040101351" lon="10.228976348212122"><ele>564.0</ele><time>2026-03-28T08:52:58Z</time></trkpt><trkpt lat="44.530074008587825" lon="10.229115211413944"><ele>561.4</ele><time>2026-03-28T08:52:59Z</time></trkpt><trkpt lat="44.529961524774926" lon="10.229185283113676"><ele>558.8</ele><time>2026-03-28T08:53:00Z</time></trkpt><trkpt lat="44.529865733744906" lon="10.229223590337853"><ele>556.2</ele><time>2026-03-28T08:53:01Z</time></trkpt><trkpt lat="44.52976666877015" lon="10.229239672617064"><ele>553.6</ele><time>2026-03-28T08:53:02Z</time></trkpt><trkpt lat="44.529670865396824" lon="10.229214981294588"><ele>551.0</ele><time>2026-03-28T08:53:03Z</time></trkpt><trkpt lat="44.52956185483278" lon="10.229136092065772"><ele>551.75</ele><time>2026-03-28T08:53:04Z</time></trkpt><trkpt lat="44.52946485339117" lon="10.229049316352093"><ele>552.5</ele><time>2026-03-28T08:53:05Z</time></trkpt><trkpt lat="44.529395099120244" lon="10.228934513417554"><ele>553.25</ele><time>2026-03-28T08:53:06Z</time></trkpt><trkpt lat="44.52931530639785" lon="10.228800158010204"><ele>554.0</ele><time>2026-03-28T08:53:07Z</time></trkpt><trkpt lat="44.52923290243898" lon="10.228650076450597"><ele>554.0</ele><time>2026-03-28T08:53:08Z</time></trkpt><trkpt lat="44.52914702721188" lon="10.228503983878225"><ele>554.0</ele><time>2026-03-28T08:53:09Z</time></trkpt><trkpt lat="44.52905448094587" lon="10.228370541768472"><ele>554.0</ele><time>2026-03-28T08:53:10Z</time></trkpt><trkpt lat="44.52895976935481" lon="10.228262703725045"><ele>554.0</ele><time>2026-03-28T08:53:11Z</time></trkpt><trkpt lat="44.528860472852344" lon="10.22819078052333"><ele>552.75</ele><time>2026-03-28T08:53:12Z</time></trkpt><trkpt lat="44.528770213448034" lon="10.228085862904775"><ele>551.5</ele><time>2026-03-28T08:53:13Z</time></trkpt><trkpt lat="44.5286769338364" lon="10.227976840789012"><ele>550.25</ele><time>2026-03-28T08:53:14Z</time></trkpt><trkpt lat="44.52859913349522" lon="10.227843671139148"><ele>549.0</ele><time>2026-03-28T08:53:15Z</time></trkpt><trkpt lat="44.5285522827231" lon="10.227699335313572"><ele>549.0</ele><time>2026-03-28T08:53:16Z</time></trkpt><trkpt lat="44.52849706885078" lon="10.227556963335186"><ele>549.0</ele><time>2026-03-28T08:53:17Z</time></trkpt><trkpt lat="44.52846725914713" lon="10.227397771728263"><ele>549.0</ele><time>2026-03-28T08:53:18Z</time></trkpt><trkpt lat="44.52844530630532" lon="10.22722851837327"><ele>549.0</ele><time>2026-03-28T08:53:19Z</time></trkpt><trkpt lat="44.528419131709114" lon="10.227051616886937"><ele>550.0</ele><time>2026-03-28T08:53:20Z</time></trkpt><trkpt lat="44.52839185626296" lon="10.226886052086984"><ele>551.0</ele><time>2026-03-28T08:53:21Z</time></trkpt><trkpt lat="44.528358050871" lon="10.226705571507923"><ele>552.0</ele><time>2026-03-28T08:53:22Z</time></trkpt><trkpt lat="44.52833351567447" lon="10.226516295696198"><ele>553.0</ele><time>2026-03-28T08:53:23Z</time></trkpt><trkpt lat="44.528208679224655" lon="10.226341240572202"><ele>551.3333333333334</ele><time>2026-03-28T08:53:24Z</time></trkpt><trkpt lat="44.52810779951532" lon="10.22614143436165"><ele>549.6666666666666</ele><time>2026-03-28T08:53:25Z</time></trkpt><trkpt lat="44.52799971867412" lon="10.22592084411563"><ele>548.0</ele><time>2026-03-28T08:53:26Z</time></trkpt><trkpt lat="44.52788792184397" lon="10.225737056763261"><ele>550.5</ele><time>2026-03-28T08:53:27Z</time></trkpt><trkpt lat="44.52778631408787" lon="10.225576376704952"><ele>553.0</ele><time>2026-03-28T08:53:28Z</time></trkpt><trkpt lat="44.527685012923136" lon="10.225481076594649"><ele>555.5</ele><time>2026-03-28T08:53:29Z</time></trkpt><trkpt lat="44.52760434087889" lon="10.225375318857585"><ele>558.0</ele><time>2026-03-28T08:53:30Z</time></trkpt><trkpt lat="44.52751836983512" lon="10.225275137794146"><ele>558.0</ele><time>2026-03-28T08:53:31Z</time></trkpt><trkpt lat="44.52744069011177" lon="10.225151686096218"><ele>558.0</ele><time>2026-03-28T08:53:32Z</time></trkpt><trkpt lat="44.52737493014328" lon="10.225013480631688"><ele>558.0</ele><time>2026-03-28T08:53:33Z</time></trkpt><trkpt lat="44.527337698335195" lon="10.224871058377659"><ele>558.0</ele><time>2026-03-28T08:53:34Z</time></trkpt><trkpt lat="44.52733835923101" lon="10.224707165522931"><ele>559.1999999999999</ele><time>2026-03-28T08:53:35Z</time></trkpt><trkpt lat="44.52733212446805" lon="10.224544578558556"><ele>560.4</ele><time>2026-03-28T08:53:36Z</time></trkpt><trkpt lat="44.527327373527214" lon="10.224401817222088"><ele>561.5999999999999</ele><time>2026-03-28T08:53:37Z</time></trkpt><trkpt lat="44.527295017842214" lon="10.224270822607139"><ele>562.8</ele><time>2026-03-28T08:53:38Z</time></trkpt><trkpt lat="44.527234960506505" lon="10.224153776238852"><ele>564.0</ele><time>2026-03-28T08:53:39Z</time></trkpt><trkpt lat="44.52712439162241" lon="10.22399409549794"><ele>562.6666666666666</ele><time>2026-03-28T08:53:40Z</time></trkpt><trkpt lat="44.526953179710965" lon="10.223890770285152"><ele>561.3333333333333</ele><time>2026-03-28T08:53:41Z</time></trkpt><trkpt lat="44.526811899199124" lon="10.223782608342427"><ele>560.0</ele><time>2026-03-28T08:53:42Z</time></trkpt><trkpt lat="44.526697088850156" lon="10.223673154446148"><ele>560.0</ele><time>2026-03-28T08:53:43Z</time></trkpt><trkpt lat="44.52661608626686" lon="10.223535060556921"><ele>560.0</ele><time>2026-03-28T08:53:44Z</time></trkpt><trkpt lat="44.52656625582717" lon="10.223365635052364"><ele>560.0</ele><time>2026-03-28T08:53:45Z</time></trkpt><trkpt lat="44.52656898531206" lon="10.223217541175321"><ele>560.0</ele><time>2026-03-28T08:53:46Z</time></trkpt><trkpt lat="44.52659076793477" lon="10.223122816537298"><ele>560.0</ele><time>2026-03-28T08:53:47Z</time></trkpt><trkpt lat="44.52657867592807" lon="10.222978019387389"><ele>561.0</ele><time>2026-03-28T08:54:37.999Z</time></trkpt><trkpt lat="44.52658219229562" lon="10.222740090356"><ele>562.0</ele><time>2026-03-28T08:54:39.999Z</time></trkpt><trkpt lat="44.52657009216448" lon="10.222593241086344"><ele>563.0</ele><time>2026-03-28T08:54:40.999Z</time></trkpt><trkpt lat="44.52654670700418" lon="10.222463812022248"><ele>564.0</ele><time>2026-03-28T08:54:41.999Z</time></trkpt><trkpt lat="44.52649496484416" lon="10.222296665367098"><ele>564.2</ele><time>2026-03-28T08:54:42.999Z</time></trkpt><trkpt lat="44.52645421336423" lon="10.222210797984697"><ele>564.4</ele><time>2026-03-28T08:54:43.999Z</time></trkpt><trkpt lat="44.52639739124663" lon="10.22210189133701"><ele>564.6</ele><time>2026-03-28T08:54:44.999Z</time></trkpt><trkpt lat="44.5263288215051" lon="10.221984128775755"><ele>564.8</ele><time>2026-03-28T08:54:45.999Z</time></trkpt><trkpt lat="44.526260216449906" lon="10.221865657190191"><ele>565.0</ele><time>2026-03-28T08:54:47Z</time></trkpt><trkpt lat="44.526190767842806" lon="10.221756306254768"><ele>563.4</ele><time>2026-03-28T08:54:48Z</time></trkpt><trkpt lat="44.52611735018194" lon="10.221676307812658"><ele>561.8</ele><time>2026-03-28T08:54:49Z</time></trkpt><trkpt lat="44.52602751630111" lon="10.221626542108295"><ele>560.2</ele><time>2026-03-28T08:54:50Z</time></trkpt><trkpt lat="44.52593681938433" lon="10.221637220459497"><ele>558.6</ele><time>2026-03-28T08:54:51Z</time></trkpt><trkpt lat="44.525860142157526" lon="10.221608430231747"><ele>557.0</ele><time>2026-03-28T08:54:52Z</time></trkpt><trkpt lat="44.52575372136534" lon="10.22162906981666"><ele>557.0</ele><time>2026-03-28T08:54:53Z</time></trkpt><trkpt lat="44.52564820154345" lon="10.221645074081252"><ele>557.0</ele><time>2026-03-28T08:54:54Z</time></trkpt><trkpt lat="44.52554704341351" lon="10.221644926836222"><ele>557.0</ele><time>2026-03-28T08:54:55Z</time></trkpt><trkpt lat="44.52545601355594" lon="10.221622085727146"><ele>557.0</ele><time>2026-03-28T08:54:56Z</time></trkpt><trkpt lat="44.525359613922596" lon="10.221601023808594"><ele>557.0</ele><time>2026-03-28T08:54:57Z</time></trkpt><trkpt lat="44.525273940592434" lon="10.22157054390793"><ele>556.75</ele><time>2026-03-28T08:54:58Z</time></trkpt><trkpt lat="44.525170636654394" lon="10.221517661087972"><ele>556.5</ele><time>2026-03-28T08:54:59Z</time></trkpt><trkpt lat="44.52505266892577" lon="10.221420088730166"><ele>556.25</ele><time>2026-03-28T08:55:00Z</time></trkpt><trkpt lat="44.52493524918669" lon="10.221314058934253"><ele>556.0</ele><time>2026-03-28T08:55:01Z</time></trkpt><trkpt lat="44.52479852033288" lon="10.221238599999596"><ele>558.0</ele><time>2026-03-28T08:55:02Z</time></trkpt><trkpt lat="44.52465976194356" lon="10.221166075095265"><ele>560.0</ele><time>2026-03-28T08:55:03Z</time></trkpt><trkpt lat="44.524504665311156" lon="10.221148516191331"><ele>562.0</ele><time>2026-03-28T08:55:04Z</time></trkpt><trkpt lat="44.524352449076595" lon="10.22120683046759"><ele>561.0</ele><time>2026-03-28T08:55:05Z</time></trkpt><trkpt lat="44.52420916144967" lon="10.221309067428422"><ele>560.0</ele><time>2026-03-28T08:55:06Z</time></trkpt><trkpt lat="44.52408358011891" lon="10.221469995879964"><ele>559.0</ele><time>2026-03-28T08:55:07Z</time></trkpt><trkpt lat="44.523981470501184" lon="10.221673822738136"><ele>559.0</ele><time>2026-03-28T08:55:08Z</time></trkpt><trkpt lat="44.52387269580653" lon="10.22181666341989"><ele>559.0</ele><time>2026-03-28T08:55:09Z</time></trkpt><trkpt lat="44.523756059771515" lon="10.221861047586449"><ele>559.0</ele><time>2026-03-28T08:55:10Z</time></trkpt><trkpt lat="44.52360927566523" lon="10.221888740262795"><ele>559.0</ele><time>2026-03-28T08:55:11Z</time></trkpt><trkpt lat="44.523449386372995" lon="10.221895010325174"><ele>561.3333333333334</ele><time>2026-03-28T08:55:12Z</time></trkpt><trkpt lat="44.52328584351017" lon="10.221872718253694"><ele>563.6666666666666</ele><time>2026-03-28T08:55:13Z</time></trkpt><trkpt lat="44.52312317467575" lon="10.221824506737981"><ele>566.0</ele><time>2026-03-28T08:55:14Z</time></trkpt><trkpt lat="44.5229467593627" lon="10.221742831443256"><ele>565.6666666666666</ele><time>2026-03-28T08:55:15Z</time></trkpt><trkpt lat="44.52275764320636" lon="10.221650577661416"><ele>565.3333333333334</ele><time>2026-03-28T08:55:16Z</time></trkpt><trkpt lat="44.522574900225365" lon="10.221569537167545"><ele>565.0</ele><time>2026-03-28T08:55:17Z</time></trkpt><trkpt lat="44.52239953055866" lon="10.221518165688439"><ele>565.0</ele><time>2026-03-28T08:55:18Z</time></trkpt><trkpt lat="44.522219141916835" lon="10.22148928676813"><ele>565.0</ele><time>2026-03-28T08:55:19Z</time></trkpt><trkpt lat="44.52203128835064" lon="10.221533420818025"><ele>565.0</ele><time>2026-03-28T08:55:20Z</time></trkpt><trkpt lat="44.52185243688093" lon="10.221652974072374"><ele>565.3333333333334</ele><time>2026-03-28T08:55:21Z</time></trkpt><trkpt lat="44.521679122141826" lon="10.22177947007909"><ele>565.6666666666666</ele><time>2026-03-28T08:55:22Z</time></trkpt><trkpt lat="44.521503437758774" lon="10.22179057897549"><ele>566.0</ele><time>2026-03-28T08:55:23Z</time></trkpt><trkpt lat="44.52132477311803" lon="10.221766139175442"><ele>568.3333333333333</ele><time>2026-03-28T08:55:24Z</time></trkpt><trkpt lat="44.52112893314302" lon="10.221705917001174"><ele>570.6666666666666</ele><time>2026-03-28T08:55:25Z</time></trkpt><trkpt lat="44.52093630454223" lon="10.221634508226519"><ele>573.0</ele><time>2026-03-28T08:55:26Z</time></trkpt><trkpt lat="44.52074781538642" lon="10.221546996578269"><ele>574.6666666666666</ele><time>2026-03-28T08:55:27Z</time></trkpt><trkpt lat="44.52055698719775" lon="10.221470250349503"><ele>576.3333333333333</ele><time>2026-03-28T08:55:28Z</time></trkpt><trkpt lat="44.52037590168951" lon="10.221401811081963"><ele>578.0</ele><time>2026-03-28T08:55:29Z</time></trkpt><trkpt lat="44.52019234977447" lon="10.221334495277581"><ele>578.3333333333333</ele><time>2026-03-28T08:55:30Z</time></trkpt><trkpt lat="44.52000689729015" lon="10.221277332159053"><ele>578.6666666666666</ele><time>2026-03-28T08:55:31Z</time></trkpt><trkpt lat="44.51981911596412" lon="10.22120879713147"><ele>579.0</ele><time>2026-03-28T08:55:32Z</time></trkpt><trkpt lat="44.51964625395765" lon="10.221074427919278"><ele>577.6666666666666</ele><time>2026-03-28T08:55:33Z</time></trkpt><trkpt lat="44.51946105486478" lon="10.220947773977237"><ele>576.3333333333333</ele><time>2026-03-28T08:55:34Z</time></trkpt><trkpt lat="44.519275211812754" lon="10.220774723913012"><ele>575.0</ele><time>2026-03-28T08:55:35Z</time></trkpt><trkpt lat="44.51907910159308" lon="10.220598496343776"><ele>578.3333333333333</ele><time>2026-03-28T08:55:36Z</time></trkpt><trkpt lat="44.518893599533385" lon="10.220440340708732"><ele>581.6666666666666</ele><time>2026-03-28T08:55:37Z</time></trkpt><trkpt lat="44.51869838951672" lon="10.22029990416773"><ele>585.0</ele><time>2026-03-28T08:55:38Z</time></trkpt><trkpt lat="44.518495045728834" lon="10.220178070936997"><ele>585.0</ele><time>2026-03-28T08:55:39Z</time></trkpt><trkpt lat="44.518299750358544" lon="10.220049545058735"><ele>585.0</ele><time>2026-03-28T08:55:40Z</time></trkpt><trkpt lat="44.51811342708087" lon="10.219928661210195"><ele>585.0</ele><time>2026-03-28T08:55:41Z</time></trkpt><trkpt lat="44.517929555044404" lon="10.219816784825753"><ele>587.6666666666666</ele><time>2026-03-28T08:55:42Z</time></trkpt><trkpt lat="44.51775256754514" lon="10.219721413736309"><ele>590.3333333333333</ele><time>2026-03-28T08:55:43Z</time></trkpt><trkpt lat="44.51756718619394" lon="10.219626021134554"><ele>593.0</ele><time>2026-03-28T08:55:44Z</time></trkpt><trkpt lat="44.51741277613937" lon="10.219525118310344"><ele>593.0</ele><time>2026-03-28T08:55:45Z</time></trkpt><trkpt lat="44.51727487600434" lon="10.219458525691861"><ele>593.0</ele><time>2026-03-28T08:55:46Z</time></trkpt><trkpt lat="44.517151692989366" lon="10.219338805122314"><ele>593.0</ele><time>2026-03-28T08:55:47Z</time></trkpt><trkpt lat="44.517032292145444" lon="10.2191894289402"><ele>591.6666666666666</ele><time>2026-03-28T08:55:48Z</time></trkpt><trkpt lat="44.51691168574238" lon="10.21902161424639"><ele>590.3333333333334</ele><time>2026-03-28T08:55:49Z</time></trkpt><trkpt lat="44.51678054012645" lon="10.21884949506761"><ele>589.0</ele><time>2026-03-28T08:55:50Z</time></trkpt><trkpt lat="44.51664789190762" lon="10.218677385825874"><ele>589.0</ele><time>2026-03-28T08:55:51Z</time></trkpt><trkpt lat="44.51652348807718" lon="10.218526183649992"><ele>589.0</ele><time>2026-03-28T08:55:52Z</time></trkpt><trkpt lat="44.51639375766491" lon="10.218420126251136"><ele>589.0</ele><time>2026-03-28T08:55:53Z</time></trkpt><trkpt lat="44.51624216035403" lon="10.218399226283887"><ele>589.3333333333334</ele><time>2026-03-28T08:55:54Z</time></trkpt><trkpt lat="44.51607113065793" lon="10.218460688450811"><ele>589.6666666666666</ele><time>2026-03-28T08:55:55Z</time></trkpt><trkpt lat="44.51588414870194" lon="10.21856822569264"><ele>590.0</ele><time>2026-03-28T08:55:56Z</time></trkpt><trkpt lat="44.51568539294187" lon="10.218632694410031"><ele>590.0</ele><time>2026-03-28T08:55:57Z</time></trkpt><trkpt lat="44.51548977006459" lon="10.21871610371713"><ele>590.0</ele><time>2026-03-28T08:55:58Z</time></trkpt><trkpt lat="44.51530403717218" lon="10.218795296152242"><ele>590.0</ele><time>2026-03-28T08:55:59Z</time></trkpt><trkpt lat="44.51512737935218" lon="10.218895898594665"><ele>590.6666666666666</ele><time>2026-03-28T08:56:00Z</time></trkpt><trkpt lat="44.51496396808108" lon="10.218955702226994"><ele>591.3333333333334</ele><time>2026-03-28T08:56:01Z</time></trkpt><trkpt lat="44.51480470099785" lon="10.21903614598844"><ele>592.0</ele><time>2026-03-28T08:56:02Z</time></trkpt><trkpt lat="44.51464158168825" lon="10.21916499539699"><ele>589.5</ele><time>2026-03-28T08:56:03Z</time></trkpt><trkpt lat="44.51449637670608" lon="10.219299554193698"><ele>587.0</ele><time>2026-03-28T08:56:04Z</time></trkpt><trkpt lat="44.51437236219907" lon="10.21935385559027"><ele>584.5</ele><time>2026-03-28T08:56:05Z</time></trkpt><trkpt lat="44.51427664536435" lon="10.219404066629632"><ele>582.0</ele><time>2026-03-28T08:56:06Z</time></trkpt><trkpt lat="44.514161579354116" lon="10.219324041508337"><ele>582.0</ele><time>2026-03-28T08:56:07Z</time></trkpt><trkpt lat="44.51399517895592" lon="10.219253499290682"><ele>582.0</ele><time>2026-03-28T08:56:08Z</time></trkpt><trkpt lat="44.51381425279844" lon="10.219199414070404"><ele>582.0</ele><time>2026-03-28T08:56:09Z</time></trkpt><trkpt lat="44.513649878379006" lon="10.21912410039888"><ele>580.75</ele><time>2026-03-28T08:56:10Z</time></trkpt><trkpt lat="44.51350332580712" lon="10.219045504725596"><ele>579.5</ele><time>2026-03-28T08:56:11Z</time></trkpt><trkpt lat="44.51339100541426" lon="10.218917802049436"><ele>578.25</ele><time>2026-03-28T08:56:12Z</time></trkpt><trkpt lat="44.51329361613756" lon="10.218781227525024"><ele>577.0</ele><time>2026-03-28T08:56:12.999Z</time></trkpt><trkpt lat="44.51324996806314" lon="10.218565072685147"><ele>577.0</ele><time>2026-03-28T08:56:13.999Z</time></trkpt><trkpt lat="44.51320386692788" lon="10.218312538150274"><ele>577.0</ele><time>2026-03-28T08:56:14.999Z</time></trkpt><trkpt lat="44.51312831486318" lon="10.21807643884317"><ele>577.0</ele><time>2026-03-28T08:56:15.999Z</time></trkpt><trkpt lat="44.5130243969028" lon="10.217855034998289"><ele>576.6666666666667</ele><time>2026-03-28T08:56:16.999Z</time></trkpt><trkpt lat="44.51291018577465" lon="10.217652220146517"><ele>576.3333333333334</ele><time>2026-03-28T08:56:17.999Z</time></trkpt><trkpt lat="44.51278313807074" lon="10.21747806507824"><ele>576.0</ele><time>2026-03-28T08:56:18.999Z</time></trkpt><trkpt lat="44.51263171452056" lon="10.217328284213002"><ele>575.3333333333334</ele><time>2026-03-28T08:56:19.999Z</time></trkpt><trkpt lat="44.51246928654842" lon="10.217234238177646"><ele>574.6666666666667</ele><time>2026-03-28T08:56:20.999Z</time></trkpt><trkpt lat="44.51231457736118" lon="10.217147894903167"><ele>574.0</ele><time>2026-03-28T08:56:21.999Z</time></trkpt><trkpt lat="44.51221420962934" lon="10.2169770107682"><ele>574.0</ele><time>2026-03-28T08:56:22.999Z</time></trkpt><trkpt lat="44.512073994582316" lon="10.216782758755835"><ele>574.0</ele><time>2026-03-28T08:56:23.999Z</time></trkpt><trkpt lat="44.51195251438954" lon="10.216555982574102"><ele>574.0</ele><time>2026-03-28T08:56:24.999Z</time></trkpt><trkpt lat="44.51182827399817" lon="10.216338803640152"><ele>571.6666666666667</ele><time>2026-03-28T08:56:25.999Z</time></trkpt><trkpt lat="44.511712291110896" lon="10.216146071262054"><ele>569.3333333333334</ele><time>2026-03-28T08:56:26.999Z</time></trkpt><trkpt lat="44.511597463458706" lon="10.215965202531237"><ele>567.0</ele><time>2026-03-28T08:56:27.999Z</time></trkpt><trkpt lat="44.511470376639984" lon="10.215809861447935"><ele>567.0</ele><time>2026-03-28T08:56:28.999Z</time></trkpt><trkpt lat="44.511334195683546" lon="10.215668075729065"><ele>567.0</ele><time>2026-03-28T08:56:29.999Z</time></trkpt><trkpt lat="44.51118433938164" lon="10.21553502352826"><ele>567.0</ele><time>2026-03-28T08:56:30.999Z</time></trkpt><trkpt lat="44.51103853420283" lon="10.21543821367731"><ele>566.3333333333334</ele><time>2026-03-28T08:56:31.999Z</time></trkpt><trkpt lat="44.510891658130944" lon="10.215397020771993"><ele>565.6666666666667</ele><time>2026-03-28T08:56:32.999Z</time></trkpt><trkpt lat="44.51072458521664" lon="10.21539871257369"><ele>565.0</ele><time>2026-03-28T08:56:33.999Z</time></trkpt><trkpt lat="44.51055841635848" lon="10.215469973367101"><ele>564.3333333333334</ele><time>2026-03-28T08:56:34.999Z</time></trkpt><trkpt lat="44.5103937181739" lon="10.21559262687146"><ele>563.6666666666666</ele><time>2026-03-28T08:56:35.999Z</time></trkpt><trkpt lat="44.51022435120609" lon="10.215669162795914"><ele>563.0</ele><time>2026-03-28T08:56:36.999Z</time></trkpt><trkpt lat="44.510067160604244" lon="10.215729794536392"><ele>561.3333333333333</ele><time>2026-03-28T08:56:37.999Z</time></trkpt><trkpt lat="44.50990408016582" lon="10.215739535117416"><ele>559.6666666666666</ele><time>2026-03-28T08:56:38.999Z</time></trkpt><trkpt lat="44.509734733738505" lon="10.215704742790766"><ele>558.0</ele><time>2026-03-28T08:56:39.999Z</time></trkpt><trkpt lat="44.5095584989626" lon="10.215615811840507"><ele>558.0</ele><time>2026-03-28T08:56:40.999Z</time></trkpt><trkpt lat="44.50937842280638" lon="10.215507799984977"><ele>558.0</ele><time>2026-03-28T08:56:41.999Z</time></trkpt><trkpt lat="44.509220117554094" lon="10.215399185651087"><ele>558.0</ele><time>2026-03-28T08:56:42.999Z</time></trkpt><trkpt lat="44.5090566271721" lon="10.215330195512312"><ele>558.0</ele><time>2026-03-28T08:56:43.999Z</time></trkpt><trkpt lat="44.50887871217029" lon="10.215302308703635"><ele>558.0</ele><time>2026-03-28T08:56:44.999Z</time></trkpt><trkpt lat="44.50869275444509" lon="10.215287300521052"><ele>558.0</ele><time>2026-03-28T08:56:45.999Z</time></trkpt><trkpt lat="44.5085164492726" lon="10.21527234179524"><ele>556.0</ele><time>2026-03-28T08:56:46.999Z</time></trkpt><trkpt lat="44.508331614272294" lon="10.215255071533564"><ele>554.0</ele><time>2026-03-28T08:56:47.999Z</time></trkpt><trkpt lat="44.50814877471965" lon="10.215230803165523"><ele>552.0</ele><time>2026-03-28T08:56:48.999Z</time></trkpt><trkpt lat="44.507971573490174" lon="10.215210283956184"><ele>548.6666666666666</ele><time>2026-03-28T08:56:49.999Z</time></trkpt><trkpt lat="44.50779601473931" lon="10.21513925803107"><ele>545.3333333333333</ele><time>2026-03-28T08:56:50.999Z</time></trkpt><trkpt lat="44.50761997074929" lon="10.21501650910014"><ele>542.0</ele><time>2026-03-28T08:56:51.999Z</time></trkpt><trkpt lat="44.507474057174875" lon="10.214823047505165"><ele>542.6666666666666</ele><time>2026-03-28T08:56:53Z</time></trkpt><trkpt lat="44.507351954943466" lon="10.214579561793993"><ele>543.3333333333334</ele><time>2026-03-28T08:56:54Z</time></trkpt><trkpt lat="44.507220981427984" lon="10.2143476266308"><ele>544.0</ele><time>2026-03-28T08:56:55Z</time></trkpt><trkpt lat="44.50710914349115" lon="10.214086542750362"><ele>544.6666666666667</ele><time>2026-03-28T08:56:56Z</time></trkpt><trkpt lat="44.5069846292607" lon="10.213841408653801"><ele>545.3333333333334</ele><time>2026-03-28T08:56:57Z</time></trkpt><trkpt lat="44.50685623938038" lon="10.213599909710158"><ele>546.0</ele><time>2026-03-28T08:56:58Z</time></trkpt><trkpt lat="44.50672886119003" lon="10.2133543242703"><ele>546.0</ele><time>2026-03-28T08:56:59Z</time></trkpt><trkpt lat="44.50660166879358" lon="10.213108954017521"><ele>546.0</ele><time>2026-03-28T08:57:00Z</time></trkpt><trkpt lat="44.50648308647965" lon="10.212858903458745"><ele>546.0</ele><time>2026-03-28T08:57:01Z</time></trkpt><trkpt lat="44.50636123864303" lon="10.212618102558269"><ele>548.3333333333334</ele><time>2026-03-28T08:57:02Z</time></trkpt><trkpt lat="44.50624138628557" lon="10.212379461455203"><ele>550.6666666666667</ele><time>2026-03-28T08:57:03Z</time></trkpt><trkpt lat="44.50612254116588" lon="10.21215103595675"><ele>553.0</ele><time>2026-03-28T08:57:04Z</time></trkpt><trkpt lat="44.50600983310639" lon="10.21193867424872"><ele>553.0</ele><time>2026-03-28T08:57:05Z</time></trkpt><trkpt lat="44.50588498560597" lon="10.211730105695503"><ele>553.0</ele><time>2026-03-28T08:57:06Z</time></trkpt><trkpt lat="44.5057676792894" lon="10.211536477149641"><ele>553.0</ele><time>2026-03-28T08:57:07Z</time></trkpt><trkpt lat="44.50566977161532" lon="10.21137421562575"><ele>552.25</ele><time>2026-03-28T08:57:08Z</time></trkpt><trkpt lat="44.505581574250506" lon="10.211266859198732"><ele>551.5</ele><time>2026-03-28T08:57:09Z</time></trkpt><trkpt lat="44.50547809075197" lon="10.211217385246627"><ele>550.75</ele><time>2026-03-28T08:57:10Z</time></trkpt><trkpt lat="44.50536926318285" lon="10.211234789471186"><ele>550.0</ele><time>2026-03-28T08:57:11Z</time></trkpt><trkpt lat="44.50526336278075" lon="10.211320628197814"><ele>555.6666666666667</ele><time>2026-03-28T08:57:12Z</time></trkpt><trkpt lat="44.50518186066858" lon="10.211492946647393"><ele>561.3333333333334</ele><time>2026-03-28T08:57:13Z</time></trkpt><trkpt lat="44.505133500498815" lon="10.211724725064405"><ele>567.0</ele><time>2026-03-28T08:57:14Z</time></trkpt><trkpt lat="44.505091964380384" lon="10.211974645739835"><ele>567.0</ele><time>2026-03-28T08:57:15Z</time></trkpt><trkpt lat="44.50505165927516" lon="10.21225922169806"><ele>567.0</ele><time>2026-03-28T08:57:16Z</time></trkpt><trkpt lat="44.50502642743229" lon="10.212528871078586"><ele>567.0</ele><time>2026-03-28T08:57:17Z</time></trkpt><trkpt lat="44.50501142391111" lon="10.212818233849475"><ele>568.3333333333334</ele><time>2026-03-28T08:57:18Z</time></trkpt><trkpt lat="44.50500746311111" lon="10.21311599536227"><ele>569.6666666666667</ele><time>2026-03-28T08:57:19Z</time></trkpt><trkpt lat="44.50501079393083" lon="10.213366809592767"><ele>571.0</ele><time>2026-03-28T08:57:20Z</time></trkpt><trkpt lat="44.50502966184524" lon="10.213604469237076"><ele>572.0</ele><time>2026-03-28T08:57:21Z</time></trkpt><trkpt lat="44.5050699492806" lon="10.213826933765898"><ele>573.0</ele><time>2026-03-28T08:57:22Z</time></trkpt><trkpt lat="44.50507533665008" lon="10.214017836959588"><ele>574.0</ele><time>2026-03-28T08:57:23Z</time></trkpt><trkpt lat="44.505056109230146" lon="10.214145650422848"><ele>575.0</ele><time>2026-03-28T08:57:24Z</time></trkpt><trkpt lat="44.50498942355526" lon="10.214254929749922"><ele>575.6666666666666</ele><time>2026-03-28T08:57:25Z</time></trkpt><trkpt lat="44.50485648597867" lon="10.214374414270031"><ele>576.3333333333334</ele><time>2026-03-28T08:57:26Z</time></trkpt><trkpt lat="44.504696872915126" lon="10.21454400751604"><ele>577.0</ele><time>2026-03-28T08:57:27Z</time></trkpt><trkpt lat="44.50453338645766" lon="10.214691521764891"><ele>580.0</ele><time>2026-03-28T08:57:28Z</time></trkpt><trkpt lat="44.50431640507515" lon="10.214812182985662"><ele>583.0</ele><time>2026-03-28T08:57:29Z</time></trkpt><trkpt lat="44.504131908429414" lon="10.214928347920075"><ele>586.0</ele><time>2026-03-28T08:57:30Z</time></trkpt><trkpt lat="44.5039961814631" lon="10.215054819378762"><ele>586.0</ele><time>2026-03-28T08:57:31Z</time></trkpt><trkpt lat="44.5038950700476" lon="10.215211118560216"><ele>586.0</ele><time>2026-03-28T08:57:32Z</time></trkpt><trkpt lat="44.503819435019984" lon="10.215452003567497"><ele>586.0</ele><time>2026-03-28T08:57:33Z</time></trkpt><trkpt lat="44.503736105067865" lon="10.215717417412101"><ele>590.0</ele><time>2026-03-28T08:57:34Z</time></trkpt><trkpt lat="44.50358326508855" lon="10.215923957051498"><ele>594.0</ele><time>2026-03-28T08:57:35Z</time></trkpt><trkpt lat="44.50341677801608" lon="10.216132332329904"><ele>598.0</ele><time>2026-03-28T08:57:36Z</time></trkpt><trkpt lat="44.503251360446534" lon="10.216328092191967"><ele>598.5</ele><time>2026-03-28T08:57:37Z</time></trkpt><trkpt lat="44.50313776046563" lon="10.216500394779995"><ele>599.0</ele><time>2026-03-28T08:57:38Z</time></trkpt><trkpt lat="44.503047523279434" lon="10.21664165717703"><ele>599.5</ele><time>2026-03-28T08:57:39Z</time></trkpt><trkpt lat="44.502998848957546" lon="10.216818281047699"><ele>600.0</ele><time>2026-03-28T08:57:40Z</time></trkpt><trkpt lat="44.50298539478949" lon="10.217033375315731"><ele>600.0</ele><time>2026-03-28T08:57:41Z</time></trkpt><trkpt lat="44.503009922197684" lon="10.217305077709405"><ele>600.0</ele><time>2026-03-28T08:57:42Z</time></trkpt><trkpt lat="44.503021427031484" lon="10.217602925031406"><ele>600.0</ele><time>2026-03-28T08:57:43Z</time></trkpt><trkpt lat="44.50304017900833" lon="10.217915978723912"><ele>601.3333333333334</ele><time>2026-03-28T08:57:44Z</time></trkpt><trkpt lat="44.50305993400133" lon="10.218200285977323"><ele>602.6666666666667</ele><time>2026-03-28T08:57:45Z</time></trkpt><trkpt lat="44.50307793955708" lon="10.21847907899628"><ele>604.0</ele><time>2026-03-28T08:57:46Z</time></trkpt><trkpt lat="44.503084636040754" lon="10.21872942986418"><ele>604.0</ele><time>2026-03-28T08:57:47Z</time></trkpt><trkpt lat="44.5030504341036" lon="10.218948433226556"><ele>604.0</ele><time>2026-03-28T08:57:48Z</time></trkpt><trkpt lat="44.50297772622115" lon="10.219186160699335"><ele>604.0</ele><time>2026-03-28T08:57:49Z</time></trkpt><trkpt lat="44.50286679054782" lon="10.21941485443475"><ele>610.6666666666667</ele><time>2026-03-28T08:57:50Z</time></trkpt><trkpt lat="44.50278855301616" lon="10.219638463565891"><ele>617.3333333333334</ele><time>2026-03-28T08:57:51Z</time></trkpt><trkpt lat="44.50272062564589" lon="10.219847443913093"><ele>624.0</ele><time>2026-03-28T08:57:52Z</time></trkpt><trkpt lat="44.50270089376046" lon="10.220118194927194"><ele>624.0</ele><time>2026-03-28T08:57:53Z</time></trkpt><trkpt lat="44.50269689649252" lon="10.220408348028416"><ele>624.0</ele><time>2026-03-28T08:57:54Z</time></trkpt><trkpt lat="44.502695955426034" lon="10.220659757578499"><ele>624.0</ele><time>2026-03-28T08:57:55Z</time></trkpt><trkpt lat="44.50274267619593" lon="10.220866399669877"><ele>625.6666666666666</ele><time>2026-03-28T08:57:56Z</time></trkpt><trkpt lat="44.50284798046267" lon="10.221035720330573"><ele>627.3333333333333</ele><time>2026-03-28T08:57:57Z</time></trkpt><trkpt lat="44.50297612873345" lon="10.221214640591278"><ele>629.0</ele><time>2026-03-28T08:57:58Z</time></trkpt><trkpt lat="44.50308191314955" lon="10.221382098088501"><ele>629.0</ele><time>2026-03-28T08:57:59Z</time></trkpt><trkpt lat="44.50314936303668" lon="10.221601626182808"><ele>629.0</ele><time>2026-03-28T08:58:00Z</time></trkpt><trkpt lat="44.503207610314355" lon="10.22183960278262"><ele>629.0</ele><time>2026-03-28T08:58:01Z</time></trkpt><trkpt lat="44.50325192128369" lon="10.22204177607633"><ele>629.0</ele><time>2026-03-28T08:58:02Z</time></trkpt><trkpt lat="44.503242050777146" lon="10.222183072867777"><ele>629.0</ele><time>2026-03-28T08:58:03Z</time></trkpt><trkpt lat="44.50318869558749" lon="10.222288454276885"><ele>629.0</ele><time>2026-03-28T08:58:04Z</time></trkpt><trkpt lat="44.50308104648469" lon="10.222360484817905"><ele>629.0</ele><time>2026-03-28T08:58:05Z</time></trkpt><trkpt lat="44.502929795773504" lon="10.222353767492752"><ele>632.3333333333333</ele><time>2026-03-28T08:58:06Z</time></trkpt><trkpt lat="44.50274102571346" lon="10.222394819157953"><ele>635.6666666666666</ele><time>2026-03-28T08:58:07Z</time></trkpt><trkpt lat="44.502540508882234" lon="10.222406835420092"><ele>639.0</ele><time>2026-03-28T08:58:08Z</time></trkpt><trkpt lat="44.502345949564685" lon="10.222365110453394"><ele>639.0</ele><time>2026-03-28T08:58:09Z</time></trkpt><trkpt lat="44.502135171858406" lon="10.222353206079653"><ele>639.0</ele><time>2026-03-28T08:58:10Z</time></trkpt><trkpt lat="44.50193320831569" lon="10.22232800681291"><ele>639.0</ele><time>2026-03-28T08:58:11Z</time></trkpt><trkpt lat="44.50173961126032" lon="10.222382330741741"><ele>641.6666666666666</ele><time>2026-03-28T08:58:12Z</time></trkpt><trkpt lat="44.501558817505455" lon="10.22249090803908"><ele>644.3333333333333</ele><time>2026-03-28T08:58:13Z</time></trkpt><trkpt lat="44.5014007163362" lon="10.222493519871998"><ele>647.0</ele><time>2026-03-28T08:58:14Z</time></trkpt><trkpt lat="44.5012588297012" lon="10.222414862518969"><ele>651.3333333333333</ele><time>2026-03-28T08:58:15Z</time></trkpt><trkpt lat="44.50111711083803" lon="10.222260749585482"><ele>655.6666666666666</ele><time>2026-03-28T08:58:16Z</time></trkpt><trkpt lat="44.500942740978154" lon="10.222107477465862"><ele>660.0</ele><time>2026-03-28T08:58:17Z</time></trkpt><trkpt lat="44.50078282485899" lon="10.221944208700394"><ele>660.0</ele><time>2026-03-28T08:58:18Z</time></trkpt><trkpt lat="44.500607058620744" lon="10.221850071410369"><ele>660.0</ele><time>2026-03-28T08:58:19Z</time></trkpt><trkpt lat="44.50040668686627" lon="10.22180062491166"><ele>660.0</ele><time>2026-03-28T08:58:20Z</time></trkpt><trkpt lat="44.50019260728494" lon="10.221782481332669"><ele>660.3333333333334</ele><time>2026-03-28T08:58:20.999Z</time></trkpt><trkpt lat="44.499992287320474" lon="10.221728352163796"><ele>660.6666666666667</ele><time>2026-03-28T08:58:21.999Z</time></trkpt><trkpt lat="44.499806457877135" lon="10.22171425341793"><ele>661.0</ele><time>2026-03-28T08:58:22.999Z</time></trkpt><trkpt lat="44.49963217103417" lon="10.221657279541452"><ele>662.25</ele><time>2026-03-28T08:58:23.999Z</time></trkpt><trkpt lat="44.49947078610885" lon="10.221647311646084"><ele>663.5</ele><time>2026-03-28T08:58:24.999Z</time></trkpt><trkpt lat="44.499332832373696" lon="10.221612647648856"><ele>664.75</ele><time>2026-03-28T08:58:25.999Z</time></trkpt><trkpt lat="44.499198233840666" lon="10.221581203437388"><ele>666.0</ele><time>2026-03-28T08:58:26.999Z</time></trkpt><trkpt lat="44.49908301923878" lon="10.221575866222066"><ele>666.0</ele><time>2026-03-28T08:58:27.999Z</time></trkpt><trkpt lat="44.498995113730764" lon="10.221619851865198"><ele>666.0</ele><time>2026-03-28T08:58:28.999Z</time></trkpt><trkpt lat="44.49893110866387" lon="10.221733422924265"><ele>666.0</ele><time>2026-03-28T08:58:29.999Z</time></trkpt><trkpt lat="44.49888805707397" lon="10.221915323877537"><ele>666.0</ele><time>2026-03-28T08:58:30.999Z</time></trkpt><trkpt lat="44.49881191897976" lon="10.222108088857828"><ele>668.0</ele><time>2026-03-28T08:58:31.999Z</time></trkpt><trkpt lat="44.49873030696293" lon="10.222304247449449"><ele>670.0</ele><time>2026-03-28T08:58:32.999Z</time></trkpt><trkpt lat="44.498617588485644" lon="10.22247256569256"><ele>672.0</ele><time>2026-03-28T08:58:33.999Z</time></trkpt><trkpt lat="44.49846919411142" lon="10.222623674999365"><ele>672.0</ele><time>2026-03-28T08:58:34.999Z</time></trkpt><trkpt lat="44.49834275069714" lon="10.222784012764613"><ele>672.0</ele><time>2026-03-28T08:58:35.999Z</time></trkpt><trkpt lat="44.498237852690146" lon="10.222959160735765"><ele>672.0</ele><time>2026-03-28T08:58:36.999Z</time></trkpt><trkpt lat="44.49818149870506" lon="10.223184052999267"><ele>671.3333333333334</ele><time>2026-03-28T08:58:37.999Z</time></trkpt><trkpt lat="44.49816185844261" lon="10.223439544517415"><ele>670.6666666666667</ele><time>2026-03-28T08:58:38.999Z</time></trkpt><trkpt lat="44.49814421770779" lon="10.223683097412014"><ele>670.0</ele><time>2026-03-28T08:58:39.999Z</time></trkpt><trkpt lat="44.498099651063995" lon="10.22389554350572"><ele>669.6666666666667</ele><time>2026-03-28T08:58:40.999Z</time></trkpt><trkpt lat="44.49802421212616" lon="10.224083683637751"><ele>669.3333333333334</ele><time>2026-03-28T08:58:41.999Z</time></trkpt><trkpt lat="44.49791567532787" lon="10.224258899341235"><ele>669.0</ele><time>2026-03-28T08:58:42.999Z</time></trkpt><trkpt lat="44.497776609001185" lon="10.224408279510257"><ele>673.6666666666666</ele><time>2026-03-28T08:58:43.999Z</time></trkpt><trkpt lat="44.497609096866064" lon="10.224508877438677"><ele>678.3333333333333</ele><time>2026-03-28T08:58:44.999Z</time></trkpt><trkpt lat="44.49742367087864" lon="10.224564922494906"><ele>683.0</ele><time>2026-03-28T08:58:45.999Z</time></trkpt><trkpt lat="44.49722433176042" lon="10.224621817643932"><ele>687.0</ele><time>2026-03-28T08:58:46.999Z</time></trkpt><trkpt lat="44.49702344832972" lon="10.224637594450302"><ele>691.0</ele><time>2026-03-28T08:58:47.999Z</time></trkpt><trkpt lat="44.49684016470511" lon="10.224598483669055"><ele>695.0</ele><time>2026-03-28T08:58:48.999Z</time></trkpt><trkpt lat="44.49667325482473" lon="10.22458156305221"><ele>695.0</ele><time>2026-03-28T08:58:49.999Z</time></trkpt><trkpt lat="44.49653538145594" lon="10.224544683329869"><ele>695.0</ele><time>2026-03-28T08:58:50.999Z</time></trkpt><trkpt lat="44.49639723473965" lon="10.224564202848857"><ele>695.0</ele><time>2026-03-28T08:58:51.999Z</time></trkpt><trkpt lat="44.49625394958806" lon="10.224663729782543"><ele>695.0</ele><time>2026-03-28T08:58:52.999Z</time></trkpt><trkpt lat="44.496129757692664" lon="10.224837901559372"><ele>695.0</ele><time>2026-03-28T08:58:53.999Z</time></trkpt><trkpt lat="44.49604849588662" lon="10.225053486997686"><ele>695.0</ele><time>2026-03-28T08:58:54.999Z</time></trkpt><trkpt lat="44.49597705377321" lon="10.225286817087703"><ele>695.0</ele><time>2026-03-28T08:58:55.999Z</time></trkpt><trkpt lat="44.49590991497466" lon="10.225529387898417"><ele>692.6666666666666</ele><time>2026-03-28T08:58:56.999Z</time></trkpt><trkpt lat="44.495867364835995" lon="10.225773521748263"><ele>690.3333333333334</ele><time>2026-03-28T08:58:57.999Z</time></trkpt><trkpt lat="44.495852503866494" lon="10.226020396698544"><ele>688.0</ele><time>2026-03-28T08:58:59Z</time></trkpt><trkpt lat="44.49584386257751" lon="10.226268666420557"><ele>688.3333333333334</ele><time>2026-03-28T08:59:00Z</time></trkpt><trkpt lat="44.495826412499895" lon="10.226510531898342"><ele>688.6666666666666</ele><time>2026-03-28T08:59:01Z</time></trkpt><trkpt lat="44.495816816829574" lon="10.226765208639799"><ele>689.0</ele><time>2026-03-28T08:59:02Z</time></trkpt><trkpt lat="44.49584970257015" lon="10.226999869014183"><ele>689.0</ele><time>2026-03-28T08:59:03Z</time></trkpt><trkpt lat="44.495924237935554" lon="10.227223586011108"><ele>689.0</ele><time>2026-03-28T08:59:04Z</time></trkpt><trkpt lat="44.49598918469771" lon="10.227438945005746"><ele>689.0</ele><time>2026-03-28T08:59:05Z</time></trkpt><trkpt lat="44.49604741250601" lon="10.227631796896379"><ele>690.3333333333333</ele><time>2026-03-28T08:59:06Z</time></trkpt><trkpt lat="44.496133509750216" lon="10.227798360859229"><ele>691.6666666666666</ele><time>2026-03-28T08:59:07Z</time></trkpt><trkpt lat="44.49626686948943" lon="10.227940426378694"><ele>693.0</ele><time>2026-03-28T08:59:08Z</time></trkpt><trkpt lat="44.496418439022165" lon="10.22806702145081"><ele>691.3333333333334</ele><time>2026-03-28T08:59:09Z</time></trkpt><trkpt lat="44.4965400005387" lon="10.228220222484095"><ele>689.6666666666667</ele><time>2026-03-28T08:59:10Z</time></trkpt><trkpt lat="44.49657637269637" lon="10.2284182673815"><ele>688.0</ele><time>2026-03-28T08:59:11Z</time></trkpt><trkpt lat="44.4965790895608" lon="10.228635146277483"><ele>688.0</ele><time>2026-03-28T08:59:12Z</time></trkpt><trkpt lat="44.49653976668457" lon="10.228875127352739"><ele>688.0</ele><time>2026-03-28T08:59:13Z</time></trkpt><trkpt lat="44.49649753865546" lon="10.22916358927991"><ele>688.0</ele><time>2026-03-28T08:59:14Z</time></trkpt><trkpt lat="44.49643542707008" lon="10.22943696470785"><ele>687.6666666666667</ele><time>2026-03-28T08:59:15Z</time></trkpt><trkpt lat="44.49638221928585" lon="10.229707217868429"><ele>687.3333333333334</ele><time>2026-03-28T08:59:16Z</time></trkpt><trkpt lat="44.49633984513451" lon="10.229970031070502"><ele>687.0</ele><time>2026-03-28T08:59:17Z</time></trkpt><trkpt lat="44.496292886623166" lon="10.230223166959634"><ele>691.3333333333334</ele><time>2026-03-28T08:59:18Z</time></trkpt><trkpt lat="44.49625091430742" lon="10.230490114275831"><ele>695.6666666666667</ele><time>2026-03-28T08:59:19Z</time></trkpt><trkpt lat="44.49623054422448" lon="10.23075091857752"><ele>700.0</ele><time>2026-03-28T08:59:20Z</time></trkpt><trkpt lat="44.49624148356605" lon="10.231027706653423"><ele>697.6666666666667</ele><time>2026-03-28T08:59:21Z</time></trkpt><trkpt lat="44.496299654385524" lon="10.231325536952594"><ele>695.3333333333334</ele><time>2026-03-28T08:59:22Z</time></trkpt><trkpt lat="44.496365644179335" lon="10.231617503186992"><ele>693.0</ele><time>2026-03-28T08:59:23Z</time></trkpt><trkpt lat="44.49641443361474" lon="10.231884281505002"><ele>693.0</ele><time>2026-03-28T08:59:24Z</time></trkpt><trkpt lat="44.49641257605529" lon="10.232162803300668"><ele>693.0</ele><time>2026-03-28T08:59:25Z</time></trkpt><trkpt lat="44.49638390833485" lon="10.232449588420721"><ele>693.0</ele><time>2026-03-28T08:59:26Z</time></trkpt><trkpt lat="44.49635861198461" lon="10.232731354206624"><ele>693.3333333333334</ele><time>2026-03-28T08:59:27Z</time></trkpt><trkpt lat="44.496350889887566" lon="10.232974752694375"><ele>693.6666666666667</ele><time>2026-03-28T08:59:28Z</time></trkpt><trkpt lat="44.4964010408481" lon="10.23320707598039"><ele>694.0</ele><time>2026-03-28T08:59:29Z</time></trkpt><trkpt lat="44.49650043801431" lon="10.233436825990227"><ele>694.6666666666667</ele><time>2026-03-28T08:59:30Z</time></trkpt><trkpt lat="44.496612334793824" lon="10.233646702080232"><ele>695.3333333333334</ele><time>2026-03-28T08:59:31Z</time></trkpt><trkpt lat="44.49667344754369" lon="10.233886190520634"><ele>696.0</ele><time>2026-03-28T08:59:32Z</time></trkpt><trkpt lat="44.496718594703616" lon="10.234119293500092"><ele>698.3333333333334</ele><time>2026-03-28T08:59:33Z</time></trkpt><trkpt lat="44.496736658970434" lon="10.23432323748906"><ele>700.6666666666667</ele><time>2026-03-28T08:59:34Z</time></trkpt><trkpt lat="44.4967363657574" lon="10.23452025082987"><ele>703.0</ele><time>2026-03-28T08:59:35Z</time></trkpt><trkpt lat="44.49669340312383" lon="10.234740131863342"><ele>703.3333333333334</ele><time>2026-03-28T08:59:36Z</time></trkpt><trkpt lat="44.49663537055405" lon="10.235016297794566"><ele>703.6666666666666</ele><time>2026-03-28T08:59:37Z</time></trkpt><trkpt lat="44.496585112102935" lon="10.235292722915608"><ele>704.0</ele><time>2026-03-28T08:59:38Z</time></trkpt><trkpt lat="44.49652654301183" lon="10.235549412916452"><ele>705.5</ele><time>2026-03-28T08:59:39Z</time></trkpt><trkpt lat="44.49645053542015" lon="10.235739102867143"><ele>707.0</ele><time>2026-03-28T08:59:40Z</time></trkpt><trkpt lat="44.496362698310236" lon="10.235855053296483"><ele>708.5</ele><time>2026-03-28T08:59:41Z</time></trkpt><trkpt lat="44.49623045760423" lon="10.235903054822087"><ele>710.0</ele><time>2026-03-28T08:59:42Z</time></trkpt><trkpt lat="44.49607241940591" lon="10.235985012741706"><ele>710.0</ele><time>2026-03-28T08:59:43Z</time></trkpt><trkpt lat="44.49589379642981" lon="10.236054136936593"><ele>710.0</ele><time>2026-03-28T08:59:44Z</time></trkpt><trkpt lat="44.49572787346921" lon="10.236140240223085"><ele>710.0</ele><time>2026-03-28T08:59:45Z</time></trkpt><trkpt lat="44.49559203757371" lon="10.236219627412424"><ele>710.0</ele><time>2026-03-28T08:59:46Z</time></trkpt><trkpt lat="44.49548101666776" lon="10.236347657418692"><ele>710.0</ele><time>2026-03-28T08:59:47Z</time></trkpt><trkpt lat="44.495364687063734" lon="10.236544796532748"><ele>710.0</ele><time>2026-03-28T08:59:48Z</time></trkpt><trkpt lat="44.495285075959295" lon="10.23680227968262"><ele>711.3333333333333</ele><time>2026-03-28T08:59:49Z</time></trkpt><trkpt lat="44.49522536200572" lon="10.237037443062892"><ele>712.6666666666666</ele><time>2026-03-28T08:59:50Z</time></trkpt><trkpt lat="44.4951620785158" lon="10.237249784990897"><ele>714.0</ele><time>2026-03-28T08:59:51Z</time></trkpt><trkpt lat="44.495090272087204" lon="10.23744309323179"><ele>714.0</ele><time>2026-03-28T08:59:52Z</time></trkpt><trkpt lat="44.49503851155153" lon="10.237616927574555"><ele>714.0</ele><time>2026-03-28T08:59:53Z</time></trkpt><trkpt lat="44.49501344543425" lon="10.237751162657583"><ele>714.0</ele><time>2026-03-28T08:59:54Z</time></trkpt><trkpt lat="44.49497726212944" lon="10.237856921720617"><ele>714.0</ele><time>2026-03-28T08:59:55Z</time></trkpt><trkpt lat="44.49495385100228" lon="10.23794757910269"><ele>714.0</ele><time>2026-03-28T08:59:56Z</time></trkpt><trkpt lat="44.49491044497479" lon="10.238017664730116"><ele>714.0</ele><time>2026-03-28T08:59:57Z</time></trkpt><trkpt lat="44.49484275634321" lon="10.23804445260729"><ele>714.0</ele><time>2026-03-28T08:59:58Z</time></trkpt><trkpt lat="44.49472911576284" lon="10.238002880663734"><ele>714.0</ele><time>2026-03-28T09:00:00Z</time></trkpt><trkpt lat="44.49466378942007" lon="10.237960656140615"><ele>714.0</ele><time>2026-03-28T09:00:01Z</time></trkpt><trkpt lat="44.49456262244399" lon="10.237909531871509"><ele>714.0</ele><time>2026-03-28T09:00:02Z</time></trkpt><trkpt lat="44.494446961946934" lon="10.237858682632636"><ele>719.3333333333334</ele><time>2026-03-28T09:00:03Z</time></trkpt><trkpt lat="44.494306643327526" lon="10.237863806463992"><ele>724.6666666666667</ele><time>2026-03-28T09:00:04Z</time></trkpt><trkpt lat="44.49413791322639" lon="10.23790900584707"><ele>730.0</ele><time>2026-03-28T09:00:05Z</time></trkpt><trkpt lat="44.49396662094648" lon="10.237936298211894"><ele>730.0</ele><time>2026-03-28T09:00:06Z</time></trkpt><trkpt lat="44.49381591815174" lon="10.238008296675437"><ele>730.0</ele><time>2026-03-28T09:00:07Z</time></trkpt><trkpt lat="44.4936655282467" lon="10.238030175815814"><ele>730.0</ele><time>2026-03-28T09:00:08Z</time></trkpt><trkpt lat="44.49352347992376" lon="10.2380077802174"><ele>733.3333333333334</ele><time>2026-03-28T09:00:09Z</time></trkpt><trkpt lat="44.4933752551856" lon="10.237947762604126"><ele>736.6666666666666</ele><time>2026-03-28T09:00:10Z</time></trkpt><trkpt lat="44.49324669906234" lon="10.237834891632046"><ele>740.0</ele><time>2026-03-28T09:00:11Z</time></trkpt><trkpt lat="44.49312500004291" lon="10.237720147202419"><ele>740.0</ele><time>2026-03-28T09:00:12Z</time></trkpt><trkpt lat="44.49302420087033" lon="10.237560874742073"><ele>740.0</ele><time>2026-03-28T09:00:13Z</time></trkpt><trkpt lat="44.4929004663566" lon="10.237386911265572"><ele>740.0</ele><time>2026-03-28T09:00:14Z</time></trkpt><trkpt lat="44.4927856678127" lon="10.237207867168747"><ele>743.6666666666666</ele><time>2026-03-28T09:00:15Z</time></trkpt><trkpt lat="44.492651214624544" lon="10.237017470913923"><ele>747.3333333333334</ele><time>2026-03-28T09:00:16Z</time></trkpt><trkpt lat="44.492506361007" lon="10.236818614032497"><ele>751.0</ele><time>2026-03-28T09:00:17Z</time></trkpt><trkpt lat="44.49237159985534" lon="10.2365993307817"><ele>752.3333333333334</ele><time>2026-03-28T09:00:18Z</time></trkpt><trkpt lat="44.49225020460998" lon="10.236368292152408"><ele>753.6666666666666</ele><time>2026-03-28T09:00:19Z</time></trkpt><trkpt lat="44.492126811355995" lon="10.236141816165"><ele>755.0</ele><time>2026-03-28T09:00:20Z</time></trkpt><trkpt lat="44.49199759946011" lon="10.235936501660937"><ele>755.0</ele><time>2026-03-28T09:00:21Z</time></trkpt><trkpt lat="44.491860349795026" lon="10.23574986044231"><ele>755.0</ele><time>2026-03-28T09:00:21.999Z</time></trkpt><trkpt lat="44.49170063650279" lon="10.23560433690304"><ele>755.0</ele><time>2026-03-28T09:00:22.999Z</time></trkpt><trkpt lat="44.491519608542106" lon="10.235472897237697"><ele>759.0</ele><time>2026-03-28T09:00:23.999Z</time></trkpt><trkpt lat="44.4913570316621" lon="10.235318902471956"><ele>763.0</ele><time>2026-03-28T09:00:24.999Z</time></trkpt><trkpt lat="44.49121270939666" lon="10.235203697430748"><ele>767.0</ele><time>2026-03-28T09:00:25.999Z</time></trkpt><trkpt lat="44.4910939361417" lon="10.235088267273957"><ele>767.0</ele><time>2026-03-28T09:00:26.999Z</time></trkpt><trkpt lat="44.49101134774695" lon="10.23495771377942"><ele>767.0</ele><time>2026-03-28T09:00:27.999Z</time></trkpt><trkpt lat="44.49094169127195" lon="10.234809558177787"><ele>767.0</ele><time>2026-03-28T09:00:28.999Z</time></trkpt><trkpt lat="44.4908796178647" lon="10.234670864606993"><ele>767.0</ele><time>2026-03-28T09:00:29.999Z</time></trkpt><trkpt lat="44.49087086315284" lon="10.234542827729875"><ele>768.0</ele><time>2026-03-28T09:00:30.999Z</time></trkpt><trkpt lat="44.490894612191674" lon="10.234406630551142"><ele>769.0</ele><time>2026-03-28T09:00:31.999Z</time></trkpt><trkpt lat="44.490941047367656" lon="10.234259001061643"><ele>770.0</ele><time>2026-03-28T09:00:32.999Z</time></trkpt><trkpt lat="44.4909813700909" lon="10.234130681151731"><ele>771.0</ele><time>2026-03-28T09:00:33.999Z</time></trkpt><trkpt lat="44.49096346668828" lon="10.234010183767042"><ele>772.0</ele><time>2026-03-28T09:00:34.999Z</time></trkpt><trkpt lat="44.49089545603634" lon="10.233879532050809"><ele>772.75</ele><time>2026-03-28T09:00:35.999Z</time></trkpt><trkpt lat="44.490801961759374" lon="10.233749783257018"><ele>773.5</ele><time>2026-03-28T09:00:36.999Z</time></trkpt><trkpt lat="44.49077736497703" lon="10.233589232556609"><ele>774.25</ele><time>2026-03-28T09:00:37.999Z</time></trkpt><trkpt lat="44.49077991070719" lon="10.233406040226493"><ele>775.0</ele><time>2026-03-28T09:00:38.999Z</time></trkpt><trkpt lat="44.49080685995752" lon="10.233208135608061"><ele>775.0</ele><time>2026-03-28T09:00:39.999Z</time></trkpt><trkpt lat="44.4908861099069" lon="10.233036324141437"><ele>775.0</ele><time>2026-03-28T09:00:40.999Z</time></trkpt><trkpt lat="44.490978568514045" lon="10.232871935281985"><ele>775.0</ele><time>2026-03-28T09:00:41.999Z</time></trkpt><trkpt lat="44.491045459416284" lon="10.23267979792544"><ele>775.0</ele><time>2026-03-28T09:00:42.999Z</time></trkpt><trkpt lat="44.49105332382111" lon="10.232488118396292"><ele>775.5</ele><time>2026-03-28T09:00:43.999Z</time></trkpt><trkpt lat="44.49105311077051" lon="10.232278857341196"><ele>776.0</ele><time>2026-03-28T09:00:44.999Z</time></trkpt><trkpt lat="44.49109855401125" lon="10.232080716295128"><ele>776.5</ele><time>2026-03-28T09:00:45.999Z</time></trkpt><trkpt lat="44.4911442104968" lon="10.231917622941003"><ele>777.0</ele><time>2026-03-28T09:00:46.999Z</time></trkpt><trkpt lat="44.49114812599514" lon="10.231774640043154"><ele>777.0</ele><time>2026-03-28T09:00:47.999Z</time></trkpt><trkpt lat="44.49113139758178" lon="10.231632594633163"><ele>777.0</ele><time>2026-03-28T09:00:48.999Z</time></trkpt><trkpt lat="44.49111770634906" lon="10.231499611153144"><ele>777.0</ele><time>2026-03-28T09:00:49.999Z</time></trkpt><trkpt lat="44.491101179427524" lon="10.231383962618498"><ele>777.0</ele><time>2026-03-28T09:00:50.999Z</time></trkpt><trkpt lat="44.49108826708778" lon="10.23124639354068"><ele>777.0</ele><time>2026-03-28T09:00:51.999Z</time></trkpt><trkpt lat="44.49107032241526" lon="10.23109324032232"><ele>778.25</ele><time>2026-03-28T09:00:52.999Z</time></trkpt><trkpt lat="44.49106870318744" lon="10.230925945324653"><ele>779.5</ele><time>2026-03-28T09:00:53.999Z</time></trkpt><trkpt lat="44.4910822300756" lon="10.230743737120052"><ele>780.75</ele><time>2026-03-28T09:00:54.999Z</time></trkpt><trkpt lat="44.49110125195551" lon="10.230572106291973"><ele>782.0</ele><time>2026-03-28T09:00:55.999Z</time></trkpt><trkpt lat="44.49112841989319" lon="10.230408981114893"><ele>782.5</ele><time>2026-03-28T09:00:56.999Z</time></trkpt><trkpt lat="44.4911620956472" lon="10.23022988301775"><ele>783.0</ele><time>2026-03-28T09:00:57.999Z</time></trkpt><trkpt lat="44.491208597324515" lon="10.230057419575349"><ele>783.5</ele><time>2026-03-28T09:00:58.999Z</time></trkpt><trkpt lat="44.491256649382" lon="10.229898390416027"><ele>784.0</ele><time>2026-03-28T09:00:59.999Z</time></trkpt><trkpt lat="44.491290103689" lon="10.229749537728889"><ele>784.5</ele><time>2026-03-28T09:01:00.999Z</time></trkpt><trkpt lat="44.49129090314836" lon="10.229578346665614"><ele>785.0</ele><time>2026-03-28T09:01:01.999Z</time></trkpt><trkpt lat="44.491252052187164" lon="10.229418591236618"><ele>785.5</ele><time>2026-03-28T09:01:02.999Z</time></trkpt><trkpt lat="44.491175332611505" lon="10.229296544385964"><ele>786.0</ele><time>2026-03-28T09:01:03.999Z</time></trkpt><trkpt lat="44.49106074180199" lon="10.229192607711711"><ele>786.0</ele><time>2026-03-28T09:01:05Z</time></trkpt><trkpt lat="44.490936836820396" lon="10.229087690321409"><ele>786.0</ele><time>2026-03-28T09:01:06Z</time></trkpt><trkpt lat="44.49082756083756" lon="10.228929770227243"><ele>786.0</ele><time>2026-03-28T09:01:07Z</time></trkpt><trkpt lat="44.49073427850876" lon="10.228736368943554"><ele>784.6666666666667</ele><time>2026-03-28T09:01:08Z</time></trkpt><trkpt lat="44.490636717089785" lon="10.22853015281981"><ele>783.3333333333334</ele><time>2026-03-28T09:01:09Z</time></trkpt><trkpt lat="44.49056354322876" lon="10.228295271641704"><ele>782.0</ele><time>2026-03-28T09:01:10Z</time></trkpt><trkpt lat="44.490491506852536" lon="10.228059381450839"><ele>788.3333333333334</ele><time>2026-03-28T09:01:11Z</time></trkpt><trkpt lat="44.49037712363667" lon="10.22791889717435"><ele>794.6666666666667</ele><time>2026-03-28T09:01:12Z</time></trkpt><trkpt lat="44.490347078412114" lon="10.227657106450753"><ele>801.0</ele><time>2026-03-28T09:01:13Z</time></trkpt><trkpt lat="44.490290986067976" lon="10.227447898300102"><ele>803.0</ele><time>2026-03-28T09:01:14Z</time></trkpt><trkpt lat="44.490215019865744" lon="10.227265357253758"><ele>805.0</ele><time>2026-03-28T09:01:15Z</time></trkpt><trkpt lat="44.49011830999414" lon="10.227121825967432"><ele>807.0</ele><time>2026-03-28T09:01:16Z</time></trkpt><trkpt lat="44.489995733208644" lon="10.227016479161678"><ele>809.0</ele><time>2026-03-28T09:01:17Z</time></trkpt><trkpt lat="44.48989087979465" lon="10.226872882851364"><ele>809.0</ele><time>2026-03-28T09:01:18Z</time></trkpt><trkpt lat="44.48980823558148" lon="10.226676840928873"><ele>809.0</ele><time>2026-03-28T09:01:19Z</time></trkpt><trkpt lat="44.489748684095176" lon="10.226457475993497"><ele>809.0</ele><time>2026-03-28T09:01:20Z</time></trkpt><trkpt lat="44.489669195810315" lon="10.226259474812379"><ele>809.6666666666667</ele><time>2026-03-28T09:01:21Z</time></trkpt><trkpt lat="44.48961550823283" lon="10.226053809556525"><ele>810.3333333333333</ele><time>2026-03-28T09:01:22Z</time></trkpt><trkpt lat="44.489567609918495" lon="10.22585264180677"><ele>811.0</ele><time>2026-03-28T09:01:23Z</time></trkpt><trkpt lat="44.489536328388745" lon="10.225626073635585"><ele>813.0</ele><time>2026-03-28T09:01:24Z</time></trkpt><trkpt lat="44.48950610309064" lon="10.22538068423272"><ele>815.0</ele><time>2026-03-28T09:01:25Z</time></trkpt><trkpt lat="44.48938217683765" lon="10.225156179516722"><ele>817.0</ele><time>2026-03-28T09:01:26Z</time></trkpt><trkpt lat="44.489319916871615" lon="10.2248563966176"><ele>817.3333333333333</ele><time>2026-03-28T09:01:27Z</time></trkpt><trkpt lat="44.48924352731321" lon="10.224560037806924"><ele>817.6666666666667</ele><time>2026-03-28T09:01:28Z</time></trkpt><trkpt lat="44.489167995352155" lon="10.22427688644135"><ele>818.0</ele><time>2026-03-28T09:01:29Z</time></trkpt><trkpt lat="44.489107835709305" lon="10.224009043638763"><ele>817.3333333333334</ele><time>2026-03-28T09:01:30Z</time></trkpt><trkpt lat="44.489068850844156" lon="10.223732190402743"><ele>816.6666666666667</ele><time>2026-03-28T09:01:31Z</time></trkpt><trkpt lat="44.488991546331846" lon="10.223474463359313"><ele>816.0</ele><time>2026-03-28T09:01:32Z</time></trkpt><trkpt lat="44.48892837956205" lon="10.22323080257254"><ele>816.3333333333333</ele><time>2026-03-28T09:01:33Z</time></trkpt><trkpt lat="44.48886299482927" lon="10.22299128896837"><ele>816.6666666666666</ele><time>2026-03-28T09:01:34Z</time></trkpt><trkpt lat="44.488801007488725" lon="10.222756849307922"><ele>817.0</ele><time>2026-03-28T09:01:35Z</time></trkpt><trkpt lat="44.4887199003592" lon="10.222496667763155"><ele>822.3333333333333</ele><time>2026-03-28T09:01:36Z</time></trkpt><trkpt lat="44.48863219177084" lon="10.222236348150297"><ele>827.6666666666667</ele><time>2026-03-28T09:01:37Z</time></trkpt><trkpt lat="44.488542307829874" lon="10.22199344782653"><ele>833.0</ele><time>2026-03-28T09:01:38Z</time></trkpt><trkpt lat="44.48844973717909" lon="10.221757027789888"><ele>833.0</ele><time>2026-03-28T09:01:39Z</time></trkpt><trkpt lat="44.488345147708024" lon="10.221533352050058"><ele>833.0</ele><time>2026-03-28T09:01:40Z</time></trkpt><trkpt lat="44.48822512734848" lon="10.221312551169353"><ele>833.0</ele><time>2026-03-28T09:01:41Z</time></trkpt><trkpt lat="44.488121452019186" lon="10.221105952848276"><ele>833.6666666666667</ele><time>2026-03-28T09:01:42Z</time></trkpt><trkpt lat="44.48801258277627" lon="10.220918656624336"><ele>834.3333333333333</ele><time>2026-03-28T09:01:43Z</time></trkpt><trkpt lat="44.4879106778851" lon="10.220717623840024"><ele>835.0</ele><time>2026-03-28T09:01:44Z</time></trkpt><trkpt lat="44.48784029414363" lon="10.22048495819219"><ele>839.0</ele><time>2026-03-28T09:01:45Z</time></trkpt><trkpt lat="44.48776958476529" lon="10.220216681348948"><ele>843.0</ele><time>2026-03-28T09:01:46Z</time></trkpt><trkpt lat="44.48772303443762" lon="10.219944810590238"><ele>847.0</ele><time>2026-03-28T09:01:47Z</time></trkpt><trkpt lat="44.48766251132998" lon="10.219677194218217"><ele>850.0</ele><time>2026-03-28T09:01:48Z</time></trkpt><trkpt lat="44.487630006086334" lon="10.219427115857217"><ele>853.0</ele><time>2026-03-28T09:01:49Z</time></trkpt><trkpt lat="44.48759188470915" lon="10.219179232363338"><ele>856.0</ele><time>2026-03-28T09:01:50Z</time></trkpt><trkpt lat="44.48759641678738" lon="10.218910778635301"><ele>856.6666666666666</ele><time>2026-03-28T09:01:51Z</time></trkpt><trkpt lat="44.487587679073215" lon="10.21865125368024"><ele>857.3333333333333</ele><time>2026-03-28T09:01:52Z</time></trkpt><trkpt lat="44.48756523874746" lon="10.21841009401248"><ele>858.0</ele><time>2026-03-28T09:01:53Z</time></trkpt><trkpt lat="44.487546077935015" lon="10.218194147098753"><ele>859.0</ele><time>2026-03-28T09:01:54Z</time></trkpt><trkpt lat="44.487529253687285" lon="10.21800033255955"><ele>860.0</ele><time>2026-03-28T09:01:55Z</time></trkpt><trkpt lat="44.487526775227586" lon="10.217796755022084"><ele>861.0</ele><time>2026-03-28T09:01:56Z</time></trkpt><trkpt lat="44.48758033823556" lon="10.217586639241373"><ele>862.0</ele><time>2026-03-28T09:01:57Z</time></trkpt><trkpt lat="44.487692074878765" lon="10.217395804440708"><ele>863.6666666666666</ele><time>2026-03-28T09:01:58Z</time></trkpt><trkpt lat="44.48781516239424" lon="10.217210263831877"><ele>865.3333333333333</ele><time>2026-03-28T09:01:59Z</time></trkpt><trkpt lat="44.487909886639244" lon="10.217032583621068"><ele>867.0</ele><time>2026-03-28T09:02:00Z</time></trkpt><trkpt lat="44.487978361190216" lon="10.216816695019645"><ele>868.0</ele><time>2026-03-28T09:02:01Z</time></trkpt><trkpt lat="44.48803289444721" lon="10.216577675493166"><ele>869.0</ele><time>2026-03-28T09:02:02Z</time></trkpt><trkpt lat="44.48806310884657" lon="10.216326659205318"><ele>870.0</ele><time>2026-03-28T09:02:03Z</time></trkpt><trkpt lat="44.48807165570572" lon="10.216065002788932"><ele>872.3333333333333</ele><time>2026-03-28T09:02:04Z</time></trkpt><trkpt lat="44.48808011908879" lon="10.215813832598903"><ele>874.6666666666666</ele><time>2026-03-28T09:02:05Z</time></trkpt><trkpt lat="44.488123193159915" lon="10.215590354979085"><ele>877.0</ele><time>2026-03-28T09:02:06Z</time></trkpt><trkpt lat="44.48818339211631" lon="10.21540827858745"><ele>878.4000000000001</ele><time>2026-03-28T09:02:07Z</time></trkpt><trkpt lat="44.4882286167022" lon="10.215263209443618"><ele>879.8000000000001</ele><time>2026-03-28T09:02:08Z</time></trkpt><trkpt lat="44.488238600852874" lon="10.215130987327944"><ele>881.2</ele><time>2026-03-28T09:02:09Z</time></trkpt><trkpt lat="44.48820536058228" lon="10.214995459241148"><ele>882.6</ele><time>2026-03-28T09:02:10Z</time></trkpt><trkpt lat="44.48812958618036" lon="10.21487873718081"><ele>884.0</ele><time>2026-03-28T09:02:11Z</time></trkpt><trkpt lat="44.48804206413549" lon="10.214799664301701"><ele>884.6666666666667</ele><time>2026-03-28T09:02:12Z</time></trkpt><trkpt lat="44.488001368256946" lon="10.214725210736788"><ele>885.3333333333334</ele><time>2026-03-28T09:02:13Z</time></trkpt><trkpt lat="44.4879494484697" lon="10.214653821979846"><ele>886.0</ele><time>2026-03-28T09:02:15Z</time></trkpt><trkpt lat="44.48791956554211" lon="10.214552979140517"><ele>886.6666666666667</ele><time>2026-03-28T09:02:17Z</time></trkpt><trkpt lat="44.48788749637367" lon="10.214432401648072"><ele>887.3333333333334</ele><time>2026-03-28T09:02:19Z</time></trkpt><trkpt lat="44.48790642046134" lon="10.214326344702892"><ele>888.0</ele><time>2026-03-28T09:02:22Z</time></trkpt><trkpt lat="44.48787300841439" lon="10.214247719340655"><ele>889.75</ele><time>2026-03-28T09:02:47.999Z</time></trkpt><trkpt lat="44.487866297893525" lon="10.21404137790489"><ele>891.5</ele><time>2026-03-28T09:02:49.999Z</time></trkpt><trkpt lat="44.4878416830354" lon="10.21388717972581"><ele>893.25</ele><time>2026-03-28T09:02:50.999Z</time></trkpt><trkpt lat="44.487796199210884" lon="10.213737909405305"><ele>895.0</ele><time>2026-03-28T09:02:51.999Z</time></trkpt><trkpt lat="44.487730601705735" lon="10.213594202196177"><ele>896.75</ele><time>2026-03-28T09:02:52.999Z</time></trkpt><trkpt lat="44.4876478944987" lon="10.213466528195905"><ele>898.5</ele><time>2026-03-28T09:02:53.999Z</time></trkpt><trkpt lat="44.48754644975887" lon="10.213341945185089"><ele>900.25</ele><time>2026-03-28T09:02:54.999Z</time></trkpt><trkpt lat="44.487470052230236" lon="10.21320253655035"><ele>902.0</ele><time>2026-03-28T09:02:55.999Z</time></trkpt><trkpt lat="44.487404791747196" lon="10.213063355648432"><ele>903.0</ele><time>2026-03-28T09:02:56.999Z</time></trkpt><trkpt lat="44.48735057796731" lon="10.212941211523514"><ele>904.0</ele><time>2026-03-28T09:02:57.999Z</time></trkpt><trkpt lat="44.48728057840795" lon="10.212817457347873"><ele>905.0</ele><time>2026-03-28T09:02:58.999Z</time></trkpt><trkpt lat="44.487232403635545" lon="10.212689786086816"><ele>906.0</ele><time>2026-03-28T09:02:59.999Z</time></trkpt><trkpt lat="44.48716553845224" lon="10.21257843321032"><ele>907.0</ele><time>2026-03-28T09:03:00.999Z</time></trkpt><trkpt lat="44.487080154170386" lon="10.212468251290817"><ele>908.75</ele><time>2026-03-28T09:03:01.999Z</time></trkpt><trkpt lat="44.4869796712535" lon="10.212383322718711"><ele>910.5</ele><time>2026-03-28T09:03:02.999Z</time></trkpt><trkpt lat="44.486870996612005" lon="10.212306667383997"><ele>912.25</ele><time>2026-03-28T09:03:03.999Z</time></trkpt><trkpt lat="44.48674312100075" lon="10.21227639423944"><ele>914.0</ele><time>2026-03-28T09:03:04.999Z</time></trkpt><trkpt lat="44.4866191181441" lon="10.212271264389887"><ele>914.0</ele><time>2026-03-28T09:03:05.999Z</time></trkpt><trkpt lat="44.48649674486863" lon="10.212271046049445"><ele>914.0000000000001</ele><time>2026-03-28T09:03:06.999Z</time></trkpt><trkpt lat="44.48638546981975" lon="10.212278410596827"><ele>914.0000000000001</ele><time>2026-03-28T09:03:07.999Z</time></trkpt><trkpt lat="44.4862798185001" lon="10.212293815313373"><ele>914.0</ele><time>2026-03-28T09:03:08.999Z</time></trkpt><trkpt lat="44.48617323935704" lon="10.212323774799287"><ele>914.0</ele><time>2026-03-28T09:03:09.999Z</time></trkpt><trkpt lat="44.48607588411182" lon="10.212360795855526"><ele>916.8000000000001</ele><time>2026-03-28T09:03:11Z</time></trkpt><trkpt lat="44.48597710083148" lon="10.212394187380793"><ele>919.6000000000001</ele><time>2026-03-28T09:03:12Z</time></trkpt><trkpt lat="44.48587780275082" lon="10.212422457908042"><ele>922.4</ele><time>2026-03-28T09:03:13Z</time></trkpt><trkpt lat="44.48578950770367" lon="10.212415766241387"><ele>925.2</ele><time>2026-03-28T09:03:14Z</time></trkpt><trkpt lat="44.48571863055823" lon="10.21235028967436"><ele>928.0</ele><time>2026-03-28T09:03:15Z</time></trkpt><trkpt lat="44.485655095797966" lon="10.212240461840809"><ele>929.25</ele><time>2026-03-28T09:03:16Z</time></trkpt><trkpt lat="44.485630902310305" lon="10.212061092805545"><ele>930.5</ele><time>2026-03-28T09:03:17Z</time></trkpt><trkpt lat="44.48559708575195" lon="10.211885496411625"><ele>931.75</ele><time>2026-03-28T09:03:18Z</time></trkpt><trkpt lat="44.48553791805978" lon="10.211738350569837"><ele>933.0</ele><time>2026-03-28T09:03:19Z</time></trkpt><trkpt lat="44.485434539431715" lon="10.211644658675397"><ele>936.0</ele><time>2026-03-28T09:03:20Z</time></trkpt><trkpt lat="44.48530391836415" lon="10.211575413701656"><ele>939.0</ele><time>2026-03-28T09:03:21Z</time></trkpt><trkpt lat="44.48518409438473" lon="10.211493152550128"><ele>942.0</ele><time>2026-03-28T09:03:22Z</time></trkpt><trkpt lat="44.48505797999365" lon="10.21144177037825"><ele>945.0</ele><time>2026-03-28T09:03:23Z</time></trkpt><trkpt lat="44.48493813081865" lon="10.211430292591208"><ele>946.75</ele><time>2026-03-28T09:03:24Z</time></trkpt><trkpt lat="44.48481619389608" lon="10.211423867315377"><ele>948.5</ele><time>2026-03-28T09:03:25Z</time></trkpt><trkpt lat="44.48469342382094" lon="10.211431454631535"><ele>950.25</ele><time>2026-03-28T09:03:26Z</time></trkpt><trkpt lat="44.48456491557759" lon="10.211473478046408"><ele>952.0</ele><time>2026-03-28T09:03:27Z</time></trkpt><trkpt lat="44.48443960691945" lon="10.211530450179495"><ele>952.0</ele><time>2026-03-28T09:03:28Z</time></trkpt><trkpt lat="44.4843204252003" lon="10.211608066300586"><ele>952.0</ele><time>2026-03-28T09:03:29Z</time></trkpt><trkpt lat="44.48422386415393" lon="10.211725012456503"><ele>952.0</ele><time>2026-03-28T09:03:30Z</time></trkpt><trkpt lat="44.484130765147235" lon="10.211761915314414"><ele>952.0</ele><time>2026-03-28T09:03:31Z</time></trkpt><trkpt lat="44.48403719862405" lon="10.211804078744834"><ele>952.0</ele><time>2026-03-28T09:03:32Z</time></trkpt><trkpt lat="44.48394060026144" lon="10.21181284085078"><ele>952.0</ele><time>2026-03-28T09:03:33Z</time></trkpt><trkpt lat="44.48386364553813" lon="10.21175362960339"><ele>952.0</ele><time>2026-03-28T09:03:34Z</time></trkpt><trkpt lat="44.48379424801179" lon="10.211648847379037"><ele>952.0</ele><time>2026-03-28T09:03:35Z</time></trkpt><trkpt lat="44.48375996408024" lon="10.211484111357942"><ele>952.0</ele><time>2026-03-28T09:03:36Z</time></trkpt><trkpt lat="44.48375769141643" lon="10.211314729864936"><ele>954.4000000000001</ele><time>2026-03-28T09:03:37Z</time></trkpt><trkpt lat="44.48378387365048" lon="10.21116051009341"><ele>956.8000000000001</ele><time>2026-03-28T09:03:38Z</time></trkpt><trkpt lat="44.483853861187306" lon="10.211026974294963"><ele>959.2</ele><time>2026-03-28T09:03:39Z</time></trkpt><trkpt lat="44.48392849713712" lon="10.21092775928859"><ele>961.6</ele><time>2026-03-28T09:03:40Z</time></trkpt><trkpt lat="44.48398826443846" lon="10.210835826192172"><ele>964.0</ele><time>2026-03-28T09:03:42Z</time></trkpt><trkpt lat="44.484005652708646" lon="10.210747016368595"><ele>965.2</ele><time>2026-03-28T09:03:44Z</time></trkpt><trkpt lat="44.48404889170278" lon="10.210567662763093"><ele>966.4000000000001</ele><time>2026-03-28T09:03:46Z</time></trkpt><trkpt lat="44.484063153477415" lon="10.210476539308111"><ele>967.6</ele><time>2026-03-28T09:03:47Z</time></trkpt><trkpt lat="44.48409775808258" lon="10.21028657018498"><ele>968.8</ele><time>2026-03-28T09:03:49Z</time></trkpt><trkpt lat="44.484115524200156" lon="10.210157320284267"><ele>970.0</ele><time>2026-03-28T09:03:50Z</time></trkpt><trkpt lat="44.48413565038533" lon="10.210028957361954"><ele>970.0</ele><time>2026-03-28T09:03:51Z</time></trkpt><trkpt lat="44.4841614480884" lon="10.20988618523652"><ele>970.0</ele><time>2026-03-28T09:03:52Z</time></trkpt><trkpt lat="44.4841872065168" lon="10.209735575472502"><ele>970.0</ele><time>2026-03-28T09:03:53Z</time></trkpt><trkpt lat="44.48421517384234" lon="10.209579193838154"><ele>970.0</ele><time>2026-03-28T09:03:54Z</time></trkpt><trkpt lat="44.48423676703705" lon="10.20942784594036"><ele>970.0</ele><time>2026-03-28T09:03:55Z</time></trkpt><trkpt lat="44.484246713518544" lon="10.209279220186247"><ele>971.75</ele><time>2026-03-28T09:03:56Z</time></trkpt><trkpt lat="44.484234103681025" lon="10.209099045098458"><ele>973.5</ele><time>2026-03-28T09:03:57Z</time></trkpt><trkpt lat="44.48418970775873" lon="10.20889071563635"><ele>975.25</ele><time>2026-03-28T09:03:58Z</time></trkpt><trkpt lat="44.48413271771524" lon="10.208674464847734"><ele>977.0</ele><time>2026-03-28T09:03:59Z</time></trkpt><trkpt lat="44.4840793649198" lon="10.208466777249152"><ele>977.5</ele><time>2026-03-28T09:04:00Z</time></trkpt><trkpt lat="44.484047516237" lon="10.208268189825922"><ele>978.0</ele><time>2026-03-28T09:04:01Z</time></trkpt><trkpt lat="44.484011975461165" lon="10.208081633517804"><ele>978.5</ele><time>2026-03-28T09:04:02Z</time></trkpt><trkpt lat="44.48397306364887" lon="10.207923339907836"><ele>979.0</ele><time>2026-03-28T09:04:03Z</time></trkpt><trkpt lat="44.48393416469" lon="10.207795166870264"><ele>979.0</ele><time>2026-03-28T09:04:04Z</time></trkpt><trkpt lat="44.48388684795068" lon="10.20765835802649"><ele>979.0</ele><time>2026-03-28T09:04:05Z</time></trkpt><trkpt lat="44.48382968172378" lon="10.207526611309111"><ele>979.0</ele><time>2026-03-28T09:04:06Z</time></trkpt><trkpt lat="44.483769202832335" lon="10.20738208036986"><ele>979.0</ele><time>2026-03-28T09:04:07Z</time></trkpt><trkpt lat="44.48369901942876" lon="10.207247124308436"><ele>984.0</ele><time>2026-03-28T09:04:08Z</time></trkpt><trkpt lat="44.48363105532217" lon="10.207114819192723"><ele>989.0</ele><time>2026-03-28T09:04:09Z</time></trkpt><trkpt lat="44.48355631555021" lon="10.206988599170591"><ele>994.0</ele><time>2026-03-28T09:04:10Z</time></trkpt><trkpt lat="44.48348273872383" lon="10.20686361610178"><ele>999.0</ele><time>2026-03-28T09:04:11Z</time></trkpt><trkpt lat="44.48341034260999" lon="10.206735599230273"><ele>999.0</ele><time>2026-03-28T09:04:12Z</time></trkpt><trkpt lat="44.483330807254006" lon="10.206622019455397"><ele>999.0000000000001</ele><time>2026-03-28T09:04:13Z</time></trkpt><trkpt lat="44.48325028697271" lon="10.206520550888142"><ele>999.0000000000001</ele><time>2026-03-28T09:04:14Z</time></trkpt><trkpt lat="44.4831600567177" lon="10.20643676291382"><ele>999.0</ele><time>2026-03-28T09:04:15Z</time></trkpt><trkpt lat="44.483065815734044" lon="10.20638265094195"><ele>999.0</ele><time>2026-03-28T09:04:16Z</time></trkpt><trkpt lat="44.482993656578365" lon="10.206355192124605"><ele>1000.3333333333334</ele><time>2026-03-28T09:04:17Z</time></trkpt><trkpt lat="44.482894804926296" lon="10.206278982396176"><ele>1001.6666666666667</ele><time>2026-03-28T09:04:19Z</time></trkpt><trkpt lat="44.48280716847126" lon="10.20617459421869"><ele>1003.0</ele><time>2026-03-28T09:04:21Z</time></trkpt><trkpt lat="44.48278103658652" lon="10.206091330229512"><ele>1004.3333333333334</ele><time>2026-03-28T09:04:22Z</time></trkpt><trkpt lat="44.482754599761975" lon="10.206008425827049"><ele>1005.6666666666667</ele><time>2026-03-28T09:04:23Z</time></trkpt><trkpt lat="44.48272912811226" lon="10.205927630026435"><ele>1007.0</ele><time>2026-03-28T09:04:24Z</time></trkpt><trkpt lat="44.48270181124559" lon="10.205839913961487"><ele>1007.0000000000001</ele><time>2026-03-28T09:04:25Z</time></trkpt><trkpt lat="44.482674346027856" lon="10.20575720298393"><ele>1007.0</ele><time>2026-03-28T09:04:26Z</time></trkpt><trkpt lat="44.48264333565934" lon="10.205674570428277"><ele>1007.0</ele><time>2026-03-28T09:04:27Z</time></trkpt><trkpt lat="44.48261518589401" lon="10.205578883832711"><ele>1007.0</ele><time>2026-03-28T09:04:28Z</time></trkpt><trkpt lat="44.482566839394636" lon="10.205460056502215"><ele>1007.0000000000001</ele><time>2026-03-28T09:04:29Z</time></trkpt><trkpt lat="44.48250556561563" lon="10.205358339758414"><ele>1007.0</ele><time>2026-03-28T09:04:30Z</time></trkpt><trkpt lat="44.482436994832916" lon="10.205255517306382"><ele>1008.8</ele><time>2026-03-28T09:04:31Z</time></trkpt><trkpt lat="44.48236000804381" lon="10.205150064436516"><ele>1010.6</ele><time>2026-03-28T09:04:32Z</time></trkpt><trkpt lat="44.48228356894167" lon="10.20504368112205"><ele>1012.3999999999999</ele><time>2026-03-28T09:04:33Z</time></trkpt><trkpt lat="44.48220556179468" lon="10.204929031310014"><ele>1014.1999999999999</ele><time>2026-03-28T09:04:34Z</time></trkpt><trkpt lat="44.48213051838388" lon="10.204809164231312"><ele>1016.0</ele><time>2026-03-28T09:04:35Z</time></trkpt><trkpt lat="44.48206079371661" lon="10.204691729130111"><ele>1016.0</ele><time>2026-03-28T09:04:36Z</time></trkpt><trkpt lat="44.48199114618408" lon="10.204576268871978"><ele>1016.0</ele><time>2026-03-28T09:04:37Z</time></trkpt><trkpt lat="44.481923402717214" lon="10.204448481965438"><ele>1016.0</ele><time>2026-03-28T09:04:38Z</time></trkpt><trkpt lat="44.48185494015623" lon="10.204320540569897"><ele>1016.0</ele><time>2026-03-28T09:04:39Z</time></trkpt><trkpt lat="44.48178541912386" lon="10.204180494833572"><ele>1016.0</ele><time>2026-03-28T09:04:40Z</time></trkpt><trkpt lat="44.48171684153269" lon="10.204038557573373"><ele>1016.0</ele><time>2026-03-28T09:04:41Z</time></trkpt><trkpt lat="44.481651524432834" lon="10.203892870573927"><ele>1016.0</ele><time>2026-03-28T09:04:42Z</time></trkpt><trkpt lat="44.48159936681212" lon="10.203749597053083"><ele>1016.0</ele><time>2026-03-28T09:04:43Z</time></trkpt><trkpt lat="44.48154817910156" lon="10.203592797342926"><ele>1018.5</ele><time>2026-03-28T09:04:44Z</time></trkpt><trkpt lat="44.481475789278434" lon="10.203454529902759"><ele>1021.0</ele><time>2026-03-28T09:04:45Z</time></trkpt><trkpt lat="44.48137688171381" lon="10.203351490319374"><ele>1023.5</ele><time>2026-03-28T09:04:46Z</time></trkpt><trkpt lat="44.481281989459596" lon="10.203238313622856"><ele>1026.0</ele><time>2026-03-28T09:04:47Z</time></trkpt><trkpt lat="44.4811769888883" lon="10.203128324256355"><ele>1027.0</ele><time>2026-03-28T09:04:48Z</time></trkpt><trkpt lat="44.48106748446769" lon="10.203016670004137"><ele>1028.0</ele><time>2026-03-28T09:04:49Z</time></trkpt><trkpt lat="44.48096078228959" lon="10.202910188205548"><ele>1029.0</ele><time>2026-03-28T09:04:50Z</time></trkpt><trkpt lat="44.48085341131403" lon="10.202803260092645"><ele>1030.0</ele><time>2026-03-28T09:04:51Z</time></trkpt><trkpt lat="44.48074867277374" lon="10.202696780624748"><ele>1030.0</ele><time>2026-03-28T09:04:52Z</time></trkpt><trkpt lat="44.48064357685942" lon="10.202603075496441"><ele>1030.0</ele><time>2026-03-28T09:04:53Z</time></trkpt><trkpt lat="44.480542981121815" lon="10.202511160866301"><ele>1030.0</ele><time>2026-03-28T09:04:54Z</time></trkpt><trkpt lat="44.480432358147866" lon="10.202422649630169"><ele>1030.0</ele><time>2026-03-28T09:04:55Z</time></trkpt><trkpt lat="44.48032525317486" lon="10.20235661528816"><ele>1030.4</ele><time>2026-03-28T09:04:56Z</time></trkpt><trkpt lat="44.48023519990689" lon="10.202302916646314"><ele>1030.8</ele><time>2026-03-28T09:04:57Z</time></trkpt><trkpt lat="44.48015953452138" lon="10.202233243915531"><ele>1031.2</ele><time>2026-03-28T09:04:58Z</time></trkpt><trkpt lat="44.480084989451974" lon="10.202126848682983"><ele>1031.6</ele><time>2026-03-28T09:04:59Z</time></trkpt><trkpt lat="44.48002494798312" lon="10.201979364427004"><ele>1032.0</ele><time>2026-03-28T09:05:00Z</time></trkpt><trkpt lat="44.47998169416007" lon="10.20182707157499"><ele>1032.0</ele><time>2026-03-28T09:05:00.999Z</time></trkpt><trkpt lat="44.479948898846736" lon="10.201692670738064"><ele>1032.0</ele><time>2026-03-28T09:05:01.999Z</time></trkpt><trkpt lat="44.4799167872493" lon="10.20157206981282"><ele>1032.0</ele><time>2026-03-28T09:05:02.999Z</time></trkpt><trkpt lat="44.47988850990745" lon="10.201467574111037"><ele>1032.0</ele><time>2026-03-28T09:05:03.999Z</time></trkpt><trkpt lat="44.47984373238512" lon="10.201324793895008"><ele>1032.0</ele><time>2026-03-28T09:05:05.999Z</time></trkpt><trkpt lat="44.479801272002824" lon="10.201244379527049"><ele>1031.3333333333333</ele><time>2026-03-28T09:05:08.999Z</time></trkpt><trkpt lat="44.47976303771154" lon="10.201161760493285"><ele>1030.6666666666667</ele><time>2026-03-28T09:05:12.999Z</time></trkpt><trkpt lat="44.47973525896305" lon="10.201005398084268"><ele>1030.0</ele><time>2026-03-28T09:05:23Z</time></trkpt><trkpt lat="44.47973432594067" lon="10.200895291713973"><ele>1029.3333333333335</ele><time>2026-03-28T09:05:24Z</time></trkpt><trkpt lat="44.47974504558215" lon="10.200776279962835"><ele>1028.6666666666667</ele><time>2026-03-28T09:05:25Z</time></trkpt><trkpt lat="44.47975339944575" lon="10.200642494731483"><ele>1028.0</ele><time>2026-03-28T09:05:26Z</time></trkpt><trkpt lat="44.47975774926587" lon="10.200515283622481"><ele>1028.0</ele><time>2026-03-28T09:05:27Z</time></trkpt><trkpt lat="44.47976539119011" lon="10.200401157514676"><ele>1028.0</ele><time>2026-03-28T09:05:28Z</time></trkpt><trkpt lat="44.479772350829144" lon="10.200277378479521"><ele>1028.0</ele><time>2026-03-28T09:05:29Z</time></trkpt><trkpt lat="44.47977300438597" lon="10.200153366398732"><ele>1028.0</ele><time>2026-03-28T09:05:30Z</time></trkpt><trkpt lat="44.47975806072978" lon="10.20005039297918"><ele>1028.0</ele><time>2026-03-28T09:05:31Z</time></trkpt><trkpt lat="44.479738727789666" lon="10.199953784906006"><ele>1028.0</ele><time>2026-03-28T09:05:32Z</time></trkpt><trkpt lat="44.479735830959356" lon="10.199778783572281"><ele>1027.5</ele><time>2026-03-28T09:05:34Z</time></trkpt><trkpt lat="44.47975224486414" lon="10.199679291766074"><ele>1027.0</ele><time>2026-03-28T09:05:35Z</time></trkpt><trkpt lat="44.479775592929634" lon="10.199580201643894"><ele>1026.5</ele><time>2026-03-28T09:05:36Z</time></trkpt><trkpt lat="44.47980559822108" lon="10.1994845336346"><ele>1026.0</ele><time>2026-03-28T09:05:37Z</time></trkpt><trkpt lat="44.47984200272348" lon="10.19936829721486"><ele>1025.5</ele><time>2026-03-28T09:05:38Z</time></trkpt><trkpt lat="44.47985118429987" lon="10.199238763030241"><ele>1025.0</ele><time>2026-03-28T09:05:39Z</time></trkpt><trkpt lat="44.47984571273929" lon="10.199101924757839"><ele>1026.2</ele><time>2026-03-28T09:05:40Z</time></trkpt><trkpt lat="44.47980328946677" lon="10.198981162977182"><ele>1027.4</ele><time>2026-03-28T09:05:41Z</time></trkpt><trkpt lat="44.479738687891164" lon="10.198875781225937"><ele>1028.6</ele><time>2026-03-28T09:05:42Z</time></trkpt><trkpt lat="44.47965223159537" lon="10.198809423565738"><ele>1029.8</ele><time>2026-03-28T09:05:43Z</time></trkpt><trkpt lat="44.479549320425065" lon="10.19873062836104"><ele>1031.0</ele><time>2026-03-28T09:05:44Z</time></trkpt><trkpt lat="44.4794333003665" lon="10.198667955678703"><ele>1031.0</ele><time>2026-03-28T09:05:45Z</time></trkpt><trkpt lat="44.479321086999285" lon="10.198618291299137"><ele>1031.0</ele><time>2026-03-28T09:05:46Z</time></trkpt><trkpt lat="44.47921717214291" lon="10.198566183101295"><ele>1031.0</ele><time>2026-03-28T09:05:47Z</time></trkpt><trkpt lat="44.47912899348772" lon="10.198496463389233"><ele>1031.0</ele><time>2026-03-28T09:05:48Z</time></trkpt><trkpt lat="44.479072734645534" lon="10.198379408096386"><ele>1031.0</ele><time>2026-03-28T09:05:49Z</time></trkpt><trkpt lat="44.47898271226412" lon="10.198259742440094"><ele>1026.75</ele><time>2026-03-28T09:05:50Z</time></trkpt><trkpt lat="44.478899745298236" lon="10.19812962717832"><ele>1022.5</ele><time>2026-03-28T09:05:51Z</time></trkpt><trkpt lat="44.47881638429978" lon="10.198004389299884"><ele>1018.25</ele><time>2026-03-28T09:05:52Z</time></trkpt><trkpt lat="44.47877974654762" lon="10.197829887172052"><ele>1014.0</ele><time>2026-03-28T09:05:53Z</time></trkpt><trkpt lat="44.478754577080096" lon="10.19765730280702"><ele>1019.25</ele><time>2026-03-28T09:05:54Z</time></trkpt><trkpt lat="44.47870323776693" lon="10.197492476448831"><ele>1024.5</ele><time>2026-03-28T09:05:55Z</time></trkpt><trkpt lat="44.478649417942115" lon="10.197310576402034"><ele>1029.75</ele><time>2026-03-28T09:05:56Z</time></trkpt><trkpt lat="44.47861743098488" lon="10.197140974653877"><ele>1035.0</ele><time>2026-03-28T09:05:57Z</time></trkpt><trkpt lat="44.47861134575123" lon="10.196963515463533"><ele>1035.0</ele><time>2026-03-28T09:05:58Z</time></trkpt><trkpt lat="44.47863284099734" lon="10.196756396375521"><ele>1035.0</ele><time>2026-03-28T09:05:59Z</time></trkpt><trkpt lat="44.47865545560348" lon="10.19655817635314"><ele>1035.0</ele><time>2026-03-28T09:06:00Z</time></trkpt><trkpt lat="44.478685144781885" lon="10.196365808954793"><ele>1035.0</ele><time>2026-03-28T09:06:01Z</time></trkpt><trkpt lat="44.47872291219835" lon="10.196172943143475"><ele>1029.5</ele><time>2026-03-28T09:06:02Z</time></trkpt><trkpt lat="44.47877427290217" lon="10.196000096912247"><ele>1024.0</ele><time>2026-03-28T09:06:03Z</time></trkpt><trkpt lat="44.47882863084917" lon="10.195850180411743"><ele>1018.5</ele><time>2026-03-28T09:06:04Z</time></trkpt><trkpt lat="44.47888134799408" lon="10.19572179300905"><ele>1013.0</ele><time>2026-03-28T09:06:05Z</time></trkpt><trkpt lat="44.47892724592956" lon="10.195610926123544"><ele>1013.0</ele><time>2026-03-28T09:06:06Z</time></trkpt><trkpt lat="44.47898095414214" lon="10.195518461326717"><ele>1013.0</ele><time>2026-03-28T09:06:07Z</time></trkpt><trkpt lat="44.47903364946716" lon="10.195441086542285"><ele>1013.0</ele><time>2026-03-28T09:06:08Z</time></trkpt><trkpt lat="44.479090018659754" lon="10.195377540717914"><ele>1013.0</ele><time>2026-03-28T09:06:09Z</time></trkpt><trkpt lat="44.479166427564444" lon="10.19524178367004"><ele>1013.0</ele><time>2026-03-28T09:06:11Z</time></trkpt><trkpt lat="44.47920960717298" lon="10.195096500929647"><ele>1013.0</ele><time>2026-03-28T09:06:13Z</time></trkpt><trkpt lat="44.47923835548946" lon="10.194906509007994"><ele>1013.0</ele><time>2026-03-28T09:06:15Z</time></trkpt><trkpt lat="44.479268640053725" lon="10.194785207680026"><ele>1013.0</ele><time>2026-03-28T09:06:16Z</time></trkpt><trkpt lat="44.47928986488449" lon="10.194640782372325"><ele>1013.0</ele><time>2026-03-28T09:06:17Z</time></trkpt><trkpt lat="44.47929006736655" lon="10.194491494558443"><ele>1013.0</ele><time>2026-03-28T09:06:18Z</time></trkpt><trkpt lat="44.47928055492464" lon="10.194330881390348"><ele>1014.0</ele><time>2026-03-28T09:06:19Z</time></trkpt><trkpt lat="44.47930263124558" lon="10.194167779657192"><ele>1015.0</ele><time>2026-03-28T09:06:20Z</time></trkpt><trkpt lat="44.4793164325551" lon="10.194008383517389"><ele>1016.0</ele><time>2026-03-28T09:06:21Z</time></trkpt><trkpt lat="44.47937094408129" lon="10.193863015255351"><ele>1017.0</ele><time>2026-03-28T09:06:22Z</time></trkpt><trkpt lat="44.47941685704848" lon="10.193719589235393"><ele>1018.0</ele><time>2026-03-28T09:06:23Z</time></trkpt><trkpt lat="44.479451882869064" lon="10.193581855086812"><ele>1019.0</ele><time>2026-03-28T09:06:24Z</time></trkpt><trkpt lat="44.479490768951024" lon="10.193455010126993"><ele>1020.0</ele><time>2026-03-28T09:06:25Z</time></trkpt><trkpt lat="44.479539548916684" lon="10.19335141496524"><ele>1021.0</ele><time>2026-03-28T09:06:26Z</time></trkpt><trkpt lat="44.47960838471412" lon="10.193272071910995"><ele>1022.0</ele><time>2026-03-28T09:06:27Z</time></trkpt><trkpt lat="44.47969428183767" lon="10.193235467800381"><ele>1023.0</ele><time>2026-03-28T09:06:28Z</time></trkpt><trkpt lat="44.47978398199224" lon="10.193216887588488"><ele>1024.0</ele><time>2026-03-28T09:06:29Z</time></trkpt><trkpt lat="44.4798677489177" lon="10.19319196477111"><ele>1025.0</ele><time>2026-03-28T09:06:30Z</time></trkpt><trkpt lat="44.47995876716121" lon="10.193161622917673"><ele>1026.0</ele><time>2026-03-28T09:06:31Z</time></trkpt><trkpt lat="44.48006221127643" lon="10.193149873421078"><ele>1027.0</ele><time>2026-03-28T09:06:32Z</time></trkpt><trkpt lat="44.48016764751318" lon="10.193161744788842"><ele>1026.8333333333333</ele><time>2026-03-28T09:06:33Z</time></trkpt><trkpt lat="44.48025591543113" lon="10.193201733651259"><ele>1026.6666666666665</ele><time>2026-03-28T09:06:34Z</time></trkpt><trkpt lat="44.48034735291745" lon="10.193238838841303"><ele>1026.5</ele><time>2026-03-28T09:06:35Z</time></trkpt><trkpt lat="44.48042856581923" lon="10.19323685474006"><ele>1026.3333333333333</ele><time>2026-03-28T09:06:36Z</time></trkpt><trkpt lat="44.48049340115144" lon="10.193207457988947"><ele>1026.1666666666667</ele><time>2026-03-28T09:06:37Z</time></trkpt><trkpt lat="44.4805972202847" lon="10.193164033759121"><ele>1026.0</ele><time>2026-03-28T09:06:39Z</time></trkpt><trkpt lat="44.48070250401988" lon="10.193122051242884"><ele>1026.0</ele><time>2026-03-28T09:06:41Z</time></trkpt><trkpt lat="44.48083138832375" lon="10.193077156973565"><ele>1026.0</ele><time>2026-03-28T09:06:43Z</time></trkpt><trkpt lat="44.48090239002587" lon="10.193059276809672"><ele>1026.0</ele><time>2026-03-28T09:06:44Z</time></trkpt><trkpt lat="44.48097336636468" lon="10.193039786716913"><ele>1026.0</ele><time>2026-03-28T09:06:45Z</time></trkpt><trkpt lat="44.481092445851736" lon="10.193014216787791"><ele>1026.0</ele><time>2026-03-28T09:06:47Z</time></trkpt><trkpt lat="44.48115743646241" lon="10.192993508115766"><ele>1023.0</ele><time>2026-03-28T09:06:48Z</time></trkpt><trkpt lat="44.481272177901474" lon="10.19293694795857"><ele>1019.9999999999999</ele><time>2026-03-28T09:06:50Z</time></trkpt><trkpt lat="44.4813528928242" lon="10.192899920720256"><ele>1016.9999999999999</ele><time>2026-03-28T09:06:51Z</time></trkpt><trkpt lat="44.48144888712475" lon="10.192852434981058"><ele>1014.0</ele><time>2026-03-28T09:06:52Z</time></trkpt><trkpt lat="44.48153660587851" lon="10.192782645980179"><ele>1011.0</ele><time>2026-03-28T09:06:53Z</time></trkpt><trkpt lat="44.48158880804219" lon="10.192673182966137"><ele>1011.0</ele><time>2026-03-28T09:06:54Z</time></trkpt><trkpt lat="44.481592783884224" lon="10.192540456896811"><ele>1010.9999999999999</ele><time>2026-03-28T09:06:55Z</time></trkpt><trkpt lat="44.48155299044847" lon="10.192418630438704"><ele>1010.9999999999999</ele><time>2026-03-28T09:06:56Z</time></trkpt><trkpt lat="44.481495273856815" lon="10.192303031492665"><ele>1011.0</ele><time>2026-03-28T09:06:57Z</time></trkpt><trkpt lat="44.48146845227419" lon="10.19216495319796"><ele>1011.0</ele><time>2026-03-28T09:06:58Z</time></trkpt><trkpt lat="44.48142493313912" lon="10.192033776843983"><ele>1012.5</ele><time>2026-03-28T09:06:59Z</time></trkpt><trkpt lat="44.48141132948718" lon="10.191910672094684"><ele>1014.0</ele><time>2026-03-28T09:07:00Z</time></trkpt><trkpt lat="44.48138799853799" lon="10.19181024639005"><ele>1015.5</ele><time>2026-03-28T09:07:00.999Z</time></trkpt><trkpt lat="44.481356608238144" lon="10.19170175969951"><ele>1017.0</ele><time>2026-03-28T09:07:01.999Z</time></trkpt><trkpt lat="44.481321186757505" lon="10.191585002089212"><ele>1018.5</ele><time>2026-03-28T09:07:02.999Z</time></trkpt><trkpt lat="44.481293405673235" lon="10.191454613265748"><ele>1020.0</ele><time>2026-03-28T09:07:03.999Z</time></trkpt><trkpt lat="44.48126680457442" lon="10.191310784187541"><ele>1028.25</ele><time>2026-03-28T09:07:04.999Z</time></trkpt><trkpt lat="44.48124081039437" lon="10.191167628356514"><ele>1036.5</ele><time>2026-03-28T09:07:05.999Z</time></trkpt><trkpt lat="44.48121404842086" lon="10.191011783134831"><ele>1044.75</ele><time>2026-03-28T09:07:06.999Z</time></trkpt><trkpt lat="44.481209363548324" lon="10.190853385275489"><ele>1053.0</ele><time>2026-03-28T09:07:07.999Z</time></trkpt><trkpt lat="44.48122179355628" lon="10.190685077819053"><ele>1053.5</ele><time>2026-03-28T09:07:08.999Z</time></trkpt><trkpt lat="44.48119975578736" lon="10.190523811834513"><ele>1054.0</ele><time>2026-03-28T09:07:09.999Z</time></trkpt><trkpt lat="44.48112767198877" lon="10.190384163715636"><ele>1054.5</ele><time>2026-03-28T09:07:10.999Z</time></trkpt><trkpt lat="44.48105081334912" lon="10.190247032559013"><ele>1055.0</ele><time>2026-03-28T09:07:11.999Z</time></trkpt><trkpt lat="44.48100228309077" lon="10.19013560445554"><ele>1055.0</ele><time>2026-03-28T09:07:12.999Z</time></trkpt><trkpt lat="44.480999465577014" lon="10.190036700077863"><ele>1055.0</ele><time>2026-03-28T09:07:13.999Z</time></trkpt><trkpt lat="44.4810098311438" lon="10.189940623294438"><ele>1055.0</ele><time>2026-03-28T09:07:14.999Z</time></trkpt><trkpt lat="44.481095189701946" lon="10.189866542737315"><ele>1055.0</ele><time>2026-03-28T09:07:15.999Z</time></trkpt><trkpt lat="44.48120200022943" lon="10.189863235107481"><ele>1055.0</ele><time>2026-03-28T09:07:16.999Z</time></trkpt><trkpt lat="44.481321907555945" lon="10.189873059199035"><ele>1053.0</ele><time>2026-03-28T09:07:17.999Z</time></trkpt><trkpt lat="44.4814135242316" lon="10.189818300123543"><ele>1051.0</ele><time>2026-03-28T09:07:18.999Z</time></trkpt><trkpt lat="44.48151186183413" lon="10.189680049363748"><ele>1049.0</ele><time>2026-03-28T09:07:19.999Z</time></trkpt><trkpt lat="44.481624599004014" lon="10.18952720146677"><ele>1047.0</ele><time>2026-03-28T09:07:20.999Z</time></trkpt><trkpt lat="44.48174615263554" lon="10.18936040209858"><ele>1047.0</ele><time>2026-03-28T09:07:21.999Z</time></trkpt><trkpt lat="44.481842498221496" lon="10.189229888053362"><ele>1047.0</ele><time>2026-03-28T09:07:23Z</time></trkpt><trkpt lat="44.481904583617826" lon="10.189138042262263"><ele>1047.0</ele><time>2026-03-28T09:07:24Z</time></trkpt><trkpt lat="44.48194437686736" lon="10.189044465190877"><ele>1047.0</ele><time>2026-03-28T09:07:25Z</time></trkpt><trkpt lat="44.48195959164514" lon="10.188936679174185"><ele>1047.0</ele><time>2026-03-28T09:07:26Z</time></trkpt><trkpt lat="44.48194772423614" lon="10.188789185800927"><ele>1049.5</ele><time>2026-03-28T09:07:27Z</time></trkpt><trkpt lat="44.48188962886037" lon="10.188608085706655"><ele>1052.0</ele><time>2026-03-28T09:07:28Z</time></trkpt><trkpt lat="44.48181292250222" lon="10.188422912034671"><ele>1054.5</ele><time>2026-03-28T09:07:29Z</time></trkpt><trkpt lat="44.4817795945222" lon="10.188225936891884"><ele>1057.0</ele><time>2026-03-28T09:07:30Z</time></trkpt><trkpt lat="44.481783087610914" lon="10.188006952496021"><ele>1059.75</ele><time>2026-03-28T09:07:31Z</time></trkpt><trkpt lat="44.48178342076696" lon="10.187783036968083"><ele>1062.5</ele><time>2026-03-28T09:07:32Z</time></trkpt><trkpt lat="44.48178151084522" lon="10.187598098282617"><ele>1065.25</ele><time>2026-03-28T09:07:33Z</time></trkpt><trkpt lat="44.481788976977604" lon="10.187445105039652"><ele>1068.0</ele><time>2026-03-28T09:07:34Z</time></trkpt><trkpt lat="44.48181788447167" lon="10.187319739428514"><ele>1068.5</ele><time>2026-03-28T09:07:35Z</time></trkpt><trkpt lat="44.48187651140298" lon="10.187230438159691"><ele>1069.0</ele><time>2026-03-28T09:07:36Z</time></trkpt><trkpt lat="44.48197651596625" lon="10.187170720915587"><ele>1069.5</ele><time>2026-03-28T09:07:37Z</time></trkpt><trkpt lat="44.48210651625074" lon="10.187108056362128"><ele>1070.0</ele><time>2026-03-28T09:07:38Z</time></trkpt><trkpt lat="44.48224785332694" lon="10.187009972959327"><ele>1070.0</ele><time>2026-03-28T09:07:39Z</time></trkpt><trkpt lat="44.482378394154885" lon="10.18689618237629"><ele>1070.0</ele><time>2026-03-28T09:07:40Z</time></trkpt><trkpt lat="44.482486224281395" lon="10.186738505049998"><ele>1070.0</ele><time>2026-03-28T09:07:41Z</time></trkpt><trkpt lat="44.48256762189423" lon="10.186550031316512"><ele>1071.25</ele><time>2026-03-28T09:07:42Z</time></trkpt><trkpt lat="44.48265395222696" lon="10.186407426887904"><ele>1072.5</ele><time>2026-03-28T09:07:43Z</time></trkpt><trkpt lat="44.48278213017974" lon="10.18633480844972"><ele>1073.75</ele><time>2026-03-28T09:07:44Z</time></trkpt><trkpt lat="44.48292026134922" lon="10.186331933150507"><ele>1075.0</ele><time>2026-03-28T09:07:45Z</time></trkpt><trkpt lat="44.48301982692069" lon="10.186386674712308"><ele>1075.0</ele><time>2026-03-28T09:07:46Z</time></trkpt><trkpt lat="44.48306986827173" lon="10.186472497380393"><ele>1075.0</ele><time>2026-03-28T09:11:04.999Z</time></trkpt><trkpt lat="44.483133885642" lon="10.1863635326149"><ele>1075.0</ele><time>2026-03-28T09:11:06.999Z</time></trkpt><trkpt lat="44.48316964837306" lon="10.186262474672889"><ele>1075.0</ele><time>2026-03-28T09:11:07.999Z</time></trkpt><trkpt lat="44.48309706939809" lon="10.186097984514166"><ele>1075.0</ele><time>2026-03-28T09:11:09.999Z</time></trkpt><trkpt lat="44.4829998371471" lon="10.186000157208918"><ele>1077.5</ele><time>2026-03-28T09:11:10.999Z</time></trkpt><trkpt lat="44.48284157941748" lon="10.185959745918746"><ele>1080.0</ele><time>2026-03-28T09:11:11.999Z</time></trkpt><trkpt lat="44.482692880714886" lon="10.185904098451882"><ele>1082.5</ele><time>2026-03-28T09:11:12.999Z</time></trkpt><trkpt lat="44.48257127697717" lon="10.185864312171645"><ele>1085.0</ele><time>2026-03-28T09:11:13.999Z</time></trkpt><trkpt lat="44.48244585278591" lon="10.185836720372677"><ele>1085.0</ele><time>2026-03-28T09:11:14.999Z</time></trkpt><trkpt lat="44.48231936774562" lon="10.185850750405736"><ele>1085.0</ele><time>2026-03-28T09:11:15.999Z</time></trkpt><trkpt lat="44.482223420308905" lon="10.18585075040875"><ele>1085.0</ele><time>2026-03-28T09:11:16.999Z</time></trkpt><trkpt lat="44.48213250966524" lon="10.185833691982483"><ele>1085.0</ele><time>2026-03-28T09:11:17.999Z</time></trkpt><trkpt lat="44.482040870779244" lon="10.185787527056261"><ele>1085.0</ele><time>2026-03-28T09:11:18.999Z</time></trkpt><trkpt lat="44.481935818049344" lon="10.18572033904051"><ele>1089.0</ele><time>2026-03-28T09:11:19.999Z</time></trkpt><trkpt lat="44.48182715691146" lon="10.185649294897836"><ele>1093.0</ele><time>2026-03-28T09:11:20.999Z</time></trkpt><trkpt lat="44.481736399560575" lon="10.185598800654809"><ele>1097.0</ele><time>2026-03-28T09:11:21.999Z</time></trkpt><trkpt lat="44.48164878449598" lon="10.185571741362743"><ele>1101.0</ele><time>2026-03-28T09:11:22.999Z</time></trkpt><trkpt lat="44.48152587286249" lon="10.18556591672082"><ele>1105.0</ele><time>2026-03-28T09:11:24.999Z</time></trkpt><trkpt lat="44.481438358914936" lon="10.185567953449066"><ele>1105.0</ele><time>2026-03-28T09:11:25.999Z</time></trkpt><trkpt lat="44.48132513461554" lon="10.185569841293098"><ele>1105.0</ele><time>2026-03-28T09:11:26.999Z</time></trkpt><trkpt lat="44.48120470484569" lon="10.185576771707717"><ele>1105.0</ele><time>2026-03-28T09:11:27.999Z</time></trkpt><trkpt lat="44.4810951652772" lon="10.185582405465599"><ele>1105.0</ele><time>2026-03-28T09:11:28.999Z</time></trkpt><trkpt lat="44.480977852838194" lon="10.185558122428025"><ele>1104.8</ele><time>2026-03-28T09:11:29.999Z</time></trkpt><trkpt lat="44.48087964919551" lon="10.185468423679762"><ele>1104.6</ele><time>2026-03-28T09:11:30.999Z</time></trkpt><trkpt lat="44.480810566158766" lon="10.18531747749541"><ele>1104.4</ele><time>2026-03-28T09:11:31.999Z</time></trkpt><trkpt lat="44.480734312263095" lon="10.185240592369201"><ele>1104.2</ele><time>2026-03-28T09:11:32.999Z</time></trkpt><trkpt lat="44.48064211775862" lon="10.185179807642958"><ele>1104.0</ele><time>2026-03-28T09:11:33.999Z</time></trkpt><trkpt lat="44.480526516221815" lon="10.185172479615995"><ele>1105.4</ele><time>2026-03-28T09:11:35Z</time></trkpt><trkpt lat="44.48041578484922" lon="10.185134531276685"><ele>1106.8000000000002</ele><time>2026-03-28T09:11:36Z</time></trkpt><trkpt lat="44.480311990539235" lon="10.18510409406648"><ele>1108.1999999999998</ele><time>2026-03-28T09:11:37Z</time></trkpt><trkpt lat="44.480220110691334" lon="10.185028105684339"><ele>1109.6</ele><time>2026-03-28T09:11:38Z</time></trkpt><trkpt lat="44.48013708669753" lon="10.184905685995833"><ele>1111.0</ele><time>2026-03-28T09:11:39Z</time></trkpt><trkpt lat="44.48002238362453" lon="10.18477525810417"><ele>1112.8</ele><time>2026-03-28T09:11:40Z</time></trkpt><trkpt lat="44.47994049822018" lon="10.184654574097973"><ele>1114.6</ele><time>2026-03-28T09:11:41Z</time></trkpt><trkpt lat="44.47985982641248" lon="10.184581450265071"><ele>1116.4</ele><time>2026-03-28T09:11:42Z</time></trkpt><trkpt lat="44.47978068981523" lon="10.184554990348724"><ele>1118.2</ele><time>2026-03-28T09:11:43Z</time></trkpt><trkpt lat="44.47969548950153" lon="10.184578249734452"><ele>1120.0</ele><time>2026-03-28T09:11:44Z</time></trkpt><trkpt lat="44.479607317555995" lon="10.184679448053705"><ele>1121.75</ele><time>2026-03-28T09:11:45Z</time></trkpt><trkpt lat="44.479551229798375" lon="10.184857427460434"><ele>1123.5</ele><time>2026-03-28T09:11:46Z</time></trkpt><trkpt lat="44.479525683971104" lon="10.185047116851452"><ele>1125.25</ele><time>2026-03-28T09:11:47Z</time></trkpt><trkpt lat="44.479499358786065" lon="10.185209323359613"><ele>1127.0</ele><time>2026-03-28T09:11:48Z</time></trkpt><trkpt lat="44.479456076465894" lon="10.18532535716424"><ele>1127.0</ele><time>2026-03-28T09:11:49Z</time></trkpt><trkpt lat="44.47939559474572" lon="10.185401951274661"><ele>1127.0</ele><time>2026-03-28T09:11:50Z</time></trkpt><trkpt lat="44.479324084579396" lon="10.185435005231945"><ele>1127.0</ele><time>2026-03-28T09:11:51Z</time></trkpt><trkpt lat="44.47922969848442" lon="10.18540794456966"><ele>1127.0</ele><time>2026-03-28T09:11:52Z</time></trkpt><trkpt lat="44.47910427635422" lon="10.18535174972737"><ele>1127.0</ele><time>2026-03-28T09:11:53Z</time></trkpt><trkpt lat="44.478975226974995" lon="10.185299477045989"><ele>1127.0</ele><time>2026-03-28T09:11:54Z</time></trkpt><trkpt lat="44.47887508004546" lon="10.185196437143436"><ele>1127.0</ele><time>2026-03-28T09:11:55Z</time></trkpt><trkpt lat="44.47879544644564" lon="10.1851189280601"><ele>1127.0</ele><time>2026-03-28T09:11:56Z</time></trkpt><trkpt lat="44.478763520274086" lon="10.185016488861422"><ele>1127.0</ele><time>2026-03-28T09:11:57Z</time></trkpt><trkpt lat="44.47878780338627" lon="10.184884858933822"><ele>1127.0</ele><time>2026-03-28T09:11:58Z</time></trkpt><trkpt lat="44.47886331219456" lon="10.184775465451073"><ele>1128.0</ele><time>2026-03-28T09:11:59Z</time></trkpt><trkpt lat="44.47897715439094" lon="10.184688931417764"><ele>1129.0</ele><time>2026-03-28T09:12:00Z</time></trkpt><trkpt lat="44.47911858742789" lon="10.18458197080529"><ele>1130.0</ele><time>2026-03-28T09:12:01Z</time></trkpt><trkpt lat="44.47922004210131" lon="10.18448984139546"><ele>1131.0</ele><time>2026-03-28T09:12:02Z</time></trkpt><trkpt lat="44.47928756951202" lon="10.184352817779368"><ele>1131.0</ele><time>2026-03-28T09:12:03Z</time></trkpt><trkpt lat="44.47931009149821" lon="10.184172672152837"><ele>1131.0</ele><time>2026-03-28T09:12:04Z</time></trkpt><trkpt lat="44.479283979920034" lon="10.183976952902812"><ele>1131.0</ele><time>2026-03-28T09:12:05Z</time></trkpt><trkpt lat="44.47925367268313" lon="10.183786254540228"><ele>1131.0</ele><time>2026-03-28T09:12:06Z</time></trkpt><trkpt lat="44.47925595962662" lon="10.183604491203702"><ele>1134.5</ele><time>2026-03-28T09:12:07Z</time></trkpt><trkpt lat="44.47928930558527" lon="10.183440288538518"><ele>1138.0</ele><time>2026-03-28T09:12:08Z</time></trkpt><trkpt lat="44.479370153400126" lon="10.183307570845153"><ele>1141.5</ele><time>2026-03-28T09:12:09Z</time></trkpt><trkpt lat="44.47948897723566" lon="10.183188875015729"><ele>1145.0</ele><time>2026-03-28T09:12:10Z</time></trkpt><trkpt lat="44.47961008150662" lon="10.183095170481984"><ele>1147.25</ele><time>2026-03-28T09:12:11Z</time></trkpt><trkpt lat="44.47973967730779" lon="10.183049647722168"><ele>1149.5</ele><time>2026-03-28T09:12:12Z</time></trkpt><trkpt lat="44.47987980477744" lon="10.183078378396448"><ele>1151.75</ele><time>2026-03-28T09:12:13Z</time></trkpt><trkpt lat="44.48001737684511" lon="10.183130383215756"><ele>1154.0</ele><time>2026-03-28T09:12:14Z</time></trkpt><trkpt lat="44.4801273107507" lon="10.183157289043018"><ele>1154.0</ele><time>2026-03-28T09:12:15Z</time></trkpt><trkpt lat="44.48021405714717" lon="10.183165543538097"><ele>1154.0</ele><time>2026-03-28T09:12:16Z</time></trkpt><trkpt lat="44.48033143463644" lon="10.183132150554918"><ele>1154.0</ele><time>2026-03-28T09:12:18Z</time></trkpt><trkpt lat="44.480432349596704" lon="10.183056694720584"><ele>1154.0</ele><time>2026-03-28T09:12:20Z</time></trkpt><trkpt lat="44.48051984499132" lon="10.182990417485419"><ele>1154.0</ele><time>2026-03-28T09:12:21Z</time></trkpt><trkpt lat="44.48060841627558" lon="10.182896219432799"><ele>1151.4</ele><time>2026-03-28T09:12:22Z</time></trkpt><trkpt lat="44.48068878618719" lon="10.18280693930575"><ele>1148.8000000000002</ele><time>2026-03-28T09:12:23Z</time></trkpt><trkpt lat="44.48073478777912" lon="10.182720515911752"><ele>1146.1999999999998</ele><time>2026-03-28T09:12:24Z</time></trkpt><trkpt lat="44.480755830208935" lon="10.182614284868219"><ele>1143.6</ele><time>2026-03-28T09:12:25Z</time></trkpt><trkpt lat="44.48072519481489" lon="10.182494452468188"><ele>1141.0</ele><time>2026-03-28T09:12:26Z</time></trkpt><trkpt lat="44.4806483445534" lon="10.182400477100982"><ele>1140.25</ele><time>2026-03-28T09:12:27Z</time></trkpt><trkpt lat="44.4805545188001" lon="10.182323525101506"><ele>1139.5</ele><time>2026-03-28T09:12:28Z</time></trkpt><trkpt lat="44.48042190468728" lon="10.182350462601077"><ele>1138.75</ele><time>2026-03-28T09:12:29Z</time></trkpt><trkpt lat="44.48028435228773" lon="10.182322889619485"><ele>1138.0</ele><time>2026-03-28T09:12:30Z</time></trkpt><trkpt lat="44.48018260562175" lon="10.182311595738023"><ele>1142.4</ele><time>2026-03-28T09:12:31Z</time></trkpt><trkpt lat="44.48008678274469" lon="10.182284641133416"><ele>1146.8</ele><time>2026-03-28T09:12:33Z</time></trkpt><trkpt lat="44.479976832245484" lon="10.182224097938974"><ele>1151.2</ele><time>2026-03-28T09:12:35Z</time></trkpt><trkpt lat="44.479878797825236" lon="10.18216055423695"><ele>1155.6</ele><time>2026-03-28T09:12:36Z</time></trkpt><trkpt lat="44.4797627722013" lon="10.182111457865062"><ele>1160.0</ele><time>2026-03-28T09:12:37Z</time></trkpt><trkpt lat="44.479628595680204" lon="10.182040050970269"><ele>1165.3333333333335</ele><time>2026-03-28T09:12:38Z</time></trkpt><trkpt lat="44.47946155197478" lon="10.182022060464801"><ele>1170.6666666666667</ele><time>2026-03-28T09:12:39Z</time></trkpt><trkpt lat="44.47928894682041" lon="10.181988647422575"><ele>1176.0</ele><time>2026-03-28T09:12:40Z</time></trkpt><trkpt lat="44.47911378031004" lon="10.181970020811201"><ele>1176.0</ele><time>2026-03-28T09:12:41Z</time></trkpt><trkpt lat="44.47892976924752" lon="10.181956513961499"><ele>1176.0</ele><time>2026-03-28T09:12:42Z</time></trkpt><trkpt lat="44.47877142482593" lon="10.181944940743206"><ele>1176.0</ele><time>2026-03-28T09:12:43Z</time></trkpt><trkpt lat="44.478627785210506" lon="10.18194129110089"><ele>1176.5</ele><time>2026-03-28T09:12:44Z</time></trkpt><trkpt lat="44.47850244313349" lon="10.181923888774834"><ele>1177.0</ele><time>2026-03-28T09:12:45Z</time></trkpt><trkpt lat="44.47838697835548" lon="10.181886009564847"><ele>1177.5</ele><time>2026-03-28T09:12:46Z</time></trkpt><trkpt lat="44.47826794591368" lon="10.181816782970431"><ele>1178.0</ele><time>2026-03-28T09:12:47Z</time></trkpt><trkpt lat="44.47813480235629" lon="10.181741455971027"><ele>1178.0</ele><time>2026-03-28T09:12:48Z</time></trkpt><trkpt lat="44.478017180019236" lon="10.181646539475263"><ele>1178.0</ele><time>2026-03-28T09:12:49Z</time></trkpt><trkpt lat="44.47791476771796" lon="10.18158509648947"><ele>1178.0</ele><time>2026-03-28T09:12:50Z</time></trkpt><trkpt lat="44.477812271482" lon="10.181540920151166"><ele>1178.0</ele><time>2026-03-28T09:12:51Z</time></trkpt><trkpt lat="44.477689317395615" lon="10.181486390891518"><ele>1183.25</ele><time>2026-03-28T09:12:52Z</time></trkpt><trkpt lat="44.47755344714931" lon="10.18144856177812"><ele>1188.5</ele><time>2026-03-28T09:12:53Z</time></trkpt><trkpt lat="44.4774147352084" lon="10.181411706575558"><ele>1193.75</ele><time>2026-03-28T09:12:54Z</time></trkpt><trkpt lat="44.47729892228959" lon="10.181383273140268"><ele>1199.0</ele><time>2026-03-28T09:12:55Z</time></trkpt><trkpt lat="44.47723364838714" lon="10.18131812766339"><ele>1199.0</ele><time>2026-03-28T09:12:56Z</time></trkpt><trkpt lat="44.47719844934055" lon="10.181195597382223"><ele>1199.0</ele><time>2026-03-28T09:12:58Z</time></trkpt><trkpt lat="44.4772224518527" lon="10.181078832905463"><ele>1199.0</ele><time>2026-03-28T09:12:59Z</time></trkpt><trkpt lat="44.47728036344504" lon="10.181010927465525"><ele>1199.0</ele><time>2026-03-28T09:13:00Z</time></trkpt><trkpt lat="44.477353473549826" lon="10.180991887336646"><ele>1199.0</ele><time>2026-03-28T09:13:01Z</time></trkpt><trkpt lat="44.477428825703875" lon="10.180999937353654"><ele>1199.0</ele><time>2026-03-28T09:13:02Z</time></trkpt><trkpt lat="44.47751203823183" lon="10.181013354143452"><ele>1199.0</ele><time>2026-03-28T09:13:03Z</time></trkpt><trkpt lat="44.47759590076154" lon="10.180996638349237"><ele>1199.0</ele><time>2026-03-28T09:13:04Z</time></trkpt><trkpt lat="44.47766100539847" lon="10.180949648035522"><ele>1199.0</ele><time>2026-03-28T09:13:05Z</time></trkpt><trkpt lat="44.477730823290756" lon="10.18088068524859"><ele>1199.0</ele><time>2026-03-28T09:13:06Z</time></trkpt><trkpt lat="44.47781189451799" lon="10.180776686672067"><ele>1199.0</ele><time>2026-03-28T09:13:07Z</time></trkpt><trkpt lat="44.47789830573765" lon="10.180648330916283"><ele>1199.5</ele><time>2026-03-28T09:13:07.999Z</time></trkpt><trkpt lat="44.477998482885035" lon="10.18054367264043"><ele>1200.0</ele><time>2026-03-28T09:13:08.999Z</time></trkpt><trkpt lat="44.478126245508314" lon="10.180480605249723"><ele>1200.5</ele><time>2026-03-28T09:13:09.999Z</time></trkpt><trkpt lat="44.47824001991386" lon="10.180438255185107"><ele>1201.0</ele><time>2026-03-28T09:13:10.999Z</time></trkpt><trkpt lat="44.478333269967095" lon="10.180367249580884"><ele>1201.0</ele><time>2026-03-28T09:13:11.999Z</time></trkpt><trkpt lat="44.47837692226318" lon="10.180275851895397"><ele>1201.0</ele><time>2026-03-28T09:13:12.999Z</time></trkpt><trkpt lat="44.47837896009015" lon="10.18017554106195"><ele>1201.0</ele><time>2026-03-28T09:13:13.999Z</time></trkpt><trkpt lat="44.47835155814618" lon="10.180082093947963"><ele>1201.0</ele><time>2026-03-28T09:13:14.999Z</time></trkpt><trkpt lat="44.47828387492693" lon="10.180019611798453"><ele>1201.0</ele><time>2026-03-28T09:13:15.999Z</time></trkpt><trkpt lat="44.478195579552896" lon="10.179969857490796"><ele>1201.0</ele><time>2026-03-28T09:13:16.999Z</time></trkpt><trkpt lat="44.478079952193085" lon="10.18004371891418"><ele>1201.0</ele><time>2026-03-28T09:13:17.999Z</time></trkpt><trkpt lat="44.477970116580885" lon="10.180064654043775"><ele>1201.0</ele><time>2026-03-28T09:13:18.999Z</time></trkpt><trkpt lat="44.47787048840388" lon="10.180064550847021"><ele>1201.0</ele><time>2026-03-28T09:13:19.999Z</time></trkpt><trkpt lat="44.477807745062925" lon="10.179990370651993"><ele>1201.0</ele><time>2026-03-28T09:13:20.999Z</time></trkpt><trkpt lat="44.47771963816178" lon="10.17989846303144"><ele>1201.0</ele><time>2026-03-28T09:13:21.999Z</time></trkpt><trkpt lat="44.47760159440773" lon="10.179869345568553"><ele>1204.25</ele><time>2026-03-28T09:13:22.999Z</time></trkpt><trkpt lat="44.47748283913912" lon="10.179868019455196"><ele>1207.5</ele><time>2026-03-28T09:13:23.999Z</time></trkpt><trkpt lat="44.47736945838859" lon="10.179945712802908"><ele>1210.75</ele><time>2026-03-28T09:13:24.999Z</time></trkpt><trkpt lat="44.47726249476383" lon="10.180014576833317"><ele>1214.0</ele><time>2026-03-28T09:13:25.999Z</time></trkpt><trkpt lat="44.47717217831301" lon="10.180064144869899"><ele>1215.4</ele><time>2026-03-28T09:13:26.999Z</time></trkpt><trkpt lat="44.477086119807915" lon="10.180077902658288"><ele>1216.8000000000002</ele><time>2026-03-28T09:13:27.999Z</time></trkpt><trkpt lat="44.47700193559045" lon="10.18003635198249"><ele>1218.1999999999998</ele><time>2026-03-28T09:13:28.999Z</time></trkpt><trkpt lat="44.47692210447915" lon="10.179941925078898"><ele>1219.6</ele><time>2026-03-28T09:13:29.999Z</time></trkpt><trkpt lat="44.47682533743335" lon="10.179835657073173"><ele>1221.0</ele><time>2026-03-28T09:13:30.999Z</time></trkpt><trkpt lat="44.47672817476943" lon="10.17976987513636"><ele>1222.3999999999999</ele><time>2026-03-28T09:13:31.999Z</time></trkpt><trkpt lat="44.476642954991284" lon="10.179688560167914"><ele>1223.8</ele><time>2026-03-28T09:13:32.999Z</time></trkpt><trkpt lat="44.476547726546364" lon="10.179620169000136"><ele>1225.1999999999998</ele><time>2026-03-28T09:13:33.999Z</time></trkpt><trkpt lat="44.47643316085976" lon="10.179589940060021"><ele>1226.6</ele><time>2026-03-28T09:13:34.999Z</time></trkpt><trkpt lat="44.47631509834892" lon="10.17959235090491"><ele>1228.0</ele><time>2026-03-28T09:13:35.999Z</time></trkpt><trkpt lat="44.47621007259649" lon="10.179619939464773"><ele>1228.3333333333333</ele><time>2026-03-28T09:13:36.999Z</time></trkpt><trkpt lat="44.47612012626754" lon="10.179672058749292"><ele>1228.6666666666665</ele><time>2026-03-28T09:13:37.999Z</time></trkpt><trkpt lat="44.476050511497085" lon="10.179707755988792"><ele>1229.0</ele><time>2026-03-28T09:13:38.999Z</time></trkpt><trkpt lat="44.475945734242856" lon="10.17973939327777"><ele>1229.3333333333333</ele><time>2026-03-28T09:13:41Z</time></trkpt><trkpt lat="44.475881457024094" lon="10.179724327585276"><ele>1229.6666666666667</ele><time>2026-03-28T09:13:44Z</time></trkpt><trkpt lat="44.47580119037017" lon="10.179677472404418"><ele>1230.0</ele><time>2026-03-28T09:13:47Z</time></trkpt><trkpt lat="44.475695702512816" lon="10.179704396825722"><ele>1230.0</ele><time>2026-03-28T09:13:49Z</time></trkpt><trkpt lat="44.47563296993773" lon="10.179727929119464"><ele>1230.0</ele><time>2026-03-28T09:13:51Z</time></trkpt><trkpt lat="44.47555665263274" lon="10.179753157611248"><ele>1230.0</ele><time>2026-03-28T09:14:14Z</time></trkpt><trkpt lat="44.475622143641885" lon="10.179732194536385"><ele>1230.0</ele><time>2026-03-28T09:14:23Z</time></trkpt><trkpt lat="44.47569168593171" lon="10.179705204886762"><ele>1230.0</ele><time>2026-03-28T09:17:47.999Z</time></trkpt><trkpt lat="44.4757853358825" lon="10.179681044446529"><ele>1230.0</ele><time>2026-03-28T09:17:50.999Z</time></trkpt><trkpt lat="44.47584810468434" lon="10.179546639561178"><ele>1230.0</ele><time>2026-03-28T09:17:54Z</time></trkpt><trkpt lat="44.47592586734593" lon="10.179415878801889"><ele>1230.0</ele><time>2026-03-28T09:17:56Z</time></trkpt><trkpt lat="44.475979200850816" lon="10.179325848214535"><ele>1230.0</ele><time>2026-03-28T09:17:57Z</time></trkpt><trkpt lat="44.47603716869321" lon="10.179228654519905"><ele>1230.0</ele><time>2026-03-28T09:17:58Z</time></trkpt><trkpt lat="44.476106992917614" lon="10.179130335913278"><ele>1230.0</ele><time>2026-03-28T09:17:59Z</time></trkpt><trkpt lat="44.47618090017252" lon="10.179023878672846"><ele>1230.5</ele><time>2026-03-28T09:18:00Z</time></trkpt><trkpt lat="44.47622441947992" lon="10.17895986801711"><ele>1231.0</ele><time>2026-03-28T09:18:01Z</time></trkpt><trkpt lat="44.47630836725352" lon="10.178864383753416"><ele>1231.5</ele><time>2026-03-28T09:18:03Z</time></trkpt><trkpt lat="44.4763671322773" lon="10.178811454870068"><ele>1232.0</ele><time>2026-03-28T09:18:05Z</time></trkpt><trkpt lat="44.47642623157686" lon="10.178767646560942"><ele>1232.5</ele><time>2026-03-28T09:18:07Z</time></trkpt><trkpt lat="44.47649337590642" lon="10.178719040486332"><ele>1233.0</ele><time>2026-03-28T09:18:09Z</time></trkpt><trkpt lat="44.47659274096061" lon="10.178649986869846"><ele>1233.0</ele><time>2026-03-28T09:18:11Z</time></trkpt><trkpt lat="44.476654877845775" lon="10.17863276942723"><ele>1233.0</ele><time>2026-03-28T09:18:12Z</time></trkpt><trkpt lat="44.476728669281385" lon="10.178641788843192"><ele>1233.0</ele><time>2026-03-28T09:18:13Z</time></trkpt><trkpt lat="44.476804274875896" lon="10.178663416989265"><ele>1233.0</ele><time>2026-03-28T09:18:14Z</time></trkpt><trkpt lat="44.476878563123115" lon="10.17868499447728"><ele>1233.0</ele><time>2026-03-28T09:18:15Z</time></trkpt><trkpt lat="44.47695566412702" lon="10.178685193926585"><ele>1233.0</ele><time>2026-03-28T09:18:16Z</time></trkpt><trkpt lat="44.47702666791642" lon="10.178682568594283"><ele>1233.0</ele><time>2026-03-28T09:18:17Z</time></trkpt><trkpt lat="44.477137071818134" lon="10.178694487066725"><ele>1233.6</ele><time>2026-03-28T09:18:19Z</time></trkpt><trkpt lat="44.477209565563165" lon="10.178599507576415"><ele>1234.1999999999998</ele><time>2026-03-28T09:18:21Z</time></trkpt><trkpt lat="44.47720454520485" lon="10.178427695203904"><ele>1234.8</ele><time>2026-03-28T09:18:22Z</time></trkpt><trkpt lat="44.47716791438108" lon="10.178299497142222"><ele>1235.3999999999999</ele><time>2026-03-28T09:18:23Z</time></trkpt><trkpt lat="44.477125109549036" lon="10.17817323910041"><ele>1236.0</ele><time>2026-03-28T09:18:24Z</time></trkpt><trkpt lat="44.477082753834715" lon="10.17805332464716"><ele>1236.0</ele><time>2026-03-28T09:18:25Z</time></trkpt><trkpt lat="44.477023171885016" lon="10.17792331830595"><ele>1236.0</ele><time>2026-03-28T09:18:26Z</time></trkpt><trkpt lat="44.47696821151968" lon="10.17780040698799"><ele>1236.0</ele><time>2026-03-28T09:18:27Z</time></trkpt><trkpt lat="44.47692562889402" lon="10.177683151527606"><ele>1236.0</ele><time>2026-03-28T09:18:28Z</time></trkpt><trkpt lat="44.47689006815036" lon="10.177555001604379"><ele>1236.0</ele><time>2026-03-28T09:18:29Z</time></trkpt><trkpt lat="44.476869396761636" lon="10.177408434094549"><ele>1235.8</ele><time>2026-03-28T09:18:30Z</time></trkpt><trkpt lat="44.476908185469064" lon="10.177269437707194"><ele>1235.6</ele><time>2026-03-28T09:18:31Z</time></trkpt><trkpt lat="44.476975691559126" lon="10.17715212398401"><ele>1235.4</ele><time>2026-03-28T09:18:32Z</time></trkpt><trkpt lat="44.477062903086214" lon="10.177059246292428"><ele>1235.2</ele><time>2026-03-28T09:18:33Z</time></trkpt><trkpt lat="44.477139682869804" lon="10.176962999316546"><ele>1235.0</ele><time>2026-03-28T09:18:34Z</time></trkpt><trkpt lat="44.47718688641682" lon="10.176853377469604"><ele>1233.0</ele><time>2026-03-28T09:18:35Z</time></trkpt><trkpt lat="44.47721976278792" lon="10.17674986214486"><ele>1231.0</ele><time>2026-03-28T09:18:36Z</time></trkpt><trkpt lat="44.47723668043981" lon="10.176646400038335"><ele>1229.0</ele><time>2026-03-28T09:18:37Z</time></trkpt><trkpt lat="44.4772261338008" lon="10.176544042581622"><ele>1227.0</ele><time>2026-03-28T09:18:38Z</time></trkpt><trkpt lat="44.477196514831874" lon="10.176430159445452"><ele>1225.0</ele><time>2026-03-28T09:18:39Z</time></trkpt><trkpt lat="44.477098400705366" lon="10.176355596481876"><ele>1223.0</ele><time>2026-03-28T09:18:40Z</time></trkpt><trkpt lat="44.47701132430585" lon="10.176281549628731"><ele>1223.0</ele><time>2026-03-28T09:18:41Z</time></trkpt><trkpt lat="44.47692989005133" lon="10.176215059080008"><ele>1223.0</ele><time>2026-03-28T09:18:42Z</time></trkpt><trkpt lat="44.47685980556351" lon="10.176157835522634"><ele>1223.0</ele><time>2026-03-28T09:18:43Z</time></trkpt><trkpt lat="44.47677314571522" lon="10.176107048742715"><ele>1223.0</ele><time>2026-03-28T09:18:44Z</time></trkpt><trkpt lat="44.47670032030821" lon="10.176030872233019"><ele>1223.0</ele><time>2026-03-28T09:18:45Z</time></trkpt><trkpt lat="44.476622894052355" lon="10.17595872108977"><ele>1223.0</ele><time>2026-03-28T09:18:46Z</time></trkpt><trkpt lat="44.47654260793332" lon="10.175874365430309"><ele>1223.0</ele><time>2026-03-28T09:18:47Z</time></trkpt><trkpt lat="44.47646091631932" lon="10.175776610771166"><ele>1223.0</ele><time>2026-03-28T09:18:48Z</time></trkpt><trkpt lat="44.47639498897947" lon="10.175681961972927"><ele>1223.0</ele><time>2026-03-28T09:18:49Z</time></trkpt><trkpt lat="44.476322686794454" lon="10.175592467873656"><ele>1223.0</ele><time>2026-03-28T09:18:50Z</time></trkpt><trkpt lat="44.476272158732" lon="10.175505067601915"><ele>1224.0</ele><time>2026-03-28T09:18:51Z</time></trkpt><trkpt lat="44.47621347677822" lon="10.175423685103182"><ele>1225.0</ele><time>2026-03-28T09:18:52Z</time></trkpt><trkpt lat="44.47617012536229" lon="10.175331898716111"><ele>1226.0</ele><time>2026-03-28T09:18:53Z</time></trkpt><trkpt lat="44.4761383495971" lon="10.175201461287788"><ele>1227.0</ele><time>2026-03-28T09:18:54Z</time></trkpt><trkpt lat="44.47612529969662" lon="10.175055646394261"><ele>1228.0</ele><time>2026-03-28T09:18:55Z</time></trkpt><trkpt lat="44.476160355565256" lon="10.174921016858601"><ele>1225.0</ele><time>2026-03-28T09:18:56Z</time></trkpt><trkpt lat="44.47618595393921" lon="10.174777580241136"><ele>1222.0</ele><time>2026-03-28T09:18:57Z</time></trkpt><trkpt lat="44.476246750656394" lon="10.174646281646961"><ele>1219.0</ele><time>2026-03-28T09:18:58Z</time></trkpt><trkpt lat="44.47628952093467" lon="10.17452897902655"><ele>1216.0</ele><time>2026-03-28T09:18:59Z</time></trkpt><trkpt lat="44.476306230933794" lon="10.174439837895372"><ele>1213.0</ele><time>2026-03-28T09:19:00Z</time></trkpt><trkpt lat="44.476306419100354" lon="10.174334018475275"><ele>1213.0</ele><time>2026-03-28T09:19:01Z</time></trkpt><trkpt lat="44.476261941425726" lon="10.174221317875475"><ele>1213.0</ele><time>2026-03-28T09:19:02Z</time></trkpt><trkpt lat="44.47619755248202" lon="10.174133601176454"><ele>1213.0</ele><time>2026-03-28T09:19:03Z</time></trkpt><trkpt lat="44.476104939755494" lon="10.174094703466748"><ele>1213.0</ele><time>2026-03-28T09:19:04Z</time></trkpt><trkpt lat="44.47599904763243" lon="10.174047966915616"><ele>1213.0</ele><time>2026-03-28T09:19:05Z</time></trkpt><trkpt lat="44.47587568631728" lon="10.174022140351397"><ele>1212.4</ele><time>2026-03-28T09:19:06Z</time></trkpt><trkpt lat="44.47576620630265" lon="10.174010209106266"><ele>1211.8</ele><time>2026-03-28T09:19:07Z</time></trkpt><trkpt lat="44.47565855038921" lon="10.174019615614498"><ele>1211.2</ele><time>2026-03-28T09:19:07.999Z</time></trkpt><trkpt lat="44.47555978935943" lon="10.174000414581549"><ele>1210.6</ele><time>2026-03-28T09:19:08.999Z</time></trkpt><trkpt lat="44.47546598983548" lon="10.173969384417822"><ele>1210.0</ele><time>2026-03-28T09:19:09.999Z</time></trkpt><trkpt lat="44.47537723943757" lon="10.173950879913377"><ele>1210.0</ele><time>2026-03-28T09:19:10.999Z</time></trkpt><trkpt lat="44.475303499201345" lon="10.17392943625183"><ele>1210.0</ele><time>2026-03-28T09:19:11.999Z</time></trkpt><trkpt lat="44.47522205541066" lon="10.173927807545212"><ele>1210.0</ele><time>2026-03-28T09:19:12.999Z</time></trkpt><trkpt lat="44.47514885858256" lon="10.173892025402584"><ele>1210.0</ele><time>2026-03-28T09:19:13.999Z</time></trkpt><trkpt lat="44.475064973327044" lon="10.173867672087413"><ele>1210.0</ele><time>2026-03-28T09:19:14.999Z</time></trkpt><trkpt lat="44.47499041002522" lon="10.173816556946754"><ele>1210.0</ele><time>2026-03-28T09:19:15.999Z</time></trkpt><trkpt lat="44.474904995586684" lon="10.173768881616223"><ele>1210.0</ele><time>2026-03-28T09:19:16.999Z</time></trkpt><trkpt lat="44.47481518851307" lon="10.17369831820383"><ele>1210.0</ele><time>2026-03-28T09:19:17.999Z</time></trkpt><trkpt lat="44.474734859569054" lon="10.173615906828688"><ele>1210.0</ele><time>2026-03-28T09:19:18.999Z</time></trkpt><trkpt lat="44.47467965576015" lon="10.173516528520556"><ele>1210.0</ele><time>2026-03-28T09:19:19.999Z</time></trkpt><trkpt lat="44.47464389200028" lon="10.17339022797568"><ele>1210.0</ele><time>2026-03-28T09:19:20.999Z</time></trkpt><trkpt lat="44.47465153652447" lon="10.173263714955372"><ele>1210.0</ele><time>2026-03-28T09:19:21.999Z</time></trkpt><trkpt lat="44.47467963572393" lon="10.173138233104707"><ele>1210.0</ele><time>2026-03-28T09:19:22.999Z</time></trkpt><trkpt lat="44.474703896001316" lon="10.173009612109379"><ele>1210.0</ele><time>2026-03-28T09:19:23.999Z</time></trkpt><trkpt lat="44.47473820719209" lon="10.172899599029138"><ele>1210.0</ele><time>2026-03-28T09:19:24.999Z</time></trkpt><trkpt lat="44.47473888951373" lon="10.172804922464637"><ele>1210.0</ele><time>2026-03-28T09:19:25.999Z</time></trkpt><trkpt lat="44.47475664641984" lon="10.17271947727059"><ele>1210.0</ele><time>2026-03-28T09:19:35.999Z</time></trkpt><trkpt lat="44.474739837005146" lon="10.172633651908681"><ele>1210.0</ele><time>2026-03-28T09:21:29.999Z</time></trkpt><trkpt lat="44.474659988688394" lon="10.172508278631474"><ele>1210.0</ele><time>2026-03-28T09:25:52.999Z</time></trkpt><trkpt lat="44.474599848039524" lon="10.172352272651958"><ele>1210.0</ele><time>2026-03-28T09:25:54.999Z</time></trkpt><trkpt lat="44.47454538508597" lon="10.172217020488485"><ele>1210.0</ele><time>2026-03-28T09:25:56.999Z</time></trkpt><trkpt lat="44.474494766708574" lon="10.172090116674154"><ele>1210.0</ele><time>2026-03-28T09:25:58.999Z</time></trkpt><trkpt lat="44.474451011131514" lon="10.17197933933303"><ele>1210.0</ele><time>2026-03-28T09:25:59.999Z</time></trkpt><trkpt lat="44.47440849164331" lon="10.171877140999735"><ele>1210.0</ele><time>2026-03-28T09:26:00.999Z</time></trkpt><trkpt lat="44.474367180324855" lon="10.171738941143078"><ele>1210.0</ele><time>2026-03-28T09:26:01.999Z</time></trkpt><trkpt lat="44.474317344118866" lon="10.171620342252941"><ele>1210.0</ele><time>2026-03-28T09:26:02.999Z</time></trkpt><trkpt lat="44.47428261681558" lon="10.171492306835546"><ele>1209.8333333333333</ele><time>2026-03-28T09:26:03.999Z</time></trkpt><trkpt lat="44.47424962546487" lon="10.171371882817404"><ele>1209.6666666666665</ele><time>2026-03-28T09:26:04.999Z</time></trkpt><trkpt lat="44.47422640077339" lon="10.17127865421886"><ele>1209.5</ele><time>2026-03-28T09:26:05.999Z</time></trkpt><trkpt lat="44.47419931945935" lon="10.171183366789373"><ele>1209.3333333333333</ele><time>2026-03-28T09:26:06.999Z</time></trkpt><trkpt lat="44.47417434145866" lon="10.171088143731296"><ele>1209.1666666666667</ele><time>2026-03-28T09:26:07.999Z</time></trkpt><trkpt lat="44.474155716356215" lon="10.170995014141393"><ele>1209.0</ele><time>2026-03-28T09:26:08.999Z</time></trkpt><trkpt lat="44.47412235630877" lon="10.17084784993018"><ele>1209.0</ele><time>2026-03-28T09:26:10.999Z</time></trkpt><trkpt lat="44.47409421851693" lon="10.170756333486965"><ele>1209.0</ele><time>2026-03-28T09:26:11.999Z</time></trkpt><trkpt lat="44.474071517177634" lon="10.17066200060021"><ele>1209.0</ele><time>2026-03-28T09:26:12.999Z</time></trkpt><trkpt lat="44.47404675520611" lon="10.170543333716772"><ele>1209.0</ele><time>2026-03-28T09:26:14.999Z</time></trkpt><trkpt lat="44.47401045442474" lon="10.170462920465436"><ele>1209.0</ele><time>2026-03-28T09:26:17Z</time></trkpt><trkpt lat="44.47400254250143" lon="10.170366846045626"><ele>1209.0</ele><time>2026-03-28T09:26:20Z</time></trkpt><trkpt lat="44.47395987356306" lon="10.170150876778552"><ele>1208.4</ele><time>2026-03-28T09:26:22Z</time></trkpt><trkpt lat="44.47393688274271" lon="10.170017659104921"><ele>1207.8000000000002</ele><time>2026-03-28T09:26:23Z</time></trkpt><trkpt lat="44.47391149579099" lon="10.169886873213487"><ele>1207.1999999999998</ele><time>2026-03-28T09:26:24Z</time></trkpt><trkpt lat="44.473897703981706" lon="10.169744472778367"><ele>1206.6</ele><time>2026-03-28T09:26:25Z</time></trkpt><trkpt lat="44.473913082158475" lon="10.16959659993702"><ele>1206.0</ele><time>2026-03-28T09:26:26Z</time></trkpt><trkpt lat="44.47395847204972" lon="10.169450794321525"><ele>1206.0</ele><time>2026-03-28T09:26:27Z</time></trkpt><trkpt lat="44.47402994381826" lon="10.16929540371636"><ele>1206.0</ele><time>2026-03-28T09:26:28Z</time></trkpt><trkpt lat="44.47415332634291" lon="10.169142847172157"><ele>1206.0</ele><time>2026-03-28T09:26:29Z</time></trkpt><trkpt lat="44.4742979854324" lon="10.168986607637365"><ele>1208.3333333333333</ele><time>2026-03-28T09:26:30Z</time></trkpt><trkpt lat="44.47442870610946" lon="10.168825491075493"><ele>1210.6666666666665</ele><time>2026-03-28T09:26:31Z</time></trkpt><trkpt lat="44.474539112831465" lon="10.168677294746816"><ele>1213.0</ele><time>2026-03-28T09:26:32Z</time></trkpt><trkpt lat="44.47462724247593" lon="10.16853223774785"><ele>1208.75</ele><time>2026-03-28T09:26:33Z</time></trkpt><trkpt lat="44.474718687587625" lon="10.168394988685325"><ele>1204.5</ele><time>2026-03-28T09:26:34Z</time></trkpt><trkpt lat="44.47480036540775" lon="10.168252471377038"><ele>1200.25</ele><time>2026-03-28T09:26:35Z</time></trkpt><trkpt lat="44.47489580224952" lon="10.168112611094053"><ele>1196.0</ele><time>2026-03-28T09:26:36Z</time></trkpt><trkpt lat="44.47499205648469" lon="10.167980644001837"><ele>1196.0</ele><time>2026-03-28T09:26:37Z</time></trkpt><trkpt lat="44.47509303015493" lon="10.167839290717222"><ele>1196.0</ele><time>2026-03-28T09:26:38Z</time></trkpt><trkpt lat="44.47520207453191" lon="10.167700657435356"><ele>1196.0</ele><time>2026-03-28T09:26:39Z</time></trkpt><trkpt lat="44.47531339125033" lon="10.167567468822915"><ele>1196.0</ele><time>2026-03-28T09:26:40Z</time></trkpt><trkpt lat="44.47544194458927" lon="10.16745619090105"><ele>1195.25</ele><time>2026-03-28T09:26:41Z</time></trkpt><trkpt lat="44.47557935831462" lon="10.16736281049014"><ele>1194.5</ele><time>2026-03-28T09:26:42Z</time></trkpt><trkpt lat="44.475717408357745" lon="10.167287213635289"><ele>1193.75</ele><time>2026-03-28T09:26:43Z</time></trkpt><trkpt lat="44.47585976455826" lon="10.16723260059257"><ele>1193.0</ele><time>2026-03-28T09:26:44Z</time></trkpt><trkpt lat="44.47600478657875" lon="10.167182871986968"><ele>1193.0</ele><time>2026-03-28T09:26:45Z</time></trkpt><trkpt lat="44.476149013883635" lon="10.16714158408303"><ele>1193.0</ele><time>2026-03-28T09:26:46Z</time></trkpt><trkpt lat="44.47630669233041" lon="10.167098756950933"><ele>1193.0</ele><time>2026-03-28T09:26:47Z</time></trkpt><trkpt lat="44.47646405432996" lon="10.167061978774997"><ele>1191.0</ele><time>2026-03-28T09:26:48Z</time></trkpt><trkpt lat="44.476626197953344" lon="10.167044151743484"><ele>1189.0</ele><time>2026-03-28T09:26:49Z</time></trkpt><trkpt lat="44.47678796793779" lon="10.167058853822995"><ele>1187.0</ele><time>2026-03-28T09:26:50Z</time></trkpt><trkpt lat="44.47693292172188" lon="10.167105509475721"><ele>1187.0</ele><time>2026-03-28T09:26:51Z</time></trkpt><trkpt lat="44.477000266338536" lon="10.1671154013622"><ele>1187.0</ele><time>2026-03-28T09:26:52Z</time></trkpt><trkpt lat="44.47706406616102" lon="10.16712743028146"><ele>1187.0</ele><time>2026-03-28T09:26:53Z</time></trkpt><trkpt lat="44.47713525787833" lon="10.167015287563242"><ele>1187.0</ele><time>2026-03-28T09:26:55Z</time></trkpt><trkpt lat="44.477124668525036" lon="10.166878699914538"><ele>1187.0</ele><time>2026-03-28T09:26:56Z</time></trkpt><trkpt lat="44.477079358405305" lon="10.166737855058965"><ele>1187.0</ele><time>2026-03-28T09:26:57Z</time></trkpt><trkpt lat="44.477030040918" lon="10.16655806868683"><ele>1190.0</ele><time>2026-03-28T09:26:58Z</time></trkpt><trkpt lat="44.47696823901661" lon="10.166358475807098"><ele>1193.0</ele><time>2026-03-28T09:26:59Z</time></trkpt><trkpt lat="44.47690441132895" lon="10.166156060358068"><ele>1196.0</ele><time>2026-03-28T09:27:00Z</time></trkpt><trkpt lat="44.47684905047185" lon="10.165970765082308"><ele>1196.0</ele><time>2026-03-28T09:27:01Z</time></trkpt><trkpt lat="44.476820747617744" lon="10.165814629691212"><ele>1196.0</ele><time>2026-03-28T09:27:02Z</time></trkpt><trkpt lat="44.47678611635011" lon="10.16566397895512"><ele>1196.0</ele><time>2026-03-28T09:27:03Z</time></trkpt><trkpt lat="44.476765838501976" lon="10.16551447227812"><ele>1196.0</ele><time>2026-03-28T09:27:04Z</time></trkpt><trkpt lat="44.476780203106095" lon="10.165338820437535"><ele>1199.6666666666667</ele><time>2026-03-28T09:27:05Z</time></trkpt><trkpt lat="44.47683045123978" lon="10.16513860964753"><ele>1203.3333333333333</ele><time>2026-03-28T09:27:06Z</time></trkpt><trkpt lat="44.47692651971863" lon="10.164942194407807"><ele>1207.0</ele><time>2026-03-28T09:27:07Z</time></trkpt><trkpt lat="44.47703978199888" lon="10.16476529327832"><ele>1208.5</ele><time>2026-03-28T09:27:08Z</time></trkpt><trkpt lat="44.477140877101284" lon="10.164618379282869"><ele>1210.0</ele><time>2026-03-28T09:27:09Z</time></trkpt><trkpt lat="44.47722958377645" lon="10.1644852785309"><ele>1211.5</ele><time>2026-03-28T09:27:10Z</time></trkpt><trkpt lat="44.47729873953765" lon="10.16437191680978"><ele>1213.0</ele><time>2026-03-28T09:27:11Z</time></trkpt><trkpt lat="44.477336256372" lon="10.164264604857404"><ele>1213.0</ele><time>2026-03-28T09:27:12Z</time></trkpt><trkpt lat="44.47731646834748" lon="10.164144669365555"><ele>1213.0</ele><time>2026-03-28T09:27:13Z</time></trkpt><trkpt lat="44.47729568432385" lon="10.164043940823438"><ele>1213.0</ele><time>2026-03-28T09:27:14Z</time></trkpt><trkpt lat="44.47720245210637" lon="10.163976730362652"><ele>1213.0</ele><time>2026-03-28T09:27:15Z</time></trkpt><trkpt lat="44.47712045876819" lon="10.163992311191667"><ele>1213.0</ele><time>2026-03-28T09:27:16Z</time></trkpt><trkpt lat="44.47704338701492" lon="10.164117525047585"><ele>1214.2</ele><time>2026-03-28T09:27:17Z</time></trkpt><trkpt lat="44.47695156135058" lon="10.164245594243082"><ele>1215.4</ele><time>2026-03-28T09:27:18Z</time></trkpt><trkpt lat="44.476843750854705" lon="10.164317009992413"><ele>1216.6000000000001</ele><time>2026-03-28T09:27:19Z</time></trkpt><trkpt lat="44.47675605985066" lon="10.164309812408721"><ele>1217.8</ele><time>2026-03-28T09:27:20Z</time></trkpt><trkpt lat="44.47665738633431" lon="10.16426266341295"><ele>1219.0</ele><time>2026-03-28T09:27:21Z</time></trkpt><trkpt lat="44.47655751548958" lon="10.164215760956303"><ele>1219.0</ele><time>2026-03-28T09:27:22Z</time></trkpt><trkpt lat="44.476471860339146" lon="10.164162737677234"><ele>1219.0</ele><time>2026-03-28T09:27:23Z</time></trkpt><trkpt lat="44.47639346825807" lon="10.164098089332663"><ele>1219.0</ele><time>2026-03-28T09:27:24Z</time></trkpt><trkpt lat="44.47634732760465" lon="10.164013445628564"><ele>1219.0</ele><time>2026-03-28T09:27:28Z</time></trkpt><trkpt lat="44.4763212470166" lon="10.163900520485535"><ele>1219.0</ele><time>2026-03-28T09:27:31Z</time></trkpt><trkpt lat="44.47632913360629" lon="10.163803362944007"><ele>1219.0</ele><time>2026-03-28T09:27:31.999Z</time></trkpt><trkpt lat="44.47637404208204" lon="10.163714874702913"><ele>1220.8</ele><time>2026-03-28T09:27:32.999Z</time></trkpt><trkpt lat="44.476427089113116" lon="10.16362998492876"><ele>1222.6000000000001</ele><time>2026-03-28T09:27:33.999Z</time></trkpt><trkpt lat="44.476521172157994" lon="10.16357502773299"><ele>1224.4</ele><time>2026-03-28T09:27:34.999Z</time></trkpt><trkpt lat="44.47663489539771" lon="10.163552105555748"><ele>1226.2</ele><time>2026-03-28T09:27:35.999Z</time></trkpt><trkpt lat="44.4767601876745" lon="10.16351970965697"><ele>1228.0</ele><time>2026-03-28T09:27:36.999Z</time></trkpt><trkpt lat="44.47685281559842" lon="10.163459012772107"><ele>1228.0</ele><time>2026-03-28T09:27:37.999Z</time></trkpt><trkpt lat="44.476943490343864" lon="10.163375828838271"><ele>1228.0</ele><time>2026-03-28T09:27:38.999Z</time></trkpt><trkpt lat="44.47700649185507" lon="10.163247131838283"><ele>1228.0</ele><time>2026-03-28T09:27:39.999Z</time></trkpt><trkpt lat="44.47705226417675" lon="10.163082942893059"><ele>1228.0</ele><time>2026-03-28T09:27:40.999Z</time></trkpt><trkpt lat="44.47705683968171" lon="10.162884103418724"><ele>1231.5</ele><time>2026-03-28T09:27:41.999Z</time></trkpt><trkpt lat="44.47703896696636" lon="10.16268721514354"><ele>1235.0</ele><time>2026-03-28T09:27:42.999Z</time></trkpt><trkpt lat="44.47701305916916" lon="10.162524963102666"><ele>1238.5</ele><time>2026-03-28T09:27:43.999Z</time></trkpt><trkpt lat="44.477014842855695" lon="10.162395882888811"><ele>1242.0</ele><time>2026-03-28T09:27:44.999Z</time></trkpt><trkpt lat="44.47707655998576" lon="10.162257124387214"><ele>1245.0</ele><time>2026-03-28T09:27:45.999Z</time></trkpt><trkpt lat="44.47715211077762" lon="10.162156536734852"><ele>1248.0</ele><time>2026-03-28T09:27:46.999Z</time></trkpt><trkpt lat="44.477262544648426" lon="10.162147071966249"><ele>1251.0</ele><time>2026-03-28T09:27:47.999Z</time></trkpt><trkpt lat="44.477381790914215" lon="10.162203046395959"><ele>1254.0</ele><time>2026-03-28T09:27:48.999Z</time></trkpt><trkpt lat="44.4774988683921" lon="10.162255784830185"><ele>1254.0</ele><time>2026-03-28T09:27:49.999Z</time></trkpt><trkpt lat="44.477628388115185" lon="10.16235270266787"><ele>1254.0</ele><time>2026-03-28T09:27:50.999Z</time></trkpt><trkpt lat="44.47773856299133" lon="10.16242170395689"><ele>1254.0</ele><time>2026-03-28T09:27:51.999Z</time></trkpt><trkpt lat="44.477872488418775" lon="10.162429723592558"><ele>1254.0</ele><time>2026-03-28T09:27:52.999Z</time></trkpt><trkpt lat="44.47800120175592" lon="10.162422047510784"><ele>1254.75</ele><time>2026-03-28T09:27:53.999Z</time></trkpt><trkpt lat="44.47812479373473" lon="10.162392202665217"><ele>1255.5</ele><time>2026-03-28T09:27:54.999Z</time></trkpt><trkpt lat="44.478256220666715" lon="10.162353560872548"><ele>1256.25</ele><time>2026-03-28T09:27:55.999Z</time></trkpt><trkpt lat="44.47838409887789" lon="10.162318197619982"><ele>1257.0</ele><time>2026-03-28T09:27:56.999Z</time></trkpt><trkpt lat="44.47851116749285" lon="10.16228335002485"><ele>1257.0</ele><time>2026-03-28T09:27:57.999Z</time></trkpt><trkpt lat="44.47862846201029" lon="10.162264620754845"><ele>1257.0</ele><time>2026-03-28T09:27:58.999Z</time></trkpt><trkpt lat="44.47873144721168" lon="10.162263235255038"><ele>1257.0</ele><time>2026-03-28T09:27:59.999Z</time></trkpt><trkpt lat="44.47884251404153" lon="10.162304331337754"><ele>1257.0</ele><time>2026-03-28T09:28:00.999Z</time></trkpt><trkpt lat="44.47894841024085" lon="10.16237792750731"><ele>1255.75</ele><time>2026-03-28T09:28:01.999Z</time></trkpt><trkpt lat="44.47904942962072" lon="10.16243902317888"><ele>1254.5</ele><time>2026-03-28T09:28:02.999Z</time></trkpt><trkpt lat="44.4791676754629" lon="10.162489318790765"><ele>1253.25</ele><time>2026-03-28T09:28:03.999Z</time></trkpt><trkpt lat="44.47927078637203" lon="10.162509484355255"><ele>1252.0</ele><time>2026-03-28T09:28:04.999Z</time></trkpt><trkpt lat="44.479385739897396" lon="10.162522558506005"><ele>1252.0</ele><time>2026-03-28T09:28:05.999Z</time></trkpt><trkpt lat="44.479510291878974" lon="10.162506115148227"><ele>1252.0</ele><time>2026-03-28T09:28:06.999Z</time></trkpt><trkpt lat="44.479626318654354" lon="10.16247398657497"><ele>1252.0</ele><time>2026-03-28T09:28:07.999Z</time></trkpt><trkpt lat="44.479738722940354" lon="10.162445161958718"><ele>1252.0</ele><time>2026-03-28T09:28:08.999Z</time></trkpt><trkpt lat="44.47985026469204" lon="10.1624132592683"><ele>1253.5</ele><time>2026-03-28T09:28:09.999Z</time></trkpt><trkpt lat="44.47995588118881" lon="10.162366077530606"><ele>1255.0</ele><time>2026-03-28T09:28:10.999Z</time></trkpt><trkpt lat="44.48006001167912" lon="10.162311561579056"><ele>1256.5</ele><time>2026-03-28T09:28:11.999Z</time></trkpt><trkpt lat="44.48017665886106" lon="10.162275014015787"><ele>1258.0</ele><time>2026-03-28T09:28:12.999Z</time></trkpt><trkpt lat="44.48029623846903" lon="10.162293300818547"><ele>1262.25</ele><time>2026-03-28T09:28:13.999Z</time></trkpt><trkpt lat="44.48041161903653" lon="10.162361000052925"><ele>1266.5</ele><time>2026-03-28T09:28:14.999Z</time></trkpt><trkpt lat="44.48052104223285" lon="10.16247997528668"><ele>1270.75</ele><time>2026-03-28T09:28:15.999Z</time></trkpt><trkpt lat="44.480596945790026" lon="10.162643888507011"><ele>1275.0</ele><time>2026-03-28T09:28:16.999Z</time></trkpt><trkpt lat="44.4806708700764" lon="10.162798430227161"><ele>1275.6</ele><time>2026-03-28T09:28:17.999Z</time></trkpt><trkpt lat="44.48074055489416" lon="10.162938057028084"><ele>1276.2</ele><time>2026-03-28T09:28:18.999Z</time></trkpt><trkpt lat="44.48081622485485" lon="10.163057657106243"><ele>1276.8</ele><time>2026-03-28T09:28:19.999Z</time></trkpt><trkpt lat="44.48087527323962" lon="10.163147616651095"><ele>1277.4</ele><time>2026-03-28T09:28:20.999Z</time></trkpt><trkpt lat="44.480926924263606" lon="10.163214996181352"><ele>1278.0</ele><time>2026-03-28T09:28:21.999Z</time></trkpt><trkpt lat="44.48097560065464" lon="10.163275926035263"><ele>1277.2</ele><time>2026-03-28T09:28:24Z</time></trkpt><trkpt lat="44.48105319372992" lon="10.16333161192723"><ele>1276.4</ele><time>2026-03-28T09:28:34Z</time></trkpt><trkpt lat="44.48112428865078" lon="10.163383130022273"><ele>1275.6000000000001</ele><time>2026-03-28T09:28:35Z</time></trkpt><trkpt lat="44.481217701421876" lon="10.163438680436448"><ele>1274.8</ele><time>2026-03-28T09:28:36Z</time></trkpt><trkpt lat="44.48132410065619" lon="10.163489427682409"><ele>1274.0</ele><time>2026-03-28T09:28:37Z</time></trkpt><trkpt lat="44.481449153457895" lon="10.163544946802931"><ele>1274.0</ele><time>2026-03-28T09:28:38Z</time></trkpt><trkpt lat="44.48155006361685" lon="10.163634250231501"><ele>1274.0</ele><time>2026-03-28T09:28:39Z</time></trkpt><trkpt lat="44.481635989554285" lon="10.163807249555777"><ele>1274.0</ele><time>2026-03-28T09:28:40Z</time></trkpt><trkpt lat="44.48171912939205" lon="10.163988091152328"><ele>1274.0</ele><time>2026-03-28T09:28:41Z</time></trkpt><trkpt lat="44.481801389277706" lon="10.164165588916207"><ele>1274.2</ele><time>2026-03-28T09:28:42Z</time></trkpt><trkpt lat="44.481864747657745" lon="10.16431070555669"><ele>1274.4</ele><time>2026-03-28T09:28:43Z</time></trkpt><trkpt lat="44.48193235905128" lon="10.164426445867804"><ele>1274.6</ele><time>2026-03-28T09:28:44Z</time></trkpt><trkpt lat="44.48200439569669" lon="10.164501411687574"><ele>1274.8</ele><time>2026-03-28T09:28:45Z</time></trkpt><trkpt lat="44.48206381793277" lon="10.1645377073758"><ele>1275.0</ele><time>2026-03-28T09:28:46Z</time></trkpt><trkpt lat="44.48213149726499" lon="10.164539990656023"><ele>1275.0</ele><time>2026-03-28T09:28:47Z</time></trkpt><trkpt lat="44.48220616993589" lon="10.16451287160995"><ele>1275.0</ele><time>2026-03-28T09:28:48Z</time></trkpt><trkpt lat="44.482273803971204" lon="10.164473059524227"><ele>1275.0</ele><time>2026-03-28T09:28:49Z</time></trkpt><trkpt lat="44.48236982845709" lon="10.164394620613193"><ele>1275.0</ele><time>2026-03-28T09:28:51Z</time></trkpt><trkpt lat="44.48243552017322" lon="10.16434690244118"><ele>1275.0</ele><time>2026-03-28T09:28:53Z</time></trkpt><trkpt lat="44.48229459071994" lon="10.163835679817424"><ele>1277.4</ele><time>2026-03-28T09:29:33.999Z</time></trkpt><trkpt lat="44.48230840888563" lon="10.163691081650345"><ele>1279.8</ele><time>2026-03-28T09:29:35.999Z</time></trkpt><trkpt lat="44.48233379857589" lon="10.16358805064981"><ele>1282.1999999999998</ele><time>2026-03-28T09:29:38.999Z</time></trkpt><trkpt lat="44.48237421434804" lon="10.163448028285321"><ele>1284.6</ele><time>2026-03-28T09:29:41.999Z</time></trkpt><trkpt lat="44.48244037014467" lon="10.163299467201833"><ele>1287.0</ele><time>2026-03-28T09:29:43.999Z</time></trkpt><trkpt lat="44.482465224837625" lon="10.16319332991773"><ele>1288.3333333333333</ele><time>2026-03-28T09:29:44.999Z</time></trkpt><trkpt lat="44.4825133685085" lon="10.163083078096406"><ele>1289.6666666666667</ele><time>2026-03-28T09:29:45.999Z</time></trkpt><trkpt lat="44.48254472395482" lon="10.162977337803788"><ele>1291.0</ele><time>2026-03-28T09:29:46.999Z</time></trkpt><trkpt lat="44.48256249888863" lon="10.162850741402703"><ele>1292.3333333333335</ele><time>2026-03-28T09:29:47.999Z</time></trkpt><trkpt lat="44.482570988275114" lon="10.162737947820386"><ele>1293.6666666666667</ele><time>2026-03-28T09:29:48.999Z</time></trkpt><trkpt lat="44.48256272439558" lon="10.16261797947159"><ele>1295.0</ele><time>2026-03-28T09:29:49.999Z</time></trkpt><trkpt lat="44.48253429580524" lon="10.162489962499171"><ele>1295.0</ele><time>2026-03-28T09:29:50.999Z</time></trkpt><trkpt lat="44.48249688089798" lon="10.162379615853101"><ele>1295.0</ele><time>2026-03-28T09:29:51.999Z</time></trkpt><trkpt lat="44.482463255616864" lon="10.162256685781822"><ele>1295.0</ele><time>2026-03-28T09:29:52.999Z</time></trkpt><trkpt lat="44.482421321568424" lon="10.162150960797028"><ele>1295.0</ele><time>2026-03-28T09:29:53.999Z</time></trkpt><trkpt lat="44.48237574272161" lon="10.162041478725104"><ele>1295.0</ele><time>2026-03-28T09:29:54.999Z</time></trkpt><trkpt lat="44.48234355485561" lon="10.161935715898338"><ele>1295.0</ele><time>2026-03-28T09:29:55.999Z</time></trkpt><trkpt lat="44.48230142384982" lon="10.161832828008972"><ele>1296.1666666666667</ele><time>2026-03-28T09:29:56.999Z</time></trkpt><trkpt lat="44.48227377053711" lon="10.161749563031583"><ele>1297.3333333333335</ele><time>2026-03-28T09:29:57.999Z</time></trkpt><trkpt lat="44.48224154543977" lon="10.16164933398466"><ele>1298.5</ele><time>2026-03-28T09:29:58.999Z</time></trkpt><trkpt lat="44.48218300844231" lon="10.16149204176891"><ele>1299.6666666666667</ele><time>2026-03-28T09:30:00.999Z</time></trkpt><trkpt lat="44.48210770123517" lon="10.161466314438185"><ele>1300.8333333333333</ele><time>2026-03-28T09:30:01.999Z</time></trkpt><trkpt lat="44.48203573104183" lon="10.161437402861024"><ele>1302.0</ele><time>2026-03-28T09:30:02.999Z</time></trkpt><trkpt lat="44.48194913350148" lon="10.16143422241977"><ele>1302.0</ele><time>2026-03-28T09:30:03.999Z</time></trkpt><trkpt lat="44.48185956772767" lon="10.16145706010539"><ele>1302.0</ele><time>2026-03-28T09:30:04.999Z</time></trkpt><trkpt lat="44.48176450051866" lon="10.161476042594808"><ele>1302.0</ele><time>2026-03-28T09:30:05.999Z</time></trkpt><trkpt lat="44.48167192525109" lon="10.16148844678662"><ele>1302.0</ele><time>2026-03-28T09:30:06.999Z</time></trkpt><trkpt lat="44.48159152019465" lon="10.161494573809861"><ele>1302.0</ele><time>2026-03-28T09:30:07.999Z</time></trkpt><trkpt lat="44.48151744440133" lon="10.161506555356196"><ele>1302.0</ele><time>2026-03-28T09:30:08.999Z</time></trkpt><trkpt lat="44.481402115688645" lon="10.161504546051145"><ele>1302.0</ele><time>2026-03-28T09:30:10.999Z</time></trkpt><trkpt lat="44.48133537151395" lon="10.16149126605963"><ele>1302.0</ele><time>2026-03-28T09:30:11.999Z</time></trkpt><trkpt lat="44.48126446431381" lon="10.161480431369247"><ele>1302.0</ele><time>2026-03-28T09:30:12.999Z</time></trkpt><trkpt lat="44.48119516083164" lon="10.161470078744157"><ele>1302.0</ele><time>2026-03-28T09:30:13.999Z</time></trkpt><trkpt lat="44.481118221029426" lon="10.161450929577416"><ele>1302.0</ele><time>2026-03-28T09:30:14.999Z</time></trkpt><trkpt lat="44.481039308399254" lon="10.161434895851736"><ele>1302.0</ele><time>2026-03-28T09:30:15.999Z</time></trkpt><trkpt lat="44.48095963080098" lon="10.16141341539009"><ele>1302.0</ele><time>2026-03-28T09:30:16.999Z</time></trkpt><trkpt lat="44.48088850644254" lon="10.16137491985282"><ele>1302.1666666666667</ele><time>2026-03-28T09:30:17.999Z</time></trkpt><trkpt lat="44.48082283537633" lon="10.161317869114688"><ele>1302.3333333333333</ele><time>2026-03-28T09:30:18.999Z</time></trkpt><trkpt lat="44.48075835822307" lon="10.161235694753088"><ele>1302.5</ele><time>2026-03-28T09:30:19.999Z</time></trkpt><trkpt lat="44.480716841946496" lon="10.161128858321526"><ele>1302.6666666666665</ele><time>2026-03-28T09:30:20.999Z</time></trkpt><trkpt lat="44.48068414938051" lon="10.161010754053212"><ele>1302.8333333333333</ele><time>2026-03-28T09:30:21.999Z</time></trkpt><trkpt lat="44.48067003933883" lon="10.160877193855903"><ele>1303.0</ele><time>2026-03-28T09:30:22.999Z</time></trkpt><trkpt lat="44.48064663614472" lon="10.160753222537839"><ele>1304.0</ele><time>2026-03-28T09:30:23.999Z</time></trkpt><trkpt lat="44.48060418713267" lon="10.16065731259588"><ele>1305.0</ele><time>2026-03-28T09:30:24.999Z</time></trkpt><trkpt lat="44.48055561226155" lon="10.160557187277691"><ele>1306.0</ele><time>2026-03-28T09:30:25.999Z</time></trkpt><trkpt lat="44.48050496290756" lon="10.16042083584149"><ele>1307.0</ele><time>2026-03-28T09:30:26.999Z</time></trkpt><trkpt lat="44.4804625149004" lon="10.160312077053845"><ele>1308.0</ele><time>2026-03-28T09:30:27.999Z</time></trkpt><trkpt lat="44.480404763376406" lon="10.160227327034585"><ele>1309.0</ele><time>2026-03-28T09:30:29Z</time></trkpt><trkpt lat="44.48035938988673" lon="10.16014796601438"><ele>1310.2</ele><time>2026-03-28T09:30:31Z</time></trkpt><trkpt lat="44.48028934786331" lon="10.160062251177534"><ele>1311.4</ele><time>2026-03-28T09:30:47Z</time></trkpt><trkpt lat="44.48023961625456" lon="10.159987147031266"><ele>1312.6</ele><time>2026-03-28T09:30:48Z</time></trkpt><trkpt lat="44.48017484481636" lon="10.159875557651944"><ele>1313.8</ele><time>2026-03-28T09:30:49Z</time></trkpt><trkpt lat="44.48011813867025" lon="10.159762282436192"><ele>1315.0</ele><time>2026-03-28T09:30:50Z</time></trkpt><trkpt lat="44.480056463664305" lon="10.159665462605501"><ele>1317.1666666666665</ele><time>2026-03-28T09:30:51Z</time></trkpt><trkpt lat="44.47999270826472" lon="10.159583778394994"><ele>1319.3333333333333</ele><time>2026-03-28T09:30:52Z</time></trkpt><trkpt lat="44.479933613151786" lon="10.15949899911898"><ele>1321.5</ele><time>2026-03-28T09:30:53Z</time></trkpt><trkpt lat="44.47986663146086" lon="10.15941250003997"><ele>1323.6666666666667</ele><time>2026-03-28T09:30:54Z</time></trkpt><trkpt lat="44.479797224727456" lon="10.159351654075927"><ele>1325.8333333333335</ele><time>2026-03-28T09:30:55Z</time></trkpt><trkpt lat="44.479723450473074" lon="10.159282296195109"><ele>1328.0</ele><time>2026-03-28T09:30:56Z</time></trkpt><trkpt lat="44.47965176344134" lon="10.159213431559486"><ele>1327.5</ele><time>2026-03-28T09:30:57Z</time></trkpt><trkpt lat="44.4795841540382" lon="10.15915961789266"><ele>1327.0</ele><time>2026-03-28T09:30:58Z</time></trkpt><trkpt lat="44.47950827619614" lon="10.159098635978241"><ele>1326.5</ele><time>2026-03-28T09:30:59Z</time></trkpt><trkpt lat="44.47945117914515" lon="10.159031997752434"><ele>1326.0</ele><time>2026-03-28T09:31:00Z</time></trkpt><trkpt lat="44.47937407855012" lon="10.158965514449665"><ele>1325.5</ele><time>2026-03-28T09:31:01Z</time></trkpt><trkpt lat="44.47929064083851" lon="10.158904612986609"><ele>1325.0</ele><time>2026-03-28T09:31:02Z</time></trkpt><trkpt lat="44.479206661975084" lon="10.158853057265773"><ele>1326.6666666666667</ele><time>2026-03-28T09:31:03Z</time></trkpt><trkpt lat="44.47912778009445" lon="10.15882617747622"><ele>1328.3333333333335</ele><time>2026-03-28T09:31:04Z</time></trkpt><trkpt lat="44.47904901675245" lon="10.158808887486353"><ele>1330.0</ele><time>2026-03-28T09:31:05Z</time></trkpt><trkpt lat="44.478966122537955" lon="10.158781634982418"><ele>1331.6666666666667</ele><time>2026-03-28T09:31:06Z</time></trkpt><trkpt lat="44.4788931462248" lon="10.158719904813275"><ele>1333.3333333333333</ele><time>2026-03-28T09:31:07Z</time></trkpt><trkpt lat="44.47880655682253" lon="10.158648521177287"><ele>1335.0</ele><time>2026-03-28T09:31:08Z</time></trkpt><trkpt lat="44.47874527412673" lon="10.15858186692693"><ele>1335.0</ele><time>2026-03-28T09:31:09Z</time></trkpt><trkpt lat="44.47867936344656" lon="10.158501673108944"><ele>1335.0</ele><time>2026-03-28T09:31:10Z</time></trkpt><trkpt lat="44.47861887781814" lon="10.158410847919829"><ele>1335.0</ele><time>2026-03-28T09:31:11Z</time></trkpt><trkpt lat="44.47856105466538" lon="10.158324260589934"><ele>1335.0</ele><time>2026-03-28T09:31:12Z</time></trkpt><trkpt lat="44.47851939005551" lon="10.158227966484597"><ele>1335.0</ele><time>2026-03-28T09:31:13Z</time></trkpt><trkpt lat="44.478484367032564" lon="10.158102900129014"><ele>1335.0</ele><time>2026-03-28T09:31:14Z</time></trkpt><trkpt lat="44.4784635451338" lon="10.157994768835145"><ele>1336.6666666666667</ele><time>2026-03-28T09:31:15Z</time></trkpt><trkpt lat="44.478463698559956" lon="10.157877591287088"><ele>1338.3333333333333</ele><time>2026-03-28T09:31:16Z</time></trkpt><trkpt lat="44.478457818141756" lon="10.157752638862686"><ele>1340.0</ele><time>2026-03-28T09:31:17Z</time></trkpt><trkpt lat="44.47845685386881" lon="10.157624415382584"><ele>1341.6666666666665</ele><time>2026-03-28T09:31:18Z</time></trkpt><trkpt lat="44.47846114479298" lon="10.157489371076219"><ele>1343.3333333333333</ele><time>2026-03-28T09:31:19Z</time></trkpt><trkpt lat="44.47846322954703" lon="10.157369175366219"><ele>1345.0</ele><time>2026-03-28T09:31:20Z</time></trkpt><trkpt lat="44.47844451806182" lon="10.157242193624164"><ele>1347.1666666666665</ele><time>2026-03-28T09:31:21Z</time></trkpt><trkpt lat="44.4784545595933" lon="10.157139166894478"><ele>1349.3333333333333</ele><time>2026-03-28T09:31:22Z</time></trkpt><trkpt lat="44.47845301501911" lon="10.15702293651289"><ele>1351.5</ele><time>2026-03-28T09:31:23Z</time></trkpt><trkpt lat="44.478448410590815" lon="10.156896392634238"><ele>1353.6666666666667</ele><time>2026-03-28T09:31:24Z</time></trkpt><trkpt lat="44.47845815206848" lon="10.156791672808188"><ele>1355.8333333333335</ele><time>2026-03-28T09:31:25Z</time></trkpt><trkpt lat="44.47843216852985" lon="10.156665614087524"><ele>1358.0</ele><time>2026-03-28T09:31:27Z</time></trkpt><trkpt lat="44.4783832374777" lon="10.156529256655071"><ele>1360.2</ele><time>2026-03-28T09:31:29Z</time></trkpt><trkpt lat="44.47830789908046" lon="10.15642735409279"><ele>1362.4</ele><time>2026-03-28T09:31:31Z</time></trkpt><trkpt lat="44.478245858990014" lon="10.15639165983316"><ele>1364.6000000000001</ele><time>2026-03-28T09:31:32Z</time></trkpt><trkpt lat="44.47811890570152" lon="10.15634529899371"><ele>1366.8000000000002</ele><time>2026-03-28T09:31:34Z</time></trkpt><trkpt lat="44.47800393801425" lon="10.156299325490384"><ele>1369.0</ele><time>2026-03-28T09:31:36Z</time></trkpt><trkpt lat="44.47793954834523" lon="10.156260127535456"><ele>1369.8000000000002</ele><time>2026-03-28T09:31:37Z</time></trkpt><trkpt lat="44.47782658374246" lon="10.15620806107252"><ele>1370.6000000000001</ele><time>2026-03-28T09:31:39Z</time></trkpt><trkpt lat="44.47769724022586" lon="10.156181874011297"><ele>1371.4</ele><time>2026-03-28T09:31:40.999Z</time></trkpt><trkpt lat="44.47762264043473" lon="10.156167046792824"><ele>1372.2</ele><time>2026-03-28T09:31:41.999Z</time></trkpt><trkpt lat="44.477544669333604" lon="10.156148983175692"><ele>1373.0</ele><time>2026-03-28T09:31:42.999Z</time></trkpt><trkpt lat="44.47740840110321" lon="10.156156588237424"><ele>1373.0</ele><time>2026-03-28T09:31:44.999Z</time></trkpt><trkpt lat="44.47733791094254" lon="10.156160708755841"><ele>1373.0</ele><time>2026-03-28T09:31:45.999Z</time></trkpt><trkpt lat="44.47722936066177" lon="10.156178856769149"><ele>1373.0</ele><time>2026-03-28T09:31:47.999Z</time></trkpt><trkpt lat="44.47716468453282" lon="10.156193091871879"><ele>1373.0</ele><time>2026-03-28T09:31:48.999Z</time></trkpt><trkpt lat="44.477092986956514" lon="10.15619653539697"><ele>1373.0</ele><time>2026-03-28T09:31:49.999Z</time></trkpt><trkpt lat="44.477025625531375" lon="10.156180660380175"><ele>1373.0</ele><time>2026-03-28T09:31:50.999Z</time></trkpt><trkpt lat="44.47695464765491" lon="10.156191533274546"><ele>1373.3333333333335</ele><time>2026-03-28T09:31:51.999Z</time></trkpt><trkpt lat="44.476890758625565" lon="10.156188733215552"><ele>1373.6666666666667</ele><time>2026-03-28T09:31:52.999Z</time></trkpt><trkpt lat="44.47681865300054" lon="10.156173451029794"><ele>1374.0</ele><time>2026-03-28T09:31:53.999Z</time></trkpt><trkpt lat="44.47667879560413" lon="10.156172188310157"><ele>1374.3333333333333</ele><time>2026-03-28T09:31:55.999Z</time></trkpt><trkpt lat="44.47660566156424" lon="10.15616851246897"><ele>1374.6666666666665</ele><time>2026-03-28T09:31:56.999Z</time></trkpt><trkpt lat="44.47653222983547" lon="10.156160829650224"><ele>1375.0</ele><time>2026-03-28T09:31:57.999Z</time></trkpt><trkpt lat="44.476463249211704" lon="10.156146889449857"><ele>1375.0</ele><time>2026-03-28T09:31:58.999Z</time></trkpt><trkpt lat="44.47633554634758" lon="10.156120587801981"><ele>1375.0</ele><time>2026-03-28T09:32:00.999Z</time></trkpt><trkpt lat="44.476262355742406" lon="10.156102100427509"><ele>1375.0</ele><time>2026-03-28T09:32:01.999Z</time></trkpt><trkpt lat="44.47619408566989" lon="10.156076351656349"><ele>1375.0</ele><time>2026-03-28T09:32:02.999Z</time></trkpt><trkpt lat="44.4761314115599" lon="10.156045368934704"><ele>1375.0</ele><time>2026-03-28T09:32:03.999Z</time></trkpt><trkpt lat="44.47606018074006" lon="10.156014749041443"><ele>1375.0</ele><time>2026-03-28T09:32:04.999Z</time></trkpt><trkpt lat="44.47595501461392" lon="10.155957051167192"><ele>1375.3333333333333</ele><time>2026-03-28T09:32:06.999Z</time></trkpt><trkpt lat="44.475897195073365" lon="10.15592153753759"><ele>1375.6666666666665</ele><time>2026-03-28T09:32:07.999Z</time></trkpt><trkpt lat="44.47581844576208" lon="10.155878191217694"><ele>1376.0</ele><time>2026-03-28T09:32:08.999Z</time></trkpt><trkpt lat="44.47575002668357" lon="10.155856071842166"><ele>1376.3333333333333</ele><time>2026-03-28T09:32:09.999Z</time></trkpt><trkpt lat="44.47562848278116" lon="10.15579906875881"><ele>1376.6666666666667</ele><time>2026-03-28T09:32:11.999Z</time></trkpt><trkpt lat="44.47556489149041" lon="10.155764488544522"><ele>1377.0</ele><time>2026-03-28T09:32:12.999Z</time></trkpt><trkpt lat="44.475503212489876" lon="10.155716633283696"><ele>1378.8333333333333</ele><time>2026-03-28T09:32:13.999Z</time></trkpt><trkpt lat="44.475438213705424" lon="10.155684173340124"><ele>1380.6666666666667</ele><time>2026-03-28T09:32:14.999Z</time></trkpt><trkpt lat="44.475330676876155" lon="10.155633678914317"><ele>1382.5</ele><time>2026-03-28T09:32:16.999Z</time></trkpt><trkpt lat="44.47526280451578" lon="10.155602722546963"><ele>1384.3333333333335</ele><time>2026-03-28T09:32:17.999Z</time></trkpt><trkpt lat="44.47519801275858" lon="10.15556846777766"><ele>1386.1666666666667</ele><time>2026-03-28T09:32:18.999Z</time></trkpt><trkpt lat="44.47513413636404" lon="10.155536098340148"><ele>1388.0</ele><time>2026-03-28T09:32:19.999Z</time></trkpt><trkpt lat="44.475019720793526" lon="10.155467779110024"><ele>1388.3333333333335</ele><time>2026-03-28T09:32:21.999Z</time></trkpt><trkpt lat="44.47494511943956" lon="10.155432779306972"><ele>1388.6666666666667</ele><time>2026-03-28T09:32:22.999Z</time></trkpt><trkpt lat="44.474880926442076" lon="10.15540342866503"><ele>1389.0</ele><time>2026-03-28T09:32:23.999Z</time></trkpt><trkpt lat="44.47476980661935" lon="10.155344939756128"><ele>1389.3333333333333</ele><time>2026-03-28T09:32:25.999Z</time></trkpt><trkpt lat="44.474696894047135" lon="10.155317015940618"><ele>1389.6666666666665</ele><time>2026-03-28T09:32:26.999Z</time></trkpt><trkpt lat="44.47463502948803" lon="10.15529652931407"><ele>1390.0</ele><time>2026-03-28T09:32:27.999Z</time></trkpt><trkpt lat="44.47456690602372" lon="10.155277638717694"><ele>1390.6666666666665</ele><time>2026-03-28T09:32:28.999Z</time></trkpt><trkpt lat="44.474495262727615" lon="10.155256898923808"><ele>1391.3333333333333</ele><time>2026-03-28T09:32:29.999Z</time></trkpt><trkpt lat="44.474375561456256" lon="10.155261671159924"><ele>1392.0</ele><time>2026-03-28T09:32:31.999Z</time></trkpt><trkpt lat="44.4743082876283" lon="10.155258065592271"><ele>1392.6666666666667</ele><time>2026-03-28T09:32:32.999Z</time></trkpt><trkpt lat="44.474234938113575" lon="10.15525834590515"><ele>1393.3333333333335</ele><time>2026-03-28T09:32:33.999Z</time></trkpt><trkpt lat="44.474150288565376" lon="10.155269621019189"><ele>1394.0</ele><time>2026-03-28T09:32:35Z</time></trkpt><trkpt lat="44.47402890725428" lon="10.155310932795285"><ele>1394.0</ele><time>2026-03-28T09:32:37Z</time></trkpt><trkpt lat="44.47396335244315" lon="10.155325110068754"><ele>1394.0</ele><time>2026-03-28T09:32:38Z</time></trkpt><trkpt lat="44.47384893412666" lon="10.15533372799535"><ele>1394.0</ele><time>2026-03-28T09:32:40Z</time></trkpt><trkpt lat="44.47372274355842" lon="10.155365985084359"><ele>1394.0</ele><time>2026-03-28T09:32:42Z</time></trkpt><trkpt lat="44.473654731529344" lon="10.155378425098313"><ele>1394.0</ele><time>2026-03-28T09:32:43Z</time></trkpt><trkpt lat="44.4735881807461" lon="10.155402201669196"><ele>1394.0</ele><time>2026-03-28T09:32:44Z</time></trkpt><trkpt lat="44.4734549793084" lon="10.155413302381412"><ele>1395.1666666666667</ele><time>2026-03-28T09:32:46Z</time></trkpt><trkpt lat="44.47338859495953" lon="10.155406975400691"><ele>1396.3333333333335</ele><time>2026-03-28T09:32:47Z</time></trkpt><trkpt lat="44.473324605482524" lon="10.155390455341296"><ele>1397.5</ele><time>2026-03-28T09:32:48Z</time></trkpt><trkpt lat="44.47325937612549" lon="10.15537412511735"><ele>1398.6666666666667</ele><time>2026-03-28T09:32:49Z</time></trkpt><trkpt lat="44.47314304047585" lon="10.155293575227574"><ele>1399.8333333333333</ele><time>2026-03-28T09:32:51Z</time></trkpt><trkpt lat="44.47304843108163" lon="10.155223264002354"><ele>1401.0</ele><time>2026-03-28T09:32:53Z</time></trkpt><trkpt lat="44.47295403490616" lon="10.155145847326322"><ele>1402.1999999999998</ele><time>2026-03-28T09:32:55Z</time></trkpt><trkpt lat="44.47286497841689" lon="10.155084177624294"><ele>1403.3999999999999</ele><time>2026-03-28T09:32:57Z</time></trkpt><trkpt lat="44.47277149719721" lon="10.155035098847025"><ele>1404.6</ele><time>2026-03-28T09:32:59Z</time></trkpt><trkpt lat="44.47266248998818" lon="10.155022073013871"><ele>1405.8</ele><time>2026-03-28T09:33:01Z</time></trkpt><trkpt lat="44.472554500729466" lon="10.155037738001043"><ele>1407.0</ele><time>2026-03-28T09:33:03Z</time></trkpt><trkpt lat="44.47245678022183" lon="10.155026679766912"><ele>1407.0</ele><time>2026-03-28T09:33:05Z</time></trkpt><trkpt lat="44.47239940436473" lon="10.1549716391188"><ele>1407.0</ele><time>2026-03-28T09:33:08Z</time></trkpt><trkpt lat="44.472310275196314" lon="10.154915696727839"><ele>1407.0</ele><time>2026-03-28T09:33:11Z</time></trkpt><trkpt lat="44.47225070038324" lon="10.154841495647116"><ele>1407.0</ele><time>2026-03-28T09:33:13Z</time></trkpt><trkpt lat="44.47218297202044" lon="10.154776940714418"><ele>1407.0</ele><time>2026-03-28T09:33:16Z</time></trkpt><trkpt lat="44.472112860044525" lon="10.154747111541608"><ele>1407.0</ele><time>2026-03-28T09:33:26Z</time></trkpt><trkpt lat="44.472038747460964" lon="10.154726543722358"><ele>1407.0</ele><time>2026-03-28T09:33:31Z</time></trkpt><trkpt lat="44.471969258895314" lon="10.154733287448972"><ele>1407.0</ele><time>2026-03-28T09:33:35Z</time></trkpt><trkpt lat="44.47203269843064" lon="10.154739854285328"><ele>1407.0</ele><time>2026-03-28T09:34:01.999Z</time></trkpt><trkpt lat="44.472103577943145" lon="10.154755744169048"><ele>1407.0</ele><time>2026-03-28T09:34:04.999Z</time></trkpt><trkpt lat="44.472165594961275" lon="10.15481211318751"><ele>1407.0</ele><time>2026-03-28T09:34:07.999Z</time></trkpt><trkpt lat="44.472240186211984" lon="10.154887724664542"><ele>1407.0</ele><time>2026-03-28T09:34:10.999Z</time></trkpt><trkpt lat="44.47230846473528" lon="10.154967217957878"><ele>1407.0</ele><time>2026-03-28T09:34:13.999Z</time></trkpt><trkpt lat="44.472383521596214" lon="10.155014577933024"><ele>1407.0</ele><time>2026-03-28T09:34:16.999Z</time></trkpt><trkpt lat="44.47245032547105" lon="10.155033660101852"><ele>1407.0</ele><time>2026-03-28T09:34:18.999Z</time></trkpt><trkpt lat="44.47251990876816" lon="10.15504285388657"><ele>1407.0</ele><time>2026-03-28T09:34:20.999Z</time></trkpt><trkpt lat="44.47261277508805" lon="10.15505865052217"><ele>1407.0</ele><time>2026-03-28T09:34:23.999Z</time></trkpt><trkpt lat="44.47270213197341" lon="10.15506577739255"><ele>1407.0</ele><time>2026-03-28T09:34:26.999Z</time></trkpt><trkpt lat="44.47276774646205" lon="10.155078504678583"><ele>1407.0</ele><time>2026-03-28T09:34:28.999Z</time></trkpt><trkpt lat="44.472840032801265" lon="10.155129436260584"><ele>1407.0</ele><time>2026-03-28T09:34:30.999Z</time></trkpt><trkpt lat="44.47291173275795" lon="10.155173124079766"><ele>1407.0</ele><time>2026-03-28T09:34:32.999Z</time></trkpt><trkpt lat="44.47297356424146" lon="10.155212675517037"><ele>1407.0</ele><time>2026-03-28T09:34:34.999Z</time></trkpt><trkpt lat="44.47303177862331" lon="10.155252870710632"><ele>1407.0</ele><time>2026-03-28T09:34:36.999Z</time></trkpt><trkpt lat="44.47309212864677" lon="10.155298242121452"><ele>1407.0</ele><time>2026-03-28T09:34:38.999Z</time></trkpt><trkpt lat="44.473180926493555" lon="10.15535201063363"><ele>1406.0</ele><time>2026-03-28T09:34:42Z</time></trkpt><trkpt lat="44.47327133491194" lon="10.155399603724566"><ele>1405.0</ele><time>2026-03-28T09:34:45Z</time></trkpt><trkpt lat="44.47334704881336" lon="10.155437346941342"><ele>1404.0</ele><time>2026-03-28T09:34:47Z</time></trkpt><trkpt lat="44.47342676320271" lon="10.155445053336127"><ele>1403.0</ele><time>2026-03-28T09:34:49Z</time></trkpt><trkpt lat="44.4734935950276" lon="10.15545795861708"><ele>1402.0</ele><time>2026-03-28T09:34:51Z</time></trkpt><trkpt lat="44.47356375780247" lon="10.155430236029623"><ele>1401.0</ele><time>2026-03-28T09:34:53Z</time></trkpt><trkpt lat="44.47363065661352" lon="10.155417258665121"><ele>1401.0</ele><time>2026-03-28T09:34:55Z</time></trkpt><trkpt lat="44.47370037275553" lon="10.155396308048855"><ele>1401.0</ele><time>2026-03-28T09:34:57Z</time></trkpt><trkpt lat="44.47378623081414" lon="10.155382389899811"><ele>1401.0</ele><time>2026-03-28T09:35:00Z</time></trkpt><trkpt lat="44.473862403706356" lon="10.155371453456082"><ele>1401.0</ele><time>2026-03-28T09:35:02Z</time></trkpt><trkpt lat="44.47393978740424" lon="10.155351492416624"><ele>1401.0</ele><time>2026-03-28T09:35:04Z</time></trkpt><trkpt lat="44.474017582148946" lon="10.155341838286047"><ele>1401.0</ele><time>2026-03-28T09:35:06Z</time></trkpt><trkpt lat="44.47407925581678" lon="10.155323254072314"><ele>1399.8333333333333</ele><time>2026-03-28T09:35:08Z</time></trkpt><trkpt lat="44.47415920868439" lon="10.155309405552803"><ele>1398.6666666666667</ele><time>2026-03-28T09:35:10Z</time></trkpt><trkpt lat="44.47423130856372" lon="10.155293574439668"><ele>1397.5</ele><time>2026-03-28T09:35:12Z</time></trkpt><trkpt lat="44.47431114687635" lon="10.15528752881563"><ele>1396.3333333333335</ele><time>2026-03-28T09:35:14Z</time></trkpt><trkpt lat="44.474381963090806" lon="10.155288703956344"><ele>1395.1666666666667</ele><time>2026-03-28T09:35:17Z</time></trkpt><trkpt lat="44.47445332877908" lon="10.155291289192643"><ele>1394.0</ele><time>2026-03-28T09:35:21Z</time></trkpt><trkpt lat="44.47452062704182" lon="10.155248230486515"><ele>1394.0</ele><time>2026-03-28T09:35:25Z</time></trkpt><trkpt lat="44.474560434867456" lon="10.155166411887052"><ele>1394.0</ele><time>2026-03-28T09:38:24.999Z</time></trkpt><trkpt lat="44.474582061686256" lon="10.15526675611023"><ele>1394.0</ele><time>2026-03-28T09:42:26Z</time></trkpt><trkpt lat="44.47463421154247" lon="10.155331855002816"><ele>1394.0</ele><time>2026-03-28T09:44:14Z</time></trkpt><trkpt lat="44.47472517411102" lon="10.15537266452523"><ele>1394.0</ele><time>2026-03-28T09:44:17Z</time></trkpt><trkpt lat="44.47482334818734" lon="10.155414808041092"><ele>1394.0</ele><time>2026-03-28T09:44:19Z</time></trkpt><trkpt lat="44.47492164841378" lon="10.155467181592247"><ele>1393.2</ele><time>2026-03-28T09:44:21Z</time></trkpt><trkpt lat="44.475022893521825" lon="10.155507115572172"><ele>1392.4</ele><time>2026-03-28T09:44:23Z</time></trkpt><trkpt lat="44.4751217599921" lon="10.155558593211225"><ele>1391.6</ele><time>2026-03-28T09:44:25Z</time></trkpt><trkpt lat="44.475210529052006" lon="10.1556004268137"><ele>1390.8</ele><time>2026-03-28T09:44:27Z</time></trkpt><trkpt lat="44.47528534696433" lon="10.15564480276615"><ele>1390.0</ele><time>2026-03-28T09:44:29Z</time></trkpt><trkpt lat="44.475371763017854" lon="10.155668815555542"><ele>1387.4</ele><time>2026-03-28T09:44:30.999Z</time></trkpt><trkpt lat="44.475430960636224" lon="10.155708780033049"><ele>1384.8</ele><time>2026-03-28T09:44:31.999Z</time></trkpt><trkpt lat="44.475537458879764" lon="10.155778503040606"><ele>1382.1999999999998</ele><time>2026-03-28T09:44:33.999Z</time></trkpt><trkpt lat="44.475641899086746" lon="10.155820595012942"><ele>1379.6</ele><time>2026-03-28T09:44:35.999Z</time></trkpt><trkpt lat="44.47573942852943" lon="10.155845743297952"><ele>1377.0</ele><time>2026-03-28T09:44:38.999Z</time></trkpt><trkpt lat="44.47579866549329" lon="10.15587792103368"><ele>1377.0</ele><time>2026-03-28T09:44:39.999Z</time></trkpt><trkpt lat="44.475858019481755" lon="10.155930075481"><ele>1377.0</ele><time>2026-03-28T09:44:40.999Z</time></trkpt><trkpt lat="44.475976645778566" lon="10.155975064519005"><ele>1377.0</ele><time>2026-03-28T09:44:42.999Z</time></trkpt><trkpt lat="44.47608104760722" lon="10.156039169533303"><ele>1377.0</ele><time>2026-03-28T09:44:44.999Z</time></trkpt><trkpt lat="44.47619958292183" lon="10.156096540339082"><ele>1377.0</ele><time>2026-03-28T09:44:46.999Z</time></trkpt><trkpt lat="44.476314565890114" lon="10.156135239044387"><ele>1376.6</ele><time>2026-03-28T09:44:48.999Z</time></trkpt><trkpt lat="44.47643343157717" lon="10.156141389840384"><ele>1376.1999999999998</ele><time>2026-03-28T09:44:50.999Z</time></trkpt><trkpt lat="44.476550469119076" lon="10.156157623670113"><ele>1375.8</ele><time>2026-03-28T09:44:52.999Z</time></trkpt><trkpt lat="44.476672832078876" lon="10.156179599513951"><ele>1375.4</ele><time>2026-03-28T09:44:54.999Z</time></trkpt><trkpt lat="44.476739784465174" lon="10.156179871261267"><ele>1375.0</ele><time>2026-03-28T09:44:55.999Z</time></trkpt><trkpt lat="44.476814823710114" lon="10.156178093486966"><ele>1375.0</ele><time>2026-03-28T09:44:56.999Z</time></trkpt><trkpt lat="44.47692878455846" lon="10.156190819130293"><ele>1375.0</ele><time>2026-03-28T09:44:58.999Z</time></trkpt><trkpt lat="44.47703752311934" lon="10.156195003342111"><ele>1375.0</ele><time>2026-03-28T09:45:00.999Z</time></trkpt><trkpt lat="44.47714752039954" lon="10.156203421013641"><ele>1375.0</ele><time>2026-03-28T09:45:02.999Z</time></trkpt><trkpt lat="44.477212871878095" lon="10.156196325421723"><ele>1375.0</ele><time>2026-03-28T09:45:03.999Z</time></trkpt><trkpt lat="44.47733187894417" lon="10.15616374241846"><ele>1374.6</ele><time>2026-03-28T09:45:05.999Z</time></trkpt><trkpt lat="44.47739878073258" lon="10.156154012000169"><ele>1374.2</ele><time>2026-03-28T09:45:06.999Z</time></trkpt><trkpt lat="44.4774938225271" lon="10.156174190693541"><ele>1373.8000000000002</ele><time>2026-03-28T09:45:08.999Z</time></trkpt><trkpt lat="44.477610009180204" lon="10.156167918051649"><ele>1373.4</ele><time>2026-03-28T09:45:11Z</time></trkpt><trkpt lat="44.47772242007936" lon="10.156207943024148"><ele>1373.0</ele><time>2026-03-28T09:45:13Z</time></trkpt><trkpt lat="44.477794462500306" lon="10.156262928536353"><ele>1373.0</ele><time>2026-03-28T09:45:15Z</time></trkpt><trkpt lat="44.47789982063294" lon="10.156275247596714"><ele>1373.0</ele><time>2026-03-28T09:45:17Z</time></trkpt><trkpt lat="44.4780122590034" lon="10.156322262015872"><ele>1373.0</ele><time>2026-03-28T09:45:19Z</time></trkpt><trkpt lat="44.47807429348351" lon="10.156346055744946"><ele>1373.0</ele><time>2026-03-28T09:45:20Z</time></trkpt><trkpt lat="44.47816157337132" lon="10.156375123875568"><ele>1373.0</ele><time>2026-03-28T09:45:22Z</time></trkpt><trkpt lat="44.47823269366185" lon="10.156428514840067"><ele>1372.2</ele><time>2026-03-28T09:45:24Z</time></trkpt><trkpt lat="44.47831344590487" lon="10.156480886565022"><ele>1371.4</ele><time>2026-03-28T09:45:26Z</time></trkpt><trkpt lat="44.47839075813068" lon="10.156598646985564"><ele>1370.6000000000001</ele><time>2026-03-28T09:45:28Z</time></trkpt><trkpt lat="44.47842263000559" lon="10.156757738159568"><ele>1369.8000000000002</ele><time>2026-03-28T09:45:30Z</time></trkpt><trkpt lat="44.47842947911174" lon="10.156916880685781"><ele>1369.0</ele><time>2026-03-28T09:45:32Z</time></trkpt><trkpt lat="44.47843252927676" lon="10.15700537921946"><ele>1366.25</ele><time>2026-03-28T09:45:33Z</time></trkpt><trkpt lat="44.47843717202687" lon="10.157167940038752"><ele>1363.5</ele><time>2026-03-28T09:45:35Z</time></trkpt><trkpt lat="44.4784361174486" lon="10.157319323762264"><ele>1360.75</ele><time>2026-03-28T09:45:37Z</time></trkpt><trkpt lat="44.4784406757511" lon="10.157479733488701"><ele>1358.0</ele><time>2026-03-28T09:45:39Z</time></trkpt><trkpt lat="44.47843174268055" lon="10.15764955491849"><ele>1355.8333333333335</ele><time>2026-03-28T09:45:41Z</time></trkpt><trkpt lat="44.4784401208948" lon="10.157811713762298"><ele>1353.6666666666667</ele><time>2026-03-28T09:45:43Z</time></trkpt><trkpt lat="44.478450163278225" lon="10.15796075218873"><ele>1351.5</ele><time>2026-03-28T09:45:45Z</time></trkpt><trkpt lat="44.4784759406138" lon="10.158044791659163"><ele>1349.3333333333333</ele><time>2026-03-28T09:45:46Z</time></trkpt><trkpt lat="44.47849891217812" lon="10.158145639491565"><ele>1347.1666666666665</ele><time>2026-03-28T09:45:47Z</time></trkpt><trkpt lat="44.478525890458506" lon="10.158225998322848"><ele>1345.0</ele><time>2026-03-28T09:45:48Z</time></trkpt><trkpt lat="44.47857238426441" lon="10.158308334615434"><ele>1345.4285714285716</ele><time>2026-03-28T09:45:49Z</time></trkpt><trkpt lat="44.47861714492128" lon="10.158389404573509"><ele>1345.857142857143</ele><time>2026-03-28T09:45:50Z</time></trkpt><trkpt lat="44.47867350713181" lon="10.158462023254742"><ele>1346.2857142857142</ele><time>2026-03-28T09:45:51Z</time></trkpt><trkpt lat="44.47873031385314" lon="10.158545324595934"><ele>1346.7142857142858</ele><time>2026-03-28T09:45:52Z</time></trkpt><trkpt lat="44.47879139959257" lon="10.158608401189113"><ele>1347.142857142857</ele><time>2026-03-28T09:45:53Z</time></trkpt><trkpt lat="44.47884956154853" lon="10.15866693753184"><ele>1347.5714285714287</ele><time>2026-03-28T09:45:54Z</time></trkpt><trkpt lat="44.47890845904114" lon="10.158713416609519"><ele>1348.0</ele><time>2026-03-28T09:45:55Z</time></trkpt><trkpt lat="44.479001869191144" lon="10.158805179934486"><ele>1348.0</ele><time>2026-03-28T09:45:57Z</time></trkpt><trkpt lat="44.47906389216216" lon="10.158826721701985"><ele>1348.0</ele><time>2026-03-28T09:45:58Z</time></trkpt><trkpt lat="44.479162889493104" lon="10.158858944421208"><ele>1348.0</ele><time>2026-03-28T09:46:00Z</time></trkpt><trkpt lat="44.47926274498507" lon="10.158895829195453"><ele>1348.0</ele><time>2026-03-28T09:46:02Z</time></trkpt><trkpt lat="44.47935853282063" lon="10.158954942260495"><ele>1348.0</ele><time>2026-03-28T09:46:04Z</time></trkpt><trkpt lat="44.479436088215486" lon="10.15903418321926"><ele>1344.0</ele><time>2026-03-28T09:46:06Z</time></trkpt><trkpt lat="44.479513360334145" lon="10.15911408970109"><ele>1340.0</ele><time>2026-03-28T09:46:08Z</time></trkpt><trkpt lat="44.47959965905016" lon="10.159189205233568"><ele>1336.0</ele><time>2026-03-28T09:46:10Z</time></trkpt><trkpt lat="44.47968700107201" lon="10.159274123040412"><ele>1332.0</ele><time>2026-03-28T09:46:12Z</time></trkpt><trkpt lat="44.4797794366532" lon="10.159363422068854"><ele>1328.0</ele><time>2026-03-28T09:46:14Z</time></trkpt><trkpt lat="44.47986783374174" lon="10.159452805889373"><ele>1328.0</ele><time>2026-03-28T09:46:16Z</time></trkpt><trkpt lat="44.47995730156544" lon="10.15954157455085"><ele>1328.0</ele><time>2026-03-28T09:46:18Z</time></trkpt><trkpt lat="44.480032734859925" lon="10.159643415692804"><ele>1328.0</ele><time>2026-03-28T09:46:20Z</time></trkpt><trkpt lat="44.4801013202782" lon="10.159751509133514"><ele>1328.0</ele><time>2026-03-28T09:46:22Z</time></trkpt><trkpt lat="44.48016815175957" lon="10.159858026781606"><ele>1328.0</ele><time>2026-03-28T09:46:24Z</time></trkpt><trkpt lat="44.480249185474335" lon="10.159970434672728"><ele>1325.4</ele><time>2026-03-28T09:46:26Z</time></trkpt><trkpt lat="44.48032022068078" lon="10.160081119943495"><ele>1322.8000000000002</ele><time>2026-03-28T09:46:28Z</time></trkpt><trkpt lat="44.480392753115446" lon="10.160172736599714"><ele>1320.2</ele><time>2026-03-28T09:46:30Z</time></trkpt><trkpt lat="44.48043986017933" lon="10.160232609693011"><ele>1317.6</ele><time>2026-03-28T09:46:33.999Z</time></trkpt><trkpt lat="44.480471554822905" lon="10.160333809722024"><ele>1315.0</ele><time>2026-03-28T09:46:37.999Z</time></trkpt><trkpt lat="44.48052422154115" lon="10.160466217724341"><ele>1314.0</ele><time>2026-03-28T09:46:39.999Z</time></trkpt><trkpt lat="44.480579777286714" lon="10.160590684831385"><ele>1313.0</ele><time>2026-03-28T09:46:40.999Z</time></trkpt><trkpt lat="44.48062535143797" lon="10.160698560084104"><ele>1312.0</ele><time>2026-03-28T09:46:41.999Z</time></trkpt><trkpt lat="44.480642834823506" lon="10.160800403295385"><ele>1311.0</ele><time>2026-03-28T09:46:42.999Z</time></trkpt><trkpt lat="44.48067425507842" lon="10.160915652597382"><ele>1310.0</ele><time>2026-03-28T09:46:43.999Z</time></trkpt><trkpt lat="44.48068674963854" lon="10.16103219842603"><ele>1309.0</ele><time>2026-03-28T09:46:44.999Z</time></trkpt><trkpt lat="44.480699095600656" lon="10.161129410086625"><ele>1308.0</ele><time>2026-03-28T09:46:45.999Z</time></trkpt><trkpt lat="44.48072659080482" lon="10.161216372947315"><ele>1307.0</ele><time>2026-03-28T09:46:46.999Z</time></trkpt><trkpt lat="44.48078601258656" lon="10.161303117579854"><ele>1306.0</ele><time>2026-03-28T09:46:47.999Z</time></trkpt><trkpt lat="44.48085205374184" lon="10.161369988809765"><ele>1305.0</ele><time>2026-03-28T09:46:48.999Z</time></trkpt><trkpt lat="44.480928020992266" lon="10.161413135397869"><ele>1304.0</ele><time>2026-03-28T09:46:49.999Z</time></trkpt><trkpt lat="44.481025610729766" lon="10.161442769880663"><ele>1303.0</ele><time>2026-03-28T09:46:50.999Z</time></trkpt><trkpt lat="44.48110845869333" lon="10.16146578383643"><ele>1303.0</ele><time>2026-03-28T09:46:51.999Z</time></trkpt><trkpt lat="44.481191997732346" lon="10.161482923867498"><ele>1303.0</ele><time>2026-03-28T09:46:52.999Z</time></trkpt><trkpt lat="44.4812794696549" lon="10.161484340100039"><ele>1303.0</ele><time>2026-03-28T09:46:53.999Z</time></trkpt><trkpt lat="44.48136058706012" lon="10.16149382823577"><ele>1303.0</ele><time>2026-03-28T09:46:54.999Z</time></trkpt><trkpt lat="44.48144107382753" lon="10.161507081485517"><ele>1303.0</ele><time>2026-03-28T09:46:55.999Z</time></trkpt><trkpt lat="44.481522770854035" lon="10.161504702648354"><ele>1303.0</ele><time>2026-03-28T09:46:56.999Z</time></trkpt><trkpt lat="44.48160779364049" lon="10.16149151616799"><ele>1302.857142857143</ele><time>2026-03-28T09:46:57.999Z</time></trkpt><trkpt lat="44.481671034744025" lon="10.161477198088239"><ele>1302.7142857142858</ele><time>2026-03-28T09:46:58.999Z</time></trkpt><trkpt lat="44.48174599925791" lon="10.161455084090337"><ele>1302.5714285714284</ele><time>2026-03-28T09:46:59.999Z</time></trkpt><trkpt lat="44.48181871193832" lon="10.161440713007492"><ele>1302.4285714285716</ele><time>2026-03-28T09:47:00.999Z</time></trkpt><trkpt lat="44.48189326522537" lon="10.161433534924607"><ele>1302.2857142857142</ele><time>2026-03-28T09:47:01.999Z</time></trkpt><trkpt lat="44.481964222013495" lon="10.161433542427222"><ele>1302.142857142857</ele><time>2026-03-28T09:47:02.999Z</time></trkpt><trkpt lat="44.48204026064344" lon="10.161422345428523"><ele>1302.0</ele><time>2026-03-28T09:47:03.999Z</time></trkpt><trkpt lat="44.48210834104602" lon="10.161427599266412"><ele>1302.0</ele><time>2026-03-28T09:47:04.999Z</time></trkpt><trkpt lat="44.48217484072014" lon="10.1614701342349"><ele>1302.0</ele><time>2026-03-28T09:47:05.999Z</time></trkpt><trkpt lat="44.48222626423709" lon="10.161557243007962"><ele>1302.0</ele><time>2026-03-28T09:47:06.999Z</time></trkpt><trkpt lat="44.48225742892744" lon="10.161658986435578"><ele>1302.0</ele><time>2026-03-28T09:47:07.999Z</time></trkpt><trkpt lat="44.48229213471762" lon="10.161793057902187"><ele>1302.0</ele><time>2026-03-28T09:47:08.999Z</time></trkpt><trkpt lat="44.48232802353856" lon="10.161932228893692"><ele>1302.0</ele><time>2026-03-28T09:47:09.999Z</time></trkpt><trkpt lat="44.482365133309976" lon="10.162047711379813"><ele>1302.8</ele><time>2026-03-28T09:47:10.999Z</time></trkpt><trkpt lat="44.48240485059437" lon="10.162163983751737"><ele>1303.6</ele><time>2026-03-28T09:47:11.999Z</time></trkpt><trkpt lat="44.48245578199366" lon="10.16227432445875"><ele>1304.3999999999999</ele><time>2026-03-28T09:47:12.999Z</time></trkpt><trkpt lat="44.48250917943213" lon="10.162395121124643"><ele>1305.1999999999998</ele><time>2026-03-28T09:47:13.999Z</time></trkpt><trkpt lat="44.482542479093546" lon="10.162540538337364"><ele>1306.0</ele><time>2026-03-28T09:47:14.999Z</time></trkpt><trkpt lat="44.482559087159814" lon="10.162684061953792"><ele>1303.8</ele><time>2026-03-28T09:47:15.999Z</time></trkpt><trkpt lat="44.48256105515879" lon="10.162817569179763"><ele>1301.6</ele><time>2026-03-28T09:47:17Z</time></trkpt><trkpt lat="44.48254217736074" lon="10.162957334355001"><ele>1299.4</ele><time>2026-03-28T09:47:18Z</time></trkpt><trkpt lat="44.48250804960576" lon="10.163092080872762"><ele>1297.2</ele><time>2026-03-28T09:47:19Z</time></trkpt><trkpt lat="44.482471744823094" lon="10.163222299875185"><ele>1295.0</ele><time>2026-03-28T09:47:20Z</time></trkpt><trkpt lat="44.48242836006697" lon="10.163322836643045"><ele>1293.4</ele><time>2026-03-28T09:47:21Z</time></trkpt><trkpt lat="44.48236934886591" lon="10.163409792750167"><ele>1291.8</ele><time>2026-03-28T09:47:22Z</time></trkpt><trkpt lat="44.482340874357554" lon="10.163512033971777"><ele>1290.1999999999998</ele><time>2026-03-28T09:47:23Z</time></trkpt><trkpt lat="44.482322541994336" lon="10.163604977146043"><ele>1288.6</ele><time>2026-03-28T09:47:24Z</time></trkpt><trkpt lat="44.482303258216085" lon="10.163771390801818"><ele>1287.0</ele><time>2026-03-28T09:47:26Z</time></trkpt><trkpt lat="44.482292071817824" lon="10.163919043834408"><ele>1284.6</ele><time>2026-03-28T09:47:28Z</time></trkpt><trkpt lat="44.48231848163389" lon="10.164059141170815"><ele>1282.1999999999998</ele><time>2026-03-28T09:47:30Z</time></trkpt><trkpt lat="44.48236890849401" lon="10.164194545525605"><ele>1279.8</ele><time>2026-03-28T09:47:32Z</time></trkpt><trkpt lat="44.48242379579017" lon="10.16426579484716"><ele>1277.4</ele><time>2026-03-28T09:47:35Z</time></trkpt><trkpt lat="44.482485494509774" lon="10.164326301856056"><ele>1275.0</ele><time>2026-03-28T09:47:44Z</time></trkpt><trkpt lat="44.482598164437825" lon="10.164260943582544"><ele>1275.0</ele><time>2026-03-28T09:47:46Z</time></trkpt><trkpt lat="44.48268696664208" lon="10.164217015729717"><ele>1275.0</ele><time>2026-03-28T09:47:47Z</time></trkpt><trkpt lat="44.48278809151342" lon="10.164179833886271"><ele>1275.0</ele><time>2026-03-28T09:47:48Z</time></trkpt><trkpt lat="44.48288508265002" lon="10.164126748804641"><ele>1275.0</ele><time>2026-03-28T09:47:49Z</time></trkpt><trkpt lat="44.48297467661896" lon="10.164064619886629"><ele>1275.0</ele><time>2026-03-28T09:47:50Z</time></trkpt><trkpt lat="44.48307526025417" lon="10.164019151141982"><ele>1273.25</ele><time>2026-03-28T09:47:51Z</time></trkpt><trkpt lat="44.483162484329135" lon="10.163969216673474"><ele>1271.5</ele><time>2026-03-28T09:47:52Z</time></trkpt><trkpt lat="44.48327464955656" lon="10.163994898367115"><ele>1269.75</ele><time>2026-03-28T09:47:54Z</time></trkpt><trkpt lat="44.48343252554722" lon="10.164028942494854"><ele>1268.0</ele><time>2026-03-28T09:47:55Z</time></trkpt><trkpt lat="44.483487815391406" lon="10.16411532839041"><ele>1268.0</ele><time>2026-03-28T09:47:56Z</time></trkpt><trkpt lat="44.48353339936943" lon="10.16423002884639"><ele>1268.0</ele><time>2026-03-28T09:47:57Z</time></trkpt><trkpt lat="44.48359589941797" lon="10.164334351441308"><ele>1268.0</ele><time>2026-03-28T09:47:58Z</time></trkpt><trkpt lat="44.483637072156135" lon="10.16445071131168"><ele>1268.0</ele><time>2026-03-28T09:47:59Z</time></trkpt><trkpt lat="44.48368657722061" lon="10.164577765737164"><ele>1268.0</ele><time>2026-03-28T09:48:00Z</time></trkpt><trkpt lat="44.48374393507926" lon="10.16471538307009"><ele>1266.8</ele><time>2026-03-28T09:48:01Z</time></trkpt><trkpt lat="44.48376982921079" lon="10.16487115045658"><ele>1265.6</ele><time>2026-03-28T09:48:02Z</time></trkpt><trkpt lat="44.48379370207517" lon="10.165020404322366"><ele>1264.4</ele><time>2026-03-28T09:48:03Z</time></trkpt><trkpt lat="44.483818490797596" lon="10.16516231983231"><ele>1263.2</ele><time>2026-03-28T09:48:04Z</time></trkpt><trkpt lat="44.48381293214157" lon="10.16531260881808"><ele>1262.0</ele><time>2026-03-28T09:48:05Z</time></trkpt><trkpt lat="44.48381639191993" lon="10.165451595307255"><ele>1262.0</ele><time>2026-03-28T09:48:06Z</time></trkpt><trkpt lat="44.48382495942006" lon="10.165605459805882"><ele>1262.0</ele><time>2026-03-28T09:48:07Z</time></trkpt><trkpt lat="44.483795012413395" lon="10.165747594891965"><ele>1262.0</ele><time>2026-03-28T09:48:08Z</time></trkpt><trkpt lat="44.483798507762955" lon="10.165867768114119"><ele>1262.0</ele><time>2026-03-28T09:48:09Z</time></trkpt><trkpt lat="44.483778427889305" lon="10.16596946516458"><ele>1262.0</ele><time>2026-03-28T09:48:10Z</time></trkpt><trkpt lat="44.48376939823856" lon="10.16606523378263"><ele>1262.0</ele><time>2026-03-28T09:48:11Z</time></trkpt><trkpt lat="44.48377241315852" lon="10.16615341915077"><ele>1260.5</ele><time>2026-03-28T09:48:12Z</time></trkpt><trkpt lat="44.48380046862485" lon="10.166236266222588"><ele>1259.0</ele><time>2026-03-28T09:48:13Z</time></trkpt><trkpt lat="44.48384994549441" lon="10.166310143289216"><ele>1257.5</ele><time>2026-03-28T09:48:14Z</time></trkpt><trkpt lat="44.483914138104254" lon="10.166359325124873"><ele>1256.0</ele><time>2026-03-28T09:48:15Z</time></trkpt><trkpt lat="44.48398666525173" lon="10.166380139137932"><ele>1254.5</ele><time>2026-03-28T09:48:16Z</time></trkpt><trkpt lat="44.48411643527683" lon="10.166322845482636"><ele>1253.0</ele><time>2026-03-28T09:48:17Z</time></trkpt><trkpt lat="44.48421981649701" lon="10.166248435370289"><ele>1253.0</ele><time>2026-03-28T09:48:18Z</time></trkpt><trkpt lat="44.48432410358462" lon="10.166156750677853"><ele>1253.0</ele><time>2026-03-28T09:48:19Z</time></trkpt><trkpt lat="44.48444505952199" lon="10.166109304826865"><ele>1253.0</ele><time>2026-03-28T09:48:20Z</time></trkpt><trkpt lat="44.48454782198116" lon="10.166072449750333"><ele>1253.0</ele><time>2026-03-28T09:48:21Z</time></trkpt><trkpt lat="44.484635629152" lon="10.16605012020607"><ele>1253.0</ele><time>2026-03-28T09:48:22Z</time></trkpt><trkpt lat="44.48471484071024" lon="10.166012660937982"><ele>1251.6</ele><time>2026-03-28T09:48:23Z</time></trkpt><trkpt lat="44.48480893749473" lon="10.16599315285692"><ele>1250.1999999999998</ele><time>2026-03-28T09:48:24Z</time></trkpt><trkpt lat="44.48490101565315" lon="10.165972219185598"><ele>1248.8</ele><time>2026-03-28T09:48:25Z</time></trkpt><trkpt lat="44.48499648815955" lon="10.165948258795323"><ele>1247.3999999999999</ele><time>2026-03-28T09:48:26Z</time></trkpt><trkpt lat="44.48509991378504" lon="10.165915229163915"><ele>1246.0</ele><time>2026-03-28T09:48:27Z</time></trkpt><trkpt lat="44.485195185679565" lon="10.165862849626231"><ele>1246.0</ele><time>2026-03-28T09:48:28Z</time></trkpt><trkpt lat="44.485286338339506" lon="10.165808877317422"><ele>1246.0</ele><time>2026-03-28T09:48:29Z</time></trkpt><trkpt lat="44.48538212205306" lon="10.165759294134936"><ele>1246.0</ele><time>2026-03-28T09:48:29.999Z</time></trkpt><trkpt lat="44.48548557817946" lon="10.16571978405733"><ele>1246.0</ele><time>2026-03-28T09:48:30.999Z</time></trkpt><trkpt lat="44.48560420130941" lon="10.165689660965052"><ele>1246.0</ele><time>2026-03-28T09:48:31.999Z</time></trkpt><trkpt lat="44.485739992997196" lon="10.16566467825244"><ele>1247.25</ele><time>2026-03-28T09:48:32.999Z</time></trkpt><trkpt lat="44.48587546539213" lon="10.165677718168455"><ele>1248.5</ele><time>2026-03-28T09:48:33.999Z</time></trkpt><trkpt lat="44.486007738858596" lon="10.16571758038389"><ele>1249.75</ele><time>2026-03-28T09:48:34.999Z</time></trkpt><trkpt lat="44.4861109745378" lon="10.165772248466642"><ele>1251.0</ele><time>2026-03-28T09:48:35.999Z</time></trkpt><trkpt lat="44.486215088947674" lon="10.165849951712266"><ele>1247.0</ele><time>2026-03-28T09:48:36.999Z</time></trkpt><trkpt lat="44.486313336330035" lon="10.165964271178115"><ele>1243.0</ele><time>2026-03-28T09:48:37.999Z</time></trkpt><trkpt lat="44.486398077986536" lon="10.166117589685916"><ele>1239.0</ele><time>2026-03-28T09:48:38.999Z</time></trkpt><trkpt lat="44.48647231711664" lon="10.166261680113703"><ele>1235.0</ele><time>2026-03-28T09:48:39.999Z</time></trkpt><trkpt lat="44.486559867277265" lon="10.166406730337414"><ele>1230.6666666666667</ele><time>2026-03-28T09:48:40.999Z</time></trkpt><trkpt lat="44.486675093826136" lon="10.16653308034339"><ele>1226.3333333333333</ele><time>2026-03-28T09:48:41.999Z</time></trkpt><trkpt lat="44.48681650446662" lon="10.166667678899058"><ele>1222.0</ele><time>2026-03-28T09:48:42.999Z</time></trkpt><trkpt lat="44.48694377194732" lon="10.166792617662"><ele>1222.0</ele><time>2026-03-28T09:48:44.999Z</time></trkpt><trkpt lat="44.48705096145648" lon="10.166845669545216"><ele>1222.0</ele><time>2026-03-28T09:48:45.999Z</time></trkpt><trkpt lat="44.48716322459354" lon="10.166840496224854"><ele>1222.0</ele><time>2026-03-28T09:48:46.999Z</time></trkpt><trkpt lat="44.48729691027762" lon="10.166798417575503"><ele>1222.0</ele><time>2026-03-28T09:48:47.999Z</time></trkpt><trkpt lat="44.48742303611417" lon="10.166761216451599"><ele>1219.5</ele><time>2026-03-28T09:48:48.999Z</time></trkpt><trkpt lat="44.48754608972524" lon="10.16675915622779"><ele>1217.0</ele><time>2026-03-28T09:48:49.999Z</time></trkpt><trkpt lat="44.487678072429446" lon="10.166803709484546"><ele>1214.5</ele><time>2026-03-28T09:48:50.999Z</time></trkpt><trkpt lat="44.48780170386303" lon="10.166852584712759"><ele>1212.0</ele><time>2026-03-28T09:48:51.999Z</time></trkpt><trkpt lat="44.48792066822949" lon="10.166898649899837"><ele>1213.25</ele><time>2026-03-28T09:48:52.999Z</time></trkpt><trkpt lat="44.48803578787236" lon="10.166957492091598"><ele>1214.5</ele><time>2026-03-28T09:48:53.999Z</time></trkpt><trkpt lat="44.48811710867995" lon="10.167088722219216"><ele>1215.75</ele><time>2026-03-28T09:48:54.999Z</time></trkpt><trkpt lat="44.488210559597334" lon="10.167241699185736"><ele>1217.0</ele><time>2026-03-28T09:48:55.999Z</time></trkpt><trkpt lat="44.48831178619183" lon="10.167412206032488"><ele>1212.75</ele><time>2026-03-28T09:48:56.999Z</time></trkpt><trkpt lat="44.48841667960627" lon="10.167572732059028"><ele>1208.5</ele><time>2026-03-28T09:48:57.999Z</time></trkpt><trkpt lat="44.48849972339638" lon="10.167735044671009"><ele>1204.25</ele><time>2026-03-28T09:48:58.999Z</time></trkpt><trkpt lat="44.48855279572123" lon="10.167922969135303"><ele>1200.0</ele><time>2026-03-28T09:48:59.999Z</time></trkpt><trkpt lat="44.48861371912909" lon="10.168103834556021"><ele>1196.5</ele><time>2026-03-28T09:49:00.999Z</time></trkpt><trkpt lat="44.48868776810098" lon="10.168287212146888"><ele>1193.0</ele><time>2026-03-28T09:49:01.999Z</time></trkpt><trkpt lat="44.48874514567717" lon="10.168479218123288"><ele>1189.5</ele><time>2026-03-28T09:49:02.999Z</time></trkpt><trkpt lat="44.48880411640339" lon="10.168651906637855"><ele>1186.0</ele><time>2026-03-28T09:49:03.999Z</time></trkpt><trkpt lat="44.48885465055787" lon="10.168821045060048"><ele>1186.0</ele><time>2026-03-28T09:49:04.999Z</time></trkpt><trkpt lat="44.48886585534933" lon="10.169004454537069"><ele>1186.0</ele><time>2026-03-28T09:49:05.999Z</time></trkpt><trkpt lat="44.48885983942928" lon="10.169173021026053"><ele>1186.0</ele><time>2026-03-28T09:49:06.999Z</time></trkpt><trkpt lat="44.488835108808956" lon="10.16936035200745"><ele>1186.0</ele><time>2026-03-28T09:49:07.999Z</time></trkpt><trkpt lat="44.4888261511476" lon="10.169563678668741"><ele>1182.75</ele><time>2026-03-28T09:49:08.999Z</time></trkpt><trkpt lat="44.48880288134986" lon="10.169748336328654"><ele>1179.5</ele><time>2026-03-28T09:49:09.999Z</time></trkpt><trkpt lat="44.48880754444416" lon="10.169934661889815"><ele>1176.25</ele><time>2026-03-28T09:49:10.999Z</time></trkpt><trkpt lat="44.48885425811666" lon="10.170113141382751"><ele>1173.0</ele><time>2026-03-28T09:49:11.999Z</time></trkpt><trkpt lat="44.48892364267438" lon="10.170309200766587"><ele>1170.75</ele><time>2026-03-28T09:49:12.999Z</time></trkpt><trkpt lat="44.48896421886015" lon="10.170509710883977"><ele>1168.5</ele><time>2026-03-28T09:49:13.999Z</time></trkpt><trkpt lat="44.48894994042633" lon="10.170713248276657"><ele>1166.25</ele><time>2026-03-28T09:49:14.999Z</time></trkpt><trkpt lat="44.48896049032626" lon="10.170887380578666"><ele>1164.0</ele><time>2026-03-28T09:49:15.999Z</time></trkpt><trkpt lat="44.48897446499529" lon="10.171027372802943"><ele>1160.5</ele><time>2026-03-28T09:49:16.999Z</time></trkpt><trkpt lat="44.489016917263065" lon="10.171168137193618"><ele>1157.0</ele><time>2026-03-28T09:49:17.999Z</time></trkpt><trkpt lat="44.4891094626117" lon="10.171334571950258"><ele>1153.5</ele><time>2026-03-28T09:49:18.999Z</time></trkpt><trkpt lat="44.489218941226014" lon="10.171514721214159"><ele>1150.0</ele><time>2026-03-28T09:49:19.999Z</time></trkpt><trkpt lat="44.48932367641921" lon="10.17167854804079"><ele>1148.5</ele><time>2026-03-28T09:49:20.999Z</time></trkpt><trkpt lat="44.48940148290387" lon="10.171826842875001"><ele>1147.0</ele><time>2026-03-28T09:49:21.999Z</time></trkpt><trkpt lat="44.489459792164006" lon="10.171986000747513"><ele>1145.5</ele><time>2026-03-28T09:49:23Z</time></trkpt><trkpt lat="44.48950649958179" lon="10.172153558324476"><ele>1144.0</ele><time>2026-03-28T09:49:24Z</time></trkpt><trkpt lat="44.48955590513829" lon="10.17232528287019"><ele>1145.25</ele><time>2026-03-28T09:49:25Z</time></trkpt><trkpt lat="44.489625800283825" lon="10.172467313682931"><ele>1146.5</ele><time>2026-03-28T09:49:26Z</time></trkpt><trkpt lat="44.48968895347825" lon="10.17262258108982"><ele>1147.75</ele><time>2026-03-28T09:49:27Z</time></trkpt><trkpt lat="44.48974633093759" lon="10.172803647301148"><ele>1149.0</ele><time>2026-03-28T09:49:28Z</time></trkpt><trkpt lat="44.48979966154715" lon="10.172977768789735"><ele>1149.0</ele><time>2026-03-28T09:49:29Z</time></trkpt><trkpt lat="44.48985544157844" lon="10.17315267740012"><ele>1149.0</ele><time>2026-03-28T09:49:30Z</time></trkpt><trkpt lat="44.48990539662504" lon="10.173321024565258"><ele>1149.0</ele><time>2026-03-28T09:49:31Z</time></trkpt><trkpt lat="44.48994663325563" lon="10.173472714879091"><ele>1149.0</ele><time>2026-03-28T09:49:32Z</time></trkpt><trkpt lat="44.48999128845747" lon="10.17362331486945"><ele>1147.0</ele><time>2026-03-28T09:49:33Z</time></trkpt><trkpt lat="44.49007514928659" lon="10.173773617747258"><ele>1145.0</ele><time>2026-03-28T09:49:34Z</time></trkpt><trkpt lat="44.49018528513353" lon="10.173937253935872"><ele>1143.0</ele><time>2026-03-28T09:49:35Z</time></trkpt><trkpt lat="44.49029249829763" lon="10.174109593688788"><ele>1141.6666666666667</ele><time>2026-03-28T09:49:36Z</time></trkpt><trkpt lat="44.490396072621216" lon="10.174272874243504"><ele>1140.3333333333335</ele><time>2026-03-28T09:49:37Z</time></trkpt><trkpt lat="44.490501606149884" lon="10.174436876151216"><ele>1139.0</ele><time>2026-03-28T09:49:38Z</time></trkpt><trkpt lat="44.49060343959364" lon="10.17458554119939"><ele>1139.0</ele><time>2026-03-28T09:49:39Z</time></trkpt><trkpt lat="44.49068469476596" lon="10.174688201360187"><ele>1139.0</ele><time>2026-03-28T09:49:40Z</time></trkpt><trkpt lat="44.490762330527254" lon="10.174729466699318"><ele>1139.0</ele><time>2026-03-28T09:49:41Z</time></trkpt><trkpt lat="44.49085769914072" lon="10.174728642652216"><ele>1139.0</ele><time>2026-03-28T09:49:42Z</time></trkpt><trkpt lat="44.490958747571966" lon="10.1746558046737"><ele>1139.0</ele><time>2026-03-28T09:49:43Z</time></trkpt><trkpt lat="44.49107699519661" lon="10.174547444610146"><ele>1139.0</ele><time>2026-03-28T09:49:44Z</time></trkpt><trkpt lat="44.49121932069282" lon="10.174397788031134"><ele>1139.0</ele><time>2026-03-28T09:49:45Z</time></trkpt><trkpt lat="44.491370323268185" lon="10.174267324710788"><ele>1139.0</ele><time>2026-03-28T09:49:46Z</time></trkpt><trkpt lat="44.491514252395326" lon="10.174142283094966"><ele>1132.3333333333335</ele><time>2026-03-28T09:49:47Z</time></trkpt><trkpt lat="44.49164374311443" lon="10.174009257756484"><ele>1125.6666666666667</ele><time>2026-03-28T09:49:48Z</time></trkpt><trkpt lat="44.49177562216296" lon="10.173901221287753"><ele>1119.0</ele><time>2026-03-28T09:49:49Z</time></trkpt><trkpt lat="44.491908630082975" lon="10.17380772634928"><ele>1119.0</ele><time>2026-03-28T09:49:50Z</time></trkpt><trkpt lat="44.49202810252108" lon="10.17371334482256"><ele>1119.0</ele><time>2026-03-28T09:49:51Z</time></trkpt><trkpt lat="44.4921273034265" lon="10.173640362519626"><ele>1119.0</ele><time>2026-03-28T09:49:52Z</time></trkpt><trkpt lat="44.49219023967184" lon="10.17357517203845"><ele>1119.0</ele><time>2026-03-28T09:49:53Z</time></trkpt><trkpt lat="44.49222749189761" lon="10.173482437386602"><ele>1119.0</ele><time>2026-03-28T09:49:54Z</time></trkpt><trkpt lat="44.49221518013347" lon="10.173369457304425"><ele>1119.0</ele><time>2026-03-28T09:49:55Z</time></trkpt><trkpt lat="44.49216758515403" lon="10.17326177038807"><ele>1119.0</ele><time>2026-03-28T09:49:56Z</time></trkpt><trkpt lat="44.492110689685404" lon="10.173208704217725"><ele>1119.0</ele><time>2026-03-28T09:49:57Z</time></trkpt><trkpt lat="44.49204810455477" lon="10.173191542141083"><ele>1119.0</ele><time>2026-03-28T09:49:58Z</time></trkpt><trkpt lat="44.49197342313799" lon="10.173188398723727"><ele>1119.0</ele><time>2026-03-28T09:49:59Z</time></trkpt><trkpt lat="44.49190114504933" lon="10.173139300204001"><ele>1119.0</ele><time>2026-03-28T09:50:00Z</time></trkpt><trkpt lat="44.4918443704459" lon="10.173075584625353"><ele>1116.8</ele><time>2026-03-28T09:50:01Z</time></trkpt><trkpt lat="44.491853045395956" lon="10.172954230297412"><ele>1114.6000000000001</ele><time>2026-03-28T09:50:02Z</time></trkpt><trkpt lat="44.49187544435681" lon="10.172862324429033"><ele>1112.4</ele><time>2026-03-28T09:50:03Z</time></trkpt><trkpt lat="44.491961061989215" lon="10.172791461973478"><ele>1110.2</ele><time>2026-03-28T09:50:04Z</time></trkpt><trkpt lat="44.492077433992144" lon="10.172815853382494"><ele>1108.0</ele><time>2026-03-28T09:50:05Z</time></trkpt><trkpt lat="44.492197098813236" lon="10.172850822417443"><ele>1104.25</ele><time>2026-03-28T09:50:06Z</time></trkpt><trkpt lat="44.49233151117701" lon="10.172899025807494"><ele>1100.5</ele><time>2026-03-28T09:50:07Z</time></trkpt><trkpt lat="44.49247919691847" lon="10.172925474991699"><ele>1096.75</ele><time>2026-03-28T09:50:08Z</time></trkpt><trkpt lat="44.4926136980405" lon="10.172937655205269"><ele>1093.0</ele><time>2026-03-28T09:50:09Z</time></trkpt><trkpt lat="44.49275993951933" lon="10.172957337850999"><ele>1090.0</ele><time>2026-03-28T09:50:10Z</time></trkpt><trkpt lat="44.49294558267266" lon="10.17297678978657"><ele>1087.0</ele><time>2026-03-28T09:50:11Z</time></trkpt><trkpt lat="44.49314116281387" lon="10.172994916829108"><ele>1084.0</ele><time>2026-03-28T09:50:12Z</time></trkpt><trkpt lat="44.49332618359196" lon="10.173018787554778"><ele>1084.0</ele><time>2026-03-28T09:50:13Z</time></trkpt><trkpt lat="44.493495722663226" lon="10.173045967826537"><ele>1084.0</ele><time>2026-03-28T09:50:14Z</time></trkpt><trkpt lat="44.4936597999746" lon="10.173052277049386"><ele>1084.0</ele><time>2026-03-28T09:50:15Z</time></trkpt><trkpt lat="44.49382875651956" lon="10.173043469962153"><ele>1081.5</ele><time>2026-03-28T09:50:16Z</time></trkpt><trkpt lat="44.493989025660206" lon="10.173036024169866"><ele>1079.0</ele><time>2026-03-28T09:50:17Z</time></trkpt><trkpt lat="44.49412723752642" lon="10.173037760122133"><ele>1076.5</ele><time>2026-03-28T09:50:18Z</time></trkpt><trkpt lat="44.49423680246775" lon="10.173044520180802"><ele>1074.0</ele><time>2026-03-28T09:50:19Z</time></trkpt><trkpt lat="44.49432819950903" lon="10.173058805548152"><ele>1074.0</ele><time>2026-03-28T09:50:20Z</time></trkpt><trkpt lat="44.4944297219055" lon="10.173102763776235"><ele>1074.0</ele><time>2026-03-28T09:50:21Z</time></trkpt><trkpt lat="44.494527204926314" lon="10.173211792989322"><ele>1074.0</ele><time>2026-03-28T09:50:22Z</time></trkpt><trkpt lat="44.49461628824895" lon="10.173329177374589"><ele>1074.0</ele><time>2026-03-28T09:50:23Z</time></trkpt><trkpt lat="44.49466740513777" lon="10.173436129121663"><ele>1074.0</ele><time>2026-03-28T09:50:24Z</time></trkpt><trkpt lat="44.49468803084205" lon="10.173529358795452"><ele>1074.25</ele><time>2026-03-28T09:50:25Z</time></trkpt><trkpt lat="44.49470917521339" lon="10.173640479699921"><ele>1074.5</ele><time>2026-03-28T09:50:26Z</time></trkpt><trkpt lat="44.4946515291035" lon="10.173793286342724"><ele>1074.75</ele><time>2026-03-28T09:50:27Z</time></trkpt><trkpt lat="44.49458067342084" lon="10.173936339169968"><ele>1075.0</ele><time>2026-03-28T09:50:28Z</time></trkpt><trkpt lat="44.494493658873246" lon="10.174099785440758"><ele>1077.3333333333333</ele><time>2026-03-28T09:50:29Z</time></trkpt><trkpt lat="44.49439733026865" lon="10.174266412003284"><ele>1079.6666666666667</ele><time>2026-03-28T09:50:30Z</time></trkpt><trkpt lat="44.49430873895667" lon="10.174421773217638"><ele>1082.0</ele><time>2026-03-28T09:50:31Z</time></trkpt><trkpt lat="44.49421005272096" lon="10.174596462743413"><ele>1082.0</ele><time>2026-03-28T09:50:32Z</time></trkpt><trkpt lat="44.49413308770471" lon="10.174739722967816"><ele>1082.0</ele><time>2026-03-28T09:50:33Z</time></trkpt><trkpt lat="44.49407791767118" lon="10.174880468813424"><ele>1082.0</ele><time>2026-03-28T09:50:33.999Z</time></trkpt><trkpt lat="44.49404560345317" lon="10.175030604101105"><ele>1082.0</ele><time>2026-03-28T09:50:34.999Z</time></trkpt><trkpt lat="44.494039341381466" lon="10.175233746260563"><ele>1078.75</ele><time>2026-03-28T09:50:35.999Z</time></trkpt><trkpt lat="44.494065337039395" lon="10.175453799890647"><ele>1075.5</ele><time>2026-03-28T09:50:36.999Z</time></trkpt><trkpt lat="44.494074279107814" lon="10.175635363145023"><ele>1072.25</ele><time>2026-03-28T09:50:37.999Z</time></trkpt><trkpt lat="44.49407334559233" lon="10.175796156605712"><ele>1069.0</ele><time>2026-03-28T09:50:38.999Z</time></trkpt><trkpt lat="44.49406513281756" lon="10.175953776485505"><ele>1067.5</ele><time>2026-03-28T09:50:39.999Z</time></trkpt><trkpt lat="44.49405229283103" lon="10.176132443033566"><ele>1066.0</ele><time>2026-03-28T09:50:40.999Z</time></trkpt><trkpt lat="44.49403000837798" lon="10.176305493009394"><ele>1064.5</ele><time>2026-03-28T09:50:41.999Z</time></trkpt><trkpt lat="44.49399351860181" lon="10.176447017268925"><ele>1063.0</ele><time>2026-03-28T09:50:42.999Z</time></trkpt><trkpt lat="44.49396599377626" lon="10.17663510944067"><ele>1061.25</ele><time>2026-03-28T09:50:43.999Z</time></trkpt><trkpt lat="44.49393448552988" lon="10.176823844520452"><ele>1059.5</ele><time>2026-03-28T09:50:44.999Z</time></trkpt><trkpt lat="44.49390402648984" lon="10.17698896085731"><ele>1057.75</ele><time>2026-03-28T09:50:45.999Z</time></trkpt><trkpt lat="44.49387069242586" lon="10.177145440045292"><ele>1056.0</ele><time>2026-03-28T09:50:46.999Z</time></trkpt><trkpt lat="44.49382251293914" lon="10.17730220885073"><ele>1056.5</ele><time>2026-03-28T09:50:47.999Z</time></trkpt><trkpt lat="44.49376045804001" lon="10.177463633437332"><ele>1057.0</ele><time>2026-03-28T09:50:48.999Z</time></trkpt><trkpt lat="44.493683509765006" lon="10.177617362957882"><ele>1057.5</ele><time>2026-03-28T09:50:49.999Z</time></trkpt><trkpt lat="44.493612771119196" lon="10.177752299369502"><ele>1058.0</ele><time>2026-03-28T09:50:50.999Z</time></trkpt><trkpt lat="44.49356444428429" lon="10.17787679261972"><ele>1058.0</ele><time>2026-03-28T09:50:51.999Z</time></trkpt><trkpt lat="44.49354984255945" lon="10.177993751609238"><ele>1058.0</ele><time>2026-03-28T09:50:52.999Z</time></trkpt><trkpt lat="44.49356429314041" lon="10.178092840480808"><ele>1058.0</ele><time>2026-03-28T09:50:53.999Z</time></trkpt><trkpt lat="44.49360268214498" lon="10.178175969491749"><ele>1058.0</ele><time>2026-03-28T09:50:54.999Z</time></trkpt><trkpt lat="44.49366403498717" lon="10.178236326354929"><ele>1058.0</ele><time>2026-03-28T09:50:55.999Z</time></trkpt><trkpt lat="44.493729330962324" lon="10.178296754278877"><ele>1058.0</ele><time>2026-03-28T09:50:56.999Z</time></trkpt><trkpt lat="44.493790072952166" lon="10.178350681534631"><ele>1056.5</ele><time>2026-03-28T09:50:57.999Z</time></trkpt><trkpt lat="44.49384538201908" lon="10.178394529117284"><ele>1055.0</ele><time>2026-03-28T09:50:58.999Z</time></trkpt><trkpt lat="44.49391333440192" lon="10.178449953779083"><ele>1053.5</ele><time>2026-03-28T09:51:00.999Z</time></trkpt><trkpt lat="44.493979030156666" lon="10.178476955239834"><ele>1052.0</ele><time>2026-03-28T09:51:04.999Z</time></trkpt><trkpt lat="44.4940373890748" lon="10.178393879798998"><ele>1050.5</ele><time>2026-03-28T09:51:15.999Z</time></trkpt><trkpt lat="44.494110530460226" lon="10.178260369177048"><ele>1049.0</ele><time>2026-03-28T09:51:17.999Z</time></trkpt><trkpt lat="44.494149448839764" lon="10.178179702213747"><ele>1049.0</ele><time>2026-03-28T09:51:18.999Z</time></trkpt><trkpt lat="44.494218303627456" lon="10.178071678116826"><ele>1049.0</ele><time>2026-03-28T09:51:19.999Z</time></trkpt><trkpt lat="44.49429421407511" lon="10.177968860556309"><ele>1049.0</ele><time>2026-03-28T09:51:20.999Z</time></trkpt><trkpt lat="44.49436989636526" lon="10.177884243776909"><ele>1049.0</ele><time>2026-03-28T09:51:21.999Z</time></trkpt><trkpt lat="44.49445175690035" lon="10.177829193806277"><ele>1049.0</ele><time>2026-03-28T09:51:22.999Z</time></trkpt><trkpt lat="44.49455404533797" lon="10.177801697539538"><ele>1045.25</ele><time>2026-03-28T09:51:23.999Z</time></trkpt><trkpt lat="44.49467037044444" lon="10.177801500767693"><ele>1041.5</ele><time>2026-03-28T09:51:24.999Z</time></trkpt><trkpt lat="44.494802833078886" lon="10.177812128564474"><ele>1037.75</ele><time>2026-03-28T09:51:25.999Z</time></trkpt><trkpt lat="44.49492961786563" lon="10.177725799949172"><ele>1034.0</ele><time>2026-03-28T09:51:27.999Z</time></trkpt><trkpt lat="44.495025358148496" lon="10.177616843327305"><ele>1034.0</ele><time>2026-03-28T09:51:29Z</time></trkpt><trkpt lat="44.495141215778524" lon="10.177518907840978"><ele>1034.0</ele><time>2026-03-28T09:51:30Z</time></trkpt><trkpt lat="44.49524466912615" lon="10.177419199951315"><ele>1034.0</ele><time>2026-03-28T09:51:31Z</time></trkpt><trkpt lat="44.495332629004245" lon="10.177315733427687"><ele>1034.0</ele><time>2026-03-28T09:51:32Z</time></trkpt><trkpt lat="44.495420088422165" lon="10.177220983883593"><ele>1032.75</ele><time>2026-03-28T09:51:33Z</time></trkpt><trkpt lat="44.495521413729804" lon="10.177116379352094"><ele>1031.5</ele><time>2026-03-28T09:51:34Z</time></trkpt><trkpt lat="44.4956436365683" lon="10.177005725179248"><ele>1030.25</ele><time>2026-03-28T09:51:35Z</time></trkpt><trkpt lat="44.495760667960454" lon="10.176933767458722"><ele>1029.0</ele><time>2026-03-28T09:51:36Z</time></trkpt><trkpt lat="44.495883216202934" lon="10.17686809425644"><ele>1029.0</ele><time>2026-03-28T09:51:37Z</time></trkpt><trkpt lat="44.49600347332949" lon="10.176801454517204"><ele>1029.0</ele><time>2026-03-28T09:51:38Z</time></trkpt><trkpt lat="44.49612692896088" lon="10.176742395422448"><ele>1029.0</ele><time>2026-03-28T09:51:39Z</time></trkpt><trkpt lat="44.496255044230274" lon="10.17668468160761"><ele>1029.0</ele><time>2026-03-28T09:51:40Z</time></trkpt><trkpt lat="44.496385305658116" lon="10.176613848449362"><ele>1029.75</ele><time>2026-03-28T09:51:41Z</time></trkpt><trkpt lat="44.496519153367146" lon="10.176553975119075"><ele>1030.5</ele><time>2026-03-28T09:51:42Z</time></trkpt><trkpt lat="44.49666060266717" lon="10.17651368224092"><ele>1031.25</ele><time>2026-03-28T09:51:43Z</time></trkpt><trkpt lat="44.496810415242734" lon="10.176505515324724"><ele>1032.0</ele><time>2026-03-28T09:51:44Z</time></trkpt><trkpt lat="44.49696206931978" lon="10.176534982338032"><ele>1025.3333333333333</ele><time>2026-03-28T09:51:45Z</time></trkpt><trkpt lat="44.49711703894972" lon="10.17658533913408"><ele>1018.6666666666666</ele><time>2026-03-28T09:51:46Z</time></trkpt><trkpt lat="44.4972751012085" lon="10.176623760469012"><ele>1012.0</ele><time>2026-03-28T09:51:47Z</time></trkpt><trkpt lat="44.49742673203304" lon="10.176679106592879"><ele>1012.0</ele><time>2026-03-28T09:51:48Z</time></trkpt><trkpt lat="44.497570105172805" lon="10.176724855564315"><ele>1012.0</ele><time>2026-03-28T09:51:49Z</time></trkpt><trkpt lat="44.49771448881792" lon="10.176769922104244"><ele>1012.0</ele><time>2026-03-28T09:51:50Z</time></trkpt><trkpt lat="44.497845880349736" lon="10.17684381188927"><ele>1012.0</ele><time>2026-03-28T09:51:51Z</time></trkpt><trkpt lat="44.4979653885411" lon="10.176954960796543"><ele>1014.0</ele><time>2026-03-28T09:51:52Z</time></trkpt><trkpt lat="44.49807850227214" lon="10.17711942928563"><ele>1016.0</ele><time>2026-03-28T09:51:53Z</time></trkpt><trkpt lat="44.498185421536235" lon="10.177293767723905"><ele>1018.0</ele><time>2026-03-28T09:51:54Z</time></trkpt><trkpt lat="44.49830493664906" lon="10.177458416460453"><ele>1012.3333333333333</ele><time>2026-03-28T09:51:55Z</time></trkpt><trkpt lat="44.49842531494077" lon="10.177617762084518"><ele>1006.6666666666667</ele><time>2026-03-28T09:51:56Z</time></trkpt><trkpt lat="44.49853459694843" lon="10.177765820095424"><ele>1001.0</ele><time>2026-03-28T09:51:57Z</time></trkpt><trkpt lat="44.49862473825962" lon="10.177939773279094"><ele>1001.0</ele><time>2026-03-28T09:51:58Z</time></trkpt><trkpt lat="44.49868347987299" lon="10.178127856963066"><ele>1001.0</ele><time>2026-03-28T09:51:59Z</time></trkpt><trkpt lat="44.498745377631906" lon="10.178319686175875"><ele>1001.0</ele><time>2026-03-28T09:52:00Z</time></trkpt><trkpt lat="44.49882600304272" lon="10.178499226624181"><ele>1001.0</ele><time>2026-03-28T09:52:01Z</time></trkpt><trkpt lat="44.49892198291136" lon="10.178649152090452"><ele>999.3333333333334</ele><time>2026-03-28T09:52:02Z</time></trkpt><trkpt lat="44.49903781538889" lon="10.178754701135935"><ele>997.6666666666667</ele><time>2026-03-28T09:52:03Z</time></trkpt><trkpt lat="44.49917891344441" lon="10.178830042693063"><ele>996.0</ele><time>2026-03-28T09:52:04Z</time></trkpt><trkpt lat="44.49933065063822" lon="10.178903207916447"><ele>996.0</ele><time>2026-03-28T09:52:05Z</time></trkpt><trkpt lat="44.4994785046719" lon="10.178964526663533"><ele>996.0</ele><time>2026-03-28T09:52:06Z</time></trkpt><trkpt lat="44.49962459246165" lon="10.17899554869832"><ele>996.0</ele><time>2026-03-28T09:52:07Z</time></trkpt><trkpt lat="44.49978656167951" lon="10.178991939786036"><ele>996.5</ele><time>2026-03-28T09:52:08Z</time></trkpt><trkpt lat="44.49993438630768" lon="10.178957073342076"><ele>997.0</ele><time>2026-03-28T09:52:09Z</time></trkpt><trkpt lat="44.500064152291756" lon="10.17898215004341"><ele>997.5</ele><time>2026-03-28T09:52:10Z</time></trkpt><trkpt lat="44.50018680799561" lon="10.179114532977021"><ele>998.0</ele><time>2026-03-28T09:52:11Z</time></trkpt><trkpt lat="44.50032434636025" lon="10.179261181084824"><ele>994.5</ele><time>2026-03-28T09:52:12Z</time></trkpt><trkpt lat="44.500420920339515" lon="10.179422428526214"><ele>991.0</ele><time>2026-03-28T09:52:13Z</time></trkpt><trkpt lat="44.50052367992345" lon="10.179563440132693"><ele>987.5</ele><time>2026-03-28T09:52:14Z</time></trkpt><trkpt lat="44.500592881174676" lon="10.179687681321152"><ele>984.0</ele><time>2026-03-28T09:52:15Z</time></trkpt><trkpt lat="44.50062900806658" lon="10.179845913653198"><ele>980.75</ele><time>2026-03-28T09:52:16Z</time></trkpt><trkpt lat="44.500635019132346" lon="10.180036960078613"><ele>977.5</ele><time>2026-03-28T09:52:17Z</time></trkpt><trkpt lat="44.50065853732596" lon="10.180196275848418"><ele>974.25</ele><time>2026-03-28T09:52:18Z</time></trkpt><trkpt lat="44.500718660668674" lon="10.180335880481143"><ele>971.0</ele><time>2026-03-28T09:52:19Z</time></trkpt><trkpt lat="44.50083022213706" lon="10.180467265423788"><ele>971.0</ele><time>2026-03-28T09:52:20Z</time></trkpt><trkpt lat="44.50096343799709" lon="10.180583241578192"><ele>971.0</ele><time>2026-03-28T09:52:21Z</time></trkpt><trkpt lat="44.50106579034834" lon="10.180678027743065"><ele>971.0</ele><time>2026-03-28T09:52:22Z</time></trkpt><trkpt lat="44.50117459804541" lon="10.180733084477739"><ele>971.0</ele><time>2026-03-28T09:52:23Z</time></trkpt><trkpt lat="44.50129932191148" lon="10.18071087836808"><ele>971.75</ele><time>2026-03-28T09:52:24Z</time></trkpt><trkpt lat="44.501429193218556" lon="10.180657073670849"><ele>972.5</ele><time>2026-03-28T09:52:25Z</time></trkpt><trkpt lat="44.50153923488171" lon="10.180666496024953"><ele>973.25</ele><time>2026-03-28T09:52:26Z</time></trkpt><trkpt lat="44.50162610777813" lon="10.180753093955195"><ele>974.0</ele><time>2026-03-28T09:52:27Z</time></trkpt><trkpt lat="44.50166866631976" lon="10.18091945116559"><ele>969.0</ele><time>2026-03-28T09:52:28Z</time></trkpt><trkpt lat="44.501731034121356" lon="10.181098649857088"><ele>964.0</ele><time>2026-03-28T09:52:29Z</time></trkpt><trkpt lat="44.501736885906425" lon="10.181316929750803"><ele>959.0</ele><time>2026-03-28T09:52:30Z</time></trkpt><trkpt lat="44.501692286001436" lon="10.181527865297056"><ele>956.5</ele><time>2026-03-28T09:52:31Z</time></trkpt><trkpt lat="44.50165533879754" lon="10.181723839944063"><ele>954.0</ele><time>2026-03-28T09:52:32Z</time></trkpt><trkpt lat="44.501597549994486" lon="10.181870972114366"><ele>951.5</ele><time>2026-03-28T09:52:33Z</time></trkpt><trkpt lat="44.50156631909253" lon="10.182000049376843"><ele>949.0</ele><time>2026-03-28T09:52:34Z</time></trkpt><trkpt lat="44.50158011317091" lon="10.182148911589804"><ele>949.0</ele><time>2026-03-28T09:52:35Z</time></trkpt><trkpt lat="44.5016424616691" lon="10.18232791163999"><ele>949.0</ele><time>2026-03-28T09:52:36Z</time></trkpt><trkpt lat="44.501718964895225" lon="10.182472005474033"><ele>949.0</ele><time>2026-03-28T09:52:36.999Z</time></trkpt><trkpt lat="44.50179259398706" lon="10.182550211337965"><ele>949.0</ele><time>2026-03-28T09:52:37.999Z</time></trkpt><trkpt lat="44.50187901050276" lon="10.182593444621775"><ele>947.25</ele><time>2026-03-28T09:52:38.999Z</time></trkpt><trkpt lat="44.50197268892774" lon="10.18257594119693"><ele>945.5</ele><time>2026-03-28T09:52:39.999Z</time></trkpt><trkpt lat="44.502092480265475" lon="10.182485709317243"><ele>943.75</ele><time>2026-03-28T09:52:40.999Z</time></trkpt><trkpt lat="44.5022278885193" lon="10.182361706623347"><ele>942.0</ele><time>2026-03-28T09:52:41.999Z</time></trkpt><trkpt lat="44.502358443635316" lon="10.182250529144746"><ele>942.0</ele><time>2026-03-28T09:52:42.999Z</time></trkpt><trkpt lat="44.502475668447815" lon="10.182153793907492"><ele>942.0</ele><time>2026-03-28T09:52:43.999Z</time></trkpt><trkpt lat="44.50258399392282" lon="10.182065383976113"><ele>942.0</ele><time>2026-03-28T09:52:44.999Z</time></trkpt><trkpt lat="44.502696741991144" lon="10.181980908830607"><ele>942.0</ele><time>2026-03-28T09:52:45.999Z</time></trkpt><trkpt lat="44.50281900531069" lon="10.181905445435033"><ele>938.5</ele><time>2026-03-28T09:52:46.999Z</time></trkpt><trkpt lat="44.502962600085425" lon="10.181874206802508"><ele>935.0</ele><time>2026-03-28T09:52:47.999Z</time></trkpt><trkpt lat="44.50311552399758" lon="10.181871210709545"><ele>931.5</ele><time>2026-03-28T09:52:48.999Z</time></trkpt><trkpt lat="44.503238904998746" lon="10.181889305888994"><ele>928.0</ele><time>2026-03-28T09:52:49.999Z</time></trkpt><trkpt lat="44.503322284032585" lon="10.181903563307875"><ele>928.0</ele><time>2026-03-28T09:52:50.999Z</time></trkpt><trkpt lat="44.50341972121365" lon="10.181905543762364"><ele>928.0</ele><time>2026-03-28T09:52:52.999Z</time></trkpt><trkpt lat="44.50355628379524" lon="10.181918543737892"><ele>928.0</ele><time>2026-03-28T09:52:54.999Z</time></trkpt><trkpt lat="44.50365004622331" lon="10.181937898783413"><ele>928.0</ele><time>2026-03-28T09:52:55.999Z</time></trkpt><trkpt lat="44.503753784073204" lon="10.181963295706593"><ele>928.0</ele><time>2026-03-28T09:52:56.999Z</time></trkpt><trkpt lat="44.50385143407488" lon="10.181982725117168"><ele>926.5</ele><time>2026-03-28T09:52:57.999Z</time></trkpt><trkpt lat="44.503954351367604" lon="10.181984111838915"><ele>925.0</ele><time>2026-03-28T09:52:58.999Z</time></trkpt><trkpt lat="44.50407390307617" lon="10.18195120298166"><ele>923.5</ele><time>2026-03-28T09:52:59.999Z</time></trkpt><trkpt lat="44.50420709917019" lon="10.181871534580553"><ele>922.0</ele><time>2026-03-28T09:53:00.999Z</time></trkpt><trkpt lat="44.50432875579016" lon="10.181787313306838"><ele>922.0</ele><time>2026-03-28T09:53:01.999Z</time></trkpt><trkpt lat="44.504424664160645" lon="10.181738949809603"><ele>922.0</ele><time>2026-03-28T09:53:02.999Z</time></trkpt><trkpt lat="44.50451173451019" lon="10.181742206641482"><ele>922.0</ele><time>2026-03-28T09:53:03.999Z</time></trkpt><trkpt lat="44.50462632016608" lon="10.181801313016352"><ele>922.0</ele><time>2026-03-28T09:53:04.999Z</time></trkpt><trkpt lat="44.50476650958376" lon="10.181888751554784"><ele>921.0</ele><time>2026-03-28T09:53:05.999Z</time></trkpt><trkpt lat="44.50491037545603" lon="10.181952711327853"><ele>920.0</ele><time>2026-03-28T09:53:06.999Z</time></trkpt><trkpt lat="44.50504025645188" lon="10.181971154885842"><ele>919.0</ele><time>2026-03-28T09:53:07.999Z</time></trkpt><trkpt lat="44.505168373668795" lon="10.181980648043362"><ele>918.0</ele><time>2026-03-28T09:53:08.999Z</time></trkpt><trkpt lat="44.50528716870795" lon="10.18203682391"><ele>918.0</ele><time>2026-03-28T09:53:09.999Z</time></trkpt><trkpt lat="44.50540196529725" lon="10.182174782233135"><ele>918.0</ele><time>2026-03-28T09:53:10.999Z</time></trkpt><trkpt lat="44.50550152618364" lon="10.182375176032876"><ele>918.0</ele><time>2026-03-28T09:53:11.999Z</time></trkpt><trkpt lat="44.5055851666827" lon="10.182562046871986"><ele>914.75</ele><time>2026-03-28T09:53:12.999Z</time></trkpt><trkpt lat="44.50566677741071" lon="10.18272438274447"><ele>911.5</ele><time>2026-03-28T09:53:13.999Z</time></trkpt><trkpt lat="44.50575406405637" lon="10.18287732916376"><ele>908.25</ele><time>2026-03-28T09:53:14.999Z</time></trkpt><trkpt lat="44.50587419108914" lon="10.183019982327467"><ele>905.0</ele><time>2026-03-28T09:53:15.999Z</time></trkpt><trkpt lat="44.50600724552087" lon="10.18313006437805"><ele>905.0</ele><time>2026-03-28T09:53:16.999Z</time></trkpt><trkpt lat="44.5061250193869" lon="10.183274800859323"><ele>905.0</ele><time>2026-03-28T09:53:17.999Z</time></trkpt><trkpt lat="44.50623386969508" lon="10.183455938509788"><ele>905.0</ele><time>2026-03-28T09:53:18.999Z</time></trkpt><trkpt lat="44.50632858607897" lon="10.18368070349971"><ele>905.0</ele><time>2026-03-28T09:53:19.999Z</time></trkpt><trkpt lat="44.50642812708794" lon="10.183896815758024"><ele>905.0</ele><time>2026-03-28T09:53:20.999Z</time></trkpt><trkpt lat="44.506532720261795" lon="10.184068814980993"><ele>905.0</ele><time>2026-03-28T09:53:21.999Z</time></trkpt><trkpt lat="44.506634940631876" lon="10.184234095085777"><ele>900.3333333333334</ele><time>2026-03-28T09:53:22.999Z</time></trkpt><trkpt lat="44.506713808134975" lon="10.18442624857137"><ele>895.6666666666667</ele><time>2026-03-28T09:53:23.999Z</time></trkpt><trkpt lat="44.50675835617374" lon="10.184637652585064"><ele>891.0</ele><time>2026-03-28T09:53:24.999Z</time></trkpt><trkpt lat="44.506763479991804" lon="10.184858444808942"><ele>888.6666666666667</ele><time>2026-03-28T09:53:25.999Z</time></trkpt><trkpt lat="44.50669734411973" lon="10.185073452872688"><ele>886.3333333333334</ele><time>2026-03-28T09:53:26.999Z</time></trkpt><trkpt lat="44.50662365732002" lon="10.18529768897501"><ele>884.0</ele><time>2026-03-28T09:53:27.999Z</time></trkpt><trkpt lat="44.50655677758461" lon="10.18552101089846"><ele>883.0</ele><time>2026-03-28T09:53:28.999Z</time></trkpt><trkpt lat="44.506487679106115" lon="10.185707240770299"><ele>882.0</ele><time>2026-03-28T09:53:29.999Z</time></trkpt><trkpt lat="44.506447144548396" lon="10.185896073269829"><ele>881.0</ele><time>2026-03-28T09:53:30.999Z</time></trkpt><trkpt lat="44.506435771928935" lon="10.186134169222452"><ele>881.0</ele><time>2026-03-28T09:53:31.999Z</time></trkpt><trkpt lat="44.50647381754111" lon="10.186387873176276"><ele>881.0</ele><time>2026-03-28T09:53:32.999Z</time></trkpt><trkpt lat="44.50650132672878" lon="10.186667666802164"><ele>881.0</ele><time>2026-03-28T09:53:33.999Z</time></trkpt><trkpt lat="44.50653812059457" lon="10.186938001490487"><ele>878.3333333333334</ele><time>2026-03-28T09:53:35Z</time></trkpt><trkpt lat="44.506568674299274" lon="10.18718214066313"><ele>875.6666666666667</ele><time>2026-03-28T09:53:36Z</time></trkpt><trkpt lat="44.50659987123225" lon="10.18741723801085"><ele>873.0</ele><time>2026-03-28T09:53:37Z</time></trkpt><trkpt lat="44.506613631207074" lon="10.187642563416816"><ele>872.3333333333333</ele><time>2026-03-28T09:53:38Z</time></trkpt><trkpt lat="44.50663075903964" lon="10.187855269552506"><ele>871.6666666666666</ele><time>2026-03-28T09:53:39Z</time></trkpt><trkpt lat="44.50664667507292" lon="10.188072480321154"><ele>871.0</ele><time>2026-03-28T09:53:40Z</time></trkpt><trkpt lat="44.506680570799055" lon="10.18828599810534"><ele>870.3333333333333</ele><time>2026-03-28T09:53:41Z</time></trkpt><trkpt lat="44.50668919921226" lon="10.188455114314943"><ele>869.6666666666666</ele><time>2026-03-28T09:53:42Z</time></trkpt><trkpt lat="44.50669277456725" lon="10.188596846880987"><ele>869.0</ele><time>2026-03-28T09:53:43Z</time></trkpt><trkpt lat="44.506693420572276" lon="10.188696673800141"><ele>868.3333333333333</ele><time>2026-03-28T09:53:44Z</time></trkpt><trkpt lat="44.506699604347226" lon="10.188808358146371"><ele>867.6666666666666</ele><time>2026-03-28T09:53:46Z</time></trkpt><trkpt lat="44.506669752663875" lon="10.18889707086697"><ele>867.0</ele><time>2026-03-28T09:54:27Z</time></trkpt><trkpt lat="44.5066674975268" lon="10.18901824894703"><ele>865.8333333333334</ele><time>2026-03-28T09:54:29Z</time></trkpt><trkpt lat="44.50670112043974" lon="10.189105239706045"><ele>864.6666666666667</ele><time>2026-03-28T09:54:30Z</time></trkpt><trkpt lat="44.506742014766495" lon="10.18920002518739"><ele>863.5</ele><time>2026-03-28T09:54:31Z</time></trkpt><trkpt lat="44.50678237839722" lon="10.189302745328186"><ele>862.3333333333334</ele><time>2026-03-28T09:54:32Z</time></trkpt><trkpt lat="44.506828346156205" lon="10.189414791291005"><ele>861.1666666666667</ele><time>2026-03-28T09:54:33Z</time></trkpt><trkpt lat="44.50687239229273" lon="10.189510171344647"><ele>860.0</ele><time>2026-03-28T09:54:34Z</time></trkpt><trkpt lat="44.50692113279082" lon="10.189616042141733"><ele>860.0000000000001</ele><time>2026-03-28T09:54:35Z</time></trkpt><trkpt lat="44.50698010837828" lon="10.18971535269761"><ele>860.0</ele><time>2026-03-28T09:54:36Z</time></trkpt><trkpt lat="44.5070378281478" lon="10.189808177016666"><ele>860.0</ele><time>2026-03-28T09:54:37Z</time></trkpt><trkpt lat="44.507086403194926" lon="10.189870321231245"><ele>860.0</ele><time>2026-03-28T09:54:38Z</time></trkpt><trkpt lat="44.50713641848697" lon="10.18995183661639"><ele>860.0000000000001</ele><time>2026-03-28T09:54:40.999Z</time></trkpt><trkpt lat="44.50724078072127" lon="10.190029519915093"><ele>860.0</ele><time>2026-03-28T09:54:43.999Z</time></trkpt><trkpt lat="44.50731856305376" lon="10.190046448691195"><ele>861.2</ele><time>2026-03-28T09:54:44.999Z</time></trkpt><trkpt lat="44.50739941147309" lon="10.190051487073411"><ele>862.4</ele><time>2026-03-28T09:54:45.999Z</time></trkpt><trkpt lat="44.50748733394977" lon="10.190051698860788"><ele>863.5999999999999</ele><time>2026-03-28T09:54:46.999Z</time></trkpt><trkpt lat="44.507591406326945" lon="10.190064308591285"><ele>864.8</ele><time>2026-03-28T09:54:47.999Z</time></trkpt><trkpt lat="44.507718987525905" lon="10.190108506236866"><ele>866.0</ele><time>2026-03-28T09:54:48.999Z</time></trkpt><trkpt lat="44.507841066019196" lon="10.190203888125437"><ele>869.25</ele><time>2026-03-28T09:54:49.999Z</time></trkpt><trkpt lat="44.50795259048783" lon="10.190324041121238"><ele>872.5</ele><time>2026-03-28T09:54:50.999Z</time></trkpt><trkpt lat="44.508055020969074" lon="10.190451592111"><ele>875.75</ele><time>2026-03-28T09:54:51.999Z</time></trkpt><trkpt lat="44.50815038254706" lon="10.190572249330279"><ele>879.0</ele><time>2026-03-28T09:54:52.999Z</time></trkpt><trkpt lat="44.50824103282111" lon="10.19066321783794"><ele>873.0</ele><time>2026-03-28T09:54:53.999Z</time></trkpt><trkpt lat="44.50834499522619" lon="10.190743868694009"><ele>867.0</ele><time>2026-03-28T09:54:54.999Z</time></trkpt><trkpt lat="44.50846977305465" lon="10.190795300678712"><ele>861.0</ele><time>2026-03-28T09:54:55.999Z</time></trkpt><trkpt lat="44.50860689442772" lon="10.190832315377518"><ele>855.0</ele><time>2026-03-28T09:54:56.999Z</time></trkpt><trkpt lat="44.50873821584345" lon="10.190873789378228"><ele>856.3333333333333</ele><time>2026-03-28T09:54:57.999Z</time></trkpt><trkpt lat="44.50888555437514" lon="10.190921176416463"><ele>857.6666666666666</ele><time>2026-03-28T09:54:58.999Z</time></trkpt><trkpt lat="44.50903305117442" lon="10.19096966658186"><ele>859.0</ele><time>2026-03-28T09:54:59.999Z</time></trkpt><trkpt lat="44.50918267789153" lon="10.191024655025142"><ele>859.0</ele><time>2026-03-28T09:55:00.999Z</time></trkpt><trkpt lat="44.50933342163837" lon="10.19109951952589"><ele>859.0</ele><time>2026-03-28T09:55:01.999Z</time></trkpt><trkpt lat="44.50946898065278" lon="10.191188998296306"><ele>859.0</ele><time>2026-03-28T09:55:02.999Z</time></trkpt><trkpt lat="44.50960688295856" lon="10.191261202539922"><ele>859.25</ele><time>2026-03-28T09:55:03.999Z</time></trkpt><trkpt lat="44.50974302371786" lon="10.191305268519752"><ele>859.5</ele><time>2026-03-28T09:55:04.999Z</time></trkpt><trkpt lat="44.5098923509688" lon="10.191322501920803"><ele>859.75</ele><time>2026-03-28T09:55:05.999Z</time></trkpt><trkpt lat="44.51004557808152" lon="10.191292438970109"><ele>860.0</ele><time>2026-03-28T09:55:06.999Z</time></trkpt><trkpt lat="44.51020415128187" lon="10.191241108858586"><ele>860.0</ele><time>2026-03-28T09:55:07.999Z</time></trkpt><trkpt lat="44.51036850577264" lon="10.191210894667062"><ele>860.0</ele><time>2026-03-28T09:55:08.999Z</time></trkpt><trkpt lat="44.510512548587435" lon="10.191217227720948"><ele>860.0</ele><time>2026-03-28T09:55:09.999Z</time></trkpt><trkpt lat="44.510657484408426" lon="10.191267678792912"><ele>858.8</ele><time>2026-03-28T09:55:10.999Z</time></trkpt><trkpt lat="44.510787778877884" lon="10.191334257896349"><ele>857.6</ele><time>2026-03-28T09:55:11.999Z</time></trkpt><trkpt lat="44.51089327733869" lon="10.191405263415172"><ele>856.4000000000001</ele><time>2026-03-28T09:55:12.999Z</time></trkpt><trkpt lat="44.51096636887881" lon="10.191458944884797"><ele>855.2</ele><time>2026-03-28T09:55:13.999Z</time></trkpt><trkpt lat="44.51103983429319" lon="10.191495012322342"><ele>854.0</ele><time>2026-03-28T09:55:14.999Z</time></trkpt><trkpt lat="44.51112608242723" lon="10.191502707244963"><ele>854.0000000000001</ele><time>2026-03-28T09:55:15.999Z</time></trkpt><trkpt lat="44.51121621820375" lon="10.191475022517372"><ele>854.0</ele><time>2026-03-28T09:55:16.999Z</time></trkpt><trkpt lat="44.51131007003493" lon="10.191429866694445"><ele>854.0</ele><time>2026-03-28T09:55:17.999Z</time></trkpt><trkpt lat="44.51137398362543" lon="10.191385872713798"><ele>854.0</ele><time>2026-03-28T09:55:18.999Z</time></trkpt><trkpt lat="44.51143898720018" lon="10.19134859089839"><ele>854.0000000000001</ele><time>2026-03-28T09:55:21.999Z</time></trkpt><trkpt lat="44.51151271471825" lon="10.191335506875468"><ele>854.0</ele><time>2026-03-28T09:55:26.999Z</time></trkpt><trkpt lat="44.51159957154067" lon="10.191227214112024"><ele>853.25</ele><time>2026-03-28T09:55:30.999Z</time></trkpt><trkpt lat="44.51166409563863" lon="10.191128564831502"><ele>852.5</ele><time>2026-03-28T09:55:31.999Z</time></trkpt><trkpt lat="44.51176275516952" lon="10.191034232629152"><ele>851.75</ele><time>2026-03-28T09:55:32.999Z</time></trkpt><trkpt lat="44.51187016413215" lon="10.190948234150659"><ele>851.0</ele><time>2026-03-28T09:55:33.999Z</time></trkpt><trkpt lat="44.51198090062244" lon="10.190902354907443"><ele>850.75</ele><time>2026-03-28T09:55:34.999Z</time></trkpt><trkpt lat="44.512107619147294" lon="10.190898942109108"><ele>850.5</ele><time>2026-03-28T09:55:35.999Z</time></trkpt><trkpt lat="44.512241156359586" lon="10.190979778560925"><ele>850.25</ele><time>2026-03-28T09:55:36.999Z</time></trkpt><trkpt lat="44.512331591659766" lon="10.191136131096828"><ele>850.0</ele><time>2026-03-28T09:55:37.999Z</time></trkpt><trkpt lat="44.512422807407766" lon="10.191295677828938"><ele>850.0</ele><time>2026-03-28T09:55:38.999Z</time></trkpt><trkpt lat="44.5124930717408" lon="10.191448482048088"><ele>850.0</ele><time>2026-03-28T09:55:39.999Z</time></trkpt><trkpt lat="44.512606581710145" lon="10.191545530858289"><ele>850.0</ele><time>2026-03-28T09:55:41Z</time></trkpt><trkpt lat="44.51276492101876" lon="10.191623228204213"><ele>850.0</ele><time>2026-03-28T09:55:42Z</time></trkpt><trkpt lat="44.51291923649693" lon="10.19169663966253"><ele>847.75</ele><time>2026-03-28T09:55:43Z</time></trkpt><trkpt lat="44.5130477618379" lon="10.191785666966059"><ele>845.5</ele><time>2026-03-28T09:55:44Z</time></trkpt><trkpt lat="44.51315980253026" lon="10.191882142771071"><ele>843.25</ele><time>2026-03-28T09:55:45Z</time></trkpt><trkpt lat="44.513277377074445" lon="10.191948831815282"><ele>841.0</ele><time>2026-03-28T09:55:46Z</time></trkpt><trkpt lat="44.51342443148357" lon="10.191962818060079"><ele>841.0</ele><time>2026-03-28T09:55:47Z</time></trkpt><trkpt lat="44.51358547988303" lon="10.191933451258421"><ele>841.0</ele><time>2026-03-28T09:55:48Z</time></trkpt><trkpt lat="44.51372841774873" lon="10.191947383671355"><ele>841.0</ele><time>2026-03-28T09:55:49Z</time></trkpt><trkpt lat="44.513862534324716" lon="10.192013535322495"><ele>841.0</ele><time>2026-03-28T09:55:50Z</time></trkpt><trkpt lat="44.51399136717445" lon="10.192070150324774"><ele>840.5</ele><time>2026-03-28T09:55:51Z</time></trkpt><trkpt lat="44.51411578157502" lon="10.192124039784296"><ele>840.0</ele><time>2026-03-28T09:55:52Z</time></trkpt><trkpt lat="44.51422973378504" lon="10.192163500365565"><ele>839.5</ele><time>2026-03-28T09:55:53Z</time></trkpt><trkpt lat="44.51435500326483" lon="10.192189002937857"><ele>839.0</ele><time>2026-03-28T09:55:54Z</time></trkpt><trkpt lat="44.51449363921639" lon="10.192217912070692"><ele>836.75</ele><time>2026-03-28T09:55:55Z</time></trkpt><trkpt lat="44.51463129041641" lon="10.192244181589798"><ele>834.5</ele><time>2026-03-28T09:55:56Z</time></trkpt><trkpt lat="44.51476389460894" lon="10.19228292988341"><ele>832.25</ele><time>2026-03-28T09:55:57Z</time></trkpt><trkpt lat="44.51488781776438" lon="10.192333366931468"><ele>830.0</ele><time>2026-03-28T09:55:58Z</time></trkpt><trkpt lat="44.51499948923469" lon="10.192370183970056"><ele>828.8333333333334</ele><time>2026-03-28T09:55:59Z</time></trkpt><trkpt lat="44.51509075269166" lon="10.192392811963973"><ele>827.6666666666667</ele><time>2026-03-28T09:56:00Z</time></trkpt><trkpt lat="44.51516624783033" lon="10.192415513240041"><ele>826.5</ele><time>2026-03-28T09:56:01Z</time></trkpt><trkpt lat="44.515243579126626" lon="10.192419750521987"><ele>825.3333333333333</ele><time>2026-03-28T09:56:02Z</time></trkpt><trkpt lat="44.515323479235086" lon="10.192397571385966"><ele>824.1666666666666</ele><time>2026-03-28T09:56:03Z</time></trkpt><trkpt lat="44.51542201425785" lon="10.192358864616562"><ele>823.0</ele><time>2026-03-28T09:56:04Z</time></trkpt><trkpt lat="44.51552841671119" lon="10.192317849921206"><ele>821.25</ele><time>2026-03-28T09:56:05Z</time></trkpt><trkpt lat="44.51563985521202" lon="10.192277424914494"><ele>819.5</ele><time>2026-03-28T09:56:06Z</time></trkpt><trkpt lat="44.515760132190266" lon="10.192244835418377"><ele>817.75</ele><time>2026-03-28T09:56:07Z</time></trkpt><trkpt lat="44.515878459591825" lon="10.192212487790957"><ele>816.0</ele><time>2026-03-28T09:56:08Z</time></trkpt><trkpt lat="44.515998098003536" lon="10.192171488216209"><ele>816.0</ele><time>2026-03-28T09:56:09Z</time></trkpt><trkpt lat="44.51612046640102" lon="10.192134954378394"><ele>816.0</ele><time>2026-03-28T09:56:10Z</time></trkpt><trkpt lat="44.516235271559815" lon="10.192093643824633"><ele>816.0</ele><time>2026-03-28T09:56:11Z</time></trkpt><trkpt lat="44.51634387888094" lon="10.192055892106366"><ele>816.0</ele><time>2026-03-28T09:56:12Z</time></trkpt><trkpt lat="44.51644242584373" lon="10.19202384366468"><ele>814.6666666666666</ele><time>2026-03-28T09:56:13Z</time></trkpt><trkpt lat="44.5165351924666" lon="10.19199832462522"><ele>813.3333333333333</ele><time>2026-03-28T09:56:14Z</time></trkpt><trkpt lat="44.51661647659481" lon="10.191971554306194"><ele>812.0</ele><time>2026-03-28T09:56:15Z</time></trkpt><trkpt lat="44.516688142147046" lon="10.191941964005958"><ele>810.6666666666666</ele><time>2026-03-28T09:56:16Z</time></trkpt><trkpt lat="44.51675643338894" lon="10.19191089512655"><ele>809.3333333333333</ele><time>2026-03-28T09:56:17Z</time></trkpt><trkpt lat="44.51682631581627" lon="10.191912098729693"><ele>808.0</ele><time>2026-03-28T09:56:18Z</time></trkpt><trkpt lat="44.5169081952064" lon="10.191945456890707"><ele>807.9999999999999</ele><time>2026-03-28T09:56:19Z</time></trkpt><trkpt lat="44.516989079252404" lon="10.192014999582156"><ele>808.0</ele><time>2026-03-28T09:56:20Z</time></trkpt><trkpt lat="44.517048693947345" lon="10.19211194555557"><ele>808.0</ele><time>2026-03-28T09:56:21Z</time></trkpt><trkpt lat="44.51710115964246" lon="10.192187894169722"><ele>808.0</ele><time>2026-03-28T09:56:22Z</time></trkpt><trkpt lat="44.517154572584595" lon="10.1922578921016"><ele>807.9999999999999</ele><time>2026-03-28T09:56:23Z</time></trkpt><trkpt lat="44.51720552865539" lon="10.192316980552652"><ele>808.0</ele><time>2026-03-28T09:56:24Z</time></trkpt><trkpt lat="44.5173066028567" lon="10.192402851790941"><ele>808.1428571428571</ele><time>2026-03-28T09:56:26Z</time></trkpt><trkpt lat="44.51736600303338" lon="10.192440340222038"><ele>808.2857142857142</ele><time>2026-03-28T09:56:27Z</time></trkpt><trkpt lat="44.51744233668066" lon="10.192480034095542"><ele>808.4285714285714</ele><time>2026-03-28T09:56:28Z</time></trkpt><trkpt lat="44.517515775321485" lon="10.192525566039313"><ele>808.5714285714286</ele><time>2026-03-28T09:56:29Z</time></trkpt><trkpt lat="44.517580259347724" lon="10.192579488480268"><ele>808.7142857142858</ele><time>2026-03-28T09:56:30Z</time></trkpt><trkpt lat="44.51764217870533" lon="10.192634979095583"><ele>808.8571428571429</ele><time>2026-03-28T09:56:31Z</time></trkpt><trkpt lat="44.51769508935845" lon="10.192684137377277"><ele>809.0</ele><time>2026-03-28T09:56:32Z</time></trkpt><trkpt lat="44.517784266384695" lon="10.19278819335847"><ele>809.0</ele><time>2026-03-28T09:56:34Z</time></trkpt><trkpt lat="44.51784191784269" lon="10.192950565799064"><ele>809.0</ele><time>2026-03-28T09:56:36Z</time></trkpt><trkpt lat="44.51787760473043" lon="10.193062673848207"><ele>809.0</ele><time>2026-03-28T09:56:37Z</time></trkpt><trkpt lat="44.51789236293147" lon="10.19319859889973"><ele>809.0</ele><time>2026-03-28T09:56:38Z</time></trkpt><trkpt lat="44.51790859493044" lon="10.193343416521385"><ele>809.0</ele><time>2026-03-28T09:56:39Z</time></trkpt><trkpt lat="44.51792949711321" lon="10.193489199429784"><ele>806.5</ele><time>2026-03-28T09:56:40Z</time></trkpt><trkpt lat="44.51795434949628" lon="10.193634970938755"><ele>804.0</ele><time>2026-03-28T09:56:41Z</time></trkpt><trkpt lat="44.51798116866962" lon="10.193780460992823"><ele>801.5</ele><time>2026-03-28T09:56:42Z</time></trkpt><trkpt lat="44.51801678209785" lon="10.193945900779012"><ele>799.0</ele><time>2026-03-28T09:56:43Z</time></trkpt><trkpt lat="44.51806304271713" lon="10.194142821651058"><ele>799.0</ele><time>2026-03-28T09:56:44Z</time></trkpt><trkpt lat="44.518103825634974" lon="10.194355866221095"><ele>799.0</ele><time>2026-03-28T09:56:45Z</time></trkpt><trkpt lat="44.518142928704975" lon="10.194565133057138"><ele>799.0</ele><time>2026-03-28T09:56:45.999Z</time></trkpt><trkpt lat="44.51818825261849" lon="10.194755282016857"><ele>801.0</ele><time>2026-03-28T09:56:46.999Z</time></trkpt><trkpt lat="44.51826987097271" lon="10.194936847567714"><ele>803.0</ele><time>2026-03-28T09:56:47.999Z</time></trkpt><trkpt lat="44.518361340774796" lon="10.195110464354567"><ele>805.0</ele><time>2026-03-28T09:56:48.999Z</time></trkpt><trkpt lat="44.51845599843773" lon="10.195279856769602"><ele>805.0</ele><time>2026-03-28T09:56:49.999Z</time></trkpt><trkpt lat="44.51854991499209" lon="10.195434296813612"><ele>805.0</ele><time>2026-03-28T09:56:50.999Z</time></trkpt><trkpt lat="44.5186508271627" lon="10.195575174092907"><ele>805.0</ele><time>2026-03-28T09:56:51.999Z</time></trkpt><trkpt lat="44.51874412140659" lon="10.195717429565132"><ele>805.0</ele><time>2026-03-28T09:56:52.999Z</time></trkpt><trkpt lat="44.518811465752" lon="10.195875749513213"><ele>802.75</ele><time>2026-03-28T09:56:53.999Z</time></trkpt><trkpt lat="44.518854906824" lon="10.196045612992089"><ele>800.5</ele><time>2026-03-28T09:56:54.999Z</time></trkpt><trkpt lat="44.51889595647897" lon="10.196190698233407"><ele>798.25</ele><time>2026-03-28T09:56:55.999Z</time></trkpt><trkpt lat="44.518945139861714" lon="10.196333316786856"><ele>796.0</ele><time>2026-03-28T09:56:56.999Z</time></trkpt><trkpt lat="44.51899907545406" lon="10.196480355608802"><ele>797.5999999999999</ele><time>2026-03-28T09:56:57.999Z</time></trkpt><trkpt lat="44.519049688697514" lon="10.196613309744231"><ele>799.2</ele><time>2026-03-28T09:56:58.999Z</time></trkpt><trkpt lat="44.51909586556799" lon="10.196736193549327"><ele>800.8</ele><time>2026-03-28T09:56:59.999Z</time></trkpt><trkpt lat="44.51914073705993" lon="10.196854074300754"><ele>802.4000000000001</ele><time>2026-03-28T09:57:00.999Z</time></trkpt><trkpt lat="44.51918318009692" lon="10.196981391086679"><ele>804.0</ele><time>2026-03-28T09:57:01.999Z</time></trkpt><trkpt lat="44.51922732366515" lon="10.197113355726403"><ele>804.0</ele><time>2026-03-28T09:57:02.999Z</time></trkpt><trkpt lat="44.51926679637952" lon="10.197246797930553"><ele>804.0</ele><time>2026-03-28T09:57:03.999Z</time></trkpt><trkpt lat="44.519308831311925" lon="10.197379344568894"><ele>804.0</ele><time>2026-03-28T09:57:04.999Z</time></trkpt><trkpt lat="44.519353787322835" lon="10.197508379891714"><ele>804.0</ele><time>2026-03-28T09:57:05.999Z</time></trkpt><trkpt lat="44.51939235525225" lon="10.197631222453627"><ele>804.0</ele><time>2026-03-28T09:57:06.999Z</time></trkpt><trkpt lat="44.51942616723954" lon="10.197749109766033"><ele>803.6666666666666</ele><time>2026-03-28T09:57:07.999Z</time></trkpt><trkpt lat="44.51947237652991" lon="10.197878150378319"><ele>803.3333333333333</ele><time>2026-03-28T09:57:08.999Z</time></trkpt><trkpt lat="44.519518189498186" lon="10.197995360884907"><ele>803.0</ele><time>2026-03-28T09:57:09.999Z</time></trkpt><trkpt lat="44.519554096494936" lon="10.198106367693178"><ele>802.6666666666666</ele><time>2026-03-28T09:57:10.999Z</time></trkpt><trkpt lat="44.519587385365305" lon="10.1982066786942"><ele>802.3333333333333</ele><time>2026-03-28T09:57:11.999Z</time></trkpt><trkpt lat="44.51961805930287" lon="10.198311327192053"><ele>802.0</ele><time>2026-03-28T09:57:12.999Z</time></trkpt><trkpt lat="44.51965587093962" lon="10.198400342914105"><ele>801.6666666666666</ele><time>2026-03-28T09:57:13.999Z</time></trkpt><trkpt lat="44.519693930905675" lon="10.198488591261269"><ele>801.3333333333333</ele><time>2026-03-28T09:57:14.999Z</time></trkpt><trkpt lat="44.519736503246754" lon="10.198600468937933"><ele>801.0</ele><time>2026-03-28T09:57:15.999Z</time></trkpt><trkpt lat="44.5197597437141" lon="10.198710934433574"><ele>800.6666666666667</ele><time>2026-03-28T09:57:16.999Z</time></trkpt><trkpt lat="44.51978635969875" lon="10.198821138913035"><ele>800.3333333333334</ele><time>2026-03-28T09:57:17.999Z</time></trkpt><trkpt lat="44.5198111531784" lon="10.198929027465848"><ele>800.0</ele><time>2026-03-28T09:57:18.999Z</time></trkpt><trkpt lat="44.51984828736744" lon="10.199045956038855"><ele>800.0</ele><time>2026-03-28T09:57:19.999Z</time></trkpt><trkpt lat="44.51989105537644" lon="10.199156327973439"><ele>800.0</ele><time>2026-03-28T09:57:20.999Z</time></trkpt><trkpt lat="44.51994240090141" lon="10.199272366961358"><ele>800.0</ele><time>2026-03-28T09:57:21.999Z</time></trkpt><trkpt lat="44.51999529902894" lon="10.199379610072134"><ele>800.0</ele><time>2026-03-28T09:57:22.999Z</time></trkpt><trkpt lat="44.52005532083686" lon="10.19947467613213"><ele>800.0</ele><time>2026-03-28T09:57:23.999Z</time></trkpt><trkpt lat="44.52012023964841" lon="10.199548746314756"><ele>800.0000000000001</ele><time>2026-03-28T09:57:24.999Z</time></trkpt><trkpt lat="44.52019673848198" lon="10.199621766293141"><ele>800.0</ele><time>2026-03-28T09:57:25.999Z</time></trkpt><trkpt lat="44.520270259738616" lon="10.199696794383808"><ele>800.0</ele><time>2026-03-28T09:57:26.999Z</time></trkpt><trkpt lat="44.52036401212015" lon="10.199734609179133"><ele>800.0</ele><time>2026-03-28T09:57:27.999Z</time></trkpt><trkpt lat="44.52044369376294" lon="10.199786279200406"><ele>800.0000000000001</ele><time>2026-03-28T09:57:28.999Z</time></trkpt><trkpt lat="44.520519535692465" lon="10.199817441935135"><ele>800.0</ele><time>2026-03-28T09:57:29.999Z</time></trkpt><trkpt lat="44.52059613739064" lon="10.199850431448704"><ele>799.8333333333334</ele><time>2026-03-28T09:57:30.999Z</time></trkpt><trkpt lat="44.520674154350615" lon="10.199880815359029"><ele>799.6666666666667</ele><time>2026-03-28T09:57:31.999Z</time></trkpt><trkpt lat="44.520751336062034" lon="10.199913099623583"><ele>799.5</ele><time>2026-03-28T09:57:32.999Z</time></trkpt><trkpt lat="44.52083461814818" lon="10.199939960003553"><ele>799.3333333333333</ele><time>2026-03-28T09:57:33.999Z</time></trkpt><trkpt lat="44.52092346246587" lon="10.19996302697035"><ele>799.1666666666666</ele><time>2026-03-28T09:57:34.999Z</time></trkpt><trkpt lat="44.52100102824535" lon="10.199988338736379"><ele>799.0</ele><time>2026-03-28T09:57:35.999Z</time></trkpt><trkpt lat="44.5210853154499" lon="10.200023071972458"><ele>799.0</ele><time>2026-03-28T09:57:36.999Z</time></trkpt><trkpt lat="44.52116366711948" lon="10.200059433324203"><ele>799.0</ele><time>2026-03-28T09:57:37.999Z</time></trkpt><trkpt lat="44.521265882367544" lon="10.200074515381496"><ele>799.0</ele><time>2026-03-28T09:57:38.999Z</time></trkpt><trkpt lat="44.52135631791367" lon="10.200093922290431"><ele>799.0</ele><time>2026-03-28T09:57:39.999Z</time></trkpt><trkpt lat="44.52144525810364" lon="10.200116229290545"><ele>799.0</ele><time>2026-03-28T09:57:40.999Z</time></trkpt><trkpt lat="44.521555589118464" lon="10.200111414372772"><ele>798.6</ele><time>2026-03-28T09:57:41.999Z</time></trkpt><trkpt lat="44.52164945205354" lon="10.200096859127513"><ele>798.2</ele><time>2026-03-28T09:57:42.999Z</time></trkpt><trkpt lat="44.521744079968855" lon="10.200096281918725"><ele>797.8000000000001</ele><time>2026-03-28T09:57:43.999Z</time></trkpt><trkpt lat="44.5218285807166" lon="10.20010135593939"><ele>797.4000000000001</ele><time>2026-03-28T09:57:44.999Z</time></trkpt><trkpt lat="44.52191363686351" lon="10.200094400661753"><ele>797.0</ele><time>2026-03-28T09:57:45.999Z</time></trkpt><trkpt lat="44.52200655927" lon="10.200083380159052"><ele>796.8</ele><time>2026-03-28T09:57:47Z</time></trkpt><trkpt lat="44.522109314047015" lon="10.200075078424334"><ele>796.6</ele><time>2026-03-28T09:57:48Z</time></trkpt><trkpt lat="44.522218443669104" lon="10.200064458021213"><ele>796.4</ele><time>2026-03-28T09:57:49Z</time></trkpt><trkpt lat="44.52233270210674" lon="10.200057174606162"><ele>796.1999999999999</ele><time>2026-03-28T09:57:50Z</time></trkpt><trkpt lat="44.52244569207731" lon="10.200055787099059"><ele>796.0</ele><time>2026-03-28T09:57:51Z</time></trkpt><trkpt lat="44.52255640309391" lon="10.200055986816823"><ele>796.0</ele><time>2026-03-28T09:57:52Z</time></trkpt><trkpt lat="44.52265754047099" lon="10.200058019414607"><ele>796.0</ele><time>2026-03-28T09:57:53Z</time></trkpt><trkpt lat="44.52275480368018" lon="10.200089972476388"><ele>796.0</ele><time>2026-03-28T09:57:54Z</time></trkpt><trkpt lat="44.52285833527286" lon="10.200148091991874"><ele>796.0</ele><time>2026-03-28T09:57:55Z</time></trkpt><trkpt lat="44.52296405818031" lon="10.200244180531525"><ele>796.0</ele><time>2026-03-28T09:57:56Z</time></trkpt><trkpt lat="44.52306308894653" lon="10.20037330949321"><ele>796.25</ele><time>2026-03-28T09:57:57Z</time></trkpt><trkpt lat="44.52317235395647" lon="10.200509987034415"><ele>796.5</ele><time>2026-03-28T09:57:58Z</time></trkpt><trkpt lat="44.52328413816015" lon="10.200643742461116"><ele>796.75</ele><time>2026-03-28T09:57:59Z</time></trkpt><trkpt lat="44.52339888721911" lon="10.200766094118622"><ele>797.0</ele><time>2026-03-28T09:58:00Z</time></trkpt><trkpt lat="44.52351790868807" lon="10.20087457689726"><ele>794.75</ele><time>2026-03-28T09:58:01Z</time></trkpt><trkpt lat="44.5236490910566" lon="10.200944890097297"><ele>792.5</ele><time>2026-03-28T09:58:02Z</time></trkpt><trkpt lat="44.523789049521305" lon="10.200969504727997"><ele>790.25</ele><time>2026-03-28T09:58:03Z</time></trkpt><trkpt lat="44.52392771931796" lon="10.200952963099839"><ele>788.0</ele><time>2026-03-28T09:58:04Z</time></trkpt><trkpt lat="44.52406138415661" lon="10.200909616639258"><ele>787.25</ele><time>2026-03-28T09:58:05Z</time></trkpt><trkpt lat="44.52418793143435" lon="10.200833951318359"><ele>786.5</ele><time>2026-03-28T09:58:06Z</time></trkpt><trkpt lat="44.52429320022958" lon="10.200712899143115"><ele>785.75</ele><time>2026-03-28T09:58:07Z</time></trkpt><trkpt lat="44.52440190406072" lon="10.200586210015269"><ele>785.0</ele><time>2026-03-28T09:58:08Z</time></trkpt><trkpt lat="44.524515440031294" lon="10.200489740053712"><ele>782.0</ele><time>2026-03-28T09:58:09Z</time></trkpt><trkpt lat="44.52463061298314" lon="10.200386474069452"><ele>779.0</ele><time>2026-03-28T09:58:10Z</time></trkpt><trkpt lat="44.52474386353827" lon="10.200278824327924"><ele>776.0</ele><time>2026-03-28T09:58:11Z</time></trkpt><trkpt lat="44.524852348404714" lon="10.200180828754888"><ele>773.0</ele><time>2026-03-28T09:58:12Z</time></trkpt><trkpt lat="44.52495437361582" lon="10.200100782898225"><ele>773.0</ele><time>2026-03-28T09:58:13Z</time></trkpt><trkpt lat="44.52506171518598" lon="10.200036626059292"><ele>773.0</ele><time>2026-03-28T09:58:14Z</time></trkpt><trkpt lat="44.525165203589694" lon="10.199980097050924"><ele>773.0</ele><time>2026-03-28T09:58:15Z</time></trkpt><trkpt lat="44.52528115634039" lon="10.199955054709385"><ele>773.0</ele><time>2026-03-28T09:58:16Z</time></trkpt><trkpt lat="44.52542249609112" lon="10.199964295977567"><ele>770.6666666666667</ele><time>2026-03-28T09:58:17Z</time></trkpt><trkpt lat="44.525567984206184" lon="10.19998913354101"><ele>768.3333333333334</ele><time>2026-03-28T09:58:18Z</time></trkpt><trkpt lat="44.52575958750437" lon="10.200034759820097"><ele>766.0</ele><time>2026-03-28T09:58:19Z</time></trkpt><trkpt lat="44.525917654907936" lon="10.200103865396024"><ele>766.0</ele><time>2026-03-28T09:58:20Z</time></trkpt><trkpt lat="44.5260445281118" lon="10.200153963694126"><ele>766.0</ele><time>2026-03-28T09:58:21Z</time></trkpt><trkpt lat="44.526138906262986" lon="10.20021097556154"><ele>766.0</ele><time>2026-03-28T09:58:22Z</time></trkpt><trkpt lat="44.52620965438143" lon="10.200299656344235"><ele>766.0</ele><time>2026-03-28T09:58:23Z</time></trkpt><trkpt lat="44.526248818997914" lon="10.20043467314915"><ele>766.0</ele><time>2026-03-28T09:58:24Z</time></trkpt><trkpt lat="44.52625828907711" lon="10.200616282560842"><ele>766.75</ele><time>2026-03-28T09:58:25Z</time></trkpt><trkpt lat="44.52623079422448" lon="10.200823761658704"><ele>767.5</ele><time>2026-03-28T09:58:26Z</time></trkpt><trkpt lat="44.52618922681328" lon="10.20102818054566"><ele>768.25</ele><time>2026-03-28T09:58:27Z</time></trkpt><trkpt lat="44.52616827887752" lon="10.2012323462613"><ele>769.0</ele><time>2026-03-28T09:58:28Z</time></trkpt><trkpt lat="44.52617242131812" lon="10.20144908305842"><ele>768.0</ele><time>2026-03-28T09:58:29Z</time></trkpt><trkpt lat="44.526219821831674" lon="10.201678301688338"><ele>767.0</ele><time>2026-03-28T09:58:30Z</time></trkpt><trkpt lat="44.52633055127674" lon="10.201941208317981"><ele>766.0</ele><time>2026-03-28T09:58:31Z</time></trkpt><trkpt lat="44.52645131525881" lon="10.202193993674696"><ele>760.6666666666667</ele><time>2026-03-28T09:58:32Z</time></trkpt><trkpt lat="44.52655508216848" lon="10.202440299892004"><ele>755.3333333333334</ele><time>2026-03-28T09:58:33Z</time></trkpt><trkpt lat="44.52665157435951" lon="10.202669756112497"><ele>750.0</ele><time>2026-03-28T09:58:34Z</time></trkpt><trkpt lat="44.5267610694165" lon="10.202933045039593"><ele>750.0</ele><time>2026-03-28T09:58:35Z</time></trkpt><trkpt lat="44.52683224362436" lon="10.203098434267321"><ele>750.0</ele><time>2026-03-28T09:58:36Z</time></trkpt><trkpt lat="44.52691488351374" lon="10.203301421128709"><ele>750.0</ele><time>2026-03-28T09:58:37Z</time></trkpt><trkpt lat="44.526994746071296" lon="10.20350492593819"><ele>746.6666666666666</ele><time>2026-03-28T09:58:38Z</time></trkpt><trkpt lat="44.527085179367766" lon="10.203701579952586"><ele>743.3333333333333</ele><time>2026-03-28T09:58:39Z</time></trkpt><trkpt lat="44.52718583856742" lon="10.203868333258189"><ele>740.0</ele><time>2026-03-28T09:58:40Z</time></trkpt><trkpt lat="44.52728575127279" lon="10.204035638250181"><ele>739.3333333333333</ele><time>2026-03-28T09:58:41Z</time></trkpt><trkpt lat="44.52739471955561" lon="10.204170971265224"><ele>738.6666666666666</ele><time>2026-03-28T09:58:42Z</time></trkpt><trkpt lat="44.52752598581743" lon="10.204291422163811"><ele>738.0</ele><time>2026-03-28T09:58:43Z</time></trkpt><trkpt lat="44.52766072178103" lon="10.204404629214537"><ele>738.0</ele><time>2026-03-28T09:58:44Z</time></trkpt><trkpt lat="44.527790742070195" lon="10.204533021543162"><ele>738.0</ele><time>2026-03-28T09:58:45Z</time></trkpt><trkpt lat="44.52790485780857" lon="10.204696531041666"><ele>738.0</ele><time>2026-03-28T09:58:46Z</time></trkpt><trkpt lat="44.52801204460767" lon="10.204915178784221"><ele>736.3333333333334</ele><time>2026-03-28T09:58:47Z</time></trkpt><trkpt lat="44.52810825707634" lon="10.205145279905683"><ele>734.6666666666667</ele><time>2026-03-28T09:58:48Z</time></trkpt><trkpt lat="44.528225306414654" lon="10.20538791602941"><ele>733.0</ele><time>2026-03-28T09:58:49Z</time></trkpt><trkpt lat="44.528342759862454" lon="10.205644357697757"><ele>732.0</ele><time>2026-03-28T09:58:50Z</time></trkpt><trkpt lat="44.52845903317922" lon="10.205897585146579"><ele>731.0</ele><time>2026-03-28T09:58:51Z</time></trkpt><trkpt lat="44.52858421063546" lon="10.20615041824283"><ele>730.0</ele><time>2026-03-28T09:58:52Z</time></trkpt><trkpt lat="44.5287005837116" lon="10.206385993037452"><ele>732.3333333333334</ele><time>2026-03-28T09:58:53Z</time></trkpt><trkpt lat="44.52881248007778" lon="10.206630835057998"><ele>734.6666666666666</ele><time>2026-03-28T09:58:54Z</time></trkpt><trkpt lat="44.5289174460056" lon="10.206881779711754"><ele>737.0</ele><time>2026-03-28T09:58:55Z</time></trkpt><trkpt lat="44.529016674786675" lon="10.207142466426728"><ele>735.3333333333333</ele><time>2026-03-28T09:58:56Z</time></trkpt><trkpt lat="44.5290913429633" lon="10.207422684652625"><ele>733.6666666666666</ele><time>2026-03-28T09:58:57Z</time></trkpt><trkpt lat="44.52913939806829" lon="10.207691044547232"><ele>732.0</ele><time>2026-03-28T09:58:58Z</time></trkpt><trkpt lat="44.52918798577866" lon="10.207940399487935"><ele>730.6666666666666</ele><time>2026-03-28T09:58:58.999Z</time></trkpt><trkpt lat="44.52925722469044" lon="10.208183101476584"><ele>729.3333333333333</ele><time>2026-03-28T09:58:59.999Z</time></trkpt><trkpt lat="44.52935421478581" lon="10.208431546596803"><ele>728.0</ele><time>2026-03-28T09:59:00.999Z</time></trkpt><trkpt lat="44.52946053394215" lon="10.208664727640684"><ele>728.0</ele><time>2026-03-28T09:59:01.999Z</time></trkpt><trkpt lat="44.52956130977038" lon="10.208879706888087"><ele>728.0</ele><time>2026-03-28T09:59:02.999Z</time></trkpt><trkpt lat="44.529645071179026" lon="10.209084417981924"><ele>728.0</ele><time>2026-03-28T09:59:03.999Z</time></trkpt><trkpt lat="44.52969911029414" lon="10.209266494656752"><ele>728.0</ele><time>2026-03-28T09:59:04.999Z</time></trkpt><trkpt lat="44.52973841868607" lon="10.209456555087955"><ele>728.0</ele><time>2026-03-28T09:59:05.999Z</time></trkpt><trkpt lat="44.52976301017583" lon="10.209657953270318"><ele>728.0</ele><time>2026-03-28T09:59:06.999Z</time></trkpt><trkpt lat="44.529794741758785" lon="10.209873528822477"><ele>728.0</ele><time>2026-03-28T09:59:07.999Z</time></trkpt><trkpt lat="44.52982739834826" lon="10.21008695459399"><ele>726.3333333333333</ele><time>2026-03-28T09:59:08.999Z</time></trkpt><trkpt lat="44.5298595797606" lon="10.210295265726332"><ele>724.6666666666666</ele><time>2026-03-28T09:59:09.999Z</time></trkpt><trkpt lat="44.529896587265355" lon="10.210520557453258"><ele>723.0</ele><time>2026-03-28T09:59:10.999Z</time></trkpt><trkpt lat="44.529950746831105" lon="10.210748000290115"><ele>721.0</ele><time>2026-03-28T09:59:11.999Z</time></trkpt><trkpt lat="44.53004428053627" lon="10.210995107542495"><ele>719.0</ele><time>2026-03-28T09:59:12.999Z</time></trkpt><trkpt lat="44.53015537698975" lon="10.211228229654441"><ele>717.0</ele><time>2026-03-28T09:59:13.999Z</time></trkpt><trkpt lat="44.53025252880108" lon="10.21144064639076"><ele>717.3333333333334</ele><time>2026-03-28T09:59:14.999Z</time></trkpt><trkpt lat="44.530347062551236" lon="10.211650547807958"><ele>717.6666666666667</ele><time>2026-03-28T09:59:15.999Z</time></trkpt><trkpt lat="44.53044368015763" lon="10.211837764695463"><ele>718.0</ele><time>2026-03-28T09:59:16.999Z</time></trkpt><trkpt lat="44.530548908420435" lon="10.2120139828462"><ele>718.0</ele><time>2026-03-28T09:59:17.999Z</time></trkpt><trkpt lat="44.53067712899863" lon="10.212180221532488"><ele>718.0</ele><time>2026-03-28T09:59:18.999Z</time></trkpt><trkpt lat="44.530817068210546" lon="10.21232891622161"><ele>718.0</ele><time>2026-03-28T09:59:19.999Z</time></trkpt><trkpt lat="44.53096001940859" lon="10.212483683124656"><ele>719.3333333333334</ele><time>2026-03-28T09:59:20.999Z</time></trkpt><trkpt lat="44.53108852708343" lon="10.212647934479707"><ele>720.6666666666666</ele><time>2026-03-28T09:59:21.999Z</time></trkpt><trkpt lat="44.53119893645374" lon="10.212814331286772"><ele>722.0</ele><time>2026-03-28T09:59:22.999Z</time></trkpt><trkpt lat="44.5312951778096" lon="10.212982496710701"><ele>719.0</ele><time>2026-03-28T09:59:23.999Z</time></trkpt><trkpt lat="44.53137750688878" lon="10.213157072357198"><ele>716.0</ele><time>2026-03-28T09:59:24.999Z</time></trkpt><trkpt lat="44.53143673535431" lon="10.213349492817006"><ele>713.0</ele><time>2026-03-28T09:59:25.999Z</time></trkpt><trkpt lat="44.531480480146705" lon="10.213553759085551"><ele>713.0</ele><time>2026-03-28T09:59:26.999Z</time></trkpt><trkpt lat="44.53150363968033" lon="10.213790875299534"><ele>713.0</ele><time>2026-03-28T09:59:27.999Z</time></trkpt><trkpt lat="44.531533432424496" lon="10.214020406656191"><ele>713.0</ele><time>2026-03-28T09:59:28.999Z</time></trkpt><trkpt lat="44.53153228116138" lon="10.214261731686276"><ele>710.6666666666666</ele><time>2026-03-28T09:59:29.999Z</time></trkpt><trkpt lat="44.53148919667793" lon="10.214508577296831"><ele>708.3333333333334</ele><time>2026-03-28T09:59:30.999Z</time></trkpt><trkpt lat="44.531455533810814" lon="10.214732247043855"><ele>706.0</ele><time>2026-03-28T09:59:31.999Z</time></trkpt><trkpt lat="44.531438963867714" lon="10.214951015097855"><ele>704.3333333333334</ele><time>2026-03-28T09:59:32.999Z</time></trkpt><trkpt lat="44.5314604674536" lon="10.215174268018332"><ele>702.6666666666666</ele><time>2026-03-28T09:59:33.999Z</time></trkpt><trkpt lat="44.53150998561873" lon="10.215397073406557"><ele>701.0</ele><time>2026-03-28T09:59:34.999Z</time></trkpt><trkpt lat="44.53159073785708" lon="10.215610351237048"><ele>698.6666666666666</ele><time>2026-03-28T09:59:35.999Z</time></trkpt><trkpt lat="44.531686298414336" lon="10.21579355259204"><ele>696.3333333333334</ele><time>2026-03-28T09:59:36.999Z</time></trkpt><trkpt lat="44.531756808931874" lon="10.21600935769289"><ele>694.0</ele><time>2026-03-28T09:59:37.999Z</time></trkpt><trkpt lat="44.531786868632814" lon="10.216278926143708"><ele>692.6666666666667</ele><time>2026-03-28T09:59:38.999Z</time></trkpt><trkpt lat="44.531789389585796" lon="10.216562569266681"><ele>691.3333333333334</ele><time>2026-03-28T09:59:39.999Z</time></trkpt><trkpt lat="44.531797276017556" lon="10.216822156426886"><ele>690.0</ele><time>2026-03-28T09:59:40.999Z</time></trkpt><trkpt lat="44.53180309271875" lon="10.217056140295583"><ele>690.0</ele><time>2026-03-28T09:59:41.999Z</time></trkpt><trkpt lat="44.53181297006585" lon="10.217291665866309"><ele>690.0</ele><time>2026-03-28T09:59:42.999Z</time></trkpt><trkpt lat="44.531823907970654" lon="10.217512351727255"><ele>690.0</ele><time>2026-03-28T09:59:43.999Z</time></trkpt><trkpt lat="44.53182493894169" lon="10.217720236040211"><ele>688.3333333333334</ele><time>2026-03-28T09:59:44.999Z</time></trkpt><trkpt lat="44.5318279414046" lon="10.217929411189353"><ele>686.6666666666667</ele><time>2026-03-28T09:59:45.999Z</time></trkpt><trkpt lat="44.53182724305691" lon="10.21813466643951"><ele>685.0</ele><time>2026-03-28T09:59:46.999Z</time></trkpt><trkpt lat="44.53182258351727" lon="10.218358940728397"><ele>682.6666666666667</ele><time>2026-03-28T09:59:47.999Z</time></trkpt><trkpt lat="44.53180685860834" lon="10.218594951494616"><ele>680.3333333333334</ele><time>2026-03-28T09:59:48.999Z</time></trkpt><trkpt lat="44.53176208266903" lon="10.21879965863611"><ele>678.0</ele><time>2026-03-28T09:59:49.999Z</time></trkpt><trkpt lat="44.53171751294173" lon="10.21897428009558"><ele>677.0</ele><time>2026-03-28T09:59:50.999Z</time></trkpt><trkpt lat="44.5316801666049" lon="10.219131002768489"><ele>676.0</ele><time>2026-03-28T09:59:51.999Z</time></trkpt><trkpt lat="44.53166187677441" lon="10.219276703204482"><ele>675.0</ele><time>2026-03-28T09:59:53Z</time></trkpt><trkpt lat="44.53167309630852" lon="10.21945172016389"><ele>674.0</ele><time>2026-03-28T09:59:54Z</time></trkpt><trkpt lat="44.53171609626385" lon="10.219660467490899"><ele>672.75</ele><time>2026-03-28T09:59:55Z</time></trkpt><trkpt lat="44.53176567325495" lon="10.219877492360334"><ele>671.5</ele><time>2026-03-28T09:59:56Z</time></trkpt><trkpt lat="44.531817325528365" lon="10.220089148508837"><ele>670.25</ele><time>2026-03-28T09:59:57Z</time></trkpt><trkpt lat="44.53184243294214" lon="10.220249716572813"><ele>669.0</ele><time>2026-03-28T09:59:58Z</time></trkpt><trkpt lat="44.531836427019556" lon="10.220357323150258"><ele>669.0</ele><time>2026-03-28T09:59:59Z</time></trkpt><trkpt lat="44.53181598337474" lon="10.22044572362762"><ele>669.0</ele><time>2026-03-28T10:00:10Z</time></trkpt><trkpt lat="44.53181445472912" lon="10.220650899430755"><ele>669.0</ele><time>2026-03-28T10:00:12Z</time></trkpt><trkpt lat="44.53178492998284" lon="10.220801161194386"><ele>669.0</ele><time>2026-03-28T10:00:13Z</time></trkpt><trkpt lat="44.5317251996516" lon="10.22095163626704"><ele>669.0</ele><time>2026-03-28T10:00:14Z</time></trkpt><trkpt lat="44.53164605004824" lon="10.22108884779029"><ele>668.0</ele><time>2026-03-28T10:00:15Z</time></trkpt><trkpt lat="44.53159156056491" lon="10.221225629152352"><ele>667.0</ele><time>2026-03-28T10:00:16Z</time></trkpt><trkpt lat="44.53156256819089" lon="10.221384463748697"><ele>666.0</ele><time>2026-03-28T10:00:17Z</time></trkpt><trkpt lat="44.53156318021142" lon="10.22158956153983"><ele>665.0</ele><time>2026-03-28T10:00:18Z</time></trkpt><trkpt lat="44.53159884139567" lon="10.221800760789066"><ele>664.6666666666666</ele><time>2026-03-28T10:00:19Z</time></trkpt><trkpt lat="44.53166931287421" lon="10.222038445850545"><ele>664.3333333333334</ele><time>2026-03-28T10:00:20Z</time></trkpt><trkpt lat="44.53176188482253" lon="10.222249112987042"><ele>664.0</ele><time>2026-03-28T10:00:21Z</time></trkpt><trkpt lat="44.53185643564435" lon="10.222428781740145"><ele>665.6666666666667</ele><time>2026-03-28T10:00:22Z</time></trkpt><trkpt lat="44.53194739122699" lon="10.22259983947213"><ele>667.3333333333334</ele><time>2026-03-28T10:00:23Z</time></trkpt><trkpt lat="44.532047544545875" lon="10.22277045096769"><ele>669.0</ele><time>2026-03-28T10:00:24Z</time></trkpt><trkpt lat="44.53215286697737" lon="10.222921685507531"><ele>669.0</ele><time>2026-03-28T10:00:25Z</time></trkpt><trkpt lat="44.53226385269455" lon="10.223065090828586"><ele>669.0</ele><time>2026-03-28T10:00:26Z</time></trkpt><trkpt lat="44.5323727005898" lon="10.223214062279265"><ele>669.0</ele><time>2026-03-28T10:00:27Z</time></trkpt><trkpt lat="44.53247408822288" lon="10.223379358864758"><ele>664.3333333333334</ele><time>2026-03-28T10:00:28Z</time></trkpt><trkpt lat="44.532573692283236" lon="10.223546527374479"><ele>659.6666666666667</ele><time>2026-03-28T10:00:29Z</time></trkpt><trkpt lat="44.53267953732935" lon="10.223711014090025"><ele>655.0</ele><time>2026-03-28T10:00:30Z</time></trkpt><trkpt lat="44.53278957487323" lon="10.223867885426019"><ele>653.25</ele><time>2026-03-28T10:00:31Z</time></trkpt><trkpt lat="44.53290211590689" lon="10.224004082104601"><ele>651.5</ele><time>2026-03-28T10:00:32Z</time></trkpt><trkpt lat="44.53301629104748" lon="10.224107739463406"><ele>649.75</ele><time>2026-03-28T10:00:33Z</time></trkpt><trkpt lat="44.533149089500824" lon="10.22415834692484"><ele>648.0</ele><time>2026-03-28T10:00:34Z</time></trkpt><trkpt lat="44.53331549908464" lon="10.22414039793488"><ele>648.0</ele><time>2026-03-28T10:00:35Z</time></trkpt><trkpt lat="44.53348634780063" lon="10.224101916638842"><ele>648.0</ele><time>2026-03-28T10:00:36Z</time></trkpt><trkpt lat="44.533663892648065" lon="10.224131507183845"><ele>648.0</ele><time>2026-03-28T10:00:37Z</time></trkpt><trkpt lat="44.533835864567855" lon="10.224205930588386"><ele>647.6666666666666</ele><time>2026-03-28T10:00:38Z</time></trkpt><trkpt lat="44.53398408365988" lon="10.224313059732733"><ele>647.3333333333333</ele><time>2026-03-28T10:00:39Z</time></trkpt><trkpt lat="44.53411999257248" lon="10.224424785648601"><ele>647.0</ele><time>2026-03-28T10:00:40Z</time></trkpt><trkpt lat="44.534229062270605" lon="10.224571142920569"><ele>647.0</ele><time>2026-03-28T10:00:41Z</time></trkpt><trkpt lat="44.534315395643134" lon="10.224771697387451"><ele>647.0</ele><time>2026-03-28T10:00:42Z</time></trkpt><trkpt lat="44.53439267710843" lon="10.225002879675285"><ele>647.0</ele><time>2026-03-28T10:00:43Z</time></trkpt><trkpt lat="44.53448848356511" lon="10.225213853615038"><ele>647.0</ele><time>2026-03-28T10:00:44Z</time></trkpt><trkpt lat="44.53460037916826" lon="10.22540343584874"><ele>647.0</ele><time>2026-03-28T10:00:45Z</time></trkpt><trkpt lat="44.534717553305256" lon="10.225583362856353"><ele>647.0</ele><time>2026-03-28T10:00:46Z</time></trkpt><trkpt lat="44.53482130821066" lon="10.225754368057876"><ele>644.25</ele><time>2026-03-28T10:00:47Z</time></trkpt><trkpt lat="44.534915349606926" lon="10.225917833479034"><ele>641.5</ele><time>2026-03-28T10:00:48Z</time></trkpt><trkpt lat="44.53500146516408" lon="10.226067230421487"><ele>638.75</ele><time>2026-03-28T10:00:49Z</time></trkpt><trkpt lat="44.5350737484744" lon="10.226192667193992"><ele>636.0</ele><time>2026-03-28T10:00:50Z</time></trkpt><trkpt lat="44.53512330724684" lon="10.22629541193152"><ele>636.0</ele><time>2026-03-28T10:00:51Z</time></trkpt><trkpt lat="44.53513496329396" lon="10.22641661191131"><ele>636.0</ele><time>2026-03-28T10:00:52Z</time></trkpt><trkpt lat="44.53508817497702" lon="10.226532627912317"><ele>636.0</ele><time>2026-03-28T10:00:53Z</time></trkpt><trkpt lat="44.53498829478833" lon="10.226596335438598"><ele>636.0</ele><time>2026-03-28T10:00:54Z</time></trkpt><trkpt lat="44.534871809777854" lon="10.226581013239002"><ele>636.0</ele><time>2026-03-28T10:00:55Z</time></trkpt><trkpt lat="44.534771602937255" lon="10.226440186304998"><ele>636.0</ele><time>2026-03-28T10:00:56Z</time></trkpt><trkpt lat="44.53464587015285" lon="10.226319130009779"><ele>636.0</ele><time>2026-03-28T10:00:57Z</time></trkpt><trkpt lat="44.5345139083907" lon="10.226172108596272"><ele>636.0</ele><time>2026-03-28T10:00:58Z</time></trkpt><trkpt lat="44.53438382825266" lon="10.22603167705653"><ele>633.25</ele><time>2026-03-28T10:00:59Z</time></trkpt><trkpt lat="44.53426342509969" lon="10.22589900492135"><ele>630.5</ele><time>2026-03-28T10:01:00Z</time></trkpt><trkpt lat="44.53414646753181" lon="10.22578587164853"><ele>627.75</ele><time>2026-03-28T10:01:01Z</time></trkpt><trkpt lat="44.53401052967771" lon="10.22572291590697"><ele>625.0</ele><time>2026-03-28T10:01:02Z</time></trkpt><trkpt lat="44.533856713070016" lon="10.225695383141355"><ele>623.0</ele><time>2026-03-28T10:01:03Z</time></trkpt><trkpt lat="44.53368288769022" lon="10.22568088954885"><ele>621.0</ele><time>2026-03-28T10:01:03.999Z</time></trkpt><trkpt lat="44.53350203224357" lon="10.22566265475248"><ele>619.0</ele><time>2026-03-28T10:01:04.999Z</time></trkpt><trkpt lat="44.5333178045651" lon="10.2256409636714"><ele>622.3333333333334</ele><time>2026-03-28T10:01:05.999Z</time></trkpt><trkpt lat="44.533137992842754" lon="10.22561668267921"><ele>625.6666666666666</ele><time>2026-03-28T10:01:06.999Z</time></trkpt><trkpt lat="44.532964394033094" lon="10.225594613686178"><ele>629.0</ele><time>2026-03-28T10:01:07.999Z</time></trkpt><trkpt lat="44.532784082227906" lon="10.225592417029484"><ele>629.0</ele><time>2026-03-28T10:01:08.999Z</time></trkpt><trkpt lat="44.532580118938775" lon="10.225635353958133"><ele>629.0</ele><time>2026-03-28T10:01:09.999Z</time></trkpt><trkpt lat="44.5323752332225" lon="10.225710915270195"><ele>629.0</ele><time>2026-03-28T10:01:10.999Z</time></trkpt><trkpt lat="44.53218928963025" lon="10.225777587862167"><ele>625.0</ele><time>2026-03-28T10:01:11.999Z</time></trkpt><trkpt lat="44.532023802633184" lon="10.22582418781133"><ele>621.0</ele><time>2026-03-28T10:01:12.999Z</time></trkpt><trkpt lat="44.53188074427567" lon="10.225863437191634"><ele>617.0</ele><time>2026-03-28T10:01:13.999Z</time></trkpt><trkpt lat="44.53176515233814" lon="10.225898594298476"><ele>613.0</ele><time>2026-03-28T10:01:14.999Z</time></trkpt><trkpt lat="44.53167124440716" lon="10.225951997649679"><ele>613.0</ele><time>2026-03-28T10:01:15.999Z</time></trkpt><trkpt lat="44.53160969927513" lon="10.226035489348742"><ele>613.0</ele><time>2026-03-28T10:01:16.999Z</time></trkpt><trkpt lat="44.53158389156231" lon="10.226156204491343"><ele>613.0</ele><time>2026-03-28T10:01:17.999Z</time></trkpt><trkpt lat="44.53160777808697" lon="10.226295387590223"><ele>613.0</ele><time>2026-03-28T10:01:18.999Z</time></trkpt><trkpt lat="44.531677783992066" lon="10.226431552773958"><ele>613.0</ele><time>2026-03-28T10:01:19.999Z</time></trkpt><trkpt lat="44.53178779665934" lon="10.226508816632572"><ele>608.6666666666667</ele><time>2026-03-28T10:01:20.999Z</time></trkpt><trkpt lat="44.53193516644924" lon="10.226534415733584"><ele>604.3333333333334</ele><time>2026-03-28T10:01:21.999Z</time></trkpt><trkpt lat="44.532113019973885" lon="10.226530830535637"><ele>600.0</ele><time>2026-03-28T10:01:22.999Z</time></trkpt><trkpt lat="44.53229940521187" lon="10.22657314814293"><ele>600.0</ele><time>2026-03-28T10:01:23.999Z</time></trkpt><trkpt lat="44.532482075574606" lon="10.226636825465327"><ele>600.0</ele><time>2026-03-28T10:01:24.999Z</time></trkpt><trkpt lat="44.53265948795577" lon="10.226701547057498"><ele>600.0</ele><time>2026-03-28T10:01:25.999Z</time></trkpt><trkpt lat="44.53282637450935" lon="10.226760019923285"><ele>602.0</ele><time>2026-03-28T10:01:26.999Z</time></trkpt><trkpt lat="44.532986606967654" lon="10.226812767275087"><ele>604.0</ele><time>2026-03-28T10:01:27.999Z</time></trkpt><trkpt lat="44.533153960647745" lon="10.226890249555737"><ele>606.0</ele><time>2026-03-28T10:01:28.999Z</time></trkpt><trkpt lat="44.53330456195713" lon="10.22703591928335"><ele>606.0</ele><time>2026-03-28T10:01:29.999Z</time></trkpt><trkpt lat="44.53345125212931" lon="10.227214115237613"><ele>606.0</ele><time>2026-03-28T10:01:30.999Z</time></trkpt><trkpt lat="44.53357238361997" lon="10.227393847774733"><ele>606.0</ele><time>2026-03-28T10:01:31.999Z</time></trkpt><trkpt lat="44.53368377364594" lon="10.227564974763554"><ele>605.0</ele><time>2026-03-28T10:01:32.999Z</time></trkpt><trkpt lat="44.533767323660406" lon="10.227794414686764"><ele>604.0</ele><time>2026-03-28T10:01:33.999Z</time></trkpt><trkpt lat="44.533838408861605" lon="10.22803429932015"><ele>603.0</ele><time>2026-03-28T10:01:34.999Z</time></trkpt><trkpt lat="44.53389978227019" lon="10.228279700927779"><ele>598.3333333333334</ele><time>2026-03-28T10:01:35.999Z</time></trkpt><trkpt lat="44.53396848927695" lon="10.228499027850606"><ele>593.6666666666667</ele><time>2026-03-28T10:01:36.999Z</time></trkpt><trkpt lat="44.5340472068593" lon="10.22869058676895"><ele>589.0</ele><time>2026-03-28T10:01:37.999Z</time></trkpt><trkpt lat="44.534139360672214" lon="10.22885088154286"><ele>586.6666666666667</ele><time>2026-03-28T10:01:38.999Z</time></trkpt><trkpt lat="44.53426453003594" lon="10.228991174793196"><ele>584.3333333333334</ele><time>2026-03-28T10:01:39.999Z</time></trkpt><trkpt lat="44.53444056864168" lon="10.229083983442669"><ele>582.0</ele><time>2026-03-28T10:01:40.999Z</time></trkpt><trkpt lat="44.53463890335174" lon="10.229143271312566"><ele>582.0</ele><time>2026-03-28T10:01:41.999Z</time></trkpt><trkpt lat="44.53483819622909" lon="10.229231266548783"><ele>582.0</ele><time>2026-03-28T10:01:42.999Z</time></trkpt><trkpt lat="44.53501372436286" lon="10.229377483585223"><ele>582.0</ele><time>2026-03-28T10:01:43.999Z</time></trkpt><trkpt lat="44.535183404826945" lon="10.229573100652079"><ele>582.0</ele><time>2026-03-28T10:01:44.999Z</time></trkpt><trkpt lat="44.53534351098333" lon="10.22976332118126"><ele>582.0</ele><time>2026-03-28T10:01:45.999Z</time></trkpt><trkpt lat="44.53548882034528" lon="10.229934164028702"><ele>582.0</ele><time>2026-03-28T10:01:46.999Z</time></trkpt><trkpt lat="44.535614898814025" lon="10.230082499325285"><ele>580.2</ele><time>2026-03-28T10:01:47.999Z</time></trkpt><trkpt lat="44.53571935957729" lon="10.230171282943015"><ele>578.4000000000001</ele><time>2026-03-28T10:01:48.999Z</time></trkpt><trkpt lat="44.535815074177805" lon="10.230246629810523"><ele>576.5999999999999</ele><time>2026-03-28T10:01:49.999Z</time></trkpt><trkpt lat="44.535872782559196" lon="10.230315513866033"><ele>574.8</ele><time>2026-03-28T10:01:50.999Z</time></trkpt><trkpt lat="44.535903118592174" lon="10.230402092204086"><ele>573.0</ele><time>2026-03-28T10:01:51.999Z</time></trkpt><trkpt lat="44.535884273774386" lon="10.230509964803357"><ele>573.0</ele><time>2026-03-28T10:01:52.999Z</time></trkpt><trkpt lat="44.535825981565445" lon="10.230605725876677"><ele>573.0</ele><time>2026-03-28T10:01:53.999Z</time></trkpt><trkpt lat="44.535716419413056" lon="10.230622587211913"><ele>573.0</ele><time>2026-03-28T10:01:54.999Z</time></trkpt><trkpt lat="44.53559797567276" lon="10.230546495208939"><ele>573.0</ele><time>2026-03-28T10:01:55.999Z</time></trkpt><trkpt lat="44.53546366211841" lon="10.2304248107402"><ele>570.0</ele><time>2026-03-28T10:01:56.999Z</time></trkpt><trkpt lat="44.53530262039221" lon="10.230305506657158"><ele>567.0</ele><time>2026-03-28T10:01:57.999Z</time></trkpt><trkpt lat="44.53516458960492" lon="10.230196377978222"><ele>564.0</ele><time>2026-03-28T10:01:59Z</time></trkpt><trkpt lat="44.53504846315245" lon="10.23008655776863"><ele>564.0</ele><time>2026-03-28T10:02:00Z</time></trkpt><trkpt lat="44.53492555701428" lon="10.23001694512555"><ele>564.0</ele><time>2026-03-28T10:02:01Z</time></trkpt><trkpt lat="44.53481055528138" lon="10.229923926107409"><ele>564.0</ele><time>2026-03-28T10:02:02Z</time></trkpt><trkpt lat="44.53469676153944" lon="10.229847236529597"><ele>564.0</ele><time>2026-03-28T10:02:03Z</time></trkpt><trkpt lat="44.53458113635809" lon="10.22978814519782"><ele>567.25</ele><time>2026-03-28T10:02:04Z</time></trkpt><trkpt lat="44.53446785158394" lon="10.229753617975392"><ele>570.5</ele><time>2026-03-28T10:02:05Z</time></trkpt><trkpt lat="44.53433972425255" lon="10.229733025246043"><ele>573.75</ele><time>2026-03-28T10:02:06Z</time></trkpt><trkpt lat="44.534219753031934" lon="10.22973805770099"><ele>577.0</ele><time>2026-03-28T10:02:07Z</time></trkpt><trkpt lat="44.53411208188538" lon="10.229742057423492"><ele>577.0</ele><time>2026-03-28T10:02:08Z</time></trkpt><trkpt lat="44.53401493568558" lon="10.229741811491031"><ele>577.0</ele><time>2026-03-28T10:02:09Z</time></trkpt><trkpt lat="44.53392265219269" lon="10.229739663382599"><ele>577.0</ele><time>2026-03-28T10:02:10Z</time></trkpt><trkpt lat="44.533830643402965" lon="10.229738346382295"><ele>577.0</ele><time>2026-03-28T10:02:11Z</time></trkpt><trkpt lat="44.533750493345295" lon="10.22973798473661"><ele>577.0</ele><time>2026-03-28T10:02:12Z</time></trkpt><trkpt lat="44.53367760895683" lon="10.229741890514921"><ele>577.0</ele><time>2026-03-28T10:02:13Z</time></trkpt><trkpt lat="44.53357409113309" lon="10.229777713881125"><ele>571.6</ele><time>2026-03-28T10:02:15Z</time></trkpt><trkpt lat="44.53351749621414" lon="10.22983932730388"><ele>566.2</ele><time>2026-03-28T10:02:17Z</time></trkpt><trkpt lat="44.53346777604303" lon="10.22990923797842"><ele>560.8</ele><time>2026-03-28T10:02:20Z</time></trkpt><trkpt lat="44.53346805187184" lon="10.230048063078428"><ele>555.4</ele><time>2026-03-28T10:02:24Z</time></trkpt><trkpt lat="44.53354518807627" lon="10.230129795228454"><ele>550.0</ele><time>2026-03-28T10:02:25Z</time></trkpt><trkpt lat="44.533659119056594" lon="10.230206561266828"><ele>551.25</ele><time>2026-03-28T10:02:26Z</time></trkpt><trkpt lat="44.53379999065233" lon="10.23031225471437"><ele>552.5</ele><time>2026-03-28T10:02:27Z</time></trkpt><trkpt lat="44.53392199794371" lon="10.230417248330795"><ele>553.75</ele><time>2026-03-28T10:02:28Z</time></trkpt><trkpt lat="44.53403540367613" lon="10.230543127533581"><ele>555.0</ele><time>2026-03-28T10:02:29Z</time></trkpt><trkpt lat="44.53416150294651" lon="10.230685853977313"><ele>553.0</ele><time>2026-03-28T10:02:30Z</time></trkpt><trkpt lat="44.53437033488425" lon="10.23085074516761"><ele>551.0</ele><time>2026-03-28T10:02:31Z</time></trkpt><trkpt lat="44.534557013468316" lon="10.231051336877332"><ele>551.0</ele><time>2026-03-28T10:02:32Z</time></trkpt><trkpt lat="44.53474648541227" lon="10.231291815598652"><ele>551.0</ele><time>2026-03-28T10:02:33Z</time></trkpt><trkpt lat="44.53491899207304" lon="10.231529679882232"><ele>543.0</ele><time>2026-03-28T10:02:34Z</time></trkpt><trkpt lat="44.53508807676866" lon="10.231786175064261"><ele>535.0</ele><time>2026-03-28T10:02:35Z</time></trkpt><trkpt lat="44.535242641700634" lon="10.232027923004006"><ele>535.0</ele><time>2026-03-28T10:02:36Z</time></trkpt><trkpt lat="44.53537517883725" lon="10.232255617080465"><ele>535.0</ele><time>2026-03-28T10:02:37Z</time></trkpt><trkpt lat="44.53549647391715" lon="10.232473834026031"><ele>535.0</ele><time>2026-03-28T10:02:38Z</time></trkpt><trkpt lat="44.53562740577896" lon="10.232693874359732"><ele>535.3333333333334</ele><time>2026-03-28T10:02:39Z</time></trkpt><trkpt lat="44.535777317538994" lon="10.232887310002821"><ele>535.6666666666666</ele><time>2026-03-28T10:02:40Z</time></trkpt><trkpt lat="44.53594907983964" lon="10.233042831222809"><ele>536.0</ele><time>2026-03-28T10:02:41Z</time></trkpt><trkpt lat="44.53612120512144" lon="10.233172640319589"><ele>532.0</ele><time>2026-03-28T10:02:42Z</time></trkpt><trkpt lat="44.53628589309181" lon="10.23329379222398"><ele>528.0</ele><time>2026-03-28T10:02:43Z</time></trkpt><trkpt lat="44.53645727281358" lon="10.23338637317085"><ele>524.0</ele><time>2026-03-28T10:02:44Z</time></trkpt><trkpt lat="44.53665653094137" lon="10.233438311619546"><ele>524.0</ele><time>2026-03-28T10:02:45Z</time></trkpt><trkpt lat="44.536887011283916" lon="10.233444141068722"><ele>524.0</ele><time>2026-03-28T10:02:46Z</time></trkpt><trkpt lat="44.53713634893665" lon="10.233466732734557"><ele>522.0</ele><time>2026-03-28T10:02:47Z</time></trkpt><trkpt lat="44.537393471611246" lon="10.233492657033022"><ele>520.0</ele><time>2026-03-28T10:02:48Z</time></trkpt><trkpt lat="44.5376386452528" lon="10.233517768237341"><ele>520.0</ele><time>2026-03-28T10:02:49Z</time></trkpt><trkpt lat="44.53786215237023" lon="10.233521167591938"><ele>520.0</ele><time>2026-03-28T10:02:50Z</time></trkpt><trkpt lat="44.538069475583264" lon="10.23351843613591"><ele>520.0</ele><time>2026-03-28T10:02:51Z</time></trkpt><trkpt lat="44.53824941287905" lon="10.233535611388747"><ele>519.0</ele><time>2026-03-28T10:02:52Z</time></trkpt><trkpt lat="44.53841145914277" lon="10.233508881051021"><ele>518.0</ele><time>2026-03-28T10:02:53Z</time></trkpt><trkpt lat="44.538595530679046" lon="10.233420326736777"><ele>517.0</ele><time>2026-03-28T10:02:54Z</time></trkpt><trkpt lat="44.5388024073591" lon="10.233291249991032"><ele>512.6666666666667</ele><time>2026-03-28T10:02:55Z</time></trkpt><trkpt lat="44.53900434462077" lon="10.233199620625296"><ele>508.33333333333337</ele><time>2026-03-28T10:02:56Z</time></trkpt><trkpt lat="44.53920524453921" lon="10.233206385188303"><ele>504.0</ele><time>2026-03-28T10:02:57Z</time></trkpt><trkpt lat="44.5394027967497" lon="10.233276178573885"><ele>502.0</ele><time>2026-03-28T10:02:58Z</time></trkpt><trkpt lat="44.53962085677514" lon="10.233369997248515"><ele>500.0</ele><time>2026-03-28T10:02:59Z</time></trkpt><trkpt lat="44.53982510580573" lon="10.233508087180255"><ele>500.0</ele><time>2026-03-28T10:03:00Z</time></trkpt><trkpt lat="44.54002381075697" lon="10.233604017358019"><ele>500.0</ele><time>2026-03-28T10:03:01Z</time></trkpt><trkpt lat="44.54022418346364" lon="10.233667421878096"><ele>500.0</ele><time>2026-03-28T10:03:02Z</time></trkpt><trkpt lat="44.54043064987302" lon="10.23371494129699"><ele>500.0</ele><time>2026-03-28T10:03:03Z</time></trkpt><trkpt lat="44.540640159602795" lon="10.233739407024128"><ele>500.0</ele><time>2026-03-28T10:03:04Z</time></trkpt><trkpt lat="44.54086818720512" lon="10.23371396040451"><ele>500.0</ele><time>2026-03-28T10:03:05Z</time></trkpt><trkpt lat="44.54110382477104" lon="10.233658980391317"><ele>498.0</ele><time>2026-03-28T10:03:06Z</time></trkpt><trkpt lat="44.54132990109294" lon="10.23358928154451"><ele>496.0</ele><time>2026-03-28T10:03:07Z</time></trkpt><trkpt lat="44.5415320845502" lon="10.233513741230334"><ele>494.0</ele><time>2026-03-28T10:03:08Z</time></trkpt><trkpt lat="44.54170911680085" lon="10.23343601454297"><ele>494.0</ele><time>2026-03-28T10:03:09Z</time></trkpt><trkpt lat="44.54188578576919" lon="10.233369651174113"><ele>494.0</ele><time>2026-03-28T10:03:10Z</time></trkpt><trkpt lat="44.542058052686066" lon="10.23331837619553"><ele>494.0</ele><time>2026-03-28T10:03:11Z</time></trkpt><trkpt lat="44.54223428301145" lon="10.23328264627573"><ele>492.3333333333333</ele><time>2026-03-28T10:03:12Z</time></trkpt><trkpt lat="44.54242018225367" lon="10.23327784723262"><ele>490.66666666666663</ele><time>2026-03-28T10:03:12.999Z</time></trkpt><trkpt lat="44.54262240371476" lon="10.233322030823766"><ele>489.0</ele><time>2026-03-28T10:03:13.999Z</time></trkpt><trkpt lat="44.54282113325298" lon="10.233442034007714"><ele>491.0</ele><time>2026-03-28T10:03:14.999Z</time></trkpt><trkpt lat="44.54303076129253" lon="10.233592856293722"><ele>493.0</ele><time>2026-03-28T10:03:15.999Z</time></trkpt><trkpt lat="44.543205575659506" lon="10.23382482207565"><ele>489.6666666666667</ele><time>2026-03-28T10:03:16.999Z</time></trkpt><trkpt lat="44.54334072102911" lon="10.23407511503806"><ele>486.33333333333337</ele><time>2026-03-28T10:03:17.999Z</time></trkpt><trkpt lat="44.54346723927909" lon="10.234271502609273"><ele>483.0</ele><time>2026-03-28T10:03:18.999Z</time></trkpt><trkpt lat="44.54360558112345" lon="10.234413310081417"><ele>485.0</ele><time>2026-03-28T10:03:19.999Z</time></trkpt><trkpt lat="44.543778994235346" lon="10.23452726305896"><ele>487.0</ele><time>2026-03-28T10:03:20.999Z</time></trkpt><trkpt lat="44.543965655627005" lon="10.23463079387838"><ele>489.0</ele><time>2026-03-28T10:03:21.999Z</time></trkpt><trkpt lat="44.544124568511414" lon="10.234688476704063"><ele>489.0</ele><time>2026-03-28T10:03:22.999Z</time></trkpt><trkpt lat="44.54427040905941" lon="10.234704788660409"><ele>489.0</ele><time>2026-03-28T10:03:23.999Z</time></trkpt><trkpt lat="44.54440978638124" lon="10.234665686691068"><ele>489.0</ele><time>2026-03-28T10:03:24.999Z</time></trkpt><trkpt lat="44.54454803308033" lon="10.234577174350202"><ele>489.0</ele><time>2026-03-28T10:03:25.999Z</time></trkpt><trkpt lat="44.544685904840925" lon="10.234459805917696"><ele>485.0</ele><time>2026-03-28T10:03:26.999Z</time></trkpt><trkpt lat="44.54481285891645" lon="10.234302380129552"><ele>481.0</ele><time>2026-03-28T10:03:27.999Z</time></trkpt><trkpt lat="44.544933517398135" lon="10.234129593426061"><ele>477.0</ele><time>2026-03-28T10:03:28.999Z</time></trkpt><trkpt lat="44.5450730198449" lon="10.233978270153624"><ele>479.0</ele><time>2026-03-28T10:03:29.999Z</time></trkpt><trkpt lat="44.545238188609204" lon="10.233920838307954"><ele>481.0</ele><time>2026-03-28T10:03:30.999Z</time></trkpt><trkpt lat="44.545406453084716" lon="10.23390068033431"><ele>483.0</ele><time>2026-03-28T10:03:31.999Z</time></trkpt><trkpt lat="44.54555294126622" lon="10.233913156078167"><ele>483.0</ele><time>2026-03-28T10:03:32.999Z</time></trkpt><trkpt lat="44.54571094327379" lon="10.233936580837442"><ele>483.0</ele><time>2026-03-28T10:03:33.999Z</time></trkpt><trkpt lat="44.54585129593872" lon="10.233897574000197"><ele>483.0</ele><time>2026-03-28T10:03:34.999Z</time></trkpt><trkpt lat="44.54599533117507" lon="10.233812083431301"><ele>483.0</ele><time>2026-03-28T10:03:35.999Z</time></trkpt><trkpt lat="44.54613735280083" lon="10.233635928336518"><ele>483.0</ele><time>2026-03-28T10:03:36.999Z</time></trkpt><trkpt lat="44.54625271482416" lon="10.233448622173924"><ele>483.0</ele><time>2026-03-28T10:03:37.999Z</time></trkpt><trkpt lat="44.546362611777106" lon="10.233281116571936"><ele>476.66666666666663</ele><time>2026-03-28T10:03:38.999Z</time></trkpt><trkpt lat="44.54649660547213" lon="10.233173046978438"><ele>470.3333333333333</ele><time>2026-03-28T10:03:39.999Z</time></trkpt><trkpt lat="44.546674887910676" lon="10.233110653256725"><ele>464.0</ele><time>2026-03-28T10:03:40.999Z</time></trkpt><trkpt lat="44.546861672962514" lon="10.233107099469605"><ele>462.3333333333333</ele><time>2026-03-28T10:03:41.999Z</time></trkpt><trkpt lat="44.54702481953583" lon="10.233173586362867"><ele>460.66666666666663</ele><time>2026-03-28T10:03:42.999Z</time></trkpt><trkpt lat="44.54719332997016" lon="10.233285850284199"><ele>459.0</ele><time>2026-03-28T10:03:43.999Z</time></trkpt><trkpt lat="44.54735476061775" lon="10.233457836008924"><ele>459.0</ele><time>2026-03-28T10:03:44.999Z</time></trkpt><trkpt lat="44.54752125088131" lon="10.233638224304055"><ele>459.0</ele><time>2026-03-28T10:03:45.999Z</time></trkpt><trkpt lat="44.54768389415916" lon="10.233811853985783"><ele>459.0</ele><time>2026-03-28T10:03:46.999Z</time></trkpt><trkpt lat="44.547825347689326" lon="10.234000920389612"><ele>454.66666666666663</ele><time>2026-03-28T10:03:47.999Z</time></trkpt><trkpt lat="44.547953293878756" lon="10.234191814060368"><ele>450.3333333333333</ele><time>2026-03-28T10:03:48.999Z</time></trkpt><trkpt lat="44.54808812358943" lon="10.234364203420428"><ele>446.0</ele><time>2026-03-28T10:03:49.999Z</time></trkpt><trkpt lat="44.54823033348833" lon="10.234506574875171"><ele>446.0</ele><time>2026-03-28T10:03:50.999Z</time></trkpt><trkpt lat="44.548387123816354" lon="10.234633988596045"><ele>446.0</ele><time>2026-03-28T10:03:51.999Z</time></trkpt><trkpt lat="44.548567027231" lon="10.234739065430709"><ele>446.0</ele><time>2026-03-28T10:03:52.999Z</time></trkpt><trkpt lat="44.54876249954664" lon="10.234814860472854"><ele>442.3333333333333</ele><time>2026-03-28T10:03:53.999Z</time></trkpt><trkpt lat="44.548960317070005" lon="10.234891655095927"><ele>438.66666666666663</ele><time>2026-03-28T10:03:54.999Z</time></trkpt><trkpt lat="44.54914498052326" lon="10.234991630982183"><ele>435.0</ele><time>2026-03-28T10:03:55.999Z</time></trkpt><trkpt lat="44.54932409152681" lon="10.235142383023723"><ele>435.0</ele><time>2026-03-28T10:03:56.999Z</time></trkpt><trkpt lat="44.54947972801794" lon="10.235349849429603"><ele>435.0</ele><time>2026-03-28T10:03:57.999Z</time></trkpt><trkpt lat="44.54962843253625" lon="10.235553609838087"><ele>435.0</ele><time>2026-03-28T10:03:58.999Z</time></trkpt><trkpt lat="44.54976576305217" lon="10.235730799947738"><ele>431.66666666666663</ele><time>2026-03-28T10:03:59.999Z</time></trkpt><trkpt lat="44.54989586768776" lon="10.235865107698608"><ele>428.3333333333333</ele><time>2026-03-28T10:04:00.999Z</time></trkpt><trkpt lat="44.55003389211747" lon="10.235975044552882"><ele>425.0</ele><time>2026-03-28T10:04:01.999Z</time></trkpt><trkpt lat="44.55018795424087" lon="10.236064724462189"><ele>425.0</ele><time>2026-03-28T10:04:02.999Z</time></trkpt><trkpt lat="44.550352334584986" lon="10.23613454122612"><ele>425.0</ele><time>2026-03-28T10:04:03.999Z</time></trkpt><trkpt lat="44.550530509923064" lon="10.236174863166818"><ele>425.0</ele><time>2026-03-28T10:04:05Z</time></trkpt><trkpt lat="44.550704075554265" lon="10.23619519553235"><ele>422.66666666666663</ele><time>2026-03-28T10:04:06Z</time></trkpt><trkpt lat="44.55087533673421" lon="10.236192070250688"><ele>420.33333333333337</ele><time>2026-03-28T10:04:07Z</time></trkpt><trkpt lat="44.55105503496192" lon="10.236152019301265"><ele>418.0</ele><time>2026-03-28T10:04:08Z</time></trkpt><trkpt lat="44.55122958236084" lon="10.236065524125976"><ele>416.6666666666667</ele><time>2026-03-28T10:04:09Z</time></trkpt><trkpt lat="44.551400430254645" lon="10.23595101459146"><ele>415.33333333333337</ele><time>2026-03-28T10:04:10Z</time></trkpt><trkpt lat="44.551567450786635" lon="10.235793355207466"><ele>414.0</ele><time>2026-03-28T10:04:11Z</time></trkpt><trkpt lat="44.551742130272736" lon="10.23561122836485"><ele>414.0</ele><time>2026-03-28T10:04:12Z</time></trkpt><trkpt lat="44.55191279574548" lon="10.235457184021516"><ele>414.0</ele><time>2026-03-28T10:04:13Z</time></trkpt><trkpt lat="44.55207112142784" lon="10.235320694298382"><ele>414.0</ele><time>2026-03-28T10:04:14Z</time></trkpt><trkpt lat="44.552204493411764" lon="10.235155888574567"><ele>410.0</ele><time>2026-03-28T10:04:15Z</time></trkpt><trkpt lat="44.552321132323094" lon="10.234952740076235"><ele>406.0</ele><time>2026-03-28T10:04:16Z</time></trkpt><trkpt lat="44.552416211659114" lon="10.234704979526471"><ele>402.0</ele><time>2026-03-28T10:04:17Z</time></trkpt><trkpt lat="44.552471829378" lon="10.234422518996487"><ele>401.66666666666663</ele><time>2026-03-28T10:04:18Z</time></trkpt><trkpt lat="44.55250170443767" lon="10.23412287464133"><ele>401.3333333333333</ele><time>2026-03-28T10:04:19Z</time></trkpt><trkpt lat="44.552491115500814" lon="10.233833302096695"><ele>401.0</ele><time>2026-03-28T10:04:20Z</time></trkpt><trkpt lat="44.55249794135011" lon="10.233568270582788"><ele>400.66666666666663</ele><time>2026-03-28T10:04:21Z</time></trkpt><trkpt lat="44.55250405736973" lon="10.233308928917694"><ele>400.33333333333337</ele><time>2026-03-28T10:04:22Z</time></trkpt><trkpt lat="44.55252504773558" lon="10.233045926990206"><ele>400.0</ele><time>2026-03-28T10:04:23Z</time></trkpt><trkpt lat="44.55258047515105" lon="10.232789021261418"><ele>400.0</ele><time>2026-03-28T10:04:24Z</time></trkpt><trkpt lat="44.5526787260979" lon="10.232551484308043"><ele>400.0</ele><time>2026-03-28T10:04:25Z</time></trkpt><trkpt lat="44.55280334056233" lon="10.232340219732121"><ele>400.0</ele><time>2026-03-28T10:04:26Z</time></trkpt><trkpt lat="44.55295155712076" lon="10.232166396003965"><ele>397.33333333333337</ele><time>2026-03-28T10:04:27Z</time></trkpt><trkpt lat="44.553123844617915" lon="10.232030672629264"><ele>394.66666666666663</ele><time>2026-03-28T10:04:28Z</time></trkpt><trkpt lat="44.553331130426166" lon="10.231913892660584"><ele>392.0</ele><time>2026-03-28T10:04:29Z</time></trkpt><trkpt lat="44.55354564994821" lon="10.231843379999066"><ele>390.0</ele><time>2026-03-28T10:04:30Z</time></trkpt><trkpt lat="44.553762255660075" lon="10.231777283776532"><ele>388.0</ele><time>2026-03-28T10:04:31Z</time></trkpt><trkpt lat="44.55396325107808" lon="10.231714348880825"><ele>386.0</ele><time>2026-03-28T10:04:32Z</time></trkpt><trkpt lat="44.554159413479155" lon="10.231645971569996"><ele>386.0</ele><time>2026-03-28T10:04:33Z</time></trkpt><trkpt lat="44.554348263056404" lon="10.231570593174801"><ele>386.0</ele><time>2026-03-28T10:04:34Z</time></trkpt><trkpt lat="44.5545508878082" lon="10.231493456092252"><ele>386.0</ele><time>2026-03-28T10:04:35Z</time></trkpt><trkpt lat="44.554760025213255" lon="10.231417888472018"><ele>385.3333333333333</ele><time>2026-03-28T10:04:36Z</time></trkpt><trkpt lat="44.554968715704696" lon="10.231341046290375"><ele>384.66666666666663</ele><time>2026-03-28T10:04:37Z</time></trkpt><trkpt lat="44.5551837757908" lon="10.231259272952812"><ele>384.0</ele><time>2026-03-28T10:04:38Z</time></trkpt><trkpt lat="44.55538925183609" lon="10.231176131735191"><ele>381.6666666666667</ele><time>2026-03-28T10:04:39Z</time></trkpt><trkpt lat="44.55557501045003" lon="10.231119542023956"><ele>379.33333333333337</ele><time>2026-03-28T10:04:40Z</time></trkpt><trkpt lat="44.5557595662903" lon="10.231138192412274"><ele>377.0</ele><time>2026-03-28T10:04:41Z</time></trkpt><trkpt lat="44.55593914851492" lon="10.231222983350976"><ele>377.0</ele><time>2026-03-28T10:04:42Z</time></trkpt><trkpt lat="44.55611142075885" lon="10.231315522729599"><ele>377.0</ele><time>2026-03-28T10:04:43Z</time></trkpt><trkpt lat="44.55628955139456" lon="10.231353266028046"><ele>377.0</ele><time>2026-03-28T10:04:44Z</time></trkpt><trkpt lat="44.556486292175556" lon="10.231321323625393"><ele>376.0</ele><time>2026-03-28T10:04:45Z</time></trkpt><trkpt lat="44.55669588744085" lon="10.231234927210187"><ele>375.0</ele><time>2026-03-28T10:04:46Z</time></trkpt><trkpt lat="44.556879304054576" lon="10.231134662591053"><ele>374.0</ele><time>2026-03-28T10:04:47Z</time></trkpt><trkpt lat="44.55705315627289" lon="10.231050238496305"><ele>372.33333333333337</ele><time>2026-03-28T10:04:48Z</time></trkpt><trkpt lat="44.557225034311706" lon="10.230957819096542"><ele>370.6666666666667</ele><time>2026-03-28T10:04:49Z</time></trkpt><trkpt lat="44.557393084336724" lon="10.230865908603551"><ele>369.0</ele><time>2026-03-28T10:04:50Z</time></trkpt><trkpt lat="44.55756149004936" lon="10.230782072981821"><ele>369.0</ele><time>2026-03-28T10:04:51Z</time></trkpt><trkpt lat="44.55772267518777" lon="10.230705752163601"><ele>369.0</ele><time>2026-03-28T10:04:52Z</time></trkpt><trkpt lat="44.557878255943415" lon="10.230627014762455"><ele>369.0</ele><time>2026-03-28T10:04:53Z</time></trkpt><trkpt lat="44.558016237219945" lon="10.230527658920415"><ele>369.0</ele><time>2026-03-28T10:04:54Z</time></trkpt><trkpt lat="44.558147408206864" lon="10.230373107474378"><ele>369.0</ele><time>2026-03-28T10:04:55Z</time></trkpt><trkpt lat="44.55826627319392" lon="10.230172217867434"><ele>369.0</ele><time>2026-03-28T10:04:56Z</time></trkpt><trkpt lat="44.55837173774637" lon="10.229983961028857"><ele>369.0</ele><time>2026-03-28T10:04:57Z</time></trkpt><trkpt lat="44.55847970352675" lon="10.229828327691063"><ele>369.0</ele><time>2026-03-28T10:04:58Z</time></trkpt><trkpt lat="44.55859146926558" lon="10.229700811301484"><ele>369.0</ele><time>2026-03-28T10:04:59Z</time></trkpt><trkpt lat="44.55871128274556" lon="10.229591558517948"><ele>369.0</ele><time>2026-03-28T10:05:00Z</time></trkpt><trkpt lat="44.55884709976232" lon="10.22952168991648"><ele>367.25</ele><time>2026-03-28T10:05:01Z</time></trkpt><trkpt lat="44.558991380462814" lon="10.229479872750442"><ele>365.5</ele><time>2026-03-28T10:05:02Z</time></trkpt><trkpt lat="44.559125809432615" lon="10.229457304948289"><ele>363.75</ele><time>2026-03-28T10:05:03Z</time></trkpt><trkpt lat="44.55925899586627" lon="10.229452119725394"><ele>362.0</ele><time>2026-03-28T10:05:04Z</time></trkpt><trkpt lat="44.55939132088379" lon="10.229475366335032"><ele>362.0</ele><time>2026-03-28T10:05:05Z</time></trkpt><trkpt lat="44.55952449081595" lon="10.229520589454019"><ele>362.0</ele><time>2026-03-28T10:05:06Z</time></trkpt><trkpt lat="44.55965322960117" lon="10.229582522745211"><ele>362.0</ele><time>2026-03-28T10:05:07Z</time></trkpt><trkpt lat="44.559772357324505" lon="10.229635020023093"><ele>362.0</ele><time>2026-03-28T10:05:08Z</time></trkpt><trkpt lat="44.559891645047934" lon="10.229666374284754"><ele>361.5</ele><time>2026-03-28T10:05:09Z</time></trkpt><trkpt lat="44.56000900839726" lon="10.229673436221075"><ele>361.0</ele><time>2026-03-28T10:05:10Z</time></trkpt><trkpt lat="44.56013353534112" lon="10.229657410785626"><ele>360.5</ele><time>2026-03-28T10:05:11Z</time></trkpt><trkpt lat="44.5602619569863" lon="10.229607349845985"><ele>360.0</ele><time>2026-03-28T10:05:12Z</time></trkpt><trkpt lat="44.560389507665626" lon="10.229541353228841"><ele>357.5</ele><time>2026-03-28T10:05:13Z</time></trkpt><trkpt lat="44.560515469657965" lon="10.229466627455931"><ele>355.0</ele><time>2026-03-28T10:05:14Z</time></trkpt><trkpt lat="44.560634328512386" lon="10.229389358765124"><ele>352.5</ele><time>2026-03-28T10:05:15Z</time></trkpt><trkpt lat="44.56075201132435" lon="10.229315264038508"><ele>350.0</ele><time>2026-03-28T10:05:16Z</time></trkpt><trkpt lat="44.56087056343079" lon="10.229242256259308"><ele>350.0</ele><time>2026-03-28T10:05:17Z</time></trkpt><trkpt lat="44.5609815369718" lon="10.229155347166136"><ele>350.0</ele><time>2026-03-28T10:05:18Z</time></trkpt><trkpt lat="44.56108905756562" lon="10.229055956997055"><ele>350.0</ele><time>2026-03-28T10:05:19Z</time></trkpt><trkpt lat="44.561179686642895" lon="10.228926299959735"><ele>350.0</ele><time>2026-03-28T10:05:20Z</time></trkpt><trkpt lat="44.56128752211162" lon="10.22881841759645"><ele>348.0</ele><time>2026-03-28T10:05:21Z</time></trkpt><trkpt lat="44.56134415097954" lon="10.228635826228665"><ele>346.0</ele><time>2026-03-28T10:05:22Z</time></trkpt><trkpt lat="44.561416270413815" lon="10.228483677041861"><ele>344.0</ele><time>2026-03-28T10:05:23Z</time></trkpt><trkpt lat="44.56147742223429" lon="10.228320277405498"><ele>342.0</ele><time>2026-03-28T10:05:24Z</time></trkpt><trkpt lat="44.561540590371486" lon="10.228165536357766"><ele>341.75</ele><time>2026-03-28T10:05:24.999Z</time></trkpt><trkpt lat="44.56161627450314" lon="10.228017818617355"><ele>341.5</ele><time>2026-03-28T10:05:25.999Z</time></trkpt><trkpt lat="44.5617141103984" lon="10.227913211907746"><ele>341.25</ele><time>2026-03-28T10:05:26.999Z</time></trkpt><trkpt lat="44.56183838169144" lon="10.227842644831986"><ele>341.0</ele><time>2026-03-28T10:05:27.999Z</time></trkpt><trkpt lat="44.561959565383866" lon="10.2277889119987"><ele>340.0</ele><time>2026-03-28T10:05:28.999Z</time></trkpt><trkpt lat="44.56208567870119" lon="10.227713764031328"><ele>339.0</ele><time>2026-03-28T10:05:29.999Z</time></trkpt><trkpt lat="44.56220823311544" lon="10.227640355285528"><ele>338.0</ele><time>2026-03-28T10:05:30.999Z</time></trkpt><trkpt lat="44.56233350371118" lon="10.227563315809258"><ele>337.0</ele><time>2026-03-28T10:05:31.999Z</time></trkpt><trkpt lat="44.5624580261291" lon="10.227486543538918"><ele>337.0</ele><time>2026-03-28T10:05:32.999Z</time></trkpt><trkpt lat="44.56258287366515" lon="10.227408645227145"><ele>337.0</ele><time>2026-03-28T10:05:33.999Z</time></trkpt><trkpt lat="44.56270360646265" lon="10.227336563213827"><ele>337.0</ele><time>2026-03-28T10:05:34.999Z</time></trkpt><trkpt lat="44.562812587059334" lon="10.227270231442889"><ele>337.0</ele><time>2026-03-28T10:05:35.999Z</time></trkpt><trkpt lat="44.56291315331519" lon="10.227210601003636"><ele>336.8</ele><time>2026-03-28T10:05:36.999Z</time></trkpt><trkpt lat="44.56300606549284" lon="10.227156716268118"><ele>336.6</ele><time>2026-03-28T10:05:37.999Z</time></trkpt><trkpt lat="44.56310258919533" lon="10.227101457289876"><ele>336.40000000000003</ele><time>2026-03-28T10:05:38.999Z</time></trkpt><trkpt lat="44.563207023107616" lon="10.227036761170632"><ele>336.20000000000005</ele><time>2026-03-28T10:05:39.999Z</time></trkpt><trkpt lat="44.56331097371444" lon="10.22697270338464"><ele>336.0</ele><time>2026-03-28T10:05:40.999Z</time></trkpt><trkpt lat="44.56341441284602" lon="10.226911931534598"><ele>336.0</ele><time>2026-03-28T10:05:41.999Z</time></trkpt><trkpt lat="44.56351576786475" lon="10.226849739885186"><ele>336.0</ele><time>2026-03-28T10:05:42.999Z</time></trkpt><trkpt lat="44.5636150666085" lon="10.22678880918766"><ele>336.0</ele><time>2026-03-28T10:05:43.999Z</time></trkpt><trkpt lat="44.56371028212459" lon="10.226727961876307"><ele>336.0</ele><time>2026-03-28T10:05:44.999Z</time></trkpt><trkpt lat="44.5638056959353" lon="10.226667142273048"><ele>336.0</ele><time>2026-03-28T10:05:45.999Z</time></trkpt><trkpt lat="44.5639036189342" lon="10.226607886746713"><ele>336.6</ele><time>2026-03-28T10:05:46.999Z</time></trkpt><trkpt lat="44.56400320348159" lon="10.22654933816182"><ele>337.20000000000005</ele><time>2026-03-28T10:05:47.999Z</time></trkpt><trkpt lat="44.564103325319486" lon="10.226490493107647"><ele>337.79999999999995</ele><time>2026-03-28T10:05:48.999Z</time></trkpt><trkpt lat="44.564198958460345" lon="10.226430055474621"><ele>338.4</ele><time>2026-03-28T10:05:49.999Z</time></trkpt><trkpt lat="44.56428763999295" lon="10.226384829722782"><ele>339.0</ele><time>2026-03-28T10:05:50.999Z</time></trkpt><trkpt lat="44.564372538865676" lon="10.226362096126515"><ele>339.57142857142856</ele><time>2026-03-28T10:05:51.999Z</time></trkpt><trkpt lat="44.56445441352821" lon="10.226366570580488"><ele>340.14285714285717</ele><time>2026-03-28T10:05:52.999Z</time></trkpt><trkpt lat="44.5645251826923" lon="10.226388278237613"><ele>340.7142857142857</ele><time>2026-03-28T10:05:53.999Z</time></trkpt><trkpt lat="44.56458643669276" lon="10.226433638931983"><ele>341.2857142857143</ele><time>2026-03-28T10:05:54.999Z</time></trkpt><trkpt lat="44.56463952114618" lon="10.226506742606999"><ele>341.8571428571429</ele><time>2026-03-28T10:05:55.999Z</time></trkpt><trkpt lat="44.564672244392476" lon="10.226602057017802"><ele>342.42857142857144</ele><time>2026-03-28T10:05:56.999Z</time></trkpt><trkpt lat="44.5646977228765" lon="10.226684793090703"><ele>343.0</ele><time>2026-03-28T10:05:57.999Z</time></trkpt><trkpt lat="44.564731411021135" lon="10.226774579949698"><ele>344.16666666666663</ele><time>2026-03-28T10:05:58.999Z</time></trkpt><trkpt lat="44.564774209327005" lon="10.226870544189177"><ele>345.3333333333333</ele><time>2026-03-28T10:05:59.999Z</time></trkpt><trkpt lat="44.56482544588581" lon="10.226957045761935"><ele>346.5</ele><time>2026-03-28T10:06:00.999Z</time></trkpt><trkpt lat="44.56489119381693" lon="10.227032259598955"><ele>347.6666666666667</ele><time>2026-03-28T10:06:01.999Z</time></trkpt><trkpt lat="44.564958791644756" lon="10.227081772584238"><ele>348.83333333333337</ele><time>2026-03-28T10:06:02.999Z</time></trkpt><trkpt lat="44.56502122479104" lon="10.227117796933353"><ele>350.0</ele><time>2026-03-28T10:06:03.999Z</time></trkpt><trkpt lat="44.565090065881975" lon="10.227151225322018"><ele>350.0</ele><time>2026-03-28T10:06:04.999Z</time></trkpt><trkpt lat="44.565166062189256" lon="10.227195143481882"><ele>350.0</ele><time>2026-03-28T10:06:05.999Z</time></trkpt><trkpt lat="44.565241428131145" lon="10.227263437632661"><ele>350.0</ele><time>2026-03-28T10:06:06.999Z</time></trkpt><trkpt lat="44.56531494674097" lon="10.227340342574667"><ele>350.0</ele><time>2026-03-28T10:06:07.999Z</time></trkpt><trkpt lat="44.56538129181696" lon="10.22741988304596"><ele>350.0</ele><time>2026-03-28T10:06:08.999Z</time></trkpt><trkpt lat="44.56544224672844" lon="10.227497893767321"><ele>350.0</ele><time>2026-03-28T10:06:09.999Z</time></trkpt><trkpt lat="44.565497236283086" lon="10.22757298254072"><ele>350.1666666666667</ele><time>2026-03-28T10:06:11Z</time></trkpt><trkpt lat="44.565553621005805" lon="10.227649694524493"><ele>350.33333333333337</ele><time>2026-03-28T10:06:12Z</time></trkpt><trkpt lat="44.56561131141637" lon="10.227718213446149"><ele>350.5</ele><time>2026-03-28T10:06:13Z</time></trkpt><trkpt lat="44.56567101383487" lon="10.227789848007635"><ele>350.6666666666667</ele><time>2026-03-28T10:06:14Z</time></trkpt><trkpt lat="44.56572925127681" lon="10.227863022754976"><ele>350.8333333333333</ele><time>2026-03-28T10:06:15Z</time></trkpt><trkpt lat="44.565787188428004" lon="10.227938590466309"><ele>351.0</ele><time>2026-03-28T10:06:16Z</time></trkpt><trkpt lat="44.56585038152593" lon="10.228019277253612"><ele>351.0</ele><time>2026-03-28T10:06:17Z</time></trkpt><trkpt lat="44.56591495639768" lon="10.228104764844401"><ele>351.0</ele><time>2026-03-28T10:06:18Z</time></trkpt><trkpt lat="44.565983795259655" lon="10.228188400010508"><ele>351.0</ele><time>2026-03-28T10:06:19Z</time></trkpt><trkpt lat="44.56605661954343" lon="10.228269613153522"><ele>351.0</ele><time>2026-03-28T10:06:20Z</time></trkpt><trkpt lat="44.56612477411926" lon="10.22835615512613"><ele>351.0</ele><time>2026-03-28T10:06:21Z</time></trkpt><trkpt lat="44.5661911503763" lon="10.228449917411027"><ele>352.20000000000005</ele><time>2026-03-28T10:06:22Z</time></trkpt><trkpt lat="44.56625254345652" lon="10.228551274683909"><ele>353.40000000000003</ele><time>2026-03-28T10:06:23Z</time></trkpt><trkpt lat="44.56631106642327" lon="10.228661319791797"><ele>354.6</ele><time>2026-03-28T10:06:24Z</time></trkpt><trkpt lat="44.56637250005681" lon="10.228770139711267"><ele>355.8</ele><time>2026-03-28T10:06:25Z</time></trkpt><trkpt lat="44.566430771525155" lon="10.228874467434583"><ele>357.0</ele><time>2026-03-28T10:06:26Z</time></trkpt><trkpt lat="44.56648277950447" lon="10.228974878283312"><ele>355.3333333333333</ele><time>2026-03-28T10:06:27Z</time></trkpt><trkpt lat="44.566531596820774" lon="10.229061511484762"><ele>353.6666666666667</ele><time>2026-03-28T10:06:28Z</time></trkpt><trkpt lat="44.566567106660635" lon="10.229142616994098"><ele>352.0</ele><time>2026-03-28T10:06:29Z</time></trkpt><trkpt lat="44.56666679446953" lon="10.229259213725124"><ele>350.33333333333337</ele><time>2026-03-28T10:06:31Z</time></trkpt><trkpt lat="44.56673696058814" lon="10.229334058182921"><ele>348.6666666666667</ele><time>2026-03-28T10:06:32Z</time></trkpt><trkpt lat="44.56680600554269" lon="10.229340506068231"><ele>347.0</ele><time>2026-03-28T10:06:33Z</time></trkpt><trkpt lat="44.566825207573324" lon="10.229131006177097"><ele>347.0</ele><time>2026-03-28T10:06:35Z</time></trkpt><trkpt lat="44.56677152253834" lon="10.229037569883348"><ele>347.0</ele><time>2026-03-28T10:06:36Z</time></trkpt><trkpt lat="44.56670508875598" lon="10.228989106406912"><ele>347.0</ele><time>2026-03-28T10:06:37Z</time></trkpt><trkpt lat="44.56663186663277" lon="10.22894016672984"><ele>347.0</ele><time>2026-03-28T10:06:38Z</time></trkpt><trkpt lat="44.56654135036498" lon="10.228852567963836"><ele>347.0</ele><time>2026-03-28T10:06:39Z</time></trkpt><trkpt lat="44.56647519287047" lon="10.228750038322385"><ele>349.5</ele><time>2026-03-28T10:06:40Z</time></trkpt><trkpt lat="44.56640325120079" lon="10.228610696206744"><ele>352.0</ele><time>2026-03-28T10:06:41Z</time></trkpt><trkpt lat="44.56633875637255" lon="10.228471616745578"><ele>354.5</ele><time>2026-03-28T10:06:42Z</time></trkpt><trkpt lat="44.566287312494616" lon="10.228321055526896"><ele>357.0</ele><time>2026-03-28T10:06:43Z</time></trkpt><trkpt lat="44.566264620864885" lon="10.228134756231448"><ele>359.6666666666667</ele><time>2026-03-28T10:06:44Z</time></trkpt><trkpt lat="44.566272382039486" lon="10.227910357430366"><ele>362.33333333333337</ele><time>2026-03-28T10:06:45Z</time></trkpt><trkpt lat="44.56628811332764" lon="10.22766879448134"><ele>365.0</ele><time>2026-03-28T10:06:46Z</time></trkpt><trkpt lat="44.56630079538052" lon="10.227455269067415"><ele>363.5</ele><time>2026-03-28T10:06:47Z</time></trkpt><trkpt lat="44.56630281935997" lon="10.227277407239574"><ele>362.0</ele><time>2026-03-28T10:06:48Z</time></trkpt><trkpt lat="44.56627129409898" lon="10.227112196646885"><ele>360.5</ele><time>2026-03-28T10:06:49Z</time></trkpt><trkpt lat="44.56620232398116" lon="10.226930288731703"><ele>359.0</ele><time>2026-03-28T10:06:50Z</time></trkpt><trkpt lat="44.566068827335265" lon="10.22676014268938"><ele>359.0</ele><time>2026-03-28T10:06:51Z</time></trkpt><trkpt lat="44.5658981942032" lon="10.226570508629534"><ele>359.0</ele><time>2026-03-28T10:06:52Z</time></trkpt><trkpt lat="44.56572956719611" lon="10.226329135284361"><ele>359.33333333333337</ele><time>2026-03-28T10:06:53Z</time></trkpt><trkpt lat="44.56558456981503" lon="10.226163856627393"><ele>359.6666666666667</ele><time>2026-03-28T10:06:54Z</time></trkpt><trkpt lat="44.5654400163902" lon="10.225967496752062"><ele>360.0</ele><time>2026-03-28T10:06:55Z</time></trkpt><trkpt lat="44.56531352478631" lon="10.225775240367284"><ele>363.3333333333333</ele><time>2026-03-28T10:06:56Z</time></trkpt><trkpt lat="44.56518212096966" lon="10.22560124644476"><ele>366.66666666666663</ele><time>2026-03-28T10:06:57Z</time></trkpt><trkpt lat="44.56507065444994" lon="10.225425812707758"><ele>370.0</ele><time>2026-03-28T10:06:58Z</time></trkpt><trkpt lat="44.565006165679584" lon="10.225231396043188"><ele>370.0</ele><time>2026-03-28T10:06:59Z</time></trkpt><trkpt lat="44.56499799525737" lon="10.225008606095273"><ele>370.0</ele><time>2026-03-28T10:07:00Z</time></trkpt><trkpt lat="44.565037512500965" lon="10.224773876602967"><ele>370.0</ele><time>2026-03-28T10:07:01Z</time></trkpt><trkpt lat="44.56506828538235" lon="10.22451565779591"><ele>371.5</ele><time>2026-03-28T10:07:02Z</time></trkpt><trkpt lat="44.565120327721424" lon="10.224309178560603"><ele>373.0</ele><time>2026-03-28T10:07:03Z</time></trkpt><trkpt lat="44.56515811516354" lon="10.224144124135977"><ele>374.5</ele><time>2026-03-28T10:07:04Z</time></trkpt><trkpt lat="44.56517306053567" lon="10.223981776636082"><ele>376.0</ele><time>2026-03-28T10:07:05Z</time></trkpt><trkpt lat="44.56516748742144" lon="10.223800364985175"><ele>377.66666666666663</ele><time>2026-03-28T10:07:06Z</time></trkpt><trkpt lat="44.56514440651767" lon="10.22359544125404"><ele>379.3333333333333</ele><time>2026-03-28T10:07:07Z</time></trkpt><trkpt lat="44.5650965966623" lon="10.223381501107482"><ele>381.0</ele><time>2026-03-28T10:07:08Z</time></trkpt><trkpt lat="44.56504304305374" lon="10.223151942049803"><ele>384.33333333333337</ele><time>2026-03-28T10:07:09Z</time></trkpt><trkpt lat="44.564982202359126" lon="10.222921531049204"><ele>387.6666666666667</ele><time>2026-03-28T10:07:10Z</time></trkpt><trkpt lat="44.56491896810885" lon="10.222695079192814"><ele>391.0</ele><time>2026-03-28T10:07:11Z</time></trkpt><trkpt lat="44.56481507477535" lon="10.22248779722037"><ele>388.6666666666667</ele><time>2026-03-28T10:07:12Z</time></trkpt><trkpt lat="44.564661406745216" lon="10.222306692250235"><ele>386.33333333333337</ele><time>2026-03-28T10:07:13Z</time></trkpt><trkpt lat="44.56448540883539" lon="10.222163534533548"><ele>384.0</ele><time>2026-03-28T10:07:14Z</time></trkpt><trkpt lat="44.56435036188245" lon="10.221998070017234"><ele>384.0</ele><time>2026-03-28T10:07:15Z</time></trkpt><trkpt lat="44.56425621414817" lon="10.221795775530602"><ele>384.0</ele><time>2026-03-28T10:07:16Z</time></trkpt><trkpt lat="44.56416143013288" lon="10.221540116696053"><ele>384.0</ele><time>2026-03-28T10:07:17Z</time></trkpt><trkpt lat="44.564060284625576" lon="10.221273686207136"><ele>388.0</ele><time>2026-03-28T10:07:18Z</time></trkpt><trkpt lat="44.563975266176556" lon="10.221001840879623"><ele>392.0</ele><time>2026-03-28T10:07:19Z</time></trkpt><trkpt lat="44.56387954314207" lon="10.22073144243851"><ele>396.0</ele><time>2026-03-28T10:07:20Z</time></trkpt><trkpt lat="44.56378750331917" lon="10.220459472904107"><ele>399.33333333333337</ele><time>2026-03-28T10:07:21Z</time></trkpt><trkpt lat="44.563711863216305" lon="10.220191960184684"><ele>402.6666666666667</ele><time>2026-03-28T10:07:22Z</time></trkpt><trkpt lat="44.56369444457245" lon="10.219924769036593"><ele>406.0</ele><time>2026-03-28T10:07:23Z</time></trkpt><trkpt lat="44.56371491055879" lon="10.219653512507932"><ele>406.33333333333337</ele><time>2026-03-28T10:07:24Z</time></trkpt><trkpt lat="44.56375383700457" lon="10.219362375960142"><ele>406.66666666666663</ele><time>2026-03-28T10:07:25Z</time></trkpt><trkpt lat="44.563792399785186" lon="10.21907681106701"><ele>407.0</ele><time>2026-03-28T10:07:26Z</time></trkpt><trkpt lat="44.5638149489499" lon="10.218815814196569"><ele>408.0</ele><time>2026-03-28T10:07:27Z</time></trkpt><trkpt lat="44.56379983546476" lon="10.218567629458267"><ele>409.0</ele><time>2026-03-28T10:07:28Z</time></trkpt><trkpt lat="44.56375165923584" lon="10.218300253689993"><ele>410.0</ele><time>2026-03-28T10:07:29Z</time></trkpt><trkpt lat="44.563692274514906" lon="10.21802586369734"><ele>403.66666666666663</ele><time>2026-03-28T10:07:30Z</time></trkpt><trkpt lat="44.5636445830255" lon="10.217767984917227"><ele>397.33333333333337</ele><time>2026-03-28T10:07:31Z</time></trkpt><trkpt lat="44.56360300283471" lon="10.21751685344258"><ele>391.0</ele><time>2026-03-28T10:07:32Z</time></trkpt><trkpt lat="44.56356893480405" lon="10.2172828495767"><ele>391.0</ele><time>2026-03-28T10:07:33Z</time></trkpt><trkpt lat="44.56353430748466" lon="10.217041853487162"><ele>391.0</ele><time>2026-03-28T10:07:33.999Z</time></trkpt><trkpt lat="44.56346370981117" lon="10.216788943638234"><ele>391.0</ele><time>2026-03-28T10:07:34.999Z</time></trkpt><trkpt lat="44.56337864750971" lon="10.216508265819478"><ele>392.5</ele><time>2026-03-28T10:07:35.999Z</time></trkpt><trkpt lat="44.56323622035458" lon="10.216251756351205"><ele>394.0</ele><time>2026-03-28T10:07:36.999Z</time></trkpt><trkpt lat="44.56312499714376" lon="10.215986068219497"><ele>394.0</ele><time>2026-03-28T10:07:37.999Z</time></trkpt><trkpt lat="44.563001665137165" lon="10.215704740488267"><ele>394.0</ele><time>2026-03-28T10:07:38.999Z</time></trkpt><trkpt lat="44.562894392156835" lon="10.215455691328927"><ele>394.0</ele><time>2026-03-28T10:07:39.999Z</time></trkpt><trkpt lat="44.56280527276114" lon="10.21522381699121"><ele>389.6666666666667</ele><time>2026-03-28T10:07:40.999Z</time></trkpt><trkpt lat="44.562770976083435" lon="10.214987827877778"><ele>385.33333333333337</ele><time>2026-03-28T10:07:41.999Z</time></trkpt><trkpt lat="44.5628184634163" lon="10.21470405064101"><ele>381.0</ele><time>2026-03-28T10:07:42.999Z</time></trkpt><trkpt lat="44.562837513361806" lon="10.214421206974487"><ele>386.33333333333337</ele><time>2026-03-28T10:07:43.999Z</time></trkpt><trkpt lat="44.56287090789206" lon="10.214116803525302"><ele>391.6666666666667</ele><time>2026-03-28T10:07:44.999Z</time></trkpt><trkpt lat="44.56288334422297" lon="10.213824386107424"><ele>397.0</ele><time>2026-03-28T10:07:45.999Z</time></trkpt><trkpt lat="44.562882799373014" lon="10.21354631760515"><ele>395.6666666666667</ele><time>2026-03-28T10:07:46.999Z</time></trkpt><trkpt lat="44.56285165544308" lon="10.213252773787252"><ele>394.33333333333337</ele><time>2026-03-28T10:07:47.999Z</time></trkpt><trkpt lat="44.56278566344301" lon="10.212962375719695"><ele>393.0</ele><time>2026-03-28T10:07:48.999Z</time></trkpt><trkpt lat="44.56268965363138" lon="10.212681348859025"><ele>393.0</ele><time>2026-03-28T10:07:49.999Z</time></trkpt><trkpt lat="44.56255992781495" lon="10.212415872945241"><ele>393.0</ele><time>2026-03-28T10:07:50.999Z</time></trkpt><trkpt lat="44.56241095555148" lon="10.21217456658736"><ele>390.0</ele><time>2026-03-28T10:07:51.999Z</time></trkpt><trkpt lat="44.56224639549762" lon="10.211987431485673"><ele>387.0</ele><time>2026-03-28T10:07:52.999Z</time></trkpt><trkpt lat="44.56209473005906" lon="10.211829117956741"><ele>384.0</ele><time>2026-03-28T10:07:53.999Z</time></trkpt><trkpt lat="44.56196658866831" lon="10.21167119845136"><ele>387.0</ele><time>2026-03-28T10:07:54.999Z</time></trkpt><trkpt lat="44.561894927973185" lon="10.211441926972519"><ele>390.0</ele><time>2026-03-28T10:07:55.999Z</time></trkpt><trkpt lat="44.56184707551758" lon="10.211178939146448"><ele>393.0</ele><time>2026-03-28T10:07:56.999Z</time></trkpt><trkpt lat="44.56180509333075" lon="10.210888859822967"><ele>396.33333333333337</ele><time>2026-03-28T10:07:57.999Z</time></trkpt><trkpt lat="44.561796332704525" lon="10.21058520108669"><ele>399.6666666666667</ele><time>2026-03-28T10:07:58.999Z</time></trkpt><trkpt lat="44.56176488846835" lon="10.210300572498076"><ele>403.0</ele><time>2026-03-28T10:07:59.999Z</time></trkpt><trkpt lat="44.561685441553564" lon="10.210006665449187"><ele>406.6666666666667</ele><time>2026-03-28T10:08:00.999Z</time></trkpt><trkpt lat="44.561595448890024" lon="10.209727489344534"><ele>410.33333333333337</ele><time>2026-03-28T10:08:01.999Z</time></trkpt><trkpt lat="44.56148405538318" lon="10.209454489040267"><ele>414.0</ele><time>2026-03-28T10:08:02.999Z</time></trkpt><trkpt lat="44.56135014450512" lon="10.209205583687508"><ele>408.0</ele><time>2026-03-28T10:08:03.999Z</time></trkpt><trkpt lat="44.56119196281979" lon="10.208960435737273"><ele>402.0</ele><time>2026-03-28T10:08:04.999Z</time></trkpt><trkpt lat="44.56103951408347" lon="10.208717943312957"><ele>402.0</ele><time>2026-03-28T10:08:05.999Z</time></trkpt><trkpt lat="44.560893621656085" lon="10.208465629878274"><ele>402.0</ele><time>2026-03-28T10:08:06.999Z</time></trkpt><trkpt lat="44.56074896762622" lon="10.208205013270234"><ele>401.0</ele><time>2026-03-28T10:08:07.999Z</time></trkpt><trkpt lat="44.5606093936138" lon="10.207956711543229"><ele>400.0</ele><time>2026-03-28T10:08:08.999Z</time></trkpt><trkpt lat="44.5604765745846" lon="10.2077162802446"><ele>399.0</ele><time>2026-03-28T10:08:09.999Z</time></trkpt><trkpt lat="44.56034491210151" lon="10.207488432649962"><ele>403.33333333333337</ele><time>2026-03-28T10:08:10.999Z</time></trkpt><trkpt lat="44.5602212968785" lon="10.20726540039541"><ele>407.6666666666667</ele><time>2026-03-28T10:08:11.999Z</time></trkpt><trkpt lat="44.56011697813454" lon="10.207043757310169"><ele>412.0</ele><time>2026-03-28T10:08:12.999Z</time></trkpt><trkpt lat="44.56005511811897" lon="10.206798150005973"><ele>412.0</ele><time>2026-03-28T10:08:13.999Z</time></trkpt><trkpt lat="44.56000426479138" lon="10.206539475373587"><ele>412.0</ele><time>2026-03-28T10:08:14.999Z</time></trkpt><trkpt lat="44.55994229693323" lon="10.206262358561256"><ele>412.0</ele><time>2026-03-28T10:08:15.999Z</time></trkpt><trkpt lat="44.55990542487291" lon="10.20598140700767"><ele>413.6666666666667</ele><time>2026-03-28T10:08:17Z</time></trkpt><trkpt lat="44.55987321014048" lon="10.205724360522028"><ele>415.33333333333337</ele><time>2026-03-28T10:08:18Z</time></trkpt><trkpt lat="44.55984022491286" lon="10.20548470254033"><ele>417.0</ele><time>2026-03-28T10:08:19Z</time></trkpt><trkpt lat="44.55980479501698" lon="10.205258116981826"><ele>418.33333333333337</ele><time>2026-03-28T10:08:20Z</time></trkpt><trkpt lat="44.55976713631713" lon="10.205033899612369"><ele>419.6666666666667</ele><time>2026-03-28T10:08:21Z</time></trkpt><trkpt lat="44.55972785118719" lon="10.204813703718605"><ele>421.0</ele><time>2026-03-28T10:08:22Z</time></trkpt><trkpt lat="44.55969398815445" lon="10.204601695491034"><ele>421.8</ele><time>2026-03-28T10:08:23Z</time></trkpt><trkpt lat="44.55967598537809" lon="10.20444738092981"><ele>422.6</ele><time>2026-03-28T10:08:24Z</time></trkpt><trkpt lat="44.55965240485895" lon="10.204318237029325"><ele>423.4</ele><time>2026-03-28T10:08:26Z</time></trkpt><trkpt lat="44.559726502802576" lon="10.20430591233494"><ele>424.2</ele><time>2026-03-28T10:08:29Z</time></trkpt><trkpt lat="44.55975455358351" lon="10.20442293848769"><ele>425.0</ele><time>2026-03-28T10:08:31Z</time></trkpt><trkpt lat="44.55977058541575" lon="10.20457116960724"><ele>425.0</ele><time>2026-03-28T10:08:32Z</time></trkpt><trkpt lat="44.559826337993364" lon="10.204770455358602"><ele>425.0</ele><time>2026-03-28T10:08:33Z</time></trkpt><trkpt lat="44.559889175007065" lon="10.204948726109105"><ele>425.0</ele><time>2026-03-28T10:08:34Z</time></trkpt><trkpt lat="44.55995776569759" lon="10.205087270619815"><ele>425.0</ele><time>2026-03-28T10:08:35Z</time></trkpt><trkpt lat="44.56004567384142" lon="10.205153990005485"><ele>424.0</ele><time>2026-03-28T10:08:36Z</time></trkpt><trkpt lat="44.5601520370957" lon="10.205162990155117"><ele>423.0</ele><time>2026-03-28T10:08:37Z</time></trkpt><trkpt lat="44.56025450655468" lon="10.205116066645981"><ele>422.0</ele><time>2026-03-28T10:08:38Z</time></trkpt><trkpt lat="44.56035477576987" lon="10.20499332748085"><ele>421.0</ele><time>2026-03-28T10:08:39Z</time></trkpt><trkpt lat="44.56045796487559" lon="10.20482293258377"><ele>426.75</ele><time>2026-03-28T10:08:40Z</time></trkpt><trkpt lat="44.5605730434769" lon="10.204639208360458"><ele>432.5</ele><time>2026-03-28T10:08:41Z</time></trkpt><trkpt lat="44.5606748242408" lon="10.204494306798825"><ele>438.25</ele><time>2026-03-28T10:08:42Z</time></trkpt><trkpt lat="44.560741909320335" lon="10.204396991783778"><ele>444.0</ele><time>2026-03-28T10:08:43Z</time></trkpt><trkpt lat="44.56078109918343" lon="10.204320816899484"><ele>444.0</ele><time>2026-03-28T10:08:44Z</time></trkpt><trkpt lat="44.56081504204373" lon="10.20423788901963"><ele>444.0</ele><time>2026-03-28T10:08:45Z</time></trkpt><trkpt lat="44.56080073134393" lon="10.204127687638492"><ele>444.0</ele><time>2026-03-28T10:08:46Z</time></trkpt><trkpt lat="44.560760483463845" lon="10.203963195956753"><ele>444.0</ele><time>2026-03-28T10:08:47Z</time></trkpt><trkpt lat="44.560672682264766" lon="10.203781752299953"><ele>444.0</ele><time>2026-03-28T10:08:48Z</time></trkpt><trkpt lat="44.56056744172743" lon="10.203620865582378"><ele>447.0</ele><time>2026-03-28T10:08:49Z</time></trkpt><trkpt lat="44.56050549403968" lon="10.203443190161"><ele>450.0</ele><time>2026-03-28T10:08:50Z</time></trkpt><trkpt lat="44.56046438812236" lon="10.20330331815538"><ele>453.0</ele><time>2026-03-28T10:08:51Z</time></trkpt><trkpt lat="44.56044191779678" lon="10.203172213648976"><ele>456.0</ele><time>2026-03-28T10:08:52Z</time></trkpt><trkpt lat="44.56050734087995" lon="10.203073137572595"><ele>459.0</ele><time>2026-03-28T10:08:54Z</time></trkpt><trkpt lat="44.56058160193785" lon="10.203189263192796"><ele>459.0</ele><time>2026-03-28T10:08:56Z</time></trkpt><trkpt lat="44.56059657195099" lon="10.203300460355514"><ele>459.0</ele><time>2026-03-28T10:08:57Z</time></trkpt><trkpt lat="44.560643361834465" lon="10.203383579529891"><ele>459.0</ele><time>2026-03-28T10:08:58Z</time></trkpt><trkpt lat="44.56071241729702" lon="10.203388009104538"><ele>459.0</ele><time>2026-03-28T10:08:59Z</time></trkpt><trkpt lat="44.56077241636825" lon="10.203336223711021"><ele>459.0</ele><time>2026-03-28T10:09:00Z</time></trkpt><trkpt lat="44.56077251939695" lon="10.203247068054909"><ele>459.0</ele><time>2026-03-28T10:09:02Z</time></trkpt><trkpt lat="44.5607264939737" lon="10.20304832384407"><ele>460.79999999999995</ele><time>2026-03-28T10:09:04Z</time></trkpt><trkpt lat="44.56071979643315" lon="10.202924778705382"><ele>462.59999999999997</ele><time>2026-03-28T10:09:05Z</time></trkpt><trkpt lat="44.560739853963256" lon="10.202779379365055"><ele>464.4</ele><time>2026-03-28T10:09:06Z</time></trkpt><trkpt lat="44.56075721575059" lon="10.202633752726255"><ele>466.2</ele><time>2026-03-28T10:09:07Z</time></trkpt><trkpt lat="44.56082752956142" lon="10.20254450790475"><ele>468.0</ele><time>2026-03-28T10:09:09Z</time></trkpt><trkpt lat="44.56091961247018" lon="10.202659699068525"><ele>468.0</ele><time>2026-03-28T10:09:11Z</time></trkpt><trkpt lat="44.56096139713282" lon="10.202797453259794"><ele>467.99999999999994</ele><time>2026-03-28T10:09:12Z</time></trkpt><trkpt lat="44.56099207280529" lon="10.202925213955039"><ele>467.99999999999994</ele><time>2026-03-28T10:09:13Z</time></trkpt><trkpt lat="44.561043684440776" lon="10.202985667140712"><ele>468.0</ele><time>2026-03-28T10:09:14Z</time></trkpt><trkpt lat="44.561179346076564" lon="10.202967013220203"><ele>468.0</ele><time>2026-03-28T10:09:16Z</time></trkpt><trkpt lat="44.561265749413884" lon="10.202893054016847"><ele>468.0</ele><time>2026-03-28T10:09:17Z</time></trkpt><trkpt lat="44.561314689300275" lon="10.202804264119719"><ele>468.0</ele><time>2026-03-28T10:09:18Z</time></trkpt><trkpt lat="44.56130834692585" lon="10.202655027213924"><ele>468.0</ele><time>2026-03-28T10:09:20Z</time></trkpt><trkpt lat="44.5612575036908" lon="10.20254431551654"><ele>468.0</ele><time>2026-03-28T10:09:22Z</time></trkpt><trkpt lat="44.561223370156384" lon="10.202462435039488"><ele>468.0</ele><time>2026-03-28T10:09:24Z</time></trkpt><trkpt lat="44.56119770629938" lon="10.202350508812364"><ele>468.0</ele><time>2026-03-28T10:09:26Z</time></trkpt><trkpt lat="44.56120387814553" lon="10.202233286619448"><ele>472.79999999999995</ele><time>2026-03-28T10:09:27Z</time></trkpt><trkpt lat="44.561238202912136" lon="10.202111876039758"><ele>477.59999999999997</ele><time>2026-03-28T10:09:28Z</time></trkpt><trkpt lat="44.56127915715895" lon="10.202043806571918"><ele>482.40000000000003</ele><time>2026-03-28T10:09:30Z</time></trkpt><trkpt lat="44.561331194525266" lon="10.201971850220168"><ele>487.20000000000005</ele><time>2026-03-28T10:10:26Z</time></trkpt><trkpt lat="44.56140036374938" lon="10.201968729136883"><ele>492.0</ele><time>2026-03-28T10:10:27Z</time></trkpt><trkpt lat="44.56149040803396" lon="10.202153445611344"><ele>492.0</ele><time>2026-03-28T10:10:29Z</time></trkpt><trkpt lat="44.561545568732505" lon="10.202316505862267"><ele>492.0</ele><time>2026-03-28T10:10:30Z</time></trkpt><trkpt lat="44.56161373405457" lon="10.202450768286687"><ele>492.0</ele><time>2026-03-28T10:10:31Z</time></trkpt><trkpt lat="44.56170469215695" lon="10.202596824484324"><ele>492.0</ele><time>2026-03-28T10:10:32Z</time></trkpt><trkpt lat="44.56179732978385" lon="10.202743324485038"><ele>491.8</ele><time>2026-03-28T10:10:33Z</time></trkpt><trkpt lat="44.56186279033041" lon="10.202919192810496"><ele>491.6</ele><time>2026-03-28T10:10:34Z</time></trkpt><trkpt lat="44.561892455076226" lon="10.20300423126523"><ele>491.40000000000003</ele><time>2026-03-28T10:10:35Z</time></trkpt><trkpt lat="44.561912818926096" lon="10.203102346713457"><ele>491.20000000000005</ele><time>2026-03-28T10:10:36Z</time></trkpt><trkpt lat="44.5620168163002" lon="10.203159740624262"><ele>491.0</ele><time>2026-03-28T10:10:38Z</time></trkpt><trkpt lat="44.56209411426452" lon="10.203101576812386"><ele>496.5</ele><time>2026-03-28T10:10:39Z</time></trkpt><trkpt lat="44.56213595604177" lon="10.20296496748148"><ele>502.0</ele><time>2026-03-28T10:10:40Z</time></trkpt><trkpt lat="44.5622181235484" lon="10.202841284458207"><ele>507.5</ele><time>2026-03-28T10:10:41Z</time></trkpt><trkpt lat="44.56232551825697" lon="10.202818146946612"><ele>513.0</ele><time>2026-03-28T10:10:43Z</time></trkpt><trkpt lat="44.562407263428646" lon="10.203024249331753"><ele>511.66666666666663</ele><time>2026-03-28T10:10:45Z</time></trkpt><trkpt lat="44.562466829467894" lon="10.203182165288691"><ele>510.3333333333333</ele><time>2026-03-28T10:10:46Z</time></trkpt><trkpt lat="44.562576385086786" lon="10.203309745560013"><ele>509.0</ele><time>2026-03-28T10:10:47Z</time></trkpt><trkpt lat="44.5627354557679" lon="10.203427810009908"><ele>515.0</ele><time>2026-03-28T10:10:48Z</time></trkpt><trkpt lat="44.56289272788631" lon="10.20353296521225"><ele>521.0</ele><time>2026-03-28T10:10:49Z</time></trkpt><trkpt lat="44.56302717274667" lon="10.203631355847438"><ele>527.0</ele><time>2026-03-28T10:10:50Z</time></trkpt><trkpt lat="44.56314032953419" lon="10.203718444305352"><ele>527.0</ele><time>2026-03-28T10:10:51Z</time></trkpt><trkpt lat="44.563247166484516" lon="10.203812734903881"><ele>527.0</ele><time>2026-03-28T10:10:52Z</time></trkpt><trkpt lat="44.5633509687826" lon="10.203890186347673"><ele>527.0</ele><time>2026-03-28T10:10:53Z</time></trkpt><trkpt lat="44.563441902133114" lon="10.203971253401223"><ele>527.0</ele><time>2026-03-28T10:10:54Z</time></trkpt><trkpt lat="44.56351347012311" lon="10.204088760360742"><ele>525.0</ele><time>2026-03-28T10:10:55Z</time></trkpt><trkpt lat="44.56350320812429" lon="10.204258359892233"><ele>523.0</ele><time>2026-03-28T10:10:56Z</time></trkpt><trkpt lat="44.56352890491418" lon="10.204432140788958"><ele>521.0</ele><time>2026-03-28T10:10:57Z</time></trkpt><trkpt lat="44.56353633260667" lon="10.204602454688866"><ele>519.0</ele><time>2026-03-28T10:10:58Z</time></trkpt><trkpt lat="44.56359192647091" lon="10.204742740340627"><ele>521.8</ele><time>2026-03-28T10:10:59Z</time></trkpt><trkpt lat="44.56370069153464" lon="10.204821688127259"><ele>524.5999999999999</ele><time>2026-03-28T10:11:00Z</time></trkpt><trkpt lat="44.56379809241564" lon="10.204882577916605"><ele>527.4</ele><time>2026-03-28T10:11:01Z</time></trkpt><trkpt lat="44.563885579644236" lon="10.204806698688111"><ele>530.1999999999999</ele><time>2026-03-28T10:11:02Z</time></trkpt><trkpt lat="44.563964309656775" lon="10.20479222862164"><ele>533.0</ele><time>2026-03-28T10:11:03Z</time></trkpt><trkpt lat="44.56405500324259" lon="10.204760718541817"><ele>533.0</ele><time>2026-03-28T10:11:04Z</time></trkpt><trkpt lat="44.56414574548325" lon="10.204762970501061"><ele>533.0</ele><time>2026-03-28T10:11:05Z</time></trkpt><trkpt lat="44.56423380721404" lon="10.204773543737312"><ele>533.0</ele><time>2026-03-28T10:11:06Z</time></trkpt><trkpt lat="44.56432490838867" lon="10.204784214844018"><ele>533.0</ele><time>2026-03-28T10:11:07Z</time></trkpt><trkpt lat="44.56441542523577" lon="10.204833801918712"><ele>533.0</ele><time>2026-03-28T10:11:08Z</time></trkpt><trkpt lat="44.56445271271419" lon="10.204979386126755"><ele>533.0</ele><time>2026-03-28T10:11:09Z</time></trkpt><trkpt lat="44.564447303472924" lon="10.20511973700625"><ele>533.0</ele><time>2026-03-28T10:11:10Z</time></trkpt><trkpt lat="44.56447756281897" lon="10.205232379547951"><ele>533.0</ele><time>2026-03-28T10:11:11Z</time></trkpt><trkpt lat="44.56450399696426" lon="10.205372436768734"><ele>533.0</ele><time>2026-03-28T10:11:15Z</time></trkpt><trkpt lat="44.564540697944196" lon="10.205456994863574"><ele>533.0</ele><time>2026-03-28T10:11:16Z</time></trkpt><trkpt lat="44.564667506337145" lon="10.20542526448174"><ele>534.3333333333333</ele><time>2026-03-28T10:11:17Z</time></trkpt><trkpt lat="44.56468578172799" lon="10.205584966438385"><ele>535.6666666666666</ele><time>2026-03-28T10:11:18Z</time></trkpt><trkpt lat="44.564746889045225" lon="10.205626543464739"><ele>537.0</ele><time>2026-03-28T10:11:19Z</time></trkpt><trkpt lat="44.56481609230469" lon="10.205682923103263"><ele>538.3333333333334</ele><time>2026-03-28T10:11:21Z</time></trkpt><trkpt lat="44.56490465669617" lon="10.205714266372853"><ele>539.6666666666667</ele><time>2026-03-28T10:11:34Z</time></trkpt><trkpt lat="44.56496897730916" lon="10.205747429505225"><ele>541.0</ele><time>2026-03-28T10:11:35Z</time></trkpt><trkpt lat="44.56504369427862" lon="10.205775741542455"><ele>541.0</ele><time>2026-03-28T10:11:36Z</time></trkpt><trkpt lat="44.565113304100436" lon="10.20580119884316"><ele>541.0</ele><time>2026-03-28T10:11:37Z</time></trkpt><trkpt lat="44.56522422929365" lon="10.205878681242437"><ele>541.0</ele><time>2026-03-28T10:11:39Z</time></trkpt><trkpt lat="44.56530129720944" lon="10.205920144494335"><ele>541.0</ele><time>2026-03-28T10:11:40Z</time></trkpt><trkpt lat="44.56536291597188" lon="10.205942926882656"><ele>541.0</ele><time>2026-03-28T10:11:41Z</time></trkpt><trkpt lat="44.56546187915585" lon="10.205966182570801"><ele>541.0</ele><time>2026-03-28T10:11:42.999Z</time></trkpt><trkpt lat="44.56552468973088" lon="10.20592894930054"><ele>544.0</ele><time>2026-03-28T10:11:44.999Z</time></trkpt><trkpt lat="44.56552652124369" lon="10.205798591591394"><ele>547.0</ele><time>2026-03-28T10:11:46.999Z</time></trkpt><trkpt lat="44.56551973920708" lon="10.20565604011751"><ele>550.0</ele><time>2026-03-28T10:11:48.999Z</time></trkpt><trkpt lat="44.56556379080054" lon="10.205559006546062"><ele>553.0</ele><time>2026-03-28T10:11:50.999Z</time></trkpt><trkpt lat="44.56565340181957" lon="10.205495933724949"><ele>556.0</ele><time>2026-03-28T10:11:52.999Z</time></trkpt><trkpt lat="44.56576740926592" lon="10.205533049662227"><ele>556.0</ele><time>2026-03-28T10:11:54.999Z</time></trkpt><trkpt lat="44.565835966798396" lon="10.20557472780442"><ele>556.0</ele><time>2026-03-28T10:11:55.999Z</time></trkpt><trkpt lat="44.56590497009246" lon="10.205632958773865"><ele>556.0</ele><time>2026-03-28T10:11:56.999Z</time></trkpt><trkpt lat="44.5660018434065" lon="10.205712707175138"><ele>556.0</ele><time>2026-03-28T10:11:58.999Z</time></trkpt><trkpt lat="44.566078519928325" lon="10.205788626661239"><ele>556.0</ele><time>2026-03-28T10:12:00.999Z</time></trkpt><trkpt lat="44.566162288474835" lon="10.20578175738466"><ele>556.0</ele><time>2026-03-28T10:12:02.999Z</time></trkpt><trkpt lat="44.566202403419474" lon="10.205656563777131"><ele>557.4</ele><time>2026-03-28T10:12:04.999Z</time></trkpt><trkpt lat="44.566128425749916" lon="10.205495442229344"><ele>558.8</ele><time>2026-03-28T10:12:06.999Z</time></trkpt><trkpt lat="44.56608400157689" lon="10.205404457309513"><ele>560.1999999999999</ele><time>2026-03-28T10:12:07.999Z</time></trkpt><trkpt lat="44.56606068748039" lon="10.205310045350362"><ele>561.6</ele><time>2026-03-28T10:12:08.999Z</time></trkpt><trkpt lat="44.56603737971376" lon="10.205227289186942"><ele>563.0</ele><time>2026-03-28T10:12:09.999Z</time></trkpt><trkpt lat="44.566021269175835" lon="10.205072613720384"><ele>563.0</ele><time>2026-03-28T10:12:11.999Z</time></trkpt><trkpt lat="44.56610950345035" lon="10.204985804195866"><ele>563.0</ele><time>2026-03-28T10:12:13.999Z</time></trkpt><trkpt lat="44.566216643577285" lon="10.205019437570213"><ele>563.0</ele><time>2026-03-28T10:12:15.999Z</time></trkpt><trkpt lat="44.56628187396358" lon="10.205057516553532"><ele>563.0</ele><time>2026-03-28T10:12:16.999Z</time></trkpt><trkpt lat="44.56635828594015" lon="10.205083496237737"><ele>563.0</ele><time>2026-03-28T10:12:17.999Z</time></trkpt><trkpt lat="44.566437407341155" lon="10.20506883650367"><ele>563.0</ele><time>2026-03-28T10:12:18.999Z</time></trkpt><trkpt lat="44.566508081563136" lon="10.205034923109746"><ele>565.0</ele><time>2026-03-28T10:12:19.999Z</time></trkpt><trkpt lat="44.566580072366" lon="10.20502330698738"><ele>567.0</ele><time>2026-03-28T10:12:20.999Z</time></trkpt><trkpt lat="44.56664010183168" lon="10.205061541842353"><ele>569.0</ele><time>2026-03-28T10:12:21.999Z</time></trkpt><trkpt lat="44.56669891027121" lon="10.205139335493485"><ele>571.0</ele><time>2026-03-28T10:12:22.999Z</time></trkpt><trkpt lat="44.56675239072162" lon="10.205207968451965"><ele>573.0</ele><time>2026-03-28T10:12:23.999Z</time></trkpt><trkpt lat="44.56681318961802" lon="10.205281325661508"><ele>575.0</ele><time>2026-03-28T10:12:24.999Z</time></trkpt><trkpt lat="44.56686556799685" lon="10.205347850557526"><ele>577.0</ele><time>2026-03-28T10:12:25.999Z</time></trkpt><trkpt lat="44.56695440661366" lon="10.205411746575706"><ele>577.0</ele><time>2026-03-28T10:12:27.999Z</time></trkpt><trkpt lat="44.56702573182226" lon="10.205356820054579"><ele>577.0</ele><time>2026-03-28T10:12:30Z</time></trkpt><trkpt lat="44.567055255793505" lon="10.205255809894746"><ele>577.0</ele><time>2026-03-28T10:12:31Z</time></trkpt><trkpt lat="44.56704672188465" lon="10.205167652634932"><ele>577.0</ele><time>2026-03-28T10:12:32Z</time></trkpt><trkpt lat="44.56702625591957" lon="10.205074630297739"><ele>577.0</ele><time>2026-03-28T10:12:33Z</time></trkpt><trkpt lat="44.56701015850945" lon="10.204952873455298"><ele>577.0</ele><time>2026-03-28T10:12:34Z</time></trkpt><trkpt lat="44.567002654361985" lon="10.204834017237753"><ele>578.3333333333334</ele><time>2026-03-28T10:12:35Z</time></trkpt><trkpt lat="44.56700443733806" lon="10.204729387477716"><ele>579.6666666666667</ele><time>2026-03-28T10:12:36Z</time></trkpt><trkpt lat="44.566996182894" lon="10.204624432310068"><ele>581.0</ele><time>2026-03-28T10:12:37Z</time></trkpt><trkpt lat="44.566960334653146" lon="10.204514474763927"><ele>582.3333333333334</ele><time>2026-03-28T10:12:38Z</time></trkpt><trkpt lat="44.56690560443014" lon="10.20442387098836"><ele>583.6666666666666</ele><time>2026-03-28T10:12:39Z</time></trkpt><trkpt lat="44.56684428105892" lon="10.204347611333668"><ele>585.0</ele><time>2026-03-28T10:12:40Z</time></trkpt><trkpt lat="44.56678205102913" lon="10.204256785849623"><ele>585.0</ele><time>2026-03-28T10:12:41Z</time></trkpt><trkpt lat="44.5667403360947" lon="10.204166493919846"><ele>585.0</ele><time>2026-03-28T10:12:42Z</time></trkpt><trkpt lat="44.56672476505271" lon="10.203981904824474"><ele>585.0</ele><time>2026-03-28T10:12:44Z</time></trkpt><trkpt lat="44.56675376360767" lon="10.203865397425659"><ele>585.0</ele><time>2026-03-28T10:12:45Z</time></trkpt><trkpt lat="44.56680600556651" lon="10.203763673383389"><ele>585.0</ele><time>2026-03-28T10:12:46Z</time></trkpt><trkpt lat="44.566860103340865" lon="10.203672372059511"><ele>586.1666666666666</ele><time>2026-03-28T10:12:47Z</time></trkpt><trkpt lat="44.56688963552065" lon="10.203555683327979"><ele>587.3333333333334</ele><time>2026-03-28T10:12:48Z</time></trkpt><trkpt lat="44.56690459056923" lon="10.203442801461284"><ele>588.5</ele><time>2026-03-28T10:12:49Z</time></trkpt><trkpt lat="44.566909574469136" lon="10.203318733782455"><ele>589.6666666666667</ele><time>2026-03-28T10:12:50Z</time></trkpt><trkpt lat="44.566891285019885" lon="10.20319300378245"><ele>590.8333333333334</ele><time>2026-03-28T10:12:51Z</time></trkpt><trkpt lat="44.56685956746892" lon="10.203076102521973"><ele>592.0</ele><time>2026-03-28T10:12:52Z</time></trkpt><trkpt lat="44.56683675111541" lon="10.202984056067267"><ele>593.0</ele><time>2026-03-28T10:12:53Z</time></trkpt><trkpt lat="44.566824049349925" lon="10.202884807999647"><ele>594.0</ele><time>2026-03-28T10:12:54Z</time></trkpt><trkpt lat="44.56682075676728" lon="10.202786363952903"><ele>595.0</ele><time>2026-03-28T10:12:55Z</time></trkpt><trkpt lat="44.566829100656555" lon="10.202619488965889"><ele>596.0</ele><time>2026-03-28T10:12:57Z</time></trkpt><trkpt lat="44.56682386922544" lon="10.202529855674156"><ele>597.0</ele><time>2026-03-28T10:12:58Z</time></trkpt><trkpt lat="44.5668127496224" lon="10.202426221410482"><ele>598.0</ele><time>2026-03-28T10:12:59Z</time></trkpt><trkpt lat="44.56679782038691" lon="10.202336035418806"><ele>600.1666666666667</ele><time>2026-03-28T10:13:00Z</time></trkpt><trkpt lat="44.56680093704406" lon="10.20219095186756"><ele>602.3333333333334</ele><time>2026-03-28T10:13:02Z</time></trkpt><trkpt lat="44.566865962729935" lon="10.202107755198055"><ele>604.5</ele><time>2026-03-28T10:13:04Z</time></trkpt><trkpt lat="44.56698052248797" lon="10.202125908372428"><ele>606.6666666666666</ele><time>2026-03-28T10:13:06Z</time></trkpt><trkpt lat="44.56703344243779" lon="10.202175075643927"><ele>608.8333333333333</ele><time>2026-03-28T10:13:07Z</time></trkpt><trkpt lat="44.56710009650387" lon="10.202227826520772"><ele>611.0</ele><time>2026-03-28T10:13:08Z</time></trkpt><trkpt lat="44.567164345164784" lon="10.202288291480045"><ele>611.7142857142858</ele><time>2026-03-28T10:13:09Z</time></trkpt><trkpt lat="44.56722379149489" lon="10.202347686460843"><ele>612.4285714285714</ele><time>2026-03-28T10:13:10Z</time></trkpt><trkpt lat="44.567264012400834" lon="10.202425305440428"><ele>613.1428571428571</ele><time>2026-03-28T10:13:11Z</time></trkpt><trkpt lat="44.5672980877618" lon="10.202522344132369"><ele>613.8571428571429</ele><time>2026-03-28T10:13:12Z</time></trkpt><trkpt lat="44.56733703500872" lon="10.2026133558806"><ele>614.5714285714286</ele><time>2026-03-28T10:13:13Z</time></trkpt><trkpt lat="44.56737922864695" lon="10.202683282339699"><ele>615.2857142857143</ele><time>2026-03-28T10:13:14Z</time></trkpt><trkpt lat="44.56743250871147" lon="10.20273737550035"><ele>616.0</ele><time>2026-03-28T10:13:15Z</time></trkpt><trkpt lat="44.5675371603535" lon="10.202762872344804"><ele>616.0</ele><time>2026-03-28T10:13:17Z</time></trkpt><trkpt lat="44.567629694859114" lon="10.20270462086288"><ele>616.0</ele><time>2026-03-28T10:13:20Z</time></trkpt><trkpt lat="44.567669155888694" lon="10.20257838553865"><ele>616.0</ele><time>2026-03-28T10:13:22Z</time></trkpt><trkpt lat="44.56765223147646" lon="10.202480779345203"><ele>616.0</ele><time>2026-03-28T10:13:23Z</time></trkpt><trkpt lat="44.56763728777089" lon="10.202367391850704"><ele>616.0</ele><time>2026-03-28T10:13:24Z</time></trkpt><trkpt lat="44.56761030558411" lon="10.202264289955819"><ele>616.0</ele><time>2026-03-28T10:13:25Z</time></trkpt><trkpt lat="44.56759246449102" lon="10.20217070977275"><ele>617.0</ele><time>2026-03-28T10:13:26Z</time></trkpt><trkpt lat="44.56758657976495" lon="10.202061142545652"><ele>618.0</ele><time>2026-03-28T10:13:27Z</time></trkpt><trkpt lat="44.567580057314125" lon="10.201954094102256"><ele>619.0</ele><time>2026-03-28T10:13:28Z</time></trkpt><trkpt lat="44.5675663817807" lon="10.201849971741332"><ele>620.0</ele><time>2026-03-28T10:13:29Z</time></trkpt><trkpt lat="44.567551810791116" lon="10.201759004553477"><ele>621.0</ele><time>2026-03-28T10:13:30Z</time></trkpt><trkpt lat="44.567537968483784" lon="10.201672695483131"><ele>622.0</ele><time>2026-03-28T10:13:31Z</time></trkpt><trkpt lat="44.567506368632884" lon="10.201584689522425"><ele>623.0</ele><time>2026-03-28T10:13:32Z</time></trkpt><trkpt lat="44.567461304236296" lon="10.201500452146325"><ele>624.4285714285714</ele><time>2026-03-28T10:13:33Z</time></trkpt><trkpt lat="44.56743048998318" lon="10.201420270777636"><ele>625.8571428571429</ele><time>2026-03-28T10:13:34Z</time></trkpt><trkpt lat="44.567424356346535" lon="10.201314927368275"><ele>627.2857142857142</ele><time>2026-03-28T10:13:35Z</time></trkpt><trkpt lat="44.56742192741765" lon="10.201217617438314"><ele>628.7142857142858</ele><time>2026-03-28T10:13:36Z</time></trkpt><trkpt lat="44.56744225350062" lon="10.201112639630194"><ele>630.1428571428571</ele><time>2026-03-28T10:13:37Z</time></trkpt><trkpt lat="44.56744803147243" lon="10.201019282747604"><ele>631.5714285714286</ele><time>2026-03-28T10:13:38Z</time></trkpt><trkpt lat="44.567454957921235" lon="10.20090029042847"><ele>633.0</ele><time>2026-03-28T10:13:39Z</time></trkpt><trkpt lat="44.567472868074155" lon="10.200756542402619"><ele>634.1666666666666</ele><time>2026-03-28T10:13:40Z</time></trkpt><trkpt lat="44.56747847358568" lon="10.200639528159469"><ele>635.3333333333334</ele><time>2026-03-28T10:13:41Z</time></trkpt><trkpt lat="44.56748456880118" lon="10.20052431507602"><ele>636.5</ele><time>2026-03-28T10:13:42Z</time></trkpt><trkpt lat="44.56748715352388" lon="10.200406691653415"><ele>637.6666666666667</ele><time>2026-03-28T10:13:43Z</time></trkpt><trkpt lat="44.56748282018237" lon="10.200299226018519"><ele>638.8333333333334</ele><time>2026-03-28T10:13:44Z</time></trkpt><trkpt lat="44.56746862291353" lon="10.200196675655864"><ele>640.0</ele><time>2026-03-28T10:13:45Z</time></trkpt><trkpt lat="44.56745219691253" lon="10.200092423155754"><ele>640.0</ele><time>2026-03-28T10:13:45.999Z</time></trkpt><trkpt lat="44.567427521683996" lon="10.200002276319971"><ele>640.0</ele><time>2026-03-28T10:13:46.999Z</time></trkpt><trkpt lat="44.56739429511471" lon="10.19987886271978"><ele>640.0</ele><time>2026-03-28T10:13:48.999Z</time></trkpt><trkpt lat="44.56739269758735" lon="10.199775470856526"><ele>640.0</ele><time>2026-03-28T10:13:50.999Z</time></trkpt><trkpt lat="44.567360485669084" lon="10.199607145082167"><ele>640.0</ele><time>2026-03-28T10:13:52.999Z</time></trkpt><trkpt lat="44.5673319736586" lon="10.199516527045796"><ele>640.0</ele><time>2026-03-28T10:13:53.999Z</time></trkpt><trkpt lat="44.56730369072209" lon="10.199419322915135"><ele>640.0</ele><time>2026-03-28T10:13:54.999Z</time></trkpt><trkpt lat="44.56728534911217" lon="10.199303714630156"><ele>640.0</ele><time>2026-03-28T10:13:55.999Z</time></trkpt><trkpt lat="44.5672866464984" lon="10.199179652088844"><ele>640.0</ele><time>2026-03-28T10:13:56.999Z</time></trkpt><trkpt lat="44.56732558878181" lon="10.199066741019088"><ele>640.0</ele><time>2026-03-28T10:13:57.999Z</time></trkpt><trkpt lat="44.56735661023367" lon="10.198924928687294"><ele>640.0</ele><time>2026-03-28T10:13:58.999Z</time></trkpt><trkpt lat="44.56740482616909" lon="10.198827128671475"><ele>640.0</ele><time>2026-03-28T10:13:59.999Z</time></trkpt><trkpt lat="44.56747295305519" lon="10.198781700531429"><ele>640.0</ele><time>2026-03-28T10:14:00.999Z</time></trkpt><trkpt lat="44.56753688704127" lon="10.198780965082317"><ele>640.0</ele><time>2026-03-28T10:14:01.999Z</time></trkpt><trkpt lat="44.56757912915258" lon="10.19892373574505"><ele>640.0</ele><time>2026-03-28T10:14:02.999Z</time></trkpt><trkpt lat="44.56762122595335" lon="10.19903414606289"><ele>640.0</ele><time>2026-03-28T10:14:03.999Z</time></trkpt><trkpt lat="44.567651775632065" lon="10.199162503006676"><ele>640.0</ele><time>2026-03-28T10:14:04.999Z</time></trkpt><trkpt lat="44.56770057452459" lon="10.199272028536154"><ele>640.8333333333334</ele><time>2026-03-28T10:14:05.999Z</time></trkpt><trkpt lat="44.56774727096028" lon="10.1993539936135"><ele>641.6666666666667</ele><time>2026-03-28T10:14:06.999Z</time></trkpt><trkpt lat="44.567792459325325" lon="10.19946433270405"><ele>642.5</ele><time>2026-03-28T10:14:07.999Z</time></trkpt><trkpt lat="44.56783606214718" lon="10.19956533640588"><ele>643.3333333333334</ele><time>2026-03-28T10:14:08.999Z</time></trkpt><trkpt lat="44.567875218412965" lon="10.199661702104876"><ele>644.1666666666666</ele><time>2026-03-28T10:14:09.999Z</time></trkpt><trkpt lat="44.56790828458349" lon="10.199749569840456"><ele>645.0</ele><time>2026-03-28T10:14:10.999Z</time></trkpt><trkpt lat="44.56794686683103" lon="10.199825656967713"><ele>647.3333333333334</ele><time>2026-03-28T10:14:12.999Z</time></trkpt><trkpt lat="44.56800859668324" lon="10.199890196735199"><ele>649.6666666666666</ele><time>2026-03-28T10:14:28.999Z</time></trkpt><trkpt lat="44.568072275117984" lon="10.199992839317943"><ele>652.0</ele><time>2026-03-28T10:14:33.999Z</time></trkpt><trkpt lat="44.568122669063484" lon="10.200102785168452"><ele>654.3333333333333</ele><time>2026-03-28T10:16:05.024Z</time></trkpt><trkpt lat="44.56806473687451" lon="10.200154617372512"><ele>656.6666666666666</ele><time>2026-03-28T10:20:01.999Z</time></trkpt><trkpt lat="44.56800296693606" lon="10.200115024686776"><ele>659.0</ele><time>2026-03-28T10:20:06.999Z</time></trkpt><trkpt lat="44.56797161878239" lon="10.200023450529317"><ele>659.0</ele><time>2026-03-28T10:20:09.999Z</time></trkpt><trkpt lat="44.56797890108534" lon="10.199920044798242"><ele>659.0</ele><time>2026-03-28T10:20:11.999Z</time></trkpt><trkpt lat="44.568023067987475" lon="10.199837811015557"><ele>659.0</ele><time>2026-03-28T10:20:13.999Z</time></trkpt><trkpt lat="44.56810098658995" lon="10.19971852034319"><ele>659.0</ele><time>2026-03-28T10:20:15.999Z</time></trkpt><trkpt lat="44.56812670308605" lon="10.199626618718845"><ele>659.0</ele><time>2026-03-28T10:20:16.999Z</time></trkpt><trkpt lat="44.56816926810749" lon="10.199504225535394"><ele>659.0</ele><time>2026-03-28T10:20:17.999Z</time></trkpt><trkpt lat="44.56820507375275" lon="10.19933996491136"><ele>658.6666666666666</ele><time>2026-03-28T10:20:18.999Z</time></trkpt><trkpt lat="44.56825218451512" lon="10.199142953446332"><ele>658.3333333333334</ele><time>2026-03-28T10:20:19.999Z</time></trkpt><trkpt lat="44.56832145795474" lon="10.198920802176179"><ele>658.0</ele><time>2026-03-28T10:20:20.999Z</time></trkpt><trkpt lat="44.56841330293819" lon="10.198703958736871"><ele>658.0</ele><time>2026-03-28T10:20:21.999Z</time></trkpt><trkpt lat="44.568489278609626" lon="10.198529174751473"><ele>658.0</ele><time>2026-03-28T10:20:22.999Z</time></trkpt><trkpt lat="44.568534568486264" lon="10.198390568246682"><ele>658.0</ele><time>2026-03-28T10:20:23.999Z</time></trkpt><trkpt lat="44.568581385071056" lon="10.198295738189648"><ele>658.0</ele><time>2026-03-28T10:20:24.999Z</time></trkpt><trkpt lat="44.56864897355431" lon="10.198223423003004"><ele>658.0</ele><time>2026-03-28T10:20:25.999Z</time></trkpt><trkpt lat="44.56876807812319" lon="10.198162188548391"><ele>659.75</ele><time>2026-03-28T10:20:26.999Z</time></trkpt><trkpt lat="44.56891117742611" lon="10.1981256634725"><ele>661.5</ele><time>2026-03-28T10:20:27.999Z</time></trkpt><trkpt lat="44.56905186659597" lon="10.19809253850436"><ele>663.25</ele><time>2026-03-28T10:20:28.999Z</time></trkpt><trkpt lat="44.5691781717503" lon="10.198012396050283"><ele>665.0</ele><time>2026-03-28T10:20:29.999Z</time></trkpt><trkpt lat="44.569299661278905" lon="10.197906621833182"><ele>665.0</ele><time>2026-03-28T10:20:30.999Z</time></trkpt><trkpt lat="44.569446403324235" lon="10.197860866721292"><ele>665.0</ele><time>2026-03-28T10:20:31.999Z</time></trkpt><trkpt lat="44.56958461459237" lon="10.19780386670631"><ele>665.0</ele><time>2026-03-28T10:20:32.999Z</time></trkpt><trkpt lat="44.56971284237355" lon="10.197764932719956"><ele>665.0</ele><time>2026-03-28T10:20:33.999Z</time></trkpt><trkpt lat="44.569834290259216" lon="10.197722981828568"><ele>667.6</ele><time>2026-03-28T10:20:34.999Z</time></trkpt><trkpt lat="44.56993947101745" lon="10.19767594979676"><ele>670.2</ele><time>2026-03-28T10:20:35.999Z</time></trkpt><trkpt lat="44.57003804332394" lon="10.19762948010429"><ele>672.8</ele><time>2026-03-28T10:20:36.999Z</time></trkpt><trkpt lat="44.57012588443972" lon="10.19761517035404"><ele>675.4</ele><time>2026-03-28T10:20:37.999Z</time></trkpt><trkpt lat="44.57020249679208" lon="10.197643914649323"><ele>678.0</ele><time>2026-03-28T10:20:38.999Z</time></trkpt><trkpt lat="44.5702708200536" lon="10.197749581431944"><ele>678.0</ele><time>2026-03-28T10:20:39.999Z</time></trkpt><trkpt lat="44.57033460967846" lon="10.197868764211004"><ele>678.0</ele><time>2026-03-28T10:20:40.999Z</time></trkpt><trkpt lat="44.5703998742468" lon="10.197976840199686"><ele>678.0</ele><time>2026-03-28T10:20:41.999Z</time></trkpt><trkpt lat="44.570478192930935" lon="10.198040904799008"><ele>678.0</ele><time>2026-03-28T10:20:42.999Z</time></trkpt><trkpt lat="44.570570684133074" lon="10.19805845262385"><ele>678.0</ele><time>2026-03-28T10:20:43.999Z</time></trkpt><trkpt lat="44.57065001104678" lon="10.198046387721632"><ele>679.4</ele><time>2026-03-28T10:20:44.999Z</time></trkpt><trkpt lat="44.57072785358734" lon="10.19801886399453"><ele>680.8</ele><time>2026-03-28T10:20:45.999Z</time></trkpt><trkpt lat="44.57081423092786" lon="10.197963303515687"><ele>682.2</ele><time>2026-03-28T10:20:46.999Z</time></trkpt><trkpt lat="44.5709029974725" lon="10.197886498934087"><ele>683.6</ele><time>2026-03-28T10:20:47.999Z</time></trkpt><trkpt lat="44.57097197257576" lon="10.19779002635779"><ele>685.0</ele><time>2026-03-28T10:20:48.999Z</time></trkpt><trkpt lat="44.5710394292766" lon="10.197707100968755"><ele>685.0</ele><time>2026-03-28T10:20:49.999Z</time></trkpt><trkpt lat="44.571108993941095" lon="10.197623717350329"><ele>685.0</ele><time>2026-03-28T10:20:50.999Z</time></trkpt><trkpt lat="44.571163839755435" lon="10.197550892986474"><ele>685.0</ele><time>2026-03-28T10:20:51.999Z</time></trkpt><trkpt lat="44.57122086663375" lon="10.197512640088721"><ele>685.0</ele><time>2026-03-28T10:20:53Z</time></trkpt><trkpt lat="44.57128626974929" lon="10.197462841269129"><ele>685.0</ele><time>2026-03-28T10:20:55Z</time></trkpt><trkpt lat="44.571314075793474" lon="10.197274961228867"><ele>685.0</ele><time>2026-03-28T10:20:58Z</time></trkpt><trkpt lat="44.57137630453763" lon="10.197127902743324"><ele>688.6666666666667</ele><time>2026-03-28T10:20:59Z</time></trkpt><trkpt lat="44.5714693995804" lon="10.196966735847116"><ele>692.3333333333334</ele><time>2026-03-28T10:21:00Z</time></trkpt><trkpt lat="44.57156986853851" lon="10.196748861564782"><ele>696.0</ele><time>2026-03-28T10:21:01Z</time></trkpt><trkpt lat="44.5716873735339" lon="10.196528156546265"><ele>693.3333333333334</ele><time>2026-03-28T10:21:02Z</time></trkpt><trkpt lat="44.57181504721075" lon="10.196311019655996"><ele>690.6666666666667</ele><time>2026-03-28T10:21:03Z</time></trkpt><trkpt lat="44.57191638799665" lon="10.196118992654887"><ele>688.0</ele><time>2026-03-28T10:21:04Z</time></trkpt><trkpt lat="44.57201289318255" lon="10.195953794849311"><ele>689.3333333333334</ele><time>2026-03-28T10:21:05Z</time></trkpt><trkpt lat="44.57213835421528" lon="10.195778794780553"><ele>690.6666666666666</ele><time>2026-03-28T10:21:06Z</time></trkpt><trkpt lat="44.57229699779609" lon="10.195682390625574"><ele>692.0</ele><time>2026-03-28T10:21:07Z</time></trkpt><trkpt lat="44.57246545424817" lon="10.19559226623735"><ele>692.0</ele><time>2026-03-28T10:21:08Z</time></trkpt><trkpt lat="44.57262204681849" lon="10.195518938670139"><ele>692.0</ele><time>2026-03-28T10:21:09Z</time></trkpt><trkpt lat="44.57275934231031" lon="10.195432626625848"><ele>692.0</ele><time>2026-03-28T10:21:10Z</time></trkpt><trkpt lat="44.57286422820985" lon="10.19530394156188"><ele>696.6666666666666</ele><time>2026-03-28T10:21:11Z</time></trkpt><trkpt lat="44.572944184753474" lon="10.19512376284858"><ele>701.3333333333334</ele><time>2026-03-28T10:21:12Z</time></trkpt><trkpt lat="44.57301093761847" lon="10.194918241199842"><ele>706.0</ele><time>2026-03-28T10:21:13Z</time></trkpt><trkpt lat="44.57307862568576" lon="10.19471851629683"><ele>706.0</ele><time>2026-03-28T10:21:14Z</time></trkpt><trkpt lat="44.573163745533805" lon="10.194531254255804"><ele>706.0</ele><time>2026-03-28T10:21:15Z</time></trkpt><trkpt lat="44.573251824993655" lon="10.194343674297036"><ele>706.0</ele><time>2026-03-28T10:21:16Z</time></trkpt><trkpt lat="44.573336669933326" lon="10.194137652078178"><ele>705.0</ele><time>2026-03-28T10:21:17Z</time></trkpt><trkpt lat="44.573408979406985" lon="10.193925475551513"><ele>704.0</ele><time>2026-03-28T10:21:18Z</time></trkpt><trkpt lat="44.573454671283564" lon="10.193719562041647"><ele>703.0</ele><time>2026-03-28T10:21:19Z</time></trkpt><trkpt lat="44.5734876892403" lon="10.19353590455027"><ele>703.0</ele><time>2026-03-28T10:21:20Z</time></trkpt><trkpt lat="44.573526352251754" lon="10.193342858702625"><ele>703.0</ele><time>2026-03-28T10:21:21Z</time></trkpt><trkpt lat="44.57356878559788" lon="10.193157869203707"><ele>703.0</ele><time>2026-03-28T10:21:22Z</time></trkpt><trkpt lat="44.57360133951494" lon="10.192972662642582"><ele>703.0</ele><time>2026-03-28T10:21:23Z</time></trkpt><trkpt lat="44.57363759726979" lon="10.192797528437229"><ele>702.5</ele><time>2026-03-28T10:21:24Z</time></trkpt><trkpt lat="44.573675958800685" lon="10.192613983423046"><ele>702.0</ele><time>2026-03-28T10:21:25Z</time></trkpt><trkpt lat="44.573728885525476" lon="10.192453680910926"><ele>701.5</ele><time>2026-03-28T10:21:26Z</time></trkpt><trkpt lat="44.57375228630151" lon="10.192277637205729"><ele>701.0</ele><time>2026-03-28T10:21:27Z</time></trkpt><trkpt lat="44.57378822512663" lon="10.192106301504047"><ele>704.75</ele><time>2026-03-28T10:21:28Z</time></trkpt><trkpt lat="44.57381910901527" lon="10.191945046812528"><ele>708.5</ele><time>2026-03-28T10:21:29Z</time></trkpt><trkpt lat="44.57385579319317" lon="10.191774977736074"><ele>712.25</ele><time>2026-03-28T10:21:30Z</time></trkpt><trkpt lat="44.573896452659916" lon="10.19161369670468"><ele>716.0</ele><time>2026-03-28T10:21:31Z</time></trkpt><trkpt lat="44.57392895529586" lon="10.191473358222552"><ele>716.0</ele><time>2026-03-28T10:21:32Z</time></trkpt><trkpt lat="44.57395359575126" lon="10.191365426235992"><ele>716.0</ele><time>2026-03-28T10:21:33Z</time></trkpt><trkpt lat="44.57397650097545" lon="10.191265162307456"><ele>716.0</ele><time>2026-03-28T10:21:34Z</time></trkpt><trkpt lat="44.57399602019468" lon="10.191155933815317"><ele>716.0</ele><time>2026-03-28T10:21:35Z</time></trkpt><trkpt lat="44.574021221225884" lon="10.191040593657592"><ele>716.0</ele><time>2026-03-28T10:21:36Z</time></trkpt><trkpt lat="44.574047207137056" lon="10.190920676449323"><ele>716.0</ele><time>2026-03-28T10:21:37Z</time></trkpt><trkpt lat="44.574073023616556" lon="10.190827047743113"><ele>716.0</ele><time>2026-03-28T10:21:38Z</time></trkpt><trkpt lat="44.57409509516377" lon="10.190732776696251"><ele>716.0</ele><time>2026-03-28T10:21:39Z</time></trkpt><trkpt lat="44.57411760355093" lon="10.190648089657303"><ele>716.0</ele><time>2026-03-28T10:21:40Z</time></trkpt><trkpt lat="44.57416331381295" lon="10.190525396975666"><ele>716.0</ele><time>2026-03-28T10:21:42Z</time></trkpt><trkpt lat="44.57420244116486" lon="10.19044306021386"><ele>716.0</ele><time>2026-03-28T10:21:48Z</time></trkpt><trkpt lat="44.57416805144962" lon="10.190349758522194"><ele>716.0</ele><time>2026-03-28T10:24:53.999Z</time></trkpt><trkpt lat="44.57423847914896" lon="10.190208019792845"><ele>715.1999999999999</ele><time>2026-03-28T10:24:55.999Z</time></trkpt><trkpt lat="44.57429650136835" lon="10.190092530259234"><ele>714.4</ele><time>2026-03-28T10:24:56.999Z</time></trkpt><trkpt lat="44.57436386946066" lon="10.18997751545703"><ele>713.6</ele><time>2026-03-28T10:24:57.999Z</time></trkpt><trkpt lat="44.57442126059366" lon="10.189878585959285"><ele>712.8</ele><time>2026-03-28T10:24:58.999Z</time></trkpt><trkpt lat="44.57447204400151" lon="10.189766504655697"><ele>712.0</ele><time>2026-03-28T10:24:59.999Z</time></trkpt><trkpt lat="44.574516938233735" lon="10.18961189789661"><ele>719.6666666666667</ele><time>2026-03-28T10:25:00.999Z</time></trkpt><trkpt lat="44.574545148154684" lon="10.18941901044971"><ele>727.3333333333334</ele><time>2026-03-28T10:25:01.999Z</time></trkpt><trkpt lat="44.5745500276543" lon="10.189200590459981"><ele>735.0</ele><time>2026-03-28T10:25:02.999Z</time></trkpt><trkpt lat="44.5745566570591" lon="10.188951649660428"><ele>735.0</ele><time>2026-03-28T10:25:03.999Z</time></trkpt><trkpt lat="44.5745750830588" lon="10.188687578177316"><ele>735.0</ele><time>2026-03-28T10:25:05Z</time></trkpt><trkpt lat="44.57461665922713" lon="10.18842867910217"><ele>735.0</ele><time>2026-03-28T10:25:06Z</time></trkpt><trkpt lat="44.57467615655475" lon="10.188186924818346"><ele>736.6666666666666</ele><time>2026-03-28T10:25:07Z</time></trkpt><trkpt lat="44.57472820375196" lon="10.187942361155162"><ele>738.3333333333333</ele><time>2026-03-28T10:25:08Z</time></trkpt><trkpt lat="44.57478525882031" lon="10.187732775998173"><ele>740.0</ele><time>2026-03-28T10:25:09Z</time></trkpt><trkpt lat="44.574813039884305" lon="10.187542807535248"><ele>740.0</ele><time>2026-03-28T10:25:10Z</time></trkpt><trkpt lat="44.5748054675635" lon="10.187362654909075"><ele>740.0</ele><time>2026-03-28T10:25:11Z</time></trkpt><trkpt lat="44.57480005734632" lon="10.187196807371752"><ele>740.0</ele><time>2026-03-28T10:25:12Z</time></trkpt><trkpt lat="44.57477944813493" lon="10.18704318043359"><ele>740.0</ele><time>2026-03-28T10:25:13Z</time></trkpt><trkpt lat="44.574755486270746" lon="10.18688880195133"><ele>741.6</ele><time>2026-03-28T10:25:14Z</time></trkpt><trkpt lat="44.57473542703189" lon="10.186745464718875"><ele>743.2</ele><time>2026-03-28T10:25:15Z</time></trkpt><trkpt lat="44.574723755562" lon="10.186608197220096"><ele>744.8</ele><time>2026-03-28T10:25:16Z</time></trkpt><trkpt lat="44.5747097966444" lon="10.186462507063434"><ele>746.4</ele><time>2026-03-28T10:25:17Z</time></trkpt><trkpt lat="44.5747630276919" lon="10.18632584758948"><ele>748.0</ele><time>2026-03-28T10:25:18Z</time></trkpt><trkpt lat="44.57482005222277" lon="10.186208166215144"><ele>748.4</ele><time>2026-03-28T10:25:19Z</time></trkpt><trkpt lat="44.574868613185046" lon="10.186085126935156"><ele>748.8</ele><time>2026-03-28T10:25:20Z</time></trkpt><trkpt lat="44.57490843053009" lon="10.185958859447238"><ele>749.2</ele><time>2026-03-28T10:25:21Z</time></trkpt><trkpt lat="44.57493028801873" lon="10.185816216724746"><ele>749.6</ele><time>2026-03-28T10:25:22Z</time></trkpt><trkpt lat="44.57492533084622" lon="10.185671757926741"><ele>750.0</ele><time>2026-03-28T10:25:23Z</time></trkpt><trkpt lat="44.574894629029565" lon="10.185524486483011"><ele>751.2</ele><time>2026-03-28T10:25:24Z</time></trkpt><trkpt lat="44.574877256366065" lon="10.185367037544372"><ele>752.4</ele><time>2026-03-28T10:25:25Z</time></trkpt><trkpt lat="44.57484800954331" lon="10.18522408347717"><ele>753.5999999999999</ele><time>2026-03-28T10:25:26Z</time></trkpt><trkpt lat="44.574816761599564" lon="10.185071524185167"><ele>754.8</ele><time>2026-03-28T10:25:27Z</time></trkpt><trkpt lat="44.5747849161263" lon="10.18491448258698"><ele>756.0</ele><time>2026-03-28T10:25:28Z</time></trkpt><trkpt lat="44.57475271126003" lon="10.184755316770756"><ele>758.25</ele><time>2026-03-28T10:25:29Z</time></trkpt><trkpt lat="44.57472067750313" lon="10.184596996640767"><ele>760.5</ele><time>2026-03-28T10:25:30Z</time></trkpt><trkpt lat="44.57468900067034" lon="10.184440302630653"><ele>762.75</ele><time>2026-03-28T10:25:31Z</time></trkpt><trkpt lat="44.57464827261179" lon="10.184237024373997"><ele>765.0</ele><time>2026-03-28T10:25:32Z</time></trkpt><trkpt lat="44.57460703376952" lon="10.184035427473367"><ele>769.0</ele><time>2026-03-28T10:25:33Z</time></trkpt><trkpt lat="44.57456479360122" lon="10.18382778480971"><ele>773.0</ele><time>2026-03-28T10:25:34Z</time></trkpt><trkpt lat="44.57452297610414" lon="10.183622165379663"><ele>777.0</ele><time>2026-03-28T10:25:35Z</time></trkpt><trkpt lat="44.574481079311425" lon="10.183411343798458"><ele>769.0</ele><time>2026-03-28T10:25:36Z</time></trkpt><trkpt lat="44.574438842099894" lon="10.183198684210371"><ele>761.0</ele><time>2026-03-28T10:25:37Z</time></trkpt><trkpt lat="44.5743994719954" lon="10.182998651958652"><ele>753.0</ele><time>2026-03-28T10:25:38Z</time></trkpt><trkpt lat="44.5743677796072" lon="10.182795219578162"><ele>753.0</ele><time>2026-03-28T10:25:39Z</time></trkpt><trkpt lat="44.5743661357091" lon="10.182569234882624"><ele>753.0</ele><time>2026-03-28T10:25:40Z</time></trkpt><trkpt lat="44.57438681197785" lon="10.182342605575254"><ele>753.0</ele><time>2026-03-28T10:25:41Z</time></trkpt><trkpt lat="44.57442536178876" lon="10.182115615529774"><ele>752.25</ele><time>2026-03-28T10:25:42Z</time></trkpt><trkpt lat="44.57448979707739" lon="10.181935007646139"><ele>751.5</ele><time>2026-03-28T10:25:43Z</time></trkpt><trkpt lat="44.57457033890955" lon="10.181802364986492"><ele>750.75</ele><time>2026-03-28T10:25:44Z</time></trkpt><trkpt lat="44.57468001012955" lon="10.18161960694158"><ele>750.0</ele><time>2026-03-28T10:25:45Z</time></trkpt><trkpt lat="44.574770021008696" lon="10.181430300750561"><ele>759.3333333333333</ele><time>2026-03-28T10:25:46Z</time></trkpt><trkpt lat="44.57483308863325" lon="10.18118300679408"><ele>768.6666666666666</ele><time>2026-03-28T10:25:47Z</time></trkpt><trkpt lat="44.57493081239513" lon="10.180969473635884"><ele>778.0</ele><time>2026-03-28T10:25:48Z</time></trkpt><trkpt lat="44.575056836518755" lon="10.18078001858695"><ele>776.6666666666666</ele><time>2026-03-28T10:25:49Z</time></trkpt><trkpt lat="44.575163069474776" lon="10.180600170293493"><ele>775.3333333333333</ele><time>2026-03-28T10:25:50Z</time></trkpt><trkpt lat="44.575238652955186" lon="10.180418891071323"><ele>774.0</ele><time>2026-03-28T10:25:51Z</time></trkpt><trkpt lat="44.57527178324864" lon="10.180204263490094"><ele>774.0</ele><time>2026-03-28T10:25:52Z</time></trkpt><trkpt lat="44.57526001679531" lon="10.179954525085986"><ele>774.0</ele><time>2026-03-28T10:25:53Z</time></trkpt><trkpt lat="44.5752385865449" lon="10.179669008201644"><ele>774.0</ele><time>2026-03-28T10:25:54Z</time></trkpt><trkpt lat="44.57522967330068" lon="10.179404188905925"><ele>775.0</ele><time>2026-03-28T10:25:55Z</time></trkpt><trkpt lat="44.57522753946802" lon="10.179134196858026"><ele>776.0</ele><time>2026-03-28T10:25:56Z</time></trkpt><trkpt lat="44.57522823909351" lon="10.17888390010535"><ele>777.0</ele><time>2026-03-28T10:25:57Z</time></trkpt><trkpt lat="44.57523123774488" lon="10.178626949111942"><ele>779.6666666666667</ele><time>2026-03-28T10:25:58Z</time></trkpt><trkpt lat="44.57523391604302" lon="10.178383973897592"><ele>782.3333333333334</ele><time>2026-03-28T10:25:59Z</time></trkpt><trkpt lat="44.575222770585434" lon="10.178156398278453"><ele>785.0</ele><time>2026-03-28T10:26:00Z</time></trkpt><trkpt lat="44.575259499049096" lon="10.177921196307674"><ele>786.3333333333334</ele><time>2026-03-28T10:26:01Z</time></trkpt><trkpt lat="44.57533301802533" lon="10.177683925827566"><ele>787.6666666666667</ele><time>2026-03-28T10:26:02Z</time></trkpt><trkpt lat="44.57541812037626" lon="10.177446115318357"><ele>789.0</ele><time>2026-03-28T10:26:03Z</time></trkpt><trkpt lat="44.5754949613316" lon="10.177230114767688"><ele>799.3333333333333</ele><time>2026-03-28T10:26:04Z</time></trkpt><trkpt lat="44.575558026086796" lon="10.177021207869851"><ele>809.6666666666666</ele><time>2026-03-28T10:26:05Z</time></trkpt><trkpt lat="44.57562323270673" lon="10.176818825201728"><ele>820.0</ele><time>2026-03-28T10:26:06Z</time></trkpt><trkpt lat="44.57564845449978" lon="10.17659385408895"><ele>823.6666666666666</ele><time>2026-03-28T10:26:07Z</time></trkpt><trkpt lat="44.575608333594595" lon="10.176359455874243"><ele>827.3333333333333</ele><time>2026-03-28T10:26:08Z</time></trkpt><trkpt lat="44.57552532731349" lon="10.176142480187691"><ele>831.0</ele><time>2026-03-28T10:26:09Z</time></trkpt><trkpt lat="44.57539389484136" lon="10.175951002596129"><ele>826.0</ele><time>2026-03-28T10:26:10Z</time></trkpt><trkpt lat="44.575229972366294" lon="10.175814872281537"><ele>821.0</ele><time>2026-03-28T10:26:11Z</time></trkpt><trkpt lat="44.57511744347744" lon="10.175687607156851"><ele>816.0</ele><time>2026-03-28T10:26:12Z</time></trkpt><trkpt lat="44.57504998982424" lon="10.175528278861536"><ele>816.0</ele><time>2026-03-28T10:26:13Z</time></trkpt><trkpt lat="44.57502663248282" lon="10.175337975152694"><ele>816.0</ele><time>2026-03-28T10:26:14Z</time></trkpt><trkpt lat="44.57501156196338" lon="10.175104085201172"><ele>816.0</ele><time>2026-03-28T10:26:14.999Z</time></trkpt><trkpt lat="44.57498388097031" lon="10.174876476822746"><ele>818.6666666666667</ele><time>2026-03-28T10:26:15.999Z</time></trkpt><trkpt lat="44.57496870749927" lon="10.174631154681293"><ele>821.3333333333334</ele><time>2026-03-28T10:26:16.999Z</time></trkpt><trkpt lat="44.57495775127099" lon="10.174383494461527"><ele>824.0</ele><time>2026-03-28T10:26:17.999Z</time></trkpt><trkpt lat="44.57493691325206" lon="10.174158489783839"><ele>824.75</ele><time>2026-03-28T10:26:18.999Z</time></trkpt><trkpt lat="44.57493845300408" lon="10.17395466486278"><ele>825.5</ele><time>2026-03-28T10:26:19.999Z</time></trkpt><trkpt lat="44.574925387292694" lon="10.173752844342822"><ele>826.25</ele><time>2026-03-28T10:26:20.999Z</time></trkpt><trkpt lat="44.5749126223273" lon="10.173556556459806"><ele>827.0</ele><time>2026-03-28T10:26:21.999Z</time></trkpt><trkpt lat="44.574899517049644" lon="10.173372030887773"><ele>827.0</ele><time>2026-03-28T10:26:22.999Z</time></trkpt><trkpt lat="44.57487263634204" lon="10.173195667327537"><ele>827.0</ele><time>2026-03-28T10:26:23.999Z</time></trkpt><trkpt lat="44.57484090767324" lon="10.17303858674485"><ele>827.0</ele><time>2026-03-28T10:26:24.999Z</time></trkpt><trkpt lat="44.57479309802075" lon="10.172887022416715"><ele>827.0</ele><time>2026-03-28T10:26:25.999Z</time></trkpt><trkpt lat="44.5747172830363" lon="10.172743454903381"><ele>827.0</ele><time>2026-03-28T10:26:26.999Z</time></trkpt><trkpt lat="44.5746081884269" lon="10.172628992459249"><ele>827.0</ele><time>2026-03-28T10:26:27.999Z</time></trkpt><trkpt lat="44.574513286987774" lon="10.172506104045045"><ele>827.0</ele><time>2026-03-28T10:26:28.999Z</time></trkpt><trkpt lat="44.57446627156922" lon="10.17238724585507"><ele>827.0</ele><time>2026-03-28T10:26:29.999Z</time></trkpt><trkpt lat="44.57444055299503" lon="10.172223651767258"><ele>827.0</ele><time>2026-03-28T10:26:30.999Z</time></trkpt><trkpt lat="44.57447381033862" lon="10.172038980114404"><ele>827.0</ele><time>2026-03-28T10:26:31.999Z</time></trkpt><trkpt lat="44.574490771687444" lon="10.171813453507092"><ele>827.0</ele><time>2026-03-28T10:26:32.999Z</time></trkpt><trkpt lat="44.574525097267546" lon="10.171587921424091"><ele>835.25</ele><time>2026-03-28T10:26:33.999Z</time></trkpt><trkpt lat="44.57458099817513" lon="10.171381535166773"><ele>843.5</ele><time>2026-03-28T10:26:34.999Z</time></trkpt><trkpt lat="44.57464109186856" lon="10.171206351482184"><ele>851.75</ele><time>2026-03-28T10:26:35.999Z</time></trkpt><trkpt lat="44.574691069626425" lon="10.171052484890067"><ele>860.0</ele><time>2026-03-28T10:26:36.999Z</time></trkpt><trkpt lat="44.57468629787807" lon="10.170900667152653"><ele>860.0</ele><time>2026-03-28T10:26:37.999Z</time></trkpt><trkpt lat="44.57464028839219" lon="10.170760236147489"><ele>860.0</ele><time>2026-03-28T10:26:38.999Z</time></trkpt><trkpt lat="44.57455440571944" lon="10.17060310862183"><ele>860.0</ele><time>2026-03-28T10:26:39.999Z</time></trkpt><trkpt lat="44.5744415991897" lon="10.170423856598868"><ele>860.0</ele><time>2026-03-28T10:26:40.999Z</time></trkpt><trkpt lat="44.574342335481184" lon="10.170204460120507"><ele>858.3333333333334</ele><time>2026-03-28T10:26:41.999Z</time></trkpt><trkpt lat="44.574232760451615" lon="10.170018789620219"><ele>856.6666666666667</ele><time>2026-03-28T10:26:42.999Z</time></trkpt><trkpt lat="44.57413330868214" lon="10.169826583977343"><ele>855.0</ele><time>2026-03-28T10:26:43.999Z</time></trkpt><trkpt lat="44.57404148812795" lon="10.16964834394045"><ele>855.0</ele><time>2026-03-28T10:26:44.999Z</time></trkpt><trkpt lat="44.57396192458074" lon="10.16949203293153"><ele>855.0</ele><time>2026-03-28T10:26:45.999Z</time></trkpt><trkpt lat="44.57389239961659" lon="10.169322541903357"><ele>855.0</ele><time>2026-03-28T10:26:46.999Z</time></trkpt><trkpt lat="44.57381705263547" lon="10.169169181323293"><ele>855.0</ele><time>2026-03-28T10:26:47.999Z</time></trkpt><trkpt lat="44.573747124599734" lon="10.169033912941027"><ele>853.0</ele><time>2026-03-28T10:26:48.999Z</time></trkpt><trkpt lat="44.57367255808862" lon="10.168922816127395"><ele>851.0</ele><time>2026-03-28T10:26:49.999Z</time></trkpt><trkpt lat="44.57362608705959" lon="10.168795157270218"><ele>849.0</ele><time>2026-03-28T10:26:50.999Z</time></trkpt><trkpt lat="44.573612911209125" lon="10.168656071899173"><ele>847.0</ele><time>2026-03-28T10:26:51.999Z</time></trkpt><trkpt lat="44.573638320310096" lon="10.168489690249027"><ele>845.0</ele><time>2026-03-28T10:26:52.999Z</time></trkpt><trkpt lat="44.57370076997489" lon="10.168360895496704"><ele>845.0</ele><time>2026-03-28T10:26:53.999Z</time></trkpt><trkpt lat="44.5738141584842" lon="10.168293558360538"><ele>845.0</ele><time>2026-03-28T10:26:54.999Z</time></trkpt><trkpt lat="44.57393523624107" lon="10.168192284109205"><ele>845.0</ele><time>2026-03-28T10:26:55.999Z</time></trkpt><trkpt lat="44.57407611826814" lon="10.16811329416722"><ele>845.0</ele><time>2026-03-28T10:26:56.999Z</time></trkpt><trkpt lat="44.57419931146064" lon="10.168026209790852"><ele>844.5</ele><time>2026-03-28T10:26:57.999Z</time></trkpt><trkpt lat="44.57431147713009" lon="10.16794895551841"><ele>844.0</ele><time>2026-03-28T10:26:58.999Z</time></trkpt><trkpt lat="44.574418422506824" lon="10.167879206386889"><ele>843.5</ele><time>2026-03-28T10:26:59.999Z</time></trkpt><trkpt lat="44.574523415753916" lon="10.167809712402894"><ele>843.0</ele><time>2026-03-28T10:27:00.999Z</time></trkpt><trkpt lat="44.57460544765209" lon="10.167746255954352"><ele>843.0</ele><time>2026-03-28T10:27:01.999Z</time></trkpt><trkpt lat="44.57467423553097" lon="10.167664505866108"><ele>843.0</ele><time>2026-03-28T10:27:02.999Z</time></trkpt><trkpt lat="44.57473274522797" lon="10.167555506287217"><ele>843.0</ele><time>2026-03-28T10:27:03.999Z</time></trkpt><trkpt lat="44.57477134991448" lon="10.167422739128881"><ele>843.0</ele><time>2026-03-28T10:27:04.999Z</time></trkpt><trkpt lat="44.574814766302005" lon="10.167279419209306"><ele>843.0</ele><time>2026-03-28T10:27:05.999Z</time></trkpt><trkpt lat="44.574855153048105" lon="10.167131956465962"><ele>840.25</ele><time>2026-03-28T10:27:06.999Z</time></trkpt><trkpt lat="44.57491320347381" lon="10.166988719664408"><ele>837.5</ele><time>2026-03-28T10:27:07.999Z</time></trkpt><trkpt lat="44.57495777937353" lon="10.166832753227004"><ele>834.75</ele><time>2026-03-28T10:27:08.999Z</time></trkpt><trkpt lat="44.57499651135605" lon="10.166674003112801"><ele>832.0</ele><time>2026-03-28T10:27:09.999Z</time></trkpt><trkpt lat="44.57504151744702" lon="10.166526840092088"><ele>833.0</ele><time>2026-03-28T10:27:11Z</time></trkpt><trkpt lat="44.57511092713957" lon="10.166404705623325"><ele>834.0</ele><time>2026-03-28T10:27:12Z</time></trkpt><trkpt lat="44.57521700369504" lon="10.166332095758522"><ele>835.0</ele><time>2026-03-28T10:27:13Z</time></trkpt><trkpt lat="44.575331502984604" lon="10.16628803297207"><ele>836.0</ele><time>2026-03-28T10:27:14Z</time></trkpt><trkpt lat="44.57542370465875" lon="10.16623529633812"><ele>837.0</ele><time>2026-03-28T10:27:15Z</time></trkpt><trkpt lat="44.575490340993625" lon="10.166130493303182"><ele>837.0</ele><time>2026-03-28T10:27:16Z</time></trkpt><trkpt lat="44.5755249702971" lon="10.16597953853058"><ele>837.0</ele><time>2026-03-28T10:27:17Z</time></trkpt><trkpt lat="44.575524026207844" lon="10.165794829008014"><ele>837.0</ele><time>2026-03-28T10:27:18Z</time></trkpt><trkpt lat="44.575478281582555" lon="10.165605455063242"><ele>837.0</ele><time>2026-03-28T10:27:19Z</time></trkpt><trkpt lat="44.575381279868886" lon="10.165434801047798"><ele>830.25</ele><time>2026-03-28T10:27:20Z</time></trkpt><trkpt lat="44.57530354934782" lon="10.165264553892932"><ele>823.5</ele><time>2026-03-28T10:27:21Z</time></trkpt><trkpt lat="44.57526010957599" lon="10.165138256309351"><ele>816.75</ele><time>2026-03-28T10:27:22Z</time></trkpt><trkpt lat="44.5752511623872" lon="10.16499345075625"><ele>810.0</ele><time>2026-03-28T10:27:23Z</time></trkpt><trkpt lat="44.57528852873811" lon="10.164838549802232"><ele>813.5</ele><time>2026-03-28T10:27:24Z</time></trkpt><trkpt lat="44.57537922020321" lon="10.164664523489234"><ele>817.0</ele><time>2026-03-28T10:27:25Z</time></trkpt><trkpt lat="44.57542580993804" lon="10.164469974476035"><ele>820.5</ele><time>2026-03-28T10:27:26Z</time></trkpt><trkpt lat="44.5754653586559" lon="10.164297871598304"><ele>824.0</ele><time>2026-03-28T10:27:27Z</time></trkpt><trkpt lat="44.57549712308648" lon="10.164102002296788"><ele>820.25</ele><time>2026-03-28T10:27:28Z</time></trkpt><trkpt lat="44.57552350130778" lon="10.163899801702309"><ele>816.5</ele><time>2026-03-28T10:27:29Z</time></trkpt><trkpt lat="44.57557483589075" lon="10.16371595666006"><ele>812.75</ele><time>2026-03-28T10:27:30Z</time></trkpt><trkpt lat="44.57564458565045" lon="10.163518121054206"><ele>809.0</ele><time>2026-03-28T10:27:31Z</time></trkpt><trkpt lat="44.57572762460799" lon="10.163316279313674"><ele>802.6666666666667</ele><time>2026-03-28T10:27:32Z</time></trkpt><trkpt lat="44.575812205123526" lon="10.163128953068355"><ele>796.3333333333333</ele><time>2026-03-28T10:27:33Z</time></trkpt><trkpt lat="44.575899749539566" lon="10.162979603888347"><ele>790.0</ele><time>2026-03-28T10:27:34Z</time></trkpt><trkpt lat="44.57604160759315" lon="10.162858692597021"><ele>795.6666666666666</ele><time>2026-03-28T10:27:35Z</time></trkpt><trkpt lat="44.57619424234817" lon="10.1627715415927"><ele>801.3333333333333</ele><time>2026-03-28T10:27:36Z</time></trkpt><trkpt lat="44.57632931052351" lon="10.162670835354389"><ele>807.0</ele><time>2026-03-28T10:27:37Z</time></trkpt><trkpt lat="44.576435209578605" lon="10.162521837933436"><ele>802.0</ele><time>2026-03-28T10:27:38Z</time></trkpt><trkpt lat="44.576507090720725" lon="10.162290634588198"><ele>797.0</ele><time>2026-03-28T10:27:39Z</time></trkpt><trkpt lat="44.57657887717686" lon="10.162030801908296"><ele>792.0</ele><time>2026-03-28T10:27:40Z</time></trkpt><trkpt lat="44.57665146375766" lon="10.161797896817212"><ele>792.0</ele><time>2026-03-28T10:27:41Z</time></trkpt><trkpt lat="44.57672584072269" lon="10.161566034843144"><ele>792.0</ele><time>2026-03-28T10:27:42Z</time></trkpt><trkpt lat="44.57679400246658" lon="10.161361409745508"><ele>792.0</ele><time>2026-03-28T10:27:43Z</time></trkpt><trkpt lat="44.57686971395284" lon="10.161183005606409"><ele>792.6666666666667</ele><time>2026-03-28T10:27:44Z</time></trkpt><trkpt lat="44.57698141176368" lon="10.161081514156395"><ele>793.3333333333334</ele><time>2026-03-28T10:27:45Z</time></trkpt><trkpt lat="44.5770972521473" lon="10.160936278142911"><ele>794.0</ele><time>2026-03-28T10:27:46Z</time></trkpt><trkpt lat="44.577214022423455" lon="10.160749288434122"><ele>785.3333333333334</ele><time>2026-03-28T10:27:47Z</time></trkpt><trkpt lat="44.577300636754956" lon="10.160506587654378"><ele>776.6666666666667</ele><time>2026-03-28T10:27:48Z</time></trkpt><trkpt lat="44.57740095493391" lon="10.160321719496121"><ele>768.0</ele><time>2026-03-28T10:27:49Z</time></trkpt><trkpt lat="44.577461939723165" lon="10.160183005291882"><ele>768.0</ele><time>2026-03-28T10:27:50Z</time></trkpt><trkpt lat="44.57755251564869" lon="10.160123724470433"><ele>768.0</ele><time>2026-03-28T10:27:51Z</time></trkpt><trkpt lat="44.57766849361387" lon="10.160147867543099"><ele>768.0</ele><time>2026-03-28T10:27:52Z</time></trkpt><trkpt lat="44.57780082374211" lon="10.160245015926959"><ele>768.0</ele><time>2026-03-28T10:27:53Z</time></trkpt><trkpt lat="44.57793945928975" lon="10.160362027476262"><ele>767.25</ele><time>2026-03-28T10:27:54Z</time></trkpt><trkpt lat="44.57806927540518" lon="10.160427652109057"><ele>766.5</ele><time>2026-03-28T10:27:55Z</time></trkpt><trkpt lat="44.57820526277783" lon="10.160426161696035"><ele>765.75</ele><time>2026-03-28T10:27:56Z</time></trkpt><trkpt lat="44.578344376170215" lon="10.160342285781786"><ele>765.0</ele><time>2026-03-28T10:27:57Z</time></trkpt><trkpt lat="44.57848160780762" lon="10.160226054023703"><ele>765.0</ele><time>2026-03-28T10:27:58Z</time></trkpt><trkpt lat="44.57861756866535" lon="10.160119109453278"><ele>765.0</ele><time>2026-03-28T10:27:59Z</time></trkpt><trkpt lat="44.57874881234142" lon="10.160072555091558"><ele>765.0</ele><time>2026-03-28T10:28:00Z</time></trkpt><trkpt lat="44.57888109706145" lon="10.160111450377517"><ele>765.0</ele><time>2026-03-28T10:28:01Z</time></trkpt><trkpt lat="44.5789821495991" lon="10.160241732797434"><ele>767.6666666666667</ele><time>2026-03-28T10:28:02Z</time></trkpt><trkpt lat="44.57905582902338" lon="10.160407859882856"><ele>770.3333333333334</ele><time>2026-03-28T10:28:03Z</time></trkpt><trkpt lat="44.579131404535325" lon="10.16059432054096"><ele>773.0</ele><time>2026-03-28T10:28:04Z</time></trkpt><trkpt lat="44.57921999973521" lon="10.16077905216913"><ele>773.0</ele><time>2026-03-28T10:28:05Z</time></trkpt><trkpt lat="44.57931742134772" lon="10.16095455079792"><ele>773.0</ele><time>2026-03-28T10:28:06Z</time></trkpt><trkpt lat="44.57940241361796" lon="10.161089943617347"><ele>773.0</ele><time>2026-03-28T10:28:07Z</time></trkpt><trkpt lat="44.579482695542524" lon="10.161180608430895"><ele>773.0</ele><time>2026-03-28T10:28:08Z</time></trkpt><trkpt lat="44.579590820334985" lon="10.161200202482103"><ele>769.0</ele><time>2026-03-28T10:28:09Z</time></trkpt><trkpt lat="44.57971698513089" lon="10.161152563997748"><ele>765.0</ele><time>2026-03-28T10:28:10Z</time></trkpt><trkpt lat="44.579835916108784" lon="10.161031743361798"><ele>761.0</ele><time>2026-03-28T10:28:11Z</time></trkpt><trkpt lat="44.57992777770506" lon="10.160870065962278"><ele>757.0</ele><time>2026-03-28T10:28:12Z</time></trkpt><trkpt lat="44.5800211449089" lon="10.160746250213576"><ele>751.6666666666667</ele><time>2026-03-28T10:28:13Z</time></trkpt><trkpt lat="44.58014653529757" lon="10.160655528058397"><ele>746.3333333333334</ele><time>2026-03-28T10:28:14Z</time></trkpt><trkpt lat="44.580299302120586" lon="10.16058729753276"><ele>741.0</ele><time>2026-03-28T10:28:15Z</time></trkpt><trkpt lat="44.58044192090348" lon="10.160527418540509"><ele>741.0</ele><time>2026-03-28T10:28:16Z</time></trkpt><trkpt lat="44.58058528585572" lon="10.160453721975866"><ele>741.0</ele><time>2026-03-28T10:28:17Z</time></trkpt><trkpt lat="44.58072334130356" lon="10.160374832035064"><ele>741.0</ele><time>2026-03-28T10:28:18Z</time></trkpt><trkpt lat="44.58087522120905" lon="10.160299386806075"><ele>741.0</ele><time>2026-03-28T10:28:19Z</time></trkpt><trkpt lat="44.58102186325323" lon="10.1602271030423"><ele>741.0</ele><time>2026-03-28T10:28:20Z</time></trkpt><trkpt lat="44.581161363443115" lon="10.160155496788494"><ele>741.0</ele><time>2026-03-28T10:28:21Z</time></trkpt><trkpt lat="44.58129934324667" lon="10.160090967412309"><ele>741.0</ele><time>2026-03-28T10:28:22Z</time></trkpt><trkpt lat="44.58142465253581" lon="10.160026852625936"><ele>740.75</ele><time>2026-03-28T10:28:23Z</time></trkpt><trkpt lat="44.58154463009378" lon="10.15999187500447"><ele>740.5</ele><time>2026-03-28T10:28:23.999Z</time></trkpt><trkpt lat="44.581653967932326" lon="10.160009592646245"><ele>740.25</ele><time>2026-03-28T10:28:24.999Z</time></trkpt><trkpt lat="44.581755811502326" lon="10.1601308306262"><ele>740.0</ele><time>2026-03-28T10:28:25.999Z</time></trkpt><trkpt lat="44.58187592577791" lon="10.160285313465874"><ele>740.0</ele><time>2026-03-28T10:28:26.999Z</time></trkpt><trkpt lat="44.58196444983581" lon="10.160502269898412"><ele>740.0</ele><time>2026-03-28T10:28:27.999Z</time></trkpt><trkpt lat="44.58205888353362" lon="10.160699011158414"><ele>740.0</ele><time>2026-03-28T10:28:28.999Z</time></trkpt><trkpt lat="44.582148950803855" lon="10.160897107682583"><ele>735.6666666666666</ele><time>2026-03-28T10:28:29.999Z</time></trkpt><trkpt lat="44.582218017987834" lon="10.16109446071987"><ele>731.3333333333334</ele><time>2026-03-28T10:28:30.999Z</time></trkpt><trkpt lat="44.582293718991636" lon="10.161282950891245"><ele>727.0</ele><time>2026-03-28T10:28:31.999Z</time></trkpt><trkpt lat="44.58239976896696" lon="10.161455244427824"><ele>733.6666666666667</ele><time>2026-03-28T10:28:32.999Z</time></trkpt><trkpt lat="44.58251954540371" lon="10.161604312631198"><ele>740.3333333333334</ele><time>2026-03-28T10:28:33.999Z</time></trkpt><trkpt lat="44.5826280313335" lon="10.161749936546475"><ele>747.0</ele><time>2026-03-28T10:28:34.999Z</time></trkpt><trkpt lat="44.58276385557583" lon="10.161909185606879"><ele>740.5</ele><time>2026-03-28T10:28:35.999Z</time></trkpt><trkpt lat="44.58287144711665" lon="10.16205859531403"><ele>734.0</ele><time>2026-03-28T10:28:36.999Z</time></trkpt><trkpt lat="44.58297146784371" lon="10.162189796392965"><ele>727.5</ele><time>2026-03-28T10:28:37.999Z</time></trkpt><trkpt lat="44.58307797839063" lon="10.162294099534403"><ele>721.0</ele><time>2026-03-28T10:28:38.999Z</time></trkpt><trkpt lat="44.58320123411551" lon="10.16234737848776"><ele>721.0</ele><time>2026-03-28T10:28:39.999Z</time></trkpt><trkpt lat="44.583345755319044" lon="10.162339878013743"><ele>721.0</ele><time>2026-03-28T10:28:40.999Z</time></trkpt><trkpt lat="44.583493325874386" lon="10.162256136104604"><ele>721.0</ele><time>2026-03-28T10:28:41.999Z</time></trkpt><trkpt lat="44.583637694517925" lon="10.162127202965229"><ele>725.0</ele><time>2026-03-28T10:28:42.999Z</time></trkpt><trkpt lat="44.58375673704248" lon="10.161976179249036"><ele>729.0</ele><time>2026-03-28T10:28:43.999Z</time></trkpt><trkpt lat="44.58385523715784" lon="10.161801213919123"><ele>733.0</ele><time>2026-03-28T10:28:44.999Z</time></trkpt><trkpt lat="44.58393418932042" lon="10.16157748031315"><ele>727.3333333333334</ele><time>2026-03-28T10:28:45.999Z</time></trkpt><trkpt lat="44.584028097155986" lon="10.161353786739216"><ele>721.6666666666666</ele><time>2026-03-28T10:28:46.999Z</time></trkpt><trkpt lat="44.58411711761781" lon="10.16113450624717"><ele>716.0</ele><time>2026-03-28T10:28:47.999Z</time></trkpt><trkpt lat="44.584196455834245" lon="10.160910275930716"><ele>711.3333333333333</ele><time>2026-03-28T10:28:48.999Z</time></trkpt><trkpt lat="44.58428595828016" lon="10.160698373994984"><ele>706.6666666666666</ele><time>2026-03-28T10:28:49.999Z</time></trkpt><trkpt lat="44.584369235527504" lon="10.16049001132798"><ele>702.0</ele><time>2026-03-28T10:28:50.999Z</time></trkpt><trkpt lat="44.58444127813348" lon="10.160272238282818"><ele>702.0</ele><time>2026-03-28T10:28:51.999Z</time></trkpt><trkpt lat="44.58450072627895" lon="10.16003992239734"><ele>702.0</ele><time>2026-03-28T10:28:52.999Z</time></trkpt><trkpt lat="44.58454397058898" lon="10.159811615992014"><ele>702.0</ele><time>2026-03-28T10:28:53.999Z</time></trkpt><trkpt lat="44.5846053886205" lon="10.15960544645984"><ele>701.8</ele><time>2026-03-28T10:28:54.999Z</time></trkpt><trkpt lat="44.58464453702428" lon="10.159414894130586"><ele>701.6</ele><time>2026-03-28T10:28:55.999Z</time></trkpt><trkpt lat="44.58468613347815" lon="10.15927466537826"><ele>701.4</ele><time>2026-03-28T10:28:56.999Z</time></trkpt><trkpt lat="44.58473298893142" lon="10.159161951238149"><ele>701.1999999999999</ele><time>2026-03-28T10:28:57.999Z</time></trkpt><trkpt lat="44.58483154573541" lon="10.159116521543815"><ele>701.0</ele><time>2026-03-28T10:28:58.999Z</time></trkpt><trkpt lat="44.58494478525369" lon="10.15914723242619"><ele>701.0</ele><time>2026-03-28T10:28:59.999Z</time></trkpt><trkpt lat="44.58504906711831" lon="10.159252192238666"><ele>701.0</ele><time>2026-03-28T10:29:00.999Z</time></trkpt><trkpt lat="44.58509967204082" lon="10.159417676583255"><ele>701.0</ele><time>2026-03-28T10:29:01.999Z</time></trkpt><trkpt lat="44.58512255333569" lon="10.159602738593456"><ele>701.0</ele><time>2026-03-28T10:29:02.999Z</time></trkpt><trkpt lat="44.58515564534026" lon="10.159751712007862"><ele>701.0</ele><time>2026-03-28T10:29:03.999Z</time></trkpt><trkpt lat="44.58523515486613" lon="10.159841029297851"><ele>701.0</ele><time>2026-03-28T10:29:04.999Z</time></trkpt><trkpt lat="44.585351045057465" lon="10.159881563420699"><ele>701.0</ele><time>2026-03-28T10:29:05.999Z</time></trkpt><trkpt lat="44.58547165278603" lon="10.159849023095502"><ele>701.0</ele><time>2026-03-28T10:29:06.999Z</time></trkpt><trkpt lat="44.58560300648651" lon="10.159742003616703"><ele>700.0</ele><time>2026-03-28T10:29:07.999Z</time></trkpt><trkpt lat="44.58574035485004" lon="10.159612542319481"><ele>699.0</ele><time>2026-03-28T10:29:08.999Z</time></trkpt><trkpt lat="44.58588941948134" lon="10.15950397056148"><ele>698.0</ele><time>2026-03-28T10:29:09.999Z</time></trkpt><trkpt lat="44.58602729735195" lon="10.159396681140953"><ele>698.0</ele><time>2026-03-28T10:29:10.999Z</time></trkpt><trkpt lat="44.58616974773675" lon="10.159303250349293"><ele>698.0</ele><time>2026-03-28T10:29:11.999Z</time></trkpt><trkpt lat="44.586311544262095" lon="10.15919994739151"><ele>698.0</ele><time>2026-03-28T10:29:12.999Z</time></trkpt><trkpt lat="44.58644193561923" lon="10.159109988187252"><ele>698.5999999999999</ele><time>2026-03-28T10:29:13.999Z</time></trkpt><trkpt lat="44.58656661609774" lon="10.159027879268487"><ele>699.1999999999999</ele><time>2026-03-28T10:29:14.999Z</time></trkpt><trkpt lat="44.586674934903165" lon="10.158950819604941"><ele>699.8</ele><time>2026-03-28T10:29:15.999Z</time></trkpt><trkpt lat="44.58676081506818" lon="10.15888108451436"><ele>700.4</ele><time>2026-03-28T10:29:17Z</time></trkpt><trkpt lat="44.58682415905592" lon="10.158819480007661"><ele>701.0</ele><time>2026-03-28T10:29:18Z</time></trkpt><trkpt lat="44.586885086393174" lon="10.15874867057769"><ele>701.0</ele><time>2026-03-28T10:29:20Z</time></trkpt><trkpt lat="44.58700779451906" lon="10.158991278053985"><ele>701.0</ele><time>2026-03-28T10:29:40Z</time></trkpt><trkpt lat="44.58704510288229" lon="10.159063413265127"><ele>701.0</ele><time>2026-03-28T10:29:41Z</time></trkpt><trkpt lat="44.587085077987346" lon="10.1591626025759"><ele>701.0</ele><time>2026-03-28T10:29:43Z</time></trkpt><trkpt lat="44.587134210530586" lon="10.159218317482553"><ele>701.0</ele><time>2026-03-28T10:29:46Z</time></trkpt><trkpt lat="44.58708669966119" lon="10.159137815164577"><ele>701.0</ele><time>2026-03-28T10:30:42.999Z</time></trkpt><trkpt lat="44.587043391961814" lon="10.15906897345281"><ele>701.0</ele><time>2026-03-28T10:30:44.999Z</time></trkpt><trkpt lat="44.586997687958984" lon="10.15899927168529"><ele>701.0</ele><time>2026-03-28T10:30:46.999Z</time></trkpt><trkpt lat="44.58694781972271" lon="10.158908902009786"><ele>701.0</ele><time>2026-03-28T10:30:48.999Z</time></trkpt><trkpt lat="44.58690356680216" lon="10.158815955149288"><ele>701.0</ele><time>2026-03-28T10:30:50.999Z</time></trkpt><trkpt lat="44.58686129638916" lon="10.158743922958495"><ele>701.0</ele><time>2026-03-28T10:30:58.999Z</time></trkpt><trkpt lat="44.586412668659875" lon="10.159140098097525"><ele>700.5</ele><time>2026-03-28T10:31:20.999Z</time></trkpt><trkpt lat="44.58634230522947" lon="10.159126749063281"><ele>700.0</ele><time>2026-03-28T10:31:23Z</time></trkpt><trkpt lat="44.5862730927118" lon="10.159180755092368"><ele>699.5</ele><time>2026-03-28T10:31:25Z</time></trkpt><trkpt lat="44.58619094371908" lon="10.159241723629588"><ele>699.0</ele><time>2026-03-28T10:31:27Z</time></trkpt><trkpt lat="44.58613135525958" lon="10.159281913755338"><ele>698.5</ele><time>2026-03-28T10:31:28Z</time></trkpt><trkpt lat="44.586066896955046" lon="10.159329380633029"><ele>698.0</ele><time>2026-03-28T10:31:29Z</time></trkpt><trkpt lat="44.586003251745" lon="10.159375238305108"><ele>697.9999999999999</ele><time>2026-03-28T10:31:30Z</time></trkpt><trkpt lat="44.58594443000231" lon="10.159418019928943"><ele>698.0</ele><time>2026-03-28T10:31:31Z</time></trkpt><trkpt lat="44.585883904604344" lon="10.159463687610087"><ele>698.0</ele><time>2026-03-28T10:31:32Z</time></trkpt><trkpt lat="44.58582195595813" lon="10.159511581420775"><ele>698.0</ele><time>2026-03-28T10:31:33Z</time></trkpt><trkpt lat="44.5857617001579" lon="10.159559616864012"><ele>698.0</ele><time>2026-03-28T10:31:34Z</time></trkpt><trkpt lat="44.58569997212095" lon="10.159610265979845"><ele>697.9999999999999</ele><time>2026-03-28T10:31:35Z</time></trkpt><trkpt lat="44.58563450845552" lon="10.159662658732428"><ele>698.0</ele><time>2026-03-28T10:31:36Z</time></trkpt><trkpt lat="44.585570925249094" lon="10.159706084825666"><ele>698.0</ele><time>2026-03-28T10:31:37Z</time></trkpt><trkpt lat="44.585470679531205" lon="10.159776883722882"><ele>698.0</ele><time>2026-03-28T10:31:39Z</time></trkpt><trkpt lat="44.585362262416474" lon="10.159825929288333"><ele>698.0</ele><time>2026-03-28T10:31:41Z</time></trkpt><trkpt lat="44.58527908900216" lon="10.159781404893836"><ele>698.0</ele><time>2026-03-28T10:31:43Z</time></trkpt><trkpt lat="44.58518404989552" lon="10.159669091409215"><ele>698.0</ele><time>2026-03-28T10:31:45Z</time></trkpt><trkpt lat="44.58514866963663" lon="10.159566309317501"><ele>698.5</ele><time>2026-03-28T10:31:46Z</time></trkpt><trkpt lat="44.585131680274046" lon="10.15944365202797"><ele>699.0</ele><time>2026-03-28T10:31:47Z</time></trkpt><trkpt lat="44.58510247345875" lon="10.15932711137498"><ele>699.5</ele><time>2026-03-28T10:31:48Z</time></trkpt><trkpt lat="44.58506973874923" lon="10.159243245654956"><ele>700.0</ele><time>2026-03-28T10:31:49Z</time></trkpt><trkpt lat="44.58504500334379" lon="10.159139004675536"><ele>700.5</ele><time>2026-03-28T10:31:51Z</time></trkpt><trkpt lat="44.585020208173454" lon="10.159044845567996"><ele>701.0</ele><time>2026-03-28T10:31:57Z</time></trkpt><trkpt lat="44.58498223429303" lon="10.158949929731545"><ele>698.8</ele><time>2026-03-28T10:32:00Z</time></trkpt><trkpt lat="44.58488922300819" lon="10.158922528926695"><ele>696.5999999999999</ele><time>2026-03-28T10:32:02Z</time></trkpt><trkpt lat="44.58477893216693" lon="10.158938667963476"><ele>694.4</ele><time>2026-03-28T10:32:04Z</time></trkpt><trkpt lat="44.58466600990605" lon="10.15899898717965"><ele>692.2</ele><time>2026-03-28T10:32:06Z</time></trkpt><trkpt lat="44.584593947531005" lon="10.158988962110925"><ele>690.0</ele><time>2026-03-28T10:32:07Z</time></trkpt><trkpt lat="44.58453461680275" lon="10.159028497128258"><ele>690.5</ele><time>2026-03-28T10:32:08Z</time></trkpt><trkpt lat="44.58447265701805" lon="10.159069490940016"><ele>691.0</ele><time>2026-03-28T10:32:09Z</time></trkpt><trkpt lat="44.58441167530148" lon="10.15911358879289"><ele>691.5</ele><time>2026-03-28T10:32:10Z</time></trkpt><trkpt lat="44.584349636430666" lon="10.159161331758968"><ele>692.0</ele><time>2026-03-28T10:32:11Z</time></trkpt><trkpt lat="44.58428983585911" lon="10.15919712324978"><ele>692.5</ele><time>2026-03-28T10:32:12Z</time></trkpt><trkpt lat="44.584184849696086" lon="10.15921909876849"><ele>693.0</ele><time>2026-03-28T10:32:14Z</time></trkpt><trkpt lat="44.58410377969688" lon="10.159204647366526"><ele>693.0</ele><time>2026-03-28T10:32:16Z</time></trkpt><trkpt lat="44.58404089597439" lon="10.15916365290855"><ele>693.0</ele><time>2026-03-28T10:32:18Z</time></trkpt><trkpt lat="44.58398308166096" lon="10.159118149454676"><ele>693.0</ele><time>2026-03-28T10:32:20Z</time></trkpt><trkpt lat="44.58391721912701" lon="10.159064217846948"><ele>693.0</ele><time>2026-03-28T10:32:22Z</time></trkpt><trkpt lat="44.58384896178094" lon="10.159000059040048"><ele>693.0</ele><time>2026-03-28T10:32:24Z</time></trkpt><trkpt lat="44.58378864188147" lon="10.158938902999168"><ele>693.0</ele><time>2026-03-28T10:32:26Z</time></trkpt><trkpt lat="44.583717734257135" lon="10.158867067912846"><ele>689.8</ele><time>2026-03-28T10:32:28Z</time></trkpt><trkpt lat="44.58364896213936" lon="10.158794901504722"><ele>686.5999999999999</ele><time>2026-03-28T10:32:30Z</time></trkpt><trkpt lat="44.58358265128613" lon="10.158722803756863"><ele>683.4000000000001</ele><time>2026-03-28T10:32:32Z</time></trkpt><trkpt lat="44.583489831324584" lon="10.15866468457122"><ele>680.2</ele><time>2026-03-28T10:32:34Z</time></trkpt><trkpt lat="44.58339523750479" lon="10.158645297295456"><ele>677.0</ele><time>2026-03-28T10:32:35.999Z</time></trkpt><trkpt lat="44.58330298445313" lon="10.158685122837865"><ele>677.0</ele><time>2026-03-28T10:32:37.999Z</time></trkpt><trkpt lat="44.58321079800538" lon="10.15875217514904"><ele>677.0</ele><time>2026-03-28T10:32:39.999Z</time></trkpt><trkpt lat="44.58312267463843" lon="10.158823138914489"><ele>677.0</ele><time>2026-03-28T10:32:41.999Z</time></trkpt><trkpt lat="44.58303566717669" lon="10.158898112727343"><ele>677.0</ele><time>2026-03-28T10:32:43.999Z</time></trkpt><trkpt lat="44.58293961517407" lon="10.158960669512124"><ele>677.0</ele><time>2026-03-28T10:32:45.999Z</time></trkpt><trkpt lat="44.58283299861256" lon="10.15893243797567"><ele>677.0</ele><time>2026-03-28T10:32:47.999Z</time></trkpt><trkpt lat="44.58279956451603" lon="10.158769486273947"><ele>677.0</ele><time>2026-03-28T10:32:49.999Z</time></trkpt><trkpt lat="44.58286873353073" lon="10.158678152949804"><ele>677.0</ele><time>2026-03-28T10:32:50.999Z</time></trkpt><trkpt lat="44.58286789839717" lon="10.158587461466526"><ele>677.0</ele><time>2026-03-28T10:32:51.999Z</time></trkpt><trkpt lat="44.58286535670549" lon="10.15842653310243"><ele>677.0</ele><time>2026-03-28T10:32:53.999Z</time></trkpt><trkpt lat="44.58284130800319" lon="10.15825920333124"><ele>675.5</ele><time>2026-03-28T10:32:55.999Z</time></trkpt><trkpt lat="44.582795941890296" lon="10.158159171618339"><ele>674.0</ele><time>2026-03-28T10:32:56.999Z</time></trkpt><trkpt lat="44.58273147849645" lon="10.158088194264272"><ele>672.5</ele><time>2026-03-28T10:32:57.999Z</time></trkpt><trkpt lat="44.5826700031028" lon="10.158046737904106"><ele>671.0</ele><time>2026-03-28T10:32:58.999Z</time></trkpt><trkpt lat="44.58261430737602" lon="10.157989759370711"><ele>669.5</ele><time>2026-03-28T10:32:59.999Z</time></trkpt><trkpt lat="44.5825090441484" lon="10.157871493389639"><ele>668.0</ele><time>2026-03-28T10:33:01.999Z</time></trkpt><trkpt lat="44.582449095619445" lon="10.157795568211494"><ele>668.0</ele><time>2026-03-28T10:33:02.999Z</time></trkpt><trkpt lat="44.58240092863315" lon="10.15773580004095"><ele>668.0</ele><time>2026-03-28T10:33:03.999Z</time></trkpt><trkpt lat="44.58235073743714" lon="10.157673520315049"><ele>668.0</ele><time>2026-03-28T10:33:04.999Z</time></trkpt><trkpt lat="44.58226812311141" lon="10.157566245210916"><ele>668.0</ele><time>2026-03-28T10:33:06.999Z</time></trkpt><trkpt lat="44.582207089624866" lon="10.157466615074563"><ele>668.0</ele><time>2026-03-28T10:33:08.999Z</time></trkpt><trkpt lat="44.58211287607662" lon="10.157400248535515"><ele>668.0</ele><time>2026-03-28T10:33:18.999Z</time></trkpt><trkpt lat="44.58204975294128" lon="10.157372107174877"><ele>666.6666666666666</ele><time>2026-03-28T10:33:19.999Z</time></trkpt><trkpt lat="44.581927597849564" lon="10.157336188127829"><ele>665.3333333333333</ele><time>2026-03-28T10:33:21.999Z</time></trkpt><trkpt lat="44.58185837608998" lon="10.157337233016651"><ele>664.0</ele><time>2026-03-28T10:33:22.999Z</time></trkpt><trkpt lat="44.581785504206394" lon="10.157359545848838"><ele>662.6666666666666</ele><time>2026-03-28T10:33:23.999Z</time></trkpt><trkpt lat="44.58170629523901" lon="10.157361922641877"><ele>661.3333333333334</ele><time>2026-03-28T10:33:24.999Z</time></trkpt><trkpt lat="44.58164261436277" lon="10.15737153039269"><ele>660.0</ele><time>2026-03-28T10:33:25.999Z</time></trkpt><trkpt lat="44.58153668272492" lon="10.157363158395883"><ele>660.0</ele><time>2026-03-28T10:33:27.999Z</time></trkpt><trkpt lat="44.58145270411642" lon="10.15734749581023"><ele>660.0</ele><time>2026-03-28T10:33:30Z</time></trkpt><trkpt lat="44.58138070661192" lon="10.157325259109344"><ele>660.0</ele><time>2026-03-28T10:33:32Z</time></trkpt><trkpt lat="44.581316280172196" lon="10.157287608729252"><ele>660.0</ele><time>2026-03-28T10:33:39Z</time></trkpt><trkpt lat="44.58124011116829" lon="10.157323007838832"><ele>660.0</ele><time>2026-03-28T10:33:41Z</time></trkpt><trkpt lat="44.58115900364118" lon="10.157320428718231"><ele>660.0</ele><time>2026-03-28T10:33:45Z</time></trkpt><trkpt lat="44.58111222667667" lon="10.157674247246014"><ele>660.8</ele><time>2026-03-28T10:33:46Z</time></trkpt><trkpt lat="44.58102741239833" lon="10.157755584800837"><ele>661.6</ele><time>2026-03-28T10:33:48Z</time></trkpt><trkpt lat="44.580963154938495" lon="10.157789887400396"><ele>662.4000000000001</ele><time>2026-03-28T10:33:49Z</time></trkpt><trkpt lat="44.58085148043595" lon="10.157830657386178"><ele>663.2</ele><time>2026-03-28T10:33:51Z</time></trkpt><trkpt lat="44.58074749674613" lon="10.15789080648953"><ele>664.0</ele><time>2026-03-28T10:33:53Z</time></trkpt><trkpt lat="44.580662384042526" lon="10.157929312119869"><ele>664.0</ele><time>2026-03-28T10:33:55Z</time></trkpt><trkpt lat="44.58059998084739" lon="10.157943701773757"><ele>664.0</ele><time>2026-03-28T10:33:56Z</time></trkpt><trkpt lat="44.58049967808787" lon="10.157974021645598"><ele>664.0</ele><time>2026-03-28T10:33:58Z</time></trkpt><trkpt lat="44.58041538949224" lon="10.158005510809156"><ele>664.0</ele><time>2026-03-28T10:34:00Z</time></trkpt><trkpt lat="44.58034587655062" lon="10.158038995429369"><ele>664.0</ele><time>2026-03-28T10:34:02Z</time></trkpt><trkpt lat="44.58028126412705" lon="10.158065886710238"><ele>664.0</ele><time>2026-03-28T10:34:04Z</time></trkpt><trkpt lat="44.58019422219693" lon="10.158094185544346"><ele>664.3333333333334</ele><time>2026-03-28T10:34:07Z</time></trkpt><trkpt lat="44.58013192631663" lon="10.158111254464366"><ele>664.6666666666667</ele><time>2026-03-28T10:34:10Z</time></trkpt><trkpt lat="44.580049685116826" lon="10.15803164705067"><ele>665.0</ele><time>2026-03-28T10:34:13Z</time></trkpt><trkpt lat="44.58000361046057" lon="10.15793307178725"><ele>665.3333333333334</ele><time>2026-03-28T10:34:15Z</time></trkpt><trkpt lat="44.57996304705543" lon="10.157832102994409"><ele>665.6666666666666</ele><time>2026-03-28T10:34:17Z</time></trkpt><trkpt lat="44.579958461519524" lon="10.157743186384486"><ele>666.0</ele><time>2026-03-28T10:34:19Z</time></trkpt><trkpt lat="44.57992381687532" lon="10.157642854900592"><ele>666.0</ele><time>2026-03-28T10:34:21Z</time></trkpt><trkpt lat="44.579892874718894" lon="10.157518009429952"><ele>666.0</ele><time>2026-03-28T10:34:23Z</time></trkpt><trkpt lat="44.57982873145262" lon="10.157414934853053"><ele>666.0</ele><time>2026-03-28T10:34:25Z</time></trkpt><trkpt lat="44.579752681610316" lon="10.157358209778524"><ele>666.0</ele><time>2026-03-28T10:34:27Z</time></trkpt><trkpt lat="44.57968667872809" lon="10.157363802858146"><ele>666.0</ele><time>2026-03-28T10:34:30Z</time></trkpt><trkpt lat="44.57960191223014" lon="10.15735365003926"><ele>666.0</ele><time>2026-03-28T10:34:32Z</time></trkpt><trkpt lat="44.579518986966804" lon="10.157374187647253"><ele>667.8333333333334</ele><time>2026-03-28T10:34:35Z</time></trkpt><trkpt lat="44.57943521070927" lon="10.157410538062285"><ele>669.6666666666666</ele><time>2026-03-28T10:34:38Z</time></trkpt><trkpt lat="44.579356326526515" lon="10.157436249966768"><ele>671.5</ele><time>2026-03-28T10:34:42Z</time></trkpt><trkpt lat="44.579277005373555" lon="10.157458402275816"><ele>673.3333333333333</ele><time>2026-03-28T10:34:44.999Z</time></trkpt><trkpt lat="44.5792103555209" lon="10.157483704125204"><ele>675.1666666666666</ele><time>2026-03-28T10:34:46.999Z</time></trkpt><trkpt lat="44.579138953346806" lon="10.157472259059807"><ele>677.0</ele><time>2026-03-28T10:34:48.999Z</time></trkpt><trkpt lat="44.57904921468969" lon="10.157477060633394"><ele>677.0</ele><time>2026-03-28T10:34:50.999Z</time></trkpt><trkpt lat="44.5789709903767" lon="10.157386567881698"><ele>677.0</ele><time>2026-03-28T10:34:52.999Z</time></trkpt><trkpt lat="44.578908052696434" lon="10.157349329462503"><ele>677.0</ele><time>2026-03-28T10:34:54.999Z</time></trkpt><trkpt lat="44.57882823097297" lon="10.157298194799614"><ele>677.0</ele><time>2026-03-28T10:34:56.999Z</time></trkpt><trkpt lat="44.578733882173836" lon="10.157246271882213"><ele>677.0</ele><time>2026-03-28T10:34:58.999Z</time></trkpt><trkpt lat="44.578641668952415" lon="10.157212560756955"><ele>674.6</ele><time>2026-03-28T10:35:00.999Z</time></trkpt><trkpt lat="44.57858000678841" lon="10.157145117088849"><ele>672.2</ele><time>2026-03-28T10:35:02.999Z</time></trkpt><trkpt lat="44.578521678910256" lon="10.157052288586462"><ele>669.8</ele><time>2026-03-28T10:35:04.999Z</time></trkpt><trkpt lat="44.57842160159898" lon="10.156997014260892"><ele>667.4</ele><time>2026-03-28T10:35:06.999Z</time></trkpt><trkpt lat="44.578306460204885" lon="10.15697042282316"><ele>665.0</ele><time>2026-03-28T10:35:08.999Z</time></trkpt><trkpt lat="44.578225274375875" lon="10.156969119717754"><ele>665.0</ele><time>2026-03-28T10:35:10.999Z</time></trkpt><trkpt lat="44.5781680272835" lon="10.157007914975246"><ele>665.0</ele><time>2026-03-28T10:35:12.999Z</time></trkpt><trkpt lat="44.578104648807034" lon="10.157038036962787"><ele>665.0</ele><time>2026-03-28T10:35:15.999Z</time></trkpt><trkpt lat="44.57802286415736" lon="10.157054458619692"><ele>665.0</ele><time>2026-03-28T10:35:19.999Z</time></trkpt><trkpt lat="44.577967711959765" lon="10.157010873627177"><ele>665.0</ele><time>2026-03-28T10:35:21.999Z</time></trkpt><trkpt lat="44.577904170450395" lon="10.156921527161929"><ele>665.0</ele><time>2026-03-28T10:36:13Z</time></trkpt><trkpt lat="44.57782203449552" lon="10.15698071098908"><ele>665.0</ele><time>2026-03-28T10:36:18Z</time></trkpt><trkpt lat="44.57775327544432" lon="10.157033687247013"><ele>665.0</ele><time>2026-03-28T10:36:20Z</time></trkpt><trkpt lat="44.57767888414625" lon="10.157060658222314"><ele>665.0</ele><time>2026-03-28T10:36:25Z</time></trkpt><trkpt lat="44.57789664082167" lon="10.157003137130753"><ele>665.0</ele><time>2026-03-28T10:36:57.999Z</time></trkpt><trkpt lat="44.57794872153559" lon="10.156939670135241"><ele>665.0</ele><time>2026-03-28T10:37:02.999Z</time></trkpt><trkpt lat="44.57800964509541" lon="10.156984973833127"><ele>665.0</ele><time>2026-03-28T10:37:14.999Z</time></trkpt><trkpt lat="44.57810060651347" lon="10.156996095247617"><ele>665.0</ele><time>2026-03-28T10:37:17.999Z</time></trkpt><trkpt lat="44.57816137272605" lon="10.156951187031089"><ele>665.0</ele><time>2026-03-28T10:37:19.999Z</time></trkpt><trkpt lat="44.578235715391195" lon="10.156941083772969"><ele>665.0</ele><time>2026-03-28T10:37:21.999Z</time></trkpt><trkpt lat="44.57831373713326" lon="10.156957678649448"><ele>665.0</ele><time>2026-03-28T10:37:23.999Z</time></trkpt><trkpt lat="44.57837912751969" lon="10.156977296742332"><ele>665.0</ele><time>2026-03-28T10:37:25.999Z</time></trkpt><trkpt lat="44.57846551464826" lon="10.157038379363623"><ele>665.0</ele><time>2026-03-28T10:37:27.999Z</time></trkpt><trkpt lat="44.57853202284987" lon="10.15711884971016"><ele>665.0</ele><time>2026-03-28T10:37:29.999Z</time></trkpt><trkpt lat="44.578613639793595" lon="10.157178434458702"><ele>665.0</ele><time>2026-03-28T10:37:31.999Z</time></trkpt><trkpt lat="44.57868337982685" lon="10.157213674502055"><ele>665.0</ele><time>2026-03-28T10:37:33.999Z</time></trkpt><trkpt lat="44.57877621636654" lon="10.157267883293398"><ele>665.0</ele><time>2026-03-28T10:37:35.999Z</time></trkpt><trkpt lat="44.57885201806862" lon="10.157313270411779"><ele>665.0</ele><time>2026-03-28T10:37:37.999Z</time></trkpt><trkpt lat="44.57894645059376" lon="10.15738783502332"><ele>663.5</ele><time>2026-03-28T10:37:39.999Z</time></trkpt><trkpt lat="44.57903438314786" lon="10.157413476148875"><ele>662.0</ele><time>2026-03-28T10:37:42Z</time></trkpt><trkpt lat="44.579109501483345" lon="10.157421686930046"><ele>660.5</ele><time>2026-03-28T10:37:44Z</time></trkpt><trkpt lat="44.579189616537704" lon="10.1574033437164"><ele>659.0</ele><time>2026-03-28T10:37:46Z</time></trkpt><trkpt lat="44.57926442977016" lon="10.15738025824503"><ele>657.5</ele><time>2026-03-28T10:37:49Z</time></trkpt><trkpt lat="44.57935133546445" lon="10.157344685538135"><ele>656.0</ele><time>2026-03-28T10:37:53Z</time></trkpt><trkpt lat="44.57941819767299" lon="10.157325641305592"><ele>656.0</ele><time>2026-03-28T10:37:56Z</time></trkpt><trkpt lat="44.57950003385072" lon="10.157314776759026"><ele>656.0</ele><time>2026-03-28T10:38:06Z</time></trkpt><trkpt lat="44.57958636453053" lon="10.157308805454537"><ele>656.0</ele><time>2026-03-28T10:38:09Z</time></trkpt><trkpt lat="44.57967472670708" lon="10.157316955990765"><ele>656.0</ele><time>2026-03-28T10:38:12Z</time></trkpt><trkpt lat="44.57974589817318" lon="10.157368695215728"><ele>656.0</ele><time>2026-03-28T10:38:15Z</time></trkpt><trkpt lat="44.57979535098229" lon="10.15745215893094"><ele>656.0</ele><time>2026-03-28T10:38:17Z</time></trkpt><trkpt lat="44.57985015102369" lon="10.15754002759842"><ele>657.6666666666666</ele><time>2026-03-28T10:38:19Z</time></trkpt><trkpt lat="44.579872119347996" lon="10.15762726553609"><ele>659.3333333333333</ele><time>2026-03-28T10:38:23Z</time></trkpt><trkpt lat="44.57990608442789" lon="10.157721342577185"><ele>661.0</ele><time>2026-03-28T10:38:28Z</time></trkpt><trkpt lat="44.57994058321258" lon="10.157820381881843"><ele>662.6666666666666</ele><time>2026-03-28T10:38:31Z</time></trkpt><trkpt lat="44.57999298582937" lon="10.157941227461796"><ele>664.3333333333334</ele><time>2026-03-28T10:38:37Z</time></trkpt><trkpt lat="44.58005554744339" lon="10.158065199075677"><ele>666.0</ele><time>2026-03-28T10:38:39Z</time></trkpt><trkpt lat="44.580143294382765" lon="10.158110512435785"><ele>666.0</ele><time>2026-03-28T10:38:41Z</time></trkpt><trkpt lat="44.58020873425879" lon="10.158078821541812"><ele>666.0</ele><time>2026-03-28T10:38:44Z</time></trkpt><trkpt lat="44.58028010982529" lon="10.158064412647635"><ele>666.0</ele><time>2026-03-28T10:38:47Z</time></trkpt><trkpt lat="44.58036799560976" lon="10.158032625002296"><ele>666.0</ele><time>2026-03-28T10:38:54.999Z</time></trkpt><trkpt lat="44.580450476622566" lon="10.158021298702641"><ele>666.0</ele><time>2026-03-28T10:38:56.999Z</time></trkpt><trkpt lat="44.580554371922744" lon="10.157987940010047"><ele>666.0</ele><time>2026-03-28T10:38:58.999Z</time></trkpt><trkpt lat="44.58066973367298" lon="10.157953362020784"><ele>665.5999999999999</ele><time>2026-03-28T10:39:00.999Z</time></trkpt><trkpt lat="44.580763545116106" lon="10.157908487155508"><ele>665.2</ele><time>2026-03-28T10:39:02.999Z</time></trkpt><trkpt lat="44.58086734438061" lon="10.157867111558575"><ele>664.8</ele><time>2026-03-28T10:39:04.999Z</time></trkpt><trkpt lat="44.5809743507117" lon="10.157795264787334"><ele>664.4000000000001</ele><time>2026-03-28T10:39:06.999Z</time></trkpt><trkpt lat="44.581085188319086" lon="10.157723931555104"><ele>664.0</ele><time>2026-03-28T10:39:08.999Z</time></trkpt><trkpt lat="44.581165193563706" lon="10.157592138763956"><ele>663.2</ele><time>2026-03-28T10:39:10.999Z</time></trkpt><trkpt lat="44.581229044565625" lon="10.157451277621282"><ele>662.4000000000001</ele><time>2026-03-28T10:39:12.999Z</time></trkpt><trkpt lat="44.581271057059304" lon="10.15736819056169"><ele>661.6</ele><time>2026-03-28T10:39:14.999Z</time></trkpt><trkpt lat="44.581345887869475" lon="10.157366146322788"><ele>660.8</ele><time>2026-03-28T10:39:17.999Z</time></trkpt><trkpt lat="44.58142721825115" lon="10.157381506872392"><ele>660.0</ele><time>2026-03-28T10:39:19.999Z</time></trkpt><trkpt lat="44.58155875255862" lon="10.157425274913942"><ele>660.0</ele><time>2026-03-28T10:39:21.999Z</time></trkpt><trkpt lat="44.58164685536" lon="10.157430138747376"><ele>660.0</ele><time>2026-03-28T10:39:22.999Z</time></trkpt><trkpt lat="44.58172317929928" lon="10.157420755627417"><ele>660.0</ele><time>2026-03-28T10:39:23.999Z</time></trkpt><trkpt lat="44.58179660076988" lon="10.157390887999572"><ele>660.0</ele><time>2026-03-28T10:39:24.999Z</time></trkpt><trkpt lat="44.58187937815821" lon="10.157361267767909"><ele>660.0</ele><time>2026-03-28T10:39:25.999Z</time></trkpt><trkpt lat="44.581959722518505" lon="10.157373871278985"><ele>660.0</ele><time>2026-03-28T10:39:26.999Z</time></trkpt><trkpt lat="44.58202551848403" lon="10.157422022525783"><ele>661.6</ele><time>2026-03-28T10:39:27.999Z</time></trkpt><trkpt lat="44.58208884726914" lon="10.157473840458616"><ele>663.2</ele><time>2026-03-28T10:39:28.999Z</time></trkpt><trkpt lat="44.58214799715114" lon="10.157516849288879"><ele>664.8</ele><time>2026-03-28T10:39:29.999Z</time></trkpt><trkpt lat="44.582216472725975" lon="10.157610704029493"><ele>666.4</ele><time>2026-03-28T10:39:31.999Z</time></trkpt><trkpt lat="44.58229026454702" lon="10.157696232474482"><ele>668.0</ele><time>2026-03-28T10:39:33.999Z</time></trkpt><trkpt lat="44.58238146177879" lon="10.15780504095619"><ele>668.0</ele><time>2026-03-28T10:39:35.999Z</time></trkpt><trkpt lat="44.582439725888" lon="10.15787755705574"><ele>668.0</ele><time>2026-03-28T10:39:36.999Z</time></trkpt><trkpt lat="44.58249660483968" lon="10.157948408611047"><ele>668.0</ele><time>2026-03-28T10:39:37.999Z</time></trkpt><trkpt lat="44.58255066563346" lon="10.158037731004818"><ele>668.0</ele><time>2026-03-28T10:39:38.999Z</time></trkpt><trkpt lat="44.582617156096624" lon="10.158100177041288"><ele>668.0</ele><time>2026-03-28T10:39:39.999Z</time></trkpt><trkpt lat="44.58269853468742" lon="10.158161869299061"><ele>668.0</ele><time>2026-03-28T10:39:41.999Z</time></trkpt><trkpt lat="44.58278643145966" lon="10.158284602534867"><ele>671.8</ele><time>2026-03-28T10:39:43.999Z</time></trkpt><trkpt lat="44.58280953469536" lon="10.158369800031549"><ele>675.5999999999999</ele><time>2026-03-28T10:39:44.999Z</time></trkpt><trkpt lat="44.58281686204004" lon="10.15846517258586"><ele>679.4000000000001</ele><time>2026-03-28T10:39:45.999Z</time></trkpt><trkpt lat="44.58281329756586" lon="10.158642441431983"><ele>683.2</ele><time>2026-03-28T10:39:48Z</time></trkpt><trkpt lat="44.58277852685103" lon="10.158797240473445"><ele>687.0</ele><time>2026-03-28T10:39:50Z</time></trkpt><trkpt lat="44.58278951365673" lon="10.158957382250737"><ele>685.0</ele><time>2026-03-28T10:39:52Z</time></trkpt><trkpt lat="44.58285007721744" lon="10.159005154101017"><ele>683.0</ele><time>2026-03-28T10:39:53Z</time></trkpt><trkpt lat="44.58297241807743" lon="10.158991307567835"><ele>681.0</ele><time>2026-03-28T10:39:55Z</time></trkpt><trkpt lat="44.58302805137645" lon="10.158949924529015"><ele>679.0</ele><time>2026-03-28T10:39:56Z</time></trkpt><trkpt lat="44.583130500364746" lon="10.158852541470184"><ele>677.0</ele><time>2026-03-28T10:39:58Z</time></trkpt><trkpt lat="44.58321754257069" lon="10.158784113701632"><ele>677.0</ele><time>2026-03-28T10:40:00Z</time></trkpt><trkpt lat="44.583315910792386" lon="10.158713460909988"><ele>677.0</ele><time>2026-03-28T10:40:02Z</time></trkpt><trkpt lat="44.58342430069111" lon="10.158669136489225"><ele>677.0</ele><time>2026-03-28T10:40:04Z</time></trkpt><trkpt lat="44.583491276016126" lon="10.158690817694033"><ele>677.0</ele><time>2026-03-28T10:40:05Z</time></trkpt><trkpt lat="44.58354599620324" lon="10.15874346371803"><ele>677.0</ele><time>2026-03-28T10:40:06Z</time></trkpt><trkpt lat="44.583598421425805" lon="10.15880196335316"><ele>677.0</ele><time>2026-03-28T10:40:07Z</time></trkpt><trkpt lat="44.58364852730216" lon="10.158863495118448"><ele>677.8571428571428</ele><time>2026-03-28T10:40:08Z</time></trkpt><trkpt lat="44.58370244350664" lon="10.158917209362606"><ele>678.7142857142857</ele><time>2026-03-28T10:40:09Z</time></trkpt><trkpt lat="44.58376065523127" lon="10.158974003432865"><ele>679.5714285714286</ele><time>2026-03-28T10:40:10Z</time></trkpt><trkpt lat="44.58381831337561" lon="10.159025542236542"><ele>680.4285714285713</ele><time>2026-03-28T10:40:11Z</time></trkpt><trkpt lat="44.58387258496326" lon="10.159082274233834"><ele>681.2857142857142</ele><time>2026-03-28T10:40:12Z</time></trkpt><trkpt lat="44.583928611988206" lon="10.159143616512711"><ele>682.1428571428571</ele><time>2026-03-28T10:40:13Z</time></trkpt><trkpt lat="44.58398965371349" lon="10.1591987925924"><ele>683.0</ele><time>2026-03-28T10:40:14Z</time></trkpt><trkpt lat="44.58405201431302" lon="10.159242214194984"><ele>684.4285714285714</ele><time>2026-03-28T10:40:15Z</time></trkpt><trkpt lat="44.58411238105954" lon="10.159279203454817"><ele>685.8571428571429</ele><time>2026-03-28T10:40:16Z</time></trkpt><trkpt lat="44.584187594101024" lon="10.15927792472067"><ele>687.2857142857142</ele><time>2026-03-28T10:40:17Z</time></trkpt><trkpt lat="44.58426269997498" lon="10.159258265363011"><ele>688.7142857142858</ele><time>2026-03-28T10:40:18Z</time></trkpt><trkpt lat="44.584335823020204" lon="10.159217900090852"><ele>690.1428571428571</ele><time>2026-03-28T10:40:19Z</time></trkpt><trkpt lat="44.58440459764178" lon="10.159166015802278"><ele>691.5714285714286</ele><time>2026-03-28T10:40:20Z</time></trkpt><trkpt lat="44.58446749479178" lon="10.159110409841828"><ele>693.0</ele><time>2026-03-28T10:40:21Z</time></trkpt><trkpt lat="44.58452916066655" lon="10.159062799475231"><ele>692.5714285714286</ele><time>2026-03-28T10:40:22Z</time></trkpt><trkpt lat="44.58459441252648" lon="10.159024708968536"><ele>692.1428571428571</ele><time>2026-03-28T10:40:23Z</time></trkpt><trkpt lat="44.58466258776139" lon="10.158987459628488"><ele>691.7142857142858</ele><time>2026-03-28T10:40:24Z</time></trkpt><trkpt lat="44.584728933914704" lon="10.15896253924611"><ele>691.2857142857142</ele><time>2026-03-28T10:40:25Z</time></trkpt><trkpt lat="44.58479415353501" lon="10.158937226549789"><ele>690.8571428571429</ele><time>2026-03-28T10:40:26Z</time></trkpt><trkpt lat="44.58485814105846" lon="10.158920986851395"><ele>690.4285714285714</ele><time>2026-03-28T10:40:27Z</time></trkpt><trkpt lat="44.584924719976165" lon="10.158921661704865"><ele>690.0</ele><time>2026-03-28T10:40:28Z</time></trkpt><trkpt lat="44.58498828191125" lon="10.158963660044105"><ele>691.8333333333334</ele><time>2026-03-28T10:40:29Z</time></trkpt><trkpt lat="44.58501275263892" lon="10.159093653335264"><ele>693.6666666666666</ele><time>2026-03-28T10:40:31Z</time></trkpt><trkpt lat="44.585008030021534" lon="10.159220007899272"><ele>695.5</ele><time>2026-03-28T10:40:33Z</time></trkpt><trkpt lat="44.58503262304721" lon="10.159310246022425"><ele>697.3333333333333</ele><time>2026-03-28T10:40:34Z</time></trkpt><trkpt lat="44.58507670008426" lon="10.159424409014626"><ele>699.1666666666666</ele><time>2026-03-28T10:40:35Z</time></trkpt><trkpt lat="44.585107012738746" lon="10.159544305548406"><ele>701.0</ele><time>2026-03-28T10:40:36Z</time></trkpt><trkpt lat="44.585129342821354" lon="10.159669591757295"><ele>701.0</ele><time>2026-03-28T10:40:37Z</time></trkpt><trkpt lat="44.58516622698818" lon="10.159771283163405"><ele>701.0</ele><time>2026-03-28T10:40:38Z</time></trkpt><trkpt lat="44.58523400523774" lon="10.15983741844864"><ele>701.0</ele><time>2026-03-28T10:40:39Z</time></trkpt><trkpt lat="44.58532726424696" lon="10.159869578031543"><ele>701.0</ele><time>2026-03-28T10:40:40Z</time></trkpt><trkpt lat="44.58543284143624" lon="10.15985653098181"><ele>701.0</ele><time>2026-03-28T10:40:41Z</time></trkpt><trkpt lat="44.58553567223806" lon="10.159798466162085"><ele>700.25</ele><time>2026-03-28T10:40:42Z</time></trkpt><trkpt lat="44.5856371140345" lon="10.159707913415765"><ele>699.5</ele><time>2026-03-28T10:40:43Z</time></trkpt><trkpt lat="44.585736980849674" lon="10.159623125203833"><ele>698.75</ele><time>2026-03-28T10:40:44Z</time></trkpt><trkpt lat="44.585843454759754" lon="10.159550732624192"><ele>698.0</ele><time>2026-03-28T10:40:45Z</time></trkpt><trkpt lat="44.58594435613494" lon="10.159482723163958"><ele>698.0</ele><time>2026-03-28T10:40:46Z</time></trkpt><trkpt lat="44.58604171857655" lon="10.15941390370741"><ele>698.0</ele><time>2026-03-28T10:40:47Z</time></trkpt><trkpt lat="44.58613806797997" lon="10.15934659341368"><ele>698.0</ele><time>2026-03-28T10:40:48Z</time></trkpt><trkpt lat="44.5862319710667" lon="10.159267421128224"><ele>698.0</ele><time>2026-03-28T10:40:49Z</time></trkpt><trkpt lat="44.5863264174577" lon="10.159200630947813"><ele>698.0</ele><time>2026-03-28T10:40:50Z</time></trkpt><trkpt lat="44.58642433705672" lon="10.159135086877573"><ele>698.5999999999999</ele><time>2026-03-28T10:40:51Z</time></trkpt><trkpt lat="44.586518499423036" lon="10.159065625756904"><ele>699.1999999999999</ele><time>2026-03-28T10:40:52Z</time></trkpt><trkpt lat="44.58661347620416" lon="10.158989941275745"><ele>699.8</ele><time>2026-03-28T10:40:53Z</time></trkpt><trkpt lat="44.5867064016914" lon="10.158918936355517"><ele>700.4</ele><time>2026-03-28T10:40:54Z</time></trkpt><trkpt lat="44.586799979549156" lon="10.158848531926806"><ele>701.0</ele><time>2026-03-28T10:40:55Z</time></trkpt><trkpt lat="44.58687657818794" lon="10.1587596460367"><ele>701.0</ele><time>2026-03-28T10:40:56Z</time></trkpt><trkpt lat="44.586932383531966" lon="10.158632238147362"><ele>701.0</ele><time>2026-03-28T10:40:57Z</time></trkpt><trkpt lat="44.5869626196474" lon="10.158470061937091"><ele>701.0</ele><time>2026-03-28T10:40:58Z</time></trkpt><trkpt lat="44.586978732066385" lon="10.158294717163354"><ele>701.0</ele><time>2026-03-28T10:40:59Z</time></trkpt><trkpt lat="44.5869846940868" lon="10.15812982631057"><ele>700.0</ele><time>2026-03-28T10:41:00Z</time></trkpt><trkpt lat="44.58701016325425" lon="10.157976330091273"><ele>699.0</ele><time>2026-03-28T10:41:00.999Z</time></trkpt><trkpt lat="44.5870332666817" lon="10.157831039770686"><ele>698.0</ele><time>2026-03-28T10:41:01.999Z</time></trkpt><trkpt lat="44.58706142859732" lon="10.157696753809658"><ele>697.0</ele><time>2026-03-28T10:41:02.999Z</time></trkpt><trkpt lat="44.587156555061746" lon="10.157610329937663"><ele>696.0</ele><time>2026-03-28T10:41:03.999Z</time></trkpt><trkpt lat="44.58724772571238" lon="10.157510593145393"><ele>696.0</ele><time>2026-03-28T10:41:04.999Z</time></trkpt><trkpt lat="44.58735393532245" lon="10.157441716213786"><ele>696.0</ele><time>2026-03-28T10:41:05.999Z</time></trkpt><trkpt lat="44.58745392424786" lon="10.157393596184233"><ele>696.0</ele><time>2026-03-28T10:41:06.999Z</time></trkpt><trkpt lat="44.587544303720556" lon="10.157320930907614"><ele>696.0</ele><time>2026-03-28T10:41:07.999Z</time></trkpt><trkpt lat="44.58761957206001" lon="10.157222586101595"><ele>696.0</ele><time>2026-03-28T10:41:08.999Z</time></trkpt><trkpt lat="44.58767439644427" lon="10.15711884334128"><ele>697.1999999999999</ele><time>2026-03-28T10:41:09.999Z</time></trkpt><trkpt lat="44.58773005604679" lon="10.157003166500601"><ele>698.4</ele><time>2026-03-28T10:41:10.999Z</time></trkpt><trkpt lat="44.58778864014674" lon="10.156885000736217"><ele>699.6</ele><time>2026-03-28T10:41:11.999Z</time></trkpt><trkpt lat="44.587831100455986" lon="10.156742782049367"><ele>700.8</ele><time>2026-03-28T10:41:12.999Z</time></trkpt><trkpt lat="44.58784427968527" lon="10.156571684889416"><ele>702.0</ele><time>2026-03-28T10:41:13.999Z</time></trkpt><trkpt lat="44.587847840971634" lon="10.156387772761356"><ele>702.0</ele><time>2026-03-28T10:41:14.999Z</time></trkpt><trkpt lat="44.58787789939254" lon="10.15620271648789"><ele>702.0</ele><time>2026-03-28T10:41:15.999Z</time></trkpt><trkpt lat="44.58787680055763" lon="10.156005264762351"><ele>702.0</ele><time>2026-03-28T10:41:16.999Z</time></trkpt><trkpt lat="44.587899543444806" lon="10.155815865552237"><ele>702.0</ele><time>2026-03-28T10:41:17.999Z</time></trkpt><trkpt lat="44.58791156037598" lon="10.155622740401643"><ele>703.0</ele><time>2026-03-28T10:41:18.999Z</time></trkpt><trkpt lat="44.58793199546429" lon="10.155411037360711"><ele>704.0</ele><time>2026-03-28T10:41:19.999Z</time></trkpt><trkpt lat="44.58789548041333" lon="10.155188521681751"><ele>705.0</ele><time>2026-03-28T10:41:20.999Z</time></trkpt><trkpt lat="44.58782915902893" lon="10.15496648910557"><ele>693.0</ele><time>2026-03-28T10:41:21.999Z</time></trkpt><trkpt lat="44.58779607534785" lon="10.154747510423814"><ele>681.0</ele><time>2026-03-28T10:41:22.999Z</time></trkpt><trkpt lat="44.5877791124049" lon="10.154511011109658"><ele>669.0</ele><time>2026-03-28T10:41:23.999Z</time></trkpt><trkpt lat="44.587770008430745" lon="10.154269793728373"><ele>669.0</ele><time>2026-03-28T10:41:24.999Z</time></trkpt><trkpt lat="44.58773360873936" lon="10.154053086183218"><ele>669.0</ele><time>2026-03-28T10:41:25.999Z</time></trkpt><trkpt lat="44.587662792029334" lon="10.153852494534947"><ele>669.0</ele><time>2026-03-28T10:41:26.999Z</time></trkpt><trkpt lat="44.58755921591889" lon="10.153642172656646"><ele>669.3333333333334</ele><time>2026-03-28T10:41:27.999Z</time></trkpt><trkpt lat="44.58748220120268" lon="10.153456647886491"><ele>669.6666666666667</ele><time>2026-03-28T10:41:28.999Z</time></trkpt><trkpt lat="44.587462069754" lon="10.15326402435002"><ele>670.0</ele><time>2026-03-28T10:41:29.999Z</time></trkpt><trkpt lat="44.58746218125507" lon="10.153023736630988"><ele>670.0</ele><time>2026-03-28T10:41:30.999Z</time></trkpt><trkpt lat="44.587464101571626" lon="10.152772126654293"><ele>670.0</ele><time>2026-03-28T10:41:31.999Z</time></trkpt><trkpt lat="44.5874501781961" lon="10.152546053257415"><ele>670.0</ele><time>2026-03-28T10:41:32.999Z</time></trkpt><trkpt lat="44.58746398705548" lon="10.152334464586353"><ele>667.5</ele><time>2026-03-28T10:41:33.999Z</time></trkpt><trkpt lat="44.58746807281197" lon="10.152158869097827"><ele>665.0</ele><time>2026-03-28T10:41:34.999Z</time></trkpt><trkpt lat="44.58748070804521" lon="10.15197620610431"><ele>662.5</ele><time>2026-03-28T10:41:35.999Z</time></trkpt><trkpt lat="44.58751255574055" lon="10.151786784757308"><ele>660.0</ele><time>2026-03-28T10:41:36.999Z</time></trkpt><trkpt lat="44.58764110614926" lon="10.151651519911272"><ele>660.0</ele><time>2026-03-28T10:41:37.999Z</time></trkpt><trkpt lat="44.58777878195117" lon="10.151496539483576"><ele>660.0</ele><time>2026-03-28T10:41:38.999Z</time></trkpt><trkpt lat="44.58791497885892" lon="10.151340895437324"><ele>660.0</ele><time>2026-03-28T10:41:39.999Z</time></trkpt><trkpt lat="44.588049308091215" lon="10.1512059008152"><ele>660.0</ele><time>2026-03-28T10:41:40.999Z</time></trkpt><trkpt lat="44.588164954672486" lon="10.151042755862033"><ele>660.0</ele><time>2026-03-28T10:41:41.999Z</time></trkpt><trkpt lat="44.588259678568626" lon="10.150857208737982"><ele>660.0</ele><time>2026-03-28T10:41:42.999Z</time></trkpt><trkpt lat="44.5883386105643" lon="10.150617046559416"><ele>655.0</ele><time>2026-03-28T10:41:43.999Z</time></trkpt><trkpt lat="44.588402261111035" lon="10.15036826426873"><ele>650.0</ele><time>2026-03-28T10:41:44.999Z</time></trkpt><trkpt lat="44.58845648296037" lon="10.150169850455995"><ele>645.0</ele><time>2026-03-28T10:41:45.999Z</time></trkpt><trkpt lat="44.58851305453384" lon="10.150002828815813"><ele>642.6666666666666</ele><time>2026-03-28T10:41:46.999Z</time></trkpt><trkpt lat="44.58860454637581" lon="10.149858440919923"><ele>640.3333333333333</ele><time>2026-03-28T10:41:47.999Z</time></trkpt><trkpt lat="44.5887536373003" lon="10.149777671347822"><ele>638.0</ele><time>2026-03-28T10:41:48.999Z</time></trkpt><trkpt lat="44.58892841739775" lon="10.149660419284112"><ele>638.0</ele><time>2026-03-28T10:41:49.999Z</time></trkpt><trkpt lat="44.5891140539126" lon="10.149579672735483"><ele>638.0</ele><time>2026-03-28T10:41:50.999Z</time></trkpt><trkpt lat="44.58927510866375" lon="10.14949577677431"><ele>638.0</ele><time>2026-03-28T10:41:51.999Z</time></trkpt><trkpt lat="44.589448083588316" lon="10.149426420461207"><ele>637.6666666666666</ele><time>2026-03-28T10:41:53Z</time></trkpt><trkpt lat="44.58962107368162" lon="10.149374419815077"><ele>637.3333333333334</ele><time>2026-03-28T10:41:54Z</time></trkpt><trkpt lat="44.58978351916276" lon="10.149331748145784"><ele>637.0</ele><time>2026-03-28T10:41:55Z</time></trkpt><trkpt lat="44.58993863139198" lon="10.149291019091425"><ele>637.0</ele><time>2026-03-28T10:41:56Z</time></trkpt><trkpt lat="44.59008337414808" lon="10.149211669757452"><ele>637.0</ele><time>2026-03-28T10:41:57Z</time></trkpt><trkpt lat="44.59023468167576" lon="10.149048193184768"><ele>637.0</ele><time>2026-03-28T10:41:58Z</time></trkpt><trkpt lat="44.59038871413603" lon="10.1488731935269"><ele>633.6666666666667</ele><time>2026-03-28T10:41:59Z</time></trkpt><trkpt lat="44.59055574885177" lon="10.14873219424515"><ele>630.3333333333334</ele><time>2026-03-28T10:42:00Z</time></trkpt><trkpt lat="44.59071750902284" lon="10.148621435650927"><ele>627.0</ele><time>2026-03-28T10:42:01Z</time></trkpt><trkpt lat="44.590858836159875" lon="10.148509455908554"><ele>627.0</ele><time>2026-03-28T10:42:02Z</time></trkpt><trkpt lat="44.59099072358161" lon="10.14839995162974"><ele>627.0</ele><time>2026-03-28T10:42:03Z</time></trkpt><trkpt lat="44.59108074429904" lon="10.148268297214438"><ele>627.0</ele><time>2026-03-28T10:42:04Z</time></trkpt><trkpt lat="44.59113249977414" lon="10.148090532583362"><ele>627.0</ele><time>2026-03-28T10:42:05Z</time></trkpt><trkpt lat="44.59113399952257" lon="10.14788037799502"><ele>622.6666666666666</ele><time>2026-03-28T10:42:06Z</time></trkpt><trkpt lat="44.59109483182077" lon="10.147651207738253"><ele>618.3333333333333</ele><time>2026-03-28T10:42:07Z</time></trkpt><trkpt lat="44.59108854392709" lon="10.147420840500727"><ele>614.0</ele><time>2026-03-28T10:42:08Z</time></trkpt><trkpt lat="44.59111030223616" lon="10.147223432486344"><ele>621.3333333333333</ele><time>2026-03-28T10:42:09Z</time></trkpt><trkpt lat="44.59118541589049" lon="10.147022941644174"><ele>628.6666666666666</ele><time>2026-03-28T10:42:10Z</time></trkpt><trkpt lat="44.591270982390114" lon="10.146815691590865"><ele>636.0</ele><time>2026-03-28T10:42:11Z</time></trkpt><trkpt lat="44.59134851718674" lon="10.14657433104943"><ele>630.3333333333334</ele><time>2026-03-28T10:42:12Z</time></trkpt><trkpt lat="44.59140577677809" lon="10.14633129839115"><ele>624.6666666666667</ele><time>2026-03-28T10:42:13Z</time></trkpt><trkpt lat="44.59145530104723" lon="10.146094143326724"><ele>619.0</ele><time>2026-03-28T10:42:14Z</time></trkpt><trkpt lat="44.591508548839485" lon="10.145877393063566"><ele>616.0</ele><time>2026-03-28T10:42:15Z</time></trkpt><trkpt lat="44.59155461435081" lon="10.145671347736826"><ele>613.0</ele><time>2026-03-28T10:42:16Z</time></trkpt><trkpt lat="44.5915569021325" lon="10.145453359170329"><ele>610.0</ele><time>2026-03-28T10:42:17Z</time></trkpt><trkpt lat="44.59151947240899" lon="10.14522018049419"><ele>610.0</ele><time>2026-03-28T10:42:18Z</time></trkpt><trkpt lat="44.59150345071621" lon="10.144972637599906"><ele>610.0</ele><time>2026-03-28T10:42:19Z</time></trkpt><trkpt lat="44.59147648536749" lon="10.144735997328842"><ele>610.0</ele><time>2026-03-28T10:42:20Z</time></trkpt><trkpt lat="44.591451769868904" lon="10.144516655257572"><ele>607.25</ele><time>2026-03-28T10:42:21Z</time></trkpt><trkpt lat="44.59142773020138" lon="10.144301682984075"><ele>604.5</ele><time>2026-03-28T10:42:22Z</time></trkpt><trkpt lat="44.59140789379553" lon="10.14411839162119"><ele>601.75</ele><time>2026-03-28T10:42:23Z</time></trkpt><trkpt lat="44.59140623823901" lon="10.143954286039595"><ele>599.0</ele><time>2026-03-28T10:42:24Z</time></trkpt><trkpt lat="44.591443389445004" lon="10.143813076895356"><ele>598.75</ele><time>2026-03-28T10:42:25Z</time></trkpt><trkpt lat="44.59150885249652" lon="10.143687149165045"><ele>598.5</ele><time>2026-03-28T10:42:26Z</time></trkpt><trkpt lat="44.591632978897174" lon="10.143632369596665"><ele>598.25</ele><time>2026-03-28T10:42:27Z</time></trkpt><trkpt lat="44.59177198969568" lon="10.143646555765008"><ele>598.0</ele><time>2026-03-28T10:42:28Z</time></trkpt><trkpt lat="44.5919243922754" lon="10.143740899289964"><ele>596.0</ele><time>2026-03-28T10:42:29Z</time></trkpt><trkpt lat="44.59207821799652" lon="10.143891347467713"><ele>594.0</ele><time>2026-03-28T10:42:30Z</time></trkpt><trkpt lat="44.59221635702154" lon="10.144016395603474"><ele>592.0</ele><time>2026-03-28T10:42:31Z</time></trkpt><trkpt lat="44.59234755565626" lon="10.14411708356055"><ele>592.0</ele><time>2026-03-28T10:42:32Z</time></trkpt><trkpt lat="44.59246491087305" lon="10.144208089716683"><ele>592.0</ele><time>2026-03-28T10:42:33Z</time></trkpt><trkpt lat="44.59255959144211" lon="10.144275271627288"><ele>592.0</ele><time>2026-03-28T10:42:34Z</time></trkpt><trkpt lat="44.59262579463119" lon="10.144306505272334"><ele>592.0</ele><time>2026-03-28T10:42:35Z</time></trkpt><trkpt lat="44.592700597216925" lon="10.144321905716271"><ele>592.0</ele><time>2026-03-28T10:42:37Z</time></trkpt><trkpt lat="44.5928235070627" lon="10.144278370105106"><ele>592.0</ele><time>2026-03-28T10:42:49Z</time></trkpt><trkpt lat="44.59291625616072" lon="10.144258968835361"><ele>592.0</ele><time>2026-03-28T10:42:50Z</time></trkpt><trkpt lat="44.593007122508745" lon="10.144205071953966"><ele>592.0</ele><time>2026-03-28T10:42:51Z</time></trkpt><trkpt lat="44.59310178729772" lon="10.144146726924633"><ele>592.0</ele><time>2026-03-28T10:42:52Z</time></trkpt><trkpt lat="44.59319852822628" lon="10.14406514240295"><ele>592.0</ele><time>2026-03-28T10:42:53Z</time></trkpt><trkpt lat="44.59330584916483" lon="10.143990002346484"><ele>589.25</ele><time>2026-03-28T10:42:54Z</time></trkpt><trkpt lat="44.59342000799836" lon="10.143902971594803"><ele>586.5</ele><time>2026-03-28T10:42:55Z</time></trkpt><trkpt lat="44.593548987956595" lon="10.143812551689255"><ele>583.75</ele><time>2026-03-28T10:42:56Z</time></trkpt><trkpt lat="44.59368872838816" lon="10.143709536492027"><ele>581.0</ele><time>2026-03-28T10:42:57Z</time></trkpt><trkpt lat="44.59383359612131" lon="10.143595440824123"><ele>581.0</ele><time>2026-03-28T10:42:58Z</time></trkpt><trkpt lat="44.59397711234891" lon="10.14350176243175"><ele>581.0</ele><time>2026-03-28T10:42:59Z</time></trkpt><trkpt lat="44.59403079603145" lon="10.143449995003781"><ele>581.0</ele><time>2026-03-28T10:43:00Z</time></trkpt><trkpt lat="44.59414977142854" lon="10.143368925783333"><ele>581.0</ele><time>2026-03-28T10:43:01Z</time></trkpt><trkpt lat="44.594249036798495" lon="10.143289181248496"><ele>577.0</ele><time>2026-03-28T10:43:02Z</time></trkpt><trkpt lat="44.59432387390729" lon="10.143180466406308"><ele>573.0</ele><time>2026-03-28T10:43:03Z</time></trkpt><trkpt lat="44.59436493192644" lon="10.14301137681902"><ele>569.0</ele><time>2026-03-28T10:43:04Z</time></trkpt><trkpt lat="44.59435757153969" lon="10.142803781814022"><ele>565.0</ele><time>2026-03-28T10:43:05Z</time></trkpt><trkpt lat="44.594343391549245" lon="10.142577696847965"><ele>560.3333333333334</ele><time>2026-03-28T10:43:06Z</time></trkpt><trkpt lat="44.59433792625416" lon="10.142357961476636"><ele>555.6666666666666</ele><time>2026-03-28T10:43:07Z</time></trkpt><trkpt lat="44.59434588009588" lon="10.142154026555378"><ele>551.0</ele><time>2026-03-28T10:43:08Z</time></trkpt><trkpt lat="44.594424551482305" lon="10.141968961635724"><ele>553.6666666666666</ele><time>2026-03-28T10:43:09Z</time></trkpt><trkpt lat="44.59454190323614" lon="10.141824611174506"><ele>556.3333333333334</ele><time>2026-03-28T10:43:10Z</time></trkpt><trkpt lat="44.59466804283667" lon="10.141654262974994"><ele>559.0</ele><time>2026-03-28T10:43:10.999Z</time></trkpt><trkpt lat="44.594765030093015" lon="10.141471247279723"><ele>559.0</ele><time>2026-03-28T10:43:11.999Z</time></trkpt><trkpt lat="44.594855196939136" lon="10.141273875322007"><ele>559.0</ele><time>2026-03-28T10:43:12.999Z</time></trkpt><trkpt lat="44.594928756652024" lon="10.14104400942184"><ele>559.0</ele><time>2026-03-28T10:43:13.999Z</time></trkpt><trkpt lat="44.5949865965672" lon="10.140824544415079"><ele>554.3333333333334</ele><time>2026-03-28T10:43:14.999Z</time></trkpt><trkpt lat="44.5950389989734" lon="10.140616941456463"><ele>549.6666666666666</ele><time>2026-03-28T10:43:15.999Z</time></trkpt><trkpt lat="44.595090815071416" lon="10.14041864302164"><ele>545.0</ele><time>2026-03-28T10:43:16.999Z</time></trkpt><trkpt lat="44.595150583427575" lon="10.140233348468588"><ele>545.0</ele><time>2026-03-28T10:43:17.999Z</time></trkpt><trkpt lat="44.59521105227519" lon="10.140057827834754"><ele>545.0</ele><time>2026-03-28T10:43:18.999Z</time></trkpt><trkpt lat="44.5952603548643" lon="10.139881511665397"><ele>545.0</ele><time>2026-03-28T10:43:19.999Z</time></trkpt><trkpt lat="44.59530183370202" lon="10.139709513672548"><ele>545.0</ele><time>2026-03-28T10:43:20.999Z</time></trkpt><trkpt lat="44.5953478089699" lon="10.139543554714347"><ele>543.5</ele><time>2026-03-28T10:43:21.999Z</time></trkpt><trkpt lat="44.595377639363306" lon="10.139378129547474"><ele>542.0</ele><time>2026-03-28T10:43:22.999Z</time></trkpt><trkpt lat="44.59536465728686" lon="10.139207252314597"><ele>540.5</ele><time>2026-03-28T10:43:23.999Z</time></trkpt><trkpt lat="44.59532720364445" lon="10.139052145857"><ele>539.0</ele><time>2026-03-28T10:43:24.999Z</time></trkpt><trkpt lat="44.5952812666181" lon="10.138905290311603"><ele>539.0</ele><time>2026-03-28T10:43:25.999Z</time></trkpt><trkpt lat="44.59522364879539" lon="10.13876869729841"><ele>539.0</ele><time>2026-03-28T10:43:26.999Z</time></trkpt><trkpt lat="44.59517866387217" lon="10.138628528779325"><ele>539.0</ele><time>2026-03-28T10:43:27.999Z</time></trkpt><trkpt lat="44.595122937303486" lon="10.138464826108626"><ele>539.0</ele><time>2026-03-28T10:43:28.999Z</time></trkpt><trkpt lat="44.595068555072295" lon="10.138282768569956"><ele>540.0</ele><time>2026-03-28T10:43:29.999Z</time></trkpt><trkpt lat="44.59501584994354" lon="10.138087850289917"><ele>541.0</ele><time>2026-03-28T10:43:30.999Z</time></trkpt><trkpt lat="44.59496019804178" lon="10.137883875175456"><ele>542.0</ele><time>2026-03-28T10:43:31.999Z</time></trkpt><trkpt lat="44.59489112568869" lon="10.137682464139969"><ele>542.0</ele><time>2026-03-28T10:43:32.999Z</time></trkpt><trkpt lat="44.594823666580645" lon="10.137482767546945"><ele>542.0</ele><time>2026-03-28T10:43:33.999Z</time></trkpt><trkpt lat="44.59474249211619" lon="10.137287492313483"><ele>542.0</ele><time>2026-03-28T10:43:34.999Z</time></trkpt><trkpt lat="44.5946724975243" lon="10.137102504958834"><ele>541.0</ele><time>2026-03-28T10:43:35.999Z</time></trkpt><trkpt lat="44.59461235180574" lon="10.136928024747743"><ele>540.0</ele><time>2026-03-28T10:43:36.999Z</time></trkpt><trkpt lat="44.59459286900949" lon="10.136757033097096"><ele>539.0</ele><time>2026-03-28T10:43:37.999Z</time></trkpt><trkpt lat="44.594584511879475" lon="10.136584674230456"><ele>538.0</ele><time>2026-03-28T10:43:38.999Z</time></trkpt><trkpt lat="44.594606117209366" lon="10.136390118086357"><ele>534.3333333333334</ele><time>2026-03-28T10:43:39.999Z</time></trkpt><trkpt lat="44.59465715669343" lon="10.136193989368959"><ele>530.6666666666666</ele><time>2026-03-28T10:43:40.999Z</time></trkpt><trkpt lat="44.59476498572913" lon="10.136005129556152"><ele>527.0</ele><time>2026-03-28T10:43:41.999Z</time></trkpt><trkpt lat="44.59490526457335" lon="10.135837439652924"><ele>524.3333333333333</ele><time>2026-03-28T10:43:42.999Z</time></trkpt><trkpt lat="44.59505855343187" lon="10.135677475357975"><ele>521.6666666666666</ele><time>2026-03-28T10:43:43.999Z</time></trkpt><trkpt lat="44.595201891727925" lon="10.135513612559997"><ele>519.0</ele><time>2026-03-28T10:43:44.999Z</time></trkpt><trkpt lat="44.59533912585958" lon="10.135347195912859"><ele>519.0</ele><time>2026-03-28T10:43:45.999Z</time></trkpt><trkpt lat="44.59548066386445" lon="10.135169055699922"><ele>519.0</ele><time>2026-03-28T10:43:46.999Z</time></trkpt><trkpt lat="44.595620829846744" lon="10.135006855699404"><ele>519.0</ele><time>2026-03-28T10:43:47.999Z</time></trkpt><trkpt lat="44.59575716916356" lon="10.134843390202539"><ele>516.0</ele><time>2026-03-28T10:43:48.999Z</time></trkpt><trkpt lat="44.59589285343982" lon="10.134689602444967"><ele>513.0</ele><time>2026-03-28T10:43:49.999Z</time></trkpt><trkpt lat="44.59604151336129" lon="10.134582700853686"><ele>510.0</ele><time>2026-03-28T10:43:50.999Z</time></trkpt><trkpt lat="44.59621443178656" lon="10.134487258454406"><ele>510.0</ele><time>2026-03-28T10:43:51.999Z</time></trkpt><trkpt lat="44.59638338104814" lon="10.134399748242835"><ele>510.0</ele><time>2026-03-28T10:43:52.999Z</time></trkpt><trkpt lat="44.596538489251536" lon="10.134305068537415"><ele>510.0</ele><time>2026-03-28T10:43:53.999Z</time></trkpt><trkpt lat="44.5966638146073" lon="10.134160676456437"><ele>504.33333333333337</ele><time>2026-03-28T10:43:54.999Z</time></trkpt><trkpt lat="44.59675996672362" lon="10.133948828638108"><ele>498.6666666666667</ele><time>2026-03-28T10:43:55.999Z</time></trkpt><trkpt lat="44.59685108372468" lon="10.133714875755585"><ele>493.0</ele><time>2026-03-28T10:43:56.999Z</time></trkpt><trkpt lat="44.596958654511894" lon="10.133535129391692"><ele>495.33333333333337</ele><time>2026-03-28T10:43:57.999Z</time></trkpt><trkpt lat="44.5970767904673" lon="10.133341365536502"><ele>497.66666666666663</ele><time>2026-03-28T10:43:59Z</time></trkpt><trkpt lat="44.59723556382398" lon="10.133201347965874"><ele>500.0</ele><time>2026-03-28T10:44:00Z</time></trkpt><trkpt lat="44.5974278760461" lon="10.133100571244881"><ele>494.66666666666663</ele><time>2026-03-28T10:44:01Z</time></trkpt><trkpt lat="44.59764177490633" lon="10.133025860288793"><ele>489.33333333333337</ele><time>2026-03-28T10:44:02Z</time></trkpt><trkpt lat="44.597851335819904" lon="10.132933338666387"><ele>484.0</ele><time>2026-03-28T10:44:03Z</time></trkpt><trkpt lat="44.598057966712474" lon="10.13282483352184"><ele>484.0</ele><time>2026-03-28T10:44:04Z</time></trkpt><trkpt lat="44.59826642128157" lon="10.132716886199235"><ele>484.0</ele><time>2026-03-28T10:44:05Z</time></trkpt><trkpt lat="44.59847404183682" lon="10.132617021860625"><ele>484.0</ele><time>2026-03-28T10:44:06Z</time></trkpt><trkpt lat="44.598675101077696" lon="10.132508262169013"><ele>482.6666666666667</ele><time>2026-03-28T10:44:07Z</time></trkpt><trkpt lat="44.59885297912479" lon="10.132403604301805"><ele>481.33333333333337</ele><time>2026-03-28T10:44:08Z</time></trkpt><trkpt lat="44.599025477322705" lon="10.132324619348516"><ele>480.0</ele><time>2026-03-28T10:44:09Z</time></trkpt><trkpt lat="44.599176337090384" lon="10.132254592066312"><ele>477.5</ele><time>2026-03-28T10:44:10Z</time></trkpt><trkpt lat="44.599309943660984" lon="10.132187225401937"><ele>475.0</ele><time>2026-03-28T10:44:11Z</time></trkpt><trkpt lat="44.59943787161951" lon="10.132108923168325"><ele>472.5</ele><time>2026-03-28T10:44:12Z</time></trkpt><trkpt lat="44.59954994488098" lon="10.132031604978403"><ele>470.0</ele><time>2026-03-28T10:44:13Z</time></trkpt><trkpt lat="44.599638746800906" lon="10.131938819522528"><ele>470.0</ele><time>2026-03-28T10:44:14Z</time></trkpt><trkpt lat="44.59971514610643" lon="10.131852926229808"><ele>470.0</ele><time>2026-03-28T10:44:15Z</time></trkpt><trkpt lat="44.59979760531646" lon="10.131774923169392"><ele>470.0</ele><time>2026-03-28T10:44:16Z</time></trkpt><trkpt lat="44.599891510991284" lon="10.131692988770894"><ele>470.0</ele><time>2026-03-28T10:44:17Z</time></trkpt><trkpt lat="44.599994416409345" lon="10.131604080272323"><ele>470.0</ele><time>2026-03-28T10:44:18Z</time></trkpt><trkpt lat="44.600115795837866" lon="10.131499059141424"><ele>468.3333333333333</ele><time>2026-03-28T10:44:19Z</time></trkpt><trkpt lat="44.600250051609734" lon="10.131386462493174"><ele>466.66666666666663</ele><time>2026-03-28T10:44:20Z</time></trkpt><trkpt lat="44.60037708047342" lon="10.13127267127876"><ele>465.0</ele><time>2026-03-28T10:44:21Z</time></trkpt><trkpt lat="44.600500648107015" lon="10.131145426099716"><ele>465.0</ele><time>2026-03-28T10:44:22Z</time></trkpt><trkpt lat="44.6006067853057" lon="10.130998171452497"><ele>465.0</ele><time>2026-03-28T10:44:23Z</time></trkpt><trkpt lat="44.600687400477646" lon="10.130803101064785"><ele>465.0</ele><time>2026-03-28T10:44:24Z</time></trkpt><trkpt lat="44.6007466097708" lon="10.130578808883703"><ele>460.66666666666663</ele><time>2026-03-28T10:44:25Z</time></trkpt><trkpt lat="44.600781918271146" lon="10.130326654455047"><ele>456.3333333333333</ele><time>2026-03-28T10:44:26Z</time></trkpt><trkpt lat="44.600837977207284" lon="10.130096721413333"><ele>452.0</ele><time>2026-03-28T10:44:27Z</time></trkpt><trkpt lat="44.60088261680159" lon="10.129860947729613"><ele>448.0</ele><time>2026-03-28T10:44:28Z</time></trkpt><trkpt lat="44.60092592973447" lon="10.12963341636198"><ele>444.0</ele><time>2026-03-28T10:44:29Z</time></trkpt><trkpt lat="44.60097117319597" lon="10.129414147417886"><ele>440.0</ele><time>2026-03-28T10:44:30Z</time></trkpt><trkpt lat="44.60102657134194" lon="10.129227903086303"><ele>438.0</ele><time>2026-03-28T10:44:31Z</time></trkpt><trkpt lat="44.601092630736844" lon="10.129036252704086"><ele>436.0</ele><time>2026-03-28T10:44:32Z</time></trkpt><trkpt lat="44.60120497159646" lon="10.12882936554549"><ele>434.0</ele><time>2026-03-28T10:44:33Z</time></trkpt><trkpt lat="44.6013209078875" lon="10.128606801498826"><ele>434.0</ele><time>2026-03-28T10:44:34Z</time></trkpt><trkpt lat="44.601422000695486" lon="10.128397465546715"><ele>434.0</ele><time>2026-03-28T10:44:35Z</time></trkpt><trkpt lat="44.6015243104109" lon="10.128195779517505"><ele>434.0</ele><time>2026-03-28T10:44:36Z</time></trkpt><trkpt lat="44.601637669041416" lon="10.128004000444545"><ele>431.3333333333333</ele><time>2026-03-28T10:44:37Z</time></trkpt><trkpt lat="44.601757240934816" lon="10.127824745920412"><ele>428.66666666666663</ele><time>2026-03-28T10:44:38Z</time></trkpt><trkpt lat="44.6018792113595" lon="10.127671017706255"><ele>426.0</ele><time>2026-03-28T10:44:39Z</time></trkpt><trkpt lat="44.60201726093581" lon="10.127525640075126"><ele>423.0</ele><time>2026-03-28T10:44:40Z</time></trkpt><trkpt lat="44.60214186777596" lon="10.12737976662121"><ele>420.0</ele><time>2026-03-28T10:44:41Z</time></trkpt><trkpt lat="44.602256997682396" lon="10.127211760516701"><ele>417.0</ele><time>2026-03-28T10:44:42Z</time></trkpt><trkpt lat="44.60236262456341" lon="10.127048650341084"><ele>417.0</ele><time>2026-03-28T10:44:43Z</time></trkpt><trkpt lat="44.60245984032271" lon="10.126880260062396"><ele>417.0</ele><time>2026-03-28T10:44:44Z</time></trkpt><trkpt lat="44.60254595300275" lon="10.126702567541964"><ele>417.0</ele><time>2026-03-28T10:44:45Z</time></trkpt><trkpt lat="44.602626326941255" lon="10.12653213131989"><ele>414.75</ele><time>2026-03-28T10:44:46Z</time></trkpt><trkpt lat="44.60271217685547" lon="10.126353664938128"><ele>412.5</ele><time>2026-03-28T10:44:47Z</time></trkpt><trkpt lat="44.60279520006923" lon="10.126180475193822"><ele>410.25</ele><time>2026-03-28T10:44:48Z</time></trkpt><trkpt lat="44.60287798675097" lon="10.12601030139907"><ele>408.0</ele><time>2026-03-28T10:44:49Z</time></trkpt><trkpt lat="44.60296205533958" lon="10.125865380674627"><ele>406.0</ele><time>2026-03-28T10:44:50Z</time></trkpt><trkpt lat="44.603049245490375" lon="10.125726749164764"><ele>404.0</ele><time>2026-03-28T10:44:51Z</time></trkpt><trkpt lat="44.60316183878913" lon="10.125627210712363"><ele>402.0</ele><time>2026-03-28T10:44:52Z</time></trkpt><trkpt lat="44.60328852239532" lon="10.125589790608867"><ele>400.0</ele><time>2026-03-28T10:44:53Z</time></trkpt><trkpt lat="44.60341889819053" lon="10.125549177793914"><ele>400.0</ele><time>2026-03-28T10:44:54Z</time></trkpt><trkpt lat="44.603525721918196" lon="10.125462142237534"><ele>400.0</ele><time>2026-03-28T10:44:55Z</time></trkpt><trkpt lat="44.60361970114061" lon="10.125354264597647"><ele>400.0</ele><time>2026-03-28T10:44:56Z</time></trkpt><trkpt lat="44.6037124939355" lon="10.12525506051094"><ele>400.0</ele><time>2026-03-28T10:44:57Z</time></trkpt><trkpt lat="44.60381454166632" lon="10.125170481871994"><ele>399.4</ele><time>2026-03-28T10:44:58Z</time></trkpt><trkpt lat="44.60391967129487" lon="10.1251036266058"><ele>398.8</ele><time>2026-03-28T10:44:59Z</time></trkpt><trkpt lat="44.60399733536169" lon="10.125048930563619"><ele>398.20000000000005</ele><time>2026-03-28T10:45:00Z</time></trkpt><trkpt lat="44.60407931832343" lon="10.124968536204817"><ele>397.6</ele><time>2026-03-28T10:45:02Z</time></trkpt><trkpt lat="44.604105070541095" lon="10.124854654557103"><ele>397.0</ele><time>2026-03-28T10:45:05Z</time></trkpt><trkpt lat="44.60411689815909" lon="10.12475221231664"><ele>396.0</ele><time>2026-03-28T10:45:29.999Z</time></trkpt><trkpt lat="44.60400132967333" lon="10.124578046976248"><ele>395.0</ele><time>2026-03-28T10:45:31.999Z</time></trkpt><trkpt lat="44.60391497141274" lon="10.124505437684942"><ele>394.0</ele><time>2026-03-28T10:45:32.999Z</time></trkpt><trkpt lat="44.603823086254195" lon="10.124396650464258"><ele>393.0</ele><time>2026-03-28T10:45:33.999Z</time></trkpt><trkpt lat="44.60372645179031" lon="10.124331507941665"><ele>393.4</ele><time>2026-03-28T10:45:34.999Z</time></trkpt><trkpt lat="44.60364237230957" lon="10.12423165382127"><ele>393.79999999999995</ele><time>2026-03-28T10:45:35.999Z</time></trkpt><trkpt lat="44.603548020417584" lon="10.124145505838161"><ele>394.2</ele><time>2026-03-28T10:45:36.999Z</time></trkpt><trkpt lat="44.603455270319486" lon="10.124061453668343"><ele>394.6</ele><time>2026-03-28T10:45:37.999Z</time></trkpt><trkpt lat="44.60336185606127" lon="10.123977967615977"><ele>395.0</ele><time>2026-03-28T10:45:38.999Z</time></trkpt><trkpt lat="44.60326217292784" lon="10.123889686299645"><ele>395.0</ele><time>2026-03-28T10:45:39.999Z</time></trkpt><trkpt lat="44.60316198566154" lon="10.123802677993897"><ele>395.0</ele><time>2026-03-28T10:45:40.999Z</time></trkpt><trkpt lat="44.603061210643965" lon="10.123714496231187"><ele>395.0</ele><time>2026-03-28T10:45:41.999Z</time></trkpt><trkpt lat="44.60296272297987" lon="10.123627838309812"><ele>395.0</ele><time>2026-03-28T10:45:42.999Z</time></trkpt><trkpt lat="44.60287609575736" lon="10.123551616248756"><ele>394.8</ele><time>2026-03-28T10:45:43.999Z</time></trkpt><trkpt lat="44.60279478851691" lon="10.123480075192152"><ele>394.6</ele><time>2026-03-28T10:45:44.999Z</time></trkpt><trkpt lat="44.60271644523346" lon="10.12341093834281"><ele>394.4</ele><time>2026-03-28T10:45:45.999Z</time></trkpt><trkpt lat="44.60264503133802" lon="10.123347824138161"><ele>394.2</ele><time>2026-03-28T10:45:46.999Z</time></trkpt><trkpt lat="44.602570094591854" lon="10.123281596740313"><ele>394.0</ele><time>2026-03-28T10:45:47.999Z</time></trkpt><trkpt lat="44.60249233564348" lon="10.123212875029035"><ele>394.00000000000006</ele><time>2026-03-28T10:45:48.999Z</time></trkpt><trkpt lat="44.60241291961344" lon="10.123142577266297"><ele>394.0</ele><time>2026-03-28T10:45:49.999Z</time></trkpt><trkpt lat="44.60234056111166" lon="10.123078390402382"><ele>394.0</ele><time>2026-03-28T10:45:50.999Z</time></trkpt><trkpt lat="44.60227370339274" lon="10.123019273211458"><ele>394.0</ele><time>2026-03-28T10:45:51.999Z</time></trkpt><trkpt lat="44.60221122941522" lon="10.122963972190124"><ele>394.00000000000006</ele><time>2026-03-28T10:45:52.999Z</time></trkpt><trkpt lat="44.60214428624802" lon="10.122904715071442"><ele>394.0</ele><time>2026-03-28T10:45:53.999Z</time></trkpt><trkpt lat="44.60206912366504" lon="10.12283810562204"><ele>394.50000000000006</ele><time>2026-03-28T10:45:54.999Z</time></trkpt><trkpt lat="44.60199094660916" lon="10.122795130835422"><ele>395.0</ele><time>2026-03-28T10:45:55.999Z</time></trkpt><trkpt lat="44.6019374685349" lon="10.122720351392932"><ele>395.5</ele><time>2026-03-28T10:45:56.999Z</time></trkpt><trkpt lat="44.60188148165718" lon="10.12267027603538"><ele>396.0</ele><time>2026-03-28T10:45:57.999Z</time></trkpt><trkpt lat="44.601779255447504" lon="10.122593690071607"><ele>396.50000000000006</ele><time>2026-03-28T10:45:59.999Z</time></trkpt><trkpt lat="44.60172808215849" lon="10.122533073130928"><ele>397.0</ele><time>2026-03-28T10:46:00.999Z</time></trkpt><trkpt lat="44.60167329145587" lon="10.122484547324996"><ele>397.00000000000006</ele><time>2026-03-28T10:46:01.999Z</time></trkpt><trkpt lat="44.60161053937217" lon="10.122456455019476"><ele>397.0</ele><time>2026-03-28T10:46:02.999Z</time></trkpt><trkpt lat="44.60155224013112" lon="10.122401395439875"><ele>397.0</ele><time>2026-03-28T10:46:03.999Z</time></trkpt><trkpt lat="44.601499407464416" lon="10.122346324427486"><ele>397.0</ele><time>2026-03-28T10:46:05Z</time></trkpt><trkpt lat="44.601441297239056" lon="10.122289107049028"><ele>397.00000000000006</ele><time>2026-03-28T10:46:06Z</time></trkpt><trkpt lat="44.60135009664287" lon="10.122176941086748"><ele>397.0</ele><time>2026-03-28T10:46:08Z</time></trkpt><trkpt lat="44.60126604052404" lon="10.12207508462369"><ele>396.83333333333337</ele><time>2026-03-28T10:46:10Z</time></trkpt><trkpt lat="44.601178358018416" lon="10.121969434420585"><ele>396.6666666666667</ele><time>2026-03-28T10:46:12Z</time></trkpt><trkpt lat="44.60113086603613" lon="10.121869294957595"><ele>396.5</ele><time>2026-03-28T10:46:13Z</time></trkpt><trkpt lat="44.60108602939661" lon="10.121753117121921"><ele>396.33333333333337</ele><time>2026-03-28T10:46:14Z</time></trkpt><trkpt lat="44.60106675472795" lon="10.121650924070549"><ele>396.1666666666667</ele><time>2026-03-28T10:46:15Z</time></trkpt><trkpt lat="44.601076836609906" lon="10.121563606670547"><ele>396.0</ele><time>2026-03-28T10:46:16Z</time></trkpt><trkpt lat="44.60110417627556" lon="10.12145313769615"><ele>396.0</ele><time>2026-03-28T10:46:17Z</time></trkpt><trkpt lat="44.60114335368374" lon="10.121325863623317"><ele>396.0</ele><time>2026-03-28T10:46:18Z</time></trkpt><trkpt lat="44.60120801932893" lon="10.12114869344214"><ele>396.0</ele><time>2026-03-28T10:46:19Z</time></trkpt><trkpt lat="44.601283690232776" lon="10.12098315549184"><ele>396.0</ele><time>2026-03-28T10:46:20Z</time></trkpt><trkpt lat="44.60136476599145" lon="10.120830374302303"><ele>396.25</ele><time>2026-03-28T10:46:21Z</time></trkpt><trkpt lat="44.601446808867415" lon="10.120648316738386"><ele>396.5</ele><time>2026-03-28T10:46:22Z</time></trkpt><trkpt lat="44.60152710934633" lon="10.120477175610457"><ele>396.75</ele><time>2026-03-28T10:46:23Z</time></trkpt><trkpt lat="44.60160242144409" lon="10.120317153532966"><ele>397.0</ele><time>2026-03-28T10:46:24Z</time></trkpt><trkpt lat="44.601671479183985" lon="10.12015547191701"><ele>397.0</ele><time>2026-03-28T10:46:25Z</time></trkpt><trkpt lat="44.601742381653885" lon="10.119989166373998"><ele>397.0</ele><time>2026-03-28T10:46:26Z</time></trkpt><trkpt lat="44.6018104423989" lon="10.119830220377983"><ele>397.0</ele><time>2026-03-28T10:46:27Z</time></trkpt><trkpt lat="44.601877504008016" lon="10.119675700190314"><ele>397.0</ele><time>2026-03-28T10:46:28Z</time></trkpt><trkpt lat="44.60194929268741" lon="10.119519956738188"><ele>396.0</ele><time>2026-03-28T10:46:29Z</time></trkpt><trkpt lat="44.602029949733534" lon="10.119362449780825"><ele>395.0</ele><time>2026-03-28T10:46:30Z</time></trkpt><trkpt lat="44.60210192733184" lon="10.119203886635809"><ele>394.0</ele><time>2026-03-28T10:46:31Z</time></trkpt><trkpt lat="44.60218091892446" lon="10.119029629092447"><ele>393.0</ele><time>2026-03-28T10:46:32Z</time></trkpt><trkpt lat="44.602268367473776" lon="10.118836715469582"><ele>393.0</ele><time>2026-03-28T10:46:33Z</time></trkpt><trkpt lat="44.60235633694177" lon="10.118642652682993"><ele>393.0</ele><time>2026-03-28T10:46:34Z</time></trkpt><trkpt lat="44.60243646476549" lon="10.118465888616273"><ele>393.0</ele><time>2026-03-28T10:46:35Z</time></trkpt><trkpt lat="44.602513394030716" lon="10.118296279263541"><ele>393.5</ele><time>2026-03-28T10:46:36Z</time></trkpt><trkpt lat="44.602583689604835" lon="10.118116784825746"><ele>394.0</ele><time>2026-03-28T10:46:37Z</time></trkpt><trkpt lat="44.60265968542484" lon="10.11794393720856"><ele>394.5</ele><time>2026-03-28T10:46:38Z</time></trkpt><trkpt lat="44.60274008099318" lon="10.117767415692974"><ele>395.0</ele><time>2026-03-28T10:46:39Z</time></trkpt><trkpt lat="44.60281766781066" lon="10.1176001862565"><ele>395.5</ele><time>2026-03-28T10:46:40Z</time></trkpt><trkpt lat="44.602884097529845" lon="10.117447230128679"><ele>396.0</ele><time>2026-03-28T10:46:41Z</time></trkpt><trkpt lat="44.60295160078221" lon="10.11731637432884"><ele>396.5</ele><time>2026-03-28T10:46:42Z</time></trkpt><trkpt lat="44.60304876940232" lon="10.117198314380627"><ele>397.0</ele><time>2026-03-28T10:46:43Z</time></trkpt><trkpt lat="44.60316862788336" lon="10.117092051541235"><ele>399.6666666666667</ele><time>2026-03-28T10:46:44Z</time></trkpt><trkpt lat="44.603306886739745" lon="10.117019247838043"><ele>402.33333333333337</ele><time>2026-03-28T10:46:45Z</time></trkpt><trkpt lat="44.60344975306637" lon="10.116984153136793"><ele>405.0</ele><time>2026-03-28T10:46:46Z</time></trkpt><trkpt lat="44.6036042821792" lon="10.117026864181657"><ele>406.66666666666663</ele><time>2026-03-28T10:46:47Z</time></trkpt><trkpt lat="44.60376011163334" lon="10.117081686109332"><ele>408.3333333333333</ele><time>2026-03-28T10:46:48Z</time></trkpt><trkpt lat="44.60390898204633" lon="10.117147120696425"><ele>410.0</ele><time>2026-03-28T10:46:49Z</time></trkpt><trkpt lat="44.60405902777557" lon="10.117205924160489"><ele>410.0</ele><time>2026-03-28T10:46:50Z</time></trkpt><trkpt lat="44.604193694298424" lon="10.117255347317501"><ele>410.0</ele><time>2026-03-28T10:46:51Z</time></trkpt><trkpt lat="44.60432808115642" lon="10.11731316657636"><ele>410.0</ele><time>2026-03-28T10:46:52Z</time></trkpt><trkpt lat="44.60446238304983" lon="10.117395741725172"><ele>410.0</ele><time>2026-03-28T10:46:53Z</time></trkpt><trkpt lat="44.60460029714686" lon="10.117456941180341"><ele>408.75</ele><time>2026-03-28T10:46:54Z</time></trkpt><trkpt lat="44.6047353651991" lon="10.117517922402467"><ele>407.5</ele><time>2026-03-28T10:46:55Z</time></trkpt><trkpt lat="44.60487713283547" lon="10.117563251627704"><ele>406.25</ele><time>2026-03-28T10:46:56Z</time></trkpt><trkpt lat="44.60501440034687" lon="10.11764255879454"><ele>405.0</ele><time>2026-03-28T10:46:57Z</time></trkpt><trkpt lat="44.60515141271974" lon="10.117699313987654"><ele>405.0</ele><time>2026-03-28T10:46:58Z</time></trkpt><trkpt lat="44.60529987578062" lon="10.117764924158433"><ele>405.0</ele><time>2026-03-28T10:46:59Z</time></trkpt><trkpt lat="44.605439484213974" lon="10.117847888240803"><ele>405.0</ele><time>2026-03-28T10:47:00Z</time></trkpt><trkpt lat="44.605574664666904" lon="10.117952662069188"><ele>404.0</ele><time>2026-03-28T10:47:01Z</time></trkpt><trkpt lat="44.60570732712438" lon="10.118071566419262"><ele>403.0</ele><time>2026-03-28T10:47:02Z</time></trkpt><trkpt lat="44.6058271017635" lon="10.118196185181208"><ele>402.0</ele><time>2026-03-28T10:47:03Z</time></trkpt><trkpt lat="44.60595564196656" lon="10.11832648640768"><ele>402.0</ele><time>2026-03-28T10:47:04Z</time></trkpt><trkpt lat="44.606063650284646" lon="10.118446054071153"><ele>402.0</ele><time>2026-03-28T10:47:05Z</time></trkpt><trkpt lat="44.60616808486219" lon="10.118548766209756"><ele>402.0</ele><time>2026-03-28T10:47:06Z</time></trkpt><trkpt lat="44.60625905866163" lon="10.118643555046825"><ele>402.0</ele><time>2026-03-28T10:47:07Z</time></trkpt><trkpt lat="44.60635072960546" lon="10.11868912648153"><ele>404.0</ele><time>2026-03-28T10:47:08Z</time></trkpt><trkpt lat="44.60645213206433" lon="10.11868257257644"><ele>406.0</ele><time>2026-03-28T10:47:09Z</time></trkpt><trkpt lat="44.60655348798979" lon="10.118635947813232"><ele>408.0</ele><time>2026-03-28T10:47:10Z</time></trkpt><trkpt lat="44.60666632102498" lon="10.118584073835516"><ele>410.0</ele><time>2026-03-28T10:47:11Z</time></trkpt><trkpt lat="44.60678884891168" lon="10.118551404279847"><ele>410.0</ele><time>2026-03-28T10:47:12Z</time></trkpt><trkpt lat="44.60691578848939" lon="10.118522560424006"><ele>410.0</ele><time>2026-03-28T10:47:13Z</time></trkpt><trkpt lat="44.607049837959984" lon="10.118492631320303"><ele>410.0</ele><time>2026-03-28T10:47:14Z</time></trkpt><trkpt lat="44.607186554258355" lon="10.11846274590979"><ele>410.0</ele><time>2026-03-28T10:47:15Z</time></trkpt><trkpt lat="44.60731569457242" lon="10.118429170819963"><ele>412.0</ele><time>2026-03-28T10:47:16Z</time></trkpt><trkpt lat="44.60744661805568" lon="10.118392880387145"><ele>414.0</ele><time>2026-03-28T10:47:17Z</time></trkpt><trkpt lat="44.60757695573319" lon="10.118362281639133"><ele>416.0</ele><time>2026-03-28T10:47:18Z</time></trkpt><trkpt lat="44.60769887787472" lon="10.11833127232125"><ele>418.0</ele><time>2026-03-28T10:47:18.999Z</time></trkpt><trkpt lat="44.60779855656839" lon="10.118307785215912"><ele>419.83333333333337</ele><time>2026-03-28T10:47:19.999Z</time></trkpt><trkpt lat="44.6078809478438" lon="10.118291320314675"><ele>421.6666666666667</ele><time>2026-03-28T10:47:20.999Z</time></trkpt><trkpt lat="44.60796162807713" lon="10.118279669503082"><ele>423.5</ele><time>2026-03-28T10:47:21.999Z</time></trkpt><trkpt lat="44.608041408784516" lon="10.118277429605474"><ele>425.33333333333337</ele><time>2026-03-28T10:47:22.999Z</time></trkpt><trkpt lat="44.60812107176373" lon="10.118274238306048"><ele>427.1666666666667</ele><time>2026-03-28T10:47:24.999Z</time></trkpt><trkpt lat="44.60818583601301" lon="10.11822075373944"><ele>429.0</ele><time>2026-03-28T10:47:27.999Z</time></trkpt><trkpt lat="44.60811770512783" lon="10.118241365647618"><ele>429.0</ele><time>2026-03-28T10:47:31.999Z</time></trkpt><trkpt lat="44.60806689224141" lon="10.118341973349766"><ele>429.0</ele><time>2026-03-28T10:47:34.999Z</time></trkpt><trkpt lat="44.607860749823786" lon="10.118286561556785"><ele>429.0</ele><time>2026-03-28T10:47:35.999Z</time></trkpt><trkpt lat="44.60775709391028" lon="10.118309413897345"><ele>429.0</ele><time>2026-03-28T10:47:36.999Z</time></trkpt><trkpt lat="44.60764338401257" lon="10.118336482282283"><ele>426.25</ele><time>2026-03-28T10:47:37.999Z</time></trkpt><trkpt lat="44.60751950132739" lon="10.11836932517778"><ele>423.5</ele><time>2026-03-28T10:47:38.999Z</time></trkpt><trkpt lat="44.60739638150363" lon="10.118398281891661"><ele>420.75</ele><time>2026-03-28T10:47:39.999Z</time></trkpt><trkpt lat="44.60727399961435" lon="10.118423451468118"><ele>418.0</ele><time>2026-03-28T10:47:40.999Z</time></trkpt><trkpt lat="44.607155537487245" lon="10.11845504398141"><ele>418.0</ele><time>2026-03-28T10:47:41.999Z</time></trkpt><trkpt lat="44.60703927107964" lon="10.118490336467387"><ele>418.0</ele><time>2026-03-28T10:47:42.999Z</time></trkpt><trkpt lat="44.606916892391624" lon="10.118517944714458"><ele>418.0</ele><time>2026-03-28T10:47:43.999Z</time></trkpt><trkpt lat="44.606847260188864" lon="10.118526673882444"><ele>418.0</ele><time>2026-03-28T10:47:44.999Z</time></trkpt><trkpt lat="44.6067742118108" lon="10.118543120740004"><ele>418.0</ele><time>2026-03-28T10:47:45.999Z</time></trkpt><trkpt lat="44.60670787070138" lon="10.118558317622156"><ele>418.2</ele><time>2026-03-28T10:47:46.999Z</time></trkpt><trkpt lat="44.6066141990537" lon="10.118587719198867"><ele>418.4</ele><time>2026-03-28T10:47:48.999Z</time></trkpt><trkpt lat="44.60656182499544" lon="10.118499492658826"><ele>418.59999999999997</ele><time>2026-03-28T10:47:51.999Z</time></trkpt><trkpt lat="44.606573767405656" lon="10.118396829604507"><ele>418.79999999999995</ele><time>2026-03-28T10:47:52.999Z</time></trkpt><trkpt lat="44.606597050313155" lon="10.11825093120646"><ele>419.0</ele><time>2026-03-28T10:47:53.999Z</time></trkpt><trkpt lat="44.60655177676241" lon="10.118126205298415"><ele>419.0</ele><time>2026-03-28T10:47:54.999Z</time></trkpt><trkpt lat="44.606506707687636" lon="10.117955926628719"><ele>419.0</ele><time>2026-03-28T10:47:55.999Z</time></trkpt><trkpt lat="44.60643501742854" lon="10.117803132278572"><ele>419.0</ele><time>2026-03-28T10:47:56.999Z</time></trkpt><trkpt lat="44.606364529734066" lon="10.11764489734541"><ele>419.0</ele><time>2026-03-28T10:47:57.999Z</time></trkpt><trkpt lat="44.60628988683051" lon="10.117477237853526"><ele>419.0</ele><time>2026-03-28T10:47:58.999Z</time></trkpt><trkpt lat="44.606219150078736" lon="10.1173152116546"><ele>419.0</ele><time>2026-03-28T10:47:59.999Z</time></trkpt><trkpt lat="44.606150755685555" lon="10.117156941599003"><ele>419.0</ele><time>2026-03-28T10:48:00.999Z</time></trkpt><trkpt lat="44.60607959722291" lon="10.116998183780622"><ele>419.0</ele><time>2026-03-28T10:48:01.999Z</time></trkpt><trkpt lat="44.60600302316354" lon="10.116853218884694"><ele>419.0</ele><time>2026-03-28T10:48:02.999Z</time></trkpt><trkpt lat="44.60587367257925" lon="10.116773672283609"><ele>419.0</ele><time>2026-03-28T10:48:03.999Z</time></trkpt><trkpt lat="44.60573992897527" lon="10.116725264535841"><ele>419.0</ele><time>2026-03-28T10:48:04.999Z</time></trkpt><trkpt lat="44.60562175831637" lon="10.116679171777411"><ele>419.0</ele><time>2026-03-28T10:48:05.999Z</time></trkpt><trkpt lat="44.6055434726382" lon="10.116632663930515"><ele>421.16666666666663</ele><time>2026-03-28T10:48:06.999Z</time></trkpt><trkpt lat="44.60550160500549" lon="10.116555531198482"><ele>423.3333333333333</ele><time>2026-03-28T10:48:07.999Z</time></trkpt><trkpt lat="44.605474217355635" lon="10.116474540181663"><ele>425.5</ele><time>2026-03-28T10:48:08.999Z</time></trkpt><trkpt lat="44.605492244247905" lon="10.116355730939901"><ele>427.66666666666663</ele><time>2026-03-28T10:48:09.999Z</time></trkpt><trkpt lat="44.60553190051838" lon="10.116232727112706"><ele>429.8333333333333</ele><time>2026-03-28T10:48:11Z</time></trkpt><trkpt lat="44.605610020588756" lon="10.116153090613064"><ele>432.0</ele><time>2026-03-28T10:48:12Z</time></trkpt><trkpt lat="44.60572409550547" lon="10.116139161429727"><ele>432.0</ele><time>2026-03-28T10:48:13Z</time></trkpt><trkpt lat="44.605840971792176" lon="10.116194617767775"><ele>432.0</ele><time>2026-03-28T10:48:14Z</time></trkpt><trkpt lat="44.605932520013226" lon="10.116294528611139"><ele>432.0</ele><time>2026-03-28T10:48:15Z</time></trkpt><trkpt lat="44.60602623037372" lon="10.116379123527132"><ele>432.0</ele><time>2026-03-28T10:48:16Z</time></trkpt><trkpt lat="44.606111358363016" lon="10.116451211334978"><ele>432.8</ele><time>2026-03-28T10:48:17Z</time></trkpt><trkpt lat="44.60618927190235" lon="10.116505153477993"><ele>433.6</ele><time>2026-03-28T10:48:18Z</time></trkpt><trkpt lat="44.60627121373845" lon="10.116563864511926"><ele>434.40000000000003</ele><time>2026-03-28T10:48:19Z</time></trkpt><trkpt lat="44.60636088192382" lon="10.116637294990914"><ele>435.20000000000005</ele><time>2026-03-28T10:48:20Z</time></trkpt><trkpt lat="44.606449315091965" lon="10.116707636152084"><ele>436.0</ele><time>2026-03-28T10:48:21Z</time></trkpt><trkpt lat="44.6065462684508" lon="10.116781202656847"><ele>434.75</ele><time>2026-03-28T10:48:22Z</time></trkpt><trkpt lat="44.606652699739996" lon="10.116826850902095"><ele>433.5</ele><time>2026-03-28T10:48:23Z</time></trkpt><trkpt lat="44.60677070195681" lon="10.116833127534957"><ele>432.25</ele><time>2026-03-28T10:48:24Z</time></trkpt><trkpt lat="44.6068976061931" lon="10.116797540921898"><ele>431.0</ele><time>2026-03-28T10:48:25Z</time></trkpt><trkpt lat="44.60702109768872" lon="10.116738401114558"><ele>431.0</ele><time>2026-03-28T10:48:26Z</time></trkpt><trkpt lat="44.60714016545463" lon="10.116677013385246"><ele>431.0</ele><time>2026-03-28T10:48:27Z</time></trkpt><trkpt lat="44.60725964395767" lon="10.116616471496927"><ele>431.0</ele><time>2026-03-28T10:48:28Z</time></trkpt><trkpt lat="44.60737365043522" lon="10.116560699273107"><ele>431.0</ele><time>2026-03-28T10:48:29Z</time></trkpt><trkpt lat="44.60748828482451" lon="10.11650528002681"><ele>433.75</ele><time>2026-03-28T10:48:30Z</time></trkpt><trkpt lat="44.60760445287096" lon="10.116452896226455"><ele>436.5</ele><time>2026-03-28T10:48:31Z</time></trkpt><trkpt lat="44.60772194723459" lon="10.116416079982987"><ele>439.25</ele><time>2026-03-28T10:48:32Z</time></trkpt><trkpt lat="44.60784331486034" lon="10.116425127053889"><ele>442.0</ele><time>2026-03-28T10:48:33Z</time></trkpt><trkpt lat="44.60794769074263" lon="10.116501626326876"><ele>441.0</ele><time>2026-03-28T10:48:34Z</time></trkpt><trkpt lat="44.60802164929558" lon="10.1166318896865"><ele>440.00000000000006</ele><time>2026-03-28T10:48:35Z</time></trkpt><trkpt lat="44.60807271373587" lon="10.1167651397975"><ele>439.00000000000006</ele><time>2026-03-28T10:48:36Z</time></trkpt><trkpt lat="44.608121308495406" lon="10.116875605171035"><ele>438.0</ele><time>2026-03-28T10:48:37Z</time></trkpt><trkpt lat="44.60818934551195" lon="10.116971773683414"><ele>437.0</ele><time>2026-03-28T10:48:38Z</time></trkpt><trkpt lat="44.6082777757474" lon="10.117017582519813"><ele>437.0</ele><time>2026-03-28T10:48:39Z</time></trkpt><trkpt lat="44.60837453856891" lon="10.117034282012144"><ele>437.00000000000006</ele><time>2026-03-28T10:48:40Z</time></trkpt><trkpt lat="44.608462070111216" lon="10.11700791970516"><ele>437.00000000000006</ele><time>2026-03-28T10:48:41Z</time></trkpt><trkpt lat="44.608536831018874" lon="10.116948261603978"><ele>437.0</ele><time>2026-03-28T10:48:42Z</time></trkpt><trkpt lat="44.60860219552208" lon="10.11685015004457"><ele>437.0</ele><time>2026-03-28T10:48:43Z</time></trkpt><trkpt lat="44.60864261517355" lon="10.11671186790426"><ele>438.25</ele><time>2026-03-28T10:48:44Z</time></trkpt><trkpt lat="44.608658453807834" lon="10.11652573595584"><ele>439.5</ele><time>2026-03-28T10:48:45Z</time></trkpt><trkpt lat="44.60864272103053" lon="10.116323168603605"><ele>440.75</ele><time>2026-03-28T10:48:46Z</time></trkpt><trkpt lat="44.60860995374541" lon="10.116101286128176"><ele>442.0</ele><time>2026-03-28T10:48:47Z</time></trkpt><trkpt lat="44.60856901351429" lon="10.115855650694057"><ele>444.0</ele><time>2026-03-28T10:48:48Z</time></trkpt><trkpt lat="44.60853326943822" lon="10.115643922392387"><ele>446.0</ele><time>2026-03-28T10:48:49Z</time></trkpt><trkpt lat="44.60849676564026" lon="10.115427694193876"><ele>448.0</ele><time>2026-03-28T10:48:50Z</time></trkpt><trkpt lat="44.60844626983025" lon="10.115231187682037"><ele>448.0</ele><time>2026-03-28T10:48:51Z</time></trkpt><trkpt lat="44.60841391864564" lon="10.11503877066704"><ele>448.0</ele><time>2026-03-28T10:48:52Z</time></trkpt><trkpt lat="44.608415871716126" lon="10.114863071200881"><ele>448.0</ele><time>2026-03-28T10:48:53Z</time></trkpt><trkpt lat="44.60842678575318" lon="10.114708800690666"><ele>448.0</ele><time>2026-03-28T10:48:54Z</time></trkpt><trkpt lat="44.60847164404161" lon="10.114547651483594"><ele>449.6666666666667</ele><time>2026-03-28T10:48:55Z</time></trkpt><trkpt lat="44.60854394376298" lon="10.114367995985088"><ele>451.33333333333337</ele><time>2026-03-28T10:48:56Z</time></trkpt><trkpt lat="44.608676573663985" lon="10.114264110926"><ele>453.0</ele><time>2026-03-28T10:48:57Z</time></trkpt><trkpt lat="44.60882489006584" lon="10.114220909911529"><ele>453.0</ele><time>2026-03-28T10:48:58Z</time></trkpt><trkpt lat="44.60897409803904" lon="10.114275726100043"><ele>453.0</ele><time>2026-03-28T10:48:59Z</time></trkpt><trkpt lat="44.60909815793623" lon="10.114392248559088"><ele>453.0</ele><time>2026-03-28T10:49:00Z</time></trkpt><trkpt lat="44.60923104668799" lon="10.114528639878298"><ele>453.0</ele><time>2026-03-28T10:49:01Z</time></trkpt><trkpt lat="44.60935692940474" lon="10.11467640458482"><ele>453.0</ele><time>2026-03-28T10:49:02Z</time></trkpt><trkpt lat="44.60949793725556" lon="10.114804704654933"><ele>453.0</ele><time>2026-03-28T10:49:03Z</time></trkpt><trkpt lat="44.6096287351051" lon="10.11489031617018"><ele>454.25</ele><time>2026-03-28T10:49:04Z</time></trkpt><trkpt lat="44.60977846519455" lon="10.11494532312048"><ele>455.5</ele><time>2026-03-28T10:49:05Z</time></trkpt><trkpt lat="44.60991788850501" lon="10.114927801931252"><ele>456.75</ele><time>2026-03-28T10:49:06Z</time></trkpt><trkpt lat="44.610045059748934" lon="10.11484436205958"><ele>458.0</ele><time>2026-03-28T10:49:07Z</time></trkpt><trkpt lat="44.610185381313585" lon="10.114696353330917"><ele>456.66666666666663</ele><time>2026-03-28T10:49:08Z</time></trkpt><trkpt lat="44.610330045093086" lon="10.11457482551606"><ele>455.33333333333337</ele><time>2026-03-28T10:49:09Z</time></trkpt><trkpt lat="44.610484537335054" lon="10.114507597454452"><ele>454.0</ele><time>2026-03-28T10:49:10Z</time></trkpt><trkpt lat="44.610645974608474" lon="10.114521920866965"><ele>454.0</ele><time>2026-03-28T10:49:11Z</time></trkpt><trkpt lat="44.610798399353804" lon="10.114632280035686"><ele>454.0</ele><time>2026-03-28T10:49:12Z</time></trkpt><trkpt lat="44.61094301412468" lon="10.114759990580756"><ele>454.0</ele><time>2026-03-28T10:49:13Z</time></trkpt><trkpt lat="44.61107321027082" lon="10.114826719691523"><ele>452.75</ele><time>2026-03-28T10:49:14Z</time></trkpt><trkpt lat="44.611186637877516" lon="10.114791436018681"><ele>451.5</ele><time>2026-03-28T10:49:15Z</time></trkpt><trkpt lat="44.61128746215038" lon="10.114715319782825"><ele>450.25</ele><time>2026-03-28T10:49:16Z</time></trkpt><trkpt lat="44.611378651676716" lon="10.114568527709439"><ele>449.0</ele><time>2026-03-28T10:49:17Z</time></trkpt><trkpt lat="44.61146369867074" lon="10.114357314634157"><ele>449.0</ele><time>2026-03-28T10:49:18Z</time></trkpt><trkpt lat="44.61156896246028" lon="10.114164515502747"><ele>449.0</ele><time>2026-03-28T10:49:19Z</time></trkpt><trkpt lat="44.61165319745414" lon="10.113995928714408"><ele>449.0</ele><time>2026-03-28T10:49:20Z</time></trkpt><trkpt lat="44.61174575657087" lon="10.113841828018614"><ele>451.0</ele><time>2026-03-28T10:49:21Z</time></trkpt><trkpt lat="44.611899183090514" lon="10.11371559335791"><ele>453.0</ele><time>2026-03-28T10:49:22Z</time></trkpt><trkpt lat="44.61206759834737" lon="10.113648750425623"><ele>455.0</ele><time>2026-03-28T10:49:23Z</time></trkpt><trkpt lat="44.61224048455055" lon="10.113577794433418"><ele>455.0</ele><time>2026-03-28T10:49:24Z</time></trkpt><trkpt lat="44.612409167394404" lon="10.113518836676183"><ele>455.0</ele><time>2026-03-28T10:49:25Z</time></trkpt><trkpt lat="44.61258068067857" lon="10.113460017470022"><ele>455.0</ele><time>2026-03-28T10:49:26Z</time></trkpt><trkpt lat="44.6127636311246" lon="10.113455504157347"><ele>455.0</ele><time>2026-03-28T10:49:27Z</time></trkpt><trkpt lat="44.612932296673364" lon="10.113494082071641"><ele>455.0</ele><time>2026-03-28T10:49:28Z</time></trkpt><trkpt lat="44.61308573266308" lon="10.11349924898222"><ele>455.0</ele><time>2026-03-28T10:49:29Z</time></trkpt><trkpt lat="44.61322045876669" lon="10.113492440863775"><ele>455.0</ele><time>2026-03-28T10:49:29.999Z</time></trkpt><trkpt lat="44.61334463885066" lon="10.113520841995701"><ele>455.0</ele><time>2026-03-28T10:49:30.999Z</time></trkpt><trkpt lat="44.613454866412994" lon="10.113581331939182"><ele>455.0</ele><time>2026-03-28T10:49:31.999Z</time></trkpt><trkpt lat="44.613538313604096" lon="10.11369644662872"><ele>455.0</ele><time>2026-03-28T10:49:32.999Z</time></trkpt><trkpt lat="44.61356388548219" lon="10.113851391889288"><ele>455.0</ele><time>2026-03-28T10:49:33.999Z</time></trkpt><trkpt lat="44.61354572739918" lon="10.114032529086884"><ele>455.0</ele><time>2026-03-28T10:49:34.999Z</time></trkpt><trkpt lat="44.61348791772992" lon="10.11423993017479"><ele>455.0</ele><time>2026-03-28T10:49:35.999Z</time></trkpt><trkpt lat="44.61344539753041" lon="10.114482556671705"><ele>452.66666666666663</ele><time>2026-03-28T10:49:36.999Z</time></trkpt><trkpt lat="44.61341935953678" lon="10.11472675378714"><ele>450.33333333333337</ele><time>2026-03-28T10:49:37.999Z</time></trkpt><trkpt lat="44.613387031358656" lon="10.114972244396444"><ele>448.0</ele><time>2026-03-28T10:49:38.999Z</time></trkpt><trkpt lat="44.61335903364572" lon="10.115206360327518"><ele>448.0</ele><time>2026-03-28T10:49:39.999Z</time></trkpt><trkpt lat="44.613326649114164" lon="10.11542513103698"><ele>448.0</ele><time>2026-03-28T10:49:40.999Z</time></trkpt><trkpt lat="44.61329844750063" lon="10.1156484045377"><ele>448.0</ele><time>2026-03-28T10:49:41.999Z</time></trkpt><trkpt lat="44.61326722465022" lon="10.115868421980995"><ele>447.0</ele><time>2026-03-28T10:49:42.999Z</time></trkpt><trkpt lat="44.613230703094914" lon="10.11609111844996"><ele>446.0</ele><time>2026-03-28T10:49:43.999Z</time></trkpt><trkpt lat="44.61319346382438" lon="10.116305619694037"><ele>445.0</ele><time>2026-03-28T10:49:44.999Z</time></trkpt><trkpt lat="44.61316767042734" lon="10.116511268657575"><ele>444.75</ele><time>2026-03-28T10:49:45.999Z</time></trkpt><trkpt lat="44.61314613179565" lon="10.116702673303758"><ele>444.5</ele><time>2026-03-28T10:49:46.999Z</time></trkpt><trkpt lat="44.613143205769376" lon="10.116885075379052"><ele>444.25</ele><time>2026-03-28T10:49:47.999Z</time></trkpt><trkpt lat="44.613189541566065" lon="10.117078262830164"><ele>444.0</ele><time>2026-03-28T10:49:48.999Z</time></trkpt><trkpt lat="44.61328570208038" lon="10.117227539251822"><ele>444.0</ele><time>2026-03-28T10:49:49.999Z</time></trkpt><trkpt lat="44.61342119046248" lon="10.11735676503654"><ele>444.0</ele><time>2026-03-28T10:49:50.999Z</time></trkpt><trkpt lat="44.61356905282893" lon="10.117467055587602"><ele>444.0</ele><time>2026-03-28T10:49:51.999Z</time></trkpt><trkpt lat="44.61370780128551" lon="10.117595459136595"><ele>443.75</ele><time>2026-03-28T10:49:52.999Z</time></trkpt><trkpt lat="44.61379456464322" lon="10.1177631551101"><ele>443.5</ele><time>2026-03-28T10:49:53.999Z</time></trkpt><trkpt lat="44.613837020035334" lon="10.117952976092084"><ele>443.25</ele><time>2026-03-28T10:49:54.999Z</time></trkpt><trkpt lat="44.61386977403787" lon="10.11811516310907"><ele>443.0</ele><time>2026-03-28T10:49:55.999Z</time></trkpt><trkpt lat="44.61388896061985" lon="10.11829115678088"><ele>446.66666666666663</ele><time>2026-03-28T10:49:56.999Z</time></trkpt><trkpt lat="44.61397491192131" lon="10.118549532931793"><ele>450.33333333333337</ele><time>2026-03-28T10:49:57.999Z</time></trkpt><trkpt lat="44.61410625496712" lon="10.11863230327995"><ele>454.0</ele><time>2026-03-28T10:49:58.999Z</time></trkpt><trkpt lat="44.61423966075673" lon="10.118681620131499"><ele>454.0</ele><time>2026-03-28T10:49:59.999Z</time></trkpt><trkpt lat="44.6144077182823" lon="10.118724462058113"><ele>454.0</ele><time>2026-03-28T10:50:00.999Z</time></trkpt><trkpt lat="44.61453939345938" lon="10.118814554127356"><ele>454.0</ele><time>2026-03-28T10:50:01.999Z</time></trkpt><trkpt lat="44.61466373606981" lon="10.118954071167044"><ele>454.6666666666667</ele><time>2026-03-28T10:50:02.999Z</time></trkpt><trkpt lat="44.61476886557546" lon="10.11917302241837"><ele>455.33333333333337</ele><time>2026-03-28T10:50:03.999Z</time></trkpt><trkpt lat="44.614869522298214" lon="10.119402655133054"><ele>456.0</ele><time>2026-03-28T10:50:04.999Z</time></trkpt><trkpt lat="44.61496512806585" lon="10.119618692648165"><ele>456.0</ele><time>2026-03-28T10:50:05.999Z</time></trkpt><trkpt lat="44.61505606691144" lon="10.119812647319211"><ele>456.0</ele><time>2026-03-28T10:50:06.999Z</time></trkpt><trkpt lat="44.615175529741556" lon="10.119968296119902"><ele>456.0</ele><time>2026-03-28T10:50:07.999Z</time></trkpt><trkpt lat="44.61532224760982" lon="10.120003071603701"><ele>456.33333333333337</ele><time>2026-03-28T10:50:08.999Z</time></trkpt><trkpt lat="44.61546367369853" lon="10.119995849582631"><ele>456.6666666666667</ele><time>2026-03-28T10:50:09.999Z</time></trkpt><trkpt lat="44.61561976096469" lon="10.119933224568577"><ele>457.0</ele><time>2026-03-28T10:50:10.999Z</time></trkpt><trkpt lat="44.61577192186753" lon="10.119898892504091"><ele>457.0</ele><time>2026-03-28T10:50:11.999Z</time></trkpt><trkpt lat="44.615925676935646" lon="10.119911219914513"><ele>457.0</ele><time>2026-03-28T10:50:12.999Z</time></trkpt><trkpt lat="44.61606598478543" lon="10.120014572477322"><ele>457.0</ele><time>2026-03-28T10:50:13.999Z</time></trkpt><trkpt lat="44.61619724855602" lon="10.1201642272283"><ele>454.0</ele><time>2026-03-28T10:50:14.999Z</time></trkpt><trkpt lat="44.616334093857404" lon="10.12031881193352"><ele>451.0</ele><time>2026-03-28T10:50:15.999Z</time></trkpt><trkpt lat="44.61646326740659" lon="10.12046363304639"><ele>448.0</ele><time>2026-03-28T10:50:17Z</time></trkpt><trkpt lat="44.61658115977285" lon="10.120614042391571"><ele>448.25</ele><time>2026-03-28T10:50:18Z</time></trkpt><trkpt lat="44.61669869993541" lon="10.12073801270347"><ele>448.5</ele><time>2026-03-28T10:50:19Z</time></trkpt><trkpt lat="44.61681631716559" lon="10.12082040137599"><ele>448.75</ele><time>2026-03-28T10:50:20Z</time></trkpt><trkpt lat="44.61696006293672" lon="10.120854115161546"><ele>449.0</ele><time>2026-03-28T10:50:21Z</time></trkpt><trkpt lat="44.6171132103537" lon="10.120815415482808"><ele>446.66666666666663</ele><time>2026-03-28T10:50:22Z</time></trkpt><trkpt lat="44.617252167532826" lon="10.12070915248218"><ele>444.33333333333337</ele><time>2026-03-28T10:50:23Z</time></trkpt><trkpt lat="44.617383777324015" lon="10.120530994296415"><ele>442.0</ele><time>2026-03-28T10:50:24Z</time></trkpt><trkpt lat="44.61751466442632" lon="10.120348235664148"><ele>442.0</ele><time>2026-03-28T10:50:25Z</time></trkpt><trkpt lat="44.61764775355214" lon="10.120193911116411"><ele>442.0</ele><time>2026-03-28T10:50:26Z</time></trkpt><trkpt lat="44.61777896045796" lon="10.120050791755233"><ele>442.0</ele><time>2026-03-28T10:50:27Z</time></trkpt><trkpt lat="44.617904401462155" lon="10.119946739421838"><ele>441.0</ele><time>2026-03-28T10:50:28Z</time></trkpt><trkpt lat="44.618063675770074" lon="10.11986881827254"><ele>440.0</ele><time>2026-03-28T10:50:29Z</time></trkpt><trkpt lat="44.61823143240866" lon="10.119858991110032"><ele>439.0</ele><time>2026-03-28T10:50:30Z</time></trkpt><trkpt lat="44.61840433456427" lon="10.119902207511652"><ele>439.0</ele><time>2026-03-28T10:50:31Z</time></trkpt><trkpt lat="44.61858250174012" lon="10.119977986242532"><ele>439.0</ele><time>2026-03-28T10:50:32Z</time></trkpt><trkpt lat="44.61871258844708" lon="10.120098757053697"><ele>439.0</ele><time>2026-03-28T10:50:33Z</time></trkpt><trkpt lat="44.618833099022005" lon="10.120240627803781"><ele>437.5</ele><time>2026-03-28T10:50:34Z</time></trkpt><trkpt lat="44.61893315902708" lon="10.120366979014928"><ele>436.0</ele><time>2026-03-28T10:50:35Z</time></trkpt><trkpt lat="44.61900602424831" lon="10.120429943850175"><ele>434.5</ele><time>2026-03-28T10:50:36Z</time></trkpt><trkpt lat="44.619153983029065" lon="10.120547295247476"><ele>433.0</ele><time>2026-03-28T10:50:37Z</time></trkpt><trkpt lat="44.61928553288483" lon="10.12060855009363"><ele>433.0</ele><time>2026-03-28T10:50:38Z</time></trkpt><trkpt lat="44.619426190316425" lon="10.120650281982464"><ele>433.0</ele><time>2026-03-28T10:50:39Z</time></trkpt><trkpt lat="44.619558638320385" lon="10.12070797324436"><ele>433.0</ele><time>2026-03-28T10:50:40Z</time></trkpt><trkpt lat="44.61967447180756" lon="10.1207700548785"><ele>433.0</ele><time>2026-03-28T10:50:41Z</time></trkpt><trkpt lat="44.61979232324324" lon="10.12079833495023"><ele>435.0</ele><time>2026-03-28T10:50:42Z</time></trkpt><trkpt lat="44.61990978301799" lon="10.120818634144378"><ele>436.99999999999994</ele><time>2026-03-28T10:50:43Z</time></trkpt><trkpt lat="44.62001732034892" lon="10.120808783918907"><ele>438.99999999999994</ele><time>2026-03-28T10:50:44Z</time></trkpt><trkpt lat="44.62012542764867" lon="10.12081664821743"><ele>441.0</ele><time>2026-03-28T10:50:45Z</time></trkpt><trkpt lat="44.62022729866179" lon="10.120798391493521"><ele>443.0</ele><time>2026-03-28T10:50:46Z</time></trkpt><trkpt lat="44.62034348808799" lon="10.120787497643455"><ele>444.25</ele><time>2026-03-28T10:50:47Z</time></trkpt><trkpt lat="44.62046445986056" lon="10.120778061732095"><ele>445.5</ele><time>2026-03-28T10:50:48Z</time></trkpt><trkpt lat="44.62058132600284" lon="10.120753817142512"><ele>446.75</ele><time>2026-03-28T10:50:49Z</time></trkpt><trkpt lat="44.620695225135" lon="10.12073214633943"><ele>448.0</ele><time>2026-03-28T10:50:50Z</time></trkpt><trkpt lat="44.620801712976295" lon="10.120719611071028"><ele>448.0</ele><time>2026-03-28T10:50:51Z</time></trkpt><trkpt lat="44.62091603965191" lon="10.120734797454551"><ele>447.99999999999994</ele><time>2026-03-28T10:50:52Z</time></trkpt><trkpt lat="44.62102050502001" lon="10.120708958235731"><ele>447.99999999999994</ele><time>2026-03-28T10:50:53Z</time></trkpt><trkpt lat="44.621129374351725" lon="10.120711383062178"><ele>448.0</ele><time>2026-03-28T10:50:54Z</time></trkpt><trkpt lat="44.621231411356476" lon="10.120721602610743"><ele>448.0</ele><time>2026-03-28T10:50:55Z</time></trkpt><trkpt lat="44.62132392886426" lon="10.120760896017075"><ele>448.79999999999995</ele><time>2026-03-28T10:50:56Z</time></trkpt><trkpt lat="44.621399344524384" lon="10.120823432753605"><ele>449.59999999999997</ele><time>2026-03-28T10:50:57Z</time></trkpt><trkpt lat="44.621448963830275" lon="10.120884024850984"><ele>450.40000000000003</ele><time>2026-03-28T10:50:58Z</time></trkpt><trkpt lat="44.62156230744052" lon="10.120934908889575"><ele>451.20000000000005</ele><time>2026-03-28T10:51:00Z</time></trkpt><trkpt lat="44.6216914131704" lon="10.120966374750244"><ele>452.0</ele><time>2026-03-28T10:51:02Z</time></trkpt><trkpt lat="44.6218059500044" lon="10.12101026713425"><ele>451.99999999999994</ele><time>2026-03-28T10:51:04Z</time></trkpt><trkpt lat="44.621867608666456" lon="10.121030556435166"><ele>452.0</ele><time>2026-03-28T10:51:05Z</time></trkpt><trkpt lat="44.62193884628493" lon="10.121082710466313"><ele>452.0</ele><time>2026-03-28T10:51:06Z</time></trkpt><trkpt lat="44.62205957208537" lon="10.121118510635082"><ele>452.0</ele><time>2026-03-28T10:51:08Z</time></trkpt><trkpt lat="44.6221259695629" lon="10.121113852543278"><ele>451.99999999999994</ele><time>2026-03-28T10:51:09Z</time></trkpt><trkpt lat="44.62219373034232" lon="10.121127351151564"><ele>452.0</ele><time>2026-03-28T10:51:10Z</time></trkpt><trkpt lat="44.62231304909408" lon="10.121117520118684"><ele>451.8571428571429</ele><time>2026-03-28T10:51:12Z</time></trkpt><trkpt lat="44.62237964155205" lon="10.12113888680563"><ele>451.71428571428567</ele><time>2026-03-28T10:51:13Z</time></trkpt><trkpt lat="44.62244964832225" lon="10.121180068327968"><ele>451.57142857142856</ele><time>2026-03-28T10:51:14Z</time></trkpt><trkpt lat="44.62251389938883" lon="10.121201009609505"><ele>451.42857142857144</ele><time>2026-03-28T10:51:15Z</time></trkpt><trkpt lat="44.62258482506723" lon="10.121207526194013"><ele>451.28571428571433</ele><time>2026-03-28T10:51:16Z</time></trkpt><trkpt lat="44.62264952109019" lon="10.121223210810621"><ele>451.1428571428571</ele><time>2026-03-28T10:51:17Z</time></trkpt><trkpt lat="44.62273300175909" lon="10.121276676775091"><ele>451.0</ele><time>2026-03-28T10:51:18Z</time></trkpt><trkpt lat="44.622826909975046" lon="10.121360985382735"><ele>451.25</ele><time>2026-03-28T10:51:19Z</time></trkpt><trkpt lat="44.62292856074041" lon="10.121439998276017"><ele>451.5</ele><time>2026-03-28T10:51:20Z</time></trkpt><trkpt lat="44.62303048714481" lon="10.121523008849085"><ele>451.75</ele><time>2026-03-28T10:51:21Z</time></trkpt><trkpt lat="44.62313378931654" lon="10.121599752487214"><ele>452.0</ele><time>2026-03-28T10:51:22Z</time></trkpt><trkpt lat="44.62323831838368" lon="10.121695458514697"><ele>452.0</ele><time>2026-03-28T10:51:23Z</time></trkpt><trkpt lat="44.62334506773287" lon="10.121786429071696"><ele>452.0</ele><time>2026-03-28T10:51:24Z</time></trkpt><trkpt lat="44.623446030211014" lon="10.12186281672203"><ele>452.0</ele><time>2026-03-28T10:51:25Z</time></trkpt><trkpt lat="44.623553443712034" lon="10.12195298508255"><ele>452.0</ele><time>2026-03-28T10:51:26Z</time></trkpt><trkpt lat="44.62368552281145" lon="10.122044301090378"><ele>451.20000000000005</ele><time>2026-03-28T10:51:27Z</time></trkpt><trkpt lat="44.6237616839146" lon="10.122134019613288"><ele>450.40000000000003</ele><time>2026-03-28T10:51:28Z</time></trkpt><trkpt lat="44.62384081451166" lon="10.122233384604652"><ele>449.59999999999997</ele><time>2026-03-28T10:51:29Z</time></trkpt><trkpt lat="44.62392093760146" lon="10.122326513413913"><ele>448.79999999999995</ele><time>2026-03-28T10:51:30Z</time></trkpt><trkpt lat="44.624003041539204" lon="10.122418118897096"><ele>448.0</ele><time>2026-03-28T10:51:31Z</time></trkpt><trkpt lat="44.62408278550063" lon="10.122514079431346"><ele>448.0</ele><time>2026-03-28T10:51:31.999Z</time></trkpt><trkpt lat="44.62415239515547" lon="10.122619126068706"><ele>447.99999999999994</ele><time>2026-03-28T10:51:32.999Z</time></trkpt><trkpt lat="44.62418968340875" lon="10.12275655062997"><ele>447.99999999999994</ele><time>2026-03-28T10:51:33.999Z</time></trkpt><trkpt lat="44.62422221316756" lon="10.122908038234144"><ele>448.0</ele><time>2026-03-28T10:51:34.999Z</time></trkpt><trkpt lat="44.624220944739506" lon="10.123038778973072"><ele>448.0</ele><time>2026-03-28T10:51:35.999Z</time></trkpt><trkpt lat="44.62419610783115" lon="10.123164306924265"><ele>448.79999999999995</ele><time>2026-03-28T10:51:36.999Z</time></trkpt><trkpt lat="44.6241566964526" lon="10.123321072516584"><ele>449.59999999999997</ele><time>2026-03-28T10:51:37.999Z</time></trkpt><trkpt lat="44.62411607483111" lon="10.12343530669126"><ele>450.40000000000003</ele><time>2026-03-28T10:51:38.999Z</time></trkpt><trkpt lat="44.624084386839684" lon="10.123567405005485"><ele>451.20000000000005</ele><time>2026-03-28T10:51:39.999Z</time></trkpt><trkpt lat="44.62405148666405" lon="10.123693824523375"><ele>452.0</ele><time>2026-03-28T10:51:40.999Z</time></trkpt><trkpt lat="44.62401722868761" lon="10.123822812402999"><ele>452.0</ele><time>2026-03-28T10:51:41.999Z</time></trkpt><trkpt lat="44.62397179229826" lon="10.123941708845509"><ele>452.00000000000006</ele><time>2026-03-28T10:51:42.999Z</time></trkpt><trkpt lat="44.62393099416327" lon="10.124070667867333"><ele>452.00000000000006</ele><time>2026-03-28T10:51:43.999Z</time></trkpt><trkpt lat="44.62388763661324" lon="10.124219738088852"><ele>452.0</ele><time>2026-03-28T10:51:44.999Z</time></trkpt><trkpt lat="44.62385505619766" lon="10.124374350209406"><ele>452.0</ele><time>2026-03-28T10:51:45.999Z</time></trkpt><trkpt lat="44.62385575028214" lon="10.124546837254766"><ele>452.75</ele><time>2026-03-28T10:51:46.999Z</time></trkpt><trkpt lat="44.62389698840386" lon="10.124725755282642"><ele>453.5</ele><time>2026-03-28T10:51:47.999Z</time></trkpt><trkpt lat="44.62395798672685" lon="10.124913475495498"><ele>454.25</ele><time>2026-03-28T10:51:48.999Z</time></trkpt><trkpt lat="44.62401305698772" lon="10.125093623245904"><ele>455.0</ele><time>2026-03-28T10:51:49.999Z</time></trkpt><trkpt lat="44.62403662451308" lon="10.12527754119226"><ele>456.2</ele><time>2026-03-28T10:51:50.999Z</time></trkpt><trkpt lat="44.6240310350168" lon="10.125440010885551"><ele>457.4</ele><time>2026-03-28T10:51:51.999Z</time></trkpt><trkpt lat="44.624028480398096" lon="10.12556478615064"><ele>458.6</ele><time>2026-03-28T10:51:52.999Z</time></trkpt><trkpt lat="44.624058392604404" lon="10.125689870145314"><ele>459.8</ele><time>2026-03-28T10:51:53.999Z</time></trkpt><trkpt lat="44.6241332772151" lon="10.12580009330824"><ele>461.0</ele><time>2026-03-28T10:51:54.999Z</time></trkpt><trkpt lat="44.62423511684801" lon="10.125903499778456"><ele>462.3333333333333</ele><time>2026-03-28T10:51:55.999Z</time></trkpt><trkpt lat="44.62436109283744" lon="10.126014427375054"><ele>463.66666666666663</ele><time>2026-03-28T10:51:56.999Z</time></trkpt><trkpt lat="44.62449512282954" lon="10.126132683183263"><ele>465.0</ele><time>2026-03-28T10:51:57.999Z</time></trkpt><trkpt lat="44.62462658066872" lon="10.126242795283085"><ele>465.0</ele><time>2026-03-28T10:51:58.999Z</time></trkpt><trkpt lat="44.624751772311754" lon="10.126316545730681"><ele>465.0</ele><time>2026-03-28T10:51:59.999Z</time></trkpt><trkpt lat="44.62489969760508" lon="10.126366099579702"><ele>465.0</ele><time>2026-03-28T10:52:00.999Z</time></trkpt><trkpt lat="44.62505208718953" lon="10.126401250994764"><ele>465.0</ele><time>2026-03-28T10:52:01.999Z</time></trkpt><trkpt lat="44.6252003395216" lon="10.126424858238586"><ele>465.0</ele><time>2026-03-28T10:52:02.999Z</time></trkpt><trkpt lat="44.62533489675438" lon="10.126436533793504"><ele>465.0</ele><time>2026-03-28T10:52:03.999Z</time></trkpt><trkpt lat="44.6254565056749" lon="10.126451800569692"><ele>465.0</ele><time>2026-03-28T10:52:04.999Z</time></trkpt><trkpt lat="44.625577801730195" lon="10.126489182878883"><ele>465.0</ele><time>2026-03-28T10:52:05.999Z</time></trkpt><trkpt lat="44.62570673978328" lon="10.126557624197108"><ele>466.5</ele><time>2026-03-28T10:52:06.999Z</time></trkpt><trkpt lat="44.625827311123885" lon="10.126618757711324"><ele>468.0</ele><time>2026-03-28T10:52:07.999Z</time></trkpt><trkpt lat="44.625954485310494" lon="10.126717247108624"><ele>469.5</ele><time>2026-03-28T10:52:08.999Z</time></trkpt><trkpt lat="44.626072219035784" lon="10.126814808685683"><ele>471.0</ele><time>2026-03-28T10:52:09.999Z</time></trkpt><trkpt lat="44.62617840717558" lon="10.12690422126308"><ele>471.0</ele><time>2026-03-28T10:52:10.999Z</time></trkpt><trkpt lat="44.626289569679265" lon="10.12698444522196"><ele>471.0</ele><time>2026-03-28T10:52:11.999Z</time></trkpt><trkpt lat="44.626375764267976" lon="10.127044553859742"><ele>471.0</ele><time>2026-03-28T10:52:12.999Z</time></trkpt><trkpt lat="44.62645144174726" lon="10.127125741939635"><ele>471.0</ele><time>2026-03-28T10:52:13.999Z</time></trkpt><trkpt lat="44.626520182187974" lon="10.127239520228127"><ele>471.0</ele><time>2026-03-28T10:52:14.999Z</time></trkpt><trkpt lat="44.62655042168932" lon="10.12737244496086"><ele>472.25</ele><time>2026-03-28T10:52:15.999Z</time></trkpt><trkpt lat="44.62653941887609" lon="10.127514076377777"><ele>473.5</ele><time>2026-03-28T10:52:16.999Z</time></trkpt><trkpt lat="44.62647007118544" lon="10.12767066709896"><ele>474.75</ele><time>2026-03-28T10:52:17.999Z</time></trkpt><trkpt lat="44.62638406339506" lon="10.127852677900467"><ele>476.0</ele><time>2026-03-28T10:52:18.999Z</time></trkpt><trkpt lat="44.626310874817186" lon="10.128070340629627"><ele>476.0</ele><time>2026-03-28T10:52:19.999Z</time></trkpt><trkpt lat="44.626250172738814" lon="10.128309114034863"><ele>476.0</ele><time>2026-03-28T10:52:20.999Z</time></trkpt><trkpt lat="44.62620566756882" lon="10.128554230031943"><ele>476.0</ele><time>2026-03-28T10:52:21.999Z</time></trkpt><trkpt lat="44.626179244927485" lon="10.12878627321898"><ele>476.0</ele><time>2026-03-28T10:52:23Z</time></trkpt><trkpt lat="44.626157262780424" lon="10.128971979285948"><ele>476.0</ele><time>2026-03-28T10:52:24Z</time></trkpt><trkpt lat="44.62609362007604" lon="10.129126935868994"><ele>476.0</ele><time>2026-03-28T10:52:25Z</time></trkpt><trkpt lat="44.62599171246619" lon="10.129240248337423"><ele>476.0</ele><time>2026-03-28T10:52:26Z</time></trkpt><trkpt lat="44.62586554910492" lon="10.129360875732054"><ele>480.75</ele><time>2026-03-28T10:52:27Z</time></trkpt><trkpt lat="44.625758048007654" lon="10.12948835828291"><ele>485.5</ele><time>2026-03-28T10:52:28Z</time></trkpt><trkpt lat="44.62567904686829" lon="10.12960823247481"><ele>490.25</ele><time>2026-03-28T10:52:29Z</time></trkpt><trkpt lat="44.62563917467378" lon="10.129757809610044"><ele>495.0</ele><time>2026-03-28T10:52:30Z</time></trkpt><trkpt lat="44.62565722692422" lon="10.129966716408868"><ele>495.66666666666663</ele><time>2026-03-28T10:52:31Z</time></trkpt><trkpt lat="44.625643138858756" lon="10.130209597967974"><ele>496.3333333333333</ele><time>2026-03-28T10:52:32Z</time></trkpt><trkpt lat="44.62561439214498" lon="10.130445366674168"><ele>497.0</ele><time>2026-03-28T10:52:33Z</time></trkpt><trkpt lat="44.62556259731189" lon="10.13064539705342"><ele>497.75</ele><time>2026-03-28T10:52:34Z</time></trkpt><trkpt lat="44.625549252808966" lon="10.130802274960912"><ele>498.5</ele><time>2026-03-28T10:52:35Z</time></trkpt><trkpt lat="44.62560854389581" lon="10.13092229889525"><ele>499.25</ele><time>2026-03-28T10:52:36Z</time></trkpt><trkpt lat="44.62566943421867" lon="10.13112031985141"><ele>500.0</ele><time>2026-03-28T10:52:37Z</time></trkpt><trkpt lat="44.625750895668794" lon="10.131332156116974"><ele>500.0</ele><time>2026-03-28T10:52:38Z</time></trkpt><trkpt lat="44.62581703045081" lon="10.131506234261035"><ele>500.0</ele><time>2026-03-28T10:52:39Z</time></trkpt><trkpt lat="44.625879574054984" lon="10.131602989418372"><ele>500.0</ele><time>2026-03-28T10:52:40Z</time></trkpt><trkpt lat="44.625933288995455" lon="10.131710991856801"><ele>500.0</ele><time>2026-03-28T10:52:41Z</time></trkpt><trkpt lat="44.62596858275021" lon="10.13180174704539"><ele>500.0</ele><time>2026-03-28T10:52:44Z</time></trkpt><trkpt lat="44.62602263116187" lon="10.131929770108611"><ele>499.6</ele><time>2026-03-28T10:52:47Z</time></trkpt><trkpt lat="44.62606551532994" lon="10.13202491470711"><ele>499.2</ele><time>2026-03-28T10:52:49Z</time></trkpt><trkpt lat="44.62612213757392" lon="10.132160161644915"><ele>498.79999999999995</ele><time>2026-03-28T10:52:53Z</time></trkpt><trkpt lat="44.62617171334339" lon="10.132275328601333"><ele>498.4</ele><time>2026-03-28T10:52:54Z</time></trkpt><trkpt lat="44.62622511520682" lon="10.132420168676264"><ele>498.0</ele><time>2026-03-28T10:52:55Z</time></trkpt><trkpt lat="44.626285949664585" lon="10.132594048871251"><ele>499.66666666666663</ele><time>2026-03-28T10:52:56Z</time></trkpt><trkpt lat="44.62634981985032" lon="10.132776917796996"><ele>501.3333333333333</ele><time>2026-03-28T10:52:57Z</time></trkpt><trkpt lat="44.62641700035327" lon="10.132966887760615"><ele>503.0</ele><time>2026-03-28T10:52:58Z</time></trkpt><trkpt lat="44.62647789596048" lon="10.133183307615095"><ele>505.0</ele><time>2026-03-28T10:52:59Z</time></trkpt><trkpt lat="44.62654044524274" lon="10.1333400113633"><ele>507.0</ele><time>2026-03-28T10:53:00Z</time></trkpt><trkpt lat="44.62660088255349" lon="10.133512199074024"><ele>509.0</ele><time>2026-03-28T10:53:01Z</time></trkpt><trkpt lat="44.626655337630076" lon="10.133678345308791"><ele>511.0</ele><time>2026-03-28T10:53:02Z</time></trkpt><trkpt lat="44.62670656033161" lon="10.13383937617991"><ele>511.0</ele><time>2026-03-28T10:53:03Z</time></trkpt><trkpt lat="44.62674290135267" lon="10.13397317140923"><ele>511.0</ele><time>2026-03-28T10:53:04Z</time></trkpt><trkpt lat="44.626741441053994" lon="10.134089627900233"><ele>511.0</ele><time>2026-03-28T10:53:05Z</time></trkpt><trkpt lat="44.62669876149836" lon="10.134208560769924"><ele>511.0</ele><time>2026-03-28T10:53:06Z</time></trkpt><trkpt lat="44.62661592095128" lon="10.134336100743994"><ele>511.0</ele><time>2026-03-28T10:53:07Z</time></trkpt><trkpt lat="44.62652672659243" lon="10.134469273055482"><ele>512.2</ele><time>2026-03-28T10:53:08Z</time></trkpt><trkpt lat="44.62649308987769" lon="10.134589694337091"><ele>513.4000000000001</ele><time>2026-03-28T10:53:09Z</time></trkpt><trkpt lat="44.62648055486257" lon="10.134764573929724"><ele>514.6</ele><time>2026-03-28T10:53:10Z</time></trkpt><trkpt lat="44.626519820927435" lon="10.134889240000284"><ele>515.8000000000001</ele><time>2026-03-28T10:53:11Z</time></trkpt><trkpt lat="44.62659821001561" lon="10.135007478141997"><ele>517.0</ele><time>2026-03-28T10:53:12Z</time></trkpt><trkpt lat="44.62670314694645" lon="10.135097219554824"><ele>518.0</ele><time>2026-03-28T10:53:13Z</time></trkpt><trkpt lat="44.62678166984473" lon="10.135181129981527"><ele>519.0</ele><time>2026-03-28T10:53:14Z</time></trkpt><trkpt lat="44.626848153010584" lon="10.13528005398165"><ele>520.0</ele><time>2026-03-28T10:53:15Z</time></trkpt><trkpt lat="44.62688285697597" lon="10.135413033497294"><ele>521.0</ele><time>2026-03-28T10:53:16Z</time></trkpt><trkpt lat="44.626892091768354" lon="10.135606463974462"><ele>522.0</ele><time>2026-03-28T10:53:17Z</time></trkpt><trkpt lat="44.62690247169239" lon="10.135801133492356"><ele>521.0</ele><time>2026-03-28T10:53:18Z</time></trkpt><trkpt lat="44.62692686130479" lon="10.135956557210637"><ele>520.0</ele><time>2026-03-28T10:53:19Z</time></trkpt><trkpt lat="44.62699024122149" lon="10.136101945255717"><ele>519.0</ele><time>2026-03-28T10:53:20Z</time></trkpt><trkpt lat="44.62709004631024" lon="10.136237076406232"><ele>518.0</ele><time>2026-03-28T10:53:21Z</time></trkpt><trkpt lat="44.62719849584603" lon="10.136368838021669"><ele>518.0</ele><time>2026-03-28T10:53:22Z</time></trkpt><trkpt lat="44.62731102561729" lon="10.136492427721837"><ele>518.0</ele><time>2026-03-28T10:53:23Z</time></trkpt><trkpt lat="44.62742110722443" lon="10.136589801780989"><ele>518.0</ele><time>2026-03-28T10:53:24Z</time></trkpt><trkpt lat="44.62752711270405" lon="10.136663137921555"><ele>518.0</ele><time>2026-03-28T10:53:25Z</time></trkpt><trkpt lat="44.62763730319091" lon="10.136705872442139"><ele>518.6</ele><time>2026-03-28T10:53:26Z</time></trkpt><trkpt lat="44.62773813332865" lon="10.136694593904757"><ele>519.1999999999999</ele><time>2026-03-28T10:53:27Z</time></trkpt><trkpt lat="44.62782996998275" lon="10.136624411129297"><ele>519.8</ele><time>2026-03-28T10:53:28Z</time></trkpt><trkpt lat="44.62792163394871" lon="10.136525295732591"><ele>520.4</ele><time>2026-03-28T10:53:29Z</time></trkpt><trkpt lat="44.62803573823181" lon="10.13644942818341"><ele>521.0</ele><time>2026-03-28T10:53:30Z</time></trkpt><trkpt lat="44.62815468556217" lon="10.136417735612499"><ele>521.0</ele><time>2026-03-28T10:53:30.999Z</time></trkpt><trkpt lat="44.62824928246983" lon="10.136414872914198"><ele>521.0</ele><time>2026-03-28T10:53:31.999Z</time></trkpt><trkpt lat="44.62831318769181" lon="10.136447594074962"><ele>521.0</ele><time>2026-03-28T10:53:32.999Z</time></trkpt><trkpt lat="44.628402710517" lon="10.136573318497497"><ele>521.0</ele><time>2026-03-28T10:53:34.999Z</time></trkpt><trkpt lat="44.628483745320715" lon="10.136675494039237"><ele>521.0</ele><time>2026-03-28T10:53:35.999Z</time></trkpt><trkpt lat="44.62858146358998" lon="10.136785538456621"><ele>523.0</ele><time>2026-03-28T10:53:36.999Z</time></trkpt><trkpt lat="44.62868850149345" lon="10.136894079231912"><ele>525.0</ele><time>2026-03-28T10:53:37.999Z</time></trkpt><trkpt lat="44.628808971595056" lon="10.13699847328602"><ele>527.0</ele><time>2026-03-28T10:53:38.999Z</time></trkpt><trkpt lat="44.62892564922074" lon="10.137085107228705"><ele>529.0</ele><time>2026-03-28T10:53:39.999Z</time></trkpt><trkpt lat="44.62904534591193" lon="10.137162401607753"><ele>529.0</ele><time>2026-03-28T10:53:40.999Z</time></trkpt><trkpt lat="44.62915631146144" lon="10.13726183984802"><ele>529.0</ele><time>2026-03-28T10:53:41.999Z</time></trkpt><trkpt lat="44.62925100001986" lon="10.137364872332443"><ele>529.0</ele><time>2026-03-28T10:53:42.999Z</time></trkpt><trkpt lat="44.62932052851582" lon="10.137473734205964"><ele>529.0</ele><time>2026-03-28T10:53:43.999Z</time></trkpt><trkpt lat="44.62939936314492" lon="10.137607737814525"><ele>531.25</ele><time>2026-03-28T10:53:44.999Z</time></trkpt><trkpt lat="44.62950153926203" lon="10.137741286741946"><ele>533.5</ele><time>2026-03-28T10:53:45.999Z</time></trkpt><trkpt lat="44.62962382469635" lon="10.137862316408315"><ele>535.75</ele><time>2026-03-28T10:53:46.999Z</time></trkpt><trkpt lat="44.6297289305427" lon="10.137976728943084"><ele>538.0</ele><time>2026-03-28T10:53:47.999Z</time></trkpt><trkpt lat="44.629833230050835" lon="10.138087981521192"><ele>538.0</ele><time>2026-03-28T10:53:48.999Z</time></trkpt><trkpt lat="44.62990951409701" lon="10.13816782344494"><ele>538.0</ele><time>2026-03-28T10:53:49.999Z</time></trkpt><trkpt lat="44.62998199060913" lon="10.138246284307659"><ele>538.0</ele><time>2026-03-28T10:53:50.999Z</time></trkpt><trkpt lat="44.630084146424515" lon="10.138269721471449"><ele>538.0</ele><time>2026-03-28T10:53:51.999Z</time></trkpt><trkpt lat="44.63021438916854" lon="10.138259200688928"><ele>538.0</ele><time>2026-03-28T10:53:52.999Z</time></trkpt><trkpt lat="44.630325392012885" lon="10.13824653611246"><ele>541.4</ele><time>2026-03-28T10:53:53.999Z</time></trkpt><trkpt lat="44.63042206762708" lon="10.138259833102007"><ele>544.8</ele><time>2026-03-28T10:53:54.999Z</time></trkpt><trkpt lat="44.63051741978783" lon="10.138276808357402"><ele>548.2</ele><time>2026-03-28T10:53:55.999Z</time></trkpt><trkpt lat="44.630613553415074" lon="10.13833092619643"><ele>551.6</ele><time>2026-03-28T10:53:56.999Z</time></trkpt><trkpt lat="44.63069293267925" lon="10.138466402710536"><ele>555.0</ele><time>2026-03-28T10:53:57.999Z</time></trkpt><trkpt lat="44.63081644324611" lon="10.138554627279406"><ele>555.0</ele><time>2026-03-28T10:53:58.999Z</time></trkpt><trkpt lat="44.6309195390721" lon="10.138641193989253"><ele>555.0</ele><time>2026-03-28T10:53:59.999Z</time></trkpt><trkpt lat="44.63103475132342" lon="10.138635295158444"><ele>555.0</ele><time>2026-03-28T10:54:00.999Z</time></trkpt><trkpt lat="44.63116944966011" lon="10.138583706841347"><ele>555.0</ele><time>2026-03-28T10:54:01.999Z</time></trkpt><trkpt lat="44.631332332118625" lon="10.138486151987111"><ele>554.3333333333334</ele><time>2026-03-28T10:54:02.999Z</time></trkpt><trkpt lat="44.631493993774164" lon="10.138405127914188"><ele>553.6666666666667</ele><time>2026-03-28T10:54:03.999Z</time></trkpt><trkpt lat="44.63164558982609" lon="10.138380114341798"><ele>553.0</ele><time>2026-03-28T10:54:04.999Z</time></trkpt><trkpt lat="44.63177199775" lon="10.138338535419065"><ele>553.0</ele><time>2026-03-28T10:54:05.999Z</time></trkpt><trkpt lat="44.63188494395163" lon="10.138299166412452"><ele>553.0</ele><time>2026-03-28T10:54:06.999Z</time></trkpt><trkpt lat="44.632031373918174" lon="10.138308624897661"><ele>553.0</ele><time>2026-03-28T10:54:08.999Z</time></trkpt><trkpt lat="44.632080718088346" lon="10.138419069135656"><ele>553.0</ele><time>2026-03-28T10:54:10.999Z</time></trkpt><trkpt lat="44.632070860978565" lon="10.138631183783964"><ele>550.25</ele><time>2026-03-28T10:54:12.999Z</time></trkpt><trkpt lat="44.63207585190489" lon="10.138803298869664"><ele>547.5</ele><time>2026-03-28T10:54:13.999Z</time></trkpt><trkpt lat="44.63206593303299" lon="10.138963131863788"><ele>544.75</ele><time>2026-03-28T10:54:14.999Z</time></trkpt><trkpt lat="44.63204125030499" lon="10.139120271844892"><ele>542.0</ele><time>2026-03-28T10:54:15.999Z</time></trkpt><trkpt lat="44.63200283208945" lon="10.13926782518788"><ele>549.0</ele><time>2026-03-28T10:54:16.999Z</time></trkpt><trkpt lat="44.63196464245926" lon="10.13942125045214"><ele>556.0</ele><time>2026-03-28T10:54:17.999Z</time></trkpt><trkpt lat="44.631912298038166" lon="10.139584426559678"><ele>563.0</ele><time>2026-03-28T10:54:18.999Z</time></trkpt><trkpt lat="44.631828137559054" lon="10.139723886188623"><ele>570.0</ele><time>2026-03-28T10:54:19.999Z</time></trkpt><trkpt lat="44.63174559531286" lon="10.139867831053971"><ele>571.0</ele><time>2026-03-28T10:54:20.999Z</time></trkpt><trkpt lat="44.631674405360464" lon="10.140019049700177"><ele>572.0</ele><time>2026-03-28T10:54:21.999Z</time></trkpt><trkpt lat="44.63158943647805" lon="10.140160088259654"><ele>573.0</ele><time>2026-03-28T10:54:22.999Z</time></trkpt><trkpt lat="44.63152996136163" lon="10.140334333237965"><ele>574.0</ele><time>2026-03-28T10:54:23.999Z</time></trkpt><trkpt lat="44.631538741193594" lon="10.140515418354193"><ele>573.0</ele><time>2026-03-28T10:54:24.999Z</time></trkpt><trkpt lat="44.631510398130764" lon="10.140736277230198"><ele>572.0</ele><time>2026-03-28T10:54:25.999Z</time></trkpt><trkpt lat="44.631496927009685" lon="10.140932020466334"><ele>571.0</ele><time>2026-03-28T10:54:26.999Z</time></trkpt><trkpt lat="44.631485437034385" lon="10.141111803702957"><ele>570.0</ele><time>2026-03-28T10:54:27.999Z</time></trkpt><trkpt lat="44.63147293912182" lon="10.141288363608039"><ele>570.0</ele><time>2026-03-28T10:54:29Z</time></trkpt><trkpt lat="44.631442198317764" lon="10.141467858217151"><ele>570.0</ele><time>2026-03-28T10:54:30Z</time></trkpt><trkpt lat="44.63139406303194" lon="10.141643659291104"><ele>570.0</ele><time>2026-03-28T10:54:31Z</time></trkpt><trkpt lat="44.63132735322249" lon="10.141823737900005"><ele>570.0</ele><time>2026-03-28T10:54:32Z</time></trkpt><trkpt lat="44.63125383353841" lon="10.141995584912129"><ele>569.0</ele><time>2026-03-28T10:54:33Z</time></trkpt><trkpt lat="44.63117920894578" lon="10.142157178298708"><ele>568.0</ele><time>2026-03-28T10:54:34Z</time></trkpt><trkpt lat="44.63108290112352" lon="10.14228430152695"><ele>567.0</ele><time>2026-03-28T10:54:35Z</time></trkpt><trkpt lat="44.63100608481134" lon="10.142397354731441"><ele>566.0</ele><time>2026-03-28T10:54:36Z</time></trkpt><trkpt lat="44.630891989455804" lon="10.142559246456182"><ele>574.0</ele><time>2026-03-28T10:54:37Z</time></trkpt><trkpt lat="44.63078211931349" lon="10.142706207075438"><ele>582.0</ele><time>2026-03-28T10:54:38Z</time></trkpt><trkpt lat="44.630679865434864" lon="10.14286313293893"><ele>590.0</ele><time>2026-03-28T10:54:39Z</time></trkpt><trkpt lat="44.63054454695363" lon="10.142977293605798"><ele>590.0</ele><time>2026-03-28T10:54:40Z</time></trkpt><trkpt lat="44.63042815653388" lon="10.14309397026603"><ele>590.0</ele><time>2026-03-28T10:54:41Z</time></trkpt><trkpt lat="44.630350855903295" lon="10.143210685524581"><ele>590.0</ele><time>2026-03-28T10:54:42Z</time></trkpt><trkpt lat="44.6303132251396" lon="10.143322978189515"><ele>590.0</ele><time>2026-03-28T10:54:43Z</time></trkpt><trkpt lat="44.63030603927035" lon="10.14348933282232"><ele>587.75</ele><time>2026-03-28T10:54:44Z</time></trkpt><trkpt lat="44.630327215888414" lon="10.143694221084269"><ele>585.5</ele><time>2026-03-28T10:54:45Z</time></trkpt><trkpt lat="44.63037694719115" lon="10.1438874253595"><ele>583.25</ele><time>2026-03-28T10:54:46Z</time></trkpt><trkpt lat="44.630460146293245" lon="10.14404127848902"><ele>581.0</ele><time>2026-03-28T10:54:47Z</time></trkpt><trkpt lat="44.63054835333083" lon="10.144168820953265"><ele>581.0</ele><time>2026-03-28T10:54:48Z</time></trkpt><trkpt lat="44.63059746808242" lon="10.144300967577305"><ele>581.0</ele><time>2026-03-28T10:54:49Z</time></trkpt><trkpt lat="44.630619787204665" lon="10.14447516191768"><ele>581.0</ele><time>2026-03-28T10:54:50Z</time></trkpt><trkpt lat="44.63064019028186" lon="10.144674639404155"><ele>581.0</ele><time>2026-03-28T10:54:51Z</time></trkpt><trkpt lat="44.630649536593694" lon="10.144844931800213"><ele>583.4</ele><time>2026-03-28T10:54:52Z</time></trkpt><trkpt lat="44.630672505266254" lon="10.14495995334049"><ele>585.8</ele><time>2026-03-28T10:54:53Z</time></trkpt><trkpt lat="44.63069674246973" lon="10.14504703772286"><ele>588.1999999999999</ele><time>2026-03-28T10:54:54Z</time></trkpt><trkpt lat="44.630529051163904" lon="10.145148244791782"><ele>590.6</ele><time>2026-03-28T10:54:55Z</time></trkpt><trkpt lat="44.63045302587126" lon="10.145254564630758"><ele>593.0</ele><time>2026-03-28T10:54:56Z</time></trkpt><trkpt lat="44.630372574887545" lon="10.14534919841968"><ele>595.3333333333333</ele><time>2026-03-28T10:54:57Z</time></trkpt><trkpt lat="44.63028920763274" lon="10.1454349617528"><ele>597.6666666666666</ele><time>2026-03-28T10:54:58Z</time></trkpt><trkpt lat="44.6302248546867" lon="10.145497912222574"><ele>600.0</ele><time>2026-03-28T10:54:59Z</time></trkpt><trkpt lat="44.630168825701205" lon="10.145569377906519"><ele>602.3333333333334</ele><time>2026-03-28T10:55:00Z</time></trkpt><trkpt lat="44.63008837286049" lon="10.145627744358036"><ele>604.6666666666667</ele><time>2026-03-28T10:55:02Z</time></trkpt><trkpt lat="44.62999732556357" lon="10.145684291536107"><ele>607.0</ele><time>2026-03-28T10:55:06Z</time></trkpt><trkpt lat="44.6299340076067" lon="10.145635311036987"><ele>607.0</ele><time>2026-03-28T10:55:07Z</time></trkpt><trkpt lat="44.6298583133165" lon="10.145595146327363"><ele>607.0</ele><time>2026-03-28T10:55:08Z</time></trkpt><trkpt lat="44.62976976666089" lon="10.14554226353674"><ele>607.0</ele><time>2026-03-28T10:55:09Z</time></trkpt><trkpt lat="44.62968286213891" lon="10.145491632370103"><ele>607.0</ele><time>2026-03-28T10:55:10Z</time></trkpt><trkpt lat="44.629607444097644" lon="10.145463717716087"><ele>607.0</ele><time>2026-03-28T10:55:11Z</time></trkpt><trkpt lat="44.62948587078635" lon="10.145523412495395"><ele>607.0</ele><time>2026-03-28T10:55:13Z</time></trkpt><trkpt lat="44.62947144447069" lon="10.145662392069164"><ele>607.0</ele><time>2026-03-28T10:55:14Z</time></trkpt><trkpt lat="44.629460033950195" lon="10.145773507436356"><ele>607.0</ele><time>2026-03-28T10:55:15Z</time></trkpt><trkpt lat="44.62943465050139" lon="10.145917571182554"><ele>607.0</ele><time>2026-03-28T10:55:16Z</time></trkpt><trkpt lat="44.629299918792285" lon="10.145955113208586"><ele>607.0</ele><time>2026-03-28T10:55:18Z</time></trkpt><trkpt lat="44.62921047586191" lon="10.145982565799999"><ele>607.0</ele><time>2026-03-28T10:55:19Z</time></trkpt><trkpt lat="44.629113906201404" lon="10.146001846420804"><ele>607.0</ele><time>2026-03-28T10:55:20Z</time></trkpt><trkpt lat="44.628997574103245" lon="10.146035544968173"><ele>607.0</ele><time>2026-03-28T10:55:21Z</time></trkpt><trkpt lat="44.62891281918339" lon="10.146071800633916"><ele>607.0</ele><time>2026-03-28T10:55:22Z</time></trkpt><trkpt lat="44.62883833084864" lon="10.146135043886654"><ele>607.0</ele><time>2026-03-28T10:55:23Z</time></trkpt><trkpt lat="44.628767637758735" lon="10.146191687430688"><ele>607.0</ele><time>2026-03-28T10:55:24Z</time></trkpt><trkpt lat="44.62870895419947" lon="10.146275740707763"><ele>607.0</ele><time>2026-03-28T10:55:25Z</time></trkpt><trkpt lat="44.62866412676042" lon="10.146403215189517"><ele>607.0</ele><time>2026-03-28T10:55:27Z</time></trkpt><trkpt lat="44.62871173030721" lon="10.14651760114324"><ele>607.0</ele><time>2026-03-28T10:55:28Z</time></trkpt><trkpt lat="44.62875359755777" lon="10.146624762117606"><ele>607.0</ele><time>2026-03-28T10:55:29Z</time></trkpt><trkpt lat="44.628796241042025" lon="10.146738037418594"><ele>603.5</ele><time>2026-03-28T10:55:30Z</time></trkpt><trkpt lat="44.628804682843686" lon="10.146860933726165"><ele>600.0</ele><time>2026-03-28T10:55:31Z</time></trkpt><trkpt lat="44.62883879665629" lon="10.146972785282633"><ele>596.5</ele><time>2026-03-28T10:55:32Z</time></trkpt><trkpt lat="44.628848487566174" lon="10.147098267339207"><ele>593.0</ele><time>2026-03-28T10:55:33Z</time></trkpt><trkpt lat="44.6288586991864" lon="10.14722844542253"><ele>589.5</ele><time>2026-03-28T10:55:34Z</time></trkpt><trkpt lat="44.62887330917229" lon="10.147353272321952"><ele>586.0</ele><time>2026-03-28T10:55:35Z</time></trkpt><trkpt lat="44.628882696102245" lon="10.147484086639686"><ele>584.4</ele><time>2026-03-28T10:55:36Z</time></trkpt><trkpt lat="44.62886813193802" lon="10.147614846803588"><ele>582.8</ele><time>2026-03-28T10:55:37Z</time></trkpt><trkpt lat="44.62879578617632" lon="10.147710152416458"><ele>581.1999999999999</ele><time>2026-03-28T10:55:37.999Z</time></trkpt><trkpt lat="44.62873485147824" lon="10.147816430938608"><ele>579.6</ele><time>2026-03-28T10:55:38.999Z</time></trkpt><trkpt lat="44.62868128007956" lon="10.147920004611414"><ele>578.0</ele><time>2026-03-28T10:55:39.999Z</time></trkpt><trkpt lat="44.62861439818349" lon="10.148022898802427"><ele>577.0</ele><time>2026-03-28T10:55:40.999Z</time></trkpt><trkpt lat="44.62854894573276" lon="10.148117392295742"><ele>576.0</ele><time>2026-03-28T10:55:41.999Z</time></trkpt><trkpt lat="44.62848149493393" lon="10.1482357233573"><ele>575.0</ele><time>2026-03-28T10:55:42.999Z</time></trkpt><trkpt lat="44.62843888832841" lon="10.148338649024307"><ele>574.0</ele><time>2026-03-28T10:55:43.999Z</time></trkpt><trkpt lat="44.62839227593202" lon="10.1484468598902"><ele>573.0</ele><time>2026-03-28T10:55:44.999Z</time></trkpt><trkpt lat="44.62834803773151" lon="10.148545463180044"><ele>569.8</ele><time>2026-03-28T10:55:45.999Z</time></trkpt><trkpt lat="44.628305817185726" lon="10.148650749021547"><ele>566.5999999999999</ele><time>2026-03-28T10:55:46.999Z</time></trkpt><trkpt lat="44.62826675909967" lon="10.148754710803363"><ele>563.4000000000001</ele><time>2026-03-28T10:55:47.999Z</time></trkpt><trkpt lat="44.6282231226444" lon="10.148846581454983"><ele>560.2</ele><time>2026-03-28T10:55:48.999Z</time></trkpt><trkpt lat="44.62814935467112" lon="10.148971220755621"><ele>557.0</ele><time>2026-03-28T10:55:50.999Z</time></trkpt><trkpt lat="44.62808316582882" lon="10.149084763694637"><ele>556.6</ele><time>2026-03-28T10:55:52.999Z</time></trkpt><trkpt lat="44.62801193504713" lon="10.149225320750954"><ele>556.2</ele><time>2026-03-28T10:55:54.999Z</time></trkpt><trkpt lat="44.62795193162744" lon="10.149391238947086"><ele>555.8</ele><time>2026-03-28T10:55:56.999Z</time></trkpt><trkpt lat="44.62792986474566" lon="10.149491101468636"><ele>555.4</ele><time>2026-03-28T10:55:57.999Z</time></trkpt><trkpt lat="44.627923466193586" lon="10.149605211977207"><ele>555.0</ele><time>2026-03-28T10:55:58.999Z</time></trkpt><trkpt lat="44.62792064784981" lon="10.149717854645633"><ele>555.0000000000001</ele><time>2026-03-28T10:55:59.999Z</time></trkpt><trkpt lat="44.627922679298095" lon="10.149818604573047"><ele>555.0</ele><time>2026-03-28T10:56:00.999Z</time></trkpt><trkpt lat="44.62792450254102" lon="10.14992394955861"><ele>555.0</ele><time>2026-03-28T10:56:01.999Z</time></trkpt><trkpt lat="44.62792997754813" lon="10.150028254864734"><ele>555.0</ele><time>2026-03-28T10:56:02.999Z</time></trkpt><trkpt lat="44.62794254091879" lon="10.15012980273249"><ele>555.0</ele><time>2026-03-28T10:56:03.999Z</time></trkpt><trkpt lat="44.62795596518469" lon="10.150232384958219"><ele>555.0000000000001</ele><time>2026-03-28T10:56:04.999Z</time></trkpt><trkpt lat="44.62797377635971" lon="10.150342438105215"><ele>555.0</ele><time>2026-03-28T10:56:05.999Z</time></trkpt><trkpt lat="44.62799093991824" lon="10.150442081631105"><ele>554.7142857142858</ele><time>2026-03-28T10:56:06.999Z</time></trkpt><trkpt lat="44.628005562717945" lon="10.150533993744855"><ele>554.4285714285714</ele><time>2026-03-28T10:56:07.999Z</time></trkpt><trkpt lat="44.62804115880302" lon="10.150627416213997"><ele>554.1428571428571</ele><time>2026-03-28T10:56:08.999Z</time></trkpt><trkpt lat="44.628058896610234" lon="10.150720489248668"><ele>553.8571428571429</ele><time>2026-03-28T10:56:09.999Z</time></trkpt><trkpt lat="44.6280725176714" lon="10.150822956134506"><ele>553.5714285714286</ele><time>2026-03-28T10:56:10.999Z</time></trkpt><trkpt lat="44.628070320561406" lon="10.15093384700178"><ele>553.2857142857143</ele><time>2026-03-28T10:56:11.999Z</time></trkpt><trkpt lat="44.62809794594786" lon="10.151029704087135"><ele>553.0</ele><time>2026-03-28T10:56:12.999Z</time></trkpt><trkpt lat="44.62812354386841" lon="10.15115024297743"><ele>552.3333333333334</ele><time>2026-03-28T10:56:13.999Z</time></trkpt><trkpt lat="44.62814316748597" lon="10.151242649275988"><ele>551.6666666666667</ele><time>2026-03-28T10:56:14.999Z</time></trkpt><trkpt lat="44.628067967103505" lon="10.15138088675583"><ele>551.0</ele><time>2026-03-28T10:56:15.999Z</time></trkpt><trkpt lat="44.628068769113355" lon="10.151511421550016"><ele>550.3333333333334</ele><time>2026-03-28T10:56:17.999Z</time></trkpt><trkpt lat="44.62805595400987" lon="10.151598557809939"><ele>549.6666666666666</ele><time>2026-03-28T10:56:19.999Z</time></trkpt><trkpt lat="44.628050759787804" lon="10.151705178239842"><ele>549.0</ele><time>2026-03-28T10:56:21.999Z</time></trkpt><trkpt lat="44.62805524354012" lon="10.15185905236347"><ele>548.5</ele><time>2026-03-28T10:56:23.999Z</time></trkpt><trkpt lat="44.62806085932646" lon="10.151966329711353"><ele>548.0</ele><time>2026-03-28T10:56:24.999Z</time></trkpt><trkpt lat="44.628046207794625" lon="10.152078757107397"><ele>547.5</ele><time>2026-03-28T10:56:25.999Z</time></trkpt><trkpt lat="44.62801356183339" lon="10.152190410201866"><ele>547.0</ele><time>2026-03-28T10:56:26.999Z</time></trkpt><trkpt lat="44.627980787720766" lon="10.152311342906987"><ele>546.5</ele><time>2026-03-28T10:56:27.999Z</time></trkpt><trkpt lat="44.62794469011032" lon="10.152411975574582"><ele>546.0</ele><time>2026-03-28T10:56:28.999Z</time></trkpt><trkpt lat="44.62790415475788" lon="10.152505955531591"><ele>545.5</ele><time>2026-03-28T10:56:29.999Z</time></trkpt><trkpt lat="44.62787761209191" lon="10.15259589873911"><ele>545.0</ele><time>2026-03-28T10:56:30.999Z</time></trkpt><trkpt lat="44.62784959995334" lon="10.152688392957455"><ele>544.5</ele><time>2026-03-28T10:56:31.999Z</time></trkpt><trkpt lat="44.62782210097754" lon="10.152784406308685"><ele>544.0</ele><time>2026-03-28T10:56:32.999Z</time></trkpt><trkpt lat="44.62780035791234" lon="10.152884050591961"><ele>543.5</ele><time>2026-03-28T10:56:33.999Z</time></trkpt><trkpt lat="44.62776215051302" lon="10.152991640861819"><ele>543.0</ele><time>2026-03-28T10:56:35Z</time></trkpt><trkpt lat="44.627725773445" lon="10.153086172796668"><ele>542.6</ele><time>2026-03-28T10:56:36Z</time></trkpt><trkpt lat="44.62769151825472" lon="10.153187192051801"><ele>542.1999999999999</ele><time>2026-03-28T10:56:37Z</time></trkpt><trkpt lat="44.62763138884907" lon="10.153334584945352"><ele>541.8</ele><time>2026-03-28T10:56:39Z</time></trkpt><trkpt lat="44.627581941456384" lon="10.153479444563068"><ele>541.4</ele><time>2026-03-28T10:56:41Z</time></trkpt><trkpt lat="44.62754197571661" lon="10.153567280647346"><ele>541.0</ele><time>2026-03-28T10:56:43Z</time></trkpt><trkpt lat="44.627502608654055" lon="10.15364282722957"><ele>541.0</ele><time>2026-03-28T10:56:45Z</time></trkpt><trkpt lat="44.627454682385476" lon="10.153734561722422"><ele>541.0</ele><time>2026-03-28T10:56:47Z</time></trkpt><trkpt lat="44.6273798531145" lon="10.153812957902382"><ele>541.0</ele><time>2026-03-28T10:56:49Z</time></trkpt><trkpt lat="44.62730954691323" lon="10.153872581927562"><ele>541.0</ele><time>2026-03-28T10:56:50Z</time></trkpt><trkpt lat="44.62720760590417" lon="10.153953037148916"><ele>541.0</ele><time>2026-03-28T10:56:52Z</time></trkpt><trkpt lat="44.62714498613281" lon="10.153980388284468"><ele>541.0</ele><time>2026-03-28T10:56:55Z</time></trkpt><trkpt lat="44.62704830676853" lon="10.153961635637222"><ele>538.6</ele><time>2026-03-28T10:57:16Z</time></trkpt><trkpt lat="44.62695345047907" lon="10.153980990569542"><ele>536.2</ele><time>2026-03-28T10:57:18Z</time></trkpt><trkpt lat="44.6268546292175" lon="10.154049224847428"><ele>533.8</ele><time>2026-03-28T10:57:20Z</time></trkpt><trkpt lat="44.6267678459321" lon="10.154073639690518"><ele>531.4</ele><time>2026-03-28T10:57:22Z</time></trkpt><trkpt lat="44.62668607764373" lon="10.154071027261255"><ele>529.0</ele><time>2026-03-28T10:57:24Z</time></trkpt><trkpt lat="44.626601244051905" lon="10.154061399869706"><ele>529.0</ele><time>2026-03-28T10:57:26Z</time></trkpt><trkpt lat="44.62652917847932" lon="10.154043637553238"><ele>529.0</ele><time>2026-03-28T10:57:28Z</time></trkpt><trkpt lat="44.626460230949526" lon="10.154040632743094"><ele>529.0</ele><time>2026-03-28T10:57:30Z</time></trkpt><trkpt lat="44.626377498820496" lon="10.154049493338936"><ele>529.0</ele><time>2026-03-28T10:57:32Z</time></trkpt><trkpt lat="44.62629776975635" lon="10.154065752628759"><ele>529.0</ele><time>2026-03-28T10:57:35Z</time></trkpt><trkpt lat="44.626229520985284" lon="10.154076520535979"><ele>529.0</ele><time>2026-03-28T10:57:37Z</time></trkpt><trkpt lat="44.62613621858469" lon="10.154107915496935"><ele>526.25</ele><time>2026-03-28T10:57:39Z</time></trkpt><trkpt lat="44.626021280475044" lon="10.154120239207838"><ele>523.5</ele><time>2026-03-28T10:57:41Z</time></trkpt><trkpt lat="44.62590332421066" lon="10.154136175612658"><ele>520.75</ele><time>2026-03-28T10:57:42.999Z</time></trkpt><trkpt lat="44.625795176082946" lon="10.15417007658281"><ele>518.0</ele><time>2026-03-28T10:57:44.999Z</time></trkpt><trkpt lat="44.62568945479742" lon="10.154217930963583"><ele>518.0</ele><time>2026-03-28T10:57:46.999Z</time></trkpt><trkpt lat="44.62559104071541" lon="10.154243883170981"><ele>518.0</ele><time>2026-03-28T10:57:48.999Z</time></trkpt><trkpt lat="44.625497524890264" lon="10.15423559444185"><ele>518.0</ele><time>2026-03-28T10:57:50.999Z</time></trkpt><trkpt lat="44.62540272567379" lon="10.15421830314223"><ele>518.0</ele><time>2026-03-28T10:57:52.999Z</time></trkpt><trkpt lat="44.62530242964178" lon="10.154165285667348"><ele>518.0</ele><time>2026-03-28T10:57:54.999Z</time></trkpt><trkpt lat="44.62521081311436" lon="10.154123599830474"><ele>516.1666666666666</ele><time>2026-03-28T10:57:56.999Z</time></trkpt><trkpt lat="44.62512830695303" lon="10.154090757352881"><ele>514.3333333333333</ele><time>2026-03-28T10:57:58.999Z</time></trkpt><trkpt lat="44.625050185526696" lon="10.1540438325921"><ele>512.5</ele><time>2026-03-28T10:58:00.999Z</time></trkpt><trkpt lat="44.62498544744184" lon="10.154010009004578"><ele>510.66666666666663</ele><time>2026-03-28T10:58:02.999Z</time></trkpt><trkpt lat="44.62491215142222" lon="10.153974531301005"><ele>508.8333333333333</ele><time>2026-03-28T10:58:04.999Z</time></trkpt><trkpt lat="44.62481908896569" lon="10.153911731952903"><ele>507.0</ele><time>2026-03-28T10:58:06.999Z</time></trkpt><trkpt lat="44.624737391762295" lon="10.153857968764138"><ele>505.6666666666667</ele><time>2026-03-28T10:58:08.999Z</time></trkpt><trkpt lat="44.62466059360917" lon="10.153812183275528"><ele>504.33333333333337</ele><time>2026-03-28T10:58:10.999Z</time></trkpt><trkpt lat="44.62457369215035" lon="10.15374266410603"><ele>503.0</ele><time>2026-03-28T10:58:12.999Z</time></trkpt><trkpt lat="44.62451053838613" lon="10.153683903737338"><ele>501.6666666666667</ele><time>2026-03-28T10:58:14.999Z</time></trkpt><trkpt lat="44.62442993854006" lon="10.153618131766214"><ele>500.33333333333337</ele><time>2026-03-28T10:58:16.999Z</time></trkpt><trkpt lat="44.62437292362819" lon="10.153566129464553"><ele>499.0</ele><time>2026-03-28T10:58:18.999Z</time></trkpt><trkpt lat="44.62431536728609" lon="10.153445611676517"><ele>497.6</ele><time>2026-03-28T10:58:20.999Z</time></trkpt><trkpt lat="44.62423600563808" lon="10.153358377108038"><ele>496.2</ele><time>2026-03-28T10:58:22.999Z</time></trkpt><trkpt lat="44.62413949891263" lon="10.153274227277334"><ele>494.80000000000007</ele><time>2026-03-28T10:58:24.999Z</time></trkpt><trkpt lat="44.62402621435603" lon="10.153213195731151"><ele>493.40000000000003</ele><time>2026-03-28T10:58:26.999Z</time></trkpt><trkpt lat="44.623963580817495" lon="10.153195687810193"><ele>492.0</ele><time>2026-03-28T10:58:27.999Z</time></trkpt><trkpt lat="44.623862497075066" lon="10.153190198485683"><ele>490.20000000000005</ele><time>2026-03-28T10:58:29.999Z</time></trkpt><trkpt lat="44.62379063596134" lon="10.153163073624777"><ele>488.40000000000003</ele><time>2026-03-28T10:58:31.999Z</time></trkpt><trkpt lat="44.6237077293671" lon="10.153086634247535"><ele>486.59999999999997</ele><time>2026-03-28T10:58:34.999Z</time></trkpt><trkpt lat="44.6236264244772" lon="10.152994129277669"><ele>484.79999999999995</ele><time>2026-03-28T10:58:36.999Z</time></trkpt><trkpt lat="44.62352710298074" lon="10.152906111632717"><ele>483.0</ele><time>2026-03-28T10:58:38.999Z</time></trkpt><trkpt lat="44.62344025277381" lon="10.152858177391515"><ele>481.3333333333333</ele><time>2026-03-28T10:58:41Z</time></trkpt><trkpt lat="44.62335735703485" lon="10.15282999244083"><ele>479.66666666666663</ele><time>2026-03-28T10:58:43Z</time></trkpt><trkpt lat="44.62328502012197" lon="10.152806080507615"><ele>478.0</ele><time>2026-03-28T10:58:45Z</time></trkpt><trkpt lat="44.623204345112775" lon="10.152780761036869"><ele>476.3333333333333</ele><time>2026-03-28T10:58:47Z</time></trkpt><trkpt lat="44.623118262959466" lon="10.152829460122955"><ele>474.66666666666663</ele><time>2026-03-28T10:58:49Z</time></trkpt><trkpt lat="44.623027444389834" lon="10.152790961613919"><ele>473.0</ele><time>2026-03-28T10:58:51Z</time></trkpt><trkpt lat="44.62293475955119" lon="10.152812393173058"><ele>473.0</ele><time>2026-03-28T10:58:53Z</time></trkpt><trkpt lat="44.62287373188551" lon="10.152878120872847"><ele>472.99999999999994</ele><time>2026-03-28T10:58:55Z</time></trkpt><trkpt lat="44.622847119232986" lon="10.153003879130948"><ele>472.99999999999994</ele><time>2026-03-28T10:58:57Z</time></trkpt><trkpt lat="44.62283596143795" lon="10.153125709875948"><ele>473.0</ele><time>2026-03-28T10:58:59Z</time></trkpt><trkpt lat="44.622770727325275" lon="10.15324191488086"><ele>473.0</ele><time>2026-03-28T10:59:01Z</time></trkpt><trkpt lat="44.62266973286597" lon="10.153327401666587"><ele>471.8333333333333</ele><time>2026-03-28T10:59:03Z</time></trkpt><trkpt lat="44.6225973990512" lon="10.153373079678316"><ele>470.66666666666663</ele><time>2026-03-28T10:59:05Z</time></trkpt><trkpt lat="44.62251859312083" lon="10.153407504000215"><ele>469.5</ele><time>2026-03-28T10:59:08Z</time></trkpt><trkpt lat="44.62242873354295" lon="10.153470878721249"><ele>468.33333333333337</ele><time>2026-03-28T10:59:11Z</time></trkpt><trkpt lat="44.6223395325764" lon="10.153510091979724"><ele>467.1666666666667</ele><time>2026-03-28T10:59:13Z</time></trkpt><trkpt lat="44.62227671072825" lon="10.153541961858576"><ele>466.0</ele><time>2026-03-28T10:59:15Z</time></trkpt><trkpt lat="44.62220690147405" lon="10.153580540445308"><ele>466.00000000000006</ele><time>2026-03-28T10:59:17Z</time></trkpt><trkpt lat="44.62214858749785" lon="10.15364712684607"><ele>466.0</ele><time>2026-03-28T10:59:20Z</time></trkpt><trkpt lat="44.62208697598782" lon="10.153676431690224"><ele>466.0</ele><time>2026-03-28T10:59:22Z</time></trkpt><trkpt lat="44.62200789053897" lon="10.153741955406138"><ele>466.0</ele><time>2026-03-28T10:59:24Z</time></trkpt><trkpt lat="44.621930305772395" lon="10.15380325496785"><ele>466.00000000000006</ele><time>2026-03-28T10:59:26Z</time></trkpt><trkpt lat="44.62182745471981" lon="10.153859830733955"><ele>466.0</ele><time>2026-03-28T10:59:28Z</time></trkpt><trkpt lat="44.62176660824204" lon="10.1539089795183"><ele>464.50000000000006</ele><time>2026-03-28T10:59:30Z</time></trkpt><trkpt lat="44.621695411616884" lon="10.153946685112752"><ele>463.0</ele><time>2026-03-28T10:59:32Z</time></trkpt><trkpt lat="44.62161858852013" lon="10.153995225620124"><ele>461.5</ele><time>2026-03-28T10:59:34Z</time></trkpt><trkpt lat="44.621555746034105" lon="10.1540341376879"><ele>460.0</ele><time>2026-03-28T10:59:36Z</time></trkpt><trkpt lat="44.62150012651806" lon="10.154098131878468"><ele>458.50000000000006</ele><time>2026-03-28T10:59:42Z</time></trkpt><trkpt lat="44.621433487261505" lon="10.154113448385944"><ele>457.0</ele><time>2026-03-28T10:59:57.999Z</time></trkpt><trkpt lat="44.6213538236181" lon="10.154171215923212"><ele>456.33333333333337</ele><time>2026-03-28T11:00:00.999Z</time></trkpt><trkpt lat="44.62128296155221" lon="10.154241393951509"><ele>455.6666666666667</ele><time>2026-03-28T11:00:03.999Z</time></trkpt><trkpt lat="44.62122743414407" lon="10.15429123982936"><ele>455.0</ele><time>2026-03-28T11:00:05.999Z</time></trkpt><trkpt lat="44.62116070613369" lon="10.154331336621794"><ele>454.33333333333337</ele><time>2026-03-28T11:00:07.999Z</time></trkpt><trkpt lat="44.62108146490227" lon="10.154350053533811"><ele>453.6666666666667</ele><time>2026-03-28T11:00:10.999Z</time></trkpt><trkpt lat="44.62099966599563" lon="10.154341027178663"><ele>453.0</ele><time>2026-03-28T11:00:13.999Z</time></trkpt><trkpt lat="44.62093574973254" lon="10.154319783576103"><ele>451.0</ele><time>2026-03-28T11:00:14.999Z</time></trkpt><trkpt lat="44.62085070692633" lon="10.154333604458465"><ele>449.0</ele><time>2026-03-28T11:00:18.999Z</time></trkpt><trkpt lat="44.62075664115786" lon="10.154325848647971"><ele>447.0</ele><time>2026-03-28T11:00:21.999Z</time></trkpt><trkpt lat="44.62066236126478" lon="10.154332815595428"><ele>445.0</ele><time>2026-03-28T11:00:24.999Z</time></trkpt><trkpt lat="44.62059430466065" lon="10.154323144938441"><ele>443.0</ele><time>2026-03-28T11:00:26.999Z</time></trkpt><trkpt lat="44.62050674795951" lon="10.154330824668556"><ele>441.0</ele><time>2026-03-28T11:00:29.999Z</time></trkpt><trkpt lat="44.620432797209205" lon="10.154324631216241"><ele>441.0</ele><time>2026-03-28T11:00:32.999Z</time></trkpt><trkpt lat="44.620345622254156" lon="10.154291276852062"><ele>441.0</ele><time>2026-03-28T11:00:35.999Z</time></trkpt><trkpt lat="44.6202838727458" lon="10.154223253280081"><ele>441.0</ele><time>2026-03-28T11:00:37.999Z</time></trkpt><trkpt lat="44.62022414656804" lon="10.154165470452922"><ele>441.0</ele><time>2026-03-28T11:00:39.999Z</time></trkpt><trkpt lat="44.62016645389328" lon="10.154120981944164"><ele>441.0</ele><time>2026-03-28T11:00:41.999Z</time></trkpt><trkpt lat="44.62009163082865" lon="10.154072760139794"><ele>441.0</ele><time>2026-03-28T11:00:43.999Z</time></trkpt><trkpt lat="44.620019988100566" lon="10.15405051620117"><ele>438.0</ele><time>2026-03-28T11:00:45.999Z</time></trkpt><trkpt lat="44.61991760892307" lon="10.15400553175157"><ele>435.0</ele><time>2026-03-28T11:00:49Z</time></trkpt><trkpt lat="44.61984363808624" lon="10.153948078683865"><ele>432.0</ele><time>2026-03-28T11:00:51Z</time></trkpt><trkpt lat="44.61978372033498" lon="10.15390818727974"><ele>429.0</ele><time>2026-03-28T11:00:53Z</time></trkpt><trkpt lat="44.61970960208551" lon="10.153862501662434"><ele>426.0</ele><time>2026-03-28T11:00:55Z</time></trkpt><trkpt lat="44.61961643159941" lon="10.153801399467238"><ele>423.0</ele><time>2026-03-28T11:00:58Z</time></trkpt><trkpt lat="44.61956217039598" lon="10.153752771484333"><ele>423.0</ele><time>2026-03-28T11:01:00Z</time></trkpt><trkpt lat="44.61950485892543" lon="10.153710739080294"><ele>423.0</ele><time>2026-03-28T11:01:03Z</time></trkpt><trkpt lat="44.61946078823288" lon="10.153643192926081"><ele>423.0</ele><time>2026-03-28T11:01:29Z</time></trkpt><trkpt lat="44.61939682871881" lon="10.153606407557467"><ele>423.0</ele><time>2026-03-28T11:01:43Z</time></trkpt><trkpt lat="44.61932511260264" lon="10.153581421162789"><ele>423.0</ele><time>2026-03-28T11:01:50Z</time></trkpt><trkpt lat="44.61927740042578" lon="10.153645658929387"><ele>423.0</ele><time>2026-03-28T11:02:03.999Z</time></trkpt><trkpt lat="44.619346396828206" lon="10.15359701510621"><ele>423.0</ele><time>2026-03-28T11:02:34.999Z</time></trkpt><trkpt lat="44.619449394161364" lon="10.153641040951776"><ele>423.0</ele><time>2026-03-28T11:02:51.999Z</time></trkpt><trkpt lat="44.619561770802726" lon="10.153735029400002"><ele>423.0</ele><time>2026-03-28T11:02:55Z</time></trkpt><trkpt lat="44.619629337119825" lon="10.153801651887731"><ele>423.0</ele><time>2026-03-28T11:02:58Z</time></trkpt><trkpt lat="44.61969269718603" lon="10.15384623490292"><ele>423.0</ele><time>2026-03-28T11:03:00Z</time></trkpt><trkpt lat="44.619742144841304" lon="10.153919546545557"><ele>423.0</ele><time>2026-03-28T11:03:02Z</time></trkpt><trkpt lat="44.61982415686401" lon="10.153946972153248"><ele>423.0</ele><time>2026-03-28T11:03:04Z</time></trkpt><trkpt lat="44.61989635085511" lon="10.153989841268654"><ele>423.0</ele><time>2026-03-28T11:03:06Z</time></trkpt><trkpt lat="44.619960769802674" lon="10.154028136160994"><ele>423.0</ele><time>2026-03-28T11:03:09Z</time></trkpt><trkpt lat="44.620026815653894" lon="10.154048366173638"><ele>423.0</ele><time>2026-03-28T11:03:13Z</time></trkpt><trkpt lat="44.62013151089895" lon="10.154057950511733"><ele>423.0</ele><time>2026-03-28T11:03:16Z</time></trkpt><trkpt lat="44.62019539077388" lon="10.154110162496234"><ele>423.0</ele><time>2026-03-28T11:03:17Z</time></trkpt><trkpt lat="44.62025502172254" lon="10.154179869129397"><ele>423.0</ele><time>2026-03-28T11:03:19Z</time></trkpt><trkpt lat="44.620312179100466" lon="10.154253494009907"><ele>426.0</ele><time>2026-03-28T11:03:21Z</time></trkpt><trkpt lat="44.62041282981101" lon="10.154308306401932"><ele>429.0</ele><time>2026-03-28T11:03:23Z</time></trkpt><trkpt lat="44.620529028735184" lon="10.154318189880057"><ele>432.0</ele><time>2026-03-28T11:03:25Z</time></trkpt><trkpt lat="44.62059676027417" lon="10.154319528949637"><ele>435.0</ele><time>2026-03-28T11:03:26Z</time></trkpt><trkpt lat="44.62066955361007" lon="10.154320199705058"><ele>438.0</ele><time>2026-03-28T11:03:27Z</time></trkpt><trkpt lat="44.62073507060244" lon="10.154326112208954"><ele>441.0</ele><time>2026-03-28T11:03:28Z</time></trkpt><trkpt lat="44.62079997466417" lon="10.154323659072407"><ele>441.0</ele><time>2026-03-28T11:03:29Z</time></trkpt><trkpt lat="44.62090842845019" lon="10.154357443107541"><ele>441.0</ele><time>2026-03-28T11:03:31Z</time></trkpt><trkpt lat="44.62095423528909" lon="10.15444160388754"><ele>441.0</ele><time>2026-03-28T11:03:33Z</time></trkpt><trkpt lat="44.62102414808622" lon="10.1543860889271"><ele>441.0</ele><time>2026-03-28T11:03:35Z</time></trkpt><trkpt lat="44.62110557026232" lon="10.154375869140095"><ele>441.0</ele><time>2026-03-28T11:03:36Z</time></trkpt><trkpt lat="44.62122478577348" lon="10.154319053921482"><ele>443.0</ele><time>2026-03-28T11:03:38Z</time></trkpt><trkpt lat="44.62128762140339" lon="10.154272058997927"><ele>445.0</ele><time>2026-03-28T11:03:39Z</time></trkpt><trkpt lat="44.62135043182656" lon="10.154214390058886"><ele>447.0</ele><time>2026-03-28T11:03:40Z</time></trkpt><trkpt lat="44.621400683828725" lon="10.154149736191963"><ele>449.0</ele><time>2026-03-28T11:03:41Z</time></trkpt><trkpt lat="44.62150722924027" lon="10.154085540912416"><ele>451.0</ele><time>2026-03-28T11:03:43Z</time></trkpt><trkpt lat="44.62160858194492" lon="10.154026536506722"><ele>453.0</ele><time>2026-03-28T11:03:45Z</time></trkpt><trkpt lat="44.621714010764066" lon="10.153972696191275"><ele>453.79999999999995</ele><time>2026-03-28T11:03:47Z</time></trkpt><trkpt lat="44.62181498200316" lon="10.153899364643252"><ele>454.59999999999997</ele><time>2026-03-28T11:03:49Z</time></trkpt><trkpt lat="44.62192077249272" lon="10.153832020970402"><ele>455.40000000000003</ele><time>2026-03-28T11:03:51Z</time></trkpt><trkpt lat="44.622014792215374" lon="10.153763149414141"><ele>456.20000000000005</ele><time>2026-03-28T11:03:53Z</time></trkpt><trkpt lat="44.622100024006166" lon="10.153682241013136"><ele>457.0</ele><time>2026-03-28T11:03:55Z</time></trkpt><trkpt lat="44.62219233740814" lon="10.153615871127661"><ele>458.50000000000006</ele><time>2026-03-28T11:03:57Z</time></trkpt><trkpt lat="44.62228943477279" lon="10.153564930058112"><ele>460.0</ele><time>2026-03-28T11:03:59Z</time></trkpt><trkpt lat="44.62236838721125" lon="10.153527662747909"><ele>461.5</ele><time>2026-03-28T11:04:01Z</time></trkpt><trkpt lat="44.62244343500501" lon="10.153464398869922"><ele>463.0</ele><time>2026-03-28T11:04:03Z</time></trkpt><trkpt lat="44.622520108781956" lon="10.153408411961983"><ele>464.50000000000006</ele><time>2026-03-28T11:04:05Z</time></trkpt><trkpt lat="44.622580156132905" lon="10.153380002236462"><ele>466.0</ele><time>2026-03-28T11:04:07Z</time></trkpt><trkpt lat="44.62265076725652" lon="10.153324178325388"><ele>467.4</ele><time>2026-03-28T11:04:08.999Z</time></trkpt><trkpt lat="44.6227388851616" lon="10.153161353882538"><ele>468.8</ele><time>2026-03-28T11:04:10.999Z</time></trkpt><trkpt lat="44.62280317287135" lon="10.153205197740203"><ele>470.19999999999993</ele><time>2026-03-28T11:04:26.999Z</time></trkpt><trkpt lat="44.62283663202426" lon="10.153122996828698"><ele>471.59999999999997</ele><time>2026-03-28T11:05:56Z</time></trkpt><trkpt lat="44.62285736689299" lon="10.152985037541844"><ele>473.0</ele><time>2026-03-28T11:05:58Z</time></trkpt><trkpt lat="44.622885654389066" lon="10.152880218980506"><ele>473.0</ele><time>2026-03-28T11:06:00Z</time></trkpt><trkpt lat="44.622959901633216" lon="10.152806943279035"><ele>472.99999999999994</ele><time>2026-03-28T11:06:03Z</time></trkpt><trkpt lat="44.62304451938147" lon="10.15279601173354"><ele>472.99999999999994</ele><time>2026-03-28T11:06:05Z</time></trkpt><trkpt lat="44.62315084469674" lon="10.152762611414134"><ele>473.0</ele><time>2026-03-28T11:06:07Z</time></trkpt><trkpt lat="44.62325466787423" lon="10.152798591434088"><ele>473.0</ele><time>2026-03-28T11:06:09Z</time></trkpt><trkpt lat="44.62336381253812" lon="10.152823835988277"><ele>473.0</ele><time>2026-03-28T11:06:11Z</time></trkpt><trkpt lat="44.62347279239893" lon="10.152862925064268"><ele>472.99999999999994</ele><time>2026-03-28T11:06:13Z</time></trkpt><trkpt lat="44.62357478121193" lon="10.152938376963355"><ele>472.99999999999994</ele><time>2026-03-28T11:06:15Z</time></trkpt><trkpt lat="44.62364789849082" lon="10.153023387446606"><ele>473.0</ele><time>2026-03-28T11:06:16.999Z</time></trkpt><trkpt lat="44.62372160464798" lon="10.153131605826664"><ele>473.0</ele><time>2026-03-28T11:06:18.999Z</time></trkpt><trkpt lat="44.623818046818386" lon="10.153179589416217"><ele>476.79999999999995</ele><time>2026-03-28T11:06:20.999Z</time></trkpt><trkpt lat="44.62386760245477" lon="10.153234570210262"><ele>480.59999999999997</ele><time>2026-03-28T11:06:21.999Z</time></trkpt><trkpt lat="44.62397499391593" lon="10.153215782759476"><ele>484.40000000000003</ele><time>2026-03-28T11:06:23.999Z</time></trkpt><trkpt lat="44.62403898713203" lon="10.153228931418107"><ele>488.20000000000005</ele><time>2026-03-28T11:06:24.999Z</time></trkpt><trkpt lat="44.62413867830034" lon="10.153287531885734"><ele>492.0</ele><time>2026-03-28T11:06:26.999Z</time></trkpt><trkpt lat="44.62425322727246" lon="10.153379445601065"><ele>492.0</ele><time>2026-03-28T11:06:28.999Z</time></trkpt><trkpt lat="44.624311038383276" lon="10.15346616576682"><ele>492.00000000000006</ele><time>2026-03-28T11:06:29.999Z</time></trkpt><trkpt lat="44.624372027727034" lon="10.153607333581709"><ele>492.00000000000006</ele><time>2026-03-28T11:06:31.999Z</time></trkpt><trkpt lat="44.62448169781479" lon="10.153701766617013"><ele>492.0</ele><time>2026-03-28T11:06:33.999Z</time></trkpt><trkpt lat="44.62454312596629" lon="10.153746415223662"><ele>492.0</ele><time>2026-03-28T11:06:34.999Z</time></trkpt><trkpt lat="44.62460462337369" lon="10.153780974510344"><ele>493.1666666666667</ele><time>2026-03-28T11:06:35.999Z</time></trkpt><trkpt lat="44.62466262054868" lon="10.15383433127711"><ele>494.33333333333337</ele><time>2026-03-28T11:06:36.999Z</time></trkpt><trkpt lat="44.62479025138478" lon="10.153891807683728"><ele>495.5</ele><time>2026-03-28T11:06:38.999Z</time></trkpt><trkpt lat="44.62486147640501" lon="10.153923816348602"><ele>496.6666666666667</ele><time>2026-03-28T11:06:39.999Z</time></trkpt><trkpt lat="44.62493985847732" lon="10.153975631372184"><ele>497.83333333333337</ele><time>2026-03-28T11:06:40.999Z</time></trkpt><trkpt lat="44.62499261371922" lon="10.15402608669809"><ele>499.0</ele><time>2026-03-28T11:06:41.999Z</time></trkpt><trkpt lat="44.62505326892676" lon="10.154059470017048"><ele>500.33333333333337</ele><time>2026-03-28T11:06:42.999Z</time></trkpt><trkpt lat="44.62511748815457" lon="10.154096153615852"><ele>501.6666666666667</ele><time>2026-03-28T11:06:43.999Z</time></trkpt><trkpt lat="44.625198332376925" lon="10.154132974992374"><ele>503.0</ele><time>2026-03-28T11:06:44.999Z</time></trkpt><trkpt lat="44.625281117773945" lon="10.154172747801951"><ele>504.33333333333337</ele><time>2026-03-28T11:06:45.999Z</time></trkpt><trkpt lat="44.625360637141746" lon="10.154224831002715"><ele>505.6666666666667</ele><time>2026-03-28T11:06:46.999Z</time></trkpt><trkpt lat="44.62544625385921" lon="10.154249383408805"><ele>507.0</ele><time>2026-03-28T11:06:47.999Z</time></trkpt><trkpt lat="44.625559371913624" lon="10.154281786831435"><ele>508.8333333333333</ele><time>2026-03-28T11:06:48.999Z</time></trkpt><trkpt lat="44.62562669032465" lon="10.154260921276293"><ele>510.66666666666663</ele><time>2026-03-28T11:06:49.999Z</time></trkpt><trkpt lat="44.62571902489055" lon="10.154234755804646"><ele>512.5</ele><time>2026-03-28T11:06:50.999Z</time></trkpt><trkpt lat="44.62579180745623" lon="10.154187852127128"><ele>514.3333333333333</ele><time>2026-03-28T11:06:51.999Z</time></trkpt><trkpt lat="44.62585157448738" lon="10.154155284688336"><ele>516.1666666666666</ele><time>2026-03-28T11:06:52.999Z</time></trkpt><trkpt lat="44.625936448146994" lon="10.154115580453558"><ele>518.0</ele><time>2026-03-28T11:06:54.999Z</time></trkpt><trkpt lat="44.626023342713616" lon="10.154110488000452"><ele>518.0</ele><time>2026-03-28T11:06:55.999Z</time></trkpt><trkpt lat="44.626118191256744" lon="10.154098512580026"><ele>518.0</ele><time>2026-03-28T11:06:56.999Z</time></trkpt><trkpt lat="44.626200721487834" lon="10.154079456578621"><ele>518.0</ele><time>2026-03-28T11:06:57.999Z</time></trkpt><trkpt lat="44.62630948031376" lon="10.154051747580239"><ele>518.0</ele><time>2026-03-28T11:06:59.999Z</time></trkpt><trkpt lat="44.626383432707364" lon="10.154051018504278"><ele>518.0</ele><time>2026-03-28T11:07:00.999Z</time></trkpt><trkpt lat="44.6264574020198" lon="10.154057902951052"><ele>518.0</ele><time>2026-03-28T11:07:01.999Z</time></trkpt><trkpt lat="44.62655082107701" lon="10.154071007872336"><ele>520.1999999999999</ele><time>2026-03-28T11:07:02.999Z</time></trkpt><trkpt lat="44.626638272860575" lon="10.154080355094528"><ele>522.4</ele><time>2026-03-28T11:07:03.999Z</time></trkpt><trkpt lat="44.62671685673122" lon="10.154089213520093"><ele>524.5999999999999</ele><time>2026-03-28T11:07:05Z</time></trkpt><trkpt lat="44.62679088683099" lon="10.154086084537942"><ele>526.8</ele><time>2026-03-28T11:07:06Z</time></trkpt><trkpt lat="44.62691486096042" lon="10.154049325696963"><ele>529.0</ele><time>2026-03-28T11:07:08Z</time></trkpt><trkpt lat="44.62701227860721" lon="10.154093524477325"><ele>531.4</ele><time>2026-03-28T11:07:09Z</time></trkpt><trkpt lat="44.627093502825105" lon="10.154046329822457"><ele>533.8</ele><time>2026-03-28T11:07:11Z</time></trkpt><trkpt lat="44.62718667322146" lon="10.153997493841915"><ele>536.2</ele><time>2026-03-28T11:07:23Z</time></trkpt><trkpt lat="44.62726197833729" lon="10.153923170621294"><ele>538.6</ele><time>2026-03-28T11:07:25Z</time></trkpt><trkpt lat="44.627366843683966" lon="10.15385623303089"><ele>541.0</ele><time>2026-03-28T11:07:27Z</time></trkpt><trkpt lat="44.6274311407985" lon="10.153794341480449"><ele>541.0</ele><time>2026-03-28T11:07:28Z</time></trkpt><trkpt lat="44.62748163689406" lon="10.153707340183987"><ele>541.0</ele><time>2026-03-28T11:07:29Z</time></trkpt><trkpt lat="44.62753309886035" lon="10.153632614008766"><ele>541.0</ele><time>2026-03-28T11:07:30Z</time></trkpt><trkpt lat="44.62756579444037" lon="10.153549547749044"><ele>541.0</ele><time>2026-03-28T11:07:31Z</time></trkpt><trkpt lat="44.62759760922363" lon="10.153470489964679"><ele>541.0</ele><time>2026-03-28T11:07:32Z</time></trkpt><trkpt lat="44.62766239815104" lon="10.153305564984992"><ele>541.0</ele><time>2026-03-28T11:07:34Z</time></trkpt><trkpt lat="44.62769557916236" lon="10.1532107829091"><ele>541.3333333333334</ele><time>2026-03-28T11:07:35Z</time></trkpt><trkpt lat="44.627730645493465" lon="10.153112338394317"><ele>541.6666666666667</ele><time>2026-03-28T11:07:36Z</time></trkpt><trkpt lat="44.62776958734341" lon="10.153014989018894"><ele>542.0</ele><time>2026-03-28T11:07:37Z</time></trkpt><trkpt lat="44.62780900699878" lon="10.152905313316609"><ele>542.3333333333334</ele><time>2026-03-28T11:07:38Z</time></trkpt><trkpt lat="44.62784049462832" lon="10.152794225082742"><ele>542.6666666666666</ele><time>2026-03-28T11:07:39Z</time></trkpt><trkpt lat="44.627866398835906" lon="10.152680633344364"><ele>543.0</ele><time>2026-03-28T11:07:40Z</time></trkpt><trkpt lat="44.62789681605944" lon="10.152572062241077"><ele>543.0</ele><time>2026-03-28T11:07:41Z</time></trkpt><trkpt lat="44.62793409720375" lon="10.152455833200762"><ele>543.0</ele><time>2026-03-28T11:07:42Z</time></trkpt><trkpt lat="44.62796811837789" lon="10.152346242694469"><ele>543.0</ele><time>2026-03-28T11:07:43Z</time></trkpt><trkpt lat="44.62801042590257" lon="10.152255751907282"><ele>543.0</ele><time>2026-03-28T11:07:44Z</time></trkpt><trkpt lat="44.62803428257545" lon="10.152121899915958"><ele>543.0</ele><time>2026-03-28T11:07:45Z</time></trkpt><trkpt lat="44.62805918882304" lon="10.15200497548725"><ele>543.0</ele><time>2026-03-28T11:07:46Z</time></trkpt><trkpt lat="44.62806896332573" lon="10.151886306322213"><ele>543.5</ele><time>2026-03-28T11:07:47Z</time></trkpt><trkpt lat="44.628075433123584" lon="10.151742173512561"><ele>544.0</ele><time>2026-03-28T11:07:48Z</time></trkpt><trkpt lat="44.628079239098064" lon="10.151635916059131"><ele>544.5</ele><time>2026-03-28T11:07:49Z</time></trkpt><trkpt lat="44.62808386624401" lon="10.151513152678588"><ele>545.0</ele><time>2026-03-28T11:07:50Z</time></trkpt><trkpt lat="44.62808928814164" lon="10.15138973318347"><ele>545.5</ele><time>2026-03-28T11:07:51Z</time></trkpt><trkpt lat="44.6280943015247" lon="10.151275613510203"><ele>546.0</ele><time>2026-03-28T11:07:52Z</time></trkpt><trkpt lat="44.62809833020608" lon="10.151183908744926"><ele>546.6</ele><time>2026-03-28T11:07:53Z</time></trkpt><trkpt lat="44.62791386525712" lon="10.151216920151994"><ele>547.2</ele><time>2026-03-28T11:10:40.999Z</time></trkpt><trkpt lat="44.62782628630777" lon="10.15123440135284"><ele>547.8</ele><time>2026-03-28T11:10:42.999Z</time></trkpt><trkpt lat="44.627751359182376" lon="10.151232641228844"><ele>548.4</ele><time>2026-03-28T11:10:44.999Z</time></trkpt><trkpt lat="44.6276741458845" lon="10.151250559632759"><ele>549.0</ele><time>2026-03-28T11:10:46.999Z</time></trkpt><trkpt lat="44.627576103954574" lon="10.151265135161825"><ele>545.0</ele><time>2026-03-28T11:10:48.999Z</time></trkpt><trkpt lat="44.627467719328564" lon="10.15127994225517"><ele>541.0</ele><time>2026-03-28T11:10:50.999Z</time></trkpt><trkpt lat="44.62734275558084" lon="10.151310316888317"><ele>537.0</ele><time>2026-03-28T11:10:52.999Z</time></trkpt><trkpt lat="44.62727218806457" lon="10.151322131104703"><ele>533.0</ele><time>2026-03-28T11:10:53.999Z</time></trkpt><trkpt lat="44.62720280392495" lon="10.15132712245589"><ele>529.0</ele><time>2026-03-28T11:10:54.999Z</time></trkpt><trkpt lat="44.62708292004891" lon="10.151311890684543"><ele>529.0</ele><time>2026-03-28T11:10:56.999Z</time></trkpt><trkpt lat="44.627020294748476" lon="10.151294281575995"><ele>529.0</ele><time>2026-03-28T11:10:57.999Z</time></trkpt><trkpt lat="44.62694954151867" lon="10.151274776672429"><ele>529.0</ele><time>2026-03-28T11:10:58.999Z</time></trkpt><trkpt lat="44.62687369392166" lon="10.151262915414563"><ele>529.0</ele><time>2026-03-28T11:10:59.999Z</time></trkpt><trkpt lat="44.62679560184196" lon="10.151254042363599"><ele>529.0</ele><time>2026-03-28T11:11:00.999Z</time></trkpt><trkpt lat="44.62671057867072" lon="10.151249213893847"><ele>529.0</ele><time>2026-03-28T11:11:01.999Z</time></trkpt><trkpt lat="44.626616018488654" lon="10.151249332910652"><ele>526.6666666666667</ele><time>2026-03-28T11:11:02.999Z</time></trkpt><trkpt lat="44.62652124971304" lon="10.151252203656611"><ele>524.3333333333334</ele><time>2026-03-28T11:11:03.999Z</time></trkpt><trkpt lat="44.62643907545645" lon="10.151265543521312"><ele>522.0</ele><time>2026-03-28T11:11:04.999Z</time></trkpt><trkpt lat="44.62634968927068" lon="10.151285704077969"><ele>519.6666666666666</ele><time>2026-03-28T11:11:05.999Z</time></trkpt><trkpt lat="44.62626826418138" lon="10.151308264432972"><ele>517.3333333333333</ele><time>2026-03-28T11:11:06.999Z</time></trkpt><trkpt lat="44.62619240163203" lon="10.151325908217633"><ele>515.0</ele><time>2026-03-28T11:11:07.999Z</time></trkpt><trkpt lat="44.626120419141344" lon="10.151341534387718"><ele>513.8571428571429</ele><time>2026-03-28T11:11:08.999Z</time></trkpt><trkpt lat="44.62603893385168" lon="10.151364032954929"><ele>512.7142857142857</ele><time>2026-03-28T11:11:09.999Z</time></trkpt><trkpt lat="44.62596345373805" lon="10.151382373294707"><ele>511.57142857142856</ele><time>2026-03-28T11:11:10.999Z</time></trkpt><trkpt lat="44.62588902648172" lon="10.151397638368364"><ele>510.42857142857144</ele><time>2026-03-28T11:11:11.999Z</time></trkpt><trkpt lat="44.62582697748836" lon="10.151414340907479"><ele>509.28571428571433</ele><time>2026-03-28T11:11:12.999Z</time></trkpt><trkpt lat="44.62576352992783" lon="10.151409896088001"><ele>508.1428571428571</ele><time>2026-03-28T11:11:13.999Z</time></trkpt><trkpt lat="44.62569660611095" lon="10.151381593379046"><ele>507.0</ele><time>2026-03-28T11:11:14.999Z</time></trkpt><trkpt lat="44.62562953281665" lon="10.15133605873839"><ele>507.0</ele><time>2026-03-28T11:11:15.999Z</time></trkpt><trkpt lat="44.62554610170341" lon="10.15129254764913"><ele>507.00000000000006</ele><time>2026-03-28T11:11:17Z</time></trkpt><trkpt lat="44.62546215768575" lon="10.151261371202365"><ele>507.00000000000006</ele><time>2026-03-28T11:11:18Z</time></trkpt><trkpt lat="44.62535839735573" lon="10.151248013452014"><ele>507.0</ele><time>2026-03-28T11:11:19Z</time></trkpt><trkpt lat="44.625291041778816" lon="10.151244038451663"><ele>507.0</ele><time>2026-03-28T11:11:20Z</time></trkpt><trkpt lat="44.62516290888475" lon="10.151228421402536"><ele>505.8333333333333</ele><time>2026-03-28T11:11:22Z</time></trkpt><trkpt lat="44.62507039555853" lon="10.151199418172988"><ele>504.66666666666663</ele><time>2026-03-28T11:11:24Z</time></trkpt><trkpt lat="44.62500586984043" lon="10.15113946209996"><ele>503.5</ele><time>2026-03-28T11:11:27Z</time></trkpt><trkpt lat="44.62495376720991" lon="10.151070251867"><ele>502.3333333333333</ele><time>2026-03-28T11:11:30Z</time></trkpt><trkpt lat="44.62489027554763" lon="10.15097981780522"><ele>501.16666666666663</ele><time>2026-03-28T11:11:33Z</time></trkpt><trkpt lat="44.624822921260765" lon="10.150926991012463"><ele>500.0</ele><time>2026-03-28T11:11:36Z</time></trkpt><trkpt lat="44.624752577909994" lon="10.150865193019344"><ele>499.99999999999994</ele><time>2026-03-28T11:11:39Z</time></trkpt><trkpt lat="44.62467630867724" lon="10.150814174173274"><ele>500.0</ele><time>2026-03-28T11:11:42Z</time></trkpt><trkpt lat="44.624582510428525" lon="10.150781557829731"><ele>500.0</ele><time>2026-03-28T11:11:45Z</time></trkpt><trkpt lat="44.624503759219586" lon="10.150791899519161"><ele>500.0</ele><time>2026-03-28T11:11:47Z</time></trkpt><trkpt lat="44.624435301797334" lon="10.150838516114314"><ele>499.99999999999994</ele><time>2026-03-28T11:11:49Z</time></trkpt><trkpt lat="44.6243821501449" lon="10.150905021433553"><ele>500.0</ele><time>2026-03-28T11:11:52Z</time></trkpt><trkpt lat="44.62432882789572" lon="10.151000223389456"><ele>497.8333333333333</ele><time>2026-03-28T11:11:55Z</time></trkpt><trkpt lat="44.62426158414733" lon="10.151099970895187"><ele>495.66666666666663</ele><time>2026-03-28T11:11:58Z</time></trkpt><trkpt lat="44.6241980013713" lon="10.151190918536205"><ele>493.5</ele><time>2026-03-28T11:12:01Z</time></trkpt><trkpt lat="44.62414941338492" lon="10.151253163165084"><ele>491.33333333333337</ele><time>2026-03-28T11:12:03Z</time></trkpt><trkpt lat="44.62408123478006" lon="10.15131069533875"><ele>489.1666666666667</ele><time>2026-03-28T11:12:05Z</time></trkpt><trkpt lat="44.623984906416986" lon="10.151359285289345"><ele>487.0</ele><time>2026-03-28T11:12:07Z</time></trkpt><trkpt lat="44.623887107013736" lon="10.15139148164123"><ele>487.00000000000006</ele><time>2026-03-28T11:12:09Z</time></trkpt><trkpt lat="44.62380159001977" lon="10.151413121682154"><ele>487.0</ele><time>2026-03-28T11:12:11Z</time></trkpt><trkpt lat="44.62371944442809" lon="10.15136297563371"><ele>487.0</ele><time>2026-03-28T11:12:24Z</time></trkpt><trkpt lat="44.62365835327384" lon="10.15128825678834"><ele>487.0</ele><time>2026-03-28T11:12:26Z</time></trkpt><trkpt lat="44.62360375891201" lon="10.151215401695037"><ele>487.00000000000006</ele><time>2026-03-28T11:12:27.999Z</time></trkpt><trkpt lat="44.623543705105696" lon="10.151143626661238"><ele>487.0</ele><time>2026-03-28T11:12:30.999Z</time></trkpt><trkpt lat="44.62349244653293" lon="10.151073814957424"><ele>484.00000000000006</ele><time>2026-03-28T11:12:32.999Z</time></trkpt><trkpt lat="44.62343461195187" lon="10.15097926293759"><ele>481.0</ele><time>2026-03-28T11:12:35.999Z</time></trkpt><trkpt lat="44.623383952149425" lon="10.150889029169686"><ele>478.0</ele><time>2026-03-28T11:12:39.999Z</time></trkpt><trkpt lat="44.62331042725038" lon="10.150842044071078"><ele>475.0</ele><time>2026-03-28T11:12:42.999Z</time></trkpt><trkpt lat="44.623234314133924" lon="10.150818702217077"><ele>472.00000000000006</ele><time>2026-03-28T11:12:45.999Z</time></trkpt><trkpt lat="44.62314737599548" lon="10.150805778864592"><ele>469.0</ele><time>2026-03-28T11:12:48.999Z</time></trkpt><trkpt lat="44.623055069883975" lon="10.15078645361613"><ele>469.0</ele><time>2026-03-28T11:12:51.999Z</time></trkpt><trkpt lat="44.622990753220286" lon="10.150774355280305"><ele>469.0</ele><time>2026-03-28T11:12:53.999Z</time></trkpt><trkpt lat="44.62291949966604" lon="10.150755651720441"><ele>469.0</ele><time>2026-03-28T11:12:56.999Z</time></trkpt><trkpt lat="44.622851410781976" lon="10.150743520129744"><ele>469.0</ele><time>2026-03-28T11:12:59.999Z</time></trkpt><trkpt lat="44.62279717747753" lon="10.150790753775008"><ele>469.0</ele><time>2026-03-28T11:13:03.999Z</time></trkpt><trkpt lat="44.62280534790241" lon="10.15089333812957"><ele>469.0</ele><time>2026-03-28T11:13:06.999Z</time></trkpt><trkpt lat="44.62288654492491" lon="10.150949139140693"><ele>469.0</ele><time>2026-03-28T11:13:09.999Z</time></trkpt><trkpt lat="44.6229931309189" lon="10.150959065513968"><ele>469.0</ele><time>2026-03-28T11:13:12.999Z</time></trkpt><trkpt lat="44.62311249431953" lon="10.15099729901315"><ele>469.0</ele><time>2026-03-28T11:13:14.999Z</time></trkpt><trkpt lat="44.62319456675352" lon="10.151041596403505"><ele>469.0</ele><time>2026-03-28T11:13:16.999Z</time></trkpt><trkpt lat="44.62326917360222" lon="10.151086366363696"><ele>469.0</ele><time>2026-03-28T11:13:18.999Z</time></trkpt><trkpt lat="44.62334323303977" lon="10.151089651252505"><ele>469.0</ele><time>2026-03-28T11:13:21.999Z</time></trkpt><trkpt lat="44.62343831155043" lon="10.151061455331089"><ele>469.0</ele><time>2026-03-28T11:13:24Z</time></trkpt><trkpt lat="44.62354830939544" lon="10.151015859250169"><ele>469.0</ele><time>2026-03-28T11:13:26Z</time></trkpt><trkpt lat="44.623670461525556" lon="10.150968127786802"><ele>469.0</ele><time>2026-03-28T11:13:28Z</time></trkpt><trkpt lat="44.623731099986436" lon="10.150931317488684"><ele>469.0</ele><time>2026-03-28T11:13:29Z</time></trkpt><trkpt lat="44.623802728569096" lon="10.150893505006398"><ele>469.0</ele><time>2026-03-28T11:13:30Z</time></trkpt><trkpt lat="44.62387893005297" lon="10.150858533965796"><ele>472.6</ele><time>2026-03-28T11:13:31Z</time></trkpt><trkpt lat="44.62395617091559" lon="10.150841696297421"><ele>476.2</ele><time>2026-03-28T11:13:32Z</time></trkpt><trkpt lat="44.62407877913404" lon="10.150900778504734"><ele>479.80000000000007</ele><time>2026-03-28T11:13:34Z</time></trkpt><trkpt lat="44.62415047724442" lon="10.150929199117014"><ele>483.40000000000003</ele><time>2026-03-28T11:13:35Z</time></trkpt><trkpt lat="44.624223506784446" lon="10.150945119983467"><ele>487.0</ele><time>2026-03-28T11:13:36Z</time></trkpt><trkpt lat="44.62431949911811" lon="10.150946592299775"><ele>487.0</ele><time>2026-03-28T11:13:38Z</time></trkpt><trkpt lat="44.62438486267368" lon="10.15092310323069"><ele>487.00000000000006</ele><time>2026-03-28T11:13:40Z</time></trkpt><trkpt lat="44.624449831386784" lon="10.15085437211699"><ele>487.00000000000006</ele><time>2026-03-28T11:13:42Z</time></trkpt><trkpt lat="44.624547225326" lon="10.150809120946816"><ele>487.0</ele><time>2026-03-28T11:13:44Z</time></trkpt><trkpt lat="44.624649830263216" lon="10.150831101014028"><ele>487.0</ele><time>2026-03-28T11:13:46Z</time></trkpt><trkpt lat="44.62474515188117" lon="10.150883295981464"><ele>489.6</ele><time>2026-03-28T11:13:48Z</time></trkpt><trkpt lat="44.62480541791172" lon="10.150927019074404"><ele>492.20000000000005</ele><time>2026-03-28T11:13:49Z</time></trkpt><trkpt lat="44.62489507902269" lon="10.151018496564786"><ele>494.8</ele><time>2026-03-28T11:13:51Z</time></trkpt><trkpt lat="44.62496109507733" lon="10.15110189937"><ele>497.4</ele><time>2026-03-28T11:13:53Z</time></trkpt><trkpt lat="44.62504833149187" lon="10.151203447404855"><ele>500.0</ele><time>2026-03-28T11:13:55Z</time></trkpt><trkpt lat="44.62517463026081" lon="10.151246604722049"><ele>500.0</ele><time>2026-03-28T11:13:57Z</time></trkpt><trkpt lat="44.62524936762806" lon="10.151243522316497"><ele>500.0</ele><time>2026-03-28T11:13:58Z</time></trkpt><trkpt lat="44.625316856450844" lon="10.151245467102289"><ele>500.0</ele><time>2026-03-28T11:13:59Z</time></trkpt><trkpt lat="44.62542419237246" lon="10.151270369534766"><ele>500.0</ele><time>2026-03-28T11:14:01Z</time></trkpt><trkpt lat="44.62555594373824" lon="10.151294937758324"><ele>500.0</ele><time>2026-03-28T11:14:03Z</time></trkpt><trkpt lat="44.62563871382009" lon="10.151340203449456"><ele>501.16666666666663</ele><time>2026-03-28T11:14:04Z</time></trkpt><trkpt lat="44.62571835842801" lon="10.151388167196426"><ele>502.3333333333333</ele><time>2026-03-28T11:14:05Z</time></trkpt><trkpt lat="44.625790220833686" lon="10.151410283833428"><ele>503.5</ele><time>2026-03-28T11:14:06Z</time></trkpt><trkpt lat="44.62586577368366" lon="10.151418634718244"><ele>504.66666666666663</ele><time>2026-03-28T11:14:07Z</time></trkpt><trkpt lat="44.625939458679284" lon="10.15140170576634"><ele>505.8333333333333</ele><time>2026-03-28T11:14:08Z</time></trkpt><trkpt lat="44.62602180007559" lon="10.15137796458077"><ele>507.0</ele><time>2026-03-28T11:14:09Z</time></trkpt><trkpt lat="44.62610678765324" lon="10.151351034645241"><ele>508.3333333333333</ele><time>2026-03-28T11:14:10Z</time></trkpt><trkpt lat="44.62617414898471" lon="10.15133318367021"><ele>509.66666666666663</ele><time>2026-03-28T11:14:11Z</time></trkpt><trkpt lat="44.6262842137405" lon="10.151300513919695"><ele>511.0</ele><time>2026-03-28T11:14:13Z</time></trkpt><trkpt lat="44.62636682605603" lon="10.15128077842596"><ele>512.3333333333333</ele><time>2026-03-28T11:14:14Z</time></trkpt><trkpt lat="44.62646159500172" lon="10.151265346101631"><ele>513.6666666666666</ele><time>2026-03-28T11:14:15Z</time></trkpt><trkpt lat="44.626545776459714" lon="10.151253140631907"><ele>515.0</ele><time>2026-03-28T11:14:16Z</time></trkpt><trkpt lat="44.62663532523671" lon="10.151244689637002"><ele>515.0</ele><time>2026-03-28T11:14:17Z</time></trkpt><trkpt lat="44.62673374852068" lon="10.15124768771012"><ele>515.0</ele><time>2026-03-28T11:14:18Z</time></trkpt><trkpt lat="44.62683075674282" lon="10.151255058640272"><ele>515.0</ele><time>2026-03-28T11:14:19Z</time></trkpt><trkpt lat="44.62692872379457" lon="10.15127182219913"><ele>515.0</ele><time>2026-03-28T11:14:20Z</time></trkpt><trkpt lat="44.62702396732713" lon="10.151290613293778"><ele>515.0</ele><time>2026-03-28T11:14:21Z</time></trkpt><trkpt lat="44.62710696199747" lon="10.151311780606457"><ele>517.3333333333333</ele><time>2026-03-28T11:14:22Z</time></trkpt><trkpt lat="44.62719020953459" lon="10.151325352327573"><ele>519.6666666666666</ele><time>2026-03-28T11:14:23Z</time></trkpt><trkpt lat="44.62728198721292" lon="10.15132684260994"><ele>522.0</ele><time>2026-03-28T11:14:24Z</time></trkpt><trkpt lat="44.62738407734411" lon="10.151309898134404"><ele>524.3333333333334</ele><time>2026-03-28T11:14:25Z</time></trkpt><trkpt lat="44.627474536805394" lon="10.15128312492913"><ele>526.6666666666667</ele><time>2026-03-28T11:14:26Z</time></trkpt><trkpt lat="44.627552023875495" lon="10.151264922187613"><ele>529.0</ele><time>2026-03-28T11:14:27Z</time></trkpt><trkpt lat="44.627642445997054" lon="10.151255522801973"><ele>529.0</ele><time>2026-03-28T11:14:28Z</time></trkpt><trkpt lat="44.627718290616194" lon="10.151242161544088"><ele>529.0</ele><time>2026-03-28T11:14:29Z</time></trkpt><trkpt lat="44.627791804937054" lon="10.15123134230291"><ele>529.0</ele><time>2026-03-28T11:14:30Z</time></trkpt><trkpt lat="44.62786418035088" lon="10.15121893784625"><ele>529.0</ele><time>2026-03-28T11:14:30.999Z</time></trkpt><trkpt lat="44.62794636145845" lon="10.151204259176943"><ele>529.0</ele><time>2026-03-28T11:14:32.999Z</time></trkpt><trkpt lat="44.6280225925407" lon="10.151152806944841"><ele>529.0</ele><time>2026-03-28T11:14:34.999Z</time></trkpt><trkpt lat="44.62806107877714" lon="10.15106873762563"><ele>533.0</ele><time>2026-03-28T11:14:36.999Z</time></trkpt><trkpt lat="44.62807201878872" lon="10.150923540435723"><ele>537.0</ele><time>2026-03-28T11:14:38.999Z</time></trkpt><trkpt lat="44.62805745472247" lon="10.150757703330854"><ele>541.0</ele><time>2026-03-28T11:14:40.999Z</time></trkpt><trkpt lat="44.62802086406173" lon="10.150620532497035"><ele>545.0</ele><time>2026-03-28T11:14:42.999Z</time></trkpt><trkpt lat="44.62799723368829" lon="10.15052587037769"><ele>549.0</ele><time>2026-03-28T11:14:44.999Z</time></trkpt><trkpt lat="44.62797133860928" lon="10.150353989036448"><ele>549.8</ele><time>2026-03-28T11:14:46.999Z</time></trkpt><trkpt lat="44.62794742722261" lon="10.15023912964292"><ele>550.5999999999999</ele><time>2026-03-28T11:14:47.999Z</time></trkpt><trkpt lat="44.627929554146" lon="10.150074047953925"><ele>551.4</ele><time>2026-03-28T11:14:49.999Z</time></trkpt><trkpt lat="44.627919815654664" lon="10.149889051643163"><ele>552.1999999999999</ele><time>2026-03-28T11:14:51.999Z</time></trkpt><trkpt lat="44.62792256781528" lon="10.149781998286956"><ele>553.0</ele><time>2026-03-28T11:14:52.999Z</time></trkpt><trkpt lat="44.62792652622456" lon="10.149679553112426"><ele>553.2857142857143</ele><time>2026-03-28T11:14:53.999Z</time></trkpt><trkpt lat="44.62792615168692" lon="10.149572827821117"><ele>553.5714285714286</ele><time>2026-03-28T11:14:54.999Z</time></trkpt><trkpt lat="44.62793720753825" lon="10.149484020166623"><ele>553.8571428571429</ele><time>2026-03-28T11:14:55.999Z</time></trkpt><trkpt lat="44.62795821938442" lon="10.149399389677981"><ele>554.1428571428571</ele><time>2026-03-28T11:14:56.999Z</time></trkpt><trkpt lat="44.627984495733294" lon="10.149317581270664"><ele>554.4285714285714</ele><time>2026-03-28T11:14:57.999Z</time></trkpt><trkpt lat="44.62801908315198" lon="10.149236219134751"><ele>554.7142857142858</ele><time>2026-03-28T11:14:58.999Z</time></trkpt><trkpt lat="44.62806122156077" lon="10.149157895066947"><ele>555.0</ele><time>2026-03-28T11:14:59.999Z</time></trkpt><trkpt lat="44.62810742318545" lon="10.149069951808901"><ele>555.2857142857143</ele><time>2026-03-28T11:15:00.999Z</time></trkpt><trkpt lat="44.6281515350832" lon="10.148983569076782"><ele>555.5714285714286</ele><time>2026-03-28T11:15:01.999Z</time></trkpt><trkpt lat="44.62818989043631" lon="10.148913201461658"><ele>555.8571428571429</ele><time>2026-03-28T11:15:02.999Z</time></trkpt><trkpt lat="44.628226623107075" lon="10.148841328157546"><ele>556.1428571428571</ele><time>2026-03-28T11:15:03.999Z</time></trkpt><trkpt lat="44.628266838342604" lon="10.148764725070114"><ele>556.4285714285714</ele><time>2026-03-28T11:15:04.999Z</time></trkpt><trkpt lat="44.628303733523396" lon="10.148686610798642"><ele>556.7142857142858</ele><time>2026-03-28T11:15:05.999Z</time></trkpt><trkpt lat="44.628337921233424" lon="10.148593065189324"><ele>557.0</ele><time>2026-03-28T11:15:06.999Z</time></trkpt><trkpt lat="44.62837638689811" lon="10.14849822916096"><ele>557.0</ele><time>2026-03-28T11:15:07.999Z</time></trkpt><trkpt lat="44.62841655773219" lon="10.148407302894764"><ele>557.0</ele><time>2026-03-28T11:15:08.999Z</time></trkpt><trkpt lat="44.62845540996609" lon="10.148327944762912"><ele>557.0</ele><time>2026-03-28T11:15:09.999Z</time></trkpt><trkpt lat="44.628514477975465" lon="10.148203700407468"><ele>557.0</ele><time>2026-03-28T11:15:11.999Z</time></trkpt><trkpt lat="44.628586260378334" lon="10.148096623568074"><ele>557.0</ele><time>2026-03-28T11:15:13.999Z</time></trkpt><trkpt lat="44.62865018353042" lon="10.147982529042705"><ele>561.2</ele><time>2026-03-28T11:15:15.999Z</time></trkpt><trkpt lat="44.628711277362925" lon="10.147862808479832"><ele>565.4000000000001</ele><time>2026-03-28T11:15:17.999Z</time></trkpt><trkpt lat="44.628770003611464" lon="10.147797330219161"><ele>569.5999999999999</ele><time>2026-03-28T11:15:19.999Z</time></trkpt><trkpt lat="44.62883205361904" lon="10.147679308796139"><ele>573.8</ele><time>2026-03-28T11:15:21.999Z</time></trkpt><trkpt lat="44.62885717021553" lon="10.147594624098996"><ele>578.0</ele><time>2026-03-28T11:15:22.999Z</time></trkpt><trkpt lat="44.62887308262365" lon="10.14742596549307"><ele>579.3333333333333</ele><time>2026-03-28T11:15:24.999Z</time></trkpt><trkpt lat="44.62885828479193" lon="10.147271912784586"><ele>580.6666666666666</ele><time>2026-03-28T11:15:26.999Z</time></trkpt><trkpt lat="44.628849194478406" lon="10.147160156686462"><ele>582.0</ele><time>2026-03-28T11:15:27.999Z</time></trkpt><trkpt lat="44.6288367967993" lon="10.14704382130287"><ele>583.3333333333334</ele><time>2026-03-28T11:15:29Z</time></trkpt><trkpt lat="44.62881877271225" lon="10.14694865080413"><ele>584.6666666666667</ele><time>2026-03-28T11:15:30Z</time></trkpt><trkpt lat="44.62880499210137" lon="10.14684871176424"><ele>586.0</ele><time>2026-03-28T11:15:31Z</time></trkpt><trkpt lat="44.62878463286295" lon="10.146736475826957"><ele>586.0</ele><time>2026-03-28T11:15:32Z</time></trkpt><trkpt lat="44.628743653700916" lon="10.146625738513643"><ele>586.0</ele><time>2026-03-28T11:15:33Z</time></trkpt><trkpt lat="44.62870166568874" lon="10.146534435068814"><ele>586.0</ele><time>2026-03-28T11:15:34Z</time></trkpt><trkpt lat="44.628674072185945" lon="10.14644549470672"><ele>586.0</ele><time>2026-03-28T11:15:35Z</time></trkpt><trkpt lat="44.62870361040722" lon="10.146294187080745"><ele>586.0</ele><time>2026-03-28T11:15:37Z</time></trkpt><trkpt lat="44.628753340720245" lon="10.146234568545545"><ele>586.0</ele><time>2026-03-28T11:15:38Z</time></trkpt><trkpt lat="44.628824912343326" lon="10.146182450203245"><ele>590.2</ele><time>2026-03-28T11:15:39Z</time></trkpt><trkpt lat="44.62890592881749" lon="10.146126574990678"><ele>594.4000000000001</ele><time>2026-03-28T11:15:40Z</time></trkpt><trkpt lat="44.628989745703116" lon="10.146081317885123"><ele>598.6</ele><time>2026-03-28T11:15:41Z</time></trkpt><trkpt lat="44.629082894677516" lon="10.146059204428008"><ele>602.8000000000001</ele><time>2026-03-28T11:15:42Z</time></trkpt><trkpt lat="44.62917812003707" lon="10.146045573251854"><ele>607.0</ele><time>2026-03-28T11:15:43Z</time></trkpt><trkpt lat="44.62927040477031" lon="10.146029910412631"><ele>606.9999999999999</ele><time>2026-03-28T11:15:44Z</time></trkpt><trkpt lat="44.62934665722957" lon="10.14598546878017"><ele>607.0</ele><time>2026-03-28T11:15:45Z</time></trkpt><trkpt lat="44.629412490594596" lon="10.145934042817926"><ele>607.0</ele><time>2026-03-28T11:15:46Z</time></trkpt><trkpt lat="44.629468198595625" lon="10.14586209651121"><ele>607.0</ele><time>2026-03-28T11:15:47Z</time></trkpt><trkpt lat="44.62949448198868" lon="10.14576944235689"><ele>607.0</ele><time>2026-03-28T11:15:48Z</time></trkpt><trkpt lat="44.629505365801876" lon="10.14566380065753"><ele>606.9999999999999</ele><time>2026-03-28T11:15:49Z</time></trkpt><trkpt lat="44.629519550955294" lon="10.145572165813583"><ele>607.0</ele><time>2026-03-28T11:15:50Z</time></trkpt><trkpt lat="44.62960670274307" lon="10.14550580019014"><ele>607.0</ele><time>2026-03-28T11:15:52Z</time></trkpt><trkpt lat="44.629681877373365" lon="10.145551366360129"><ele>607.0</ele><time>2026-03-28T11:15:53Z</time></trkpt><trkpt lat="44.629764317539994" lon="10.145595337294566"><ele>607.0</ele><time>2026-03-28T11:15:54Z</time></trkpt><trkpt lat="44.629840444124206" lon="10.145660347336024"><ele>607.0</ele><time>2026-03-28T11:15:55Z</time></trkpt><trkpt lat="44.629904022493136" lon="10.145694868545734"><ele>607.0</ele><time>2026-03-28T11:15:56Z</time></trkpt><trkpt lat="44.63000529834402" lon="10.145705197510258"><ele>607.0</ele><time>2026-03-28T11:15:58Z</time></trkpt><trkpt lat="44.630076472416" lon="10.145668360044352"><ele>607.0</ele><time>2026-03-28T11:16:01Z</time></trkpt><trkpt lat="44.63016635687422" lon="10.14559203129286"><ele>607.0</ele><time>2026-03-28T11:16:04Z</time></trkpt><trkpt lat="44.63023070405443" lon="10.145527382911835"><ele>607.0</ele><time>2026-03-28T11:16:05Z</time></trkpt><trkpt lat="44.63028610221403" lon="10.14546733011154"><ele>607.0</ele><time>2026-03-28T11:16:06Z</time></trkpt><trkpt lat="44.63034795369719" lon="10.145434079105515"><ele>607.0</ele><time>2026-03-28T11:16:07Z</time></trkpt><trkpt lat="44.630421649992165" lon="10.145355451125726"><ele>607.0</ele><time>2026-03-28T11:16:09Z</time></trkpt><trkpt lat="44.63049224955765" lon="10.14526547699467"><ele>604.2</ele><time>2026-03-28T11:16:11Z</time></trkpt><trkpt lat="44.630573377452954" lon="10.145151382125306"><ele>601.4000000000001</ele><time>2026-03-28T11:16:13Z</time></trkpt><trkpt lat="44.630611066458826" lon="10.14507526545221"><ele>598.5999999999999</ele><time>2026-03-28T11:16:14Z</time></trkpt><trkpt lat="44.63068987000966" lon="10.144981835577372"><ele>595.8</ele><time>2026-03-28T11:16:16Z</time></trkpt><trkpt lat="44.630743572163844" lon="10.144931493621979"><ele>593.0</ele><time>2026-03-28T11:16:18Z</time></trkpt><trkpt lat="44.63087607299751" lon="10.145090995652318"><ele>593.0</ele><time>2026-03-28T11:16:19Z</time></trkpt><trkpt lat="44.63094530983306" lon="10.145140086290125"><ele>593.0</ele><time>2026-03-28T11:16:20Z</time></trkpt><trkpt lat="44.631041091880356" lon="10.14516689761033"><ele>593.0</ele><time>2026-03-28T11:16:21Z</time></trkpt><trkpt lat="44.63115794587597" lon="10.14513083382063"><ele>593.0</ele><time>2026-03-28T11:16:22Z</time></trkpt><trkpt lat="44.631294005077905" lon="10.145061622102006"><ele>593.0</ele><time>2026-03-28T11:16:23Z</time></trkpt><trkpt lat="44.63142365398362" lon="10.14499009038163"><ele>590.8</ele><time>2026-03-28T11:16:24Z</time></trkpt><trkpt lat="44.631540232443314" lon="10.144945492777802"><ele>588.5999999999999</ele><time>2026-03-28T11:16:25Z</time></trkpt><trkpt lat="44.63164406240491" lon="10.144944090987044"><ele>586.4000000000001</ele><time>2026-03-28T11:16:26Z</time></trkpt><trkpt lat="44.63173480615922" lon="10.14499133002277"><ele>584.2</ele><time>2026-03-28T11:16:27Z</time></trkpt><trkpt lat="44.631820706376644" lon="10.145090966418236"><ele>582.0</ele><time>2026-03-28T11:16:28Z</time></trkpt><trkpt lat="44.631890238091735" lon="10.145216403392773"><ele>582.0</ele><time>2026-03-28T11:16:29Z</time></trkpt><trkpt lat="44.63195002440462" lon="10.14533081195552"><ele>582.0</ele><time>2026-03-28T11:16:30Z</time></trkpt><trkpt lat="44.63200740639621" lon="10.145428665199654"><ele>582.0</ele><time>2026-03-28T11:16:31Z</time></trkpt><trkpt lat="44.63206019270501" lon="10.145510733663862"><ele>582.0</ele><time>2026-03-28T11:16:32Z</time></trkpt><trkpt lat="44.632121004284635" lon="10.145575268191733"><ele>582.0</ele><time>2026-03-28T11:16:33Z</time></trkpt><trkpt lat="44.63220211896644" lon="10.145621229127393"><ele>582.0</ele><time>2026-03-28T11:16:34Z</time></trkpt><trkpt lat="44.632295305130576" lon="10.145649753668105"><ele>580.4</ele><time>2026-03-28T11:16:35Z</time></trkpt><trkpt lat="44.63238328437142" lon="10.145628695427133"><ele>578.8000000000001</ele><time>2026-03-28T11:16:36Z</time></trkpt><trkpt lat="44.63245812694888" lon="10.145567532061706"><ele>577.2</ele><time>2026-03-28T11:16:37Z</time></trkpt><trkpt lat="44.63252631331459" lon="10.145461544309363"><ele>575.6</ele><time>2026-03-28T11:16:37.999Z</time></trkpt><trkpt lat="44.63259048112443" lon="10.145341484176623"><ele>574.0</ele><time>2026-03-28T11:16:38.999Z</time></trkpt><trkpt lat="44.632660254762975" lon="10.145235332059581"><ele>574.0</ele><time>2026-03-28T11:16:39.999Z</time></trkpt><trkpt lat="44.6327373873435" lon="10.145143585903881"><ele>574.0</ele><time>2026-03-28T11:16:40.999Z</time></trkpt><trkpt lat="44.63282249344736" lon="10.14509330322289"><ele>574.0</ele><time>2026-03-28T11:16:41.999Z</time></trkpt><trkpt lat="44.63292571425253" lon="10.145072682357716"><ele>574.0</ele><time>2026-03-28T11:16:42.999Z</time></trkpt><trkpt lat="44.63304018429749" lon="10.145081909345205"><ele>574.0</ele><time>2026-03-28T11:16:43.999Z</time></trkpt><trkpt lat="44.63314607641818" lon="10.14516107509555"><ele>574.5</ele><time>2026-03-28T11:16:44.999Z</time></trkpt><trkpt lat="44.63326651871169" lon="10.145227405085157"><ele>575.0</ele><time>2026-03-28T11:16:45.999Z</time></trkpt><trkpt lat="44.63338026716018" lon="10.145315306863642"><ele>575.5</ele><time>2026-03-28T11:16:46.999Z</time></trkpt><trkpt lat="44.63349445994197" lon="10.145396624122027"><ele>576.0</ele><time>2026-03-28T11:16:47.999Z</time></trkpt><trkpt lat="44.633608488942606" lon="10.145470145400505"><ele>577.5</ele><time>2026-03-28T11:16:48.999Z</time></trkpt><trkpt lat="44.633716963186785" lon="10.145564446390877"><ele>579.0</ele><time>2026-03-28T11:16:49.999Z</time></trkpt><trkpt lat="44.63380752454135" lon="10.145638986526777"><ele>580.5</ele><time>2026-03-28T11:16:50.999Z</time></trkpt><trkpt lat="44.63390786774565" lon="10.145741510586051"><ele>582.0</ele><time>2026-03-28T11:16:51.999Z</time></trkpt><trkpt lat="44.6340030750317" lon="10.145824194786679"><ele>582.0</ele><time>2026-03-28T11:16:52.999Z</time></trkpt><trkpt lat="44.63411765033507" lon="10.14589816030599"><ele>582.0</ele><time>2026-03-28T11:16:53.999Z</time></trkpt><trkpt lat="44.63418711310625" lon="10.145979830215436"><ele>582.0</ele><time>2026-03-28T11:16:54.999Z</time></trkpt><trkpt lat="44.63425761699953" lon="10.146067668633282"><ele>582.0</ele><time>2026-03-28T11:16:55.999Z</time></trkpt><trkpt lat="44.634310741969855" lon="10.146183819924643"><ele>582.0</ele><time>2026-03-28T11:16:56.999Z</time></trkpt><trkpt lat="44.634335276294955" lon="10.14633761806698"><ele>582.0</ele><time>2026-03-28T11:16:57.999Z</time></trkpt><trkpt lat="44.63434835197016" lon="10.146505146826643"><ele>582.0</ele><time>2026-03-28T11:16:58.999Z</time></trkpt><trkpt lat="44.63436028591391" lon="10.14664242060003"><ele>582.0</ele><time>2026-03-28T11:16:59.999Z</time></trkpt><trkpt lat="44.63441160377763" lon="10.146744824357166"><ele>582.0</ele><time>2026-03-28T11:17:00.999Z</time></trkpt><trkpt lat="44.634505528374696" lon="10.146835443890957"><ele>582.0</ele><time>2026-03-28T11:17:01.999Z</time></trkpt><trkpt lat="44.63459969250365" lon="10.14682474130237"><ele>579.6</ele><time>2026-03-28T11:17:02.999Z</time></trkpt><trkpt lat="44.6347095939934" lon="10.146846986701071"><ele>577.2</ele><time>2026-03-28T11:17:03.999Z</time></trkpt><trkpt lat="44.63481121114337" lon="10.146886852793388"><ele>574.8</ele><time>2026-03-28T11:17:04.999Z</time></trkpt><trkpt lat="44.634915153610784" lon="10.146944578193468"><ele>572.4</ele><time>2026-03-28T11:17:05.999Z</time></trkpt><trkpt lat="44.634987552315664" lon="10.147010116548968"><ele>570.0</ele><time>2026-03-28T11:17:06.999Z</time></trkpt><trkpt lat="44.63510223174163" lon="10.147084868230301"><ele>570.0</ele><time>2026-03-28T11:17:07.999Z</time></trkpt><trkpt lat="44.63519459976742" lon="10.147167494409038"><ele>570.0</ele><time>2026-03-28T11:17:08.999Z</time></trkpt><trkpt lat="44.635289484297225" lon="10.147258712277589"><ele>570.0</ele><time>2026-03-28T11:17:09.999Z</time></trkpt><trkpt lat="44.63537535140569" lon="10.14736021529748"><ele>570.0</ele><time>2026-03-28T11:17:10.999Z</time></trkpt><trkpt lat="44.635440635365484" lon="10.147475148883425"><ele>570.0</ele><time>2026-03-28T11:17:11.999Z</time></trkpt><trkpt lat="44.63547392368452" lon="10.147601379425225"><ele>570.0</ele><time>2026-03-28T11:17:12.999Z</time></trkpt><trkpt lat="44.63547730807342" lon="10.14774746220222"><ele>570.0</ele><time>2026-03-28T11:17:13.999Z</time></trkpt><trkpt lat="44.63544963770929" lon="10.14789641026015"><ele>570.0</ele><time>2026-03-28T11:17:14.999Z</time></trkpt><trkpt lat="44.63539323588484" lon="10.148046823312475"><ele>570.0</ele><time>2026-03-28T11:17:15.999Z</time></trkpt><trkpt lat="44.635350160701186" lon="10.148194394725179"><ele>570.0</ele><time>2026-03-28T11:17:16.999Z</time></trkpt><trkpt lat="44.6353317114763" lon="10.148330748260019"><ele>569.25</ele><time>2026-03-28T11:17:17.999Z</time></trkpt><trkpt lat="44.63532502542282" lon="10.14846482049431"><ele>568.5</ele><time>2026-03-28T11:17:18.999Z</time></trkpt><trkpt lat="44.6353486087329" lon="10.148636080031537"><ele>567.75</ele><time>2026-03-28T11:17:19.999Z</time></trkpt><trkpt lat="44.63541269908913" lon="10.148824474162506"><ele>567.0</ele><time>2026-03-28T11:17:20.999Z</time></trkpt><trkpt lat="44.63550942565272" lon="10.148994888946634"><ele>566.6666666666666</ele><time>2026-03-28T11:17:21.999Z</time></trkpt><trkpt lat="44.635630766664676" lon="10.149137949332744"><ele>566.3333333333333</ele><time>2026-03-28T11:17:22.999Z</time></trkpt><trkpt lat="44.635769075757636" lon="10.149253149754367"><ele>566.0</ele><time>2026-03-28T11:17:23.999Z</time></trkpt><trkpt lat="44.63589107804903" lon="10.149371705476014"><ele>566.0</ele><time>2026-03-28T11:17:24.999Z</time></trkpt><trkpt lat="44.635990924102586" lon="10.149506629100266"><ele>566.0</ele><time>2026-03-28T11:17:25.999Z</time></trkpt><trkpt lat="44.63608646603708" lon="10.149637445455154"><ele>566.0</ele><time>2026-03-28T11:17:26.999Z</time></trkpt><trkpt lat="44.636184184022255" lon="10.149753125122034"><ele>566.0</ele><time>2026-03-28T11:17:27.999Z</time></trkpt><trkpt lat="44.63628082819708" lon="10.14986320473321"><ele>564.75</ele><time>2026-03-28T11:17:28.999Z</time></trkpt><trkpt lat="44.63637541019725" lon="10.149957939060132"><ele>563.5</ele><time>2026-03-28T11:17:29.999Z</time></trkpt><trkpt lat="44.636472185076435" lon="10.150030241400383"><ele>562.25</ele><time>2026-03-28T11:17:30.999Z</time></trkpt><trkpt lat="44.63658836404553" lon="10.150092571913493"><ele>561.0</ele><time>2026-03-28T11:17:31.999Z</time></trkpt><trkpt lat="44.636703627203666" lon="10.150154541813977"><ele>561.0</ele><time>2026-03-28T11:17:32.999Z</time></trkpt><trkpt lat="44.63680940652263" lon="10.150218805525059"><ele>561.0</ele><time>2026-03-28T11:17:33.999Z</time></trkpt><trkpt lat="44.63689866657797" lon="10.150313679037025"><ele>561.0</ele><time>2026-03-28T11:17:35Z</time></trkpt><trkpt lat="44.63699060049628" lon="10.150394194142082"><ele>561.0</ele><time>2026-03-28T11:17:36Z</time></trkpt><trkpt lat="44.63708604259411" lon="10.15045229293289"><ele>561.0</ele><time>2026-03-28T11:17:37Z</time></trkpt><trkpt lat="44.63717174469802" lon="10.150533177164778"><ele>559.8</ele><time>2026-03-28T11:17:38Z</time></trkpt><trkpt lat="44.637285841043656" lon="10.150610944327608"><ele>558.6</ele><time>2026-03-28T11:17:39Z</time></trkpt><trkpt lat="44.637392595075255" lon="10.15067091292309"><ele>557.4</ele><time>2026-03-28T11:17:40Z</time></trkpt><trkpt lat="44.63748906732358" lon="10.150729252658191"><ele>556.2</ele><time>2026-03-28T11:17:41Z</time></trkpt><trkpt lat="44.63757763225097" lon="10.150777547313009"><ele>555.0</ele><time>2026-03-28T11:17:42Z</time></trkpt><trkpt lat="44.637673882633905" lon="10.150840469064622"><ele>555.0</ele><time>2026-03-28T11:17:43Z</time></trkpt><trkpt lat="44.63777285428704" lon="10.150918342974663"><ele>555.0</ele><time>2026-03-28T11:17:44Z</time></trkpt><trkpt lat="44.637870201352065" lon="10.151007854080776"><ele>555.0</ele><time>2026-03-28T11:17:45Z</time></trkpt><trkpt lat="44.63794960043813" lon="10.151105376014817"><ele>555.0</ele><time>2026-03-28T11:17:46Z</time></trkpt><trkpt lat="44.63801640466644" lon="10.151209817175094"><ele>555.0</ele><time>2026-03-28T11:17:47Z</time></trkpt><trkpt lat="44.63806337650782" lon="10.15133426008604"><ele>551.25</ele><time>2026-03-28T11:17:48Z</time></trkpt><trkpt lat="44.63807372462227" lon="10.151505734913847"><ele>547.5</ele><time>2026-03-28T11:17:49Z</time></trkpt><trkpt lat="44.63809366879752" lon="10.151688115310199"><ele>543.75</ele><time>2026-03-28T11:17:50Z</time></trkpt><trkpt lat="44.63808995491548" lon="10.151866552522028"><ele>540.0</ele><time>2026-03-28T11:17:51Z</time></trkpt><trkpt lat="44.63807193770079" lon="10.152036790298295"><ele>540.0</ele><time>2026-03-28T11:17:52Z</time></trkpt><trkpt lat="44.63803940962139" lon="10.152201491532011"><ele>540.0</ele><time>2026-03-28T11:17:53Z</time></trkpt><trkpt lat="44.63799851350113" lon="10.152395376061738"><ele>540.0</ele><time>2026-03-28T11:17:54Z</time></trkpt><trkpt lat="44.63795909109981" lon="10.152575304075386"><ele>540.0</ele><time>2026-03-28T11:17:55Z</time></trkpt><trkpt lat="44.63793262035648" lon="10.152729271368049"><ele>539.4</ele><time>2026-03-28T11:17:56Z</time></trkpt><trkpt lat="44.63793529048505" lon="10.152861299204146"><ele>538.8</ele><time>2026-03-28T11:17:57Z</time></trkpt><trkpt lat="44.63797806047893" lon="10.152983691287169"><ele>538.2</ele><time>2026-03-28T11:17:58Z</time></trkpt><trkpt lat="44.63806271058298" lon="10.153090125272797"><ele>537.6</ele><time>2026-03-28T11:17:59Z</time></trkpt><trkpt lat="44.63817787045543" lon="10.153189358909822"><ele>537.0</ele><time>2026-03-28T11:18:00Z</time></trkpt><trkpt lat="44.63827669378086" lon="10.153319849060754"><ele>537.0</ele><time>2026-03-28T11:18:01Z</time></trkpt><trkpt lat="44.63835843461525" lon="10.153487168465967"><ele>537.0</ele><time>2026-03-28T11:18:02Z</time></trkpt><trkpt lat="44.63841352826147" lon="10.153663348755265"><ele>537.0</ele><time>2026-03-28T11:18:03Z</time></trkpt><trkpt lat="44.63843204917316" lon="10.153859288984538"><ele>537.0</ele><time>2026-03-28T11:18:04Z</time></trkpt><trkpt lat="44.63846980215496" lon="10.154082785681817"><ele>538.3333333333334</ele><time>2026-03-28T11:18:05Z</time></trkpt><trkpt lat="44.63848285697834" lon="10.154316891474641"><ele>539.6666666666667</ele><time>2026-03-28T11:18:06Z</time></trkpt><trkpt lat="44.63850359028355" lon="10.154553503715144"><ele>541.0</ele><time>2026-03-28T11:18:07Z</time></trkpt><trkpt lat="44.63852295690688" lon="10.154781630930128"><ele>541.75</ele><time>2026-03-28T11:18:08Z</time></trkpt><trkpt lat="44.63853730689881" lon="10.155008746086516"><ele>542.5</ele><time>2026-03-28T11:18:09Z</time></trkpt><trkpt lat="44.63854595686262" lon="10.155211338369"><ele>543.25</ele><time>2026-03-28T11:18:10Z</time></trkpt><trkpt lat="44.63855130661384" lon="10.15540545957007"><ele>544.0</ele><time>2026-03-28T11:18:11Z</time></trkpt><trkpt lat="44.63854612126648" lon="10.155564881278178"><ele>544.0</ele><time>2026-03-28T11:18:12Z</time></trkpt><trkpt lat="44.63852928002631" lon="10.155689713757273"><ele>544.0</ele><time>2026-03-28T11:18:13Z</time></trkpt><trkpt lat="44.63854579474072" lon="10.155784210297913"><ele>544.0</ele><time>2026-03-28T11:18:14Z</time></trkpt><trkpt lat="44.638556565401764" lon="10.1559283482905"><ele>544.0</ele><time>2026-03-28T11:18:16Z</time></trkpt><trkpt lat="44.638596131661124" lon="10.156031223223362"><ele>544.0</ele><time>2026-03-28T11:18:18Z</time></trkpt><trkpt lat="44.638645839738665" lon="10.156136642838868"><ele>544.0</ele><time>2026-03-28T11:18:20Z</time></trkpt><trkpt lat="44.63869950151757" lon="10.15628344044557"><ele>539.0</ele><time>2026-03-28T11:18:22Z</time></trkpt><trkpt lat="44.638725169664674" lon="10.156365929491177"><ele>534.0</ele><time>2026-03-28T11:18:23Z</time></trkpt><trkpt lat="44.63874668300847" lon="10.156465695130317"><ele>529.0</ele><time>2026-03-28T11:18:24Z</time></trkpt><trkpt lat="44.638768202613534" lon="10.156585397552375"><ele>524.0</ele><time>2026-03-28T11:18:25Z</time></trkpt><trkpt lat="44.638766469749264" lon="10.156719385004319"><ele>519.0</ele><time>2026-03-28T11:18:26Z</time></trkpt><trkpt lat="44.63873308522445" lon="10.156852360585457"><ele>514.0</ele><time>2026-03-28T11:18:27Z</time></trkpt><trkpt lat="44.638638081563585" lon="10.157017780831957"><ele>515.1666666666667</ele><time>2026-03-28T11:18:28Z</time></trkpt><trkpt lat="44.638584888420475" lon="10.157110085055132"><ele>516.3333333333334</ele><time>2026-03-28T11:18:29Z</time></trkpt><trkpt lat="44.6385171237109" lon="10.157217263953507"><ele>517.5</ele><time>2026-03-28T11:18:30Z</time></trkpt><trkpt lat="44.638453323477684" lon="10.157324818590537"><ele>518.6666666666666</ele><time>2026-03-28T11:18:31Z</time></trkpt><trkpt lat="44.63839272962099" lon="10.15740959015484"><ele>519.8333333333333</ele><time>2026-03-28T11:18:32Z</time></trkpt><trkpt lat="44.63834494245071" lon="10.15747294471513"><ele>521.0</ele><time>2026-03-28T11:18:33Z</time></trkpt><trkpt lat="44.63829541619526" lon="10.157529449669612"><ele>521.0</ele><time>2026-03-28T11:18:34.999Z</time></trkpt><trkpt lat="44.63826889322017" lon="10.157629381589683"><ele>521.0</ele><time>2026-03-28T11:18:54.999Z</time></trkpt><trkpt lat="44.63830978497637" lon="10.15772552360585"><ele>521.0</ele><time>2026-03-28T11:18:57.999Z</time></trkpt><trkpt lat="44.63839135020129" lon="10.157765699232051"><ele>521.0</ele><time>2026-03-28T11:19:00.999Z</time></trkpt><trkpt lat="44.638451320721764" lon="10.1577142257338"><ele>521.0</ele><time>2026-03-28T11:19:03.999Z</time></trkpt><trkpt lat="44.638586559809994" lon="10.1576144879307"><ele>517.0</ele><time>2026-03-28T11:19:05.999Z</time></trkpt><trkpt lat="44.638672040824" lon="10.157522948710511"><ele>513.0</ele><time>2026-03-28T11:19:06.999Z</time></trkpt><trkpt lat="44.638767712727926" lon="10.157446155649833"><ele>509.0</ele><time>2026-03-28T11:19:07.999Z</time></trkpt><trkpt lat="44.638875587096585" lon="10.15741351839758"><ele>505.0</ele><time>2026-03-28T11:19:08.999Z</time></trkpt><trkpt lat="44.63900176004923" lon="10.157411413894591"><ele>505.0</ele><time>2026-03-28T11:19:09.999Z</time></trkpt><trkpt lat="44.63912674666153" lon="10.157400745068678"><ele>505.0</ele><time>2026-03-28T11:19:10.999Z</time></trkpt><trkpt lat="44.6392360213878" lon="10.15741717679659"><ele>505.0</ele><time>2026-03-28T11:19:11.999Z</time></trkpt><trkpt lat="44.639327449589096" lon="10.157330314293612"><ele>505.0</ele><time>2026-03-28T11:19:12.999Z</time></trkpt><trkpt lat="44.639411430037406" lon="10.157212162990785"><ele>506.8</ele><time>2026-03-28T11:19:13.999Z</time></trkpt><trkpt lat="44.63948660435765" lon="10.15711641112554"><ele>508.6</ele><time>2026-03-28T11:19:14.999Z</time></trkpt><trkpt lat="44.639519696056375" lon="10.157007963586073"><ele>510.4</ele><time>2026-03-28T11:19:15.999Z</time></trkpt><trkpt lat="44.63953568807957" lon="10.156889842343604"><ele>512.2</ele><time>2026-03-28T11:19:16.999Z</time></trkpt><trkpt lat="44.639471545038084" lon="10.156743338712744"><ele>514.0</ele><time>2026-03-28T11:19:17.999Z</time></trkpt><trkpt lat="44.63944631768295" lon="10.156604838563167"><ele>512.8</ele><time>2026-03-28T11:19:18.999Z</time></trkpt><trkpt lat="44.63942617378142" lon="10.156499455272519"><ele>511.59999999999997</ele><time>2026-03-28T11:19:19.999Z</time></trkpt><trkpt lat="44.63949615232768" lon="10.156417826944729"><ele>510.4</ele><time>2026-03-28T11:19:21.999Z</time></trkpt><trkpt lat="44.6395862921008" lon="10.156408883679008"><ele>509.2</ele><time>2026-03-28T11:19:22.999Z</time></trkpt><trkpt lat="44.63972122812465" lon="10.156397983710296"><ele>508.0</ele><time>2026-03-28T11:19:23.999Z</time></trkpt><trkpt lat="44.63987496147655" lon="10.156378250578404"><ele>501.25</ele><time>2026-03-28T11:19:24.999Z</time></trkpt><trkpt lat="44.64002889260245" lon="10.156384467759251"><ele>494.5</ele><time>2026-03-28T11:19:25.999Z</time></trkpt><trkpt lat="44.640166996153916" lon="10.15638061175186"><ele>487.75</ele><time>2026-03-28T11:19:26.999Z</time></trkpt><trkpt lat="44.64029484673504" lon="10.156359095255443"><ele>481.0</ele><time>2026-03-28T11:19:27.999Z</time></trkpt><trkpt lat="44.640420239706565" lon="10.156328776862123"><ele>480.4</ele><time>2026-03-28T11:19:28.999Z</time></trkpt><trkpt lat="44.640543111124494" lon="10.156294653613795"><ele>479.8</ele><time>2026-03-28T11:19:29.999Z</time></trkpt><trkpt lat="44.64068933364692" lon="10.156306564318957"><ele>479.19999999999993</ele><time>2026-03-28T11:19:30.999Z</time></trkpt><trkpt lat="44.640756221087265" lon="10.15631445966498"><ele>478.59999999999997</ele><time>2026-03-28T11:19:31.999Z</time></trkpt><trkpt lat="44.640832653768435" lon="10.156369361053885"><ele>478.0</ele><time>2026-03-28T11:19:32.999Z</time></trkpt><trkpt lat="44.640899428434096" lon="10.156463099840508"><ele>479.0</ele><time>2026-03-28T11:19:33.999Z</time></trkpt><trkpt lat="44.64089597720994" lon="10.156590250990906"><ele>479.99999999999994</ele><time>2026-03-28T11:19:34.999Z</time></trkpt><trkpt lat="44.64090844129192" lon="10.15673397987224"><ele>480.99999999999994</ele><time>2026-03-28T11:19:35.999Z</time></trkpt><trkpt lat="44.64091982599937" lon="10.156924892721442"><ele>482.0</ele><time>2026-03-28T11:19:36.999Z</time></trkpt><trkpt lat="44.640925962791194" lon="10.157054096647833"><ele>483.0</ele><time>2026-03-28T11:19:37.999Z</time></trkpt><trkpt lat="44.64093023624603" lon="10.157196638985821"><ele>483.0</ele><time>2026-03-28T11:19:38.999Z</time></trkpt><trkpt lat="44.64094210384764" lon="10.157332340045501"><ele>483.0</ele><time>2026-03-28T11:19:39.999Z</time></trkpt><trkpt lat="44.640958612778924" lon="10.157498892085028"><ele>483.0</ele><time>2026-03-28T11:19:41Z</time></trkpt><trkpt lat="44.64098370836726" lon="10.157667091917336"><ele>483.0</ele><time>2026-03-28T11:19:42Z</time></trkpt><trkpt lat="44.64098221844038" lon="10.157831751503103"><ele>482.0</ele><time>2026-03-28T11:19:43Z</time></trkpt><trkpt lat="44.64100869537963" lon="10.157997329334805"><ele>480.99999999999994</ele><time>2026-03-28T11:19:44Z</time></trkpt><trkpt lat="44.64103280639767" lon="10.15814468486299"><ele>479.99999999999994</ele><time>2026-03-28T11:19:45Z</time></trkpt><trkpt lat="44.64104436688651" lon="10.158293559230497"><ele>479.0</ele><time>2026-03-28T11:19:46Z</time></trkpt><trkpt lat="44.64102900546448" lon="10.15842708577022"><ele>478.0</ele><time>2026-03-28T11:19:47Z</time></trkpt><trkpt lat="44.64098324831295" lon="10.158546084161976"><ele>476.25</ele><time>2026-03-28T11:19:48Z</time></trkpt><trkpt lat="44.64089786711939" lon="10.158650243790705"><ele>474.5</ele><time>2026-03-28T11:19:49Z</time></trkpt><trkpt lat="44.640790779882785" lon="10.158740331724056"><ele>472.75</ele><time>2026-03-28T11:19:50Z</time></trkpt><trkpt lat="44.64068755977428" lon="10.158825514496993"><ele>471.0</ele><time>2026-03-28T11:19:51Z</time></trkpt><trkpt lat="44.64059125498944" lon="10.158905932729837"><ele>471.0</ele><time>2026-03-28T11:19:52Z</time></trkpt><trkpt lat="44.640497747907425" lon="10.15900400054568"><ele>471.0</ele><time>2026-03-28T11:19:53Z</time></trkpt><trkpt lat="44.64041101308066" lon="10.15911303739857"><ele>471.0</ele><time>2026-03-28T11:19:54Z</time></trkpt><trkpt lat="44.640338488402755" lon="10.159232829064315"><ele>471.0</ele><time>2026-03-28T11:19:55Z</time></trkpt><trkpt lat="44.64027154775604" lon="10.159385420760147"><ele>471.25</ele><time>2026-03-28T11:19:56Z</time></trkpt><trkpt lat="44.64021193022685" lon="10.159556846941703"><ele>471.5</ele><time>2026-03-28T11:19:57Z</time></trkpt><trkpt lat="44.64016599846816" lon="10.159710431483825"><ele>471.75</ele><time>2026-03-28T11:19:58Z</time></trkpt><trkpt lat="44.640117796838474" lon="10.159865020152866"><ele>472.0</ele><time>2026-03-28T11:19:59Z</time></trkpt><trkpt lat="44.64007240621511" lon="10.16001984061482"><ele>469.0</ele><time>2026-03-28T11:20:00Z</time></trkpt><trkpt lat="44.64001761732706" lon="10.160172196255846"><ele>466.0</ele><time>2026-03-28T11:20:01Z</time></trkpt><trkpt lat="44.63993745177095" lon="10.160304396408469"><ele>463.0</ele><time>2026-03-28T11:20:02Z</time></trkpt><trkpt lat="44.63984414628599" lon="10.160411510850103"><ele>460.0</ele><time>2026-03-28T11:20:03Z</time></trkpt><trkpt lat="44.63975064546649" lon="10.16051443282965"><ele>460.0</ele><time>2026-03-28T11:20:04Z</time></trkpt><trkpt lat="44.6396601561631" lon="10.160614089322696"><ele>460.0</ele><time>2026-03-28T11:20:05Z</time></trkpt><trkpt lat="44.639573945163654" lon="10.1607008108782"><ele>460.0</ele><time>2026-03-28T11:20:06Z</time></trkpt><trkpt lat="44.63948861687173" lon="10.160789679779116"><ele>460.0</ele><time>2026-03-28T11:20:07Z</time></trkpt><trkpt lat="44.639406557627815" lon="10.160883297415703"><ele>460.0</ele><time>2026-03-28T11:20:08Z</time></trkpt><trkpt lat="44.639332978153746" lon="10.160981923774616"><ele>458.5</ele><time>2026-03-28T11:20:09Z</time></trkpt><trkpt lat="44.63926595594028" lon="10.161093787796403"><ele>457.0</ele><time>2026-03-28T11:20:10Z</time></trkpt><trkpt lat="44.639216757357495" lon="10.161236099011374"><ele>455.5</ele><time>2026-03-28T11:20:11Z</time></trkpt><trkpt lat="44.63917665117345" lon="10.161411924363703"><ele>454.0</ele><time>2026-03-28T11:20:12Z</time></trkpt><trkpt lat="44.63915046357357" lon="10.16158742430883"><ele>451.75</ele><time>2026-03-28T11:20:13Z</time></trkpt><trkpt lat="44.63910959607202" lon="10.161746397966665"><ele>449.5</ele><time>2026-03-28T11:20:14Z</time></trkpt><trkpt lat="44.639053312403114" lon="10.161892173628582"><ele>447.25</ele><time>2026-03-28T11:20:15Z</time></trkpt><trkpt lat="44.63899854319665" lon="10.162024680714355"><ele>445.0</ele><time>2026-03-28T11:20:16Z</time></trkpt><trkpt lat="44.638942118708094" lon="10.16215156168158"><ele>445.0</ele><time>2026-03-28T11:20:17Z</time></trkpt><trkpt lat="44.63888427300685" lon="10.162236945185759"><ele>445.0</ele><time>2026-03-28T11:20:18Z</time></trkpt><trkpt lat="44.638810148792935" lon="10.162267123332501"><ele>445.0</ele><time>2026-03-28T11:20:19Z</time></trkpt><trkpt lat="44.6387147091531" lon="10.162236204145012"><ele>445.0</ele><time>2026-03-28T11:20:20Z</time></trkpt><trkpt lat="44.638615135091705" lon="10.16219031410671"><ele>445.0</ele><time>2026-03-28T11:20:21Z</time></trkpt><trkpt lat="44.638504289149814" lon="10.162162006957626"><ele>443.75</ele><time>2026-03-28T11:20:22Z</time></trkpt><trkpt lat="44.63839404079675" lon="10.162108341132415"><ele>442.5</ele><time>2026-03-28T11:20:23Z</time></trkpt><trkpt lat="44.63827960984817" lon="10.162057931983218"><ele>441.25</ele><time>2026-03-28T11:20:24Z</time></trkpt><trkpt lat="44.63815371255849" lon="10.162014958379022"><ele>440.0</ele><time>2026-03-28T11:20:25Z</time></trkpt><trkpt lat="44.63803534902126" lon="10.161979791437236"><ele>440.0</ele><time>2026-03-28T11:20:26Z</time></trkpt><trkpt lat="44.63791996574502" lon="10.161950825127919"><ele>440.0</ele><time>2026-03-28T11:20:27Z</time></trkpt><trkpt lat="44.637811267992376" lon="10.161924081576881"><ele>440.0</ele><time>2026-03-28T11:20:28Z</time></trkpt><trkpt lat="44.637705023823706" lon="10.161889837679071"><ele>440.0</ele><time>2026-03-28T11:20:29Z</time></trkpt><trkpt lat="44.637591954200936" lon="10.16184421492502"><ele>438.8</ele><time>2026-03-28T11:20:30Z</time></trkpt><trkpt lat="44.63749158886732" lon="10.16177331174849"><ele>437.6</ele><time>2026-03-28T11:20:31Z</time></trkpt><trkpt lat="44.637391115472084" lon="10.161740934627725"><ele>436.4</ele><time>2026-03-28T11:20:32Z</time></trkpt><trkpt lat="44.637300067137055" lon="10.161705279233592"><ele>435.2</ele><time>2026-03-28T11:20:33Z</time></trkpt><trkpt lat="44.63723485231555" lon="10.161678671519702"><ele>434.0</ele><time>2026-03-28T11:20:34Z</time></trkpt><trkpt lat="44.6371588752384" lon="10.16169157995715"><ele>434.0</ele><time>2026-03-28T11:20:36Z</time></trkpt><trkpt lat="44.637107212282565" lon="10.161785550575164"><ele>434.0</ele><time>2026-03-28T11:20:38Z</time></trkpt><trkpt lat="44.637103143071236" lon="10.161878360263028"><ele>434.0</ele><time>2026-03-28T11:20:39Z</time></trkpt><trkpt lat="44.6371220802372" lon="10.162002103026735"><ele>434.0</ele><time>2026-03-28T11:20:40Z</time></trkpt><trkpt lat="44.63716688943074" lon="10.162153614798127"><ele>434.0</ele><time>2026-03-28T11:20:41Z</time></trkpt><trkpt lat="44.637234867524874" lon="10.16229333218503"><ele>431.0</ele><time>2026-03-28T11:20:42Z</time></trkpt><trkpt lat="44.63732242455472" lon="10.162417589293653"><ele>428.0</ele><time>2026-03-28T11:20:43Z</time></trkpt><trkpt lat="44.637427541422305" lon="10.16252076067478"><ele>425.0</ele><time>2026-03-28T11:20:44Z</time></trkpt><trkpt lat="44.63752868626901" lon="10.162607104180351"><ele>422.0</ele><time>2026-03-28T11:20:45Z</time></trkpt><trkpt lat="44.63762267924295" lon="10.162700202401584"><ele>422.0</ele><time>2026-03-28T11:20:46Z</time></trkpt><trkpt lat="44.637720811340365" lon="10.162797802223537"><ele>422.0</ele><time>2026-03-28T11:20:46.999Z</time></trkpt><trkpt lat="44.63783104622598" lon="10.162910382428935"><ele>422.0</ele><time>2026-03-28T11:20:47.999Z</time></trkpt><trkpt lat="44.63794478699388" lon="10.163018954178876"><ele>422.0</ele><time>2026-03-28T11:20:48.999Z</time></trkpt><trkpt lat="44.63806857577665" lon="10.163137902758379"><ele>421.0</ele><time>2026-03-28T11:20:49.999Z</time></trkpt><trkpt lat="44.63819557572573" lon="10.163273497401512"><ele>420.0</ele><time>2026-03-28T11:20:50.999Z</time></trkpt><trkpt lat="44.63831820422275" lon="10.163436605455265"><ele>419.0</ele><time>2026-03-28T11:20:51.999Z</time></trkpt><trkpt lat="44.63842725685464" lon="10.163605058254214"><ele>419.0</ele><time>2026-03-28T11:20:52.999Z</time></trkpt><trkpt lat="44.63851826760183" lon="10.163731446768681"><ele>419.0</ele><time>2026-03-28T11:20:53.999Z</time></trkpt><trkpt lat="44.638600833698064" lon="10.163831514642316"><ele>419.0</ele><time>2026-03-28T11:20:54.999Z</time></trkpt><trkpt lat="44.63868584726437" lon="10.163900512688793"><ele>419.0</ele><time>2026-03-28T11:20:55.999Z</time></trkpt><trkpt lat="44.63879832935821" lon="10.16393225965315"><ele>419.0</ele><time>2026-03-28T11:20:56.999Z</time></trkpt><trkpt lat="44.638937070406094" lon="10.163950128516547"><ele>419.0</ele><time>2026-03-28T11:20:57.999Z</time></trkpt><trkpt lat="44.63908352620671" lon="10.163959547542333"><ele>419.0</ele><time>2026-03-28T11:20:58.999Z</time></trkpt><trkpt lat="44.63922993340354" lon="10.163971999870068"><ele>419.0</ele><time>2026-03-28T11:20:59.999Z</time></trkpt><trkpt lat="44.63937691964494" lon="10.163995022060726"><ele>417.5</ele><time>2026-03-28T11:21:00.999Z</time></trkpt><trkpt lat="44.63951197430835" lon="10.164018784526018"><ele>416.0</ele><time>2026-03-28T11:21:01.999Z</time></trkpt><trkpt lat="44.63964860452789" lon="10.164041305716779"><ele>414.5</ele><time>2026-03-28T11:21:02.999Z</time></trkpt><trkpt lat="44.639786924955835" lon="10.164039620900022"><ele>413.0</ele><time>2026-03-28T11:21:03.999Z</time></trkpt><trkpt lat="44.63993406465596" lon="10.164036427348655"><ele>413.0</ele><time>2026-03-28T11:21:04.999Z</time></trkpt><trkpt lat="44.64007429861992" lon="10.164017018520223"><ele>413.0</ele><time>2026-03-28T11:21:05.999Z</time></trkpt><trkpt lat="44.64021396153136" lon="10.16402491078525"><ele>413.0</ele><time>2026-03-28T11:21:06.999Z</time></trkpt><trkpt lat="44.64033572250709" lon="10.164082666726143"><ele>413.0</ele><time>2026-03-28T11:21:07.999Z</time></trkpt><trkpt lat="44.64044174852852" lon="10.164200894768422"><ele>410.0</ele><time>2026-03-28T11:21:08.999Z</time></trkpt><trkpt lat="44.64052909743156" lon="10.164375954675178"><ele>407.0</ele><time>2026-03-28T11:21:09.999Z</time></trkpt><trkpt lat="44.64061238397328" lon="10.164571484386247"><ele>404.0</ele><time>2026-03-28T11:21:10.999Z</time></trkpt><trkpt lat="44.640681164494865" lon="10.164775466071465"><ele>400.0</ele><time>2026-03-28T11:21:11.999Z</time></trkpt><trkpt lat="44.64075820585749" lon="10.16497268664046"><ele>396.0</ele><time>2026-03-28T11:21:12.999Z</time></trkpt><trkpt lat="44.64084077995056" lon="10.165178718550322"><ele>392.0</ele><time>2026-03-28T11:21:13.999Z</time></trkpt><trkpt lat="44.64091293596887" lon="10.165370523621702"><ele>392.0</ele><time>2026-03-28T11:21:14.999Z</time></trkpt><trkpt lat="44.64098446173983" lon="10.165550839151829"><ele>392.0</ele><time>2026-03-28T11:21:15.999Z</time></trkpt><trkpt lat="44.641056505252436" lon="10.165730662121938"><ele>392.0</ele><time>2026-03-28T11:21:16.999Z</time></trkpt><trkpt lat="44.64112882481667" lon="10.165902809801084"><ele>392.0</ele><time>2026-03-28T11:21:17.999Z</time></trkpt><trkpt lat="44.641214157189026" lon="10.166074921805988"><ele>393.5</ele><time>2026-03-28T11:21:18.999Z</time></trkpt><trkpt lat="44.64130232563396" lon="10.16623634405577"><ele>395.0</ele><time>2026-03-28T11:21:19.999Z</time></trkpt><trkpt lat="44.64138922149838" lon="10.166397381079594"><ele>396.5</ele><time>2026-03-28T11:21:20.999Z</time></trkpt><trkpt lat="44.64146207303411" lon="10.166557585820746"><ele>398.0</ele><time>2026-03-28T11:21:21.999Z</time></trkpt><trkpt lat="44.64152874676559" lon="10.166717984000993"><ele>394.25</ele><time>2026-03-28T11:21:22.999Z</time></trkpt><trkpt lat="44.64157671962154" lon="10.16689577398025"><ele>390.5</ele><time>2026-03-28T11:21:23.999Z</time></trkpt><trkpt lat="44.64160327952317" lon="10.167082390459232"><ele>386.75</ele><time>2026-03-28T11:21:24.999Z</time></trkpt><trkpt lat="44.641634943508386" lon="10.167275689597453"><ele>383.0</ele><time>2026-03-28T11:21:25.999Z</time></trkpt><trkpt lat="44.64169076304252" lon="10.167454933302391"><ele>384.59999999999997</ele><time>2026-03-28T11:21:26.999Z</time></trkpt><trkpt lat="44.64176873864794" lon="10.167602722374665"><ele>386.2</ele><time>2026-03-28T11:21:27.999Z</time></trkpt><trkpt lat="44.64186482935314" lon="10.167731009345523"><ele>387.8</ele><time>2026-03-28T11:21:28.999Z</time></trkpt><trkpt lat="44.641945163033306" lon="10.167822190212915"><ele>389.4</ele><time>2026-03-28T11:21:29.999Z</time></trkpt><trkpt lat="44.64198254407648" lon="10.167918745720897"><ele>391.0</ele><time>2026-03-28T11:21:30.999Z</time></trkpt><trkpt lat="44.64199165727251" lon="10.168059441004582"><ele>387.20000000000005</ele><time>2026-03-28T11:21:32.999Z</time></trkpt><trkpt lat="44.641930104748766" lon="10.168099073007145"><ele>383.40000000000003</ele><time>2026-03-28T11:21:33.999Z</time></trkpt><trkpt lat="44.64185499555885" lon="10.168075072755816"><ele>379.6</ele><time>2026-03-28T11:21:34.999Z</time></trkpt><trkpt lat="44.64178621288487" lon="10.167968996111739"><ele>375.8</ele><time>2026-03-28T11:21:35.999Z</time></trkpt><trkpt lat="44.64166621019684" lon="10.167866583237563"><ele>372.0</ele><time>2026-03-28T11:21:36.999Z</time></trkpt><trkpt lat="44.64155642088595" lon="10.16778248003645"><ele>372.0</ele><time>2026-03-28T11:21:37.999Z</time></trkpt><trkpt lat="44.64144255053026" lon="10.167689127988156"><ele>372.0</ele><time>2026-03-28T11:21:38.999Z</time></trkpt><trkpt lat="44.64133277825947" lon="10.167600430088626"><ele>372.0</ele><time>2026-03-28T11:21:39.999Z</time></trkpt><trkpt lat="44.64123035104564" lon="10.167503580623386"><ele>372.0</ele><time>2026-03-28T11:21:40.999Z</time></trkpt><trkpt lat="44.64112348774202" lon="10.167397456768967"><ele>371.0</ele><time>2026-03-28T11:21:41.999Z</time></trkpt><trkpt lat="44.6410095062391" lon="10.167313178427491"><ele>370.0</ele><time>2026-03-28T11:21:42.999Z</time></trkpt><trkpt lat="44.64089815006751" lon="10.16727978801708"><ele>369.0</ele><time>2026-03-28T11:21:43.999Z</time></trkpt><trkpt lat="44.64078203648227" lon="10.167289113624149"><ele>368.0</ele><time>2026-03-28T11:21:44.999Z</time></trkpt><trkpt lat="44.64068057652171" lon="10.167349112020538"><ele>364.75</ele><time>2026-03-28T11:21:45.999Z</time></trkpt><trkpt lat="44.640604197574675" lon="10.167448909208208"><ele>361.5</ele><time>2026-03-28T11:21:47Z</time></trkpt><trkpt lat="44.6405436776064" lon="10.16759880603248"><ele>358.25</ele><time>2026-03-28T11:21:48Z</time></trkpt><trkpt lat="44.640478637025495" lon="10.167754862198903"><ele>355.0</ele><time>2026-03-28T11:21:49Z</time></trkpt><trkpt lat="44.64039783152588" lon="10.16789453572002"><ele>355.0</ele><time>2026-03-28T11:21:50Z</time></trkpt><trkpt lat="44.640309153109605" lon="10.168027896796977"><ele>355.0</ele><time>2026-03-28T11:21:51Z</time></trkpt><trkpt lat="44.640215670043325" lon="10.168173859469508"><ele>355.0</ele><time>2026-03-28T11:21:52Z</time></trkpt><trkpt lat="44.64012009644704" lon="10.168308209220923"><ele>355.0</ele><time>2026-03-28T11:21:53Z</time></trkpt><trkpt lat="44.64001848150688" lon="10.168438424761467"><ele>352.75</ele><time>2026-03-28T11:21:54Z</time></trkpt><trkpt lat="44.639906343997126" lon="10.168562209088767"><ele>350.5</ele><time>2026-03-28T11:21:55Z</time></trkpt><trkpt lat="44.6397934717234" lon="10.168678146586398"><ele>348.25</ele><time>2026-03-28T11:21:56Z</time></trkpt><trkpt lat="44.63970070017224" lon="10.168810960037282"><ele>346.0</ele><time>2026-03-28T11:21:57Z</time></trkpt><trkpt lat="44.639637600515506" lon="10.168936971620488"><ele>346.0</ele><time>2026-03-28T11:21:58Z</time></trkpt><trkpt lat="44.6395576365203" lon="10.16902080155119"><ele>346.0</ele><time>2026-03-28T11:21:59Z</time></trkpt><trkpt lat="44.63943978843246" lon="10.169011162803782"><ele>346.0</ele><time>2026-03-28T11:22:00Z</time></trkpt><trkpt lat="44.639302090279884" lon="10.168994296486341"><ele>346.0</ele><time>2026-03-28T11:22:01Z</time></trkpt><trkpt lat="44.639168954405314" lon="10.16900941421597"><ele>342.0</ele><time>2026-03-28T11:22:02Z</time></trkpt><trkpt lat="44.63904178595872" lon="10.169052746402647"><ele>338.0</ele><time>2026-03-28T11:22:03Z</time></trkpt><trkpt lat="44.63889994503654" lon="10.169154778035349"><ele>334.0</ele><time>2026-03-28T11:22:04Z</time></trkpt><trkpt lat="44.638746760910166" lon="10.16925817134635"><ele>332.66666666666663</ele><time>2026-03-28T11:22:05Z</time></trkpt><trkpt lat="44.638598886051305" lon="10.169345295223147"><ele>331.3333333333333</ele><time>2026-03-28T11:22:06Z</time></trkpt><trkpt lat="44.63846245423074" lon="10.169423303464676"><ele>330.0</ele><time>2026-03-28T11:22:07Z</time></trkpt><trkpt lat="44.638322357121254" lon="10.169475081592912"><ele>330.0</ele><time>2026-03-28T11:22:08Z</time></trkpt><trkpt lat="44.63818417005553" lon="10.169452003882887"><ele>330.0</ele><time>2026-03-28T11:22:09Z</time></trkpt><trkpt lat="44.63805407675409" lon="10.169421126452535"><ele>330.0</ele><time>2026-03-28T11:22:10Z</time></trkpt><trkpt lat="44.637909965526816" lon="10.169393140803708"><ele>330.0</ele><time>2026-03-28T11:22:11Z</time></trkpt><trkpt lat="44.637767638174104" lon="10.16933762020406"><ele>328.5</ele><time>2026-03-28T11:22:12Z</time></trkpt><trkpt lat="44.63762184277909" lon="10.169285139106147"><ele>327.0</ele><time>2026-03-28T11:22:13Z</time></trkpt><trkpt lat="44.637485265259656" lon="10.169237914011749"><ele>325.5</ele><time>2026-03-28T11:22:14Z</time></trkpt><trkpt lat="44.63735915092973" lon="10.169188988605764"><ele>324.0</ele><time>2026-03-28T11:22:15Z</time></trkpt><trkpt lat="44.63724157321121" lon="10.169153386904926"><ele>324.0</ele><time>2026-03-28T11:22:16Z</time></trkpt><trkpt lat="44.63713473242377" lon="10.169148196204478"><ele>324.0</ele><time>2026-03-28T11:22:17Z</time></trkpt><trkpt lat="44.637031421182634" lon="10.16919648506511"><ele>324.0</ele><time>2026-03-28T11:22:18Z</time></trkpt><trkpt lat="44.636915932432245" lon="10.169309560035213"><ele>324.0</ele><time>2026-03-28T11:22:19Z</time></trkpt><trkpt lat="44.6367918802098" lon="10.169438945612388"><ele>321.3333333333333</ele><time>2026-03-28T11:22:20Z</time></trkpt><trkpt lat="44.63665341179667" lon="10.169538488900583"><ele>318.66666666666663</ele><time>2026-03-28T11:22:21Z</time></trkpt><trkpt lat="44.63652208087711" lon="10.169635307037948"><ele>316.0</ele><time>2026-03-28T11:22:22Z</time></trkpt><trkpt lat="44.63640269753982" lon="10.169758705106197"><ele>314.5</ele><time>2026-03-28T11:22:23Z</time></trkpt><trkpt lat="44.636299215688666" lon="10.169885119166453"><ele>313.0</ele><time>2026-03-28T11:22:24Z</time></trkpt><trkpt lat="44.63620842938894" lon="10.169999735420625"><ele>311.5</ele><time>2026-03-28T11:22:25Z</time></trkpt><trkpt lat="44.636133725585424" lon="10.17009055265595"><ele>310.0</ele><time>2026-03-28T11:22:26Z</time></trkpt><trkpt lat="44.63605773975313" lon="10.170202201758356"><ele>310.0</ele><time>2026-03-28T11:22:28Z</time></trkpt><trkpt lat="44.636037494845034" lon="10.170292573414692"><ele>310.0</ele><time>2026-03-28T11:22:31Z</time></trkpt><trkpt lat="44.63617486921768" lon="10.17040135247818"><ele>310.0</ele><time>2026-03-28T11:22:34Z</time></trkpt><trkpt lat="44.636286421754626" lon="10.170441178007168"><ele>310.0</ele><time>2026-03-28T11:22:35Z</time></trkpt><trkpt lat="44.63638908149703" lon="10.170479467983164"><ele>310.0</ele><time>2026-03-28T11:22:36Z</time></trkpt><trkpt lat="44.6365552964269" lon="10.17054953687018"><ele>310.0</ele><time>2026-03-28T11:22:37Z</time></trkpt><trkpt lat="44.636722605782616" lon="10.17061612034972"><ele>310.0</ele><time>2026-03-28T11:22:38Z</time></trkpt><trkpt lat="44.636905427418924" lon="10.170695823842433"><ele>310.0</ele><time>2026-03-28T11:22:39Z</time></trkpt><trkpt lat="44.63710730844634" lon="10.170777607200394"><ele>307.0</ele><time>2026-03-28T11:22:40Z</time></trkpt><trkpt lat="44.63730132155915" lon="10.170839277849787"><ele>304.0</ele><time>2026-03-28T11:22:41Z</time></trkpt><trkpt lat="44.63750437944758" lon="10.170869015247611"><ele>301.0</ele><time>2026-03-28T11:22:42Z</time></trkpt><trkpt lat="44.63772278146881" lon="10.170906300875627"><ele>302.3333333333333</ele><time>2026-03-28T11:22:43Z</time></trkpt><trkpt lat="44.63794123765769" lon="10.1709150612747"><ele>303.6666666666667</ele><time>2026-03-28T11:22:44Z</time></trkpt><trkpt lat="44.638144604659985" lon="10.170928234703798"><ele>305.0</ele><time>2026-03-28T11:22:45Z</time></trkpt><trkpt lat="44.63834575772439" lon="10.170967140629767"><ele>305.0</ele><time>2026-03-28T11:22:46Z</time></trkpt><trkpt lat="44.63854827826285" lon="10.171068382520733"><ele>305.0</ele><time>2026-03-28T11:22:47Z</time></trkpt><trkpt lat="44.63875450603172" lon="10.171186577180956"><ele>305.0</ele><time>2026-03-28T11:22:48Z</time></trkpt><trkpt lat="44.63895449250102" lon="10.171286527371798"><ele>304.6666666666667</ele><time>2026-03-28T11:22:49Z</time></trkpt><trkpt lat="44.6391416655062" lon="10.171391007212335"><ele>304.3333333333333</ele><time>2026-03-28T11:22:50Z</time></trkpt><trkpt lat="44.63932137317527" lon="10.171488458100692"><ele>304.0</ele><time>2026-03-28T11:22:51Z</time></trkpt><trkpt lat="44.63946729130163" lon="10.171568704600059"><ele>304.0</ele><time>2026-03-28T11:22:52Z</time></trkpt><trkpt lat="44.63957468014101" lon="10.171629063611284"><ele>304.0</ele><time>2026-03-28T11:22:53Z</time></trkpt><trkpt lat="44.63966710023163" lon="10.171677707255174"><ele>304.0</ele><time>2026-03-28T11:22:53.999Z</time></trkpt><trkpt lat="44.639743478653806" lon="10.171719500302581"><ele>304.0</ele><time>2026-03-28T11:22:54.999Z</time></trkpt><trkpt lat="44.63983302145003" lon="10.171770233933591"><ele>304.0</ele><time>2026-03-28T11:22:56.999Z</time></trkpt><trkpt lat="44.63989753731069" lon="10.171802927130559"><ele>304.0</ele><time>2026-03-28T11:22:59.999Z</time></trkpt><trkpt lat="44.640010511196174" lon="10.171818641625544"><ele>304.0</ele><time>2026-03-28T11:24:06Z</time></trkpt><trkpt lat="44.640105356290334" lon="10.171852314798345"><ele>304.0</ele><time>2026-03-28T11:24:07Z</time></trkpt><trkpt lat="44.640213271842335" lon="10.171895561892907"><ele>304.0</ele><time>2026-03-28T11:24:08Z</time></trkpt><trkpt lat="44.64033523906742" lon="10.1719441187051"><ele>306.3333333333333</ele><time>2026-03-28T11:24:09Z</time></trkpt><trkpt lat="44.64046346733397" lon="10.17199998034523"><ele>308.6666666666667</ele><time>2026-03-28T11:24:10Z</time></trkpt><trkpt lat="44.64059331206407" lon="10.172066887121796"><ele>311.0</ele><time>2026-03-28T11:24:11Z</time></trkpt><trkpt lat="44.640757659146956" lon="10.172184118096093"><ele>304.5</ele><time>2026-03-28T11:24:12Z</time></trkpt><trkpt lat="44.64092341632629" lon="10.172382090778596"><ele>298.0</ele><time>2026-03-28T11:24:13Z</time></trkpt><trkpt lat="44.641118515168344" lon="10.172601650145715"><ele>298.66666666666663</ele><time>2026-03-28T11:24:14Z</time></trkpt><trkpt lat="44.64125699266533" lon="10.172760642287557"><ele>299.3333333333333</ele><time>2026-03-28T11:24:15Z</time></trkpt><trkpt lat="44.64145171367311" lon="10.172993627096863"><ele>300.0</ele><time>2026-03-28T11:24:16Z</time></trkpt><trkpt lat="44.641641409364965" lon="10.173216189624732"><ele>299.6666666666667</ele><time>2026-03-28T11:24:17Z</time></trkpt><trkpt lat="44.641822222590775" lon="10.173421474228585"><ele>299.33333333333337</ele><time>2026-03-28T11:24:18Z</time></trkpt><trkpt lat="44.641991581117864" lon="10.173608348492232"><ele>299.0</ele><time>2026-03-28T11:24:19Z</time></trkpt><trkpt lat="44.642157880547714" lon="10.17379544501294"><ele>299.0</ele><time>2026-03-28T11:24:20Z</time></trkpt><trkpt lat="44.64232409416105" lon="10.173986396419744"><ele>299.0</ele><time>2026-03-28T11:24:21Z</time></trkpt><trkpt lat="44.64248864322768" lon="10.174177731137833"><ele>299.0</ele><time>2026-03-28T11:24:22Z</time></trkpt><trkpt lat="44.6426374612227" lon="10.174351402048318"><ele>297.6666666666667</ele><time>2026-03-28T11:24:23Z</time></trkpt><trkpt lat="44.64278661116558" lon="10.174514814222121"><ele>296.3333333333333</ele><time>2026-03-28T11:24:24Z</time></trkpt><trkpt lat="44.64295593923061" lon="10.174671208388627"><ele>295.0</ele><time>2026-03-28T11:24:25Z</time></trkpt><trkpt lat="44.64314866071452" lon="10.174792393615213"><ele>292.0</ele><time>2026-03-28T11:24:26Z</time></trkpt><trkpt lat="44.64336056975343" lon="10.174884774186202"><ele>289.0</ele><time>2026-03-28T11:24:27Z</time></trkpt><trkpt lat="44.643574979750966" lon="10.175023208922008"><ele>289.66666666666663</ele><time>2026-03-28T11:24:28Z</time></trkpt><trkpt lat="44.643778560117966" lon="10.17514720193163"><ele>290.3333333333333</ele><time>2026-03-28T11:24:29Z</time></trkpt><trkpt lat="44.64395875991268" lon="10.175257279135826"><ele>291.0</ele><time>2026-03-28T11:24:30Z</time></trkpt><trkpt lat="44.644124221827255" lon="10.17536616463252"><ele>291.0</ele><time>2026-03-28T11:24:31Z</time></trkpt><trkpt lat="44.644298268737664" lon="10.175479295606541"><ele>291.0</ele><time>2026-03-28T11:24:32Z</time></trkpt><trkpt lat="44.644469230350666" lon="10.175590818501803"><ele>291.0</ele><time>2026-03-28T11:24:33Z</time></trkpt><trkpt lat="44.64464126841531" lon="10.175701612037727"><ele>290.6666666666667</ele><time>2026-03-28T11:24:34Z</time></trkpt><trkpt lat="44.644817231123255" lon="10.175808161760452"><ele>290.33333333333337</ele><time>2026-03-28T11:24:35Z</time></trkpt><trkpt lat="44.64499012265508" lon="10.175905388439233"><ele>290.0</ele><time>2026-03-28T11:24:36Z</time></trkpt><trkpt lat="44.64517673711883" lon="10.176006662464227"><ele>289.33333333333337</ele><time>2026-03-28T11:24:37Z</time></trkpt><trkpt lat="44.64537036049204" lon="10.176092546372148"><ele>288.6666666666667</ele><time>2026-03-28T11:24:38Z</time></trkpt><trkpt lat="44.64558106598239" lon="10.176153379454195"><ele>288.0</ele><time>2026-03-28T11:24:39Z</time></trkpt><trkpt lat="44.64579236941692" lon="10.176183078093237"><ele>288.0</ele><time>2026-03-28T11:24:40Z</time></trkpt><trkpt lat="44.64600904841402" lon="10.176174768148057"><ele>288.0</ele><time>2026-03-28T11:24:41Z</time></trkpt><trkpt lat="44.64622574570594" lon="10.176157018929121"><ele>288.0</ele><time>2026-03-28T11:24:42Z</time></trkpt><trkpt lat="44.6464484964131" lon="10.176139496021483"><ele>288.0</ele><time>2026-03-28T11:24:43Z</time></trkpt><trkpt lat="44.64666571017082" lon="10.176142607899994"><ele>288.0</ele><time>2026-03-28T11:24:44Z</time></trkpt><trkpt lat="44.646876743747505" lon="10.176146169550234"><ele>288.0</ele><time>2026-03-28T11:24:45Z</time></trkpt><trkpt lat="44.647087811415396" lon="10.176152810970152"><ele>288.0</ele><time>2026-03-28T11:24:46Z</time></trkpt><trkpt lat="44.647288138236206" lon="10.176204913463703"><ele>288.0</ele><time>2026-03-28T11:24:47Z</time></trkpt><trkpt lat="44.64748539736549" lon="10.176267855924731"><ele>288.0</ele><time>2026-03-28T11:24:48Z</time></trkpt><trkpt lat="44.64768587737569" lon="10.176346192298926"><ele>288.0</ele><time>2026-03-28T11:24:49Z</time></trkpt><trkpt lat="44.64789197983488" lon="10.17643147775607"><ele>288.0</ele><time>2026-03-28T11:24:50Z</time></trkpt><trkpt lat="44.64810120838396" lon="10.176517595656026"><ele>288.0</ele><time>2026-03-28T11:24:51Z</time></trkpt><trkpt lat="44.648312779140504" lon="10.176602071978433"><ele>287.0</ele><time>2026-03-28T11:24:52Z</time></trkpt><trkpt lat="44.64852760774658" lon="10.176686660226302"><ele>286.0</ele><time>2026-03-28T11:24:53Z</time></trkpt><trkpt lat="44.64874306623413" lon="10.176763513098578"><ele>285.0</ele><time>2026-03-28T11:24:54Z</time></trkpt><trkpt lat="44.64895522286458" lon="10.176852388626354"><ele>285.0</ele><time>2026-03-28T11:24:55Z</time></trkpt><trkpt lat="44.6491665836331" lon="10.176934972621455"><ele>285.0</ele><time>2026-03-28T11:24:56Z</time></trkpt><trkpt lat="44.649372945369045" lon="10.1770189616465"><ele>285.0</ele><time>2026-03-28T11:24:57Z</time></trkpt><trkpt lat="44.64957848092774" lon="10.17710687409801"><ele>285.3333333333333</ele><time>2026-03-28T11:24:58Z</time></trkpt><trkpt lat="44.64977677176055" lon="10.17717427406462"><ele>285.66666666666663</ele><time>2026-03-28T11:24:59Z</time></trkpt><trkpt lat="44.64997552053044" lon="10.177250882211702"><ele>286.0</ele><time>2026-03-28T11:25:00Z</time></trkpt><trkpt lat="44.65017126176546" lon="10.177328831148774"><ele>285.3333333333333</ele><time>2026-03-28T11:25:00.999Z</time></trkpt><trkpt lat="44.65036529860712" lon="10.177417065091882"><ele>284.6666666666667</ele><time>2026-03-28T11:25:01.999Z</time></trkpt><trkpt lat="44.65055483744183" lon="10.177530166454412"><ele>284.0</ele><time>2026-03-28T11:25:02.999Z</time></trkpt><trkpt lat="44.65074360773329" lon="10.177662136088063"><ele>284.0</ele><time>2026-03-28T11:25:03.999Z</time></trkpt><trkpt lat="44.65093354646887" lon="10.177805258512768"><ele>284.0</ele><time>2026-03-28T11:25:04.999Z</time></trkpt><trkpt lat="44.651124070753504" lon="10.177942499751687"><ele>284.0</ele><time>2026-03-28T11:25:05.999Z</time></trkpt><trkpt lat="44.65131956296953" lon="10.178081331923464"><ele>281.33333333333337</ele><time>2026-03-28T11:25:06.999Z</time></trkpt><trkpt lat="44.651515260420986" lon="10.178218704374673"><ele>278.6666666666667</ele><time>2026-03-28T11:25:07.999Z</time></trkpt><trkpt lat="44.65171724618041" lon="10.178357014232754"><ele>276.0</ele><time>2026-03-28T11:25:08.999Z</time></trkpt><trkpt lat="44.65192192757002" lon="10.178495156247294"><ele>277.5</ele><time>2026-03-28T11:25:09.999Z</time></trkpt><trkpt lat="44.65212742172522" lon="10.17863325299762"><ele>279.0</ele><time>2026-03-28T11:25:10.999Z</time></trkpt><trkpt lat="44.65233030916233" lon="10.17876821719259"><ele>279.0</ele><time>2026-03-28T11:25:11.999Z</time></trkpt><trkpt lat="44.65252767354345" lon="10.178902899750378"><ele>279.0</ele><time>2026-03-28T11:25:12.999Z</time></trkpt><trkpt lat="44.65272799484194" lon="10.179042979141554"><ele>279.0</ele><time>2026-03-28T11:25:13.999Z</time></trkpt><trkpt lat="44.65292911000276" lon="10.179188257624268"><ele>278.6666666666667</ele><time>2026-03-28T11:25:14.999Z</time></trkpt><trkpt lat="44.65312965904306" lon="10.179326388825183"><ele>278.33333333333337</ele><time>2026-03-28T11:25:15.999Z</time></trkpt><trkpt lat="44.65332662698019" lon="10.179463790780888"><ele>278.0</ele><time>2026-03-28T11:25:16.999Z</time></trkpt><trkpt lat="44.65352452999396" lon="10.179603503667384"><ele>276.0</ele><time>2026-03-28T11:25:17.999Z</time></trkpt><trkpt lat="44.65371824304726" lon="10.179740893343084"><ele>274.0</ele><time>2026-03-28T11:25:18.999Z</time></trkpt><trkpt lat="44.65389201757718" lon="10.17986030203018"><ele>272.0</ele><time>2026-03-28T11:25:19.999Z</time></trkpt><trkpt lat="44.654068285857235" lon="10.179983683050626"><ele>272.0</ele><time>2026-03-28T11:25:20.999Z</time></trkpt><trkpt lat="44.65425822052678" lon="10.180115255258373"><ele>272.0</ele><time>2026-03-28T11:25:21.999Z</time></trkpt><trkpt lat="44.65445810685991" lon="10.180252341108078"><ele>272.0</ele><time>2026-03-28T11:25:22.999Z</time></trkpt><trkpt lat="44.654658611101006" lon="10.180388429300502"><ele>275.0</ele><time>2026-03-28T11:25:23.999Z</time></trkpt><trkpt lat="44.654862860927146" lon="10.180516376734005"><ele>278.0</ele><time>2026-03-28T11:25:24.999Z</time></trkpt><trkpt lat="44.65509170401969" lon="10.180664242693659"><ele>275.0</ele><time>2026-03-28T11:25:25.999Z</time></trkpt><trkpt lat="44.655334118063756" lon="10.180822452258923"><ele>272.0</ele><time>2026-03-28T11:25:26.999Z</time></trkpt><trkpt lat="44.655552159883456" lon="10.180980594090776"><ele>272.0</ele><time>2026-03-28T11:25:27.999Z</time></trkpt><trkpt lat="44.65574331621705" lon="10.181132448871033"><ele>272.0</ele><time>2026-03-28T11:25:28.999Z</time></trkpt><trkpt lat="44.65592038140719" lon="10.18127392111744"><ele>272.0</ele><time>2026-03-28T11:25:29.999Z</time></trkpt><trkpt lat="44.65609321139107" lon="10.181404128282061"><ele>270.6666666666667</ele><time>2026-03-28T11:25:30.999Z</time></trkpt><trkpt lat="44.65625696355714" lon="10.181520431857674"><ele>269.3333333333333</ele><time>2026-03-28T11:25:31.999Z</time></trkpt><trkpt lat="44.65640574594673" lon="10.18161471823208"><ele>268.0</ele><time>2026-03-28T11:25:32.999Z</time></trkpt><trkpt lat="44.65653540411832" lon="10.18170500246011"><ele>268.0</ele><time>2026-03-28T11:25:33.999Z</time></trkpt><trkpt lat="44.656664892525406" lon="10.1818032568868"><ele>268.0</ele><time>2026-03-28T11:25:34.999Z</time></trkpt><trkpt lat="44.656795243336866" lon="10.18189414558748"><ele>268.0</ele><time>2026-03-28T11:25:35.999Z</time></trkpt><trkpt lat="44.656926833041524" lon="10.181982770385076"><ele>268.0</ele><time>2026-03-28T11:25:36.999Z</time></trkpt><trkpt lat="44.65706566126763" lon="10.182074787615909"><ele>266.66666666666663</ele><time>2026-03-28T11:25:37.999Z</time></trkpt><trkpt lat="44.65720620572249" lon="10.1821725949058"><ele>265.3333333333333</ele><time>2026-03-28T11:25:38.999Z</time></trkpt><trkpt lat="44.65734839266277" lon="10.18227379232985"><ele>264.0</ele><time>2026-03-28T11:25:39.999Z</time></trkpt><trkpt lat="44.657494579645146" lon="10.182378628126864"><ele>264.0</ele><time>2026-03-28T11:25:40.999Z</time></trkpt><trkpt lat="44.65765095996673" lon="10.182484664879814"><ele>264.0</ele><time>2026-03-28T11:25:41.999Z</time></trkpt><trkpt lat="44.65780735838735" lon="10.182592690467244"><ele>264.0</ele><time>2026-03-28T11:25:42.999Z</time></trkpt><trkpt lat="44.6579693468077" lon="10.182702593082544"><ele>265.3333333333333</ele><time>2026-03-28T11:25:43.999Z</time></trkpt><trkpt lat="44.65813661092893" lon="10.182809803707759"><ele>266.66666666666663</ele><time>2026-03-28T11:25:44.999Z</time></trkpt><trkpt lat="44.65830272881831" lon="10.182922408312002"><ele>268.0</ele><time>2026-03-28T11:25:45.999Z</time></trkpt><trkpt lat="44.65847089994934" lon="10.18304488262764"><ele>266.66666666666663</ele><time>2026-03-28T11:25:46.999Z</time></trkpt><trkpt lat="44.65863403575927" lon="10.183159685490581"><ele>265.3333333333333</ele><time>2026-03-28T11:25:47.999Z</time></trkpt><trkpt lat="44.65880315554238" lon="10.183276758805626"><ele>264.0</ele><time>2026-03-28T11:25:48.999Z</time></trkpt><trkpt lat="44.65898436923019" lon="10.183402451447403"><ele>264.0</ele><time>2026-03-28T11:25:49.999Z</time></trkpt><trkpt lat="44.6591688258998" lon="10.183526194885872"><ele>264.0</ele><time>2026-03-28T11:25:50.999Z</time></trkpt><trkpt lat="44.65935121712623" lon="10.183647717417065"><ele>264.0</ele><time>2026-03-28T11:25:51.999Z</time></trkpt><trkpt lat="44.65952474932462" lon="10.183768040138034"><ele>263.0</ele><time>2026-03-28T11:25:52.999Z</time></trkpt><trkpt lat="44.659694765312985" lon="10.1838843404749"><ele>262.0</ele><time>2026-03-28T11:25:53.999Z</time></trkpt><trkpt lat="44.65986465298101" lon="10.183995705394917"><ele>261.0</ele><time>2026-03-28T11:25:54.999Z</time></trkpt><trkpt lat="44.66005369345361" lon="10.184152264179966"><ele>261.0</ele><time>2026-03-28T11:25:55.999Z</time></trkpt><trkpt lat="44.66027045359452" lon="10.18427842824581"><ele>261.0</ele><time>2026-03-28T11:25:56.999Z</time></trkpt><trkpt lat="44.660480553886316" lon="10.18443835379191"><ele>262.3333333333333</ele><time>2026-03-28T11:25:57.999Z</time></trkpt><trkpt lat="44.66067701159746" lon="10.184584336762043"><ele>263.66666666666663</ele><time>2026-03-28T11:25:59Z</time></trkpt><trkpt lat="44.660864720554336" lon="10.184719555190794"><ele>265.0</ele><time>2026-03-28T11:26:00Z</time></trkpt><trkpt lat="44.66103646960429" lon="10.18483974502743"><ele>264.3333333333333</ele><time>2026-03-28T11:26:01Z</time></trkpt><trkpt lat="44.661203211091134" lon="10.18496278491147"><ele>263.6666666666667</ele><time>2026-03-28T11:26:02Z</time></trkpt><trkpt lat="44.66136619436863" lon="10.185107885323905"><ele>263.0</ele><time>2026-03-28T11:26:03Z</time></trkpt><trkpt lat="44.661527659481315" lon="10.18526493152836"><ele>263.0</ele><time>2026-03-28T11:26:04Z</time></trkpt><trkpt lat="44.66169243518265" lon="10.185425473132662"><ele>263.0</ele><time>2026-03-28T11:26:05Z</time></trkpt><trkpt lat="44.66185809045521" lon="10.185581728441004"><ele>263.0</ele><time>2026-03-28T11:26:06Z</time></trkpt><trkpt lat="44.6620268655997" lon="10.185738629929125"><ele>262.0</ele><time>2026-03-28T11:26:07Z</time></trkpt><trkpt lat="44.66219619981675" lon="10.185891505704916"><ele>261.0</ele><time>2026-03-28T11:26:08Z</time></trkpt><trkpt lat="44.662372656694245" lon="10.186049561048302"><ele>260.0</ele><time>2026-03-28T11:26:09Z</time></trkpt><trkpt lat="44.662545962784115" lon="10.18620411283631"><ele>260.0</ele><time>2026-03-28T11:26:10Z</time></trkpt><trkpt lat="44.66271948174281" lon="10.186363755887646"><ele>260.0</ele><time>2026-03-28T11:26:11Z</time></trkpt><trkpt lat="44.662884824770764" lon="10.186541797310827"><ele>260.0</ele><time>2026-03-28T11:26:12Z</time></trkpt><trkpt lat="44.663029771093356" lon="10.186736100930581"><ele>259.0</ele><time>2026-03-28T11:26:13Z</time></trkpt><trkpt lat="44.6631555310909" lon="10.186959516575364"><ele>258.0</ele><time>2026-03-28T11:26:14Z</time></trkpt><trkpt lat="44.66326427763083" lon="10.187218492496312"><ele>257.0</ele><time>2026-03-28T11:26:15Z</time></trkpt><trkpt lat="44.6633597081462" lon="10.18748956404792"><ele>256.0</ele><time>2026-03-28T11:26:16Z</time></trkpt><trkpt lat="44.663453401114175" lon="10.187746638921393"><ele>255.0</ele><time>2026-03-28T11:26:17Z</time></trkpt><trkpt lat="44.66355487499171" lon="10.187996877515966"><ele>254.0</ele><time>2026-03-28T11:26:18Z</time></trkpt><trkpt lat="44.663641953308556" lon="10.188223582238063"><ele>254.0</ele><time>2026-03-28T11:26:19Z</time></trkpt><trkpt lat="44.663739144598026" lon="10.18844661330824"><ele>254.0</ele><time>2026-03-28T11:26:20Z</time></trkpt><trkpt lat="44.663854415160735" lon="10.188647221504322"><ele>254.0</ele><time>2026-03-28T11:26:21Z</time></trkpt><trkpt lat="44.66399764121183" lon="10.188857622063267"><ele>253.0</ele><time>2026-03-28T11:26:22Z</time></trkpt><trkpt lat="44.664156439509455" lon="10.18906915573143"><ele>252.0</ele><time>2026-03-28T11:26:23Z</time></trkpt><trkpt lat="44.66431733933002" lon="10.189277727033843"><ele>251.0</ele><time>2026-03-28T11:26:24Z</time></trkpt><trkpt lat="44.66447378457309" lon="10.18948282716683"><ele>250.33333333333334</ele><time>2026-03-28T11:26:25Z</time></trkpt><trkpt lat="44.66461477599246" lon="10.189672821635552"><ele>249.66666666666669</ele><time>2026-03-28T11:26:26Z</time></trkpt><trkpt lat="44.66475043814842" lon="10.18985534985406"><ele>249.0</ele><time>2026-03-28T11:26:27Z</time></trkpt><trkpt lat="44.66486876946369" lon="10.190014040870794"><ele>248.66666666666669</ele><time>2026-03-28T11:26:28Z</time></trkpt><trkpt lat="44.66498077814592" lon="10.190171804044741"><ele>248.33333333333334</ele><time>2026-03-28T11:26:29Z</time></trkpt><trkpt lat="44.66509002918415" lon="10.19032391368883"><ele>248.0</ele><time>2026-03-28T11:26:30Z</time></trkpt><trkpt lat="44.66519437516516" lon="10.190466310013823"><ele>248.0</ele><time>2026-03-28T11:26:31Z</time></trkpt><trkpt lat="44.665302393989805" lon="10.190618683214488"><ele>248.0</ele><time>2026-03-28T11:26:32Z</time></trkpt><trkpt lat="44.66541259612103" lon="10.190768886954176"><ele>248.0</ele><time>2026-03-28T11:26:33Z</time></trkpt><trkpt lat="44.66552292652736" lon="10.190909640090073"><ele>248.0</ele><time>2026-03-28T11:26:34Z</time></trkpt><trkpt lat="44.66562891983281" lon="10.191045071408364"><ele>248.0</ele><time>2026-03-28T11:26:35Z</time></trkpt><trkpt lat="44.665732560456576" lon="10.191192106870055"><ele>248.0</ele><time>2026-03-28T11:26:36Z</time></trkpt><trkpt lat="44.665835693748626" lon="10.191329480251458"><ele>248.0</ele><time>2026-03-28T11:26:37Z</time></trkpt><trkpt lat="44.66595648717425" lon="10.19147336267048"><ele>247.66666666666669</ele><time>2026-03-28T11:26:38Z</time></trkpt><trkpt lat="44.66608254072009" lon="10.191602925768672"><ele>247.33333333333331</ele><time>2026-03-28T11:26:39Z</time></trkpt><trkpt lat="44.666200602090576" lon="10.191736054829429"><ele>247.0</ele><time>2026-03-28T11:26:40Z</time></trkpt><trkpt lat="44.666338880158136" lon="10.191896669936705"><ele>247.66666666666666</ele><time>2026-03-28T11:26:41Z</time></trkpt><trkpt lat="44.666455918133146" lon="10.19203156347356"><ele>248.33333333333331</ele><time>2026-03-28T11:26:42Z</time></trkpt><trkpt lat="44.666570313786124" lon="10.192161011634106"><ele>249.0</ele><time>2026-03-28T11:26:43Z</time></trkpt><trkpt lat="44.666686490281016" lon="10.192300466666355"><ele>248.33333333333331</ele><time>2026-03-28T11:26:44Z</time></trkpt><trkpt lat="44.66680416280455" lon="10.192441947830892"><ele>247.66666666666666</ele><time>2026-03-28T11:26:45Z</time></trkpt><trkpt lat="44.66692725905933" lon="10.192582801467616"><ele>247.0</ele><time>2026-03-28T11:26:46Z</time></trkpt><trkpt lat="44.667054225610066" lon="10.192725632199938"><ele>247.0</ele><time>2026-03-28T11:26:47Z</time></trkpt><trkpt lat="44.66718488349034" lon="10.192865172796626"><ele>247.0</ele><time>2026-03-28T11:26:48Z</time></trkpt><trkpt lat="44.667318066996046" lon="10.193008091765467"><ele>247.0</ele><time>2026-03-28T11:26:49Z</time></trkpt><trkpt lat="44.66746236211805" lon="10.193163153736398"><ele>246.0</ele><time>2026-03-28T11:26:50Z</time></trkpt><trkpt lat="44.66762659835821" lon="10.193327695814153"><ele>245.0</ele><time>2026-03-28T11:26:51Z</time></trkpt><trkpt lat="44.66779636308343" lon="10.193497860583141"><ele>244.0</ele><time>2026-03-28T11:26:52Z</time></trkpt><trkpt lat="44.667970401483615" lon="10.193681151464386"><ele>243.66666666666666</ele><time>2026-03-28T11:26:53Z</time></trkpt><trkpt lat="44.66814734991729" lon="10.1938658446654"><ele>243.33333333333331</ele><time>2026-03-28T11:26:54Z</time></trkpt><trkpt lat="44.66832710184303" lon="10.194061002785215"><ele>243.0</ele><time>2026-03-28T11:26:55Z</time></trkpt><trkpt lat="44.66851089804319" lon="10.194251400776723"><ele>243.0</ele><time>2026-03-28T11:26:56Z</time></trkpt><trkpt lat="44.668697615524394" lon="10.194447180504179"><ele>243.0</ele><time>2026-03-28T11:26:57Z</time></trkpt><trkpt lat="44.66890271886025" lon="10.194658499629734"><ele>242.5</ele><time>2026-03-28T11:26:58Z</time></trkpt><trkpt lat="44.66911467390945" lon="10.19487942759745"><ele>242.0</ele><time>2026-03-28T11:26:59Z</time></trkpt><trkpt lat="44.66932651256048" lon="10.195106363135146"><ele>242.5</ele><time>2026-03-28T11:27:00Z</time></trkpt><trkpt lat="44.669553390246335" lon="10.195344846711562"><ele>243.0</ele><time>2026-03-28T11:27:01Z</time></trkpt><trkpt lat="44.66979255755407" lon="10.1955949621616"><ele>242.0</ele><time>2026-03-28T11:27:02Z</time></trkpt><trkpt lat="44.67002408199871" lon="10.195835809341897"><ele>241.0</ele><time>2026-03-28T11:27:03Z</time></trkpt><trkpt lat="44.67024906856666" lon="10.196070528709178"><ele>240.5</ele><time>2026-03-28T11:27:04Z</time></trkpt><trkpt lat="44.670474353568316" lon="10.19630854770782"><ele>240.0</ele><time>2026-03-28T11:27:05Z</time></trkpt><trkpt lat="44.67068966689687" lon="10.196535980526315"><ele>239.0</ele><time>2026-03-28T11:27:06Z</time></trkpt><trkpt lat="44.670902468397394" lon="10.196763292016653"><ele>238.0</ele><time>2026-03-28T11:27:07Z</time></trkpt><trkpt lat="44.6711003152476" lon="10.196990941663364"><ele>238.5</ele><time>2026-03-28T11:27:07.999Z</time></trkpt><trkpt lat="44.671281167695994" lon="10.197254501650981"><ele>239.0</ele><time>2026-03-28T11:27:08.999Z</time></trkpt><trkpt lat="44.67145288883164" lon="10.197558643684358"><ele>238.0</ele><time>2026-03-28T11:27:09.999Z</time></trkpt><trkpt lat="44.671618405407045" lon="10.197902333526104"><ele>237.0</ele><time>2026-03-28T11:27:10.999Z</time></trkpt><trkpt lat="44.67179217466663" lon="10.19823549991172"><ele>234.5</ele><time>2026-03-28T11:27:11.999Z</time></trkpt><trkpt lat="44.6719700820141" lon="10.198563060300415"><ele>232.0</ele><time>2026-03-28T11:27:12.999Z</time></trkpt><trkpt lat="44.67214502650662" lon="10.19887877168327"><ele>231.0</ele><time>2026-03-28T11:27:13.999Z</time></trkpt><trkpt lat="44.67230616771258" lon="10.199179473631396"><ele>230.0</ele><time>2026-03-28T11:27:14.999Z</time></trkpt><trkpt lat="44.672463200885744" lon="10.199464734138159"><ele>230.0</ele><time>2026-03-28T11:27:15.999Z</time></trkpt><trkpt lat="44.67260959001228" lon="10.199731759894169"><ele>230.0</ele><time>2026-03-28T11:27:16.999Z</time></trkpt><trkpt lat="44.67274957020846" lon="10.19999087973411"><ele>230.33333333333334</ele><time>2026-03-28T11:27:17.999Z</time></trkpt><trkpt lat="44.67288436698294" lon="10.200243700576374"><ele>230.66666666666669</ele><time>2026-03-28T11:27:18.999Z</time></trkpt><trkpt lat="44.673014912459664" lon="10.200482737537524"><ele>231.0</ele><time>2026-03-28T11:27:19.999Z</time></trkpt><trkpt lat="44.67313467525497" lon="10.200700508066431"><ele>231.0</ele><time>2026-03-28T11:27:20.999Z</time></trkpt><trkpt lat="44.67325910696254" lon="10.200905504403982"><ele>231.0</ele><time>2026-03-28T11:27:21.999Z</time></trkpt><trkpt lat="44.67338966271887" lon="10.201080032387464"><ele>231.0</ele><time>2026-03-28T11:27:22.999Z</time></trkpt><trkpt lat="44.673548232914456" lon="10.201237154653269"><ele>230.0</ele><time>2026-03-28T11:27:23.999Z</time></trkpt><trkpt lat="44.67374436095359" lon="10.201382787007038"><ele>229.0</ele><time>2026-03-28T11:27:24.999Z</time></trkpt><trkpt lat="44.67395779979192" lon="10.20153157600478"><ele>228.5</ele><time>2026-03-28T11:27:25.999Z</time></trkpt><trkpt lat="44.674179504145506" lon="10.201693880272058"><ele>228.0</ele><time>2026-03-28T11:27:26.999Z</time></trkpt><trkpt lat="44.674395713686664" lon="10.201855451461494"><ele>227.0</ele><time>2026-03-28T11:27:27.999Z</time></trkpt><trkpt lat="44.67461053959996" lon="10.20202428653623"><ele>226.0</ele><time>2026-03-28T11:27:28.999Z</time></trkpt><trkpt lat="44.674818647347955" lon="10.20218605050476"><ele>225.5</ele><time>2026-03-28T11:27:29.999Z</time></trkpt><trkpt lat="44.67502573628461" lon="10.202351336352013"><ele>225.0</ele><time>2026-03-28T11:27:30.999Z</time></trkpt><trkpt lat="44.67523646902695" lon="10.202508763586716"><ele>225.5</ele><time>2026-03-28T11:27:31.999Z</time></trkpt><trkpt lat="44.67545769631357" lon="10.202669626478052"><ele>226.0</ele><time>2026-03-28T11:27:32.999Z</time></trkpt><trkpt lat="44.67568097675578" lon="10.202843925629574"><ele>226.0</ele><time>2026-03-28T11:27:33.999Z</time></trkpt><trkpt lat="44.675902902287966" lon="10.203037062179453"><ele>226.0</ele><time>2026-03-28T11:27:34.999Z</time></trkpt><trkpt lat="44.67612553922228" lon="10.203245868101778"><ele>227.5</ele><time>2026-03-28T11:27:35.999Z</time></trkpt><trkpt lat="44.67634304252458" lon="10.20347261082728"><ele>229.0</ele><time>2026-03-28T11:27:36.999Z</time></trkpt><trkpt lat="44.676565196789035" lon="10.203713165122222"><ele>229.0</ele><time>2026-03-28T11:27:37.999Z</time></trkpt><trkpt lat="44.67678561032487" lon="10.20394348188896"><ele>229.0</ele><time>2026-03-28T11:27:38.999Z</time></trkpt><trkpt lat="44.676999099316056" lon="10.204155201452194"><ele>227.5</ele><time>2026-03-28T11:27:39.999Z</time></trkpt><trkpt lat="44.67719860300766" lon="10.204353890403997"><ele>226.0</ele><time>2026-03-28T11:27:40.999Z</time></trkpt><trkpt lat="44.67739873649034" lon="10.20455528932539"><ele>226.0</ele><time>2026-03-28T11:27:41.999Z</time></trkpt><trkpt lat="44.67759730055148" lon="10.20477245530192"><ele>226.0</ele><time>2026-03-28T11:27:42.999Z</time></trkpt><trkpt lat="44.67780700267726" lon="10.204997495098462"><ele>226.0</ele><time>2026-03-28T11:27:43.999Z</time></trkpt><trkpt lat="44.67802472897794" lon="10.205216123449517"><ele>226.0</ele><time>2026-03-28T11:27:44.999Z</time></trkpt><trkpt lat="44.67825215655386" lon="10.205444501521775"><ele>223.5</ele><time>2026-03-28T11:27:45.999Z</time></trkpt><trkpt lat="44.67848408483605" lon="10.205680425225882"><ele>221.0</ele><time>2026-03-28T11:27:46.999Z</time></trkpt><trkpt lat="44.67871374014767" lon="10.205912138258611"><ele>221.0</ele><time>2026-03-28T11:27:47.999Z</time></trkpt><trkpt lat="44.67894479871848" lon="10.206152518646798"><ele>221.0</ele><time>2026-03-28T11:27:48.999Z</time></trkpt><trkpt lat="44.67918330927663" lon="10.206398471581572"><ele>220.0</ele><time>2026-03-28T11:27:49.999Z</time></trkpt><trkpt lat="44.67941657198915" lon="10.206642831062577"><ele>219.0</ele><time>2026-03-28T11:27:50.999Z</time></trkpt><trkpt lat="44.679647610404395" lon="10.20688411378857"><ele>219.0</ele><time>2026-03-28T11:27:51.999Z</time></trkpt><trkpt lat="44.679883085350504" lon="10.207125600893384"><ele>219.0</ele><time>2026-03-28T11:27:52.999Z</time></trkpt><trkpt lat="44.68011733037308" lon="10.207365516804465"><ele>218.0</ele><time>2026-03-28T11:27:53.999Z</time></trkpt><trkpt lat="44.68035137784299" lon="10.207605923239727"><ele>217.0</ele><time>2026-03-28T11:27:54.999Z</time></trkpt><trkpt lat="44.680589807643756" lon="10.207852354414804"><ele>217.0</ele><time>2026-03-28T11:27:55.999Z</time></trkpt><trkpt lat="44.680828957441925" lon="10.208097385965239"><ele>217.0</ele><time>2026-03-28T11:27:56.999Z</time></trkpt><trkpt lat="44.681063394409456" lon="10.208336778733358"><ele>215.5</ele><time>2026-03-28T11:27:57.999Z</time></trkpt><trkpt lat="44.68129819222644" lon="10.208577949006363"><ele>214.0</ele><time>2026-03-28T11:27:58.999Z</time></trkpt><trkpt lat="44.681536068305654" lon="10.20882104422684"><ele>213.0</ele><time>2026-03-28T11:27:59.999Z</time></trkpt><trkpt lat="44.681767691346586" lon="10.209058116183884"><ele>212.0</ele><time>2026-03-28T11:28:00.999Z</time></trkpt><trkpt lat="44.682003939279426" lon="10.20930177942003"><ele>214.0</ele><time>2026-03-28T11:28:01.999Z</time></trkpt><trkpt lat="44.68224070137389" lon="10.209543920478065"><ele>216.0</ele><time>2026-03-28T11:28:02.999Z</time></trkpt><trkpt lat="44.68248112726813" lon="10.209789545231189"><ele>213.5</ele><time>2026-03-28T11:28:03.999Z</time></trkpt><trkpt lat="44.68271089639638" lon="10.210028830561429"><ele>211.0</ele><time>2026-03-28T11:28:05Z</time></trkpt><trkpt lat="44.68293798171629" lon="10.210263833021349"><ele>211.0</ele><time>2026-03-28T11:28:06Z</time></trkpt><trkpt lat="44.68316871885898" lon="10.210500247932568"><ele>211.0</ele><time>2026-03-28T11:28:07Z</time></trkpt><trkpt lat="44.683396495200846" lon="10.21072821856806"><ele>210.5</ele><time>2026-03-28T11:28:08Z</time></trkpt><trkpt lat="44.68363204531142" lon="10.210958025309928"><ele>210.0</ele><time>2026-03-28T11:28:09Z</time></trkpt><trkpt lat="44.683868206051855" lon="10.211183899944356"><ele>210.0</ele><time>2026-03-28T11:28:10Z</time></trkpt><trkpt lat="44.684103158182616" lon="10.211419983972755"><ele>210.0</ele><time>2026-03-28T11:28:11Z</time></trkpt><trkpt lat="44.68433515294149" lon="10.211665087472577"><ele>210.5</ele><time>2026-03-28T11:28:12Z</time></trkpt><trkpt lat="44.68455891492114" lon="10.2119058437671"><ele>211.0</ele><time>2026-03-28T11:28:13Z</time></trkpt><trkpt lat="44.68477767553199" lon="10.212140319603341"><ele>211.0</ele><time>2026-03-28T11:28:14Z</time></trkpt><trkpt lat="44.684995882690146" lon="10.212367144499456"><ele>211.0</ele><time>2026-03-28T11:28:15Z</time></trkpt><trkpt lat="44.6852153942061" lon="10.21258736894456"><ele>209.5</ele><time>2026-03-28T11:28:16Z</time></trkpt><trkpt lat="44.68543265511723" lon="10.212806977757204"><ele>208.0</ele><time>2026-03-28T11:28:17Z</time></trkpt><trkpt lat="44.68564567803279" lon="10.213018946273554"><ele>208.5</ele><time>2026-03-28T11:28:18Z</time></trkpt><trkpt lat="44.685847608030265" lon="10.213227661726725"><ele>209.0</ele><time>2026-03-28T11:28:19Z</time></trkpt><trkpt lat="44.68604747875335" lon="10.213434876336118"><ele>207.0</ele><time>2026-03-28T11:28:20Z</time></trkpt><trkpt lat="44.68625042565541" lon="10.213637694462923"><ele>205.0</ele><time>2026-03-28T11:28:21Z</time></trkpt><trkpt lat="44.68644289313618" lon="10.213842281300089"><ele>205.0</ele><time>2026-03-28T11:28:22Z</time></trkpt><trkpt lat="44.68663975841637" lon="10.21404281057044"><ele>205.0</ele><time>2026-03-28T11:28:23Z</time></trkpt><trkpt lat="44.68682783547166" lon="10.214245888560246"><ele>204.0</ele><time>2026-03-28T11:28:24Z</time></trkpt><trkpt lat="44.687020563279866" lon="10.2144518166635"><ele>203.0</ele><time>2026-03-28T11:28:25Z</time></trkpt><trkpt lat="44.68721302102674" lon="10.214651494785974"><ele>203.5</ele><time>2026-03-28T11:28:26Z</time></trkpt><trkpt lat="44.68740365359871" lon="10.214849730116013"><ele>204.0</ele><time>2026-03-28T11:28:27Z</time></trkpt><trkpt lat="44.68759843913052" lon="10.215041107049034"><ele>202.0</ele><time>2026-03-28T11:28:28Z</time></trkpt><trkpt lat="44.68779243842439" lon="10.215240424891151"><ele>200.0</ele><time>2026-03-28T11:28:29Z</time></trkpt><trkpt lat="44.68798052454264" lon="10.215440457652385"><ele>200.0</ele><time>2026-03-28T11:28:30Z</time></trkpt><trkpt lat="44.68817370169862" lon="10.215642571905596"><ele>200.0</ele><time>2026-03-28T11:28:31Z</time></trkpt><trkpt lat="44.688370227461476" lon="10.215839109792071"><ele>200.5</ele><time>2026-03-28T11:28:32Z</time></trkpt><trkpt lat="44.688571329782604" lon="10.216019861596019"><ele>201.0</ele><time>2026-03-28T11:28:33Z</time></trkpt><trkpt lat="44.68878565386262" lon="10.21618367408018"><ele>202.0</ele><time>2026-03-28T11:28:34Z</time></trkpt><trkpt lat="44.68900960442138" lon="10.21633545194275"><ele>203.0</ele><time>2026-03-28T11:28:35Z</time></trkpt><trkpt lat="44.68923526481235" lon="10.216494814434625"><ele>202.5</ele><time>2026-03-28T11:28:36Z</time></trkpt><trkpt lat="44.689454841829935" lon="10.216658154410243"><ele>202.0</ele><time>2026-03-28T11:28:37Z</time></trkpt><trkpt lat="44.68967103986029" lon="10.216821988827608"><ele>202.0</ele><time>2026-03-28T11:28:38Z</time></trkpt><trkpt lat="44.68988508886961" lon="10.216982854608258"><ele>202.0</ele><time>2026-03-28T11:28:39Z</time></trkpt><trkpt lat="44.69010142917587" lon="10.217145703361831"><ele>200.0</ele><time>2026-03-28T11:28:40Z</time></trkpt><trkpt lat="44.69031154145322" lon="10.21730689167662"><ele>198.0</ele><time>2026-03-28T11:28:41Z</time></trkpt><trkpt lat="44.690526092347" lon="10.217464067827484"><ele>198.0</ele><time>2026-03-28T11:28:42Z</time></trkpt><trkpt lat="44.690734513846145" lon="10.217614938263806"><ele>198.0</ele><time>2026-03-28T11:28:43Z</time></trkpt><trkpt lat="44.690941556807346" lon="10.217766780642533"><ele>197.0</ele><time>2026-03-28T11:28:44Z</time></trkpt><trkpt lat="44.691145605790034" lon="10.21792436410387"><ele>196.0</ele><time>2026-03-28T11:28:45Z</time></trkpt><trkpt lat="44.691353111749294" lon="10.218078066705576"><ele>197.0</ele><time>2026-03-28T11:28:46Z</time></trkpt><trkpt lat="44.691559966756316" lon="10.218233275685535"><ele>198.0</ele><time>2026-03-28T11:28:47Z</time></trkpt><trkpt lat="44.69177029003336" lon="10.218383957032147"><ele>197.0</ele><time>2026-03-28T11:28:48Z</time></trkpt><trkpt lat="44.691982320618784" lon="10.218539400811052"><ele>196.0</ele><time>2026-03-28T11:28:49Z</time></trkpt><trkpt lat="44.69219807109981" lon="10.218699197836246"><ele>196.0</ele><time>2026-03-28T11:28:50Z</time></trkpt><trkpt lat="44.6924135159444" lon="10.2188527955255"><ele>196.0</ele><time>2026-03-28T11:28:51Z</time></trkpt><trkpt lat="44.6926356027436" lon="10.219012582323083"><ele>195.5</ele><time>2026-03-28T11:28:52Z</time></trkpt><trkpt lat="44.692858752985735" lon="10.219168603055117"><ele>195.0</ele><time>2026-03-28T11:28:53Z</time></trkpt><trkpt lat="44.69308210394292" lon="10.219328948976983"><ele>195.0</ele><time>2026-03-28T11:28:54Z</time></trkpt><trkpt lat="44.69330858082665" lon="10.219494143475263"><ele>195.0</ele><time>2026-03-28T11:28:55Z</time></trkpt><trkpt lat="44.69354808345283" lon="10.2196723327766"><ele>194.5</ele><time>2026-03-28T11:28:56Z</time></trkpt><trkpt lat="44.69379174398663" lon="10.219862474056495"><ele>194.0</ele><time>2026-03-28T11:28:57Z</time></trkpt><trkpt lat="44.69403307773386" lon="10.220049219359645"><ele>194.0</ele><time>2026-03-28T11:28:58Z</time></trkpt><trkpt lat="44.69427161102105" lon="10.220232298260044"><ele>194.0</ele><time>2026-03-28T11:28:59Z</time></trkpt><trkpt lat="44.694515208335304" lon="10.220411302006731"><ele>192.5</ele><time>2026-03-28T11:29:00Z</time></trkpt><trkpt lat="44.694748614386974" lon="10.220586178849235"><ele>191.0</ele><time>2026-03-28T11:29:01Z</time></trkpt><trkpt lat="44.694984554846954" lon="10.220762548986157"><ele>191.0</ele><time>2026-03-28T11:29:02Z</time></trkpt><trkpt lat="44.69521548260589" lon="10.220935956813422"><ele>191.0</ele><time>2026-03-28T11:29:03Z</time></trkpt><trkpt lat="44.69545172124161" lon="10.221114787434189"><ele>190.5</ele><time>2026-03-28T11:29:04Z</time></trkpt><trkpt lat="44.695685278939365" lon="10.221284124775613"><ele>190.0</ele><time>2026-03-28T11:29:05Z</time></trkpt><trkpt lat="44.69590502107621" lon="10.221443126432762"><ele>189.5</ele><time>2026-03-28T11:29:06Z</time></trkpt><trkpt lat="44.69613237633404" lon="10.221610607112451"><ele>189.0</ele><time>2026-03-28T11:29:07Z</time></trkpt><trkpt lat="44.69634345766148" lon="10.221767044923844"><ele>189.0</ele><time>2026-03-28T11:29:08Z</time></trkpt><trkpt lat="44.696549169422475" lon="10.22192061561771"><ele>189.0</ele><time>2026-03-28T11:29:09Z</time></trkpt><trkpt lat="44.696763935271946" lon="10.22207269704396"><ele>188.0</ele><time>2026-03-28T11:29:10Z</time></trkpt><trkpt lat="44.69697227870644" lon="10.22222394379422"><ele>187.0</ele><time>2026-03-28T11:29:11Z</time></trkpt><trkpt lat="44.69717743128155" lon="10.222381673945776"><ele>187.0</ele><time>2026-03-28T11:29:12Z</time></trkpt><trkpt lat="44.69738403011372" lon="10.222536199207118"><ele>187.0</ele><time>2026-03-28T11:29:13Z</time></trkpt><trkpt lat="44.69759730079898" lon="10.22269452204175"><ele>185.5</ele><time>2026-03-28T11:29:14Z</time></trkpt><trkpt lat="44.69780794493808" lon="10.222848244152601"><ele>184.0</ele><time>2026-03-28T11:29:15Z</time></trkpt><trkpt lat="44.69801977842868" lon="10.22300758709209"><ele>184.0</ele><time>2026-03-28T11:29:15.999Z</time></trkpt><trkpt lat="44.69822682012995" lon="10.223162174626992"><ele>184.0</ele><time>2026-03-28T11:29:16.999Z</time></trkpt><trkpt lat="44.69844335188342" lon="10.223326927597359"><ele>183.5</ele><time>2026-03-28T11:29:17.999Z</time></trkpt><trkpt lat="44.698662509759295" lon="10.22349007187349"><ele>183.0</ele><time>2026-03-28T11:29:18.999Z</time></trkpt><trkpt lat="44.69886937879909" lon="10.223644941884205"><ele>183.0</ele><time>2026-03-28T11:29:19.999Z</time></trkpt><trkpt lat="44.69907419630577" lon="10.223798406113291"><ele>183.0</ele><time>2026-03-28T11:29:20.999Z</time></trkpt><trkpt lat="44.69927790282844" lon="10.223945476667387"><ele>184.5</ele><time>2026-03-28T11:29:21.999Z</time></trkpt><trkpt lat="44.69947924462201" lon="10.224091832370123"><ele>186.0</ele><time>2026-03-28T11:29:22.999Z</time></trkpt><trkpt lat="44.69968275679909" lon="10.224242707482647"><ele>186.0</ele><time>2026-03-28T11:29:23.999Z</time></trkpt><trkpt lat="44.69990537792519" lon="10.22440344641384"><ele>186.0</ele><time>2026-03-28T11:29:24.999Z</time></trkpt><trkpt lat="44.700131153655526" lon="10.224565946498759"><ele>184.5</ele><time>2026-03-28T11:29:25.999Z</time></trkpt><trkpt lat="44.70036536318137" lon="10.224738394515734"><ele>183.0</ele><time>2026-03-28T11:29:26.999Z</time></trkpt><trkpt lat="44.7006040409205" lon="10.224917192365696"><ele>183.0</ele><time>2026-03-28T11:29:27.999Z</time></trkpt><trkpt lat="44.70084319789184" lon="10.2251141703405"><ele>183.0</ele><time>2026-03-28T11:29:28.999Z</time></trkpt><trkpt lat="44.70106921753461" lon="10.225304107136102"><ele>180.0</ele><time>2026-03-28T11:29:29.999Z</time></trkpt><trkpt lat="44.701293622310345" lon="10.22550737379813"><ele>177.0</ele><time>2026-03-28T11:29:30.999Z</time></trkpt><trkpt lat="44.70151078321971" lon="10.225718129431245"><ele>176.5</ele><time>2026-03-28T11:29:31.999Z</time></trkpt><trkpt lat="44.70174666342986" lon="10.225934547610905"><ele>176.0</ele><time>2026-03-28T11:29:32.999Z</time></trkpt><trkpt lat="44.70200937421784" lon="10.226151591624966"><ele>175.5</ele><time>2026-03-28T11:29:33.999Z</time></trkpt><trkpt lat="44.70227348301051" lon="10.22641631437075"><ele>175.0</ele><time>2026-03-28T11:29:34.999Z</time></trkpt><trkpt lat="44.702559614774124" lon="10.22668090165496"><ele>175.0</ele><time>2026-03-28T11:29:35.999Z</time></trkpt><trkpt lat="44.70285356653075" lon="10.226952720117337"><ele>175.0</ele><time>2026-03-28T11:29:36.999Z</time></trkpt><trkpt lat="44.703160648934634" lon="10.227226957682547"><ele>175.5</ele><time>2026-03-28T11:29:37.999Z</time></trkpt><trkpt lat="44.703462647961366" lon="10.227509644172345"><ele>176.0</ele><time>2026-03-28T11:29:38.999Z</time></trkpt><trkpt lat="44.7037504761483" lon="10.227780622279163"><ele>176.0</ele><time>2026-03-28T11:29:39.999Z</time></trkpt><trkpt lat="44.70402559584693" lon="10.228033688312731"><ele>176.0</ele><time>2026-03-28T11:29:40.999Z</time></trkpt><trkpt lat="44.70429024212798" lon="10.228278173257358"><ele>175.5</ele><time>2026-03-28T11:29:41.999Z</time></trkpt><trkpt lat="44.704538084473114" lon="10.228480674350196"><ele>175.0</ele><time>2026-03-28T11:29:42.999Z</time></trkpt><trkpt lat="44.70480208404274" lon="10.228736442160441"><ele>175.0</ele><time>2026-03-28T11:29:43.999Z</time></trkpt><trkpt lat="44.70503400641372" lon="10.22894529127976"><ele>175.0</ele><time>2026-03-28T11:29:44.999Z</time></trkpt><trkpt lat="44.70525675009241" lon="10.229153399796369"><ele>174.0</ele><time>2026-03-28T11:29:45.999Z</time></trkpt><trkpt lat="44.705476160055795" lon="10.229352163772289"><ele>173.0</ele><time>2026-03-28T11:29:46.999Z</time></trkpt><trkpt lat="44.705700021066036" lon="10.229551786628184"><ele>173.0</ele><time>2026-03-28T11:29:47.999Z</time></trkpt><trkpt lat="44.70591815673657" lon="10.229740118001017"><ele>173.0</ele><time>2026-03-28T11:29:48.999Z</time></trkpt><trkpt lat="44.70613865650042" lon="10.229886635252134"><ele>171.5</ele><time>2026-03-28T11:29:49.999Z</time></trkpt><trkpt lat="44.70637169976186" lon="10.229987709791903"><ele>170.0</ele><time>2026-03-28T11:29:50.999Z</time></trkpt><trkpt lat="44.70662232244886" lon="10.230066438829029"><ele>170.0</ele><time>2026-03-28T11:29:51.999Z</time></trkpt><trkpt lat="44.70685640250778" lon="10.230134527812972"><ele>170.0</ele><time>2026-03-28T11:29:52.999Z</time></trkpt><trkpt lat="44.70707299454928" lon="10.230204902015585"><ele>170.33333333333331</ele><time>2026-03-28T11:29:53.999Z</time></trkpt><trkpt lat="44.70728424027721" lon="10.230278121623604"><ele>170.66666666666666</ele><time>2026-03-28T11:29:54.999Z</time></trkpt><trkpt lat="44.70748869457426" lon="10.230349005183724"><ele>171.0</ele><time>2026-03-28T11:29:55.999Z</time></trkpt><trkpt lat="44.70768998359588" lon="10.230417466452083"><ele>171.0</ele><time>2026-03-28T11:29:56.999Z</time></trkpt><trkpt lat="44.7078881317112" lon="10.230482498677713"><ele>171.0</ele><time>2026-03-28T11:29:57.999Z</time></trkpt><trkpt lat="44.7080832369636" lon="10.230551064597007"><ele>171.0</ele><time>2026-03-28T11:29:58.999Z</time></trkpt><trkpt lat="44.70826831064547" lon="10.230611731355754"><ele>170.66666666666666</ele><time>2026-03-28T11:29:59.999Z</time></trkpt><trkpt lat="44.70844047281442" lon="10.230670876843583"><ele>170.33333333333331</ele><time>2026-03-28T11:30:00.999Z</time></trkpt><trkpt lat="44.70860855381918" lon="10.230731572790196"><ele>170.0</ele><time>2026-03-28T11:30:01.999Z</time></trkpt><trkpt lat="44.70876513519215" lon="10.230782547294394"><ele>169.75</ele><time>2026-03-28T11:30:02.999Z</time></trkpt><trkpt lat="44.70891684019009" lon="10.230828695334562"><ele>169.5</ele><time>2026-03-28T11:30:03.999Z</time></trkpt><trkpt lat="44.70905707421997" lon="10.230881631234626"><ele>169.25</ele><time>2026-03-28T11:30:04.999Z</time></trkpt><trkpt lat="44.709196309670716" lon="10.230926951614759"><ele>169.0</ele><time>2026-03-28T11:30:05.999Z</time></trkpt><trkpt lat="44.709337060365094" lon="10.230973802513805"><ele>168.66666666666669</ele><time>2026-03-28T11:30:06.999Z</time></trkpt><trkpt lat="44.70948791999064" lon="10.231020602944401"><ele>168.33333333333334</ele><time>2026-03-28T11:30:07.999Z</time></trkpt><trkpt lat="44.70964424893232" lon="10.231069727893038"><ele>168.0</ele><time>2026-03-28T11:30:08.999Z</time></trkpt><trkpt lat="44.7097999482363" lon="10.23112437398408"><ele>168.0</ele><time>2026-03-28T11:30:09.999Z</time></trkpt><trkpt lat="44.70994849140099" lon="10.231175564968176"><ele>168.0</ele><time>2026-03-28T11:30:11Z</time></trkpt><trkpt lat="44.71009967305661" lon="10.231225021848962"><ele>168.0</ele><time>2026-03-28T11:30:12Z</time></trkpt><trkpt lat="44.71025284134004" lon="10.231280943493786"><ele>168.0</ele><time>2026-03-28T11:30:13Z</time></trkpt><trkpt lat="44.71040154020084" lon="10.231319493083346"><ele>168.0</ele><time>2026-03-28T11:30:14Z</time></trkpt><trkpt lat="44.71054461143827" lon="10.231368388596435"><ele>168.0</ele><time>2026-03-28T11:30:15Z</time></trkpt><trkpt lat="44.71068289769549" lon="10.231416520118657"><ele>168.0</ele><time>2026-03-28T11:30:16Z</time></trkpt><trkpt lat="44.710821896889875" lon="10.231448605200558"><ele>168.0</ele><time>2026-03-28T11:30:17Z</time></trkpt><trkpt lat="44.710942942176274" lon="10.231497332604519"><ele>168.0</ele><time>2026-03-28T11:30:18Z</time></trkpt><trkpt lat="44.711076820605925" lon="10.231542630927773"><ele>168.0</ele><time>2026-03-28T11:30:19Z</time></trkpt><trkpt lat="44.71121234628708" lon="10.231588905054037"><ele>168.0</ele><time>2026-03-28T11:30:20Z</time></trkpt><trkpt lat="44.711337904823225" lon="10.231629339933079"><ele>168.0</ele><time>2026-03-28T11:30:21Z</time></trkpt><trkpt lat="44.71145662718907" lon="10.231667976218375"><ele>168.0</ele><time>2026-03-28T11:30:22Z</time></trkpt><trkpt lat="44.711571146515986" lon="10.23169834795667"><ele>168.0</ele><time>2026-03-28T11:30:23Z</time></trkpt><trkpt lat="44.711682058612006" lon="10.231724271924033"><ele>168.0</ele><time>2026-03-28T11:30:24Z</time></trkpt><trkpt lat="44.7117917161653" lon="10.231767880450635"><ele>168.0</ele><time>2026-03-28T11:30:25Z</time></trkpt><trkpt lat="44.71190290990793" lon="10.231810897955814"><ele>168.0</ele><time>2026-03-28T11:30:26Z</time></trkpt><trkpt lat="44.712002990006674" lon="10.23185198482707"><ele>168.0</ele><time>2026-03-28T11:30:27Z</time></trkpt><trkpt lat="44.712091135260174" lon="10.231895066579607"><ele>168.0</ele><time>2026-03-28T11:30:28Z</time></trkpt><trkpt lat="44.71215256040828" lon="10.23193017585199"><ele>168.0</ele><time>2026-03-28T11:30:29Z</time></trkpt><trkpt lat="44.71222039302643" lon="10.231980484272505"><ele>167.60000000000002</ele><time>2026-03-28T11:30:31Z</time></trkpt><trkpt lat="44.71229675369117" lon="10.232019769967406"><ele>167.20000000000002</ele><time>2026-03-28T11:30:47Z</time></trkpt><trkpt lat="44.71242640641042" lon="10.231938339986286"><ele>166.8</ele><time>2026-03-28T11:30:49Z</time></trkpt><trkpt lat="44.71249708253986" lon="10.23186027861488"><ele>166.4</ele><time>2026-03-28T11:30:50Z</time></trkpt><trkpt lat="44.712606133700355" lon="10.23176517813305"><ele>166.0</ele><time>2026-03-28T11:30:51Z</time></trkpt><trkpt lat="44.71273490038767" lon="10.231708056970216"><ele>166.4</ele><time>2026-03-28T11:30:52Z</time></trkpt><trkpt lat="44.71284705080791" lon="10.231679822672934"><ele>166.8</ele><time>2026-03-28T11:30:53Z</time></trkpt><trkpt lat="44.71294352469471" lon="10.231638744726279"><ele>167.20000000000002</ele><time>2026-03-28T11:30:54Z</time></trkpt><trkpt lat="44.713045005914445" lon="10.231600044405457"><ele>167.60000000000002</ele><time>2026-03-28T11:30:55Z</time></trkpt><trkpt lat="44.71314607113413" lon="10.231554328646483"><ele>168.0</ele><time>2026-03-28T11:30:56Z</time></trkpt><trkpt lat="44.71324440648198" lon="10.231513427106997"><ele>168.0</ele><time>2026-03-28T11:30:57Z</time></trkpt><trkpt lat="44.71333738753339" lon="10.231473787024361"><ele>168.0</ele><time>2026-03-28T11:30:58Z</time></trkpt><trkpt lat="44.71342755039497" lon="10.231435963387474"><ele>168.0</ele><time>2026-03-28T11:30:59Z</time></trkpt><trkpt lat="44.713514805873224" lon="10.231397509659159"><ele>168.0</ele><time>2026-03-28T11:31:00Z</time></trkpt><trkpt lat="44.71360340970749" lon="10.231359552106227"><ele>168.0</ele><time>2026-03-28T11:31:01Z</time></trkpt><trkpt lat="44.7136918924862" lon="10.231321683161747"><ele>167.60000000000002</ele><time>2026-03-28T11:31:02Z</time></trkpt><trkpt lat="44.71377737238968" lon="10.231290106398106"><ele>167.20000000000002</ele><time>2026-03-28T11:31:03Z</time></trkpt><trkpt lat="44.71386152917392" lon="10.231261742742753"><ele>166.8</ele><time>2026-03-28T11:31:04Z</time></trkpt><trkpt lat="44.713945975389485" lon="10.23124187027606"><ele>166.4</ele><time>2026-03-28T11:31:05Z</time></trkpt><trkpt lat="44.714040022991725" lon="10.231229724425605"><ele>166.0</ele><time>2026-03-28T11:31:06Z</time></trkpt><trkpt lat="44.71413485940687" lon="10.231240170415893"><ele>166.0</ele><time>2026-03-28T11:31:07Z</time></trkpt><trkpt lat="44.71423416622727" lon="10.231265978124448"><ele>166.0</ele><time>2026-03-28T11:31:08Z</time></trkpt><trkpt lat="44.71433382328228" lon="10.23129048162404"><ele>166.0</ele><time>2026-03-28T11:31:09Z</time></trkpt><trkpt lat="44.71443101374398" lon="10.231328954264866"><ele>166.0</ele><time>2026-03-28T11:31:10Z</time></trkpt><trkpt lat="44.714526878195514" lon="10.231365074075809"><ele>166.0</ele><time>2026-03-28T11:31:11Z</time></trkpt><trkpt lat="44.71462458026177" lon="10.231397947676612"><ele>165.4</ele><time>2026-03-28T11:31:12Z</time></trkpt><trkpt lat="44.71472706853991" lon="10.231431552786866"><ele>164.8</ele><time>2026-03-28T11:31:13Z</time></trkpt><trkpt lat="44.714828136878396" lon="10.231463290588328"><ele>164.20000000000002</ele><time>2026-03-28T11:31:14Z</time></trkpt><trkpt lat="44.714933912704794" lon="10.23149852119997"><ele>163.60000000000002</ele><time>2026-03-28T11:31:15Z</time></trkpt><trkpt lat="44.715044835973835" lon="10.23154429951442"><ele>163.0</ele><time>2026-03-28T11:31:16Z</time></trkpt><trkpt lat="44.715154796529696" lon="10.231587515692626"><ele>163.0</ele><time>2026-03-28T11:31:17Z</time></trkpt><trkpt lat="44.715265233853394" lon="10.23162972353256"><ele>163.0</ele><time>2026-03-28T11:31:18Z</time></trkpt><trkpt lat="44.71536393067978" lon="10.231662901231413"><ele>163.0</ele><time>2026-03-28T11:31:19Z</time></trkpt><trkpt lat="44.715454334951616" lon="10.231693204553096"><ele>163.0</ele><time>2026-03-28T11:31:20Z</time></trkpt><trkpt lat="44.71554071457498" lon="10.231722673937536"><ele>163.0</ele><time>2026-03-28T11:31:21Z</time></trkpt><trkpt lat="44.71563710250434" lon="10.231754805032454"><ele>163.0</ele><time>2026-03-28T11:31:21.999Z</time></trkpt><trkpt lat="44.715748190507256" lon="10.231790321141458"><ele>163.0</ele><time>2026-03-28T11:31:22.999Z</time></trkpt><trkpt lat="44.7158703206167" lon="10.231820964771913"><ele>163.0</ele><time>2026-03-28T11:31:23.999Z</time></trkpt><trkpt lat="44.71601170664489" lon="10.231847951900997"><ele>163.0</ele><time>2026-03-28T11:31:24.999Z</time></trkpt><trkpt lat="44.71614763009026" lon="10.231876724660898"><ele>162.75</ele><time>2026-03-28T11:31:25.999Z</time></trkpt><trkpt lat="44.716289669181485" lon="10.231922042722028"><ele>162.5</ele><time>2026-03-28T11:31:26.999Z</time></trkpt><trkpt lat="44.716433010810086" lon="10.23196474439314"><ele>162.25</ele><time>2026-03-28T11:31:27.999Z</time></trkpt><trkpt lat="44.71657671012181" lon="10.23200700908569"><ele>162.0</ele><time>2026-03-28T11:31:28.999Z</time></trkpt><trkpt lat="44.71671351510081" lon="10.23204117693824"><ele>162.0</ele><time>2026-03-28T11:31:29.999Z</time></trkpt><trkpt lat="44.71685908681935" lon="10.232090219955271"><ele>162.0</ele><time>2026-03-28T11:31:30.999Z</time></trkpt><trkpt lat="44.71699740911046" lon="10.23213007023105"><ele>162.0</ele><time>2026-03-28T11:31:31.999Z</time></trkpt><trkpt lat="44.7171239621509" lon="10.23217384437929"><ele>162.0</ele><time>2026-03-28T11:31:32.999Z</time></trkpt><trkpt lat="44.71724383596685" lon="10.232211469213633"><ele>161.25</ele><time>2026-03-28T11:31:33.999Z</time></trkpt><trkpt lat="44.717373241800516" lon="10.232253162498274"><ele>160.5</ele><time>2026-03-28T11:31:34.999Z</time></trkpt><trkpt lat="44.717508724641384" lon="10.232299202045212"><ele>159.75</ele><time>2026-03-28T11:31:35.999Z</time></trkpt><trkpt lat="44.71763330319162" lon="10.23233867341785"><ele>159.0</ele><time>2026-03-28T11:31:36.999Z</time></trkpt><trkpt lat="44.717747417815" lon="10.23237185008014"><ele>158.75</ele><time>2026-03-28T11:31:37.999Z</time></trkpt><trkpt lat="44.71785694609357" lon="10.232408551121312"><ele>158.5</ele><time>2026-03-28T11:31:38.999Z</time></trkpt><trkpt lat="44.717975480559005" lon="10.232447449184388"><ele>158.25</ele><time>2026-03-28T11:31:39.999Z</time></trkpt><trkpt lat="44.71810392571533" lon="10.23248554069476"><ele>158.0</ele><time>2026-03-28T11:31:40.999Z</time></trkpt><trkpt lat="44.71823654307436" lon="10.232522274572691"><ele>158.0</ele><time>2026-03-28T11:31:41.999Z</time></trkpt><trkpt lat="44.71836870638252" lon="10.232565948923995"><ele>158.0</ele><time>2026-03-28T11:31:42.999Z</time></trkpt><trkpt lat="44.71849668050242" lon="10.232608878394293"><ele>158.0</ele><time>2026-03-28T11:31:43.999Z</time></trkpt><trkpt lat="44.718622874443746" lon="10.232645652058448"><ele>158.0</ele><time>2026-03-28T11:31:44.999Z</time></trkpt><trkpt lat="44.71874921434336" lon="10.232685020972271"><ele>157.75</ele><time>2026-03-28T11:31:45.999Z</time></trkpt><trkpt lat="44.71887134427876" lon="10.232724695667928"><ele>157.5</ele><time>2026-03-28T11:31:46.999Z</time></trkpt><trkpt lat="44.71899359450377" lon="10.232761635205875"><ele>157.25</ele><time>2026-03-28T11:31:47.999Z</time></trkpt><trkpt lat="44.719119278652265" lon="10.23279925445232"><ele>157.0</ele><time>2026-03-28T11:31:48.999Z</time></trkpt><trkpt lat="44.71924896648603" lon="10.232844204191009"><ele>157.0</ele><time>2026-03-28T11:31:49.999Z</time></trkpt><trkpt lat="44.719376462927556" lon="10.232880390467184"><ele>157.0</ele><time>2026-03-28T11:31:50.999Z</time></trkpt><trkpt lat="44.71949793421586" lon="10.232911765096649"><ele>157.0</ele><time>2026-03-28T11:31:51.999Z</time></trkpt><trkpt lat="44.71961880454525" lon="10.232926303714873"><ele>157.0</ele><time>2026-03-28T11:31:52.999Z</time></trkpt><trkpt lat="44.719745817765585" lon="10.232970794683132"><ele>157.0</ele><time>2026-03-28T11:31:53.999Z</time></trkpt><trkpt lat="44.71986203940623" lon="10.233013930562821"><ele>157.0</ele><time>2026-03-28T11:31:54.999Z</time></trkpt><trkpt lat="44.71998245531955" lon="10.233049327546421"><ele>157.0</ele><time>2026-03-28T11:31:55.999Z</time></trkpt><trkpt lat="44.72010476002735" lon="10.233091133896371"><ele>157.0</ele><time>2026-03-28T11:31:56.999Z</time></trkpt><trkpt lat="44.72023205039766" lon="10.233134854681301"><ele>156.75</ele><time>2026-03-28T11:31:57.999Z</time></trkpt><trkpt lat="44.72036138320825" lon="10.233187860782463"><ele>156.5</ele><time>2026-03-28T11:31:58.999Z</time></trkpt><trkpt lat="44.72049556627687" lon="10.23323733752558"><ele>156.25</ele><time>2026-03-28T11:31:59.999Z</time></trkpt><trkpt lat="44.7206300661805" lon="10.233284932144436"><ele>156.0</ele><time>2026-03-28T11:32:00.999Z</time></trkpt><trkpt lat="44.72076026766685" lon="10.233329000473777"><ele>156.0</ele><time>2026-03-28T11:32:01.999Z</time></trkpt><trkpt lat="44.720890343245486" lon="10.233366640999131"><ele>156.0</ele><time>2026-03-28T11:32:02.999Z</time></trkpt><trkpt lat="44.721013055621235" lon="10.233398120015142"><ele>156.0</ele><time>2026-03-28T11:32:03.999Z</time></trkpt><trkpt lat="44.72112657380548" lon="10.233434879914265"><ele>156.0</ele><time>2026-03-28T11:32:04.999Z</time></trkpt><trkpt lat="44.72123006443263" lon="10.233468456922246"><ele>155.5</ele><time>2026-03-28T11:32:05.999Z</time></trkpt><trkpt lat="44.72132352087871" lon="10.233501340908367"><ele>155.0</ele><time>2026-03-28T11:32:06.999Z</time></trkpt><trkpt lat="44.72139841526379" lon="10.233519459081915"><ele>154.5</ele><time>2026-03-28T11:32:07.999Z</time></trkpt><trkpt lat="44.72146847654496" lon="10.233523254599158"><ele>154.0</ele><time>2026-03-28T11:32:08.999Z</time></trkpt><trkpt lat="44.72153520652538" lon="10.233526529489167"><ele>153.5</ele><time>2026-03-28T11:32:09.999Z</time></trkpt><trkpt lat="44.72165350447402" lon="10.233544468756103"><ele>153.0</ele><time>2026-03-28T11:32:11.999Z</time></trkpt><trkpt lat="44.721716953142845" lon="10.23355871490768"><ele>153.0</ele><time>2026-03-28T11:32:12.999Z</time></trkpt><trkpt lat="44.721791265533376" lon="10.233580402020577"><ele>153.0</ele><time>2026-03-28T11:32:13.999Z</time></trkpt><trkpt lat="44.72185906813444" lon="10.233591751459862"><ele>153.0</ele><time>2026-03-28T11:32:14.999Z</time></trkpt><trkpt lat="44.72195919343759" lon="10.233461240776501"><ele>153.0</ele><time>2026-03-28T11:32:17Z</time></trkpt><trkpt lat="44.72193511112414" lon="10.233307679365698"><ele>153.0</ele><time>2026-03-28T11:32:18Z</time></trkpt><trkpt lat="44.7219098939726" lon="10.233146083437301"><ele>152.66666666666666</ele><time>2026-03-28T11:32:19Z</time></trkpt><trkpt lat="44.721909655880864" lon="10.23298129724955"><ele>152.33333333333331</ele><time>2026-03-28T11:32:20Z</time></trkpt><trkpt lat="44.72193121446275" lon="10.232765600226903"><ele>152.0</ele><time>2026-03-28T11:32:21Z</time></trkpt><trkpt lat="44.72195696792382" lon="10.232479028060546"><ele>151.5</ele><time>2026-03-28T11:32:22Z</time></trkpt><trkpt lat="44.72202654364413" lon="10.232127963176483"><ele>151.0</ele><time>2026-03-28T11:32:23Z</time></trkpt><trkpt lat="44.72206330840322" lon="10.23174128131775"><ele>151.0</ele><time>2026-03-28T11:32:24Z</time></trkpt><trkpt lat="44.7220769751429" lon="10.231346643062865"><ele>151.0</ele><time>2026-03-28T11:32:25Z</time></trkpt><trkpt lat="44.722132035451345" lon="10.230964053151823"><ele>151.5</ele><time>2026-03-28T11:32:26Z</time></trkpt><trkpt lat="44.72216778681388" lon="10.23061375593805"><ele>152.0</ele><time>2026-03-28T11:32:27Z</time></trkpt><trkpt lat="44.72219128627735" lon="10.230313689106753"><ele>152.0</ele><time>2026-03-28T11:32:28Z</time></trkpt><trkpt lat="44.72221558264258" lon="10.230041252379769"><ele>152.0</ele><time>2026-03-28T11:32:29Z</time></trkpt><trkpt lat="44.722238442236524" lon="10.229801160966847"><ele>152.0</ele><time>2026-03-28T11:32:30Z</time></trkpt><trkpt lat="44.7222722136235" lon="10.229590418976212"><ele>152.75</ele><time>2026-03-28T11:32:31Z</time></trkpt><trkpt lat="44.722274623326186" lon="10.229395420409856"><ele>153.5</ele><time>2026-03-28T11:32:32Z</time></trkpt><trkpt lat="44.72230597655737" lon="10.229224168486228"><ele>154.25</ele><time>2026-03-28T11:32:33Z</time></trkpt><trkpt lat="44.72232240914116" lon="10.229060816485651"><ele>155.0</ele><time>2026-03-28T11:32:34Z</time></trkpt><trkpt lat="44.72234380663263" lon="10.228919580364677"><ele>155.16666666666666</ele><time>2026-03-28T11:32:35Z</time></trkpt><trkpt lat="44.72236627203525" lon="10.228781945169288"><ele>155.33333333333331</ele><time>2026-03-28T11:32:36Z</time></trkpt><trkpt lat="44.722382947917254" lon="10.228665992446103"><ele>155.5</ele><time>2026-03-28T11:32:37Z</time></trkpt><trkpt lat="44.72238604602205" lon="10.22855672600714"><ele>155.66666666666666</ele><time>2026-03-28T11:32:38Z</time></trkpt><trkpt lat="44.72242158684012" lon="10.228474401494173"><ele>155.83333333333334</ele><time>2026-03-28T11:32:39Z</time></trkpt><trkpt lat="44.72247483897949" lon="10.228381875089758"><ele>156.0</ele><time>2026-03-28T11:32:40Z</time></trkpt><trkpt lat="44.72254452012828" lon="10.228284792362167"><ele>156.0</ele><time>2026-03-28T11:32:41Z</time></trkpt><trkpt lat="44.72262259892959" lon="10.228191435796901"><ele>156.0</ele><time>2026-03-28T11:32:42Z</time></trkpt><trkpt lat="44.72272417349229" lon="10.228135423176555"><ele>156.0</ele><time>2026-03-28T11:32:43Z</time></trkpt><trkpt lat="44.72284692360614" lon="10.228093190982994"><ele>156.0</ele><time>2026-03-28T11:32:44Z</time></trkpt><trkpt lat="44.72298906182896" lon="10.228054478245276"><ele>155.5</ele><time>2026-03-28T11:32:45Z</time></trkpt><trkpt lat="44.723125544441935" lon="10.228015149657276"><ele>155.0</ele><time>2026-03-28T11:32:46Z</time></trkpt><trkpt lat="44.72327157983362" lon="10.227976508312343"><ele>154.5</ele><time>2026-03-28T11:32:47Z</time></trkpt><trkpt lat="44.72341886181371" lon="10.227941228027303"><ele>154.0</ele><time>2026-03-28T11:32:48Z</time></trkpt><trkpt lat="44.72355677092528" lon="10.227913077078078"><ele>154.0</ele><time>2026-03-28T11:32:49Z</time></trkpt><trkpt lat="44.72369687013799" lon="10.227882515539704"><ele>154.0</ele><time>2026-03-28T11:32:50Z</time></trkpt><trkpt lat="44.723834771490175" lon="10.22784894427754"><ele>154.0</ele><time>2026-03-28T11:32:51Z</time></trkpt><trkpt lat="44.723968193728254" lon="10.227811688342195"><ele>154.0</ele><time>2026-03-28T11:32:52Z</time></trkpt><trkpt lat="44.72410273755126" lon="10.22777582882344"><ele>154.0</ele><time>2026-03-28T11:32:53Z</time></trkpt><trkpt lat="44.72424510165613" lon="10.227740180693115"><ele>154.0</ele><time>2026-03-28T11:32:54Z</time></trkpt><trkpt lat="44.72439268461959" lon="10.227703551703165"><ele>154.0</ele><time>2026-03-28T11:32:55Z</time></trkpt><trkpt lat="44.724542051289944" lon="10.227666417767415"><ele>154.0</ele><time>2026-03-28T11:32:56Z</time></trkpt><trkpt lat="44.72469858107081" lon="10.227622858487909"><ele>153.33333333333334</ele><time>2026-03-28T11:32:57Z</time></trkpt><trkpt lat="44.724860056240146" lon="10.227584971606541"><ele>152.66666666666666</ele><time>2026-03-28T11:32:58Z</time></trkpt><trkpt lat="44.72501990605198" lon="10.227547656017313"><ele>152.0</ele><time>2026-03-28T11:32:59Z</time></trkpt><trkpt lat="44.72517343973203" lon="10.227522136199754"><ele>152.0</ele><time>2026-03-28T11:33:00Z</time></trkpt><trkpt lat="44.725339902342945" lon="10.22747838003649"><ele>152.0</ele><time>2026-03-28T11:33:01Z</time></trkpt><trkpt lat="44.72551024164989" lon="10.22743852201294"><ele>152.0</ele><time>2026-03-28T11:33:02Z</time></trkpt><trkpt lat="44.725678348757945" lon="10.227401181161387"><ele>152.0</ele><time>2026-03-28T11:33:03Z</time></trkpt><trkpt lat="44.72584442291257" lon="10.227362250036274"><ele>152.0</ele><time>2026-03-28T11:33:04Z</time></trkpt><trkpt lat="44.72600453907168" lon="10.22730975618717"><ele>152.0</ele><time>2026-03-28T11:33:05Z</time></trkpt><trkpt lat="44.72615651872411" lon="10.227263817059791"><ele>150.66666666666666</ele><time>2026-03-28T11:33:06Z</time></trkpt><trkpt lat="44.726345031767586" lon="10.227241625205052"><ele>149.33333333333334</ele><time>2026-03-28T11:33:07Z</time></trkpt><trkpt lat="44.726568013408254" lon="10.227187285124334"><ele>148.0</ele><time>2026-03-28T11:33:08Z</time></trkpt><trkpt lat="44.726823581800566" lon="10.22712516526565"><ele>148.5</ele><time>2026-03-28T11:33:09Z</time></trkpt><trkpt lat="44.727071125820785" lon="10.227064163969573"><ele>149.0</ele><time>2026-03-28T11:33:10Z</time></trkpt><trkpt lat="44.727348135144695" lon="10.226978940293966"><ele>149.0</ele><time>2026-03-28T11:33:11Z</time></trkpt><trkpt lat="44.72763988217849" lon="10.22691724689289"><ele>149.0</ele><time>2026-03-28T11:33:12Z</time></trkpt><trkpt lat="44.727925442173444" lon="10.226845837084362"><ele>149.5</ele><time>2026-03-28T11:33:13Z</time></trkpt><trkpt lat="44.72821670049705" lon="10.226774398382695"><ele>150.0</ele><time>2026-03-28T11:33:14Z</time></trkpt><trkpt lat="44.72847814833296" lon="10.226713400086666"><ele>147.0</ele><time>2026-03-28T11:33:15Z</time></trkpt><trkpt lat="44.72873751881953" lon="10.22665750254208"><ele>144.0</ele><time>2026-03-28T11:33:16Z</time></trkpt><trkpt lat="44.72899991376675" lon="10.226600880583996"><ele>144.0</ele><time>2026-03-28T11:33:17Z</time></trkpt><trkpt lat="44.729265673428834" lon="10.226555799354925"><ele>144.0</ele><time>2026-03-28T11:33:18Z</time></trkpt><trkpt lat="44.72953584054989" lon="10.226512485378702"><ele>142.0</ele><time>2026-03-28T11:33:19Z</time></trkpt><trkpt lat="44.72980572518217" lon="10.226462586227418"><ele>140.0</ele><time>2026-03-28T11:33:20Z</time></trkpt><trkpt lat="44.73007026001058" lon="10.226412268467453"><ele>142.0</ele><time>2026-03-28T11:33:21Z</time></trkpt><trkpt lat="44.730330919566086" lon="10.226366970777532"><ele>144.0</ele><time>2026-03-28T11:33:22Z</time></trkpt><trkpt lat="44.73058957367727" lon="10.226309926317866"><ele>144.0</ele><time>2026-03-28T11:33:23Z</time></trkpt><trkpt lat="44.73084259005205" lon="10.226228351253605"><ele>144.0</ele><time>2026-03-28T11:33:24Z</time></trkpt><trkpt lat="44.73110089317825" lon="10.226089489499847"><ele>144.5</ele><time>2026-03-28T11:33:24.999Z</time></trkpt><trkpt lat="44.73134514520343" lon="10.225932430303345"><ele>145.0</ele><time>2026-03-28T11:33:25.999Z</time></trkpt><trkpt lat="44.73158103160149" lon="10.2257959670594"><ele>145.0</ele><time>2026-03-28T11:33:26.999Z</time></trkpt><trkpt lat="44.73180809974951" lon="10.225721476638439"><ele>145.0</ele><time>2026-03-28T11:33:27.999Z</time></trkpt><trkpt lat="44.73202201709792" lon="10.225680273520645"><ele>145.0</ele><time>2026-03-28T11:33:28.999Z</time></trkpt><trkpt lat="44.73222615098284" lon="10.22565679172314"><ele>143.0</ele><time>2026-03-28T11:33:29.999Z</time></trkpt><trkpt lat="44.73242463304528" lon="10.225634743374918"><ele>141.0</ele><time>2026-03-28T11:33:30.999Z</time></trkpt><trkpt lat="44.73260987592301" lon="10.225596386720918"><ele>139.0</ele><time>2026-03-28T11:33:31.999Z</time></trkpt><trkpt lat="44.732796597102755" lon="10.225598574373034"><ele>138.33333333333334</ele><time>2026-03-28T11:33:32.999Z</time></trkpt><trkpt lat="44.732971311039904" lon="10.22556213188466"><ele>137.66666666666666</ele><time>2026-03-28T11:33:33.999Z</time></trkpt><trkpt lat="44.7331438557232" lon="10.225550101174056"><ele>137.0</ele><time>2026-03-28T11:33:34.999Z</time></trkpt><trkpt lat="44.73331420691625" lon="10.22554724463646"><ele>137.0</ele><time>2026-03-28T11:33:35.999Z</time></trkpt><trkpt lat="44.73349606861464" lon="10.225525091303737"><ele>137.0</ele><time>2026-03-28T11:33:36.999Z</time></trkpt><trkpt lat="44.733696087560794" lon="10.225503931530763"><ele>137.0</ele><time>2026-03-28T11:33:37.999Z</time></trkpt><trkpt lat="44.73391135469976" lon="10.225505677839376"><ele>135.5</ele><time>2026-03-28T11:33:38.999Z</time></trkpt><trkpt lat="44.73414106907751" lon="10.225488731237526"><ele>134.0</ele><time>2026-03-28T11:33:39.999Z</time></trkpt><trkpt lat="44.734376310405594" lon="10.225471378924937"><ele>134.0</ele><time>2026-03-28T11:33:40.999Z</time></trkpt><trkpt lat="44.73460730860411" lon="10.22544771934014"><ele>134.0</ele><time>2026-03-28T11:33:41.999Z</time></trkpt><trkpt lat="44.734836431822856" lon="10.225432066295443"><ele>134.0</ele><time>2026-03-28T11:33:42.999Z</time></trkpt><trkpt lat="44.73507186513695" lon="10.225413738828637"><ele>134.0</ele><time>2026-03-28T11:33:43.999Z</time></trkpt><trkpt lat="44.735286097354795" lon="10.225398505540554"><ele>133.66666666666666</ele><time>2026-03-28T11:33:44.999Z</time></trkpt><trkpt lat="44.73548538995656" lon="10.225386166709031"><ele>133.33333333333334</ele><time>2026-03-28T11:33:45.999Z</time></trkpt><trkpt lat="44.73567447488935" lon="10.225372589500546"><ele>133.0</ele><time>2026-03-28T11:33:46.999Z</time></trkpt><trkpt lat="44.735846917392564" lon="10.225358134966527"><ele>133.0</ele><time>2026-03-28T11:33:47.999Z</time></trkpt><trkpt lat="44.73601962726161" lon="10.225346229684876"><ele>133.0</ele><time>2026-03-28T11:33:48.999Z</time></trkpt><trkpt lat="44.73618047979967" lon="10.225337760517347"><ele>133.0</ele><time>2026-03-28T11:33:49.999Z</time></trkpt><trkpt lat="44.73633661746149" lon="10.225329339630333"><ele>132.66666666666669</ele><time>2026-03-28T11:33:50.999Z</time></trkpt><trkpt lat="44.73649446201581" lon="10.225315937571722"><ele>132.33333333333334</ele><time>2026-03-28T11:33:51.999Z</time></trkpt><trkpt lat="44.73666748714212" lon="10.225305446663844"><ele>132.0</ele><time>2026-03-28T11:33:52.999Z</time></trkpt><trkpt lat="44.73686173566894" lon="10.225295871507425"><ele>131.66666666666666</ele><time>2026-03-28T11:33:53.999Z</time></trkpt><trkpt lat="44.73706618040978" lon="10.225281401643814"><ele>131.33333333333331</ele><time>2026-03-28T11:33:54.999Z</time></trkpt><trkpt lat="44.73727031901928" lon="10.22526961972976"><ele>131.0</ele><time>2026-03-28T11:33:55.999Z</time></trkpt><trkpt lat="44.73747015150904" lon="10.225261203673451"><ele>131.0</ele><time>2026-03-28T11:33:56.999Z</time></trkpt><trkpt lat="44.73765731603834" lon="10.225250283960575"><ele>131.0</ele><time>2026-03-28T11:33:57.999Z</time></trkpt><trkpt lat="44.73784925887453" lon="10.22523850668836"><ele>131.0</ele><time>2026-03-28T11:33:58.999Z</time></trkpt><trkpt lat="44.73805009180657" lon="10.225228869472032"><ele>130.0</ele><time>2026-03-28T11:33:59.999Z</time></trkpt><trkpt lat="44.73825047903996" lon="10.225219357755561"><ele>129.0</ele><time>2026-03-28T11:34:00.999Z</time></trkpt><trkpt lat="44.73845188704968" lon="10.22520864473321"><ele>128.0</ele><time>2026-03-28T11:34:01.999Z</time></trkpt><trkpt lat="44.73866206291894" lon="10.225195996765024"><ele>127.66666666666666</ele><time>2026-03-28T11:34:02.999Z</time></trkpt><trkpt lat="44.73887911832989" lon="10.225182271243881"><ele>127.33333333333334</ele><time>2026-03-28T11:34:03.999Z</time></trkpt><trkpt lat="44.73910546744894" lon="10.225167174291494"><ele>127.0</ele><time>2026-03-28T11:34:04.999Z</time></trkpt><trkpt lat="44.739335130449106" lon="10.225154111793175"><ele>127.5</ele><time>2026-03-28T11:34:05.999Z</time></trkpt><trkpt lat="44.73956263622105" lon="10.225142182406676"><ele>128.0</ele><time>2026-03-28T11:34:06.999Z</time></trkpt><trkpt lat="44.7397924398513" lon="10.225129173703637"><ele>128.0</ele><time>2026-03-28T11:34:07.999Z</time></trkpt><trkpt lat="44.74002783430801" lon="10.225113088113323"><ele>128.0</ele><time>2026-03-28T11:34:08.999Z</time></trkpt><trkpt lat="44.74025440706147" lon="10.22509861173751"><ele>128.0</ele><time>2026-03-28T11:34:09.999Z</time></trkpt><trkpt lat="44.74047405226212" lon="10.225085292394555"><ele>128.0</ele><time>2026-03-28T11:34:10.999Z</time></trkpt><trkpt lat="44.74069604327119" lon="10.225071314376333"><ele>128.0</ele><time>2026-03-28T11:34:11.999Z</time></trkpt><trkpt lat="44.74091488426552" lon="10.225057601791853"><ele>127.66666666666666</ele><time>2026-03-28T11:34:12.999Z</time></trkpt><trkpt lat="44.74113316315432" lon="10.22504253403739"><ele>127.33333333333334</ele><time>2026-03-28T11:34:13.999Z</time></trkpt><trkpt lat="44.74134563746573" lon="10.225029912205468"><ele>127.0</ele><time>2026-03-28T11:34:14.999Z</time></trkpt><trkpt lat="44.741547144657375" lon="10.225017607096392"><ele>127.0</ele><time>2026-03-28T11:34:15.999Z</time></trkpt><trkpt lat="44.741745548156146" lon="10.225005120842551"><ele>127.0</ele><time>2026-03-28T11:34:16.999Z</time></trkpt><trkpt lat="44.74193836198714" lon="10.224994001048184"><ele>127.0</ele><time>2026-03-28T11:34:17.999Z</time></trkpt><trkpt lat="44.74211165003449" lon="10.224987453742377"><ele>126.66666666666667</ele><time>2026-03-28T11:34:18.999Z</time></trkpt><trkpt lat="44.7422971148097" lon="10.224979249281683"><ele>126.33333333333334</ele><time>2026-03-28T11:34:19.999Z</time></trkpt><trkpt lat="44.74247060411168" lon="10.224968639631046"><ele>126.0</ele><time>2026-03-28T11:34:20.999Z</time></trkpt><trkpt lat="44.74264410084362" lon="10.22495552667572"><ele>125.33333333333334</ele><time>2026-03-28T11:34:21.999Z</time></trkpt><trkpt lat="44.742805426700336" lon="10.224945940871693"><ele>124.66666666666667</ele><time>2026-03-28T11:34:23Z</time></trkpt><trkpt lat="44.74295627768235" lon="10.224940226148194"><ele>124.0</ele><time>2026-03-28T11:34:24Z</time></trkpt><trkpt lat="44.743093629975384" lon="10.224931019832884"><ele>124.0</ele><time>2026-03-28T11:34:25Z</time></trkpt><trkpt lat="44.74323216830329" lon="10.224920598349591"><ele>124.0</ele><time>2026-03-28T11:34:26Z</time></trkpt><trkpt lat="44.74337482910941" lon="10.224914437538015"><ele>124.0</ele><time>2026-03-28T11:34:27Z</time></trkpt><trkpt lat="44.74351340638285" lon="10.224908808265013"><ele>124.0</ele><time>2026-03-28T11:34:28Z</time></trkpt><trkpt lat="44.74364092223005" lon="10.224901000880722"><ele>124.0</ele><time>2026-03-28T11:34:29Z</time></trkpt><trkpt lat="44.74375932631387" lon="10.224889003276603"><ele>124.0</ele><time>2026-03-28T11:34:30Z</time></trkpt><trkpt lat="44.74387021343899" lon="10.224883420403026"><ele>124.0</ele><time>2026-03-28T11:34:31Z</time></trkpt><trkpt lat="44.74396980682986" lon="10.224892612685682"><ele>124.0</ele><time>2026-03-28T11:34:32Z</time></trkpt><trkpt lat="44.744053301669204" lon="10.224925766015195"><ele>124.0</ele><time>2026-03-28T11:34:33Z</time></trkpt><trkpt lat="44.74412638246615" lon="10.22497387871888"><ele>124.0</ele><time>2026-03-28T11:34:34Z</time></trkpt><trkpt lat="44.74419473809916" lon="10.225014107829626"><ele>124.0</ele><time>2026-03-28T11:34:35Z</time></trkpt><trkpt lat="44.744298836149056" lon="10.224983740207756"><ele>124.0</ele><time>2026-03-28T11:34:36Z</time></trkpt><trkpt lat="44.74436913830994" lon="10.224830786422428"><ele>124.0</ele><time>2026-03-28T11:34:37Z</time></trkpt><trkpt lat="44.74444170161782" lon="10.224687069629882"><ele>124.0</ele><time>2026-03-28T11:34:38Z</time></trkpt><trkpt lat="44.74456449457064" lon="10.224604306058591"><ele>123.75</ele><time>2026-03-28T11:34:39Z</time></trkpt><trkpt lat="44.74470493279264" lon="10.224499848694094"><ele>123.5</ele><time>2026-03-28T11:34:40Z</time></trkpt><trkpt lat="44.744828034775495" lon="10.224409535699184"><ele>123.25</ele><time>2026-03-28T11:34:41Z</time></trkpt><trkpt lat="44.74493632657447" lon="10.224305142293648"><ele>123.0</ele><time>2026-03-28T11:34:42Z</time></trkpt><trkpt lat="44.745059239385654" lon="10.224223625085937"><ele>123.0</ele><time>2026-03-28T11:34:43Z</time></trkpt><trkpt lat="44.74518394688876" lon="10.224130236793746"><ele>123.0</ele><time>2026-03-28T11:34:44Z</time></trkpt><trkpt lat="44.745313736317954" lon="10.224039530410701"><ele>123.0</ele><time>2026-03-28T11:34:45Z</time></trkpt><trkpt lat="44.74543769972667" lon="10.223950146367978"><ele>123.0</ele><time>2026-03-28T11:34:46Z</time></trkpt><trkpt lat="44.745568575939224" lon="10.223893447806674"><ele>122.75</ele><time>2026-03-28T11:34:47Z</time></trkpt><trkpt lat="44.745693517194276" lon="10.223803188135461"><ele>122.5</ele><time>2026-03-28T11:34:48Z</time></trkpt><trkpt lat="44.745825518061714" lon="10.22375472635357"><ele>122.25</ele><time>2026-03-28T11:34:49Z</time></trkpt><trkpt lat="44.745958333899104" lon="10.22371350499024"><ele>122.0</ele><time>2026-03-28T11:34:50Z</time></trkpt><trkpt lat="44.746093594416486" lon="10.223681739176321"><ele>121.66666666666666</ele><time>2026-03-28T11:34:51Z</time></trkpt><trkpt lat="44.746238359868876" lon="10.223666695927413"><ele>121.33333333333334</ele><time>2026-03-28T11:34:52Z</time></trkpt><trkpt lat="44.746389679036845" lon="10.223665107374519"><ele>121.0</ele><time>2026-03-28T11:34:53Z</time></trkpt><trkpt lat="44.74654486885388" lon="10.223671811642866"><ele>121.0</ele><time>2026-03-28T11:34:54Z</time></trkpt><trkpt lat="44.74670161495893" lon="10.22368767702122"><ele>121.0</ele><time>2026-03-28T11:34:55Z</time></trkpt><trkpt lat="44.746864403527624" lon="10.223704714968683"><ele>121.0</ele><time>2026-03-28T11:34:56Z</time></trkpt><trkpt lat="44.74702772722899" lon="10.223725587485553"><ele>121.0</ele><time>2026-03-28T11:34:57Z</time></trkpt><trkpt lat="44.74719189689464" lon="10.223747624707414"><ele>121.0</ele><time>2026-03-28T11:34:58Z</time></trkpt><trkpt lat="44.74735744250757" lon="10.223768026380313"><ele>121.0</ele><time>2026-03-28T11:34:59Z</time></trkpt><trkpt lat="44.747521480546794" lon="10.223788152789613"><ele>121.0</ele><time>2026-03-28T11:35:00Z</time></trkpt><trkpt lat="44.747664817136396" lon="10.223805211927706"><ele>121.0</ele><time>2026-03-28T11:35:01Z</time></trkpt><trkpt lat="44.74778623163778" lon="10.223819317208887"><ele>121.0</ele><time>2026-03-28T11:35:02Z</time></trkpt><trkpt lat="44.74787943731227" lon="10.22383129267695"><ele>121.0</ele><time>2026-03-28T11:35:03Z</time></trkpt><trkpt lat="44.74797098848295" lon="10.223842364198493"><ele>120.5</ele><time>2026-03-28T11:35:04Z</time></trkpt><trkpt lat="44.74806661812091" lon="10.223845678816044"><ele>120.0</ele><time>2026-03-28T11:35:05Z</time></trkpt><trkpt lat="44.74817976010921" lon="10.223857092116083"><ele>119.5</ele><time>2026-03-28T11:35:06Z</time></trkpt><trkpt lat="44.74830061513337" lon="10.22388248613802"><ele>119.0</ele><time>2026-03-28T11:35:07Z</time></trkpt><trkpt lat="44.74843239038212" lon="10.223904213512437"><ele>119.0</ele><time>2026-03-28T11:35:08Z</time></trkpt><trkpt lat="44.74857221776562" lon="10.223927080166286"><ele>119.0</ele><time>2026-03-28T11:35:09Z</time></trkpt><trkpt lat="44.74871689498269" lon="10.223949167901102"><ele>119.0</ele><time>2026-03-28T11:35:10Z</time></trkpt><trkpt lat="44.74886121811354" lon="10.223964604689536"><ele>119.0</ele><time>2026-03-28T11:35:11Z</time></trkpt><trkpt lat="44.749006752189636" lon="10.223980660686857"><ele>119.0</ele><time>2026-03-28T11:35:12Z</time></trkpt><trkpt lat="44.749154159212225" lon="10.223999739288438"><ele>119.0</ele><time>2026-03-28T11:35:13Z</time></trkpt><trkpt lat="44.7493041932545" lon="10.224016618444054"><ele>119.0</ele><time>2026-03-28T11:35:14Z</time></trkpt><trkpt lat="44.74945327656411" lon="10.224036894580141"><ele>119.0</ele><time>2026-03-28T11:35:15Z</time></trkpt><trkpt lat="44.74960233008968" lon="10.224056172681385"><ele>118.5</ele><time>2026-03-28T11:35:16Z</time></trkpt><trkpt lat="44.74973709293885" lon="10.224073671546286"><ele>118.0</ele><time>2026-03-28T11:35:17Z</time></trkpt><trkpt lat="44.74985368840404" lon="10.22408802667075"><ele>117.5</ele><time>2026-03-28T11:35:18Z</time></trkpt><trkpt lat="44.74996849219785" lon="10.224104005751235"><ele>117.0</ele><time>2026-03-28T11:35:19Z</time></trkpt><trkpt lat="44.75009259730588" lon="10.22411815731775"><ele>117.0</ele><time>2026-03-28T11:35:20Z</time></trkpt><trkpt lat="44.75022038421943" lon="10.224136479144168"><ele>117.0</ele><time>2026-03-28T11:35:21Z</time></trkpt><trkpt lat="44.75034265680782" lon="10.22415462124124"><ele>117.0</ele><time>2026-03-28T11:35:22Z</time></trkpt><trkpt lat="44.75045888374515" lon="10.224169635133126"><ele>117.0</ele><time>2026-03-28T11:35:23Z</time></trkpt><trkpt lat="44.750582466430224" lon="10.22418060229087"><ele>117.0</ele><time>2026-03-28T11:35:24Z</time></trkpt><trkpt lat="44.75071086125647" lon="10.224192221576036"><ele>117.0</ele><time>2026-03-28T11:35:25Z</time></trkpt><trkpt lat="44.75083604713777" lon="10.224208019302475"><ele>117.0</ele><time>2026-03-28T11:35:26Z</time></trkpt><trkpt lat="44.750960471829394" lon="10.224227544131086"><ele>117.0</ele><time>2026-03-28T11:35:27Z</time></trkpt><trkpt lat="44.75109718294581" lon="10.224249451116826"><ele>117.0</ele><time>2026-03-28T11:35:28Z</time></trkpt><trkpt lat="44.75124211564665" lon="10.224268597077193"><ele>117.0</ele><time>2026-03-28T11:35:29Z</time></trkpt><trkpt lat="44.75138617162852" lon="10.224284358622175"><ele>117.0</ele><time>2026-03-28T11:35:30Z</time></trkpt><trkpt lat="44.751528453805896" lon="10.224297467690437"><ele>117.0</ele><time>2026-03-28T11:35:31Z</time></trkpt><trkpt lat="44.751660352088116" lon="10.22430922322539"><ele>117.0</ele><time>2026-03-28T11:35:31.999Z</time></trkpt><trkpt lat="44.751791340557155" lon="10.224325638467013"><ele>117.0</ele><time>2026-03-28T11:35:32.999Z</time></trkpt><trkpt lat="44.75191396906858" lon="10.224339551898693"><ele>117.0</ele><time>2026-03-28T11:35:33.999Z</time></trkpt><trkpt lat="44.75202546663134" lon="10.2243588374251"><ele>117.0</ele><time>2026-03-28T11:35:34.999Z</time></trkpt><trkpt lat="44.752117521080535" lon="10.224379916109804"><ele>116.8</ele><time>2026-03-28T11:35:35.999Z</time></trkpt><trkpt lat="44.752192351778376" lon="10.22440782386929"><ele>116.6</ele><time>2026-03-28T11:35:36.999Z</time></trkpt><trkpt lat="44.75228299314785" lon="10.224454469331638"><ele>116.39999999999999</ele><time>2026-03-28T11:35:38.999Z</time></trkpt><trkpt lat="44.752334914785585" lon="10.224510965721706"><ele>116.19999999999999</ele><time>2026-03-28T11:35:40.999Z</time></trkpt><trkpt lat="44.752458143745194" lon="10.22461885505418"><ele>116.0</ele><time>2026-03-28T11:35:42.999Z</time></trkpt><trkpt lat="44.752534994620554" lon="10.224668796316987"><ele>115.99999999999999</ele><time>2026-03-28T11:35:43.999Z</time></trkpt><trkpt lat="44.75260944866905" lon="10.224729826527119"><ele>116.0</ele><time>2026-03-28T11:35:44.999Z</time></trkpt><trkpt lat="44.7526670512165" lon="10.224815898529553"><ele>116.0</ele><time>2026-03-28T11:35:45.999Z</time></trkpt><trkpt lat="44.75272374557927" lon="10.224904931424504"><ele>116.0</ele><time>2026-03-28T11:35:46.999Z</time></trkpt><trkpt lat="44.75278171335833" lon="10.225009283826253"><ele>115.99999999999999</ele><time>2026-03-28T11:35:47.999Z</time></trkpt><trkpt lat="44.75283977520455" lon="10.225118308524916"><ele>116.0</ele><time>2026-03-28T11:35:48.999Z</time></trkpt><trkpt lat="44.75289895072528" lon="10.225235953429097"><ele>116.0</ele><time>2026-03-28T11:35:49.999Z</time></trkpt><trkpt lat="44.752956635646875" lon="10.225354534711434"><ele>116.0</ele><time>2026-03-28T11:35:50.999Z</time></trkpt><trkpt lat="44.75302109948464" lon="10.225485986323683"><ele>116.0</ele><time>2026-03-28T11:35:51.999Z</time></trkpt><trkpt lat="44.75309241791123" lon="10.225634661954944"><ele>116.0</ele><time>2026-03-28T11:35:52.999Z</time></trkpt><trkpt lat="44.75316189710978" lon="10.225787833467548"><ele>116.25</ele><time>2026-03-28T11:35:53.999Z</time></trkpt><trkpt lat="44.75323059398831" lon="10.225941875437904"><ele>116.5</ele><time>2026-03-28T11:35:54.999Z</time></trkpt><trkpt lat="44.75329701537416" lon="10.226076903378932"><ele>116.75</ele><time>2026-03-28T11:35:55.999Z</time></trkpt><trkpt lat="44.75336017678734" lon="10.226209079895279"><ele>117.0</ele><time>2026-03-28T11:35:56.999Z</time></trkpt><trkpt lat="44.753418516555875" lon="10.226334104476262"><ele>117.0</ele><time>2026-03-28T11:35:57.999Z</time></trkpt><trkpt lat="44.753469344487904" lon="10.226450446331118"><ele>117.0</ele><time>2026-03-28T11:35:58.999Z</time></trkpt><trkpt lat="44.75351441662568" lon="10.226550253609057"><ele>117.0</ele><time>2026-03-28T11:35:59.999Z</time></trkpt><trkpt lat="44.75355578238701" lon="10.226647340321518"><ele>117.0</ele><time>2026-03-28T11:36:00.999Z</time></trkpt><trkpt lat="44.753596044392204" lon="10.226735891896944"><ele>117.0</ele><time>2026-03-28T11:36:01.999Z</time></trkpt><trkpt lat="44.75364488475728" lon="10.22683276100929"><ele>117.0</ele><time>2026-03-28T11:36:02.999Z</time></trkpt><trkpt lat="44.753695041784944" lon="10.226920736421967"><ele>116.66666666666667</ele><time>2026-03-28T11:36:03.999Z</time></trkpt><trkpt lat="44.75374315910671" lon="10.226982855768274"><ele>116.33333333333334</ele><time>2026-03-28T11:36:04.999Z</time></trkpt><trkpt lat="44.75380406193409" lon="10.227074397503985"><ele>116.0</ele><time>2026-03-28T11:36:06.999Z</time></trkpt><trkpt lat="44.75385299252438" lon="10.227193338985009"><ele>115.66666666666667</ele><time>2026-03-28T11:36:08.999Z</time></trkpt><trkpt lat="44.75389907267172" lon="10.227290636273409"><ele>115.33333333333334</ele><time>2026-03-28T11:36:09.999Z</time></trkpt><trkpt lat="44.75396057291328" lon="10.227409651138645"><ele>115.0</ele><time>2026-03-28T11:36:10.999Z</time></trkpt><trkpt lat="44.754027228708445" lon="10.227557571439544"><ele>114.66666666666667</ele><time>2026-03-28T11:36:11.999Z</time></trkpt><trkpt lat="44.75409555804477" lon="10.227753043570964"><ele>114.33333333333334</ele><time>2026-03-28T11:36:12.999Z</time></trkpt><trkpt lat="44.75417240254148" lon="10.227967535796857"><ele>114.0</ele><time>2026-03-28T11:36:13.999Z</time></trkpt><trkpt lat="44.75426092563352" lon="10.228158694452965"><ele>113.66666666666666</ele><time>2026-03-28T11:36:14.999Z</time></trkpt><trkpt lat="44.754356722761386" lon="10.228353824779406"><ele>113.33333333333333</ele><time>2026-03-28T11:36:15.999Z</time></trkpt><trkpt lat="44.75444969607236" lon="10.228557377308883"><ele>113.0</ele><time>2026-03-28T11:36:16.999Z</time></trkpt><trkpt lat="44.75454329298654" lon="10.228762577166579"><ele>113.0</ele><time>2026-03-28T11:36:17.999Z</time></trkpt><trkpt lat="44.75463434379005" lon="10.228955179514003"><ele>113.0</ele><time>2026-03-28T11:36:18.999Z</time></trkpt><trkpt lat="44.754718532043405" lon="10.229143964671298"><ele>113.0</ele><time>2026-03-28T11:36:19.999Z</time></trkpt><trkpt lat="44.75479849970355" lon="10.229315893306834"><ele>112.75</ele><time>2026-03-28T11:36:20.999Z</time></trkpt><trkpt lat="44.7548751058491" lon="10.229492495168733"><ele>112.5</ele><time>2026-03-28T11:36:21.999Z</time></trkpt><trkpt lat="44.75494609962229" lon="10.22964921214438"><ele>112.25</ele><time>2026-03-28T11:36:22.999Z</time></trkpt><trkpt lat="44.75501776340021" lon="10.229796691202433"><ele>112.0</ele><time>2026-03-28T11:36:23.999Z</time></trkpt><trkpt lat="44.75508908961077" lon="10.229947943041969"><ele>112.0</ele><time>2026-03-28T11:36:24.999Z</time></trkpt><trkpt lat="44.75515963080478" lon="10.230094428249206"><ele>112.0</ele><time>2026-03-28T11:36:25.999Z</time></trkpt><trkpt lat="44.7552326652142" lon="10.230236490838383"><ele>112.0</ele><time>2026-03-28T11:36:26.999Z</time></trkpt><trkpt lat="44.755308569360494" lon="10.23038076869906"><ele>112.0</ele><time>2026-03-28T11:36:27.999Z</time></trkpt><trkpt lat="44.75538598866133" lon="10.230514853329591"><ele>112.00000000000001</ele><time>2026-03-28T11:36:29Z</time></trkpt><trkpt lat="44.75545465876157" lon="10.230635326980158"><ele>112.0</ele><time>2026-03-28T11:36:30Z</time></trkpt><trkpt lat="44.7555065249561" lon="10.230752083455947"><ele>112.0</ele><time>2026-03-28T11:36:31Z</time></trkpt><trkpt lat="44.75553779212046" lon="10.230854833950186"><ele>112.0</ele><time>2026-03-28T11:36:32Z</time></trkpt><trkpt lat="44.755560211108595" lon="10.230943047525962"><ele>112.00000000000001</ele><time>2026-03-28T11:36:33Z</time></trkpt><trkpt lat="44.75558276631408" lon="10.231027545603377"><ele>112.0</ele><time>2026-03-28T11:36:34Z</time></trkpt><trkpt lat="44.75560679372625" lon="10.231122071366197"><ele>112.0</ele><time>2026-03-28T11:36:35Z</time></trkpt><trkpt lat="44.75564039950688" lon="10.231232629085138"><ele>111.99999999999999</ele><time>2026-03-28T11:36:36Z</time></trkpt><trkpt lat="44.75568560879433" lon="10.231346725000234"><ele>111.99999999999999</ele><time>2026-03-28T11:36:37Z</time></trkpt><trkpt lat="44.7557563265803" lon="10.23144209678629"><ele>112.0</ele><time>2026-03-28T11:36:38Z</time></trkpt><trkpt lat="44.75585241599313" lon="10.231512467078394"><ele>112.0</ele><time>2026-03-28T11:36:39Z</time></trkpt><trkpt lat="44.755958581060675" lon="10.231596815252198"><ele>110.33333333333334</ele><time>2026-03-28T11:36:40Z</time></trkpt><trkpt lat="44.75605986916605" lon="10.231732886577163"><ele>108.66666666666666</ele><time>2026-03-28T11:36:41Z</time></trkpt><trkpt lat="44.75617429967808" lon="10.231891092784055"><ele>107.0</ele><time>2026-03-28T11:36:42Z</time></trkpt><trkpt lat="44.75620753660855" lon="10.232161384952626"><ele>107.33333333333333</ele><time>2026-03-28T11:36:43Z</time></trkpt><trkpt lat="44.75627283121923" lon="10.232427726497097"><ele>107.66666666666666</ele><time>2026-03-28T11:36:44Z</time></trkpt><trkpt lat="44.75634381554444" lon="10.232670863242717"><ele>108.0</ele><time>2026-03-28T11:36:45Z</time></trkpt><trkpt lat="44.75644146575904" lon="10.232913995620736"><ele>109.0</ele><time>2026-03-28T11:36:46Z</time></trkpt><trkpt lat="44.7565534017265" lon="10.233148790080424"><ele>110.0</ele><time>2026-03-28T11:36:47Z</time></trkpt><trkpt lat="44.75666715072137" lon="10.233381042616474"><ele>111.0</ele><time>2026-03-28T11:36:48Z</time></trkpt><trkpt lat="44.75677957453862" lon="10.233616062638339"><ele>111.0</ele><time>2026-03-28T11:36:49Z</time></trkpt><trkpt lat="44.75689005164953" lon="10.233854685382791"><ele>111.0</ele><time>2026-03-28T11:36:50Z</time></trkpt><trkpt lat="44.757004742036436" lon="10.23409914602214"><ele>111.0</ele><time>2026-03-28T11:36:51Z</time></trkpt><trkpt lat="44.75712066251252" lon="10.2343466635934"><ele>111.0</ele><time>2026-03-28T11:36:52Z</time></trkpt><trkpt lat="44.75723955785431" lon="10.234595107616638"><ele>111.0</ele><time>2026-03-28T11:36:53Z</time></trkpt><trkpt lat="44.757355686301054" lon="10.234839006330311"><ele>111.0</ele><time>2026-03-28T11:36:54Z</time></trkpt><trkpt lat="44.757474571081666" lon="10.235101354108691"><ele>111.0</ele><time>2026-03-28T11:36:55Z</time></trkpt><trkpt lat="44.757592054400014" lon="10.235361683859358"><ele>111.0</ele><time>2026-03-28T11:36:56Z</time></trkpt><trkpt lat="44.757711720699966" lon="10.235626085958119"><ele>111.0</ele><time>2026-03-28T11:36:57Z</time></trkpt><trkpt lat="44.75783101794742" lon="10.235888950617941"><ele>110.0</ele><time>2026-03-28T11:36:58Z</time></trkpt><trkpt lat="44.757954584913406" lon="10.236150034497278"><ele>109.0</ele><time>2026-03-28T11:36:59Z</time></trkpt><trkpt lat="44.75807664998772" lon="10.23641198952949"><ele>108.0</ele><time>2026-03-28T11:37:00Z</time></trkpt><trkpt lat="44.758196209853935" lon="10.236670028825362"><ele>108.0</ele><time>2026-03-28T11:37:01Z</time></trkpt><trkpt lat="44.75831347249829" lon="10.236928977430276"><ele>108.0</ele><time>2026-03-28T11:37:02Z</time></trkpt><trkpt lat="44.75842986889746" lon="10.237187758025673"><ele>108.0</ele><time>2026-03-28T11:37:03Z</time></trkpt><trkpt lat="44.75855023177732" lon="10.237452611007818"><ele>108.0</ele><time>2026-03-28T11:37:04Z</time></trkpt><trkpt lat="44.75867650854016" lon="10.237728180836612"><ele>108.0</ele><time>2026-03-28T11:37:05Z</time></trkpt><trkpt lat="44.758804850109215" lon="10.238007172244583"><ele>108.0</ele><time>2026-03-28T11:37:06Z</time></trkpt><trkpt lat="44.758939150289265" lon="10.238299401633508"><ele>108.0</ele><time>2026-03-28T11:37:07Z</time></trkpt><trkpt lat="44.75907857658995" lon="10.238601480669248"><ele>108.0</ele><time>2026-03-28T11:37:08Z</time></trkpt><trkpt lat="44.75921988461493" lon="10.238903118626224"><ele>108.0</ele><time>2026-03-28T11:37:09Z</time></trkpt><trkpt lat="44.75936193395733" lon="10.239207000767106"><ele>107.5</ele><time>2026-03-28T11:37:10Z</time></trkpt><trkpt lat="44.759505974531564" lon="10.239519296511629"><ele>107.0</ele><time>2026-03-28T11:37:11Z</time></trkpt><trkpt lat="44.759652945938186" lon="10.239832284744791"><ele>109.5</ele><time>2026-03-28T11:37:12Z</time></trkpt><trkpt lat="44.75979800648421" lon="10.24014440261527"><ele>112.0</ele><time>2026-03-28T11:37:13Z</time></trkpt><trkpt lat="44.759944213691185" lon="10.240453895959694"><ele>111.5</ele><time>2026-03-28T11:37:14Z</time></trkpt><trkpt lat="44.760082635517335" lon="10.240753100317558"><ele>111.0</ele><time>2026-03-28T11:37:15Z</time></trkpt><trkpt lat="44.76020995774145" lon="10.241030840165369"><ele>110.5</ele><time>2026-03-28T11:37:16Z</time></trkpt><trkpt lat="44.76033682741316" lon="10.241310202687128"><ele>110.0</ele><time>2026-03-28T11:37:17Z</time></trkpt><trkpt lat="44.7604656040194" lon="10.241593182703342"><ele>109.5</ele><time>2026-03-28T11:37:18Z</time></trkpt><trkpt lat="44.760595865614086" lon="10.241877546076228"><ele>109.0</ele><time>2026-03-28T11:37:19Z</time></trkpt><trkpt lat="44.76073010799368" lon="10.242165733342832"><ele>109.0</ele><time>2026-03-28T11:37:20Z</time></trkpt><trkpt lat="44.760868141064186" lon="10.242462836414825"><ele>109.0</ele><time>2026-03-28T11:37:21Z</time></trkpt><trkpt lat="44.76100301718659" lon="10.242748406675092"><ele>107.5</ele><time>2026-03-28T11:37:22Z</time></trkpt><trkpt lat="44.76112959603747" lon="10.24302244730285"><ele>106.0</ele><time>2026-03-28T11:37:23Z</time></trkpt><trkpt lat="44.76124927221678" lon="10.24328349053879"><ele>105.0</ele><time>2026-03-28T11:37:24Z</time></trkpt><trkpt lat="44.7613723569263" lon="10.24354021551603"><ele>104.0</ele><time>2026-03-28T11:37:25Z</time></trkpt><trkpt lat="44.761488829607465" lon="10.243784646204933"><ele>103.0</ele><time>2026-03-28T11:37:26Z</time></trkpt><trkpt lat="44.76160707126873" lon="10.2440318835491"><ele>102.66666666666667</ele><time>2026-03-28T11:37:27Z</time></trkpt><trkpt lat="44.76171841351367" lon="10.244271225735512"><ele>102.33333333333334</ele><time>2026-03-28T11:37:28Z</time></trkpt><trkpt lat="44.76182119270499" lon="10.244488724808956"><ele>102.0</ele><time>2026-03-28T11:37:29Z</time></trkpt><trkpt lat="44.76192584280464" lon="10.244715604464034"><ele>102.0</ele><time>2026-03-28T11:37:30Z</time></trkpt><trkpt lat="44.762030370693374" lon="10.244938318006875"><ele>102.0</ele><time>2026-03-28T11:37:31Z</time></trkpt><trkpt lat="44.762135339900105" lon="10.245159504672092"><ele>102.0</ele><time>2026-03-28T11:37:32Z</time></trkpt><trkpt lat="44.76224168314414" lon="10.245381155045745"><ele>102.0</ele><time>2026-03-28T11:37:33Z</time></trkpt><trkpt lat="44.76234500301534" lon="10.24559767983609"><ele>102.0</ele><time>2026-03-28T11:37:34Z</time></trkpt><trkpt lat="44.76244971485451" lon="10.245818002156401"><ele>102.0</ele><time>2026-03-28T11:37:35Z</time></trkpt><trkpt lat="44.762550249177636" lon="10.2460377515727"><ele>102.33333333333334</ele><time>2026-03-28T11:37:36Z</time></trkpt><trkpt lat="44.762648944493606" lon="10.246251791559905"><ele>102.66666666666667</ele><time>2026-03-28T11:37:37Z</time></trkpt><trkpt lat="44.76274570599992" lon="10.24646961808174"><ele>103.0</ele><time>2026-03-28T11:37:38Z</time></trkpt><trkpt lat="44.76284516535006" lon="10.24668098085525"><ele>103.0</ele><time>2026-03-28T11:37:39Z</time></trkpt><trkpt lat="44.762948625644135" lon="10.246893218504843"><ele>103.0</ele><time>2026-03-28T11:37:39.999Z</time></trkpt><trkpt lat="44.76305190158557" lon="10.24709382290023"><ele>103.0</ele><time>2026-03-28T11:37:40.999Z</time></trkpt><trkpt lat="44.76314990280965" lon="10.247302639518365"><ele>103.66666666666667</ele><time>2026-03-28T11:37:41.999Z</time></trkpt><trkpt lat="44.763251593329706" lon="10.247513278244519"><ele>104.33333333333334</ele><time>2026-03-28T11:37:42.999Z</time></trkpt><trkpt lat="44.7633437595026" lon="10.247715407401955"><ele>105.0</ele><time>2026-03-28T11:37:43.999Z</time></trkpt><trkpt lat="44.76343761052236" lon="10.247896374448"><ele>105.0</ele><time>2026-03-28T11:37:44.999Z</time></trkpt><trkpt lat="44.76352032983002" lon="10.248080074532567"><ele>105.0</ele><time>2026-03-28T11:37:45.999Z</time></trkpt><trkpt lat="44.763600991800935" lon="10.248255450391115"><ele>105.0</ele><time>2026-03-28T11:37:46.999Z</time></trkpt><trkpt lat="44.76368216176668" lon="10.248434506324983"><ele>104.0</ele><time>2026-03-28T11:37:47.999Z</time></trkpt><trkpt lat="44.76376567589564" lon="10.248615417145384"><ele>103.0</ele><time>2026-03-28T11:37:48.999Z</time></trkpt><trkpt lat="44.76384865372355" lon="10.248795353710221"><ele>102.0</ele><time>2026-03-28T11:37:49.999Z</time></trkpt><trkpt lat="44.76393613917493" lon="10.248977628411579"><ele>102.0</ele><time>2026-03-28T11:37:50.999Z</time></trkpt><trkpt lat="44.76402462484311" lon="10.249158996239654"><ele>102.0</ele><time>2026-03-28T11:37:51.999Z</time></trkpt><trkpt lat="44.76411014336902" lon="10.249339667574494"><ele>102.0</ele><time>2026-03-28T11:37:52.999Z</time></trkpt><trkpt lat="44.76420299372352" lon="10.249541286363423"><ele>102.0</ele><time>2026-03-28T11:37:53.999Z</time></trkpt><trkpt lat="44.76429417756694" lon="10.24974523719718"><ele>102.0</ele><time>2026-03-28T11:37:54.999Z</time></trkpt><trkpt lat="44.76439263463328" lon="10.249957600314168"><ele>102.0</ele><time>2026-03-28T11:37:55.999Z</time></trkpt><trkpt lat="44.76449727711041" lon="10.250182100147525"><ele>100.66666666666666</ele><time>2026-03-28T11:37:56.999Z</time></trkpt><trkpt lat="44.764605008202494" lon="10.250409428907389"><ele>99.33333333333333</ele><time>2026-03-28T11:37:57.999Z</time></trkpt><trkpt lat="44.76471037061339" lon="10.250638476850792"><ele>98.0</ele><time>2026-03-28T11:37:58.999Z</time></trkpt><trkpt lat="44.76481522761746" lon="10.250866060486727"><ele>98.0</ele><time>2026-03-28T11:37:59.999Z</time></trkpt><trkpt lat="44.764914660007946" lon="10.251093612677261"><ele>98.0</ele><time>2026-03-28T11:38:00.999Z</time></trkpt><trkpt lat="44.76501451793628" lon="10.251314793349149"><ele>98.0</ele><time>2026-03-28T11:38:01.999Z</time></trkpt><trkpt lat="44.76510676854288" lon="10.251517287552652"><ele>97.66666666666666</ele><time>2026-03-28T11:38:02.999Z</time></trkpt><trkpt lat="44.76519983254641" lon="10.251719733854666"><ele>97.33333333333334</ele><time>2026-03-28T11:38:03.999Z</time></trkpt><trkpt lat="44.76529279346705" lon="10.251929664897704"><ele>97.0</ele><time>2026-03-28T11:38:04.999Z</time></trkpt><trkpt lat="44.76538729710527" lon="10.252130819474296"><ele>97.33333333333334</ele><time>2026-03-28T11:38:05.999Z</time></trkpt><trkpt lat="44.76547402627545" lon="10.252332473707398"><ele>97.66666666666666</ele><time>2026-03-28T11:38:06.999Z</time></trkpt><trkpt lat="44.76556279610454" lon="10.25253820381801"><ele>98.0</ele><time>2026-03-28T11:38:07.999Z</time></trkpt><trkpt lat="44.76566004906979" lon="10.252752590851788"><ele>98.0</ele><time>2026-03-28T11:38:08.999Z</time></trkpt><trkpt lat="44.76575400080026" lon="10.252956821747796"><ele>98.0</ele><time>2026-03-28T11:38:09.999Z</time></trkpt><trkpt lat="44.765848772965214" lon="10.25316626725392"><ele>98.0</ele><time>2026-03-28T11:38:10.999Z</time></trkpt><trkpt lat="44.76594286693426" lon="10.253374049175939"><ele>98.0</ele><time>2026-03-28T11:38:11.999Z</time></trkpt><trkpt lat="44.76602825199245" lon="10.253551984406483"><ele>98.0</ele><time>2026-03-28T11:38:12.999Z</time></trkpt><trkpt lat="44.766103333453145" lon="10.253704328551692"><ele>98.0</ele><time>2026-03-28T11:38:13.999Z</time></trkpt><trkpt lat="44.766167789837596" lon="10.253839602725169"><ele>98.0</ele><time>2026-03-28T11:38:14.999Z</time></trkpt><trkpt lat="44.766218876700016" lon="10.253949268421561"><ele>97.60000000000001</ele><time>2026-03-28T11:38:15.999Z</time></trkpt><trkpt lat="44.7662565869382" lon="10.254034425150788"><ele>97.2</ele><time>2026-03-28T11:38:16.999Z</time></trkpt><trkpt lat="44.76629203756826" lon="10.25411365584298"><ele>96.8</ele><time>2026-03-28T11:38:18.999Z</time></trkpt><trkpt lat="44.7663296673502" lon="10.254199799336"><ele>96.4</ele><time>2026-03-28T11:38:22.999Z</time></trkpt><trkpt lat="44.7663762574841" lon="10.254286314286519"><ele>96.0</ele><time>2026-03-28T11:38:24.999Z</time></trkpt><trkpt lat="44.76656179573949" lon="10.254117122033072"><ele>96.0</ele><time>2026-03-28T11:38:25.999Z</time></trkpt><trkpt lat="44.766669444515756" lon="10.25405497120035"><ele>96.0</ele><time>2026-03-28T11:38:26.999Z</time></trkpt><trkpt lat="44.76678220279622" lon="10.254053311243776"><ele>96.0</ele><time>2026-03-28T11:38:27.999Z</time></trkpt><trkpt lat="44.766912534743504" lon="10.254093092542217"><ele>96.0</ele><time>2026-03-28T11:38:28.999Z</time></trkpt><trkpt lat="44.767062275109495" lon="10.254152116154604"><ele>96.0</ele><time>2026-03-28T11:38:29.999Z</time></trkpt><trkpt lat="44.767228357234096" lon="10.25420701944761"><ele>96.0</ele><time>2026-03-28T11:38:30.999Z</time></trkpt><trkpt lat="44.767405314625684" lon="10.25426072773681"><ele>96.0</ele><time>2026-03-28T11:38:31.999Z</time></trkpt><trkpt lat="44.767603542653056" lon="10.254316794742033"><ele>96.0</ele><time>2026-03-28T11:38:32.999Z</time></trkpt><trkpt lat="44.767807480128994" lon="10.25437686171842"><ele>96.0</ele><time>2026-03-28T11:38:33.999Z</time></trkpt><trkpt lat="44.76800590853203" lon="10.254436190049177"><ele>96.0</ele><time>2026-03-28T11:38:35Z</time></trkpt><trkpt lat="44.7682075177522" lon="10.254492619402528"><ele>96.0</ele><time>2026-03-28T11:38:36Z</time></trkpt><trkpt lat="44.76840097492992" lon="10.254540724332792"><ele>96.0</ele><time>2026-03-28T11:38:37Z</time></trkpt><trkpt lat="44.76858374447517" lon="10.254587298086818"><ele>96.0</ele><time>2026-03-28T11:38:38Z</time></trkpt><trkpt lat="44.76876802689249" lon="10.254635634789821"><ele>94.66666666666667</ele><time>2026-03-28T11:38:39Z</time></trkpt><trkpt lat="44.76895626213326" lon="10.254687329764213"><ele>93.33333333333334</ele><time>2026-03-28T11:38:40Z</time></trkpt><trkpt lat="44.76912628975672" lon="10.254733535144533"><ele>92.0</ele><time>2026-03-28T11:38:41Z</time></trkpt><trkpt lat="44.76928274670966" lon="10.25477948205496"><ele>92.0</ele><time>2026-03-28T11:38:42Z</time></trkpt><trkpt lat="44.769385033559566" lon="10.254801087656663"><ele>92.0</ele><time>2026-03-28T11:38:43Z</time></trkpt><trkpt lat="44.76948981853078" lon="10.254818878970363"><ele>92.0</ele><time>2026-03-28T11:38:44Z</time></trkpt><trkpt lat="44.769612365820926" lon="10.254851855245647"><ele>92.0</ele><time>2026-03-28T11:38:45Z</time></trkpt><trkpt lat="44.76975547745126" lon="10.254900128090087"><ele>92.0</ele><time>2026-03-28T11:38:46Z</time></trkpt><trkpt lat="44.7698992293931" lon="10.254946683016335"><ele>92.0</ele><time>2026-03-28T11:38:47Z</time></trkpt><trkpt lat="44.770047625665136" lon="10.254995843426588"><ele>92.0</ele><time>2026-03-28T11:38:48Z</time></trkpt><trkpt lat="44.77019269101543" lon="10.255040373888356"><ele>92.0</ele><time>2026-03-28T11:38:49Z</time></trkpt><trkpt lat="44.77032905745301" lon="10.255078367212986"><ele>92.0</ele><time>2026-03-28T11:38:50Z</time></trkpt><trkpt lat="44.77045311668379" lon="10.255109210225111"><ele>92.0</ele><time>2026-03-28T11:38:51Z</time></trkpt><trkpt lat="44.77055709140383" lon="10.255133824639316"><ele>92.0</ele><time>2026-03-28T11:38:52Z</time></trkpt><trkpt lat="44.77063614065191" lon="10.25518734225573"><ele>92.0</ele><time>2026-03-28T11:38:53Z</time></trkpt><trkpt lat="44.77070206055499" lon="10.255203506811279"><ele>92.0</ele><time>2026-03-28T11:38:54Z</time></trkpt><trkpt lat="44.770703343801976" lon="10.255446829122043"><ele>92.0</ele><time>2026-03-28T11:38:55Z</time></trkpt><trkpt lat="44.77068907763706" lon="10.255627136107602"><ele>92.0</ele><time>2026-03-28T11:38:56Z</time></trkpt><trkpt lat="44.770662953788694" lon="10.255822046052259"><ele>92.0</ele><time>2026-03-28T11:38:57Z</time></trkpt><trkpt lat="44.77062859928488" lon="10.256028314242755"><ele>92.0</ele><time>2026-03-28T11:38:58Z</time></trkpt><trkpt lat="44.77059213173741" lon="10.256236432663954"><ele>92.0</ele><time>2026-03-28T11:38:59Z</time></trkpt><trkpt lat="44.77055493498276" lon="10.256435002563288"><ele>92.0</ele><time>2026-03-28T11:39:00Z</time></trkpt><trkpt lat="44.77053208782627" lon="10.256615235599815"><ele>92.0</ele><time>2026-03-28T11:39:01Z</time></trkpt><trkpt lat="44.770544519514466" lon="10.256776398799266"><ele>92.0</ele><time>2026-03-28T11:39:02Z</time></trkpt><trkpt lat="44.770600666876824" lon="10.256919091175826"><ele>92.0</ele><time>2026-03-28T11:39:03Z</time></trkpt><trkpt lat="44.77069408465571" lon="10.257069982673606"><ele>92.0</ele><time>2026-03-28T11:39:04Z</time></trkpt><trkpt lat="44.770789282845705" lon="10.25724379666292"><ele>92.0</ele><time>2026-03-28T11:39:05Z</time></trkpt><trkpt lat="44.770885782110824" lon="10.257442510477762"><ele>91.66666666666667</ele><time>2026-03-28T11:39:06Z</time></trkpt><trkpt lat="44.770982613844446" lon="10.257649854574774"><ele>91.33333333333333</ele><time>2026-03-28T11:39:07Z</time></trkpt><trkpt lat="44.771088487506745" lon="10.257882094408814"><ele>91.0</ele><time>2026-03-28T11:39:08Z</time></trkpt><trkpt lat="44.77122045511033" lon="10.258151787558809"><ele>89.5</ele><time>2026-03-28T11:39:09Z</time></trkpt><trkpt lat="44.77135818887454" lon="10.258442094510704"><ele>88.0</ele><time>2026-03-28T11:39:10Z</time></trkpt><trkpt lat="44.77149079940135" lon="10.25872077445854"><ele>89.5</ele><time>2026-03-28T11:39:11Z</time></trkpt><trkpt lat="44.771633708736815" lon="10.259017951195773"><ele>91.0</ele><time>2026-03-28T11:39:12Z</time></trkpt><trkpt lat="44.771768576921204" lon="10.259305038533093"><ele>90.0</ele><time>2026-03-28T11:39:13Z</time></trkpt><trkpt lat="44.7718919850608" lon="10.259570293718474"><ele>89.0</ele><time>2026-03-28T11:39:14Z</time></trkpt><trkpt lat="44.772011161935524" lon="10.259826310002635"><ele>88.0</ele><time>2026-03-28T11:39:15Z</time></trkpt><trkpt lat="44.772132769123594" lon="10.26007529697012"><ele>88.0</ele><time>2026-03-28T11:39:16Z</time></trkpt><trkpt lat="44.772252889023456" lon="10.260323618511665"><ele>88.0</ele><time>2026-03-28T11:39:17Z</time></trkpt><trkpt lat="44.77237131699062" lon="10.260577000034203"><ele>88.0</ele><time>2026-03-28T11:39:18Z</time></trkpt><trkpt lat="44.77247200515672" lon="10.260800601348516"><ele>88.0</ele><time>2026-03-28T11:39:19Z</time></trkpt><trkpt lat="44.772573426666895" lon="10.261018340856369"><ele>88.0</ele><time>2026-03-28T11:39:20Z</time></trkpt><trkpt lat="44.77267789477989" lon="10.26124970444015"><ele>88.0</ele><time>2026-03-28T11:39:21Z</time></trkpt><trkpt lat="44.772789636161335" lon="10.261491930713719"><ele>88.0</ele><time>2026-03-28T11:39:22Z</time></trkpt><trkpt lat="44.77290678651806" lon="10.26173498566239"><ele>88.0</ele><time>2026-03-28T11:39:23Z</time></trkpt><trkpt lat="44.773023885937505" lon="10.26197521073371"><ele>88.0</ele><time>2026-03-28T11:39:24Z</time></trkpt><trkpt lat="44.77314221875332" lon="10.262220002302428"><ele>88.0</ele><time>2026-03-28T11:39:25Z</time></trkpt><trkpt lat="44.773248071120854" lon="10.262446817344424"><ele>88.0</ele><time>2026-03-28T11:39:26Z</time></trkpt><trkpt lat="44.773350441951386" lon="10.262667004213087"><ele>88.0</ele><time>2026-03-28T11:39:27Z</time></trkpt><trkpt lat="44.77343697451732" lon="10.262859507944952"><ele>88.0</ele><time>2026-03-28T11:39:28Z</time></trkpt><trkpt lat="44.77352152773621" lon="10.263025533467708"><ele>88.0</ele><time>2026-03-28T11:39:29Z</time></trkpt><trkpt lat="44.77360525883179" lon="10.263182899690948"><ele>88.0</ele><time>2026-03-28T11:39:30Z</time></trkpt><trkpt lat="44.773678986118405" lon="10.263333844089159"><ele>88.0</ele><time>2026-03-28T11:39:31Z</time></trkpt><trkpt lat="44.77373126586238" lon="10.263452796364977"><ele>87.57142857142857</ele><time>2026-03-28T11:39:32Z</time></trkpt><trkpt lat="44.77377841668455" lon="10.263526111750922"><ele>87.14285714285714</ele><time>2026-03-28T11:39:33Z</time></trkpt><trkpt lat="44.77384216650209" lon="10.263552809450646"><ele>86.71428571428572</ele><time>2026-03-28T11:39:34Z</time></trkpt><trkpt lat="44.77390392150749" lon="10.263528318900779"><ele>86.28571428571428</ele><time>2026-03-28T11:39:35Z</time></trkpt><trkpt lat="44.773969839729254" lon="10.263483824655706"><ele>85.85714285714285</ele><time>2026-03-28T11:39:36Z</time></trkpt><trkpt lat="44.773975388812325" lon="10.263382483404605"><ele>85.42857142857143</ele><time>2026-03-28T11:39:37Z</time></trkpt><trkpt lat="44.77398434885095" lon="10.263254546378695"><ele>85.0</ele><time>2026-03-28T11:39:39Z</time></trkpt><trkpt lat="44.77400693246389" lon="10.263135731684287"><ele>85.2</ele><time>2026-03-28T11:40:04.999Z</time></trkpt><trkpt lat="44.77391599422475" lon="10.263043845433048"><ele>85.4</ele><time>2026-03-28T11:40:06.999Z</time></trkpt><trkpt lat="44.773799291121605" lon="10.263014055884701"><ele>85.6</ele><time>2026-03-28T11:40:08.999Z</time></trkpt><trkpt lat="44.77373781213052" lon="10.262985918184587"><ele>85.8</ele><time>2026-03-28T11:40:09.999Z</time></trkpt><trkpt lat="44.77366773911378" lon="10.26284026700286"><ele>86.0</ele><time>2026-03-28T11:40:11.999Z</time></trkpt><trkpt lat="44.773606404879075" lon="10.262711541860451"><ele>86.0</ele><time>2026-03-28T11:40:13.999Z</time></trkpt><trkpt lat="44.773641425076235" lon="10.262595042987058"><ele>86.0</ele><time>2026-03-28T11:42:20.999Z</time></trkpt><trkpt lat="44.773658778696685" lon="10.262443468713046"><ele>86.0</ele><time>2026-03-28T11:42:22.999Z</time></trkpt><trkpt lat="44.773683651563324" lon="10.262321369490092"><ele>86.0</ele><time>2026-03-28T11:42:24.999Z</time></trkpt><trkpt lat="44.77370388786083" lon="10.262222030934211"><ele>86.0</ele><time>2026-03-28T11:42:26.999Z</time></trkpt><trkpt lat="44.77376822065186" lon="10.262230170639029"><ele>86.0</ele><time>2026-03-28T11:42:30.999Z</time></trkpt></trkseg></trk></gpx>